<?xml version='1.0' encoding='UTF-8'?><gpx version="1.1" creator="JPX - https://github.com/jenetics/jpx" xmlns="http://www.topografix.com/GPX/1/1"><trk><trkseg><trkpt lat="43.082143315154205" lon="12.14980417863666"><ele>265.0</ele><time>2026-03-29T06:19:17.285Z</time></trkpt><trkpt lat="43.082158844085605" lon="12.149934577886393"><ele>265.0</ele><time>2026-03-29T06:19:18.292Z</time></trkpt><trkpt lat="43.08215868234551" lon="12.150037163725457"><ele>265.0</ele><time>2026-03-29T06:19:21.884Z</time></trkpt><trkpt lat="43.08222236452889" lon="12.150072570270767"><ele>265.0</ele><time>2026-03-29T06:19:23.999Z</time></trkpt><trkpt lat="43.082322505613995" lon="12.15003749874546"><ele>265.0</ele><time>2026-03-29T06:19:25.999Z</time></trkpt><trkpt lat="43.08242932025703" lon="12.150006738800368"><ele>264.4</ele><time>2026-03-29T06:19:27.999Z</time></trkpt><trkpt lat="43.082495980416304" lon="12.150034949699341"><ele>263.8</ele><time>2026-03-29T06:19:28.999Z</time></trkpt><trkpt lat="43.08260308271879" lon="12.150017369290921"><ele>263.2</ele><time>2026-03-29T06:19:31Z</time></trkpt><trkpt lat="43.082721576004666" lon="12.149997919106228"><ele>262.6</ele><time>2026-03-29T06:19:33Z</time></trkpt><trkpt lat="43.08279774753489" lon="12.149985415857387"><ele>262.0</ele><time>2026-03-29T06:19:34Z</time></trkpt><trkpt lat="43.082875025129326" lon="12.149969906505305"><ele>262.0</ele><time>2026-03-29T06:19:35Z</time></trkpt><trkpt lat="43.08294732538674" lon="12.149954127637413"><ele>262.0</ele><time>2026-03-29T06:19:36Z</time></trkpt><trkpt lat="43.0830169389731" lon="12.14995407301417"><ele>262.0</ele><time>2026-03-29T06:19:37Z</time></trkpt><trkpt lat="43.08308781469243" lon="12.149978135843327"><ele>262.0</ele><time>2026-03-29T06:19:38Z</time></trkpt><trkpt lat="43.08316240577234" lon="12.149988641607678"><ele>262.0</ele><time>2026-03-29T06:19:39Z</time></trkpt><trkpt lat="43.083218410021345" lon="12.150045882081804"><ele>262.0</ele><time>2026-03-29T06:19:40Z</time></trkpt><trkpt lat="43.08333983783089" lon="12.149832176732058"><ele>261.5</ele><time>2026-03-29T06:19:41Z</time></trkpt><trkpt lat="43.08341512357334" lon="12.149820059450667"><ele>261.0</ele><time>2026-03-29T06:19:42Z</time></trkpt><trkpt lat="43.08349636601041" lon="12.149800717934145"><ele>260.5</ele><time>2026-03-29T06:19:43Z</time></trkpt><trkpt lat="43.08358524846807" lon="12.149785643438108"><ele>260.0</ele><time>2026-03-29T06:19:44Z</time></trkpt><trkpt lat="43.08367351856727" lon="12.149778423749522"><ele>259.5</ele><time>2026-03-29T06:19:45Z</time></trkpt><trkpt lat="43.08376234559116" lon="12.149788853236222"><ele>259.0</ele><time>2026-03-29T06:19:46Z</time></trkpt><trkpt lat="43.08388595201427" lon="12.149754313197013"><ele>259.0</ele><time>2026-03-29T06:19:47Z</time></trkpt><trkpt lat="43.08402305576001" lon="12.149713467239597"><ele>259.0</ele><time>2026-03-29T06:19:48Z</time></trkpt><trkpt lat="43.08410882002594" lon="12.149708261609097"><ele>259.0</ele><time>2026-03-29T06:19:49Z</time></trkpt><trkpt lat="43.084200596403896" lon="12.14967663848917"><ele>259.0</ele><time>2026-03-29T06:19:50Z</time></trkpt><trkpt lat="43.084313695859045" lon="12.149659852614201"><ele>259.0</ele><time>2026-03-29T06:19:51Z</time></trkpt><trkpt lat="43.08444047680313" lon="12.149643635362578"><ele>259.0</ele><time>2026-03-29T06:19:52Z</time></trkpt><trkpt lat="43.08453556672081" lon="12.149625934757053"><ele>259.0</ele><time>2026-03-29T06:19:53Z</time></trkpt><trkpt lat="43.08464943574859" lon="12.14960440051047"><ele>259.0</ele><time>2026-03-29T06:19:54Z</time></trkpt><trkpt lat="43.084753110362605" lon="12.14959062777502"><ele>259.0</ele><time>2026-03-29T06:19:55Z</time></trkpt><trkpt lat="43.084851294144045" lon="12.149574155992946"><ele>259.0</ele><time>2026-03-29T06:19:56.001Z</time></trkpt><trkpt lat="43.084934571060096" lon="12.149554978647222"><ele>259.0</ele><time>2026-03-29T06:19:57.001Z</time></trkpt><trkpt lat="43.0850005652336" lon="12.149537056558426"><ele>259.0</ele><time>2026-03-29T06:19:58.001Z</time></trkpt><trkpt lat="43.08510552141297" lon="12.149529255169613"><ele>259.0</ele><time>2026-03-29T06:20:00.001Z</time></trkpt><trkpt lat="43.085163219034875" lon="12.149606075831239"><ele>259.0</ele><time>2026-03-29T06:20:02.001Z</time></trkpt><trkpt lat="43.08519800542186" lon="12.149765881190202"><ele>259.0</ele><time>2026-03-29T06:20:04.001Z</time></trkpt><trkpt lat="43.08521449940802" lon="12.149918609841931"><ele>259.0</ele><time>2026-03-29T06:20:06.001Z</time></trkpt><trkpt lat="43.08525584179461" lon="12.150076668504965"><ele>259.0</ele><time>2026-03-29T06:20:08.001Z</time></trkpt><trkpt lat="43.08530492970346" lon="12.150238347318266"><ele>259.0</ele><time>2026-03-29T06:20:10.001Z</time></trkpt><trkpt lat="43.085342005289434" lon="12.15039763969724"><ele>259.0</ele><time>2026-03-29T06:20:12.001Z</time></trkpt><trkpt lat="43.08538237083443" lon="12.150546925108067"><ele>259.0</ele><time>2026-03-29T06:20:14.001Z</time></trkpt><trkpt lat="43.08542921886507" lon="12.150691124640357"><ele>259.0</ele><time>2026-03-29T06:20:16.001Z</time></trkpt><trkpt lat="43.08547901488466" lon="12.15081697198"><ele>259.0</ele><time>2026-03-29T06:20:18.001Z</time></trkpt><trkpt lat="43.08549553839585" lon="12.150918790021452"><ele>259.0</ele><time>2026-03-29T06:20:20.001Z</time></trkpt><trkpt lat="43.08553372530009" lon="12.151042283880987"><ele>259.0</ele><time>2026-03-29T06:20:22.001Z</time></trkpt><trkpt lat="43.085576105673006" lon="12.151169143380319"><ele>258.8</ele><time>2026-03-29T06:20:24.001Z</time></trkpt><trkpt lat="43.08561763318668" lon="12.151287195721565"><ele>258.59999999999997</ele><time>2026-03-29T06:20:26.001Z</time></trkpt><trkpt lat="43.08565463958052" lon="12.151425309660056"><ele>258.4</ele><time>2026-03-29T06:20:28.001Z</time></trkpt><trkpt lat="43.085691864946185" lon="12.15157982104095"><ele>258.2</ele><time>2026-03-29T06:20:30.001Z</time></trkpt><trkpt lat="43.08571827167632" lon="12.15166939308049"><ele>258.0</ele><time>2026-03-29T06:20:31.001Z</time></trkpt><trkpt lat="43.08574359184126" lon="12.151755784313773"><ele>258.0</ele><time>2026-03-29T06:20:32.001Z</time></trkpt><trkpt lat="43.085771476418586" lon="12.15184934970272"><ele>258.0</ele><time>2026-03-29T06:20:33.001Z</time></trkpt><trkpt lat="43.085797479025544" lon="12.151947356493267"><ele>258.0</ele><time>2026-03-29T06:20:34.001Z</time></trkpt><trkpt lat="43.08582220625321" lon="12.152050696788502"><ele>258.0</ele><time>2026-03-29T06:20:35.001Z</time></trkpt><trkpt lat="43.08585344921692" lon="12.152157867431317"><ele>258.0</ele><time>2026-03-29T06:20:36.001Z</time></trkpt><trkpt lat="43.085891805328004" lon="12.152269658151038"><ele>258.0</ele><time>2026-03-29T06:20:37.001Z</time></trkpt><trkpt lat="43.08592789894061" lon="12.152378814213863"><ele>258.2</ele><time>2026-03-29T06:20:38.001Z</time></trkpt><trkpt lat="43.08596588060827" lon="12.1524926075982"><ele>258.4</ele><time>2026-03-29T06:20:39.001Z</time></trkpt><trkpt lat="43.08600519798831" lon="12.152613316751056"><ele>258.59999999999997</ele><time>2026-03-29T06:20:40.002Z</time></trkpt><trkpt lat="43.08604547438182" lon="12.152739672627195"><ele>258.8</ele><time>2026-03-29T06:20:41.002Z</time></trkpt><trkpt lat="43.086082991968226" lon="12.15287000635605"><ele>259.0</ele><time>2026-03-29T06:20:42.002Z</time></trkpt><trkpt lat="43.08612037785468" lon="12.152994538788164"><ele>259.0</ele><time>2026-03-29T06:20:43.002Z</time></trkpt><trkpt lat="43.08616549622451" lon="12.153120008145056"><ele>259.0</ele><time>2026-03-29T06:20:44.002Z</time></trkpt><trkpt lat="43.08620602938763" lon="12.15324728911459"><ele>259.0</ele><time>2026-03-29T06:20:45.002Z</time></trkpt><trkpt lat="43.086252501272455" lon="12.153371287541113"><ele>259.0</ele><time>2026-03-29T06:20:46.002Z</time></trkpt><trkpt lat="43.08629359917063" lon="12.153497793376582"><ele>259.0</ele><time>2026-03-29T06:20:47.002Z</time></trkpt><trkpt lat="43.086335869872414" lon="12.15362227693861"><ele>259.0</ele><time>2026-03-29T06:20:48.002Z</time></trkpt><trkpt lat="43.08637527543807" lon="12.153734640071834"><ele>259.0</ele><time>2026-03-29T06:20:49.002Z</time></trkpt><trkpt lat="43.08640902842555" lon="12.15383933404727"><ele>259.0</ele><time>2026-03-29T06:20:50.002Z</time></trkpt><trkpt lat="43.0864487076831" lon="12.153944920201376"><ele>259.0</ele><time>2026-03-29T06:20:51.002Z</time></trkpt><trkpt lat="43.086482272604975" lon="12.154038369971893"><ele>259.0</ele><time>2026-03-29T06:20:52.002Z</time></trkpt><trkpt lat="43.08650527034544" lon="12.154125293699092"><ele>259.0</ele><time>2026-03-29T06:20:53.002Z</time></trkpt><trkpt lat="43.08651972707043" lon="12.15421109561239"><ele>259.2</ele><time>2026-03-29T06:20:54.002Z</time></trkpt><trkpt lat="43.086469001854496" lon="12.154335077370826"><ele>259.4</ele><time>2026-03-29T06:20:56.002Z</time></trkpt><trkpt lat="43.08634256267027" lon="12.154376713450894"><ele>259.6</ele><time>2026-03-29T06:20:58.002Z</time></trkpt><trkpt lat="43.08626691241182" lon="12.154446930746385"><ele>259.8</ele><time>2026-03-29T06:20:59.002Z</time></trkpt><trkpt lat="43.08620489792837" lon="12.154485250557697"><ele>260.0</ele><time>2026-03-29T06:21:00.002Z</time></trkpt><trkpt lat="43.08610497959443" lon="12.154539335627375"><ele>260.0</ele><time>2026-03-29T06:21:02.002Z</time></trkpt><trkpt lat="43.086161280700445" lon="12.154688830045469"><ele>260.0</ele><time>2026-03-29T06:21:05.002Z</time></trkpt><trkpt lat="43.08628347171078" lon="12.154769021744187"><ele>260.0</ele><time>2026-03-29T06:21:07.002Z</time></trkpt><trkpt lat="43.08636952913255" lon="12.154801725291453"><ele>260.0</ele><time>2026-03-29T06:21:08.002Z</time></trkpt><trkpt lat="43.08644780485089" lon="12.154848362360923"><ele>260.0</ele><time>2026-03-29T06:21:09.002Z</time></trkpt><trkpt lat="43.086529765891946" lon="12.15492301752125"><ele>259.8</ele><time>2026-03-29T06:21:10.002Z</time></trkpt><trkpt lat="43.08660750656161" lon="12.155024003346442"><ele>259.6</ele><time>2026-03-29T06:21:11.002Z</time></trkpt><trkpt lat="43.08667680689792" lon="12.155135545844864"><ele>259.4</ele><time>2026-03-29T06:21:12.002Z</time></trkpt><trkpt lat="43.08674862329832" lon="12.155243920554428"><ele>259.2</ele><time>2026-03-29T06:21:13.002Z</time></trkpt><trkpt lat="43.086820245945496" lon="12.155368781889065"><ele>259.0</ele><time>2026-03-29T06:21:14.002Z</time></trkpt><trkpt lat="43.08688022262751" lon="12.15549614918142"><ele>259.0</ele><time>2026-03-29T06:21:15.002Z</time></trkpt><trkpt lat="43.08693011174401" lon="12.155622082191531"><ele>259.0</ele><time>2026-03-29T06:21:16.002Z</time></trkpt><trkpt lat="43.08696796331334" lon="12.155721108583936"><ele>259.0</ele><time>2026-03-29T06:21:17.002Z</time></trkpt><trkpt lat="43.08701239565088" lon="12.155852461902786"><ele>259.0</ele><time>2026-03-29T06:21:18.002Z</time></trkpt><trkpt lat="43.087054848196715" lon="12.156015859241213"><ele>259.0</ele><time>2026-03-29T06:21:19.002Z</time></trkpt><trkpt lat="43.087100088278284" lon="12.156180895337103"><ele>259.0</ele><time>2026-03-29T06:21:20.002Z</time></trkpt><trkpt lat="43.087136375249216" lon="12.156311227040906"><ele>259.0</ele><time>2026-03-29T06:21:21.002Z</time></trkpt><trkpt lat="43.0871919978024" lon="12.156458822627366"><ele>259.0</ele><time>2026-03-29T06:21:22.002Z</time></trkpt><trkpt lat="43.08721575833306" lon="12.156594240922908"><ele>259.0</ele><time>2026-03-29T06:21:23.002Z</time></trkpt><trkpt lat="43.0872574394222" lon="12.156725132592129"><ele>259.0</ele><time>2026-03-29T06:21:24.002Z</time></trkpt><trkpt lat="43.087296776619446" lon="12.156830752823051"><ele>259.0</ele><time>2026-03-29T06:21:25.002Z</time></trkpt><trkpt lat="43.087329366835604" lon="12.15693628840011"><ele>259.0</ele><time>2026-03-29T06:21:26.002Z</time></trkpt><trkpt lat="43.087353646768825" lon="12.157026702810356"><ele>259.0</ele><time>2026-03-29T06:21:27.002Z</time></trkpt><trkpt lat="43.087381676821934" lon="12.157146635983826"><ele>259.0</ele><time>2026-03-29T06:21:29.003Z</time></trkpt><trkpt lat="43.08740475512178" lon="12.1572673630445"><ele>259.0</ele><time>2026-03-29T06:21:32.003Z</time></trkpt><trkpt lat="43.087444103478134" lon="12.157423639647476"><ele>259.16666666666663</ele><time>2026-03-29T06:21:34.002Z</time></trkpt><trkpt lat="43.087461292262375" lon="12.15752390986144"><ele>259.3333333333333</ele><time>2026-03-29T06:21:35.002Z</time></trkpt><trkpt lat="43.08748549886301" lon="12.157615790581211"><ele>259.5</ele><time>2026-03-29T06:21:36.002Z</time></trkpt><trkpt lat="43.08752539868615" lon="12.157709843829405"><ele>259.6666666666667</ele><time>2026-03-29T06:21:37.002Z</time></trkpt><trkpt lat="43.087548477486735" lon="12.157836717427827"><ele>259.83333333333337</ele><time>2026-03-29T06:21:38.002Z</time></trkpt><trkpt lat="43.087584439585434" lon="12.157940014538026"><ele>260.0</ele><time>2026-03-29T06:21:39.002Z</time></trkpt><trkpt lat="43.08759533159436" lon="12.158058269231505"><ele>260.0</ele><time>2026-03-29T06:21:40.002Z</time></trkpt><trkpt lat="43.087634358982534" lon="12.158178239380478"><ele>260.0</ele><time>2026-03-29T06:21:41.002Z</time></trkpt><trkpt lat="43.08764590576086" lon="12.158282758195588"><ele>260.0</ele><time>2026-03-29T06:21:42.002Z</time></trkpt><trkpt lat="43.08767176966555" lon="12.158407206392388"><ele>260.0</ele><time>2026-03-29T06:21:43.002Z</time></trkpt><trkpt lat="43.0876989240527" lon="12.158529938576608"><ele>260.0</ele><time>2026-03-29T06:21:44.002Z</time></trkpt><trkpt lat="43.08771305466642" lon="12.158644514816762"><ele>260.0</ele><time>2026-03-29T06:21:45.001Z</time></trkpt><trkpt lat="43.08774927647615" lon="12.158818299704949"><ele>260.0</ele><time>2026-03-29T06:21:47.001Z</time></trkpt><trkpt lat="43.08777501431763" lon="12.158920247910833"><ele>260.0</ele><time>2026-03-29T06:21:48.001Z</time></trkpt><trkpt lat="43.08780014399595" lon="12.15903253371195"><ele>260.0</ele><time>2026-03-29T06:21:49.001Z</time></trkpt><trkpt lat="43.087811208390654" lon="12.159131078927166"><ele>260.0</ele><time>2026-03-29T06:21:50.001Z</time></trkpt><trkpt lat="43.087772247836405" lon="12.159281295732102"><ele>260.0</ele><time>2026-03-29T06:21:52.001Z</time></trkpt><trkpt lat="43.08765958320768" lon="12.15929372728991"><ele>259.83333333333337</ele><time>2026-03-29T06:21:54.001Z</time></trkpt><trkpt lat="43.08758631162816" lon="12.159329708332372"><ele>259.6666666666667</ele><time>2026-03-29T06:21:55.001Z</time></trkpt><trkpt lat="43.08751288643992" lon="12.15937807750853"><ele>259.5</ele><time>2026-03-29T06:21:56.001Z</time></trkpt><trkpt lat="43.08743548086655" lon="12.159411359996719"><ele>259.3333333333333</ele><time>2026-03-29T06:21:57.001Z</time></trkpt><trkpt lat="43.087367580011566" lon="12.159442697119175"><ele>259.16666666666663</ele><time>2026-03-29T06:21:58.001Z</time></trkpt><trkpt lat="43.08729785689258" lon="12.159480207457024"><ele>259.0</ele><time>2026-03-29T06:21:59.001Z</time></trkpt><trkpt lat="43.08722554794763" lon="12.159526301422993"><ele>259.66666666666663</ele><time>2026-03-29T06:22:00.001Z</time></trkpt><trkpt lat="43.0871495197397" lon="12.159572424204944"><ele>260.3333333333333</ele><time>2026-03-29T06:22:01.001Z</time></trkpt><trkpt lat="43.08708305679381" lon="12.159638804093888"><ele>261.0</ele><time>2026-03-29T06:22:02.001Z</time></trkpt><trkpt lat="43.087026620409574" lon="12.159710968019665"><ele>261.6666666666667</ele><time>2026-03-29T06:22:03.001Z</time></trkpt><trkpt lat="43.08695848849922" lon="12.15979030350184"><ele>262.33333333333337</ele><time>2026-03-29T06:22:04.001Z</time></trkpt><trkpt lat="43.08689050927871" lon="12.15986467409306"><ele>263.0</ele><time>2026-03-29T06:22:05.001Z</time></trkpt><trkpt lat="43.08682497145002" lon="12.159916927930961"><ele>263.6</ele><time>2026-03-29T06:22:06.001Z</time></trkpt><trkpt lat="43.08678091805105" lon="12.159981207758678"><ele>264.20000000000005</ele><time>2026-03-29T06:22:07.001Z</time></trkpt><trkpt lat="43.08671879673153" lon="12.160062015032164"><ele>264.8</ele><time>2026-03-29T06:22:09.001Z</time></trkpt><trkpt lat="43.086681791028674" lon="12.160150124190961"><ele>265.40000000000003</ele><time>2026-03-29T06:22:28.001Z</time></trkpt><trkpt lat="43.086834414602464" lon="12.16030801943419"><ele>266.0</ele><time>2026-03-29T06:22:29.001Z</time></trkpt><trkpt lat="43.08691014635691" lon="12.160377586160124"><ele>266.0</ele><time>2026-03-29T06:22:30.001Z</time></trkpt><trkpt lat="43.086985461740866" lon="12.160464772703108"><ele>266.0</ele><time>2026-03-29T06:22:31.001Z</time></trkpt><trkpt lat="43.087067052366415" lon="12.160552628659177"><ele>266.0</ele><time>2026-03-29T06:22:32.001Z</time></trkpt><trkpt lat="43.08716046083698" lon="12.160630769540273"><ele>266.0</ele><time>2026-03-29T06:22:33.001Z</time></trkpt><trkpt lat="43.08725770849129" lon="12.16072382308506"><ele>266.0</ele><time>2026-03-29T06:22:34.001Z</time></trkpt><trkpt lat="43.08734386648599" lon="12.160817648459801"><ele>266.25</ele><time>2026-03-29T06:22:35.001Z</time></trkpt><trkpt lat="43.08743951766372" lon="12.160903827727006"><ele>266.5</ele><time>2026-03-29T06:22:36.001Z</time></trkpt><trkpt lat="43.0875395712185" lon="12.161000918499598"><ele>266.75</ele><time>2026-03-29T06:22:37.001Z</time></trkpt><trkpt lat="43.087643897202454" lon="12.16112681264715"><ele>267.0</ele><time>2026-03-29T06:22:38.001Z</time></trkpt><trkpt lat="43.087768535189056" lon="12.161228647548032"><ele>267.0</ele><time>2026-03-29T06:22:39.001Z</time></trkpt><trkpt lat="43.087883377453295" lon="12.161340175767709"><ele>267.0</ele><time>2026-03-29T06:22:40.001Z</time></trkpt><trkpt lat="43.088036708975594" lon="12.16146418380169"><ele>267.0</ele><time>2026-03-29T06:22:41.001Z</time></trkpt><trkpt lat="43.08815694579284" lon="12.161581179977224"><ele>268.3333333333333</ele><time>2026-03-29T06:22:42.001Z</time></trkpt><trkpt lat="43.08828761553703" lon="12.161687548877437"><ele>269.66666666666663</ele><time>2026-03-29T06:22:43.001Z</time></trkpt><trkpt lat="43.08840827474181" lon="12.161826061626531"><ele>271.0</ele><time>2026-03-29T06:22:44.001Z</time></trkpt><trkpt lat="43.088533180194815" lon="12.161933601885465"><ele>271.0</ele><time>2026-03-29T06:22:45.001Z</time></trkpt><trkpt lat="43.088646333778314" lon="12.162047678187863"><ele>271.0</ele><time>2026-03-29T06:22:46.001Z</time></trkpt><trkpt lat="43.088766739359194" lon="12.162162819059285"><ele>271.0</ele><time>2026-03-29T06:22:47.001Z</time></trkpt><trkpt lat="43.08889257783797" lon="12.162287915666967"><ele>271.0</ele><time>2026-03-29T06:22:48.001Z</time></trkpt><trkpt lat="43.089019932227885" lon="12.16240591274115"><ele>270.0</ele><time>2026-03-29T06:22:49.001Z</time></trkpt><trkpt lat="43.08913831199378" lon="12.162526339711377"><ele>269.0</ele><time>2026-03-29T06:22:50.001Z</time></trkpt><trkpt lat="43.089259912279516" lon="12.162656715642433"><ele>268.0</ele><time>2026-03-29T06:22:51.001Z</time></trkpt><trkpt lat="43.08939145636796" lon="12.16277471072387"><ele>268.0</ele><time>2026-03-29T06:22:52.001Z</time></trkpt><trkpt lat="43.08951748775011" lon="12.162887506021095"><ele>268.0</ele><time>2026-03-29T06:22:53.001Z</time></trkpt><trkpt lat="43.089639462466806" lon="12.163002189949289"><ele>268.0</ele><time>2026-03-29T06:22:54.001Z</time></trkpt><trkpt lat="43.08975024057518" lon="12.16311683556733"><ele>268.0</ele><time>2026-03-29T06:22:55.001Z</time></trkpt><trkpt lat="43.08986193246255" lon="12.163230337972823"><ele>268.25</ele><time>2026-03-29T06:22:56.001Z</time></trkpt><trkpt lat="43.0899799353583" lon="12.16334654338535"><ele>268.5</ele><time>2026-03-29T06:22:57.001Z</time></trkpt><trkpt lat="43.09008381248865" lon="12.163469919229383"><ele>268.75</ele><time>2026-03-29T06:22:58.001Z</time></trkpt><trkpt lat="43.09017132818235" lon="12.163610798018027"><ele>269.0</ele><time>2026-03-29T06:22:59.001Z</time></trkpt><trkpt lat="43.09024295492029" lon="12.163782250673735"><ele>269.0</ele><time>2026-03-29T06:23:00.001Z</time></trkpt><trkpt lat="43.09030148215407" lon="12.163967703924856"><ele>269.0</ele><time>2026-03-29T06:23:01.001Z</time></trkpt><trkpt lat="43.0903420279184" lon="12.164166100851116"><ele>269.0</ele><time>2026-03-29T06:23:02.001Z</time></trkpt><trkpt lat="43.09040161687741" lon="12.16434239349767"><ele>269.0</ele><time>2026-03-29T06:23:03.001Z</time></trkpt><trkpt lat="43.09044507014004" lon="12.164526157185497"><ele>274.0</ele><time>2026-03-29T06:23:04.001Z</time></trkpt><trkpt lat="43.090509365452284" lon="12.164715659968873"><ele>279.0</ele><time>2026-03-29T06:23:05.001Z</time></trkpt><trkpt lat="43.09056733291846" lon="12.164908878748314"><ele>284.0</ele><time>2026-03-29T06:23:06.001Z</time></trkpt><trkpt lat="43.09063257761585" lon="12.165105944942914"><ele>285.75</ele><time>2026-03-29T06:23:07.001Z</time></trkpt><trkpt lat="43.09068583859637" lon="12.165302698974527"><ele>287.5</ele><time>2026-03-29T06:23:08.001Z</time></trkpt><trkpt lat="43.09072583769518" lon="12.165481670872646"><ele>289.25</ele><time>2026-03-29T06:23:09.001Z</time></trkpt><trkpt lat="43.09075091224786" lon="12.165668756625374"><ele>291.0</ele><time>2026-03-29T06:23:10.001Z</time></trkpt><trkpt lat="43.09075965569381" lon="12.16584929136609"><ele>291.5</ele><time>2026-03-29T06:23:11.001Z</time></trkpt><trkpt lat="43.09074853544651" lon="12.166037553316865"><ele>292.0</ele><time>2026-03-29T06:23:12.001Z</time></trkpt><trkpt lat="43.09072168767777" lon="12.166227617818098"><ele>292.5</ele><time>2026-03-29T06:23:13.001Z</time></trkpt><trkpt lat="43.090705023799295" lon="12.166417592163842"><ele>293.0</ele><time>2026-03-29T06:23:14.001Z</time></trkpt><trkpt lat="43.09066853938784" lon="12.16660274410858"><ele>289.33333333333337</ele><time>2026-03-29T06:23:15.001Z</time></trkpt><trkpt lat="43.09062786044935" lon="12.16680599686659"><ele>285.6666666666667</ele><time>2026-03-29T06:23:16.001Z</time></trkpt><trkpt lat="43.09059757770213" lon="12.16700945413817"><ele>282.0</ele><time>2026-03-29T06:23:17.001Z</time></trkpt><trkpt lat="43.09057019038968" lon="12.167213633526638"><ele>280.0</ele><time>2026-03-29T06:23:18.001Z</time></trkpt><trkpt lat="43.0905361987126" lon="12.167414329302385"><ele>278.0</ele><time>2026-03-29T06:23:19.001Z</time></trkpt><trkpt lat="43.09050885406616" lon="12.167614121146894"><ele>276.0</ele><time>2026-03-29T06:23:20.001Z</time></trkpt><trkpt lat="43.09047677434589" lon="12.167803253657532"><ele>274.0</ele><time>2026-03-29T06:23:21.001Z</time></trkpt><trkpt lat="43.09044690900708" lon="12.167993996817978"><ele>274.0</ele><time>2026-03-29T06:23:22.001Z</time></trkpt><trkpt lat="43.09041392228909" lon="12.16819184196939"><ele>274.0</ele><time>2026-03-29T06:23:23.001Z</time></trkpt><trkpt lat="43.090377835151756" lon="12.168390140733013"><ele>274.0</ele><time>2026-03-29T06:23:24.001Z</time></trkpt><trkpt lat="43.090333558809135" lon="12.168583746181596"><ele>274.0</ele><time>2026-03-29T06:23:25.001Z</time></trkpt><trkpt lat="43.09027079948002" lon="12.168767432752214"><ele>275.0</ele><time>2026-03-29T06:23:26.001Z</time></trkpt><trkpt lat="43.09020205655712" lon="12.16893786282864"><ele>276.0</ele><time>2026-03-29T06:23:27.001Z</time></trkpt><trkpt lat="43.090112463117315" lon="12.169101192886055"><ele>277.0</ele><time>2026-03-29T06:23:28.001Z</time></trkpt><trkpt lat="43.090022144915466" lon="12.169267603068672"><ele>278.0</ele><time>2026-03-29T06:23:29.001Z</time></trkpt><trkpt lat="43.089935402689825" lon="12.169427484029868"><ele>276.25</ele><time>2026-03-29T06:23:30.001Z</time></trkpt><trkpt lat="43.089848051417746" lon="12.169581592607566"><ele>274.5</ele><time>2026-03-29T06:23:31.001Z</time></trkpt><trkpt lat="43.089761307171315" lon="12.16974886987033"><ele>272.75</ele><time>2026-03-29T06:23:32.001Z</time></trkpt><trkpt lat="43.08968242048754" lon="12.169916459351654"><ele>271.0</ele><time>2026-03-29T06:23:33.001Z</time></trkpt><trkpt lat="43.089593055228555" lon="12.17008879264087"><ele>271.0</ele><time>2026-03-29T06:23:34.001Z</time></trkpt><trkpt lat="43.08949618283583" lon="12.170266092000212"><ele>271.0</ele><time>2026-03-29T06:23:35.001Z</time></trkpt><trkpt lat="43.08940811198106" lon="12.170427396727494"><ele>271.0</ele><time>2026-03-29T06:23:36.001Z</time></trkpt><trkpt lat="43.08932018324803" lon="12.170607014363851"><ele>267.3333333333333</ele><time>2026-03-29T06:23:37.001Z</time></trkpt><trkpt lat="43.089225745652136" lon="12.170766705269513"><ele>263.6666666666667</ele><time>2026-03-29T06:23:38.001Z</time></trkpt><trkpt lat="43.089131666158366" lon="12.170932036331896"><ele>260.0</ele><time>2026-03-29T06:23:39.001Z</time></trkpt><trkpt lat="43.089044397182896" lon="12.171099839701993"><ele>262.75</ele><time>2026-03-29T06:23:40.001Z</time></trkpt><trkpt lat="43.0889573152821" lon="12.171261093376065"><ele>265.5</ele><time>2026-03-29T06:23:41.001Z</time></trkpt><trkpt lat="43.088876990424865" lon="12.171415054419708"><ele>268.25</ele><time>2026-03-29T06:23:42.001Z</time></trkpt><trkpt lat="43.088791782713095" lon="12.171576826310245"><ele>271.0</ele><time>2026-03-29T06:23:43.001Z</time></trkpt><trkpt lat="43.088704552204874" lon="12.171745736775724"><ele>271.0</ele><time>2026-03-29T06:23:44.001Z</time></trkpt><trkpt lat="43.088617692631736" lon="12.171910258118778"><ele>271.0</ele><time>2026-03-29T06:23:45.001Z</time></trkpt><trkpt lat="43.08852961192436" lon="12.172075767900811"><ele>271.0</ele><time>2026-03-29T06:23:46.001Z</time></trkpt><trkpt lat="43.088446720281965" lon="12.172240188506263"><ele>271.0</ele><time>2026-03-29T06:23:47.001Z</time></trkpt><trkpt lat="43.08837466611854" lon="12.172406289608185"><ele>270.5</ele><time>2026-03-29T06:23:48.001Z</time></trkpt><trkpt lat="43.08831803424499" lon="12.172588064977637"><ele>270.0</ele><time>2026-03-29T06:23:49.001Z</time></trkpt><trkpt lat="43.08827673820463" lon="12.172777188074487"><ele>269.5</ele><time>2026-03-29T06:23:50.001Z</time></trkpt><trkpt lat="43.08825003697164" lon="12.172983911799102"><ele>269.0</ele><time>2026-03-29T06:23:51.001Z</time></trkpt><trkpt lat="43.08822619298993" lon="12.173191689588336"><ele>269.0</ele><time>2026-03-29T06:23:52.001Z</time></trkpt><trkpt lat="43.08821049046433" lon="12.173409045605332"><ele>269.0</ele><time>2026-03-29T06:23:53.001Z</time></trkpt><trkpt lat="43.08819146079568" lon="12.173622005084827"><ele>269.0</ele><time>2026-03-29T06:23:54.001Z</time></trkpt><trkpt lat="43.08817638247688" lon="12.173824742390229"><ele>268.33333333333337</ele><time>2026-03-29T06:23:55.001Z</time></trkpt><trkpt lat="43.088154138701164" lon="12.174035724805703"><ele>267.6666666666667</ele><time>2026-03-29T06:23:56.001Z</time></trkpt><trkpt lat="43.088143041772895" lon="12.174238294113831"><ele>267.0</ele><time>2026-03-29T06:23:57.001Z</time></trkpt><trkpt lat="43.0881308701692" lon="12.17444262681334"><ele>267.0</ele><time>2026-03-29T06:23:58.001Z</time></trkpt><trkpt lat="43.08811574927044" lon="12.174649365426822"><ele>267.0</ele><time>2026-03-29T06:23:59.001Z</time></trkpt><trkpt lat="43.088098004062786" lon="12.174863463768062"><ele>267.0</ele><time>2026-03-29T06:24:00.001Z</time></trkpt><trkpt lat="43.08807976083426" lon="12.175069869375708"><ele>267.0</ele><time>2026-03-29T06:24:01.001Z</time></trkpt><trkpt lat="43.0880594839591" lon="12.175281885237538"><ele>267.0</ele><time>2026-03-29T06:24:02.001Z</time></trkpt><trkpt lat="43.08804410403056" lon="12.175469881127585"><ele>267.0</ele><time>2026-03-29T06:24:03Z</time></trkpt><trkpt lat="43.088026616663285" lon="12.175672819041354"><ele>267.0</ele><time>2026-03-29T06:24:04Z</time></trkpt><trkpt lat="43.0880070635253" lon="12.175873962533842"><ele>267.3333333333333</ele><time>2026-03-29T06:24:05Z</time></trkpt><trkpt lat="43.087994930562935" lon="12.176084353935368"><ele>267.66666666666663</ele><time>2026-03-29T06:24:06Z</time></trkpt><trkpt lat="43.08797776372569" lon="12.17628753091518"><ele>268.0</ele><time>2026-03-29T06:24:07Z</time></trkpt><trkpt lat="43.0879562015877" lon="12.176499341153763"><ele>267.66666666666663</ele><time>2026-03-29T06:24:08Z</time></trkpt><trkpt lat="43.087939234258336" lon="12.176711885654678"><ele>267.3333333333333</ele><time>2026-03-29T06:24:09Z</time></trkpt><trkpt lat="43.08792129223727" lon="12.176916279547834"><ele>267.0</ele><time>2026-03-29T06:24:10Z</time></trkpt><trkpt lat="43.08790528309121" lon="12.17712873328321"><ele>267.0</ele><time>2026-03-29T06:24:11Z</time></trkpt><trkpt lat="43.08789554888737" lon="12.177343996049448"><ele>267.0</ele><time>2026-03-29T06:24:12Z</time></trkpt><trkpt lat="43.08787956494847" lon="12.177556194563328"><ele>267.0</ele><time>2026-03-29T06:24:13Z</time></trkpt><trkpt lat="43.08785919182682" lon="12.177770993695308"><ele>267.3333333333333</ele><time>2026-03-29T06:24:14Z</time></trkpt><trkpt lat="43.08783914805074" lon="12.177977114510957"><ele>267.66666666666663</ele><time>2026-03-29T06:24:15Z</time></trkpt><trkpt lat="43.087824234370615" lon="12.17818477695722"><ele>268.0</ele><time>2026-03-29T06:24:16Z</time></trkpt><trkpt lat="43.087808981388285" lon="12.178396972358811"><ele>268.0</ele><time>2026-03-29T06:24:17Z</time></trkpt><trkpt lat="43.087794699783785" lon="12.178604227933318"><ele>268.0</ele><time>2026-03-29T06:24:18Z</time></trkpt><trkpt lat="43.0877798425396" lon="12.178811386950867"><ele>268.0</ele><time>2026-03-29T06:24:19Z</time></trkpt><trkpt lat="43.08776641812195" lon="12.179024865019343"><ele>268.25</ele><time>2026-03-29T06:24:20Z</time></trkpt><trkpt lat="43.087755558940216" lon="12.179219015700927"><ele>268.5</ele><time>2026-03-29T06:24:21Z</time></trkpt><trkpt lat="43.087742653421095" lon="12.179406363275913"><ele>268.75</ele><time>2026-03-29T06:24:22Z</time></trkpt><trkpt lat="43.087723222311695" lon="12.179579659134289"><ele>269.0</ele><time>2026-03-29T06:24:23Z</time></trkpt><trkpt lat="43.08770531588905" lon="12.179770458323091"><ele>267.75</ele><time>2026-03-29T06:24:24Z</time></trkpt><trkpt lat="43.087687494798054" lon="12.179963230125054"><ele>266.5</ele><time>2026-03-29T06:24:25Z</time></trkpt><trkpt lat="43.0876733597243" lon="12.180152328264308"><ele>265.25</ele><time>2026-03-29T06:24:26Z</time></trkpt><trkpt lat="43.08765625652525" lon="12.180348600408033"><ele>264.0</ele><time>2026-03-29T06:24:27Z</time></trkpt><trkpt lat="43.08763682389003" lon="12.180558399371076"><ele>264.0</ele><time>2026-03-29T06:24:28Z</time></trkpt><trkpt lat="43.08761743751016" lon="12.18076359066363"><ele>264.0</ele><time>2026-03-29T06:24:29Z</time></trkpt><trkpt lat="43.08759941226598" lon="12.180961727291434"><ele>264.0</ele><time>2026-03-29T06:24:30Z</time></trkpt><trkpt lat="43.087582513321394" lon="12.181164161957131"><ele>264.0</ele><time>2026-03-29T06:24:31Z</time></trkpt><trkpt lat="43.08756324785789" lon="12.181362842191163"><ele>263.0</ele><time>2026-03-29T06:24:32Z</time></trkpt><trkpt lat="43.087544872457684" lon="12.181562950796424"><ele>262.0</ele><time>2026-03-29T06:24:33Z</time></trkpt><trkpt lat="43.087529737458894" lon="12.181763829037061"><ele>261.0</ele><time>2026-03-29T06:24:34Z</time></trkpt><trkpt lat="43.08751318580551" lon="12.181961564229356"><ele>260.0</ele><time>2026-03-29T06:24:35Z</time></trkpt><trkpt lat="43.08749399945792" lon="12.182158566057401"><ele>260.0</ele><time>2026-03-29T06:24:36Z</time></trkpt><trkpt lat="43.08747697160188" lon="12.182361795156924"><ele>260.0</ele><time>2026-03-29T06:24:37Z</time></trkpt><trkpt lat="43.08745622072055" lon="12.182557749754784"><ele>260.0</ele><time>2026-03-29T06:24:38Z</time></trkpt><trkpt lat="43.087430656973474" lon="12.182746719390869"><ele>260.0</ele><time>2026-03-29T06:24:39Z</time></trkpt><trkpt lat="43.08741320104829" lon="12.18293403136263"><ele>262.25</ele><time>2026-03-29T06:24:40Z</time></trkpt><trkpt lat="43.087397423927484" lon="12.18313377532982"><ele>264.5</ele><time>2026-03-29T06:24:41Z</time></trkpt><trkpt lat="43.08737760067804" lon="12.183328451645885"><ele>266.75</ele><time>2026-03-29T06:24:42Z</time></trkpt><trkpt lat="43.087367198681406" lon="12.183531812392157"><ele>269.0</ele><time>2026-03-29T06:24:43Z</time></trkpt><trkpt lat="43.087351964984514" lon="12.183725971635809"><ele>269.0</ele><time>2026-03-29T06:24:44Z</time></trkpt><trkpt lat="43.08733479918138" lon="12.183926549389849"><ele>269.0</ele><time>2026-03-29T06:24:45Z</time></trkpt><trkpt lat="43.087316950331385" lon="12.184124701829385"><ele>269.0</ele><time>2026-03-29T06:24:46Z</time></trkpt><trkpt lat="43.087298124605" lon="12.184319910577537"><ele>269.0</ele><time>2026-03-29T06:24:47Z</time></trkpt><trkpt lat="43.08727979830246" lon="12.18451629301182"><ele>268.75</ele><time>2026-03-29T06:24:48Z</time></trkpt><trkpt lat="43.0872622194322" lon="12.184718193296657"><ele>268.5</ele><time>2026-03-29T06:24:49Z</time></trkpt><trkpt lat="43.08724794841736" lon="12.184923971705931"><ele>268.25</ele><time>2026-03-29T06:24:50Z</time></trkpt><trkpt lat="43.08723484275814" lon="12.185122984579808"><ele>268.0</ele><time>2026-03-29T06:24:51Z</time></trkpt><trkpt lat="43.08722970274568" lon="12.185317065655726"><ele>267.75</ele><time>2026-03-29T06:24:52Z</time></trkpt><trkpt lat="43.087235136196746" lon="12.185503420802712"><ele>267.5</ele><time>2026-03-29T06:24:53Z</time></trkpt><trkpt lat="43.087263155640514" lon="12.185694597187519"><ele>267.25</ele><time>2026-03-29T06:24:54Z</time></trkpt><trkpt lat="43.08730578036314" lon="12.185883053250544"><ele>267.0</ele><time>2026-03-29T06:24:55Z</time></trkpt><trkpt lat="43.087355602382324" lon="12.186069216735683"><ele>266.5</ele><time>2026-03-29T06:24:56Z</time></trkpt><trkpt lat="43.08739837865448" lon="12.186259477645407"><ele>266.0</ele><time>2026-03-29T06:24:57Z</time></trkpt><trkpt lat="43.087443753606" lon="12.186451546183074"><ele>265.5</ele><time>2026-03-29T06:24:58Z</time></trkpt><trkpt lat="43.08749662368652" lon="12.1866464943118"><ele>265.0</ele><time>2026-03-29T06:24:59Z</time></trkpt><trkpt lat="43.0875488329812" lon="12.186840385796293"><ele>266.25</ele><time>2026-03-29T06:25:00Z</time></trkpt><trkpt lat="43.08758991489611" lon="12.187023025590413"><ele>267.5</ele><time>2026-03-29T06:25:01Z</time></trkpt><trkpt lat="43.08761997999573" lon="12.18720553610128"><ele>268.75</ele><time>2026-03-29T06:25:02Z</time></trkpt><trkpt lat="43.08764274295429" lon="12.187393190621739"><ele>270.0</ele><time>2026-03-29T06:25:03Z</time></trkpt><trkpt lat="43.08763989011317" lon="12.187579549492872"><ele>271.25</ele><time>2026-03-29T06:25:04Z</time></trkpt><trkpt lat="43.08762912549885" lon="12.187767391756223"><ele>272.5</ele><time>2026-03-29T06:25:05Z</time></trkpt><trkpt lat="43.08759641962016" lon="12.18795302397985"><ele>273.75</ele><time>2026-03-29T06:25:06Z</time></trkpt><trkpt lat="43.08755883186326" lon="12.18814440266973"><ele>275.0</ele><time>2026-03-29T06:25:07Z</time></trkpt><trkpt lat="43.087516918919654" lon="12.188330622106669"><ele>275.25</ele><time>2026-03-29T06:25:08Z</time></trkpt><trkpt lat="43.08747167002146" lon="12.188512746912338"><ele>275.5</ele><time>2026-03-29T06:25:09Z</time></trkpt><trkpt lat="43.08741357845877" lon="12.188687798751067"><ele>275.75</ele><time>2026-03-29T06:25:10Z</time></trkpt><trkpt lat="43.087367807163794" lon="12.188867860011666"><ele>276.0</ele><time>2026-03-29T06:25:11Z</time></trkpt><trkpt lat="43.087322482042666" lon="12.189051673794665"><ele>282.6666666666667</ele><time>2026-03-29T06:25:12Z</time></trkpt><trkpt lat="43.0872778120648" lon="12.189248009561634"><ele>289.33333333333337</ele><time>2026-03-29T06:25:13Z</time></trkpt><trkpt lat="43.0872304420545" lon="12.189440535871702"><ele>296.0</ele><time>2026-03-29T06:25:14Z</time></trkpt><trkpt lat="43.08718317957911" lon="12.189638193155373"><ele>296.0</ele><time>2026-03-29T06:25:15Z</time></trkpt><trkpt lat="43.08713206914149" lon="12.18983126663348"><ele>296.0</ele><time>2026-03-29T06:25:16Z</time></trkpt><trkpt lat="43.08708711922595" lon="12.190018463853782"><ele>296.0</ele><time>2026-03-29T06:25:17Z</time></trkpt><trkpt lat="43.08705274057509" lon="12.190202195903202"><ele>296.0</ele><time>2026-03-29T06:25:18Z</time></trkpt><trkpt lat="43.087040087791" lon="12.190397564806194"><ele>294.75</ele><time>2026-03-29T06:25:19Z</time></trkpt><trkpt lat="43.08706342258142" lon="12.190577634118927"><ele>293.5</ele><time>2026-03-29T06:25:20Z</time></trkpt><trkpt lat="43.08711460899796" lon="12.190750680696267"><ele>292.25</ele><time>2026-03-29T06:25:21Z</time></trkpt><trkpt lat="43.0871786653618" lon="12.190921841374886"><ele>291.0</ele><time>2026-03-29T06:25:22Z</time></trkpt><trkpt lat="43.08725105168651" lon="12.191093189525532"><ele>291.0</ele><time>2026-03-29T06:25:23Z</time></trkpt><trkpt lat="43.08733156103102" lon="12.19126258819861"><ele>291.0</ele><time>2026-03-29T06:25:24Z</time></trkpt><trkpt lat="43.08740297676955" lon="12.191434496586107"><ele>291.0</ele><time>2026-03-29T06:25:25Z</time></trkpt><trkpt lat="43.08747555312364" lon="12.191608339338197"><ele>291.0</ele><time>2026-03-29T06:25:26Z</time></trkpt><trkpt lat="43.087550504162884" lon="12.191780459627427"><ele>290.0</ele><time>2026-03-29T06:25:27Z</time></trkpt><trkpt lat="43.08761586312246" lon="12.19195678816306"><ele>289.0</ele><time>2026-03-29T06:25:28Z</time></trkpt><trkpt lat="43.087655533692754" lon="12.192143092736925"><ele>288.0</ele><time>2026-03-29T06:25:29Z</time></trkpt><trkpt lat="43.0876635774833" lon="12.192338001821524"><ele>287.0</ele><time>2026-03-29T06:25:30Z</time></trkpt><trkpt lat="43.08766008903885" lon="12.192538456825346"><ele>287.0</ele><time>2026-03-29T06:25:31Z</time></trkpt><trkpt lat="43.08763701522238" lon="12.192738417386806"><ele>287.0</ele><time>2026-03-29T06:25:32Z</time></trkpt><trkpt lat="43.08761618807599" lon="12.192927734018566"><ele>287.0</ele><time>2026-03-29T06:25:33Z</time></trkpt><trkpt lat="43.08759507752279" lon="12.193113558013584"><ele>287.0</ele><time>2026-03-29T06:25:34Z</time></trkpt><trkpt lat="43.08757967027504" lon="12.19330129221484"><ele>286.6</ele><time>2026-03-29T06:25:35Z</time></trkpt><trkpt lat="43.087568634475495" lon="12.193470351114152"><ele>286.2</ele><time>2026-03-29T06:25:36Z</time></trkpt><trkpt lat="43.087553455977435" lon="12.19361717095217"><ele>285.8</ele><time>2026-03-29T06:25:37Z</time></trkpt><trkpt lat="43.0875392140623" lon="12.193766915665288"><ele>285.4</ele><time>2026-03-29T06:25:38Z</time></trkpt><trkpt lat="43.08752775443683" lon="12.193904856478815"><ele>285.0</ele><time>2026-03-29T06:25:39Z</time></trkpt><trkpt lat="43.087515028270865" lon="12.194024908075791"><ele>285.0</ele><time>2026-03-29T06:25:40Z</time></trkpt><trkpt lat="43.08749894931892" lon="12.194132797314543"><ele>285.0</ele><time>2026-03-29T06:25:41.001Z</time></trkpt><trkpt lat="43.08744774489841" lon="12.194204918270694"><ele>285.0</ele><time>2026-03-29T06:25:42.001Z</time></trkpt><trkpt lat="43.08728976134871" lon="12.19427615303602"><ele>285.0</ele><time>2026-03-29T06:25:44.001Z</time></trkpt><trkpt lat="43.08720454064505" lon="12.194322802962022"><ele>285.0</ele><time>2026-03-29T06:25:45.001Z</time></trkpt><trkpt lat="43.08712628371372" lon="12.194391056891803"><ele>288.0</ele><time>2026-03-29T06:25:46.001Z</time></trkpt><trkpt lat="43.087056522516235" lon="12.194485946585166"><ele>291.0</ele><time>2026-03-29T06:25:47.001Z</time></trkpt><trkpt lat="43.0869938133355" lon="12.194607010475043"><ele>294.0</ele><time>2026-03-29T06:25:48Z</time></trkpt><trkpt lat="43.08693504153006" lon="12.194726726657537"><ele>297.0</ele><time>2026-03-29T06:25:49Z</time></trkpt><trkpt lat="43.08686176201309" lon="12.194861924726254"><ele>300.0</ele><time>2026-03-29T06:25:50Z</time></trkpt><trkpt lat="43.08679181091576" lon="12.194988858592042"><ele>300.0</ele><time>2026-03-29T06:25:51Z</time></trkpt><trkpt lat="43.08671303798674" lon="12.195123606895816"><ele>300.0</ele><time>2026-03-29T06:25:52Z</time></trkpt><trkpt lat="43.086637210328966" lon="12.195264018166753"><ele>300.0</ele><time>2026-03-29T06:25:53Z</time></trkpt><trkpt lat="43.08655957031614" lon="12.195414366594358"><ele>300.0</ele><time>2026-03-29T06:25:54Z</time></trkpt><trkpt lat="43.08647466325126" lon="12.195557377958021"><ele>304.25</ele><time>2026-03-29T06:25:55Z</time></trkpt><trkpt lat="43.08638995207209" lon="12.195704412594921"><ele>308.5</ele><time>2026-03-29T06:25:56Z</time></trkpt><trkpt lat="43.08630672369554" lon="12.19585981653746"><ele>312.75</ele><time>2026-03-29T06:25:57Z</time></trkpt><trkpt lat="43.0862223369942" lon="12.196021123443444"><ele>317.0</ele><time>2026-03-29T06:25:58Z</time></trkpt><trkpt lat="43.08613633604726" lon="12.196171358318255"><ele>317.0</ele><time>2026-03-29T06:25:59Z</time></trkpt><trkpt lat="43.08604580764271" lon="12.196333110563357"><ele>317.0</ele><time>2026-03-29T06:26:00Z</time></trkpt><trkpt lat="43.08595664964114" lon="12.196495826370922"><ele>317.0</ele><time>2026-03-29T06:26:01Z</time></trkpt><trkpt lat="43.08586970355386" lon="12.196659229201376"><ele>317.0</ele><time>2026-03-29T06:26:02Z</time></trkpt><trkpt lat="43.085783166708666" lon="12.196825989429605"><ele>322.0</ele><time>2026-03-29T06:26:03Z</time></trkpt><trkpt lat="43.085706499256844" lon="12.196965839812588"><ele>327.0</ele><time>2026-03-29T06:26:04Z</time></trkpt><trkpt lat="43.08562832011015" lon="12.197104492251627"><ele>332.0</ele><time>2026-03-29T06:26:05Z</time></trkpt><trkpt lat="43.08555463199923" lon="12.197232368249617"><ele>337.0</ele><time>2026-03-29T06:26:06Z</time></trkpt><trkpt lat="43.08547244900499" lon="12.197329574324801"><ele>334.5</ele><time>2026-03-29T06:26:07Z</time></trkpt><trkpt lat="43.085411220958164" lon="12.197432014458904"><ele>332.0</ele><time>2026-03-29T06:26:08Z</time></trkpt><trkpt lat="43.085355357167785" lon="12.197519283395161"><ele>329.5</ele><time>2026-03-29T06:26:09Z</time></trkpt><trkpt lat="43.08530682632496" lon="12.197586143085939"><ele>327.0</ele><time>2026-03-29T06:26:10Z</time></trkpt><trkpt lat="43.085256722397446" lon="12.197663670435693"><ele>324.5</ele><time>2026-03-29T06:26:11Z</time></trkpt><trkpt lat="43.085222616476564" lon="12.197794836603057"><ele>322.0</ele><time>2026-03-29T06:26:13Z</time></trkpt><trkpt lat="43.08519172988472" lon="12.19789336727415"><ele>322.0</ele><time>2026-03-29T06:26:16Z</time></trkpt><trkpt lat="43.08511014158192" lon="12.197856265123102"><ele>322.0</ele><time>2026-03-29T06:34:18Z</time></trkpt><trkpt lat="43.08504361268416" lon="12.197819801835616"><ele>322.0</ele><time>2026-03-29T06:34:19Z</time></trkpt><trkpt lat="43.08490638103286" lon="12.197822043169133"><ele>322.0</ele><time>2026-03-29T06:34:21Z</time></trkpt><trkpt lat="43.084819958528385" lon="12.197813501708737"><ele>322.0</ele><time>2026-03-29T06:34:22Z</time></trkpt><trkpt lat="43.08472272433777" lon="12.197836682462842"><ele>321.8</ele><time>2026-03-29T06:34:23Z</time></trkpt><trkpt lat="43.0846505328776" lon="12.197839870014294"><ele>321.6</ele><time>2026-03-29T06:34:24Z</time></trkpt><trkpt lat="43.084584395225086" lon="12.197806974091916"><ele>321.40000000000003</ele><time>2026-03-29T06:34:25Z</time></trkpt><trkpt lat="43.084473582985474" lon="12.197735171993793"><ele>321.20000000000005</ele><time>2026-03-29T06:34:27Z</time></trkpt><trkpt lat="43.084385204977224" lon="12.197661137228229"><ele>321.0</ele><time>2026-03-29T06:34:28Z</time></trkpt><trkpt lat="43.084302213624966" lon="12.197582273144475"><ele>321.0</ele><time>2026-03-29T06:34:29Z</time></trkpt><trkpt lat="43.08422586128229" lon="12.197522770120937"><ele>321.0</ele><time>2026-03-29T06:34:30Z</time></trkpt><trkpt lat="43.08415692017657" lon="12.197464025573169"><ele>321.0</ele><time>2026-03-29T06:34:31Z</time></trkpt><trkpt lat="43.08407415864411" lon="12.197434118316291"><ele>321.0</ele><time>2026-03-29T06:34:32Z</time></trkpt><trkpt lat="43.08401400622853" lon="12.197385592185062"><ele>321.0</ele><time>2026-03-29T06:34:33Z</time></trkpt><trkpt lat="43.08395807733921" lon="12.197314247979694"><ele>321.0</ele><time>2026-03-29T06:34:34Z</time></trkpt><trkpt lat="43.08385592331754" lon="12.197290558938569"><ele>321.5</ele><time>2026-03-29T06:34:36Z</time></trkpt><trkpt lat="43.083788923304944" lon="12.197282428366599"><ele>322.0</ele><time>2026-03-29T06:34:37Z</time></trkpt><trkpt lat="43.08372260188186" lon="12.197225985990745"><ele>322.5</ele><time>2026-03-29T06:34:38Z</time></trkpt><trkpt lat="43.083653071260386" lon="12.197131071378266"><ele>323.0</ele><time>2026-03-29T06:34:40Z</time></trkpt><trkpt lat="43.08362795496004" lon="12.196994010804978"><ele>323.5</ele><time>2026-03-29T06:34:42Z</time></trkpt><trkpt lat="43.0836340860653" lon="12.196877176182882"><ele>324.0</ele><time>2026-03-29T06:34:44Z</time></trkpt><trkpt lat="43.08368420012753" lon="12.196786733335825"><ele>324.0</ele><time>2026-03-29T06:34:46Z</time></trkpt><trkpt lat="43.08377053823026" lon="12.196776822712575"><ele>324.0</ele><time>2026-03-29T06:35:04Z</time></trkpt><trkpt lat="43.08383275072714" lon="12.196756383915366"><ele>324.0</ele><time>2026-03-29T06:35:05Z</time></trkpt><trkpt lat="43.08390734953813" lon="12.196746946122"><ele>324.0</ele><time>2026-03-29T06:35:06Z</time></trkpt><trkpt lat="43.084003539682406" lon="12.196709882666823"><ele>324.0</ele><time>2026-03-29T06:35:07Z</time></trkpt><trkpt lat="43.08404027038403" lon="12.196637844359149"><ele>324.0</ele><time>2026-03-29T06:35:08Z</time></trkpt><trkpt lat="43.08407989180416" lon="12.196504113914056"><ele>326.3333333333333</ele><time>2026-03-29T06:35:09Z</time></trkpt><trkpt lat="43.08413133476669" lon="12.196406991498032"><ele>328.6666666666667</ele><time>2026-03-29T06:35:10Z</time></trkpt><trkpt lat="43.08419687890971" lon="12.196345217243792"><ele>331.0</ele><time>2026-03-29T06:35:11Z</time></trkpt><trkpt lat="43.08426781839109" lon="12.196342070029992"><ele>333.33333333333337</ele><time>2026-03-29T06:35:12Z</time></trkpt><trkpt lat="43.08434119502216" lon="12.196412939446994"><ele>335.6666666666667</ele><time>2026-03-29T06:35:13Z</time></trkpt><trkpt lat="43.08437723588558" lon="12.196517501245994"><ele>338.0</ele><time>2026-03-29T06:35:14Z</time></trkpt><trkpt lat="43.084414952620655" lon="12.196622469875523"><ele>338.0</ele><time>2026-03-29T06:35:15Z</time></trkpt><trkpt lat="43.084449964030895" lon="12.196698317696109"><ele>338.0</ele><time>2026-03-29T06:35:16Z</time></trkpt><trkpt lat="43.08457351233964" lon="12.196637647369261"><ele>338.0</ele><time>2026-03-29T06:35:18Z</time></trkpt><trkpt lat="43.084636612329966" lon="12.196550643634485"><ele>338.0</ele><time>2026-03-29T06:35:19Z</time></trkpt><trkpt lat="43.08468708063137" lon="12.196431953481495"><ele>338.0</ele><time>2026-03-29T06:35:20Z</time></trkpt><trkpt lat="43.08465622961141" lon="12.196242101415534"><ele>340.75</ele><time>2026-03-29T06:35:22Z</time></trkpt><trkpt lat="43.08460159414342" lon="12.196101492783813"><ele>343.5</ele><time>2026-03-29T06:35:23Z</time></trkpt><trkpt lat="43.08455006740595" lon="12.195952873331454"><ele>346.25</ele><time>2026-03-29T06:35:24Z</time></trkpt><trkpt lat="43.08449719915233" lon="12.195815336590195"><ele>349.0</ele><time>2026-03-29T06:35:25Z</time></trkpt><trkpt lat="43.08441120330872" lon="12.195704169666408"><ele>348.79999999999995</ele><time>2026-03-29T06:35:26Z</time></trkpt><trkpt lat="43.08432792813571" lon="12.195619782703682"><ele>348.59999999999997</ele><time>2026-03-29T06:35:27Z</time></trkpt><trkpt lat="43.084254351965015" lon="12.195526581241774"><ele>348.4</ele><time>2026-03-29T06:35:28Z</time></trkpt><trkpt lat="43.08420297102329" lon="12.1954274988701"><ele>348.2</ele><time>2026-03-29T06:35:29Z</time></trkpt><trkpt lat="43.08413005773323" lon="12.195316649597173"><ele>348.0</ele><time>2026-03-29T06:35:30Z</time></trkpt><trkpt lat="43.08402840331384" lon="12.195224446333807"><ele>348.0</ele><time>2026-03-29T06:35:31Z</time></trkpt><trkpt lat="43.08394333431207" lon="12.195129870518054"><ele>348.0</ele><time>2026-03-29T06:35:32Z</time></trkpt><trkpt lat="43.08387408054477" lon="12.19504123383642"><ele>348.0</ele><time>2026-03-29T06:35:33Z</time></trkpt><trkpt lat="43.08380402648468" lon="12.194978478754154"><ele>348.0</ele><time>2026-03-29T06:35:34Z</time></trkpt><trkpt lat="43.083751736240096" lon="12.194914188992577"><ele>348.0</ele><time>2026-03-29T06:35:35Z</time></trkpt><trkpt lat="43.083734938980236" lon="12.194789421622655"><ele>349.6666666666667</ele><time>2026-03-29T06:35:37Z</time></trkpt><trkpt lat="43.08373867183044" lon="12.194656262532765"><ele>351.3333333333333</ele><time>2026-03-29T06:35:39Z</time></trkpt><trkpt lat="43.08380427786849" lon="12.194577041731575"><ele>353.0</ele><time>2026-03-29T06:35:42Z</time></trkpt><trkpt lat="43.08379952344797" lon="12.194473450167282"><ele>354.66666666666663</ele><time>2026-03-29T06:35:44Z</time></trkpt><trkpt lat="43.08381064278876" lon="12.194334196726299"><ele>356.3333333333333</ele><time>2026-03-29T06:35:46Z</time></trkpt><trkpt lat="43.08381307884969" lon="12.19423752846805"><ele>358.0</ele><time>2026-03-29T06:35:47Z</time></trkpt><trkpt lat="43.083801925033356" lon="12.194138544519497"><ele>358.0</ele><time>2026-03-29T06:35:48Z</time></trkpt><trkpt lat="43.08380529435644" lon="12.194041003326955"><ele>358.0</ele><time>2026-03-29T06:35:51Z</time></trkpt><trkpt lat="43.08381456727672" lon="12.193942417278096"><ele>358.0</ele><time>2026-03-29T06:35:53Z</time></trkpt><trkpt lat="43.08382005465214" lon="12.193852377533473"><ele>358.0</ele><time>2026-03-29T06:35:55Z</time></trkpt><trkpt lat="43.08387648516834" lon="12.193716731035847"><ele>358.0</ele><time>2026-03-29T06:35:58Z</time></trkpt><trkpt lat="43.083895068438885" lon="12.19363080098861"><ele>358.0</ele><time>2026-03-29T06:36:00Z</time></trkpt><trkpt lat="43.08386477320456" lon="12.19353428772147"><ele>369.5</ele><time>2026-03-29T06:36:03Z</time></trkpt><trkpt lat="43.08381641234732" lon="12.193027576815787"><ele>381.0</ele><time>2026-03-29T06:36:05Z</time></trkpt><trkpt lat="43.08365869849518" lon="12.192718990200008"><ele>381.0</ele><time>2026-03-29T06:36:06Z</time></trkpt><trkpt lat="43.083630251320145" lon="12.192633095340277"><ele>381.0</ele><time>2026-03-29T06:36:07Z</time></trkpt><trkpt lat="43.08360199409066" lon="12.192529355279856"><ele>381.0</ele><time>2026-03-29T06:36:08Z</time></trkpt><trkpt lat="43.08355380060398" lon="12.192451642741796"><ele>381.0</ele><time>2026-03-29T06:36:09Z</time></trkpt><trkpt lat="43.08348792126005" lon="12.192349658280119"><ele>381.0</ele><time>2026-03-29T06:36:10Z</time></trkpt><trkpt lat="43.08343741627758" lon="12.192228017909231"><ele>381.0</ele><time>2026-03-29T06:36:11Z</time></trkpt><trkpt lat="43.08338137042035" lon="12.192171446253028"><ele>381.75</ele><time>2026-03-29T06:36:12Z</time></trkpt><trkpt lat="43.083303380222766" lon="12.192097449943317"><ele>382.5</ele><time>2026-03-29T06:36:14Z</time></trkpt><trkpt lat="43.08317761622798" lon="12.192004761740689"><ele>383.25</ele><time>2026-03-29T06:36:16Z</time></trkpt><trkpt lat="43.08308062799534" lon="12.191949881436397"><ele>384.0</ele><time>2026-03-29T06:36:17Z</time></trkpt><trkpt lat="43.08298985448139" lon="12.191865368149982"><ele>385.4</ele><time>2026-03-29T06:36:18Z</time></trkpt><trkpt lat="43.08288558144263" lon="12.191777024999123"><ele>386.79999999999995</ele><time>2026-03-29T06:36:20Z</time></trkpt><trkpt lat="43.08281101520124" lon="12.191738607531704"><ele>388.20000000000005</ele><time>2026-03-29T06:36:21Z</time></trkpt><trkpt lat="43.08273048818794" lon="12.191706962434756"><ele>389.6</ele><time>2026-03-29T06:36:22Z</time></trkpt><trkpt lat="43.08262483361716" lon="12.191661948099316"><ele>391.0</ele><time>2026-03-29T06:36:24Z</time></trkpt><trkpt lat="43.08253603130896" lon="12.191589056499165"><ele>391.00000000000006</ele><time>2026-03-29T06:36:26Z</time></trkpt><trkpt lat="43.08247769556508" lon="12.191546939681391"><ele>391.0</ele><time>2026-03-29T06:36:27Z</time></trkpt><trkpt lat="43.08241621430208" lon="12.1915127903889"><ele>391.0</ele><time>2026-03-29T06:36:28Z</time></trkpt><trkpt lat="43.08230977508491" lon="12.191459404167475"><ele>391.0</ele><time>2026-03-29T06:36:30Z</time></trkpt><trkpt lat="43.08224801077889" lon="12.191398326690368"><ele>391.00000000000006</ele><time>2026-03-29T06:36:32Z</time></trkpt><trkpt lat="43.082200059206215" lon="12.191310797245395"><ele>391.0</ele><time>2026-03-29T06:36:34Z</time></trkpt><trkpt lat="43.08213362093939" lon="12.191348511666394"><ele>391.4285714285714</ele><time>2026-03-29T06:36:37Z</time></trkpt><trkpt lat="43.082081306904335" lon="12.191298602190704"><ele>391.85714285714283</ele><time>2026-03-29T06:36:41Z</time></trkpt><trkpt lat="43.08205703336645" lon="12.191212727733813"><ele>392.2857142857143</ele><time>2026-03-29T06:36:43Z</time></trkpt><trkpt lat="43.082039083432164" lon="12.19112834605065"><ele>392.71428571428567</ele><time>2026-03-29T06:36:45Z</time></trkpt><trkpt lat="43.08207070035058" lon="12.191049688447249"><ele>393.14285714285717</ele><time>2026-03-29T06:36:47Z</time></trkpt><trkpt lat="43.08211242326249" lon="12.19097895654102"><ele>393.57142857142856</ele><time>2026-03-29T06:36:51Z</time></trkpt><trkpt lat="43.082062567470906" lon="12.190892571792666"><ele>394.0</ele><time>2026-03-29T06:37:09Z</time></trkpt><trkpt lat="43.08203209562036" lon="12.190762970990816"><ele>395.0</ele><time>2026-03-29T06:37:11Z</time></trkpt><trkpt lat="43.08194756115986" lon="12.19058947054819"><ele>396.0</ele><time>2026-03-29T06:37:13Z</time></trkpt><trkpt lat="43.08189973721981" lon="12.19046756674177"><ele>397.0</ele><time>2026-03-29T06:37:14Z</time></trkpt><trkpt lat="43.08184917070146" lon="12.190359748447792"><ele>398.0</ele><time>2026-03-29T06:37:15Z</time></trkpt><trkpt lat="43.08180777784085" lon="12.190239868625127"><ele>399.0</ele><time>2026-03-29T06:37:16Z</time></trkpt><trkpt lat="43.08178265472234" lon="12.19012584606326"><ele>399.0</ele><time>2026-03-29T06:37:17Z</time></trkpt><trkpt lat="43.081761742033" lon="12.190020273623485"><ele>399.0</ele><time>2026-03-29T06:37:18Z</time></trkpt><trkpt lat="43.08170660313706" lon="12.18991096030633"><ele>399.0</ele><time>2026-03-29T06:37:19Z</time></trkpt><trkpt lat="43.081642995798546" lon="12.189804238060907"><ele>399.0</ele><time>2026-03-29T06:37:20Z</time></trkpt><trkpt lat="43.08159560249421" lon="12.189666968261054"><ele>399.0</ele><time>2026-03-29T06:37:21Z</time></trkpt><trkpt lat="43.08158116020005" lon="12.189566049495072"><ele>401.3333333333333</ele><time>2026-03-29T06:37:22Z</time></trkpt><trkpt lat="43.0815531614977" lon="12.189486216574615"><ele>403.66666666666663</ele><time>2026-03-29T06:37:23Z</time></trkpt><trkpt lat="43.08152002127371" lon="12.189411000761666"><ele>406.0</ele><time>2026-03-29T06:37:24Z</time></trkpt><trkpt lat="43.0815070098486" lon="12.189290377537027"><ele>408.3333333333333</ele><time>2026-03-29T06:37:26Z</time></trkpt><trkpt lat="43.08157871594058" lon="12.189213238105689"><ele>410.66666666666663</ele><time>2026-03-29T06:37:29Z</time></trkpt><trkpt lat="43.081560697648136" lon="12.189126364554575"><ele>413.0</ele><time>2026-03-29T06:37:32Z</time></trkpt><trkpt lat="43.08151690177762" lon="12.18902123937082"><ele>413.3333333333333</ele><time>2026-03-29T06:37:34Z</time></trkpt><trkpt lat="43.08149674545154" lon="12.188909523178975"><ele>413.66666666666663</ele><time>2026-03-29T06:37:35Z</time></trkpt><trkpt lat="43.08148065548598" lon="12.188811792992317"><ele>414.0</ele><time>2026-03-29T06:37:36Z</time></trkpt><trkpt lat="43.08145038673531" lon="12.188711845157263"><ele>414.33333333333337</ele><time>2026-03-29T06:37:37Z</time></trkpt><trkpt lat="43.08141476061468" lon="12.188597250032288"><ele>414.6666666666667</ele><time>2026-03-29T06:37:38Z</time></trkpt><trkpt lat="43.08136216869845" lon="12.188467419667344"><ele>415.0</ele><time>2026-03-29T06:37:39Z</time></trkpt><trkpt lat="43.081307767126304" lon="12.188321947999487"><ele>415.0</ele><time>2026-03-29T06:37:40Z</time></trkpt><trkpt lat="43.08126435918395" lon="12.188200298245349"><ele>415.0</ele><time>2026-03-29T06:37:41Z</time></trkpt><trkpt lat="43.081241065058826" lon="12.188072580099524"><ele>415.0</ele><time>2026-03-29T06:37:42Z</time></trkpt><trkpt lat="43.08122094508771" lon="12.18789539647167"><ele>415.0</ele><time>2026-03-29T06:37:43Z</time></trkpt><trkpt lat="43.08121066219207" lon="12.187751963112497"><ele>415.0</ele><time>2026-03-29T06:37:44Z</time></trkpt><trkpt lat="43.08122749131535" lon="12.187604022958558"><ele>412.6</ele><time>2026-03-29T06:37:46Z</time></trkpt><trkpt lat="43.08123587038912" lon="12.187457117002275"><ele>410.2</ele><time>2026-03-29T06:37:48Z</time></trkpt><trkpt lat="43.08124190301384" lon="12.187298747833955"><ele>407.79999999999995</ele><time>2026-03-29T06:37:50Z</time></trkpt><trkpt lat="43.081255703806335" lon="12.187128668653923"><ele>405.4</ele><time>2026-03-29T06:37:52Z</time></trkpt><trkpt lat="43.08120325055088" lon="12.187027355780963"><ele>403.0</ele><time>2026-03-29T06:37:54Z</time></trkpt><trkpt lat="43.08113830469264" lon="12.186976502688237"><ele>402.33333333333337</ele><time>2026-03-29T06:37:55Z</time></trkpt><trkpt lat="43.081076472837246" lon="12.18693897549772"><ele>401.6666666666667</ele><time>2026-03-29T06:37:56Z</time></trkpt><trkpt lat="43.0810228005623" lon="12.186884379541024"><ele>401.0</ele><time>2026-03-29T06:37:57Z</time></trkpt><trkpt lat="43.08099382852004" lon="12.186746204791998"><ele>400.33333333333337</ele><time>2026-03-29T06:37:59Z</time></trkpt><trkpt lat="43.081052436091674" lon="12.18667521479401"><ele>399.6666666666667</ele><time>2026-03-29T06:38:02Z</time></trkpt><trkpt lat="43.08104743625119" lon="12.186589090357728"><ele>399.0</ele><time>2026-03-29T06:38:04Z</time></trkpt><trkpt lat="43.081064476120495" lon="12.186489061323694"><ele>399.0</ele><time>2026-03-29T06:38:06Z</time></trkpt><trkpt lat="43.08111015581993" lon="12.186379038174838"><ele>399.0</ele><time>2026-03-29T06:38:08Z</time></trkpt><trkpt lat="43.08112712437488" lon="12.186232935022813"><ele>399.0</ele><time>2026-03-29T06:38:09Z</time></trkpt><trkpt lat="43.08117753466382" lon="12.186120076998382"><ele>399.0</ele><time>2026-03-29T06:38:10Z</time></trkpt><trkpt lat="43.08124438589938" lon="12.186017567124562"><ele>399.0</ele><time>2026-03-29T06:38:11Z</time></trkpt><trkpt lat="43.081308204269476" lon="12.185886171192465"><ele>399.0</ele><time>2026-03-29T06:38:12Z</time></trkpt><trkpt lat="43.081356735406764" lon="12.185796002872642"><ele>399.0</ele><time>2026-03-29T06:38:13Z</time></trkpt><trkpt lat="43.08138423810466" lon="12.185634967890351"><ele>399.0</ele><time>2026-03-29T06:38:14Z</time></trkpt><trkpt lat="43.081410073807064" lon="12.185518479595444"><ele>399.0</ele><time>2026-03-29T06:38:15Z</time></trkpt><trkpt lat="43.081413542452225" lon="12.185415506243814"><ele>399.0</ele><time>2026-03-29T06:38:16Z</time></trkpt><trkpt lat="43.08138381195593" lon="12.185294300757336"><ele>400.0</ele><time>2026-03-29T06:38:18Z</time></trkpt><trkpt lat="43.0813646102827" lon="12.185203852801225"><ele>401.0</ele><time>2026-03-29T06:38:19Z</time></trkpt><trkpt lat="43.08133972791343" lon="12.185049395491523"><ele>402.0</ele><time>2026-03-29T06:38:21Z</time></trkpt><trkpt lat="43.08132294080666" lon="12.18496342022897"><ele>403.0</ele><time>2026-03-29T06:38:22Z</time></trkpt><trkpt lat="43.0812950776732" lon="12.184831003928446"><ele>404.0</ele><time>2026-03-29T06:38:24Z</time></trkpt><trkpt lat="43.081347214061935" lon="12.184683116564086"><ele>405.0</ele><time>2026-03-29T06:39:00Z</time></trkpt><trkpt lat="43.08137154220941" lon="12.184477316151572"><ele>406.0</ele><time>2026-03-29T06:39:02Z</time></trkpt><trkpt lat="43.08141740759335" lon="12.184334434442453"><ele>407.0</ele><time>2026-03-29T06:39:03Z</time></trkpt><trkpt lat="43.081461226559504" lon="12.184210861365498"><ele>408.0</ele><time>2026-03-29T06:39:04Z</time></trkpt><trkpt lat="43.08152919615282" lon="12.184079297791698"><ele>408.0</ele><time>2026-03-29T06:39:06Z</time></trkpt><trkpt lat="43.08155161379985" lon="12.183948013086761"><ele>408.0</ele><time>2026-03-29T06:39:08Z</time></trkpt><trkpt lat="43.08149269374032" lon="12.183815399918222"><ele>408.0</ele><time>2026-03-29T06:39:10Z</time></trkpt><trkpt lat="43.08147569491447" lon="12.18372073701816"><ele>408.0</ele><time>2026-03-29T06:39:11Z</time></trkpt><trkpt lat="43.081432976604844" lon="12.183625385962944"><ele>408.0</ele><time>2026-03-29T06:39:12Z</time></trkpt><trkpt lat="43.08139503201835" lon="12.183537208836075"><ele>408.0</ele><time>2026-03-29T06:39:13Z</time></trkpt><trkpt lat="43.081349505883686" lon="12.18345090771012"><ele>408.0</ele><time>2026-03-29T06:39:14Z</time></trkpt><trkpt lat="43.081308269701395" lon="12.183345422359864"><ele>408.0</ele><time>2026-03-29T06:39:15Z</time></trkpt><trkpt lat="43.081383183480874" lon="12.183265714708702"><ele>408.0</ele><time>2026-03-29T06:39:19Z</time></trkpt><trkpt lat="43.08147259103495" lon="12.183149602018558"><ele>408.0</ele><time>2026-03-29T06:39:20Z</time></trkpt><trkpt lat="43.08149949068297" lon="12.183066656730375"><ele>408.0</ele><time>2026-03-29T06:39:21Z</time></trkpt><trkpt lat="43.08156234388744" lon="12.182927547558123"><ele>404.5</ele><time>2026-03-29T06:39:23Z</time></trkpt><trkpt lat="43.08160851937526" lon="12.182846307081412"><ele>401.0</ele><time>2026-03-29T06:39:24Z</time></trkpt><trkpt lat="43.08166241468752" lon="12.18278579941334"><ele>397.5</ele><time>2026-03-29T06:39:25Z</time></trkpt><trkpt lat="43.08171965130337" lon="12.182704688672166"><ele>394.0</ele><time>2026-03-29T06:39:26Z</time></trkpt><trkpt lat="43.081772219775836" lon="12.182631521776331"><ele>390.5</ele><time>2026-03-29T06:39:27Z</time></trkpt><trkpt lat="43.08187749434481" lon="12.182514303807285"><ele>387.0</ele><time>2026-03-29T06:39:29Z</time></trkpt><trkpt lat="43.08196581070297" lon="12.182414474117502"><ele>386.0</ele><time>2026-03-29T06:39:31Z</time></trkpt><trkpt lat="43.08202328004495" lon="12.182337112615752"><ele>385.0</ele><time>2026-03-29T06:39:32Z</time></trkpt><trkpt lat="43.082082537831745" lon="12.182277131209837"><ele>384.0</ele><time>2026-03-29T06:39:33Z</time></trkpt><trkpt lat="43.082146595510466" lon="12.182229497172985"><ele>383.0</ele><time>2026-03-29T06:39:34Z</time></trkpt><trkpt lat="43.08221479186246" lon="12.182161190623043"><ele>382.0</ele><time>2026-03-29T06:39:35Z</time></trkpt><trkpt lat="43.082293999084676" lon="12.182081042992221"><ele>381.0</ele><time>2026-03-29T06:39:36Z</time></trkpt><trkpt lat="43.08236669015043" lon="12.182018332094039"><ele>381.0</ele><time>2026-03-29T06:39:37Z</time></trkpt><trkpt lat="43.08242510501521" lon="12.181975542417302"><ele>381.0</ele><time>2026-03-29T06:39:38Z</time></trkpt><trkpt lat="43.082498227314225" lon="12.181958825339583"><ele>381.0</ele><time>2026-03-29T06:39:39Z</time></trkpt><trkpt lat="43.08256888235868" lon="12.181950139775763"><ele>381.0</ele><time>2026-03-29T06:39:40Z</time></trkpt><trkpt lat="43.082634626670156" lon="12.181915090012387"><ele>381.0</ele><time>2026-03-29T06:39:41Z</time></trkpt><trkpt lat="43.082724535006264" lon="12.181804268871907"><ele>381.0</ele><time>2026-03-29T06:39:43Z</time></trkpt><trkpt lat="43.08278832703239" lon="12.181757044954502"><ele>379.0</ele><time>2026-03-29T06:39:45Z</time></trkpt><trkpt lat="43.08285367143315" lon="12.181737832260076"><ele>377.0</ele><time>2026-03-29T06:40:06Z</time></trkpt><trkpt lat="43.08293151014564" lon="12.18173831069445"><ele>375.0</ele><time>2026-03-29T06:40:07Z</time></trkpt><trkpt lat="43.083015721936974" lon="12.181748861867547"><ele>373.0</ele><time>2026-03-29T06:40:08Z</time></trkpt><trkpt lat="43.08311011094752" lon="12.181727191349843"><ele>371.0</ele><time>2026-03-29T06:40:09Z</time></trkpt><trkpt lat="43.08319507304391" lon="12.18170518319169"><ele>369.0</ele><time>2026-03-29T06:40:10Z</time></trkpt><trkpt lat="43.08328196933895" lon="12.181684228971775"><ele>366.2</ele><time>2026-03-29T06:40:11Z</time></trkpt><trkpt lat="43.0833798350935" lon="12.181675492441675"><ele>363.4</ele><time>2026-03-29T06:40:12Z</time></trkpt><trkpt lat="43.08344675112861" lon="12.181660649939351"><ele>360.6</ele><time>2026-03-29T06:40:13Z</time></trkpt><trkpt lat="43.08355318654218" lon="12.181615656416234"><ele>357.8</ele><time>2026-03-29T06:40:14Z</time></trkpt><trkpt lat="43.08363624269251" lon="12.181576853377672"><ele>355.0</ele><time>2026-03-29T06:40:15Z</time></trkpt><trkpt lat="43.083718879479115" lon="12.181530701517737"><ele>353.8</ele><time>2026-03-29T06:40:16Z</time></trkpt><trkpt lat="43.08379165529987" lon="12.181485938613884"><ele>352.6</ele><time>2026-03-29T06:40:17Z</time></trkpt><trkpt lat="43.08385236445717" lon="12.181411514655707"><ele>351.4</ele><time>2026-03-29T06:40:18Z</time></trkpt><trkpt lat="43.08392112207782" lon="12.181342966745731"><ele>350.2</ele><time>2026-03-29T06:40:19Z</time></trkpt><trkpt lat="43.084053219579644" lon="12.181285053982036"><ele>349.0</ele><time>2026-03-29T06:40:21Z</time></trkpt><trkpt lat="43.084113193997844" lon="12.181229040789045"><ele>346.79999999999995</ele><time>2026-03-29T06:40:22Z</time></trkpt><trkpt lat="43.084209595954114" lon="12.181176413293258"><ele>344.59999999999997</ele><time>2026-03-29T06:40:23Z</time></trkpt><trkpt lat="43.084297124974874" lon="12.18114295082119"><ele>342.4</ele><time>2026-03-29T06:40:24Z</time></trkpt><trkpt lat="43.08437126563421" lon="12.181120394972012"><ele>340.2</ele><time>2026-03-29T06:40:25Z</time></trkpt><trkpt lat="43.08446292231237" lon="12.181110397674356"><ele>338.0</ele><time>2026-03-29T06:40:26Z</time></trkpt><trkpt lat="43.084593377082534" lon="12.181081747015003"><ele>338.0</ele><time>2026-03-29T06:40:28Z</time></trkpt><trkpt lat="43.0846636957297" lon="12.181049307497615"><ele>338.0</ele><time>2026-03-29T06:40:29Z</time></trkpt><trkpt lat="43.08473715489476" lon="12.18103398780304"><ele>338.0</ele><time>2026-03-29T06:40:30Z</time></trkpt><trkpt lat="43.084813776732005" lon="12.18102504268713"><ele>338.0</ele><time>2026-03-29T06:40:31Z</time></trkpt><trkpt lat="43.08489296324825" lon="12.181023090516755"><ele>338.0</ele><time>2026-03-29T06:40:32Z</time></trkpt><trkpt lat="43.08496218852086" lon="12.180992675910801"><ele>338.0</ele><time>2026-03-29T06:40:33Z</time></trkpt><trkpt lat="43.08506777903817" lon="12.1809831993188"><ele>335.59999999999997</ele><time>2026-03-29T06:40:35Z</time></trkpt><trkpt lat="43.085173182803345" lon="12.180968598308407"><ele>333.2</ele><time>2026-03-29T06:40:37Z</time></trkpt><trkpt lat="43.08524368973056" lon="12.181001324282914"><ele>330.8</ele><time>2026-03-29T06:40:39Z</time></trkpt><trkpt lat="43.08529429877572" lon="12.18108737281311"><ele>328.4</ele><time>2026-03-29T06:40:41Z</time></trkpt><trkpt lat="43.08525981497405" lon="12.180984846366385"><ele>326.0</ele><time>2026-03-29T06:41:15Z</time></trkpt><trkpt lat="43.08516492982411" lon="12.180911778461466"><ele>326.0</ele><time>2026-03-29T06:41:18Z</time></trkpt><trkpt lat="43.085102159101446" lon="12.18094125396887"><ele>326.0</ele><time>2026-03-29T06:41:20Z</time></trkpt><trkpt lat="43.08502116581525" lon="12.181012475783701"><ele>326.0</ele><time>2026-03-29T06:41:59Z</time></trkpt><trkpt lat="43.084956135221105" lon="12.181010021569488"><ele>326.0</ele><time>2026-03-29T06:42:00Z</time></trkpt><trkpt lat="43.08487334493245" lon="12.181015831677856"><ele>326.0</ele><time>2026-03-29T06:42:01Z</time></trkpt><trkpt lat="43.08478740704992" lon="12.18103445047802"><ele>326.0</ele><time>2026-03-29T06:42:02Z</time></trkpt><trkpt lat="43.084697071229364" lon="12.18105684652091"><ele>328.0</ele><time>2026-03-29T06:42:03Z</time></trkpt><trkpt lat="43.08460628915666" lon="12.181074261607414"><ele>330.0</ele><time>2026-03-29T06:42:04Z</time></trkpt><trkpt lat="43.08451953175183" lon="12.181086394259975"><ele>332.0</ele><time>2026-03-29T06:42:05Z</time></trkpt><trkpt lat="43.084430564908274" lon="12.181103694229035"><ele>334.0</ele><time>2026-03-29T06:42:06Z</time></trkpt><trkpt lat="43.08434367453417" lon="12.181112912562408"><ele>336.0</ele><time>2026-03-29T06:42:07Z</time></trkpt><trkpt lat="43.08426460854224" lon="12.181123170115171"><ele>338.0</ele><time>2026-03-29T06:42:08Z</time></trkpt><trkpt lat="43.08418144326091" lon="12.181172049702853"><ele>340.2</ele><time>2026-03-29T06:42:09Z</time></trkpt><trkpt lat="43.08408173183539" lon="12.181226749881157"><ele>342.4</ele><time>2026-03-29T06:42:10Z</time></trkpt><trkpt lat="43.084006800151705" lon="12.181300910177868"><ele>344.59999999999997</ele><time>2026-03-29T06:42:11Z</time></trkpt><trkpt lat="43.08393450731666" lon="12.18136591934153"><ele>346.79999999999995</ele><time>2026-03-29T06:42:12Z</time></trkpt><trkpt lat="43.08384647112859" lon="12.181387691169707"><ele>349.0</ele><time>2026-03-29T06:42:13Z</time></trkpt><trkpt lat="43.08377571036745" lon="12.181428430172609"><ele>349.0</ele><time>2026-03-29T06:42:14Z</time></trkpt><trkpt lat="43.08370589110701" lon="12.181501220152306"><ele>349.0</ele><time>2026-03-29T06:42:15Z</time></trkpt><trkpt lat="43.08363676580827" lon="12.181574139440189"><ele>349.0</ele><time>2026-03-29T06:42:16Z</time></trkpt><trkpt lat="43.08351494238084" lon="12.18162694502833"><ele>349.0</ele><time>2026-03-29T06:42:17Z</time></trkpt><trkpt lat="43.083395216560355" lon="12.181660483343155"><ele>349.0</ele><time>2026-03-29T06:42:18Z</time></trkpt><trkpt lat="43.083285502451474" lon="12.181701095514146"><ele>353.0</ele><time>2026-03-29T06:42:19Z</time></trkpt><trkpt lat="43.08316338496768" lon="12.181734381516248"><ele>357.0</ele><time>2026-03-29T06:42:20Z</time></trkpt><trkpt lat="43.083069103118206" lon="12.181720456573945"><ele>361.0</ele><time>2026-03-29T06:42:21Z</time></trkpt><trkpt lat="43.08295429818806" lon="12.181738802092303"><ele>365.0</ele><time>2026-03-29T06:42:22Z</time></trkpt><trkpt lat="43.082846418239676" lon="12.18174756585404"><ele>369.0</ele><time>2026-03-29T06:42:23Z</time></trkpt><trkpt lat="43.08273875765181" lon="12.181769805917455"><ele>369.0</ele><time>2026-03-29T06:42:23.999Z</time></trkpt><trkpt lat="43.082640550799724" lon="12.181751919137062"><ele>369.0</ele><time>2026-03-29T06:42:24.999Z</time></trkpt><trkpt lat="43.08253600635768" lon="12.18175112801357"><ele>369.0</ele><time>2026-03-29T06:42:25.999Z</time></trkpt><trkpt lat="43.08243470632651" lon="12.181728325272827"><ele>369.0</ele><time>2026-03-29T06:42:26.999Z</time></trkpt><trkpt lat="43.08235163908769" lon="12.181716176680387"><ele>369.0</ele><time>2026-03-29T06:42:28Z</time></trkpt><trkpt lat="43.082267415592014" lon="12.18171962444937"><ele>371.0</ele><time>2026-03-29T06:42:29Z</time></trkpt><trkpt lat="43.08218258590856" lon="12.181741868935438"><ele>373.0</ele><time>2026-03-29T06:42:30Z</time></trkpt><trkpt lat="43.08209864185295" lon="12.181786584794967"><ele>375.0</ele><time>2026-03-29T06:42:31Z</time></trkpt><trkpt lat="43.082000141755856" lon="12.181833331487502"><ele>377.0</ele><time>2026-03-29T06:42:32Z</time></trkpt><trkpt lat="43.08190784449538" lon="12.181855676853933"><ele>379.0</ele><time>2026-03-29T06:42:33Z</time></trkpt><trkpt lat="43.08184138078994" lon="12.181886900541032"><ele>381.0</ele><time>2026-03-29T06:42:34Z</time></trkpt><trkpt lat="43.081722266192806" lon="12.181982666021574"><ele>381.0</ele><time>2026-03-29T06:42:36Z</time></trkpt><trkpt lat="43.081635412026884" lon="12.182017986558497"><ele>381.0</ele><time>2026-03-29T06:42:37Z</time></trkpt><trkpt lat="43.08155937056109" lon="12.182071737336951"><ele>381.0</ele><time>2026-03-29T06:42:38Z</time></trkpt><trkpt lat="43.08149394607821" lon="12.182149239429584"><ele>381.0</ele><time>2026-03-29T06:42:39Z</time></trkpt><trkpt lat="43.08142100519049" lon="12.182184635861145"><ele>381.0</ele><time>2026-03-29T06:42:40Z</time></trkpt><trkpt lat="43.081348627736794" lon="12.182199392735304"><ele>381.0</ele><time>2026-03-29T06:42:41Z</time></trkpt><trkpt lat="43.08127442746233" lon="12.182237183887107"><ele>383.1666666666667</ele><time>2026-03-29T06:42:42Z</time></trkpt><trkpt lat="43.081201697028156" lon="12.182272894675743"><ele>385.33333333333337</ele><time>2026-03-29T06:42:43Z</time></trkpt><trkpt lat="43.081120685007235" lon="12.182337424377685"><ele>387.5</ele><time>2026-03-29T06:42:44Z</time></trkpt><trkpt lat="43.08103232774582" lon="12.182404314043001"><ele>389.6666666666667</ele><time>2026-03-29T06:42:45Z</time></trkpt><trkpt lat="43.08096140260492" lon="12.182468376816665"><ele>391.83333333333337</ele><time>2026-03-29T06:42:46Z</time></trkpt><trkpt lat="43.080896202401455" lon="12.182525484071066"><ele>394.0</ele><time>2026-03-29T06:42:47Z</time></trkpt><trkpt lat="43.080790007828554" lon="12.182612745936652"><ele>399.1666666666667</ele><time>2026-03-29T06:42:49Z</time></trkpt><trkpt lat="43.08074222667627" lon="12.18267054589751"><ele>404.33333333333337</ele><time>2026-03-29T06:42:50Z</time></trkpt><trkpt lat="43.08063083799279" lon="12.182746652741345"><ele>409.5</ele><time>2026-03-29T06:42:52Z</time></trkpt><trkpt lat="43.08056049413645" lon="12.18274566378518"><ele>414.66666666666663</ele><time>2026-03-29T06:42:53Z</time></trkpt><trkpt lat="43.080484198287344" lon="12.18277072042719"><ele>419.8333333333333</ele><time>2026-03-29T06:42:54Z</time></trkpt><trkpt lat="43.08042327425219" lon="12.182804210482184"><ele>425.0</ele><time>2026-03-29T06:42:55Z</time></trkpt><trkpt lat="43.08036553275364" lon="12.18286208683036"><ele>425.0</ele><time>2026-03-29T06:43:46Z</time></trkpt><trkpt lat="43.080323872803895" lon="12.182930475336955"><ele>425.0</ele><time>2026-03-29T06:43:48Z</time></trkpt><trkpt lat="43.080242427743094" lon="12.183007189378399"><ele>425.0</ele><time>2026-03-29T06:43:50Z</time></trkpt><trkpt lat="43.080180356305156" lon="12.183078044036721"><ele>425.0</ele><time>2026-03-29T06:43:51Z</time></trkpt><trkpt lat="43.08007908799928" lon="12.183177138953548"><ele>425.0</ele><time>2026-03-29T06:43:53Z</time></trkpt><trkpt lat="43.07999090714981" lon="12.183159080488526"><ele>429.16666666666663</ele><time>2026-03-29T06:43:57Z</time></trkpt><trkpt lat="43.079898216012474" lon="12.183103709490519"><ele>433.3333333333333</ele><time>2026-03-29T06:43:59Z</time></trkpt><trkpt lat="43.07982465372219" lon="12.183083168585316"><ele>437.5</ele><time>2026-03-29T06:44:00Z</time></trkpt><trkpt lat="43.07972502991419" lon="12.183076069560933"><ele>441.66666666666663</ele><time>2026-03-29T06:44:02Z</time></trkpt><trkpt lat="43.079719259468156" lon="12.183170161808054"><ele>445.8333333333333</ele><time>2026-03-29T06:44:04Z</time></trkpt><trkpt lat="43.07967638093275" lon="12.183287958172418"><ele>450.0</ele><time>2026-03-29T06:44:06Z</time></trkpt><trkpt lat="43.07960515061566" lon="12.183377801842674"><ele>451.8</ele><time>2026-03-29T06:44:08Z</time></trkpt><trkpt lat="43.079528305956735" lon="12.183370848083333"><ele>453.6</ele><time>2026-03-29T06:44:12Z</time></trkpt><trkpt lat="43.07944244837192" lon="12.183384499790352"><ele>455.4</ele><time>2026-03-29T06:44:14Z</time></trkpt><trkpt lat="43.079317205920496" lon="12.183423224318863"><ele>457.2</ele><time>2026-03-29T06:44:16Z</time></trkpt><trkpt lat="43.07925254127563" lon="12.183475630050633"><ele>459.0</ele><time>2026-03-29T06:44:17Z</time></trkpt><trkpt lat="43.07918165750221" lon="12.183551746427275"><ele>459.0</ele><time>2026-03-29T06:44:18Z</time></trkpt><trkpt lat="43.07912135012419" lon="12.183594069132456"><ele>459.0</ele><time>2026-03-29T06:44:19Z</time></trkpt><trkpt lat="43.07904506530527" lon="12.183624886511755"><ele>459.0</ele><time>2026-03-29T06:44:20Z</time></trkpt><trkpt lat="43.07897027137592" lon="12.1836592221417"><ele>459.0</ele><time>2026-03-29T06:44:21Z</time></trkpt><trkpt lat="43.078920536552914" lon="12.18372375168217"><ele>459.0</ele><time>2026-03-29T06:44:22Z</time></trkpt><trkpt lat="43.07886650489636" lon="12.183841726635572"><ele>459.0</ele><time>2026-03-29T06:44:24Z</time></trkpt><trkpt lat="43.07877557516055" lon="12.183940128505558"><ele>461.6666666666667</ele><time>2026-03-29T06:44:27Z</time></trkpt><trkpt lat="43.07867302499601" lon="12.183970976450565"><ele>464.33333333333337</ele><time>2026-03-29T06:44:28.999Z</time></trkpt><trkpt lat="43.07860248731616" lon="12.183995588862713"><ele>467.0</ele><time>2026-03-29T06:44:35Z</time></trkpt><trkpt lat="43.07854353450369" lon="12.183950749951723"><ele>469.6666666666667</ele><time>2026-03-29T06:44:38Z</time></trkpt><trkpt lat="43.07851422683" lon="12.183869617077415"><ele>472.33333333333337</ele><time>2026-03-29T06:44:42Z</time></trkpt><trkpt lat="43.078477147138244" lon="12.183784193620568"><ele>475.0</ele><time>2026-03-29T06:44:51Z</time></trkpt><trkpt lat="43.078458549471044" lon="12.183876926494184"><ele>475.0</ele><time>2026-03-29T06:45:02Z</time></trkpt><trkpt lat="43.07849146206075" lon="12.183956035135889"><ele>475.00000000000006</ele><time>2026-03-29T06:45:05Z</time></trkpt><trkpt lat="43.07855218938252" lon="12.183989315754976"><ele>475.0</ele><time>2026-03-29T06:45:08Z</time></trkpt><trkpt lat="43.078624047022835" lon="12.18399597406261"><ele>475.0</ele><time>2026-03-29T06:45:18Z</time></trkpt><trkpt lat="43.078688699965404" lon="12.18394907281434"><ele>475.00000000000006</ele><time>2026-03-29T06:45:31Z</time></trkpt><trkpt lat="43.07875486500317" lon="12.183956222469883"><ele>475.0</ele><time>2026-03-29T06:45:39Z</time></trkpt><trkpt lat="43.07882528201767" lon="12.183909452730148"><ele>475.0</ele><time>2026-03-29T06:45:45Z</time></trkpt><trkpt lat="43.078874962740024" lon="12.183853388828554"><ele>475.00000000000006</ele><time>2026-03-29T06:45:48Z</time></trkpt><trkpt lat="43.07893462702202" lon="12.183797883735856"><ele>475.0</ele><time>2026-03-29T06:46:03Z</time></trkpt><trkpt lat="43.07895268428108" lon="12.183695980265464"><ele>475.0</ele><time>2026-03-29T06:46:06Z</time></trkpt><trkpt lat="43.07901857575329" lon="12.183658400802983"><ele>475.0</ele><time>2026-03-29T06:46:12Z</time></trkpt><trkpt lat="43.07909735901359" lon="12.183602724696913"><ele>475.00000000000006</ele><time>2026-03-29T06:46:25Z</time></trkpt><trkpt lat="43.079152506011894" lon="12.183561116732212"><ele>475.0</ele><time>2026-03-29T06:46:28.999Z</time></trkpt><trkpt lat="43.0792318955937" lon="12.183508303071758"><ele>472.7142857142857</ele><time>2026-03-29T06:46:33.999Z</time></trkpt><trkpt lat="43.07929329097455" lon="12.18345069955959"><ele>470.42857142857144</ele><time>2026-03-29T06:46:41Z</time></trkpt><trkpt lat="43.079330358405244" lon="12.183368643329864"><ele>468.14285714285717</ele><time>2026-03-29T06:46:46Z</time></trkpt><trkpt lat="43.07939587415511" lon="12.183353949037361"><ele>465.8571428571429</ele><time>2026-03-29T06:46:51Z</time></trkpt><trkpt lat="43.079464776723384" lon="12.183365633798056"><ele>463.57142857142856</ele><time>2026-03-29T06:46:54Z</time></trkpt><trkpt lat="43.0795319809498" lon="12.183381217084015"><ele>461.28571428571433</ele><time>2026-03-29T06:47:03Z</time></trkpt><trkpt lat="43.07944654638592" lon="12.183377428607637"><ele>459.0</ele><time>2026-03-29T06:50:00Z</time></trkpt><trkpt lat="43.079377855678004" lon="12.18336963250865"><ele>459.0</ele><time>2026-03-29T06:50:04Z</time></trkpt><trkpt lat="43.07931560222089" lon="12.183413048106875"><ele>459.0</ele><time>2026-03-29T06:50:10Z</time></trkpt><trkpt lat="43.07926125788522" lon="12.183466335290817"><ele>459.0</ele><time>2026-03-29T06:50:19Z</time></trkpt><trkpt lat="43.07918321355196" lon="12.183536418453809"><ele>459.0</ele><time>2026-03-29T06:50:40Z</time></trkpt><trkpt lat="43.07911792715986" lon="12.183599864347176"><ele>459.0</ele><time>2026-03-29T06:50:57Z</time></trkpt><trkpt lat="43.07904894826832" lon="12.183630863352615"><ele>459.0</ele><time>2026-03-29T06:51:05Z</time></trkpt><trkpt lat="43.07898711332786" lon="12.183668210083454"><ele>461.28571428571433</ele><time>2026-03-29T06:51:11Z</time></trkpt><trkpt lat="43.07893161234357" lon="12.183714863181994"><ele>463.57142857142856</ele><time>2026-03-29T06:51:22Z</time></trkpt><trkpt lat="43.078879687007195" lon="12.18378954668874"><ele>465.8571428571429</ele><time>2026-03-29T06:51:28Z</time></trkpt><trkpt lat="43.078818115867655" lon="12.183839515050266"><ele>468.14285714285717</ele><time>2026-03-29T06:51:38Z</time></trkpt><trkpt lat="43.07878330566563" lon="12.18391441297136"><ele>470.42857142857144</ele><time>2026-03-29T06:51:44Z</time></trkpt><trkpt lat="43.07873473552399" lon="12.183976201037629"><ele>472.7142857142857</ele><time>2026-03-29T06:51:51Z</time></trkpt><trkpt lat="43.07866433327742" lon="12.183990555401545"><ele>475.0</ele><time>2026-03-29T06:52:13Z</time></trkpt><trkpt lat="43.07859910693835" lon="12.183966448897511"><ele>475.00000000000006</ele><time>2026-03-29T06:52:22Z</time></trkpt><trkpt lat="43.07853331905376" lon="12.183984172297107"><ele>475.0</ele><time>2026-03-29T06:52:30Z</time></trkpt><trkpt lat="43.07846861081568" lon="12.183978124645304"><ele>475.0</ele><time>2026-03-29T06:52:38Z</time></trkpt><trkpt lat="43.0784765231655" lon="12.183878673998091"><ele>475.0</ele><time>2026-03-29T06:52:46Z</time></trkpt><trkpt lat="43.078390066552046" lon="12.183976611133836"><ele>475.00000000000006</ele><time>2026-03-29T06:56:52.999Z</time></trkpt><trkpt lat="43.078266032446805" lon="12.183999393522843"><ele>475.0</ele><time>2026-03-29T06:57:03.999Z</time></trkpt><trkpt lat="43.07821212690803" lon="12.183692391031446"><ele>475.0</ele><time>2026-03-29T06:57:04.999Z</time></trkpt><trkpt lat="43.07816547134894" lon="12.183618337101061"><ele>475.0</ele><time>2026-03-29T06:57:05.999Z</time></trkpt><trkpt lat="43.078041999599755" lon="12.183381945427449"><ele>475.0</ele><time>2026-03-29T06:57:06.999Z</time></trkpt><trkpt lat="43.0780022159465" lon="12.183305703240245"><ele>475.0</ele><time>2026-03-29T06:57:07.999Z</time></trkpt><trkpt lat="43.07801595792213" lon="12.183167269474842"><ele>475.0</ele><time>2026-03-29T06:57:08.999Z</time></trkpt><trkpt lat="43.07850223072891" lon="12.183833681423154"><ele>475.0</ele><time>2026-03-29T06:57:10Z</time></trkpt><trkpt lat="43.07840044217578" lon="12.183632527128937"><ele>475.0</ele><time>2026-03-29T07:01:47Z</time></trkpt><trkpt lat="43.07835531373547" lon="12.183524565188263"><ele>475.0</ele><time>2026-03-29T07:01:48Z</time></trkpt><trkpt lat="43.07832446467271" lon="12.18340970558903"><ele>475.0</ele><time>2026-03-29T07:01:49Z</time></trkpt><trkpt lat="43.07830135479691" lon="12.183315181248167"><ele>475.0</ele><time>2026-03-29T07:01:50Z</time></trkpt><trkpt lat="43.07827880907873" lon="12.183225092596965"><ele>475.0</ele><time>2026-03-29T07:01:51Z</time></trkpt><trkpt lat="43.07821620554785" lon="12.183154242087557"><ele>475.0</ele><time>2026-03-29T07:01:54Z</time></trkpt><trkpt lat="43.07813997463267" lon="12.183200741309735"><ele>475.0</ele><time>2026-03-29T07:01:56Z</time></trkpt><trkpt lat="43.078020192064976" lon="12.183310547309425"><ele>475.0</ele><time>2026-03-29T07:01:58Z</time></trkpt><trkpt lat="43.0779478910037" lon="12.183343904406575"><ele>475.0</ele><time>2026-03-29T07:01:59Z</time></trkpt><trkpt lat="43.077871510134024" lon="12.183310736268362"><ele>475.00000000000006</ele><time>2026-03-29T07:02:00Z</time></trkpt><trkpt lat="43.077800765992336" lon="12.183282522005234"><ele>475.0</ele><time>2026-03-29T07:02:01Z</time></trkpt><trkpt lat="43.07773049228073" lon="12.183240163038935"><ele>475.0</ele><time>2026-03-29T07:02:02Z</time></trkpt><trkpt lat="43.07764042780669" lon="12.18315172711335"><ele>475.0</ele><time>2026-03-29T07:02:04Z</time></trkpt><trkpt lat="43.07759195959265" lon="12.18309538213487"><ele>475.00000000000006</ele><time>2026-03-29T07:02:05Z</time></trkpt><trkpt lat="43.07749348586839" lon="12.182994276829621"><ele>475.0</ele><time>2026-03-29T07:02:07Z</time></trkpt><trkpt lat="43.07744642919096" lon="12.182924180550136"><ele>475.00000000000006</ele><time>2026-03-29T07:02:08Z</time></trkpt><trkpt lat="43.07739814979482" lon="12.182851396230117"><ele>475.0</ele><time>2026-03-29T07:02:09Z</time></trkpt><trkpt lat="43.0773689549457" lon="12.182771715510478"><ele>475.0</ele><time>2026-03-29T07:02:10Z</time></trkpt><trkpt lat="43.077340068102245" lon="12.182682611260812"><ele>475.0</ele><time>2026-03-29T07:02:11Z</time></trkpt><trkpt lat="43.07729520257557" lon="12.182559302826435"><ele>475.00000000000006</ele><time>2026-03-29T07:02:13Z</time></trkpt><trkpt lat="43.07737147051653" lon="12.182529287627467"><ele>475.0</ele><time>2026-03-29T07:02:17Z</time></trkpt><trkpt lat="43.07745486984737" lon="12.18249793742216"><ele>475.0</ele><time>2026-03-29T07:02:21Z</time></trkpt><trkpt lat="43.077535119483656" lon="12.182447576727586"><ele>475.0</ele><time>2026-03-29T07:02:24Z</time></trkpt><trkpt lat="43.07762972051649" lon="12.18236491692183"><ele>475.0</ele><time>2026-03-29T07:02:26Z</time></trkpt><trkpt lat="43.07773835739248" lon="12.182258696328145"><ele>475.0</ele><time>2026-03-29T07:02:28Z</time></trkpt><trkpt lat="43.07777090811872" lon="12.182140879249696"><ele>475.0</ele><time>2026-03-29T07:02:30Z</time></trkpt><trkpt lat="43.077783404447715" lon="12.182023795950151"><ele>476.8</ele><time>2026-03-29T07:02:31Z</time></trkpt><trkpt lat="43.07776853761131" lon="12.181873169541644"><ele>478.6</ele><time>2026-03-29T07:02:33Z</time></trkpt><trkpt lat="43.077758753593386" lon="12.18170489979197"><ele>480.4</ele><time>2026-03-29T07:02:35Z</time></trkpt><trkpt lat="43.07776659880255" lon="12.1816059715336"><ele>482.2</ele><time>2026-03-29T07:02:36Z</time></trkpt><trkpt lat="43.07777890087606" lon="12.181492786518973"><ele>484.0</ele><time>2026-03-29T07:02:37Z</time></trkpt><trkpt lat="43.077813922820916" lon="12.181410828896725"><ele>486.0</ele><time>2026-03-29T07:02:38Z</time></trkpt><trkpt lat="43.077842507404206" lon="12.181297555699002"><ele>488.0</ele><time>2026-03-29T07:02:39Z</time></trkpt><trkpt lat="43.07786653201851" lon="12.18118739448136"><ele>490.0</ele><time>2026-03-29T07:02:40Z</time></trkpt><trkpt lat="43.077882859816434" lon="12.181091921779624"><ele>492.0</ele><time>2026-03-29T07:02:41Z</time></trkpt><trkpt lat="43.07791383007402" lon="12.1809550787168"><ele>494.0</ele><time>2026-03-29T07:02:43Z</time></trkpt><trkpt lat="43.07797263696204" lon="12.180841039106818"><ele>494.0</ele><time>2026-03-29T07:02:45Z</time></trkpt><trkpt lat="43.07803223110122" lon="12.180792014907908"><ele>494.0</ele><time>2026-03-29T07:02:46Z</time></trkpt><trkpt lat="43.07812294354148" lon="12.180693682946925"><ele>494.0</ele><time>2026-03-29T07:02:48Z</time></trkpt><trkpt lat="43.07817491534584" lon="12.180627609365985"><ele>494.0</ele><time>2026-03-29T07:02:49Z</time></trkpt><trkpt lat="43.07822371329365" lon="12.180482633797975"><ele>494.0</ele><time>2026-03-29T07:02:51Z</time></trkpt><trkpt lat="43.0781789955467" lon="12.1803711324013"><ele>495.0</ele><time>2026-03-29T07:02:52Z</time></trkpt><trkpt lat="43.078162082230214" lon="12.180210380016675"><ele>496.0</ele><time>2026-03-29T07:02:54Z</time></trkpt><trkpt lat="43.078121813247115" lon="12.18006203904679"><ele>497.0</ele><time>2026-03-29T07:02:55Z</time></trkpt><trkpt lat="43.07812121227735" lon="12.179941975144462"><ele>498.0</ele><time>2026-03-29T07:02:56Z</time></trkpt><trkpt lat="43.07811826946862" lon="12.17980579931266"><ele>499.0</ele><time>2026-03-29T07:02:57Z</time></trkpt><trkpt lat="43.078136282055304" lon="12.179712265114718"><ele>499.00000000000006</ele><time>2026-03-29T07:02:58Z</time></trkpt><trkpt lat="43.07815586775387" lon="12.179623109376411"><ele>499.0</ele><time>2026-03-29T07:02:59Z</time></trkpt><trkpt lat="43.078164950287324" lon="12.179517056583345"><ele>499.0</ele><time>2026-03-29T07:03:00Z</time></trkpt><trkpt lat="43.07821023275896" lon="12.179365651426762"><ele>499.0</ele><time>2026-03-29T07:03:02Z</time></trkpt><trkpt lat="43.078238700504365" lon="12.179274671523842"><ele>499.00000000000006</ele><time>2026-03-29T07:03:03Z</time></trkpt><trkpt lat="43.078267002692485" lon="12.179181893683038"><ele>499.0</ele><time>2026-03-29T07:03:04Z</time></trkpt><trkpt lat="43.078337576965055" lon="12.179131463067728"><ele>495.4</ele><time>2026-03-29T07:03:05Z</time></trkpt><trkpt lat="43.07845132971346" lon="12.179031477657006"><ele>491.79999999999995</ele><time>2026-03-29T07:03:07Z</time></trkpt><trkpt lat="43.078532060965166" lon="12.178937047925224"><ele>488.20000000000005</ele><time>2026-03-29T07:03:08Z</time></trkpt><trkpt lat="43.07856010928695" lon="12.178853982025208"><ele>484.6</ele><time>2026-03-29T07:03:09Z</time></trkpt><trkpt lat="43.07861609070082" lon="12.1787698483202"><ele>481.0</ele><time>2026-03-29T07:03:10Z</time></trkpt><trkpt lat="43.078652295923064" lon="12.178634189307411"><ele>479.83333333333337</ele><time>2026-03-29T07:03:11Z</time></trkpt><trkpt lat="43.07866838449407" lon="12.178505421571108"><ele>478.6666666666667</ele><time>2026-03-29T07:03:12Z</time></trkpt><trkpt lat="43.07866407219395" lon="12.178374494546375"><ele>477.5</ele><time>2026-03-29T07:03:13Z</time></trkpt><trkpt lat="43.07864399628583" lon="12.178277443850968"><ele>476.33333333333337</ele><time>2026-03-29T07:03:14Z</time></trkpt><trkpt lat="43.07857583396321" lon="12.17819975367886"><ele>475.1666666666667</ele><time>2026-03-29T07:03:15Z</time></trkpt><trkpt lat="43.07850813365207" lon="12.178134521032627"><ele>474.0</ele><time>2026-03-29T07:03:16Z</time></trkpt><trkpt lat="43.07843488842286" lon="12.178077494479354"><ele>475.1666666666667</ele><time>2026-03-29T07:03:17Z</time></trkpt><trkpt lat="43.07836459308321" lon="12.177998334584057"><ele>476.33333333333337</ele><time>2026-03-29T07:03:18Z</time></trkpt><trkpt lat="43.07827646462425" lon="12.177924537696752"><ele>477.5</ele><time>2026-03-29T07:03:19Z</time></trkpt><trkpt lat="43.078202001226565" lon="12.177859329174119"><ele>478.6666666666667</ele><time>2026-03-29T07:03:20Z</time></trkpt><trkpt lat="43.078139856729365" lon="12.177810698004917"><ele>479.83333333333337</ele><time>2026-03-29T07:03:21Z</time></trkpt><trkpt lat="43.0780730978061" lon="12.177754972968385"><ele>481.0</ele><time>2026-03-29T07:03:22Z</time></trkpt><trkpt lat="43.078022953299126" lon="12.177684607703746"><ele>481.0</ele><time>2026-03-29T07:03:23Z</time></trkpt><trkpt lat="43.07800396629561" lon="12.177593711447399"><ele>481.0</ele><time>2026-03-29T07:03:24Z</time></trkpt><trkpt lat="43.077972805162936" lon="12.177443722555315"><ele>481.0</ele><time>2026-03-29T07:03:26Z</time></trkpt><trkpt lat="43.078000416069195" lon="12.17729893878944"><ele>481.0</ele><time>2026-03-29T07:03:28Z</time></trkpt><trkpt lat="43.07794325401768" lon="12.17722062785495"><ele>481.0</ele><time>2026-03-29T07:03:30Z</time></trkpt><trkpt lat="43.07787282877863" lon="12.177136585387629"><ele>477.20000000000005</ele><time>2026-03-29T07:03:33Z</time></trkpt><trkpt lat="43.07783713659726" lon="12.177056420634475"><ele>473.40000000000003</ele><time>2026-03-29T07:04:25Z</time></trkpt><trkpt lat="43.07773333132066" lon="12.17692998295456"><ele>469.6</ele><time>2026-03-29T07:04:27Z</time></trkpt><trkpt lat="43.0776531453886" lon="12.17685828652958"><ele>465.8</ele><time>2026-03-29T07:04:28Z</time></trkpt><trkpt lat="43.07759314486438" lon="12.176792890092486"><ele>462.0</ele><time>2026-03-29T07:04:29Z</time></trkpt><trkpt lat="43.07753031436429" lon="12.176740242704488"><ele>462.0</ele><time>2026-03-29T07:04:30Z</time></trkpt><trkpt lat="43.07745238646354" lon="12.17669386786174"><ele>462.0</ele><time>2026-03-29T07:04:31Z</time></trkpt><trkpt lat="43.07737561864444" lon="12.176658741852007"><ele>462.0</ele><time>2026-03-29T07:04:32Z</time></trkpt><trkpt lat="43.077305717936106" lon="12.176618980640297"><ele>462.0</ele><time>2026-03-29T07:04:33Z</time></trkpt><trkpt lat="43.077233601200795" lon="12.176576825374744"><ele>462.0</ele><time>2026-03-29T07:04:34Z</time></trkpt><trkpt lat="43.077128635241515" lon="12.17650789707084"><ele>462.0</ele><time>2026-03-29T07:04:36Z</time></trkpt><trkpt lat="43.07707631991847" lon="12.176442363482233"><ele>459.6</ele><time>2026-03-29T07:04:37Z</time></trkpt><trkpt lat="43.07695248504127" lon="12.176387597485578"><ele>457.20000000000005</ele><time>2026-03-29T07:04:39Z</time></trkpt><trkpt lat="43.07689242683335" lon="12.17636101822646"><ele>454.8</ele><time>2026-03-29T07:04:40Z</time></trkpt><trkpt lat="43.07682612292822" lon="12.176331639767318"><ele>452.4</ele><time>2026-03-29T07:04:41Z</time></trkpt><trkpt lat="43.076757919804116" lon="12.176270759708855"><ele>450.0</ele><time>2026-03-29T07:04:42Z</time></trkpt><trkpt lat="43.07664113311031" lon="12.176203972528882"><ele>451.0</ele><time>2026-03-29T07:04:44Z</time></trkpt><trkpt lat="43.07656468330528" lon="12.176164019402378"><ele>452.0</ele><time>2026-03-29T07:04:45Z</time></trkpt><trkpt lat="43.07649764968117" lon="12.17610320156033"><ele>453.0</ele><time>2026-03-29T07:04:46Z</time></trkpt><trkpt lat="43.07642459455658" lon="12.176050109821668"><ele>454.0</ele><time>2026-03-29T07:04:47Z</time></trkpt><trkpt lat="43.076348296292785" lon="12.175997652293109"><ele>455.0</ele><time>2026-03-29T07:04:48Z</time></trkpt><trkpt lat="43.076267949838325" lon="12.175964311953914"><ele>456.0</ele><time>2026-03-29T07:04:49Z</time></trkpt><trkpt lat="43.07618584797342" lon="12.175937998464583"><ele>456.0</ele><time>2026-03-29T07:04:50Z</time></trkpt><trkpt lat="43.07608516642275" lon="12.175887040354825"><ele>456.0</ele><time>2026-03-29T07:04:51Z</time></trkpt><trkpt lat="43.07600813457255" lon="12.175857100044865"><ele>456.0</ele><time>2026-03-29T07:04:52Z</time></trkpt><trkpt lat="43.07593195712699" lon="12.175832390289465"><ele>456.0</ele><time>2026-03-29T07:04:53Z</time></trkpt><trkpt lat="43.07582503281429" lon="12.175832534765773"><ele>456.0</ele><time>2026-03-29T07:04:55Z</time></trkpt><trkpt lat="43.075754312418525" lon="12.175816427243127"><ele>456.0</ele><time>2026-03-29T07:04:57Z</time></trkpt><trkpt lat="43.07567997679061" lon="12.175814174807828"><ele>457.0</ele><time>2026-03-29T07:05:02Z</time></trkpt><trkpt lat="43.075627706297226" lon="12.175752935715257"><ele>458.0</ele><time>2026-03-29T07:05:07Z</time></trkpt><trkpt lat="43.07554613494519" lon="12.175687234901178"><ele>459.0</ele><time>2026-03-29T07:05:28Z</time></trkpt><trkpt lat="43.07548945851303" lon="12.175623711316886"><ele>460.0</ele><time>2026-03-29T07:05:29Z</time></trkpt><trkpt lat="43.07542414419612" lon="12.175583820356414"><ele>461.0</ele><time>2026-03-29T07:05:30Z</time></trkpt><trkpt lat="43.07531232973234" lon="12.175518118559014"><ele>462.0</ele><time>2026-03-29T07:05:31Z</time></trkpt><trkpt lat="43.075233735754175" lon="12.175454520443568"><ele>462.0</ele><time>2026-03-29T07:05:32Z</time></trkpt><trkpt lat="43.07519169636399" lon="12.175369590235336"><ele>462.00000000000006</ele><time>2026-03-29T07:05:33Z</time></trkpt><trkpt lat="43.07516544869322" lon="12.175261049984895"><ele>462.00000000000006</ele><time>2026-03-29T07:05:34Z</time></trkpt><trkpt lat="43.07510762345109" lon="12.175130715476135"><ele>462.0</ele><time>2026-03-29T07:05:35Z</time></trkpt><trkpt lat="43.07506260426961" lon="12.175067936275848"><ele>462.0</ele><time>2026-03-29T07:05:36Z</time></trkpt><trkpt lat="43.07496687961844" lon="12.17493286853855"><ele>460.8</ele><time>2026-03-29T07:05:38Z</time></trkpt><trkpt lat="43.074908282534956" lon="12.174856423427812"><ele>459.6</ele><time>2026-03-29T07:05:39Z</time></trkpt><trkpt lat="43.07483255662709" lon="12.17479077909993"><ele>458.40000000000003</ele><time>2026-03-29T07:05:40Z</time></trkpt><trkpt lat="43.07472096712616" lon="12.174731330360148"><ele>457.20000000000005</ele><time>2026-03-29T07:05:41Z</time></trkpt><trkpt lat="43.074613938939315" lon="12.174680773791806"><ele>456.0</ele><time>2026-03-29T07:05:42Z</time></trkpt><trkpt lat="43.07453000286928" lon="12.174642200351117"><ele>460.0</ele><time>2026-03-29T07:05:43Z</time></trkpt><trkpt lat="43.07445573398089" lon="12.17460505559826"><ele>464.0</ele><time>2026-03-29T07:05:44Z</time></trkpt><trkpt lat="43.07439318498857" lon="12.174592348732821"><ele>468.0</ele><time>2026-03-29T07:05:45Z</time></trkpt><trkpt lat="43.07432905019539" lon="12.17453988861804"><ele>472.0</ele><time>2026-03-29T07:05:46Z</time></trkpt><trkpt lat="43.074265998211004" lon="12.174458565855092"><ele>476.0</ele><time>2026-03-29T07:05:47Z</time></trkpt><trkpt lat="43.07422890535075" lon="12.174363157265011"><ele>480.0</ele><time>2026-03-29T07:05:48Z</time></trkpt><trkpt lat="43.074172122798515" lon="12.174280567711628"><ele>479.8333333333333</ele><time>2026-03-29T07:05:49Z</time></trkpt><trkpt lat="43.07409915173203" lon="12.174224239906943"><ele>479.66666666666663</ele><time>2026-03-29T07:05:50Z</time></trkpt><trkpt lat="43.074034685960825" lon="12.174234156710305"><ele>479.5</ele><time>2026-03-29T07:05:51Z</time></trkpt><trkpt lat="43.0739609623831" lon="12.174274961101661"><ele>479.3333333333333</ele><time>2026-03-29T07:05:52Z</time></trkpt><trkpt lat="43.073876096940324" lon="12.174350770932048"><ele>479.16666666666663</ele><time>2026-03-29T07:05:53Z</time></trkpt><trkpt lat="43.07380624276557" lon="12.174441329973007"><ele>479.0</ele><time>2026-03-29T07:05:54Z</time></trkpt><trkpt lat="43.07372147401878" lon="12.174512454298961"><ele>478.99999999999994</ele><time>2026-03-29T07:05:55Z</time></trkpt><trkpt lat="43.07365081745812" lon="12.174568589927427"><ele>479.0</ele><time>2026-03-29T07:05:56Z</time></trkpt><trkpt lat="43.07357990219075" lon="12.174614041406654"><ele>479.0</ele><time>2026-03-29T07:05:57Z</time></trkpt><trkpt lat="43.073504477605674" lon="12.174642328107344"><ele>479.0</ele><time>2026-03-29T07:05:58Z</time></trkpt><trkpt lat="43.07337155900929" lon="12.174631842032879"><ele>478.99999999999994</ele><time>2026-03-29T07:06:00Z</time></trkpt><trkpt lat="43.07331007775453" lon="12.17456603999046"><ele>479.0</ele><time>2026-03-29T07:06:01Z</time></trkpt><trkpt lat="43.073253647128766" lon="12.174487074363284"><ele>476.6</ele><time>2026-03-29T07:06:02Z</time></trkpt><trkpt lat="43.07320616306079" lon="12.174391042900696"><ele>474.2</ele><time>2026-03-29T07:06:03Z</time></trkpt><trkpt lat="43.07314764818133" lon="12.17427236147412"><ele>471.80000000000007</ele><time>2026-03-29T07:06:04Z</time></trkpt><trkpt lat="43.07307898059152" lon="12.174149473161266"><ele>469.40000000000003</ele><time>2026-03-29T07:06:05Z</time></trkpt><trkpt lat="43.07299729603843" lon="12.1740356628149"><ele>467.0</ele><time>2026-03-29T07:06:06Z</time></trkpt><trkpt lat="43.07296762101249" lon="12.173934079229129"><ele>470.99999999999994</ele><time>2026-03-29T07:06:07Z</time></trkpt><trkpt lat="43.07294671966641" lon="12.1737909524071"><ele>475.0</ele><time>2026-03-29T07:06:08Z</time></trkpt><trkpt lat="43.07294719835376" lon="12.17368270048819"><ele>479.0</ele><time>2026-03-29T07:06:09Z</time></trkpt><trkpt lat="43.072951216476476" lon="12.17355006227618"><ele>483.0</ele><time>2026-03-29T07:06:10Z</time></trkpt><trkpt lat="43.07292952528366" lon="12.17344053514934"><ele>486.99999999999994</ele><time>2026-03-29T07:06:11Z</time></trkpt><trkpt lat="43.07289341994864" lon="12.173352375330307"><ele>491.0</ele><time>2026-03-29T07:06:12Z</time></trkpt><trkpt lat="43.07284028774172" lon="12.173304315159807"><ele>490.99999999999994</ele><time>2026-03-29T07:06:13Z</time></trkpt><trkpt lat="43.07277637998916" lon="12.173315876263517"><ele>491.0</ele><time>2026-03-29T07:06:14Z</time></trkpt><trkpt lat="43.07270812662007" lon="12.173313466850669"><ele>491.0</ele><time>2026-03-29T07:06:15Z</time></trkpt><trkpt lat="43.07257827283219" lon="12.173288011359643"><ele>491.0</ele><time>2026-03-29T07:06:17Z</time></trkpt><trkpt lat="43.072480850683014" lon="12.173240330836357"><ele>490.99999999999994</ele><time>2026-03-29T07:06:19Z</time></trkpt><trkpt lat="43.07241340000114" lon="12.17323651420088"><ele>491.0</ele><time>2026-03-29T07:06:21Z</time></trkpt><trkpt lat="43.072362819399245" lon="12.173330118973277"><ele>492.99999999999994</ele><time>2026-03-29T07:06:25Z</time></trkpt><trkpt lat="43.0723149347169" lon="12.173422668429666"><ele>495.0</ele><time>2026-03-29T07:06:28Z</time></trkpt><trkpt lat="43.07223371784698" lon="12.173407733913232"><ele>497.0</ele><time>2026-03-29T07:06:29Z</time></trkpt><trkpt lat="43.072184830862525" lon="12.17346388410325"><ele>499.0</ele><time>2026-03-29T07:06:32Z</time></trkpt><trkpt lat="43.07211762069886" lon="12.17351906757713"><ele>500.99999999999994</ele><time>2026-03-29T07:06:35Z</time></trkpt><trkpt lat="43.07205405565597" lon="12.173555025697496"><ele>503.0</ele><time>2026-03-29T07:06:36Z</time></trkpt><trkpt lat="43.07191679922199" lon="12.173824142089277"><ele>503.0</ele><time>2026-03-29T07:06:37Z</time></trkpt><trkpt lat="43.07180419710746" lon="12.173888674441944"><ele>502.99999999999994</ele><time>2026-03-29T07:06:38Z</time></trkpt><trkpt lat="43.07169159431658" lon="12.173978869326731"><ele>502.99999999999994</ele><time>2026-03-29T07:06:39Z</time></trkpt><trkpt lat="43.07161146000478" lon="12.174026938648744"><ele>503.0</ele><time>2026-03-29T07:06:40Z</time></trkpt><trkpt lat="43.07155340594967" lon="12.174084625929357"><ele>503.0</ele><time>2026-03-29T07:06:41Z</time></trkpt><trkpt lat="43.0714367940174" lon="12.174125213587585"><ele>499.4</ele><time>2026-03-29T07:06:43Z</time></trkpt><trkpt lat="43.07131212279961" lon="12.174148972351022"><ele>495.79999999999995</ele><time>2026-03-29T07:06:45Z</time></trkpt><trkpt lat="43.0712511357951" lon="12.174109885862908"><ele>492.2</ele><time>2026-03-29T07:06:46Z</time></trkpt><trkpt lat="43.07113013149074" lon="12.174015692961301"><ele>488.6</ele><time>2026-03-29T07:06:48Z</time></trkpt><trkpt lat="43.071070055247375" lon="12.173933517595115"><ele>485.0</ele><time>2026-03-29T07:06:49Z</time></trkpt><trkpt lat="43.07101637255903" lon="12.173800803278269"><ele>485.0</ele><time>2026-03-29T07:06:50Z</time></trkpt><trkpt lat="43.07096990723312" lon="12.173690137660035"><ele>485.0</ele><time>2026-03-29T07:06:51Z</time></trkpt><trkpt lat="43.07097536733593" lon="12.173509002217186"><ele>485.0</ele><time>2026-03-29T07:06:52Z</time></trkpt><trkpt lat="43.070968486518545" lon="12.173411949970049"><ele>485.0</ele><time>2026-03-29T07:06:53Z</time></trkpt><trkpt lat="43.07093876242194" lon="12.173235086441139"><ele>485.0</ele><time>2026-03-29T07:06:55Z</time></trkpt><trkpt lat="43.0708835705811" lon="12.173076373674029"><ele>485.3333333333333</ele><time>2026-03-29T07:06:57Z</time></trkpt><trkpt lat="43.07083214817138" lon="12.172929995370515"><ele>485.66666666666663</ele><time>2026-03-29T07:06:59Z</time></trkpt><trkpt lat="43.07084074014764" lon="12.1728058961806"><ele>486.0</ele><time>2026-03-29T07:07:00Z</time></trkpt><trkpt lat="43.07083085125956" lon="12.172705213064487"><ele>486.33333333333337</ele><time>2026-03-29T07:07:01Z</time></trkpt><trkpt lat="43.070815877792775" lon="12.172599150587109"><ele>486.6666666666667</ele><time>2026-03-29T07:07:02Z</time></trkpt><trkpt lat="43.07080261771064" lon="12.172496604762234"><ele>487.0</ele><time>2026-03-29T07:07:03Z</time></trkpt><trkpt lat="43.0708001241142" lon="12.172392466096154"><ele>488.50000000000006</ele><time>2026-03-29T07:07:04Z</time></trkpt><trkpt lat="43.07079238570861" lon="12.172265599436441"><ele>490.0</ele><time>2026-03-29T07:07:05Z</time></trkpt><trkpt lat="43.07078701312492" lon="12.172131616959946"><ele>491.5</ele><time>2026-03-29T07:07:06Z</time></trkpt><trkpt lat="43.07079116698337" lon="12.172017414765355"><ele>493.0</ele><time>2026-03-29T07:07:07Z</time></trkpt><trkpt lat="43.070801745356995" lon="12.171916307999702"><ele>494.50000000000006</ele><time>2026-03-29T07:07:08Z</time></trkpt><trkpt lat="43.07077985429577" lon="12.17182567461684"><ele>496.0</ele><time>2026-03-29T07:07:09Z</time></trkpt><trkpt lat="43.07075394766476" lon="12.171742464360955"><ele>496.0</ele><time>2026-03-29T07:07:10Z</time></trkpt><trkpt lat="43.07067031387022" lon="12.171680263806469"><ele>496.0</ele><time>2026-03-29T07:07:12Z</time></trkpt><trkpt lat="43.07051616854386" lon="12.171751458790345"><ele>496.0</ele><time>2026-03-29T07:07:14Z</time></trkpt><trkpt lat="43.070412614617084" lon="12.17181366502237"><ele>496.0</ele><time>2026-03-29T07:07:15Z</time></trkpt><trkpt lat="43.070344763051196" lon="12.171859281017914"><ele>496.0</ele><time>2026-03-29T07:07:16Z</time></trkpt><trkpt lat="43.07027956513743" lon="12.17189512271548"><ele>496.0</ele><time>2026-03-29T07:07:17Z</time></trkpt><trkpt lat="43.07021404446565" lon="12.171908336206938"><ele>496.00000000000006</ele><time>2026-03-29T07:07:18Z</time></trkpt><trkpt lat="43.070124846332384" lon="12.171955130209419"><ele>496.0</ele><time>2026-03-29T07:07:20Z</time></trkpt><trkpt lat="43.07006555274663" lon="12.17198793432192"><ele>496.0</ele><time>2026-03-29T07:07:21Z</time></trkpt><trkpt lat="43.06999017726311" lon="12.172008017256084"><ele>496.00000000000006</ele><time>2026-03-29T07:07:22Z</time></trkpt><trkpt lat="43.06991781240745" lon="12.172045607627595"><ele>496.0</ele><time>2026-03-29T07:07:23Z</time></trkpt><trkpt lat="43.06985290691857" lon="12.17206368148633"><ele>496.0</ele><time>2026-03-29T07:07:24Z</time></trkpt><trkpt lat="43.069778041416264" lon="12.172082933021022"><ele>493.8</ele><time>2026-03-29T07:07:25Z</time></trkpt><trkpt lat="43.06966122534713" lon="12.172075993737169"><ele>491.6</ele><time>2026-03-29T07:07:27Z</time></trkpt><trkpt lat="43.069527509802825" lon="12.172060567524499"><ele>489.4</ele><time>2026-03-29T07:07:29Z</time></trkpt><trkpt lat="43.06946430734469" lon="12.172049854758436"><ele>487.2</ele><time>2026-03-29T07:07:30Z</time></trkpt><trkpt lat="43.069378435802975" lon="12.171951661851278"><ele>485.0</ele><time>2026-03-29T07:07:32Z</time></trkpt><trkpt lat="43.06931944988482" lon="12.171786800049555"><ele>485.0</ele><time>2026-03-29T07:07:34Z</time></trkpt><trkpt lat="43.069256561296385" lon="12.171683373828154"><ele>485.0</ele><time>2026-03-29T07:07:36Z</time></trkpt><trkpt lat="43.06925770092768" lon="12.171563209143509"><ele>485.0</ele><time>2026-03-29T07:07:39Z</time></trkpt><trkpt lat="43.06925711654678" lon="12.171438988733712"><ele>485.0</ele><time>2026-03-29T07:07:41Z</time></trkpt><trkpt lat="43.069272859070125" lon="12.171291232389656"><ele>485.0</ele><time>2026-03-29T07:07:43Z</time></trkpt><trkpt lat="43.06929692082916" lon="12.171210418746053"><ele>485.2</ele><time>2026-03-29T07:07:44Z</time></trkpt><trkpt lat="43.069325172149334" lon="12.171116719692638"><ele>485.4</ele><time>2026-03-29T07:07:45Z</time></trkpt><trkpt lat="43.06934735314738" lon="12.171018631553244"><ele>485.6</ele><time>2026-03-29T07:07:46Z</time></trkpt><trkpt lat="43.06935545531526" lon="12.170859408546178"><ele>485.8</ele><time>2026-03-29T07:07:47Z</time></trkpt><trkpt lat="43.069353201518126" lon="12.170699501241371"><ele>486.0</ele><time>2026-03-29T07:07:48Z</time></trkpt><trkpt lat="43.069338263450454" lon="12.170567319402805"><ele>486.5</ele><time>2026-03-29T07:07:49Z</time></trkpt><trkpt lat="43.069350559784596" lon="12.170438705531106"><ele>487.0</ele><time>2026-03-29T07:07:50Z</time></trkpt><trkpt lat="43.06936030059483" lon="12.170338437412044"><ele>487.5</ele><time>2026-03-29T07:07:51Z</time></trkpt><trkpt lat="43.0693600765047" lon="12.170242823830947"><ele>488.0</ele><time>2026-03-29T07:07:52Z</time></trkpt><trkpt lat="43.069365807167415" lon="12.170139389472675"><ele>488.5</ele><time>2026-03-29T07:07:53Z</time></trkpt><trkpt lat="43.06939477023932" lon="12.170013673012873"><ele>489.0</ele><time>2026-03-29T07:07:54Z</time></trkpt><trkpt lat="43.0694127123816" lon="12.16988960935402"><ele>492.4</ele><time>2026-03-29T07:07:55Z</time></trkpt><trkpt lat="43.069418500010315" lon="12.169768415899968"><ele>495.79999999999995</ele><time>2026-03-29T07:07:56Z</time></trkpt><trkpt lat="43.069442574692395" lon="12.16966520679297"><ele>499.20000000000005</ele><time>2026-03-29T07:07:57Z</time></trkpt><trkpt lat="43.06947133805767" lon="12.169515889166117"><ele>502.6</ele><time>2026-03-29T07:07:59Z</time></trkpt><trkpt lat="43.069483611888444" lon="12.16938751380643"><ele>506.0</ele><time>2026-03-29T07:08:01Z</time></trkpt><trkpt lat="43.069434407415315" lon="12.169240461497498"><ele>506.0</ele><time>2026-03-29T07:08:03Z</time></trkpt><trkpt lat="43.06938894042708" lon="12.169160081955068"><ele>506.0</ele><time>2026-03-29T07:08:04Z</time></trkpt><trkpt lat="43.06928219036826" lon="12.169099794700589"><ele>506.0</ele><time>2026-03-29T07:08:06Z</time></trkpt><trkpt lat="43.069222854198344" lon="12.169138431222361"><ele>506.0</ele><time>2026-03-29T07:08:07Z</time></trkpt><trkpt lat="43.069148611717246" lon="12.169126755893872"><ele>506.0</ele><time>2026-03-29T07:08:08Z</time></trkpt><trkpt lat="43.06901836521317" lon="12.169127584682482"><ele>506.8</ele><time>2026-03-29T07:08:10Z</time></trkpt><trkpt lat="43.068954439209655" lon="12.169156900731789"><ele>507.6</ele><time>2026-03-29T07:08:11Z</time></trkpt><trkpt lat="43.068817240331775" lon="12.16917550576256"><ele>508.4</ele><time>2026-03-29T07:08:13Z</time></trkpt><trkpt lat="43.06872403458464" lon="12.169197834106269"><ele>509.2</ele><time>2026-03-29T07:08:14Z</time></trkpt><trkpt lat="43.06865204884449" lon="12.169221771680506"><ele>510.0</ele><time>2026-03-29T07:08:15Z</time></trkpt><trkpt lat="43.068564712995354" lon="12.169281417856785"><ele>510.0</ele><time>2026-03-29T07:08:16Z</time></trkpt><trkpt lat="43.06850157925016" lon="12.169312761952526"><ele>510.0</ele><time>2026-03-29T07:08:17Z</time></trkpt><trkpt lat="43.068435024699134" lon="12.169378850511988"><ele>510.0</ele><time>2026-03-29T07:08:18Z</time></trkpt><trkpt lat="43.06834677898739" lon="12.169469160630202"><ele>510.0</ele><time>2026-03-29T07:08:19Z</time></trkpt><trkpt lat="43.068271797229094" lon="12.169559348343558"><ele>510.0</ele><time>2026-03-29T07:08:20Z</time></trkpt><trkpt lat="43.0681972307275" lon="12.169603002605546"><ele>510.0</ele><time>2026-03-29T07:08:21Z</time></trkpt><trkpt lat="43.06812267675634" lon="12.16962054894712"><ele>511.0</ele><time>2026-03-29T07:08:22Z</time></trkpt><trkpt lat="43.068019967087785" lon="12.169649698287838"><ele>512.0</ele><time>2026-03-29T07:08:23Z</time></trkpt><trkpt lat="43.067866646713796" lon="12.169666956545194"><ele>513.0</ele><time>2026-03-29T07:08:25Z</time></trkpt><trkpt lat="43.06777343511887" lon="12.169647090897842"><ele>514.0</ele><time>2026-03-29T07:08:26Z</time></trkpt><trkpt lat="43.067693005452675" lon="12.169626221741238"><ele>515.0</ele><time>2026-03-29T07:08:27Z</time></trkpt><trkpt lat="43.06758317777754" lon="12.169589852116085"><ele>515.0</ele><time>2026-03-29T07:08:28Z</time></trkpt><trkpt lat="43.06749797673944" lon="12.169605444408356"><ele>515.0</ele><time>2026-03-29T07:08:29Z</time></trkpt><trkpt lat="43.067408055414745" lon="12.169577679239021"><ele>515.0</ele><time>2026-03-29T07:08:30Z</time></trkpt><trkpt lat="43.06732736581218" lon="12.169582382242165"><ele>515.0</ele><time>2026-03-29T07:08:31Z</time></trkpt><trkpt lat="43.067246428718285" lon="12.169565342638531"><ele>515.0</ele><time>2026-03-29T07:08:32Z</time></trkpt><trkpt lat="43.06717402925421" lon="12.169537213781519"><ele>515.0</ele><time>2026-03-29T07:08:33Z</time></trkpt><trkpt lat="43.06709296421708" lon="12.169497184340232"><ele>514.1666666666666</ele><time>2026-03-29T07:08:34Z</time></trkpt><trkpt lat="43.067019777537055" lon="12.169442634773375"><ele>513.3333333333333</ele><time>2026-03-29T07:08:35Z</time></trkpt><trkpt lat="43.06695199914159" lon="12.169380199195302"><ele>512.5</ele><time>2026-03-29T07:08:36Z</time></trkpt><trkpt lat="43.06688136441152" lon="12.169327578595675"><ele>511.66666666666663</ele><time>2026-03-29T07:08:37Z</time></trkpt><trkpt lat="43.06679839807671" lon="12.169280038482727"><ele>510.8333333333333</ele><time>2026-03-29T07:08:38Z</time></trkpt><trkpt lat="43.066720315497236" lon="12.169249043843948"><ele>510.0</ele><time>2026-03-29T07:08:39Z</time></trkpt><trkpt lat="43.06665341209246" lon="12.169233931780377"><ele>508.2</ele><time>2026-03-29T07:08:40Z</time></trkpt><trkpt lat="43.0665753899608" lon="12.169240588951148"><ele>506.4</ele><time>2026-03-29T07:08:42Z</time></trkpt><trkpt lat="43.066455476684325" lon="12.169387967565978"><ele>504.6</ele><time>2026-03-29T07:08:44Z</time></trkpt><trkpt lat="43.06640717046667" lon="12.169472510831277"><ele>502.8</ele><time>2026-03-29T07:08:45Z</time></trkpt><trkpt lat="43.06629670994361" lon="12.169542927258444"><ele>501.0</ele><time>2026-03-29T07:08:47Z</time></trkpt><trkpt lat="43.066208171066364" lon="12.169614929734182"><ele>501.0</ele><time>2026-03-29T07:08:49Z</time></trkpt><trkpt lat="43.066096745280106" lon="12.169647183616823"><ele>501.0</ele><time>2026-03-29T07:08:51Z</time></trkpt><trkpt lat="43.06599010999345" lon="12.169720313906565"><ele>501.0</ele><time>2026-03-29T07:08:53Z</time></trkpt><trkpt lat="43.06593129972234" lon="12.16976226045236"><ele>501.0</ele><time>2026-03-29T07:08:54Z</time></trkpt><trkpt lat="43.065823841460784" lon="12.169808608553923"><ele>501.0</ele><time>2026-03-29T07:08:56Z</time></trkpt><trkpt lat="43.06570881199419" lon="12.16981395430432"><ele>499.6</ele><time>2026-03-29T07:08:58Z</time></trkpt><trkpt lat="43.06555920195896" lon="12.169776794571993"><ele>498.20000000000005</ele><time>2026-03-29T07:09:00Z</time></trkpt><trkpt lat="43.065488808248936" lon="12.1697768623529"><ele>496.79999999999995</ele><time>2026-03-29T07:09:01Z</time></trkpt><trkpt lat="43.06538101335085" lon="12.16975702704092"><ele>495.4</ele><time>2026-03-29T07:09:03Z</time></trkpt><trkpt lat="43.06529701506137" lon="12.169743803722618"><ele>494.0</ele><time>2026-03-29T07:09:05Z</time></trkpt><trkpt lat="43.06527017717114" lon="12.169865111103464"><ele>494.0</ele><time>2026-03-29T07:09:09Z</time></trkpt><trkpt lat="43.06518782145649" lon="12.1699463782449"><ele>494.0</ele><time>2026-03-29T07:09:11Z</time></trkpt><trkpt lat="43.06511161702465" lon="12.170050302872676"><ele>494.0</ele><time>2026-03-29T07:09:12Z</time></trkpt><trkpt lat="43.06504901205463" lon="12.1701217345554"><ele>494.0</ele><time>2026-03-29T07:09:13Z</time></trkpt><trkpt lat="43.06499542384801" lon="12.170179625088407"><ele>494.0</ele><time>2026-03-29T07:09:14Z</time></trkpt><trkpt lat="43.06491622964533" lon="12.170287562236215"><ele>494.8333333333333</ele><time>2026-03-29T07:09:16Z</time></trkpt><trkpt lat="43.06486148425261" lon="12.1703482539989"><ele>495.66666666666663</ele><time>2026-03-29T07:09:17Z</time></trkpt><trkpt lat="43.064787063850325" lon="12.170358644119078"><ele>496.5</ele><time>2026-03-29T07:09:18Z</time></trkpt><trkpt lat="43.0647143138862" lon="12.170397480589656"><ele>497.33333333333337</ele><time>2026-03-29T07:09:19Z</time></trkpt><trkpt lat="43.064656011708884" lon="12.170442179826845"><ele>498.1666666666667</ele><time>2026-03-29T07:09:20Z</time></trkpt><trkpt lat="43.064587314879525" lon="12.17047351899616"><ele>499.0</ele><time>2026-03-29T07:09:21Z</time></trkpt><trkpt lat="43.0644953770805" lon="12.170567157372798"><ele>499.00000000000006</ele><time>2026-03-29T07:09:23Z</time></trkpt><trkpt lat="43.06444743429287" lon="12.170643192440107"><ele>499.0</ele><time>2026-03-29T07:09:24Z</time></trkpt><trkpt lat="43.06438865028314" lon="12.170723720513166"><ele>499.0</ele><time>2026-03-29T07:09:25Z</time></trkpt><trkpt lat="43.064310258577926" lon="12.17086135099093"><ele>499.0</ele><time>2026-03-29T07:09:27Z</time></trkpt><trkpt lat="43.064267276421404" lon="12.170925120381101"><ele>499.00000000000006</ele><time>2026-03-29T07:09:28Z</time></trkpt><trkpt lat="43.06421659901792" lon="12.170977795893384"><ele>499.0</ele><time>2026-03-29T07:09:29Z</time></trkpt><trkpt lat="43.064160984998104" lon="12.171019349478454"><ele>499.1666666666667</ele><time>2026-03-29T07:09:30Z</time></trkpt><trkpt lat="43.06409409582023" lon="12.17100024966304"><ele>499.33333333333337</ele><time>2026-03-29T07:09:31Z</time></trkpt><trkpt lat="43.064031187420476" lon="12.170987795265567"><ele>499.5</ele><time>2026-03-29T07:09:32Z</time></trkpt><trkpt lat="43.063951637684035" lon="12.170854957444591"><ele>499.66666666666663</ele><time>2026-03-29T07:09:34Z</time></trkpt><trkpt lat="43.063891261021006" lon="12.170796043891016"><ele>499.8333333333333</ele><time>2026-03-29T07:09:35Z</time></trkpt><trkpt lat="43.06381791352537" lon="12.170730470196649"><ele>500.0</ele><time>2026-03-29T07:09:36Z</time></trkpt><trkpt lat="43.063756338662635" lon="12.170653551885392"><ele>500.6</ele><time>2026-03-29T07:09:37Z</time></trkpt><trkpt lat="43.06366037953045" lon="12.170571365651668"><ele>501.2</ele><time>2026-03-29T07:09:38Z</time></trkpt><trkpt lat="43.06357900992261" lon="12.170517856638954"><ele>501.79999999999995</ele><time>2026-03-29T07:09:39Z</time></trkpt><trkpt lat="43.06349282824851" lon="12.170487676924887"><ele>502.4</ele><time>2026-03-29T07:09:40Z</time></trkpt><trkpt lat="43.0633962886701" lon="12.170483576277677"><ele>503.0</ele><time>2026-03-29T07:09:41Z</time></trkpt><trkpt lat="43.06332524456016" lon="12.17052748769705"><ele>503.4</ele><time>2026-03-29T07:09:42Z</time></trkpt><trkpt lat="43.06321665621457" lon="12.170588921567383"><ele>503.79999999999995</ele><time>2026-03-29T07:09:43Z</time></trkpt><trkpt lat="43.06313740224731" lon="12.170631215164077"><ele>504.2</ele><time>2026-03-29T07:09:44Z</time></trkpt><trkpt lat="43.063052210066004" lon="12.17068809730737"><ele>504.6</ele><time>2026-03-29T07:09:45Z</time></trkpt><trkpt lat="43.06296672846625" lon="12.170741689804375"><ele>505.0</ele><time>2026-03-29T07:09:46Z</time></trkpt><trkpt lat="43.062875806400136" lon="12.170798693195477"><ele>506.2</ele><time>2026-03-29T07:09:47Z</time></trkpt><trkpt lat="43.062753612669276" lon="12.17087616678884"><ele>507.4</ele><time>2026-03-29T07:09:48Z</time></trkpt><trkpt lat="43.062676738910255" lon="12.17092757981659"><ele>508.6</ele><time>2026-03-29T07:09:49Z</time></trkpt><trkpt lat="43.06258051925612" lon="12.170994340600972"><ele>509.8</ele><time>2026-03-29T07:09:50Z</time></trkpt><trkpt lat="43.06248870915046" lon="12.17105255101563"><ele>511.0</ele><time>2026-03-29T07:09:51Z</time></trkpt><trkpt lat="43.06236463042079" lon="12.171092197354108"><ele>511.0</ele><time>2026-03-29T07:09:53Z</time></trkpt><trkpt lat="43.06231840645483" lon="12.171028757615616"><ele>511.0</ele><time>2026-03-29T07:09:54Z</time></trkpt><trkpt lat="43.06230456006074" lon="12.170833660789127"><ele>511.0</ele><time>2026-03-29T07:09:55Z</time></trkpt><trkpt lat="43.062222800329295" lon="12.170787073541103"><ele>511.0</ele><time>2026-03-29T07:09:57Z</time></trkpt><trkpt lat="43.06209017066071" lon="12.17079340832294"><ele>511.0</ele><time>2026-03-29T07:09:59Z</time></trkpt><trkpt lat="43.06201163720196" lon="12.170810040489135"><ele>511.00000000000006</ele><time>2026-03-29T07:10:00Z</time></trkpt><trkpt lat="43.061928662623345" lon="12.170827152402287"><ele>511.0</ele><time>2026-03-29T07:10:01Z</time></trkpt><trkpt lat="43.061850147977154" lon="12.170851476310595"><ele>511.0</ele><time>2026-03-29T07:10:02Z</time></trkpt><trkpt lat="43.061776650401995" lon="12.17089310871711"><ele>511.0</ele><time>2026-03-29T07:10:03Z</time></trkpt><trkpt lat="43.06170591160115" lon="12.170916585087845"><ele>511.00000000000006</ele><time>2026-03-29T07:10:04Z</time></trkpt><trkpt lat="43.061637706636006" lon="12.170935664617081"><ele>511.0</ele><time>2026-03-29T07:10:05Z</time></trkpt><trkpt lat="43.06156915356142" lon="12.170958493888316"><ele>510.33333333333337</ele><time>2026-03-29T07:10:06Z</time></trkpt><trkpt lat="43.06149309009448" lon="12.170975561665003"><ele>509.6666666666667</ele><time>2026-03-29T07:10:07Z</time></trkpt><trkpt lat="43.061415993136556" lon="12.17095469550664"><ele>509.0</ele><time>2026-03-29T07:10:08Z</time></trkpt><trkpt lat="43.061339692772854" lon="12.170951455580585"><ele>508.33333333333337</ele><time>2026-03-29T07:10:09Z</time></trkpt><trkpt lat="43.06125972257789" lon="12.170937989509108"><ele>507.6666666666667</ele><time>2026-03-29T07:10:10Z</time></trkpt><trkpt lat="43.06117201777476" lon="12.17091172927577"><ele>507.0</ele><time>2026-03-29T07:10:11Z</time></trkpt><trkpt lat="43.06110077007176" lon="12.170837566687197"><ele>507.0</ele><time>2026-03-29T07:10:12Z</time></trkpt><trkpt lat="43.06101594585293" lon="12.170829389645403"><ele>507.0</ele><time>2026-03-29T07:10:13Z</time></trkpt><trkpt lat="43.06093229128962" lon="12.170818307359896"><ele>507.0</ele><time>2026-03-29T07:10:14Z</time></trkpt><trkpt lat="43.06084255444146" lon="12.170823078239735"><ele>507.0</ele><time>2026-03-29T07:10:15Z</time></trkpt><trkpt lat="43.06074526039471" lon="12.170816687560086"><ele>507.0</ele><time>2026-03-29T07:10:16Z</time></trkpt><trkpt lat="43.06065737399183" lon="12.170802101999737"><ele>507.0</ele><time>2026-03-29T07:10:17Z</time></trkpt><trkpt lat="43.06058089101534" lon="12.170767160220562"><ele>506.20000000000005</ele><time>2026-03-29T07:10:18Z</time></trkpt><trkpt lat="43.06048330974663" lon="12.170756423457426"><ele>505.40000000000003</ele><time>2026-03-29T07:10:19Z</time></trkpt><trkpt lat="43.06039404278091" lon="12.170728556085688"><ele>504.59999999999997</ele><time>2026-03-29T07:10:20Z</time></trkpt><trkpt lat="43.06029910252793" lon="12.170732611237067"><ele>503.79999999999995</ele><time>2026-03-29T07:10:21Z</time></trkpt><trkpt lat="43.06019989667346" lon="12.170755799048726"><ele>503.0</ele><time>2026-03-29T07:10:22Z</time></trkpt><trkpt lat="43.060066639098814" lon="12.170822413599929"><ele>502.99999999999994</ele><time>2026-03-29T07:10:23Z</time></trkpt><trkpt lat="43.059975053857144" lon="12.17086127220902"><ele>503.0</ele><time>2026-03-29T07:10:24Z</time></trkpt><trkpt lat="43.05991040085018" lon="12.170885667253582"><ele>503.0</ele><time>2026-03-29T07:10:25Z</time></trkpt><trkpt lat="43.05983030332911" lon="12.170871612690213"><ele>503.0</ele><time>2026-03-29T07:10:26Z</time></trkpt><trkpt lat="43.05975189619414" lon="12.170871991589001"><ele>502.99999999999994</ele><time>2026-03-29T07:10:27Z</time></trkpt><trkpt lat="43.059662306395865" lon="12.170867097994444"><ele>503.0</ele><time>2026-03-29T07:10:28Z</time></trkpt><trkpt lat="43.05956945731377" lon="12.170857297777461"><ele>504.2</ele><time>2026-03-29T07:10:29Z</time></trkpt><trkpt lat="43.05947332996549" lon="12.170853675253698"><ele>505.4</ele><time>2026-03-29T07:10:30Z</time></trkpt><trkpt lat="43.05937848919508" lon="12.170823368769339"><ele>506.59999999999997</ele><time>2026-03-29T07:10:31Z</time></trkpt><trkpt lat="43.059284416984134" lon="12.170767661987222"><ele>507.79999999999995</ele><time>2026-03-29T07:10:32Z</time></trkpt><trkpt lat="43.05919073172678" lon="12.170733795337112"><ele>509.0</ele><time>2026-03-29T07:10:33Z</time></trkpt><trkpt lat="43.059099429461185" lon="12.170725587337497"><ele>510.2</ele><time>2026-03-29T07:10:34Z</time></trkpt><trkpt lat="43.05900825085404" lon="12.17070534684388"><ele>511.4</ele><time>2026-03-29T07:10:35Z</time></trkpt><trkpt lat="43.05892386733254" lon="12.170711832926006"><ele>512.6</ele><time>2026-03-29T07:10:36Z</time></trkpt><trkpt lat="43.05883257743244" lon="12.170748564327262"><ele>513.8</ele><time>2026-03-29T07:10:37Z</time></trkpt><trkpt lat="43.05874336746506" lon="12.170813981986841"><ele>515.0</ele><time>2026-03-29T07:10:38Z</time></trkpt><trkpt lat="43.05865628167091" lon="12.170860703577477"><ele>515.0</ele><time>2026-03-29T07:10:39Z</time></trkpt><trkpt lat="43.058554331178016" lon="12.170915075909168"><ele>515.0</ele><time>2026-03-29T07:10:40Z</time></trkpt><trkpt lat="43.058452711380404" lon="12.170988052462235"><ele>515.0</ele><time>2026-03-29T07:10:41Z</time></trkpt><trkpt lat="43.05833712425497" lon="12.17103573011808"><ele>515.0</ele><time>2026-03-29T07:10:42Z</time></trkpt><trkpt lat="43.058221364892454" lon="12.17106614709218"><ele>515.6</ele><time>2026-03-29T07:10:43Z</time></trkpt><trkpt lat="43.058108436650194" lon="12.171063791628585"><ele>516.2</ele><time>2026-03-29T07:10:44Z</time></trkpt><trkpt lat="43.058014927559455" lon="12.17105668006995"><ele>516.8</ele><time>2026-03-29T07:10:45Z</time></trkpt><trkpt lat="43.0578831716854" lon="12.171054125552153"><ele>517.4</ele><time>2026-03-29T07:10:46Z</time></trkpt><trkpt lat="43.05779953318368" lon="12.171070159418639"><ele>518.0</ele><time>2026-03-29T07:10:47Z</time></trkpt><trkpt lat="43.057677517076506" lon="12.171074142250266"><ele>518.0</ele><time>2026-03-29T07:10:48Z</time></trkpt><trkpt lat="43.05755239606031" lon="12.171086026202175"><ele>518.0</ele><time>2026-03-29T07:10:49Z</time></trkpt><trkpt lat="43.05744096324007" lon="12.1710778692364"><ele>518.0</ele><time>2026-03-29T07:10:50Z</time></trkpt><trkpt lat="43.05732642865732" lon="12.171086450533073"><ele>518.0</ele><time>2026-03-29T07:10:51Z</time></trkpt><trkpt lat="43.0572196089319" lon="12.171114920358887"><ele>518.6</ele><time>2026-03-29T07:10:52Z</time></trkpt><trkpt lat="43.057118565282416" lon="12.171107802613355"><ele>519.1999999999999</ele><time>2026-03-29T07:10:53Z</time></trkpt><trkpt lat="43.05702059372771" lon="12.171115138014995"><ele>519.8</ele><time>2026-03-29T07:10:54Z</time></trkpt><trkpt lat="43.05691807507728" lon="12.171133195620422"><ele>520.4</ele><time>2026-03-29T07:10:55Z</time></trkpt><trkpt lat="43.05681565519327" lon="12.171151345631163"><ele>521.0</ele><time>2026-03-29T07:10:56Z</time></trkpt><trkpt lat="43.05670568596248" lon="12.171163779945184"><ele>522.0</ele><time>2026-03-29T07:10:57Z</time></trkpt><trkpt lat="43.05659164325186" lon="12.171173557812466"><ele>523.0</ele><time>2026-03-29T07:10:58Z</time></trkpt><trkpt lat="43.05647480686635" lon="12.171177007853597"><ele>524.0</ele><time>2026-03-29T07:10:59Z</time></trkpt><trkpt lat="43.056360674115815" lon="12.17118233188934"><ele>525.0</ele><time>2026-03-29T07:11:00Z</time></trkpt><trkpt lat="43.056246687985286" lon="12.171194117839338"><ele>525.0</ele><time>2026-03-29T07:11:01Z</time></trkpt><trkpt lat="43.0561367579048" lon="12.171210689272499"><ele>525.0</ele><time>2026-03-29T07:11:02Z</time></trkpt><trkpt lat="43.056025973685166" lon="12.171240506053277"><ele>525.0</ele><time>2026-03-29T07:11:03Z</time></trkpt><trkpt lat="43.055915563021465" lon="12.17127374692723"><ele>525.0</ele><time>2026-03-29T07:11:04Z</time></trkpt><trkpt lat="43.05580949291672" lon="12.171313602024963"><ele>525.0</ele><time>2026-03-29T07:11:05Z</time></trkpt><trkpt lat="43.05571005708086" lon="12.171365409251731"><ele>525.8</ele><time>2026-03-29T07:11:06Z</time></trkpt><trkpt lat="43.05559806002151" lon="12.171394389177063"><ele>526.6</ele><time>2026-03-29T07:11:07Z</time></trkpt><trkpt lat="43.05550125421831" lon="12.171441499358924"><ele>527.4</ele><time>2026-03-29T07:11:08Z</time></trkpt><trkpt lat="43.055403282598064" lon="12.17150875569538"><ele>528.2</ele><time>2026-03-29T07:11:09Z</time></trkpt><trkpt lat="43.05529729126587" lon="12.17154628116648"><ele>529.0</ele><time>2026-03-29T07:11:10Z</time></trkpt><trkpt lat="43.05519900120687" lon="12.171594843220758"><ele>529.0</ele><time>2026-03-29T07:11:11Z</time></trkpt><trkpt lat="43.05508872520464" lon="12.171649536011621"><ele>529.0</ele><time>2026-03-29T07:11:12Z</time></trkpt><trkpt lat="43.05497889716573" lon="12.171684972338108"><ele>529.0</ele><time>2026-03-29T07:11:13Z</time></trkpt><trkpt lat="43.05486683176768" lon="12.171747675475029"><ele>529.0</ele><time>2026-03-29T07:11:14Z</time></trkpt><trkpt lat="43.054774605966" lon="12.171824321225678"><ele>529.4</ele><time>2026-03-29T07:11:15Z</time></trkpt><trkpt lat="43.05467344538937" lon="12.171892592206795"><ele>529.8</ele><time>2026-03-29T07:11:16Z</time></trkpt><trkpt lat="43.05457007873054" lon="12.17196141026454"><ele>530.2</ele><time>2026-03-29T07:11:17Z</time></trkpt><trkpt lat="43.05447251141787" lon="12.172026287994818"><ele>530.6</ele><time>2026-03-29T07:11:18Z</time></trkpt><trkpt lat="43.05439063719748" lon="12.17208347368043"><ele>531.0</ele><time>2026-03-29T07:11:19Z</time></trkpt><trkpt lat="43.054316383557925" lon="12.1721342003158"><ele>531.0</ele><time>2026-03-29T07:11:20Z</time></trkpt><trkpt lat="43.05424222417883" lon="12.17218598385393"><ele>531.0</ele><time>2026-03-29T07:11:21Z</time></trkpt><trkpt lat="43.054168930184474" lon="12.172236532790556"><ele>531.0</ele><time>2026-03-29T07:11:22Z</time></trkpt><trkpt lat="43.054092969331684" lon="12.172288435110548"><ele>531.0</ele><time>2026-03-29T07:11:23Z</time></trkpt><trkpt lat="43.054012082560206" lon="12.17234781548922"><ele>531.0</ele><time>2026-03-29T07:11:24Z</time></trkpt><trkpt lat="43.05392582946432" lon="12.172411968887697"><ele>531.0</ele><time>2026-03-29T07:11:25Z</time></trkpt><trkpt lat="43.05383405896173" lon="12.172470651415113"><ele>532.0</ele><time>2026-03-29T07:11:26Z</time></trkpt><trkpt lat="43.05373803586296" lon="12.172544009070268"><ele>533.0</ele><time>2026-03-29T07:11:27Z</time></trkpt><trkpt lat="43.05364768549393" lon="12.17260938955787"><ele>534.0</ele><time>2026-03-29T07:11:28Z</time></trkpt><trkpt lat="43.05355071166151" lon="12.172685512700564"><ele>535.0</ele><time>2026-03-29T07:11:29Z</time></trkpt><trkpt lat="43.0534470886125" lon="12.172765928052161"><ele>536.0</ele><time>2026-03-29T07:11:30Z</time></trkpt><trkpt lat="43.05333574812675" lon="12.172858796751669"><ele>536.0</ele><time>2026-03-29T07:11:31Z</time></trkpt><trkpt lat="43.053226955853496" lon="12.172947266776731"><ele>536.0</ele><time>2026-03-29T07:11:32Z</time></trkpt><trkpt lat="43.0531087390199" lon="12.173019447260408"><ele>536.0</ele><time>2026-03-29T07:11:33Z</time></trkpt><trkpt lat="43.0529941103645" lon="12.173101861443193"><ele>536.0</ele><time>2026-03-29T07:11:34Z</time></trkpt><trkpt lat="43.052878161780725" lon="12.173182508054708"><ele>539.25</ele><time>2026-03-29T07:11:35Z</time></trkpt><trkpt lat="43.05275251492961" lon="12.173265990417415"><ele>542.5</ele><time>2026-03-29T07:11:36Z</time></trkpt><trkpt lat="43.052625570404054" lon="12.173362157504789"><ele>545.75</ele><time>2026-03-29T07:11:37Z</time></trkpt><trkpt lat="43.05250698427789" lon="12.173436648907408"><ele>549.0</ele><time>2026-03-29T07:11:38Z</time></trkpt><trkpt lat="43.052389315019354" lon="12.173480934343797"><ele>550.8</ele><time>2026-03-29T07:11:39Z</time></trkpt><trkpt lat="43.052279915593274" lon="12.173525948521581"><ele>552.5999999999999</ele><time>2026-03-29T07:11:40Z</time></trkpt><trkpt lat="43.052182542472345" lon="12.17354329698895"><ele>554.4</ele><time>2026-03-29T07:11:41Z</time></trkpt><trkpt lat="43.052078843792074" lon="12.173567198834911"><ele>556.1999999999999</ele><time>2026-03-29T07:11:42Z</time></trkpt><trkpt lat="43.05197440646833" lon="12.17355346321008"><ele>558.0</ele><time>2026-03-29T07:11:43Z</time></trkpt><trkpt lat="43.05185594705717" lon="12.173539108963944"><ele>558.0</ele><time>2026-03-29T07:11:44Z</time></trkpt><trkpt lat="43.051738788875106" lon="12.173514200851695"><ele>558.0</ele><time>2026-03-29T07:11:45Z</time></trkpt><trkpt lat="43.051622741616264" lon="12.173491155832929"><ele>558.0</ele><time>2026-03-29T07:11:46Z</time></trkpt><trkpt lat="43.051504484654444" lon="12.173461637186188"><ele>558.0</ele><time>2026-03-29T07:11:47Z</time></trkpt><trkpt lat="43.05140429133444" lon="12.173415096754482"><ele>558.1666666666666</ele><time>2026-03-29T07:11:48Z</time></trkpt><trkpt lat="43.051335846708376" lon="12.173407996775268"><ele>558.3333333333334</ele><time>2026-03-29T07:11:49Z</time></trkpt><trkpt lat="43.05124909478244" lon="12.17340615709239"><ele>558.5</ele><time>2026-03-29T07:11:50Z</time></trkpt><trkpt lat="43.05116179802126" lon="12.173405899127115"><ele>558.6666666666667</ele><time>2026-03-29T07:11:51Z</time></trkpt><trkpt lat="43.05108630795023" lon="12.173451253680694"><ele>558.8333333333334</ele><time>2026-03-29T07:11:52Z</time></trkpt><trkpt lat="43.05101413082873" lon="12.173499022048087"><ele>559.0</ele><time>2026-03-29T07:11:53Z</time></trkpt><trkpt lat="43.0509541430944" lon="12.173540407108941"><ele>559.0</ele><time>2026-03-29T07:11:54Z</time></trkpt><trkpt lat="43.05090737906532" lon="12.173625314587952"><ele>559.0</ele><time>2026-03-29T07:11:55Z</time></trkpt><trkpt lat="43.0508526994169" lon="12.173689926908654"><ele>559.0</ele><time>2026-03-29T07:11:56Z</time></trkpt><trkpt lat="43.05079862000462" lon="12.173766447369301"><ele>559.0</ele><time>2026-03-29T07:11:57Z</time></trkpt><trkpt lat="43.05074414638421" lon="12.173832392840925"><ele>559.0</ele><time>2026-03-29T07:11:58Z</time></trkpt><trkpt lat="43.050687444647416" lon="12.173917954967022"><ele>559.0</ele><time>2026-03-29T07:11:59Z</time></trkpt><trkpt lat="43.05063165084924" lon="12.173996421197822"><ele>558.5</ele><time>2026-03-29T07:12:00Z</time></trkpt><trkpt lat="43.05056442612015" lon="12.174060389604952"><ele>558.0</ele><time>2026-03-29T07:12:01Z</time></trkpt><trkpt lat="43.050504677510574" lon="12.174146173825836"><ele>557.5</ele><time>2026-03-29T07:12:02Z</time></trkpt><trkpt lat="43.050455364653644" lon="12.174241268755894"><ele>557.0</ele><time>2026-03-29T07:12:03Z</time></trkpt><trkpt lat="43.05039541910638" lon="12.174312934901733"><ele>556.5</ele><time>2026-03-29T07:12:04Z</time></trkpt><trkpt lat="43.050325601595446" lon="12.174367048633318"><ele>556.0</ele><time>2026-03-29T07:12:05Z</time></trkpt><trkpt lat="43.05024564829311" lon="12.174380954101515"><ele>556.0</ele><time>2026-03-29T07:12:06Z</time></trkpt><trkpt lat="43.05017342037502" lon="12.174401374530621"><ele>556.0</ele><time>2026-03-29T07:12:07Z</time></trkpt><trkpt lat="43.0500958172868" lon="12.17442790233829"><ele>556.0</ele><time>2026-03-29T07:12:08Z</time></trkpt><trkpt lat="43.05001297988147" lon="12.17445868280669"><ele>556.0</ele><time>2026-03-29T07:12:09Z</time></trkpt><trkpt lat="43.049936185865775" lon="12.174487217811135"><ele>556.0</ele><time>2026-03-29T07:12:10Z</time></trkpt><trkpt lat="43.04985730451067" lon="12.174538051781258"><ele>556.0</ele><time>2026-03-29T07:12:11Z</time></trkpt><trkpt lat="43.049778007961706" lon="12.174568779206233"><ele>553.1666666666667</ele><time>2026-03-29T07:12:12Z</time></trkpt><trkpt lat="43.04969758141218" lon="12.174578407840857"><ele>550.3333333333334</ele><time>2026-03-29T07:12:13Z</time></trkpt><trkpt lat="43.04961679199303" lon="12.174610827879807"><ele>547.5</ele><time>2026-03-29T07:12:14Z</time></trkpt><trkpt lat="43.049537231665404" lon="12.174640750919126"><ele>544.6666666666666</ele><time>2026-03-29T07:12:15Z</time></trkpt><trkpt lat="43.049458017829615" lon="12.174696982194162"><ele>541.8333333333333</ele><time>2026-03-29T07:12:16Z</time></trkpt><trkpt lat="43.04939093583253" lon="12.174721111785505"><ele>539.0</ele><time>2026-03-29T07:12:17Z</time></trkpt><trkpt lat="43.04939737974146" lon="12.174832334918918"><ele>540.8</ele><time>2026-03-29T07:12:19Z</time></trkpt><trkpt lat="43.0494495655863" lon="12.174988019069481"><ele>542.5999999999999</ele><time>2026-03-29T07:12:21Z</time></trkpt><trkpt lat="43.049475640598565" lon="12.175193787626093"><ele>544.4</ele><time>2026-03-29T07:12:23Z</time></trkpt><trkpt lat="43.04946931982376" lon="12.175297911839477"><ele>546.1999999999999</ele><time>2026-03-29T07:12:24Z</time></trkpt><trkpt lat="43.0494779032773" lon="12.175393517255568"><ele>548.0</ele><time>2026-03-29T07:12:25Z</time></trkpt><trkpt lat="43.04947632685246" lon="12.175562839601813"><ele>548.0</ele><time>2026-03-29T07:12:27Z</time></trkpt><trkpt lat="43.04946022488718" lon="12.17565540801004"><ele>548.0</ele><time>2026-03-29T07:12:28Z</time></trkpt><trkpt lat="43.04941934655071" lon="12.17575789292264"><ele>548.0</ele><time>2026-03-29T07:12:29Z</time></trkpt><trkpt lat="43.04935348307056" lon="12.17582849885731"><ele>548.0</ele><time>2026-03-29T07:12:30Z</time></trkpt><trkpt lat="43.04932099453573" lon="12.175932841865864"><ele>548.0</ele><time>2026-03-29T07:12:31Z</time></trkpt><trkpt lat="43.04929035405752" lon="12.176031262059812"><ele>548.0</ele><time>2026-03-29T07:12:32Z</time></trkpt><trkpt lat="43.04926955573474" lon="12.176129050546928"><ele>548.0000000000001</ele><time>2026-03-29T07:12:33Z</time></trkpt><trkpt lat="43.049243469000814" lon="12.176225494160354"><ele>548.0</ele><time>2026-03-29T07:12:34Z</time></trkpt><trkpt lat="43.04921209390813" lon="12.176311250741232"><ele>548.0</ele><time>2026-03-29T07:12:35Z</time></trkpt><trkpt lat="43.04914807776679" lon="12.176381076640588"><ele>548.0</ele><time>2026-03-29T07:12:36Z</time></trkpt><trkpt lat="43.049096432890906" lon="12.17644029195128"><ele>548.0</ele><time>2026-03-29T07:12:37Z</time></trkpt><trkpt lat="43.04901971901802" lon="12.1764757513908"><ele>548.0000000000001</ele><time>2026-03-29T07:12:38Z</time></trkpt><trkpt lat="43.04895496676495" lon="12.176505962111749"><ele>548.0</ele><time>2026-03-29T07:12:39Z</time></trkpt><trkpt lat="43.04888755294366" lon="12.17652406521611"><ele>544.5</ele><time>2026-03-29T07:12:40Z</time></trkpt><trkpt lat="43.04881099787598" lon="12.176542169223644"><ele>541.0</ele><time>2026-03-29T07:12:41Z</time></trkpt><trkpt lat="43.04873012139539" lon="12.176523716610767"><ele>537.5</ele><time>2026-03-29T07:12:42Z</time></trkpt><trkpt lat="43.04859535515521" lon="12.17648095195"><ele>534.0</ele><time>2026-03-29T07:12:44Z</time></trkpt><trkpt lat="43.04852856309413" lon="12.176448875428207"><ele>530.5</ele><time>2026-03-29T07:12:45Z</time></trkpt><trkpt lat="43.048473156666695" lon="12.176401420920095"><ele>527.0</ele><time>2026-03-29T07:12:46Z</time></trkpt><trkpt lat="43.048422089745195" lon="12.176344332344433"><ele>527.0</ele><time>2026-03-29T07:12:47Z</time></trkpt><trkpt lat="43.04836464664966" lon="12.176279034858585"><ele>527.0</ele><time>2026-03-29T07:12:48Z</time></trkpt><trkpt lat="43.048304892318946" lon="12.176217322956376"><ele>527.0</ele><time>2026-03-29T07:12:49Z</time></trkpt><trkpt lat="43.04822265122576" lon="12.17612596359836"><ele>527.0</ele><time>2026-03-29T07:12:51Z</time></trkpt><trkpt lat="43.04811167532493" lon="12.176080278152597"><ele>527.0</ele><time>2026-03-29T07:12:53Z</time></trkpt><trkpt lat="43.04804238457096" lon="12.17613426511257"><ele>523.5</ele><time>2026-03-29T07:12:54Z</time></trkpt><trkpt lat="43.047986325703384" lon="12.176194755979987"><ele>520.0</ele><time>2026-03-29T07:12:55Z</time></trkpt><trkpt lat="43.04792267146418" lon="12.17622295166967"><ele>516.5</ele><time>2026-03-29T07:12:56Z</time></trkpt><trkpt lat="43.047869326550426" lon="12.17627641035901"><ele>513.0</ele><time>2026-03-29T07:12:57Z</time></trkpt><trkpt lat="43.04776571035599" lon="12.176377448055046"><ele>509.49999999999994</ele><time>2026-03-29T07:12:59Z</time></trkpt><trkpt lat="43.04772379603809" lon="12.17645825256997"><ele>506.0</ele><time>2026-03-29T07:13:00Z</time></trkpt><trkpt lat="43.047694728592035" lon="12.176550767025132"><ele>505.99999999999994</ele><time>2026-03-29T07:13:01Z</time></trkpt><trkpt lat="43.04766055401656" lon="12.176648065928175"><ele>506.0</ele><time>2026-03-29T07:13:02Z</time></trkpt><trkpt lat="43.047641167646745" lon="12.176741956094464"><ele>506.0</ele><time>2026-03-29T07:13:03Z</time></trkpt><trkpt lat="43.047625268103836" lon="12.176833333815033"><ele>506.0</ele><time>2026-03-29T07:13:04Z</time></trkpt><trkpt lat="43.047600583076864" lon="12.177014417978874"><ele>505.99999999999994</ele><time>2026-03-29T07:13:06Z</time></trkpt><trkpt lat="43.047575503420504" lon="12.177101830957392"><ele>506.0</ele><time>2026-03-29T07:13:07Z</time></trkpt><trkpt lat="43.0475595026757" lon="12.17720053458461"><ele>506.0</ele><time>2026-03-29T07:13:08Z</time></trkpt><trkpt lat="43.04746148111146" lon="12.177231236566008"><ele>506.0</ele><time>2026-03-29T07:13:09Z</time></trkpt><trkpt lat="43.04737649397928" lon="12.17730021920412"><ele>506.0</ele><time>2026-03-29T07:13:10Z</time></trkpt><trkpt lat="43.04724169481554" lon="12.177295716897087"><ele>506.0</ele><time>2026-03-29T07:13:12Z</time></trkpt><trkpt lat="43.04717507175782" lon="12.177291241345387"><ele>506.0</ele><time>2026-03-29T07:13:13Z</time></trkpt><trkpt lat="43.047107341593936" lon="12.177300345455782"><ele>503.20000000000005</ele><time>2026-03-29T07:13:14Z</time></trkpt><trkpt lat="43.047034524344426" lon="12.177374544492151"><ele>500.40000000000003</ele><time>2026-03-29T07:13:15Z</time></trkpt><trkpt lat="43.04695743685234" lon="12.177442284434436"><ele>497.6</ele><time>2026-03-29T07:13:16Z</time></trkpt><trkpt lat="43.04688312688577" lon="12.177503893397008"><ele>494.8</ele><time>2026-03-29T07:13:17Z</time></trkpt><trkpt lat="43.046816008296744" lon="12.177583773381592"><ele>492.0</ele><time>2026-03-29T07:13:18Z</time></trkpt><trkpt lat="43.04673361956803" lon="12.177647706454781"><ele>492.0</ele><time>2026-03-29T07:13:19Z</time></trkpt><trkpt lat="43.046651566805956" lon="12.177683904974117"><ele>492.0</ele><time>2026-03-29T07:13:20Z</time></trkpt><trkpt lat="43.04657266245589" lon="12.177737315477739"><ele>492.0</ele><time>2026-03-29T07:13:21Z</time></trkpt><trkpt lat="43.04650104504602" lon="12.177799877003507"><ele>492.0</ele><time>2026-03-29T07:13:22Z</time></trkpt><trkpt lat="43.046410215573964" lon="12.177838541575175"><ele>492.0</ele><time>2026-03-29T07:13:23Z</time></trkpt><trkpt lat="43.04633041741588" lon="12.177863819038613"><ele>492.0</ele><time>2026-03-29T07:13:24Z</time></trkpt><trkpt lat="43.04624275389812" lon="12.177896626998757"><ele>491.1666666666667</ele><time>2026-03-29T07:13:25Z</time></trkpt><trkpt lat="43.04616195843306" lon="12.177897304816739"><ele>490.33333333333337</ele><time>2026-03-29T07:13:26Z</time></trkpt><trkpt lat="43.04608163756528" lon="12.177925319834493"><ele>489.5</ele><time>2026-03-29T07:13:27Z</time></trkpt><trkpt lat="43.04600533157843" lon="12.177960707579745"><ele>488.6666666666667</ele><time>2026-03-29T07:13:28Z</time></trkpt><trkpt lat="43.04593643665033" lon="12.178024890836996"><ele>487.83333333333337</ele><time>2026-03-29T07:13:29Z</time></trkpt><trkpt lat="43.045876559566516" lon="12.17806384103573"><ele>487.0</ele><time>2026-03-29T07:13:30Z</time></trkpt><trkpt lat="43.04582254185332" lon="12.17811219714356"><ele>487.33333333333337</ele><time>2026-03-29T07:13:31Z</time></trkpt><trkpt lat="43.045763817517695" lon="12.178157613570702"><ele>487.6666666666667</ele><time>2026-03-29T07:13:32Z</time></trkpt><trkpt lat="43.04569117450161" lon="12.178248287701212"><ele>488.0</ele><time>2026-03-29T07:13:34Z</time></trkpt><trkpt lat="43.045621563988604" lon="12.178150749679304"><ele>488.33333333333337</ele><time>2026-03-29T07:13:35Z</time></trkpt><trkpt lat="43.04553665679876" lon="12.178176573000627"><ele>488.6666666666667</ele><time>2026-03-29T07:13:38Z</time></trkpt><trkpt lat="43.04544166331808" lon="12.178189080673345"><ele>489.0</ele><time>2026-03-29T07:13:40Z</time></trkpt><trkpt lat="43.04533879291185" lon="12.178172496830513"><ele>487.5</ele><time>2026-03-29T07:13:42Z</time></trkpt><trkpt lat="43.04523411806989" lon="12.178164863159537"><ele>486.0</ele><time>2026-03-29T07:13:44Z</time></trkpt><trkpt lat="43.0451351207759" lon="12.178154710204403"><ele>484.5</ele><time>2026-03-29T07:13:46Z</time></trkpt><trkpt lat="43.045051207224724" lon="12.178108001470482"><ele>483.0</ele><time>2026-03-29T07:13:48Z</time></trkpt><trkpt lat="43.044986725478076" lon="12.178092244694465"><ele>481.5</ele><time>2026-03-29T07:13:50Z</time></trkpt><trkpt lat="43.04492307611959" lon="12.178062082106543"><ele>480.0</ele><time>2026-03-29T07:13:52Z</time></trkpt><trkpt lat="43.04484225396263" lon="12.17804457850966"><ele>480.0</ele><time>2026-03-29T07:13:54Z</time></trkpt><trkpt lat="43.04491561114063" lon="12.178097164493318"><ele>480.0</ele><time>2026-03-29T07:14:04Z</time></trkpt><trkpt lat="43.045009775321894" lon="12.178130047648088"><ele>480.0</ele><time>2026-03-29T07:14:06Z</time></trkpt><trkpt lat="43.045100663275576" lon="12.1781568839116"><ele>480.0</ele><time>2026-03-29T07:14:08Z</time></trkpt><trkpt lat="43.04519325083127" lon="12.178198107789305"><ele>480.0</ele><time>2026-03-29T07:14:10Z</time></trkpt><trkpt lat="43.045291401917666" lon="12.178225239442773"><ele>480.0</ele><time>2026-03-29T07:14:12Z</time></trkpt><trkpt lat="43.045392194379694" lon="12.178212300355415"><ele>480.0</ele><time>2026-03-29T07:14:14Z</time></trkpt><trkpt lat="43.04548626203714" lon="12.178202330647542"><ele>480.0</ele><time>2026-03-29T07:14:16Z</time></trkpt><trkpt lat="43.045582996501885" lon="12.178191942678845"><ele>480.0</ele><time>2026-03-29T07:14:18Z</time></trkpt><trkpt lat="43.04566853282239" lon="12.178174823173066"><ele>480.0</ele><time>2026-03-29T07:14:20Z</time></trkpt><trkpt lat="43.04568654596171" lon="12.178269291871391"><ele>481.8</ele><time>2026-03-29T07:14:24Z</time></trkpt><trkpt lat="43.04562543455673" lon="12.178342466895364"><ele>483.6</ele><time>2026-03-29T07:14:26Z</time></trkpt><trkpt lat="43.04549929999545" lon="12.178393462933638"><ele>485.4</ele><time>2026-03-29T07:14:28Z</time></trkpt><trkpt lat="43.045378682024605" lon="12.178454067305749"><ele>487.2</ele><time>2026-03-29T07:14:30Z</time></trkpt><trkpt lat="43.045317026179816" lon="12.178476301757346"><ele>489.0</ele><time>2026-03-29T07:14:31Z</time></trkpt><trkpt lat="43.04525490008987" lon="12.178495341225519"><ele>489.0</ele><time>2026-03-29T07:14:32Z</time></trkpt><trkpt lat="43.04513472241678" lon="12.178560066099434"><ele>489.0</ele><time>2026-03-29T07:14:34Z</time></trkpt><trkpt lat="43.0450081294724" lon="12.17860977106987"><ele>489.0</ele><time>2026-03-29T07:14:36Z</time></trkpt><trkpt lat="43.04494529288391" lon="12.178636664261873"><ele>489.0</ele><time>2026-03-29T07:14:37Z</time></trkpt><trkpt lat="43.04484311223088" lon="12.178665402152438"><ele>489.0</ele><time>2026-03-29T07:14:39Z</time></trkpt><trkpt lat="43.04474612598518" lon="12.178712416561089"><ele>485.79999999999995</ele><time>2026-03-29T07:14:41Z</time></trkpt><trkpt lat="43.04467575521822" lon="12.178811289931362"><ele>482.59999999999997</ele><time>2026-03-29T07:14:43Z</time></trkpt><trkpt lat="43.04461292661025" lon="12.178839975369923"><ele>479.4</ele><time>2026-03-29T07:14:45Z</time></trkpt><trkpt lat="43.04451691368291" lon="12.178815094212927"><ele>476.2</ele><time>2026-03-29T07:14:47Z</time></trkpt><trkpt lat="43.04442156699071" lon="12.178860106800022"><ele>473.0</ele><time>2026-03-29T07:14:49Z</time></trkpt><trkpt lat="43.04434664135025" lon="12.178966708409048"><ele>473.25</ele><time>2026-03-29T07:14:51Z</time></trkpt><trkpt lat="43.04425072708369" lon="12.179058804475268"><ele>473.5</ele><time>2026-03-29T07:14:53Z</time></trkpt><trkpt lat="43.0441514193113" lon="12.179137425712335"><ele>473.75</ele><time>2026-03-29T07:14:55Z</time></trkpt><trkpt lat="43.04405094156288" lon="12.179216170381359"><ele>474.0</ele><time>2026-03-29T07:14:57Z</time></trkpt><trkpt lat="43.04394332580024" lon="12.179262387524128"><ele>473.99999999999994</ele><time>2026-03-29T07:14:59Z</time></trkpt><trkpt lat="43.04387854998079" lon="12.179251103466958"><ele>474.0</ele><time>2026-03-29T07:15:00Z</time></trkpt><trkpt lat="43.04380966454172" lon="12.179261861797459"><ele>473.99999999999994</ele><time>2026-03-29T07:15:01Z</time></trkpt><trkpt lat="43.04373783042954" lon="12.179283814864961"><ele>473.99999999999994</ele><time>2026-03-29T07:15:02Z</time></trkpt><trkpt lat="43.04367284898729" lon="12.179296344834055"><ele>474.0</ele><time>2026-03-29T07:15:03Z</time></trkpt><trkpt lat="43.043606614310086" lon="12.1793090487007"><ele>473.99999999999994</ele><time>2026-03-29T07:15:04Z</time></trkpt><trkpt lat="43.04354187527169" lon="12.179321309090211"><ele>473.99999999999994</ele><time>2026-03-29T07:15:05Z</time></trkpt><trkpt lat="43.04341984829506" lon="12.179335237631433"><ele>474.0</ele><time>2026-03-29T07:15:07Z</time></trkpt><trkpt lat="43.04335310337844" lon="12.179341301825902"><ele>474.0</ele><time>2026-03-29T07:15:08Z</time></trkpt><trkpt lat="43.04324386980145" lon="12.179326567036089"><ele>474.0</ele><time>2026-03-29T07:15:10Z</time></trkpt><trkpt lat="43.04315064168996" lon="12.179301596613794"><ele>474.0</ele><time>2026-03-29T07:15:12Z</time></trkpt><trkpt lat="43.043072430838095" lon="12.179273125703306"><ele>474.0</ele><time>2026-03-29T07:15:14Z</time></trkpt><trkpt lat="43.04297678919581" lon="12.179245477379645"><ele>471.0</ele><time>2026-03-29T07:15:18Z</time></trkpt><trkpt lat="43.04288180485319" lon="12.179246654487923"><ele>468.0</ele><time>2026-03-29T07:15:20Z</time></trkpt><trkpt lat="43.042795804802836" lon="12.17924135037743"><ele>465.0</ele><time>2026-03-29T07:15:22Z</time></trkpt><trkpt lat="43.042720592044205" lon="12.179235891238402"><ele>462.0</ele><time>2026-03-29T07:15:24Z</time></trkpt><trkpt lat="43.042605585961056" lon="12.179240666526445"><ele>459.0</ele><time>2026-03-29T07:15:26Z</time></trkpt><trkpt lat="43.04250800818145" lon="12.17984667155198"><ele>456.5</ele><time>2026-03-29T07:15:27Z</time></trkpt><trkpt lat="43.04246069089128" lon="12.179909740740056"><ele>454.0</ele><time>2026-03-29T07:15:28Z</time></trkpt><trkpt lat="43.04239836283384" lon="12.179997928054942"><ele>451.5</ele><time>2026-03-29T07:15:29Z</time></trkpt><trkpt lat="43.04233373871682" lon="12.180087582249385"><ele>449.0</ele><time>2026-03-29T07:15:30Z</time></trkpt><trkpt lat="43.042268522014844" lon="12.180163842667966"><ele>446.5</ele><time>2026-03-29T07:15:31Z</time></trkpt><trkpt lat="43.042200820879174" lon="12.180223073392886"><ele>444.0</ele><time>2026-03-29T07:15:32Z</time></trkpt><trkpt lat="43.042137591016065" lon="12.180284643816764"><ele>444.0</ele><time>2026-03-29T07:15:33Z</time></trkpt><trkpt lat="43.04208342263752" lon="12.180346478756533"><ele>444.0</ele><time>2026-03-29T07:15:34Z</time></trkpt><trkpt lat="43.04204185763588" lon="12.180417416306424"><ele>444.0</ele><time>2026-03-29T07:15:35Z</time></trkpt><trkpt lat="43.041968525064725" lon="12.180492180113449"><ele>444.0</ele><time>2026-03-29T07:15:36Z</time></trkpt><trkpt lat="43.041928262755775" lon="12.180568383406062"><ele>444.0</ele><time>2026-03-29T07:15:37Z</time></trkpt><trkpt lat="43.04189572385784" lon="12.180643968681062"><ele>444.0</ele><time>2026-03-29T07:15:38Z</time></trkpt><trkpt lat="43.041898117882425" lon="12.180816339910542"><ele>444.1666666666667</ele><time>2026-03-29T07:15:40Z</time></trkpt><trkpt lat="43.0419149613543" lon="12.180912048338955"><ele>444.33333333333337</ele><time>2026-03-29T07:15:41Z</time></trkpt><trkpt lat="43.04194365416189" lon="12.181006630423628"><ele>444.5</ele><time>2026-03-29T07:15:42Z</time></trkpt><trkpt lat="43.04197495416975" lon="12.181100946767067"><ele>444.6666666666667</ele><time>2026-03-29T07:15:43Z</time></trkpt><trkpt lat="43.04202238180615" lon="12.181181759140369"><ele>444.83333333333337</ele><time>2026-03-29T07:15:44Z</time></trkpt><trkpt lat="43.042067320809544" lon="12.181261882179053"><ele>445.0</ele><time>2026-03-29T07:15:45Z</time></trkpt><trkpt lat="43.042123497657926" lon="12.18134048535109"><ele>445.00000000000006</ele><time>2026-03-29T07:15:46Z</time></trkpt><trkpt lat="43.04216773717803" lon="12.181424147292836"><ele>445.0</ele><time>2026-03-29T07:15:47Z</time></trkpt><trkpt lat="43.04220849416379" lon="12.181518185128608"><ele>445.0</ele><time>2026-03-29T07:15:48Z</time></trkpt><trkpt lat="43.04223867095458" lon="12.181630478059366"><ele>445.0</ele><time>2026-03-29T07:15:50Z</time></trkpt><trkpt lat="43.04221812133399" lon="12.181739454912668"><ele>445.00000000000006</ele><time>2026-03-29T07:15:51Z</time></trkpt><trkpt lat="43.04222045977032" lon="12.181837691239718"><ele>445.0</ele><time>2026-03-29T07:15:52Z</time></trkpt><trkpt lat="43.0421948232166" lon="12.181937117043608"><ele>443.1666666666667</ele><time>2026-03-29T07:15:53Z</time></trkpt><trkpt lat="43.04219253661598" lon="12.182045523029089"><ele>441.33333333333337</ele><time>2026-03-29T07:15:54Z</time></trkpt><trkpt lat="43.04217834250071" lon="12.182181389868648"><ele>439.5</ele><time>2026-03-29T07:15:56Z</time></trkpt><trkpt lat="43.04214070675814" lon="12.18226614164163"><ele>437.66666666666663</ele><time>2026-03-29T07:15:57Z</time></trkpt><trkpt lat="43.042086735546285" lon="12.182340395659592"><ele>435.8333333333333</ele><time>2026-03-29T07:15:58Z</time></trkpt><trkpt lat="43.04204979872499" lon="12.182410211822196"><ele>434.0</ele><time>2026-03-29T07:15:59Z</time></trkpt><trkpt lat="43.04197927472594" lon="12.182492302243801"><ele>434.0</ele><time>2026-03-29T07:16:01Z</time></trkpt><trkpt lat="43.04193999017733" lon="12.182612520565435"><ele>434.0</ele><time>2026-03-29T07:16:03Z</time></trkpt><trkpt lat="43.041918078784185" lon="12.1827678279678"><ele>434.0</ele><time>2026-03-29T07:16:05Z</time></trkpt><trkpt lat="43.04187693509016" lon="12.182854030981439"><ele>434.0</ele><time>2026-03-29T07:16:09Z</time></trkpt><trkpt lat="43.04181281768228" lon="12.182956508904633"><ele>434.0</ele><time>2026-03-29T07:16:12Z</time></trkpt><trkpt lat="43.04176648293809" lon="12.183086100733949"><ele>433.99999999999994</ele><time>2026-03-29T07:16:14Z</time></trkpt><trkpt lat="43.041715413627166" lon="12.183146094308656"><ele>434.0</ele><time>2026-03-29T07:16:16Z</time></trkpt><trkpt lat="43.04168628994855" lon="12.183255589754058"><ele>434.0</ele><time>2026-03-29T07:16:19Z</time></trkpt><trkpt lat="43.04166418837227" lon="12.183361444523705"><ele>434.0</ele><time>2026-03-29T07:16:22Z</time></trkpt><trkpt lat="43.041626479141705" lon="12.18348165457199"><ele>433.99999999999994</ele><time>2026-03-29T07:16:24Z</time></trkpt><trkpt lat="43.041591476091064" lon="12.183594986910155"><ele>434.0</ele><time>2026-03-29T07:16:26Z</time></trkpt><trkpt lat="43.041556558013234" lon="12.183719360821327"><ele>434.4</ele><time>2026-03-29T07:16:28Z</time></trkpt><trkpt lat="43.04150964767244" lon="12.183834470676452"><ele>434.79999999999995</ele><time>2026-03-29T07:17:07Z</time></trkpt><trkpt lat="43.041501184608734" lon="12.18397845435627"><ele>435.20000000000005</ele><time>2026-03-29T07:17:17Z</time></trkpt><trkpt lat="43.04144810283919" lon="12.184042209375828"><ele>435.6</ele><time>2026-03-29T07:17:18Z</time></trkpt><trkpt lat="43.04130790312836" lon="12.184109164252762"><ele>436.0</ele><time>2026-03-29T07:17:20Z</time></trkpt><trkpt lat="43.041165764774576" lon="12.184101596278008"><ele>436.0</ele><time>2026-03-29T07:17:22Z</time></trkpt><trkpt lat="43.04107936849092" lon="12.184117519277505"><ele>436.0</ele><time>2026-03-29T07:17:23Z</time></trkpt><trkpt lat="43.04096332259708" lon="12.184145400914508"><ele>436.0</ele><time>2026-03-29T07:17:24Z</time></trkpt><trkpt lat="43.04083076181297" lon="12.18418516799924"><ele>436.0</ele><time>2026-03-29T07:17:25Z</time></trkpt><trkpt lat="43.04071722707237" lon="12.184218139492792"><ele>435.8</ele><time>2026-03-29T07:17:26Z</time></trkpt><trkpt lat="43.04061639495345" lon="12.184248212498497"><ele>435.6</ele><time>2026-03-29T07:17:27Z</time></trkpt><trkpt lat="43.040524330774765" lon="12.1842756298532"><ele>435.4</ele><time>2026-03-29T07:17:28Z</time></trkpt><trkpt lat="43.040452023585345" lon="12.184295452989623"><ele>435.2</ele><time>2026-03-29T07:17:29Z</time></trkpt><trkpt lat="43.04038458139216" lon="12.184316491083559"><ele>435.0</ele><time>2026-03-29T07:17:30Z</time></trkpt><trkpt lat="43.04026583722496" lon="12.184380171597157"><ele>435.0</ele><time>2026-03-29T07:17:32Z</time></trkpt><trkpt lat="43.04017701041565" lon="12.184439910627308"><ele>435.0</ele><time>2026-03-29T07:17:33Z</time></trkpt><trkpt lat="43.04009993941212" lon="12.184459293996326"><ele>435.0</ele><time>2026-03-29T07:17:34Z</time></trkpt><trkpt lat="43.040027727831195" lon="12.18447357505919"><ele>435.0</ele><time>2026-03-29T07:17:35Z</time></trkpt><trkpt lat="43.03995475730647" lon="12.184499404661386"><ele>435.0</ele><time>2026-03-29T07:17:36Z</time></trkpt><trkpt lat="43.03982246247784" lon="12.184511156989693"><ele>433.8333333333333</ele><time>2026-03-29T07:17:38Z</time></trkpt><trkpt lat="43.03975420237098" lon="12.184523713356214"><ele>432.66666666666663</ele><time>2026-03-29T07:17:39Z</time></trkpt><trkpt lat="43.039690034347274" lon="12.184543677124283"><ele>431.5</ele><time>2026-03-29T07:17:40Z</time></trkpt><trkpt lat="43.03961983073567" lon="12.184591290987695"><ele>430.3333333333333</ele><time>2026-03-29T07:17:41Z</time></trkpt><trkpt lat="43.03953510136664" lon="12.184668060753564"><ele>429.16666666666663</ele><time>2026-03-29T07:17:42Z</time></trkpt><trkpt lat="43.03945343376297" lon="12.184751116147671"><ele>428.0</ele><time>2026-03-29T07:17:43Z</time></trkpt><trkpt lat="43.039366028831" lon="12.184818305649596"><ele>429.59999999999997</ele><time>2026-03-29T07:17:44Z</time></trkpt><trkpt lat="43.0392797851977" lon="12.184866450462383"><ele>431.19999999999993</ele><time>2026-03-29T07:17:45Z</time></trkpt><trkpt lat="43.03918880281216" lon="12.1848899871719"><ele>432.8</ele><time>2026-03-29T07:17:46Z</time></trkpt><trkpt lat="43.03909103622865" lon="12.184904404728815"><ele>434.4</ele><time>2026-03-29T07:17:47Z</time></trkpt><trkpt lat="43.0389856078667" lon="12.184945105571497"><ele>436.0</ele><time>2026-03-29T07:17:48Z</time></trkpt><trkpt lat="43.03890168380639" lon="12.184968966213944"><ele>436.33333333333337</ele><time>2026-03-29T07:17:49Z</time></trkpt><trkpt lat="43.038815038997946" lon="12.18499054800057"><ele>436.6666666666667</ele><time>2026-03-29T07:17:50Z</time></trkpt><trkpt lat="43.03873419904453" lon="12.185013214012963"><ele>437.0</ele><time>2026-03-29T07:17:51Z</time></trkpt><trkpt lat="43.038658729215015" lon="12.185032208112306"><ele>437.33333333333337</ele><time>2026-03-29T07:17:52Z</time></trkpt><trkpt lat="43.03857357766338" lon="12.18504294245588"><ele>437.6666666666667</ele><time>2026-03-29T07:17:53Z</time></trkpt><trkpt lat="43.03848741331682" lon="12.185031715324143"><ele>438.0</ele><time>2026-03-29T07:17:54Z</time></trkpt><trkpt lat="43.03839859189376" lon="12.185040062769414"><ele>438.0</ele><time>2026-03-29T07:17:55Z</time></trkpt><trkpt lat="43.038306468159384" lon="12.18504014560455"><ele>438.0</ele><time>2026-03-29T07:17:56Z</time></trkpt><trkpt lat="43.03822657252611" lon="12.185035956202157"><ele>438.0</ele><time>2026-03-29T07:17:57Z</time></trkpt><trkpt lat="43.03813573506281" lon="12.185035758506803"><ele>438.0</ele><time>2026-03-29T07:17:58Z</time></trkpt><trkpt lat="43.03805599221007" lon="12.185048340094593"><ele>438.0</ele><time>2026-03-29T07:17:59Z</time></trkpt><trkpt lat="43.037977876198184" lon="12.185081642731113"><ele>438.0</ele><time>2026-03-29T07:18:00Z</time></trkpt><trkpt lat="43.037897838547735" lon="12.185116983940878"><ele>437.6666666666667</ele><time>2026-03-29T07:18:01Z</time></trkpt><trkpt lat="43.037815775574536" lon="12.18514646222028"><ele>437.33333333333337</ele><time>2026-03-29T07:18:02Z</time></trkpt><trkpt lat="43.03773615133435" lon="12.185175941637988"><ele>437.0</ele><time>2026-03-29T07:18:03Z</time></trkpt><trkpt lat="43.03766182149928" lon="12.185186178933433"><ele>436.6666666666667</ele><time>2026-03-29T07:18:04Z</time></trkpt><trkpt lat="43.03758515080421" lon="12.185204033852395"><ele>436.33333333333337</ele><time>2026-03-29T07:18:05Z</time></trkpt><trkpt lat="43.03750528508455" lon="12.18523469060903"><ele>436.0</ele><time>2026-03-29T07:18:06Z</time></trkpt><trkpt lat="43.0374280758501" lon="12.18527378984734"><ele>434.83333333333337</ele><time>2026-03-29T07:18:07Z</time></trkpt><trkpt lat="43.03733841513877" lon="12.185299767182187"><ele>433.6666666666667</ele><time>2026-03-29T07:18:08Z</time></trkpt><trkpt lat="43.037252085600464" lon="12.185314924028075"><ele>432.5</ele><time>2026-03-29T07:18:09Z</time></trkpt><trkpt lat="43.03716335342706" lon="12.185337381901117"><ele>431.33333333333337</ele><time>2026-03-29T07:18:10Z</time></trkpt><trkpt lat="43.03709087739244" lon="12.185367027059925"><ele>430.1666666666667</ele><time>2026-03-29T07:18:11Z</time></trkpt><trkpt lat="43.03701262665678" lon="12.18539418506209"><ele>429.0</ele><time>2026-03-29T07:18:12Z</time></trkpt><trkpt lat="43.03693776906129" lon="12.185428701085568"><ele>429.0</ele><time>2026-03-29T07:18:13Z</time></trkpt><trkpt lat="43.03686184457097" lon="12.185465247119195"><ele>429.0</ele><time>2026-03-29T07:18:14Z</time></trkpt><trkpt lat="43.03678084274728" lon="12.185498819826487"><ele>429.0</ele><time>2026-03-29T07:18:15Z</time></trkpt><trkpt lat="43.03669978019436" lon="12.18552447147884"><ele>429.0</ele><time>2026-03-29T07:18:16Z</time></trkpt><trkpt lat="43.03661886616532" lon="12.18552984859562"><ele>429.0</ele><time>2026-03-29T07:18:17Z</time></trkpt><trkpt lat="43.036547431755295" lon="12.185545409521861"><ele>429.0</ele><time>2026-03-29T07:18:18Z</time></trkpt><trkpt lat="43.036483779550494" lon="12.185561515037858"><ele>429.0</ele><time>2026-03-29T07:18:19Z</time></trkpt><trkpt lat="43.03636666062285" lon="12.185563134877324"><ele>429.0</ele><time>2026-03-29T07:18:21Z</time></trkpt><trkpt lat="43.03629601860599" lon="12.18556115751796"><ele>429.0</ele><time>2026-03-29T07:18:22Z</time></trkpt><trkpt lat="43.03623444698933" lon="12.185589740567945"><ele>429.0</ele><time>2026-03-29T07:18:23Z</time></trkpt><trkpt lat="43.03612447727563" lon="12.185685531882037"><ele>429.0</ele><time>2026-03-29T07:18:25Z</time></trkpt><trkpt lat="43.03606326820799" lon="12.185764711881864"><ele>429.0</ele><time>2026-03-29T07:18:26Z</time></trkpt><trkpt lat="43.03599473823836" lon="12.185814567363506"><ele>429.0</ele><time>2026-03-29T07:18:27Z</time></trkpt><trkpt lat="43.03593048715924" lon="12.185872015601657"><ele>429.0</ele><time>2026-03-29T07:18:28Z</time></trkpt><trkpt lat="43.03587510049709" lon="12.185924527683358"><ele>429.0</ele><time>2026-03-29T07:18:29Z</time></trkpt><trkpt lat="43.03581674868481" lon="12.185964297461762"><ele>429.0</ele><time>2026-03-29T07:18:30Z</time></trkpt><trkpt lat="43.03573855124589" lon="12.185992191395709"><ele>429.0</ele><time>2026-03-29T07:18:31Z</time></trkpt><trkpt lat="43.03567031393746" lon="12.18603042452521"><ele>429.0</ele><time>2026-03-29T07:18:32Z</time></trkpt><trkpt lat="43.03560132085884" lon="12.186089385159285"><ele>427.3333333333333</ele><time>2026-03-29T07:18:33Z</time></trkpt><trkpt lat="43.03553338479168" lon="12.186154904916364"><ele>425.66666666666663</ele><time>2026-03-29T07:18:34Z</time></trkpt><trkpt lat="43.03547908066307" lon="12.186239256510614"><ele>424.0</ele><time>2026-03-29T07:18:35Z</time></trkpt><trkpt lat="43.035437962867285" lon="12.186332995680187"><ele>422.3333333333333</ele><time>2026-03-29T07:18:36Z</time></trkpt><trkpt lat="43.035381980648374" lon="12.186408546761836"><ele>420.66666666666663</ele><time>2026-03-29T07:18:37Z</time></trkpt><trkpt lat="43.035335781053185" lon="12.186482490587572"><ele>419.0</ele><time>2026-03-29T07:18:38Z</time></trkpt><trkpt lat="43.035256804143835" lon="12.186551514962021"><ele>419.0</ele><time>2026-03-29T07:18:40Z</time></trkpt><trkpt lat="43.03517238945445" lon="12.18657583646953"><ele>419.0</ele><time>2026-03-29T07:18:44Z</time></trkpt><trkpt lat="43.03509801783022" lon="12.186576241318996"><ele>419.0</ele><time>2026-03-29T07:18:48Z</time></trkpt><trkpt lat="43.03500409598565" lon="12.186613736994893"><ele>419.0</ele><time>2026-03-29T07:18:52Z</time></trkpt><trkpt lat="43.034876778738195" lon="12.186667576990338"><ele>419.0</ele><time>2026-03-29T07:18:54Z</time></trkpt><trkpt lat="43.0348116181976" lon="12.186700115171945"><ele>420.75</ele><time>2026-03-29T07:18:55Z</time></trkpt><trkpt lat="43.034700628502804" lon="12.186713076777856"><ele>422.5</ele><time>2026-03-29T07:18:57Z</time></trkpt><trkpt lat="43.034583146388876" lon="12.186691996225973"><ele>424.25</ele><time>2026-03-29T07:18:59Z</time></trkpt><trkpt lat="43.03446289093271" lon="12.186680156583472"><ele>426.0</ele><time>2026-03-29T07:19:01Z</time></trkpt><trkpt lat="43.034357659406766" lon="12.186596853751295"><ele>425.99999999999994</ele><time>2026-03-29T07:19:03Z</time></trkpt><trkpt lat="43.03427372742505" lon="12.186561186673421"><ele>426.0</ele><time>2026-03-29T07:19:04Z</time></trkpt><trkpt lat="43.03420320597181" lon="12.186525350607585"><ele>426.0</ele><time>2026-03-29T07:19:05Z</time></trkpt><trkpt lat="43.0341389663195" lon="12.18651212447407"><ele>426.0</ele><time>2026-03-29T07:19:06Z</time></trkpt><trkpt lat="43.034076556127275" lon="12.186531360661087"><ele>426.0</ele><time>2026-03-29T07:19:07Z</time></trkpt><trkpt lat="43.034005748666566" lon="12.186592925149974"><ele>425.99999999999994</ele><time>2026-03-29T07:19:08Z</time></trkpt><trkpt lat="43.03395715573597" lon="12.186651658183807"><ele>426.0</ele><time>2026-03-29T07:19:09Z</time></trkpt><trkpt lat="43.033859715737556" lon="12.186706549761256"><ele>425.1666666666667</ele><time>2026-03-29T07:19:11Z</time></trkpt><trkpt lat="43.0337653872144" lon="12.186772002307906"><ele>424.33333333333337</ele><time>2026-03-29T07:19:13Z</time></trkpt><trkpt lat="43.03365579850139" lon="12.186826309242734"><ele>423.5</ele><time>2026-03-29T07:19:15Z</time></trkpt><trkpt lat="43.03359108707643" lon="12.186858763105727"><ele>422.6666666666667</ele><time>2026-03-29T07:19:16Z</time></trkpt><trkpt lat="43.033520358094776" lon="12.186868083842263"><ele>421.83333333333337</ele><time>2026-03-29T07:19:17Z</time></trkpt><trkpt lat="43.03345788538578" lon="12.186897065869434"><ele>421.0</ele><time>2026-03-29T07:19:18Z</time></trkpt><trkpt lat="43.03337872370415" lon="12.186928725692557"><ele>419.00000000000006</ele><time>2026-03-29T07:19:19Z</time></trkpt><trkpt lat="43.03326221641503" lon="12.186976673743832"><ele>417.0</ele><time>2026-03-29T07:19:21Z</time></trkpt><trkpt lat="43.03322265802323" lon="12.187113457502956"><ele>415.0</ele><time>2026-03-29T07:19:23Z</time></trkpt><trkpt lat="43.03320747429545" lon="12.18720518729691"><ele>413.0</ele><time>2026-03-29T07:19:24Z</time></trkpt><trkpt lat="43.03317134337613" lon="12.187280479354017"><ele>411.00000000000006</ele><time>2026-03-29T07:19:25Z</time></trkpt><trkpt lat="43.03312183543857" lon="12.187336222315968"><ele>409.0</ele><time>2026-03-29T07:19:26Z</time></trkpt><trkpt lat="43.033067612490605" lon="12.18738187532451"><ele>409.0</ele><time>2026-03-29T07:19:27Z</time></trkpt><trkpt lat="43.03301065882372" lon="12.187521596195793"><ele>409.0</ele><time>2026-03-29T07:19:29Z</time></trkpt><trkpt lat="43.03299580743126" lon="12.187610626533921"><ele>409.0</ele><time>2026-03-29T07:19:30Z</time></trkpt><trkpt lat="43.03293222170756" lon="12.187744985133229"><ele>409.0</ele><time>2026-03-29T07:19:32Z</time></trkpt><trkpt lat="43.03284276363959" lon="12.187831925486542"><ele>409.0</ele><time>2026-03-29T07:19:34Z</time></trkpt><trkpt lat="43.032779848632096" lon="12.187865394299692"><ele>409.0</ele><time>2026-03-29T07:19:35Z</time></trkpt><trkpt lat="43.03266019202224" lon="12.18780847146521"><ele>409.0</ele><time>2026-03-29T07:19:37Z</time></trkpt><trkpt lat="43.032590530814595" lon="12.187740462722545"><ele>409.0</ele><time>2026-03-29T07:19:38Z</time></trkpt><trkpt lat="43.03253470104026" lon="12.187674517121248"><ele>409.0</ele><time>2026-03-29T07:19:39Z</time></trkpt><trkpt lat="43.032483701939654" lon="12.187619911382319"><ele>409.0</ele><time>2026-03-29T07:19:40Z</time></trkpt><trkpt lat="43.0323861665311" lon="12.187548229836459"><ele>405.6666666666667</ele><time>2026-03-29T07:19:42Z</time></trkpt><trkpt lat="43.03230005915417" lon="12.187583548409593"><ele>402.33333333333337</ele><time>2026-03-29T07:19:44Z</time></trkpt><trkpt lat="43.03227861888426" lon="12.187710454202056"><ele>399.0</ele><time>2026-03-29T07:19:46Z</time></trkpt><trkpt lat="43.03226659035606" lon="12.187797138325765"><ele>395.66666666666663</ele><time>2026-03-29T07:19:47Z</time></trkpt><trkpt lat="43.03224200678408" lon="12.187892088729896"><ele>392.3333333333333</ele><time>2026-03-29T07:19:48Z</time></trkpt><trkpt lat="43.03218083440489" lon="12.18786542534224"><ele>389.0</ele><time>2026-03-29T07:19:49Z</time></trkpt><trkpt lat="43.03209721375391" lon="12.187928322812166"><ele>388.99999999999994</ele><time>2026-03-29T07:19:50Z</time></trkpt><trkpt lat="43.03203018473754" lon="12.18801976570275"><ele>389.0</ele><time>2026-03-29T07:19:51Z</time></trkpt><trkpt lat="43.0319441357961" lon="12.188093961853445"><ele>389.0</ele><time>2026-03-29T07:19:52Z</time></trkpt><trkpt lat="43.03186246501999" lon="12.188140711650028"><ele>389.0</ele><time>2026-03-29T07:19:53Z</time></trkpt><trkpt lat="43.03178028065489" lon="12.1881731443586"><ele>388.99999999999994</ele><time>2026-03-29T07:19:54Z</time></trkpt><trkpt lat="43.03170290898417" lon="12.188173494837256"><ele>389.0</ele><time>2026-03-29T07:19:55Z</time></trkpt><trkpt lat="43.03161230690566" lon="12.188152596399815"><ele>388.16666666666663</ele><time>2026-03-29T07:19:56Z</time></trkpt><trkpt lat="43.03152003453242" lon="12.188117178770808"><ele>387.3333333333333</ele><time>2026-03-29T07:19:57Z</time></trkpt><trkpt lat="43.03142808914382" lon="12.188107354578925"><ele>386.5</ele><time>2026-03-29T07:19:58Z</time></trkpt><trkpt lat="43.03134993623908" lon="12.18810571999252"><ele>385.66666666666663</ele><time>2026-03-29T07:19:59Z</time></trkpt><trkpt lat="43.03128007655433" lon="12.18810802643918"><ele>384.8333333333333</ele><time>2026-03-29T07:20:00Z</time></trkpt><trkpt lat="43.03121244952502" lon="12.18810461238996"><ele>384.0</ele><time>2026-03-29T07:20:01Z</time></trkpt><trkpt lat="43.03110869723122" lon="12.188075520040297"><ele>384.0</ele><time>2026-03-29T07:20:03Z</time></trkpt><trkpt lat="43.03103149341475" lon="12.188008738937132"><ele>384.0</ele><time>2026-03-29T07:20:05Z</time></trkpt><trkpt lat="43.03095743607503" lon="12.187973258155452"><ele>384.0</ele><time>2026-03-29T07:20:07Z</time></trkpt><trkpt lat="43.03089773362043" lon="12.187943621588255"><ele>384.0</ele><time>2026-03-29T07:20:09Z</time></trkpt><trkpt lat="43.03085707999457" lon="12.187870274824675"><ele>384.0</ele><time>2026-03-29T07:20:21Z</time></trkpt><trkpt lat="43.030796297240805" lon="12.187718456266772"><ele>384.0</ele><time>2026-03-29T07:20:23Z</time></trkpt><trkpt lat="43.030772380676495" lon="12.187589745427944"><ele>383.5</ele><time>2026-03-29T07:20:24Z</time></trkpt><trkpt lat="43.030728256487606" lon="12.18748223168161"><ele>383.0</ele><time>2026-03-29T07:20:25Z</time></trkpt><trkpt lat="43.03066521974052" lon="12.187373446776142"><ele>382.5</ele><time>2026-03-29T07:20:26Z</time></trkpt><trkpt lat="43.03061792340936" lon="12.187296794828368"><ele>382.0</ele><time>2026-03-29T07:20:27Z</time></trkpt><trkpt lat="43.030564191346805" lon="12.187218160227276"><ele>381.5</ele><time>2026-03-29T07:20:28Z</time></trkpt><trkpt lat="43.03049490087363" lon="12.187132866308358"><ele>381.0</ele><time>2026-03-29T07:20:29Z</time></trkpt><trkpt lat="43.03039997763436" lon="12.18706080733972"><ele>379.57142857142856</ele><time>2026-03-29T07:20:30Z</time></trkpt><trkpt lat="43.030315108040874" lon="12.186999335503998"><ele>378.14285714285717</ele><time>2026-03-29T07:20:31Z</time></trkpt><trkpt lat="43.03025971764525" lon="12.186957450245549"><ele>376.7142857142857</ele><time>2026-03-29T07:20:32Z</time></trkpt><trkpt lat="43.03020168073077" lon="12.18690455166665"><ele>375.2857142857143</ele><time>2026-03-29T07:20:33Z</time></trkpt><trkpt lat="43.030144099557376" lon="12.186845794274126"><ele>373.8571428571429</ele><time>2026-03-29T07:20:34Z</time></trkpt><trkpt lat="43.03009016919664" lon="12.186782548030285"><ele>372.42857142857144</ele><time>2026-03-29T07:20:35Z</time></trkpt><trkpt lat="43.03003963582508" lon="12.186705833955816"><ele>371.0</ele><time>2026-03-29T07:20:36Z</time></trkpt><trkpt lat="43.029993433428054" lon="12.18663678753167"><ele>368.33333333333337</ele><time>2026-03-29T07:20:37Z</time></trkpt><trkpt lat="43.029930305091504" lon="12.186568841379902"><ele>365.6666666666667</ele><time>2026-03-29T07:20:38Z</time></trkpt><trkpt lat="43.02985714759443" lon="12.18653918027407"><ele>363.0</ele><time>2026-03-29T07:20:39Z</time></trkpt><trkpt lat="43.02978051646242" lon="12.186544503123198"><ele>360.3333333333333</ele><time>2026-03-29T07:20:40Z</time></trkpt><trkpt lat="43.0297067679744" lon="12.18654152619448"><ele>357.66666666666663</ele><time>2026-03-29T07:20:41Z</time></trkpt><trkpt lat="43.029689869237146" lon="12.186404058073919"><ele>355.0</ele><time>2026-03-29T07:20:43Z</time></trkpt><trkpt lat="43.02963808542533" lon="12.186309423214915"><ele>354.0</ele><time>2026-03-29T07:20:45Z</time></trkpt><trkpt lat="43.02957139559894" lon="12.186188924199428"><ele>353.0</ele><time>2026-03-29T07:20:47Z</time></trkpt><trkpt lat="43.02953919900699" lon="12.1860694586295"><ele>352.0</ele><time>2026-03-29T07:20:49Z</time></trkpt><trkpt lat="43.02948876267632" lon="12.185955155400137"><ele>351.0</ele><time>2026-03-29T07:20:51Z</time></trkpt><trkpt lat="43.02942783920071" lon="12.185859490029818"><ele>350.0</ele><time>2026-03-29T07:20:53Z</time></trkpt><trkpt lat="43.02936046615733" lon="12.18576213710458"><ele>350.0</ele><time>2026-03-29T07:20:55Z</time></trkpt><trkpt lat="43.02934149652239" lon="12.185679780016521"><ele>350.0</ele><time>2026-03-29T07:20:56Z</time></trkpt><trkpt lat="43.02926301109626" lon="12.185564124716144"><ele>350.0</ele><time>2026-03-29T07:20:58Z</time></trkpt><trkpt lat="43.02923452980326" lon="12.185469771639472"><ele>350.0</ele><time>2026-03-29T07:20:59Z</time></trkpt><trkpt lat="43.02919538120745" lon="12.185386029692994"><ele>350.0</ele><time>2026-03-29T07:21:00Z</time></trkpt><trkpt lat="43.02915996431866" lon="12.185306769198306"><ele>350.0</ele><time>2026-03-29T07:21:01Z</time></trkpt><trkpt lat="43.0291261168712" lon="12.185228841360491"><ele>345.2</ele><time>2026-03-29T07:21:02Z</time></trkpt><trkpt lat="43.02906764637543" lon="12.185085615480265"><ele>340.4</ele><time>2026-03-29T07:21:04Z</time></trkpt><trkpt lat="43.029006768338895" lon="12.184944169548062"><ele>335.6</ele><time>2026-03-29T07:21:06Z</time></trkpt><trkpt lat="43.028927955551744" lon="12.18480850465422"><ele>330.8</ele><time>2026-03-29T07:21:08Z</time></trkpt><trkpt lat="43.028874951612394" lon="12.184759777600053"><ele>326.0</ele><time>2026-03-29T07:21:09Z</time></trkpt><trkpt lat="43.02879150612689" lon="12.184764337885785"><ele>324.40000000000003</ele><time>2026-03-29T07:21:10Z</time></trkpt><trkpt lat="43.0286823152302" lon="12.184701294537156"><ele>322.8</ele><time>2026-03-29T07:21:12Z</time></trkpt><trkpt lat="43.02856815416205" lon="12.184642664552902"><ele>321.20000000000005</ele><time>2026-03-29T07:21:14Z</time></trkpt><trkpt lat="43.02847530505085" lon="12.184604855882682"><ele>319.6</ele><time>2026-03-29T07:21:16Z</time></trkpt><trkpt lat="43.0283783893229" lon="12.184585210065027"><ele>318.0</ele><time>2026-03-29T07:21:18Z</time></trkpt><trkpt lat="43.02831137990698" lon="12.1845728008354"><ele>316.0</ele><time>2026-03-29T07:21:19Z</time></trkpt><trkpt lat="43.02826286084797" lon="12.184648737103908"><ele>314.0</ele><time>2026-03-29T07:21:20Z</time></trkpt><trkpt lat="43.028198620037195" lon="12.18444935572576"><ele>312.0</ele><time>2026-03-29T07:21:21Z</time></trkpt><trkpt lat="43.028144190352975" lon="12.184392366003184"><ele>310.0</ele><time>2026-03-29T07:21:22Z</time></trkpt><trkpt lat="43.02809099136055" lon="12.184324483180717"><ele>308.0</ele><time>2026-03-29T07:21:23Z</time></trkpt><trkpt lat="43.028032713488365" lon="12.184264107147426"><ele>306.0</ele><time>2026-03-29T07:21:24Z</time></trkpt><trkpt lat="43.02797769616426" lon="12.184199854707321"><ele>306.0</ele><time>2026-03-29T07:21:25Z</time></trkpt><trkpt lat="43.027920831354386" lon="12.184127728152426"><ele>306.0</ele><time>2026-03-29T07:21:26Z</time></trkpt><trkpt lat="43.02786733542699" lon="12.18405861484726"><ele>306.0</ele><time>2026-03-29T07:21:27Z</time></trkpt><trkpt lat="43.02782003968751" lon="12.183999650878462"><ele>306.0</ele><time>2026-03-29T07:21:28Z</time></trkpt><trkpt lat="43.02776898979089" lon="12.1839257326869"><ele>306.0</ele><time>2026-03-29T07:21:29Z</time></trkpt><trkpt lat="43.027721019134475" lon="12.183844883852851"><ele>306.0</ele><time>2026-03-29T07:21:30Z</time></trkpt><trkpt lat="43.02766553507042" lon="12.183783028710042"><ele>306.0</ele><time>2026-03-29T07:21:31Z</time></trkpt><trkpt lat="43.027610952896865" lon="12.183720490578288"><ele>305.0</ele><time>2026-03-29T07:21:32Z</time></trkpt><trkpt lat="43.02754386930062" lon="12.183671382077245"><ele>304.0</ele><time>2026-03-29T07:21:33Z</time></trkpt><trkpt lat="43.02749095241467" lon="12.183613104558285"><ele>303.0</ele><time>2026-03-29T07:21:34Z</time></trkpt><trkpt lat="43.02743988859375" lon="12.183553032989403"><ele>302.0</ele><time>2026-03-29T07:21:35Z</time></trkpt><trkpt lat="43.02738270572981" lon="12.183481724935525"><ele>301.0</ele><time>2026-03-29T07:21:36Z</time></trkpt><trkpt lat="43.02728883247491" lon="12.18338978465749"><ele>300.0</ele><time>2026-03-29T07:21:38Z</time></trkpt><trkpt lat="43.02726194495708" lon="12.183261159197578"><ele>297.5</ele><time>2026-03-29T07:21:40Z</time></trkpt><trkpt lat="43.02727292923172" lon="12.183173460190568"><ele>295.0</ele><time>2026-03-29T07:21:41Z</time></trkpt><trkpt lat="43.02728156215168" lon="12.183086669348254"><ele>292.5</ele><time>2026-03-29T07:21:42Z</time></trkpt><trkpt lat="43.02730675465213" lon="12.182997459119276"><ele>290.0</ele><time>2026-03-29T07:21:43Z</time></trkpt><trkpt lat="43.02731382809432" lon="12.182869975478571"><ele>287.5</ele><time>2026-03-29T07:21:45Z</time></trkpt><trkpt lat="43.02723812527019" lon="12.18288369691592"><ele>285.0</ele><time>2026-03-29T07:21:48Z</time></trkpt><trkpt lat="43.02715892187791" lon="12.182909942308267"><ele>285.0</ele><time>2026-03-29T07:21:51Z</time></trkpt><trkpt lat="43.027110429343125" lon="12.182971288540568"><ele>285.0</ele><time>2026-03-29T07:21:53Z</time></trkpt><trkpt lat="43.027056775713234" lon="12.183090235030116"><ele>285.0</ele><time>2026-03-29T07:21:56Z</time></trkpt><trkpt lat="43.0269834417989" lon="12.183213167368743"><ele>285.0</ele><time>2026-03-29T07:21:58Z</time></trkpt><trkpt lat="43.02691285273276" lon="12.183346134679047"><ele>285.0</ele><time>2026-03-29T07:22:00Z</time></trkpt><trkpt lat="43.026855773612446" lon="12.183500018469651"><ele>284.5</ele><time>2026-03-29T07:22:02Z</time></trkpt><trkpt lat="43.02682357507974" lon="12.183586998741099"><ele>284.0</ele><time>2026-03-29T07:22:03Z</time></trkpt><trkpt lat="43.02678430852319" lon="12.18369384333868"><ele>283.5</ele><time>2026-03-29T07:22:04Z</time></trkpt><trkpt lat="43.02674686299158" lon="12.183807457727761"><ele>283.0</ele><time>2026-03-29T07:22:05Z</time></trkpt><trkpt lat="43.026700847631275" lon="12.183926941512093"><ele>282.5</ele><time>2026-03-29T07:22:06Z</time></trkpt><trkpt lat="43.0266562787648" lon="12.184040706392913"><ele>282.0</ele><time>2026-03-29T07:22:07Z</time></trkpt><trkpt lat="43.026607028850606" lon="12.184156826892373"><ele>282.0</ele><time>2026-03-29T07:22:08Z</time></trkpt><trkpt lat="43.02655869403923" lon="12.184275800771093"><ele>282.0</ele><time>2026-03-29T07:22:09Z</time></trkpt><trkpt lat="43.02650965415759" lon="12.184376474052298"><ele>282.0</ele><time>2026-03-29T07:22:10Z</time></trkpt><trkpt lat="43.02647258557493" lon="12.184468438144664"><ele>282.0</ele><time>2026-03-29T07:22:11Z</time></trkpt><trkpt lat="43.02643517126377" lon="12.184559234514055"><ele>282.0</ele><time>2026-03-29T07:22:12Z</time></trkpt><trkpt lat="43.02639436667724" lon="12.184655689661987"><ele>282.0</ele><time>2026-03-29T07:22:13Z</time></trkpt><trkpt lat="43.02636688352186" lon="12.184736300706348"><ele>282.0</ele><time>2026-03-29T07:22:14Z</time></trkpt><trkpt lat="43.026338618123894" lon="12.184814186237514"><ele>282.0</ele><time>2026-03-29T07:22:15Z</time></trkpt><trkpt lat="43.02628518422581" lon="12.184918402100239"><ele>282.0</ele><time>2026-03-29T07:22:17Z</time></trkpt><trkpt lat="43.02627387017865" lon="12.184772442381592"><ele>282.0</ele><time>2026-03-29T07:22:21Z</time></trkpt><trkpt lat="43.02625359893406" lon="12.184622681334837"><ele>282.0</ele><time>2026-03-29T07:22:23Z</time></trkpt><trkpt lat="43.026210074016106" lon="12.184450268117759"><ele>282.0</ele><time>2026-03-29T07:22:25Z</time></trkpt><trkpt lat="43.026169789641095" lon="12.184350993668176"><ele>282.0</ele><time>2026-03-29T07:22:26Z</time></trkpt><trkpt lat="43.02612533865877" lon="12.184243889544282"><ele>282.0</ele><time>2026-03-29T07:22:27Z</time></trkpt><trkpt lat="43.026061070239024" lon="12.184145229500649"><ele>282.0</ele><time>2026-03-29T07:22:28Z</time></trkpt><trkpt lat="43.02601266120663" lon="12.184047959856768"><ele>282.0</ele><time>2026-03-29T07:22:29Z</time></trkpt><trkpt lat="43.02597466982329" lon="12.183926192396559"><ele>282.2</ele><time>2026-03-29T07:22:30Z</time></trkpt><trkpt lat="43.02592768178833" lon="12.183827825552978"><ele>282.4</ele><time>2026-03-29T07:22:31Z</time></trkpt><trkpt lat="43.02588090765844" lon="12.183734620765527"><ele>282.6</ele><time>2026-03-29T07:22:32Z</time></trkpt><trkpt lat="43.025837941755945" lon="12.183649074990756"><ele>282.8</ele><time>2026-03-29T07:22:33Z</time></trkpt><trkpt lat="43.02576380194731" lon="12.183531082088313"><ele>283.0</ele><time>2026-03-29T07:22:35Z</time></trkpt><trkpt lat="43.025925312397014" lon="12.183427065154698"><ele>283.2</ele><time>2026-03-29T07:22:39Z</time></trkpt><trkpt lat="43.02603175629648" lon="12.183388754575258"><ele>283.4</ele><time>2026-03-29T07:22:41Z</time></trkpt><trkpt lat="43.026144878660716" lon="12.183328110174573"><ele>283.59999999999997</ele><time>2026-03-29T07:22:43Z</time></trkpt><trkpt lat="43.02620332037351" lon="12.183259915195963"><ele>283.8</ele><time>2026-03-29T07:22:44Z</time></trkpt><trkpt lat="43.026247627135746" lon="12.18315276204184"><ele>284.0</ele><time>2026-03-29T07:22:45Z</time></trkpt><trkpt lat="43.026262567137024" lon="12.183028919027919"><ele>284.1666666666667</ele><time>2026-03-29T07:22:46Z</time></trkpt><trkpt lat="43.026267152012196" lon="12.182915010946775"><ele>284.33333333333337</ele><time>2026-03-29T07:22:47Z</time></trkpt><trkpt lat="43.02626114619835" lon="12.182789278576712"><ele>284.5</ele><time>2026-03-29T07:22:48Z</time></trkpt><trkpt lat="43.02626402037462" lon="12.182686281023013"><ele>284.6666666666667</ele><time>2026-03-29T07:22:49Z</time></trkpt><trkpt lat="43.026311550399384" lon="12.18260657279068"><ele>284.8333333333333</ele><time>2026-03-29T07:22:50Z</time></trkpt><trkpt lat="43.02635782868201" lon="12.182512298543722"><ele>285.0</ele><time>2026-03-29T07:22:51Z</time></trkpt><trkpt lat="43.02641451631079" lon="12.18240770459429"><ele>285.0</ele><time>2026-03-29T07:22:52Z</time></trkpt><trkpt lat="43.02649659946392" lon="12.182284983679725"><ele>285.0</ele><time>2026-03-29T07:22:53Z</time></trkpt><trkpt lat="43.02653897666971" lon="12.18218114818547"><ele>285.0</ele><time>2026-03-29T07:22:54Z</time></trkpt><trkpt lat="43.026559170786754" lon="12.182085524087729"><ele>285.0</ele><time>2026-03-29T07:22:55Z</time></trkpt><trkpt lat="43.026553278515124" lon="12.181970693405374"><ele>285.0</ele><time>2026-03-29T07:22:56Z</time></trkpt><trkpt lat="43.026525702601695" lon="12.181819660928184"><ele>285.0</ele><time>2026-03-29T07:22:57Z</time></trkpt><trkpt lat="43.02650556168374" lon="12.181683463697038"><ele>285.0</ele><time>2026-03-29T07:22:58Z</time></trkpt><trkpt lat="43.026493958440994" lon="12.181550909374938"><ele>285.0</ele><time>2026-03-29T07:22:59Z</time></trkpt><trkpt lat="43.0264591757421" lon="12.181452484673546"><ele>285.0</ele><time>2026-03-29T07:23:00Z</time></trkpt><trkpt lat="43.02641548733585" lon="12.181363674335653"><ele>285.0</ele><time>2026-03-29T07:23:01Z</time></trkpt><trkpt lat="43.026343411303394" lon="12.181307845551727"><ele>285.0</ele><time>2026-03-29T07:23:02Z</time></trkpt><trkpt lat="43.02627004218955" lon="12.181234206248119"><ele>284.0</ele><time>2026-03-29T07:23:03Z</time></trkpt><trkpt lat="43.026179996328686" lon="12.181122571112894"><ele>283.0</ele><time>2026-03-29T07:23:04Z</time></trkpt><trkpt lat="43.02609673221215" lon="12.180992203973496"><ele>282.0</ele><time>2026-03-29T07:23:05Z</time></trkpt><trkpt lat="43.02602977606506" lon="12.18087401123508"><ele>281.0</ele><time>2026-03-29T07:23:06Z</time></trkpt><trkpt lat="43.02597572874963" lon="12.180744299406209"><ele>279.6</ele><time>2026-03-29T07:23:07Z</time></trkpt><trkpt lat="43.02592387323765" lon="12.180606625090418"><ele>278.20000000000005</ele><time>2026-03-29T07:23:08Z</time></trkpt><trkpt lat="43.02590816264838" lon="12.180480794221305"><ele>276.79999999999995</ele><time>2026-03-29T07:23:09Z</time></trkpt><trkpt lat="43.02591242728439" lon="12.18032279793968"><ele>275.4</ele><time>2026-03-29T07:23:10Z</time></trkpt><trkpt lat="43.02589583121797" lon="12.18018269115087"><ele>274.0</ele><time>2026-03-29T07:23:11Z</time></trkpt><trkpt lat="43.025871854107514" lon="12.180079280827531"><ele>274.0</ele><time>2026-03-29T07:23:12Z</time></trkpt><trkpt lat="43.02583302983899" lon="12.179955060965689"><ele>274.0</ele><time>2026-03-29T07:23:13Z</time></trkpt><trkpt lat="43.02577068564141" lon="12.179841904451825"><ele>274.0</ele><time>2026-03-29T07:23:14Z</time></trkpt><trkpt lat="43.02570749067737" lon="12.179749937274227"><ele>274.0</ele><time>2026-03-29T07:23:15Z</time></trkpt><trkpt lat="43.025643893682826" lon="12.17966601933346"><ele>274.0</ele><time>2026-03-29T07:23:16Z</time></trkpt><trkpt lat="43.0255533650306" lon="12.179602919419649"><ele>271.0</ele><time>2026-03-29T07:23:17Z</time></trkpt><trkpt lat="43.02544992589417" lon="12.179538452769252"><ele>268.0</ele><time>2026-03-29T07:23:18Z</time></trkpt><trkpt lat="43.025327864137275" lon="12.179483266562215"><ele>265.0</ele><time>2026-03-29T07:23:19Z</time></trkpt><trkpt lat="43.02522274795238" lon="12.179401914159678"><ele>262.0</ele><time>2026-03-29T07:23:20Z</time></trkpt><trkpt lat="43.025131821015655" lon="12.179293175092063"><ele>262.0</ele><time>2026-03-29T07:23:21Z</time></trkpt><trkpt lat="43.025049428435786" lon="12.179171169129088"><ele>262.0</ele><time>2026-03-29T07:23:22Z</time></trkpt><trkpt lat="43.02496143920122" lon="12.179051342088432"><ele>262.0</ele><time>2026-03-29T07:23:23Z</time></trkpt><trkpt lat="43.024871851053014" lon="12.178944000600689"><ele>262.0</ele><time>2026-03-29T07:23:24Z</time></trkpt><trkpt lat="43.02477677799141" lon="12.178856017806238"><ele>259.8</ele><time>2026-03-29T07:23:25Z</time></trkpt><trkpt lat="43.024691824689285" lon="12.178763068966303"><ele>257.6</ele><time>2026-03-29T07:23:26Z</time></trkpt><trkpt lat="43.02461354284116" lon="12.178679200704588"><ele>255.40000000000003</ele><time>2026-03-29T07:23:27Z</time></trkpt><trkpt lat="43.024549604251014" lon="12.178583569770087"><ele>253.20000000000002</ele><time>2026-03-29T07:23:28Z</time></trkpt><trkpt lat="43.02446605193213" lon="12.178524940204962"><ele>251.0</ele><time>2026-03-29T07:23:29Z</time></trkpt><trkpt lat="43.02439200718265" lon="12.178464440194178"><ele>251.00000000000003</ele><time>2026-03-29T07:23:30Z</time></trkpt><trkpt lat="43.02433204917807" lon="12.17839904328863"><ele>251.0</ele><time>2026-03-29T07:23:31Z</time></trkpt><trkpt lat="43.02427271624749" lon="12.178338329316936"><ele>251.0</ele><time>2026-03-29T07:23:32Z</time></trkpt><trkpt lat="43.02421854059747" lon="12.178258422625921"><ele>251.0</ele><time>2026-03-29T07:23:34Z</time></trkpt><trkpt lat="43.02418027079539" lon="12.178161875576608"><ele>251.00000000000003</ele><time>2026-03-29T07:23:36Z</time></trkpt><trkpt lat="43.02411097673235" lon="12.178065634693576"><ele>251.0</ele><time>2026-03-29T07:23:38Z</time></trkpt><trkpt lat="43.02400540465611" lon="12.177955790471714"><ele>254.0</ele><time>2026-03-29T07:23:41Z</time></trkpt><trkpt lat="43.02386913208979" lon="12.177819408020458"><ele>257.0</ele><time>2026-03-29T07:23:42Z</time></trkpt><trkpt lat="43.02376954160764" lon="12.177734014022626"><ele>260.0</ele><time>2026-03-29T07:23:43Z</time></trkpt><trkpt lat="43.02367654079828" lon="12.177687892978197"><ele>263.0</ele><time>2026-03-29T07:23:44Z</time></trkpt><trkpt lat="43.023562317436834" lon="12.17774672284755"><ele>263.0</ele><time>2026-03-29T07:23:45Z</time></trkpt><trkpt lat="43.02348366882467" lon="12.177713741953848"><ele>263.0</ele><time>2026-03-29T07:23:46Z</time></trkpt><trkpt lat="43.02342518363005" lon="12.17767329343607"><ele>263.0</ele><time>2026-03-29T07:23:47Z</time></trkpt><trkpt lat="43.02337805098419" lon="12.177581635303294"><ele>263.0</ele><time>2026-03-29T07:23:48Z</time></trkpt><trkpt lat="43.023371479710164" lon="12.177375914696492"><ele>263.0</ele><time>2026-03-29T07:23:49Z</time></trkpt><trkpt lat="43.02334975184956" lon="12.17719080754985"><ele>265.25</ele><time>2026-03-29T07:23:50Z</time></trkpt><trkpt lat="43.02331164124972" lon="12.177039284762301"><ele>267.5</ele><time>2026-03-29T07:23:51Z</time></trkpt><trkpt lat="43.02327818596345" lon="12.176889193488918"><ele>269.75</ele><time>2026-03-29T07:23:52Z</time></trkpt><trkpt lat="43.02323908278752" lon="12.176685401163208"><ele>272.0</ele><time>2026-03-29T07:23:53Z</time></trkpt><trkpt lat="43.023207056733746" lon="12.176546738379669"><ele>273.2</ele><time>2026-03-29T07:23:54Z</time></trkpt><trkpt lat="43.02317563432578" lon="12.176376358974554"><ele>274.4</ele><time>2026-03-29T07:23:55Z</time></trkpt><trkpt lat="43.02312275039886" lon="12.176236999338677"><ele>275.6</ele><time>2026-03-29T07:23:56Z</time></trkpt><trkpt lat="43.023123535447816" lon="12.176075371197474"><ele>276.8</ele><time>2026-03-29T07:23:58Z</time></trkpt><trkpt lat="43.023094973756784" lon="12.175982372877556"><ele>278.0</ele><time>2026-03-29T07:23:59Z</time></trkpt><trkpt lat="43.02307702028289" lon="12.1758455725694"><ele>278.0</ele><time>2026-03-29T07:24:01Z</time></trkpt><trkpt lat="43.02302514839285" lon="12.17576795612831"><ele>278.0</ele><time>2026-03-29T07:24:02Z</time></trkpt><trkpt lat="43.023051813524525" lon="12.175666326905743"><ele>278.0</ele><time>2026-03-29T07:24:04Z</time></trkpt><trkpt lat="43.02312985750467" lon="12.175661026217018"><ele>278.0</ele><time>2026-03-29T07:24:11Z</time></trkpt><trkpt lat="43.02320991820283" lon="12.17563357360034"><ele>278.0</ele><time>2026-03-29T07:24:12Z</time></trkpt><trkpt lat="43.02332598622529" lon="12.175592180872444"><ele>278.0</ele><time>2026-03-29T07:24:13Z</time></trkpt><trkpt lat="43.023448207777754" lon="12.175532069869991"><ele>279.6666666666667</ele><time>2026-03-29T07:24:14Z</time></trkpt><trkpt lat="43.02361992501347" lon="12.175436853079434"><ele>281.3333333333333</ele><time>2026-03-29T07:24:15Z</time></trkpt><trkpt lat="43.02375629268123" lon="12.175360042525877"><ele>283.0</ele><time>2026-03-29T07:24:16Z</time></trkpt><trkpt lat="43.02387730051125" lon="12.175287587138847"><ele>283.0</ele><time>2026-03-29T07:24:17Z</time></trkpt><trkpt lat="43.0240097166884" lon="12.175220728670265"><ele>283.0</ele><time>2026-03-29T07:24:18Z</time></trkpt><trkpt lat="43.02413996339958" lon="12.175148012429828"><ele>283.0</ele><time>2026-03-29T07:24:19Z</time></trkpt><trkpt lat="43.02422287562475" lon="12.175093415441928"><ele>283.0</ele><time>2026-03-29T07:24:20Z</time></trkpt><trkpt lat="43.02433176065297" lon="12.175037208302157"><ele>282.6</ele><time>2026-03-29T07:24:21Z</time></trkpt><trkpt lat="43.02442897604308" lon="12.174984180191936"><ele>282.20000000000005</ele><time>2026-03-29T07:24:22Z</time></trkpt><trkpt lat="43.02453245999695" lon="12.174938264420916"><ele>281.8</ele><time>2026-03-29T07:24:23Z</time></trkpt><trkpt lat="43.024636991008855" lon="12.174897420709248"><ele>281.40000000000003</ele><time>2026-03-29T07:24:24Z</time></trkpt><trkpt lat="43.02474035093589" lon="12.17484580599701"><ele>281.0</ele><time>2026-03-29T07:24:25Z</time></trkpt><trkpt lat="43.02483038147549" lon="12.174799006852039"><ele>281.0</ele><time>2026-03-29T07:24:26Z</time></trkpt><trkpt lat="43.024931668253195" lon="12.1747463618796"><ele>281.0</ele><time>2026-03-29T07:24:27Z</time></trkpt><trkpt lat="43.02502665744553" lon="12.174716243096375"><ele>281.0</ele><time>2026-03-29T07:24:28Z</time></trkpt><trkpt lat="43.025131247701985" lon="12.174683157243589"><ele>281.0</ele><time>2026-03-29T07:24:29Z</time></trkpt><trkpt lat="43.025241409379234" lon="12.17465466995036"><ele>281.0</ele><time>2026-03-29T07:24:30Z</time></trkpt><trkpt lat="43.025341408513576" lon="12.17463150458428"><ele>282.25</ele><time>2026-03-29T07:24:31Z</time></trkpt><trkpt lat="43.0254723522406" lon="12.174598715889115"><ele>283.5</ele><time>2026-03-29T07:24:32Z</time></trkpt><trkpt lat="43.02560077000564" lon="12.174568906840772"><ele>284.75</ele><time>2026-03-29T07:24:33Z</time></trkpt><trkpt lat="43.02572728357872" lon="12.17454016748327"><ele>286.0</ele><time>2026-03-29T07:24:34Z</time></trkpt><trkpt lat="43.025852606439805" lon="12.174543955786618"><ele>286.0</ele><time>2026-03-29T07:24:35Z</time></trkpt><trkpt lat="43.025973780987606" lon="12.174510213675102"><ele>286.0</ele><time>2026-03-29T07:24:36Z</time></trkpt><trkpt lat="43.02609104527842" lon="12.17447562335762"><ele>286.0</ele><time>2026-03-29T07:24:37Z</time></trkpt><trkpt lat="43.02621207467957" lon="12.174446618308338"><ele>286.0</ele><time>2026-03-29T07:24:38Z</time></trkpt><trkpt lat="43.02631080884651" lon="12.174422147862428"><ele>286.0</ele><time>2026-03-29T07:24:39Z</time></trkpt><trkpt lat="43.02641163281577" lon="12.174365285441722"><ele>286.0</ele><time>2026-03-29T07:24:40Z</time></trkpt><trkpt lat="43.026489594333945" lon="12.17433080045796"><ele>286.0</ele><time>2026-03-29T07:24:41Z</time></trkpt><trkpt lat="43.02655559510254" lon="12.174268851597052"><ele>286.0</ele><time>2026-03-29T07:24:42Z</time></trkpt><trkpt lat="43.02661238835167" lon="12.174210010610906"><ele>286.0</ele><time>2026-03-29T07:24:43Z</time></trkpt><trkpt lat="43.02667481217075" lon="12.174142084471535"><ele>286.0</ele><time>2026-03-29T07:24:44Z</time></trkpt><trkpt lat="43.026747198422505" lon="12.17405876292256"><ele>286.8</ele><time>2026-03-29T07:24:45Z</time></trkpt><trkpt lat="43.02681473560875" lon="12.174008737237244"><ele>287.6</ele><time>2026-03-29T07:24:46Z</time></trkpt><trkpt lat="43.02688684998021" lon="12.173930557572504"><ele>288.4</ele><time>2026-03-29T07:24:47Z</time></trkpt><trkpt lat="43.02696470189774" lon="12.173849263642984"><ele>289.2</ele><time>2026-03-29T07:24:48Z</time></trkpt><trkpt lat="43.02704836582825" lon="12.17371452161513"><ele>290.0</ele><time>2026-03-29T07:24:49Z</time></trkpt><trkpt lat="43.027116061172684" lon="12.173585588886121"><ele>290.0</ele><time>2026-03-29T07:24:50Z</time></trkpt><trkpt lat="43.02716805243354" lon="12.173443373226783"><ele>290.0</ele><time>2026-03-29T07:24:51Z</time></trkpt><trkpt lat="43.027219924329614" lon="12.173280019086283"><ele>290.0</ele><time>2026-03-29T07:24:52Z</time></trkpt><trkpt lat="43.02726214953515" lon="12.1731473497796"><ele>290.0</ele><time>2026-03-29T07:24:53Z</time></trkpt><trkpt lat="43.027361711555194" lon="12.173033629363974"><ele>291.0</ele><time>2026-03-29T07:24:54Z</time></trkpt><trkpt lat="43.02745285213032" lon="12.17294618650433"><ele>292.0</ele><time>2026-03-29T07:24:55Z</time></trkpt><trkpt lat="43.02756977067165" lon="12.172881303893805"><ele>293.0</ele><time>2026-03-29T07:24:56Z</time></trkpt><trkpt lat="43.027644839268014" lon="12.172760013047771"><ele>294.0</ele><time>2026-03-29T07:24:57Z</time></trkpt><trkpt lat="43.027655590507976" lon="12.172658540799581"><ele>295.0</ele><time>2026-03-29T07:24:58Z</time></trkpt><trkpt lat="43.027679199366354" lon="12.172450713346324"><ele>295.2</ele><time>2026-03-29T07:24:59Z</time></trkpt><trkpt lat="43.027601490177496" lon="12.172354042303683"><ele>295.4</ele><time>2026-03-29T07:25:00Z</time></trkpt><trkpt lat="43.02759290548222" lon="12.172240880464699"><ele>295.6</ele><time>2026-03-29T07:25:01Z</time></trkpt><trkpt lat="43.02760874760994" lon="12.172118102636219"><ele>295.8</ele><time>2026-03-29T07:25:03Z</time></trkpt><trkpt lat="43.02757650244691" lon="12.172020587274599"><ele>296.0</ele><time>2026-03-29T07:25:05Z</time></trkpt><trkpt lat="43.02748244671636" lon="12.1720195091474"><ele>295.5</ele><time>2026-03-29T07:25:09Z</time></trkpt><trkpt lat="43.027421553278806" lon="12.171989296121625"><ele>295.0</ele><time>2026-03-29T07:25:10Z</time></trkpt><trkpt lat="43.0273055152662" lon="12.17198872622225"><ele>294.5</ele><time>2026-03-29T07:25:11Z</time></trkpt><trkpt lat="43.02715657380844" lon="12.171973871986719"><ele>294.0</ele><time>2026-03-29T07:25:12Z</time></trkpt><trkpt lat="43.0270189705427" lon="12.171965767469004"><ele>294.0</ele><time>2026-03-29T07:25:13Z</time></trkpt><trkpt lat="43.02692022535602" lon="12.171950591857295"><ele>294.0</ele><time>2026-03-29T07:25:14Z</time></trkpt><trkpt lat="43.02682338463219" lon="12.171933333594549"><ele>294.0</ele><time>2026-03-29T07:25:15Z</time></trkpt><trkpt lat="43.026736450818646" lon="12.171913079170542"><ele>294.0</ele><time>2026-03-29T07:25:16Z</time></trkpt><trkpt lat="43.02667458366756" lon="12.17188771132345"><ele>294.0</ele><time>2026-03-29T07:25:17Z</time></trkpt><trkpt lat="43.02659200756239" lon="12.171870665265518"><ele>294.0</ele><time>2026-03-29T07:25:18Z</time></trkpt><trkpt lat="43.026523138148335" lon="12.171858800727897"><ele>293.6666666666667</ele><time>2026-03-29T07:25:19Z</time></trkpt><trkpt lat="43.02644862308413" lon="12.171857569994177"><ele>293.3333333333333</ele><time>2026-03-29T07:25:20Z</time></trkpt><trkpt lat="43.026371472943374" lon="12.171845594944303"><ele>293.0</ele><time>2026-03-29T07:25:21Z</time></trkpt><trkpt lat="43.02629223873066" lon="12.171834075134539"><ele>292.66666666666663</ele><time>2026-03-29T07:25:22Z</time></trkpt><trkpt lat="43.02620154582592" lon="12.171793119357043"><ele>292.3333333333333</ele><time>2026-03-29T07:25:23Z</time></trkpt><trkpt lat="43.02612673142779" lon="12.171801053728775"><ele>292.0</ele><time>2026-03-29T07:25:24Z</time></trkpt><trkpt lat="43.02605185954517" lon="12.171805312834106"><ele>292.0</ele><time>2026-03-29T07:25:25Z</time></trkpt><trkpt lat="43.025964124199426" lon="12.171808320230072"><ele>292.0</ele><time>2026-03-29T07:25:26Z</time></trkpt><trkpt lat="43.025873598714256" lon="12.171807588592024"><ele>292.0</ele><time>2026-03-29T07:25:27Z</time></trkpt><trkpt lat="43.025782079584545" lon="12.171804193327285"><ele>292.0</ele><time>2026-03-29T07:25:28Z</time></trkpt><trkpt lat="43.025696010209195" lon="12.171798663085788"><ele>292.0</ele><time>2026-03-29T07:25:29Z</time></trkpt><trkpt lat="43.025604509648794" lon="12.171796512991168"><ele>292.0</ele><time>2026-03-29T07:25:30Z</time></trkpt><trkpt lat="43.02550633523041" lon="12.171805781547597"><ele>291.6</ele><time>2026-03-29T07:25:31Z</time></trkpt><trkpt lat="43.02540351718067" lon="12.171814713361883"><ele>291.2</ele><time>2026-03-29T07:25:32Z</time></trkpt><trkpt lat="43.02530248544426" lon="12.171813700069618"><ele>290.8</ele><time>2026-03-29T07:25:33Z</time></trkpt><trkpt lat="43.02520876471858" lon="12.1718085018294"><ele>290.4</ele><time>2026-03-29T07:25:34Z</time></trkpt><trkpt lat="43.025123004541776" lon="12.171806130571133"><ele>290.0</ele><time>2026-03-29T07:25:35Z</time></trkpt><trkpt lat="43.0250468988786" lon="12.171801223023623"><ele>290.0</ele><time>2026-03-29T07:25:36Z</time></trkpt><trkpt lat="43.02496042352957" lon="12.17169192452007"><ele>290.0</ele><time>2026-03-29T07:25:37Z</time></trkpt><trkpt lat="43.02484452417115" lon="12.17168655249165"><ele>290.0</ele><time>2026-03-29T07:25:39Z</time></trkpt><trkpt lat="43.02472191190707" lon="12.171670058683532"><ele>290.0</ele><time>2026-03-29T07:25:41Z</time></trkpt><trkpt lat="43.0246546563532" lon="12.171657324425045"><ele>290.0</ele><time>2026-03-29T07:25:42Z</time></trkpt><trkpt lat="43.02458997023328" lon="12.171628996273212"><ele>290.0</ele><time>2026-03-29T07:25:43Z</time></trkpt><trkpt lat="43.02448446693361" lon="12.171620734338559"><ele>290.0</ele><time>2026-03-29T07:25:45Z</time></trkpt><trkpt lat="43.02441248440537" lon="12.171675672414153"><ele>290.0</ele><time>2026-03-29T07:25:46Z</time></trkpt><trkpt lat="43.02432110132386" lon="12.171705634217421"><ele>290.0</ele><time>2026-03-29T07:25:48Z</time></trkpt><trkpt lat="43.02419930659519" lon="12.171668508389349"><ele>290.0</ele><time>2026-03-29T07:25:50Z</time></trkpt><trkpt lat="43.024103322527566" lon="12.17165088313384"><ele>289.2</ele><time>2026-03-29T07:25:52Z</time></trkpt><trkpt lat="43.02398557858447" lon="12.17159375092529"><ele>288.4</ele><time>2026-03-29T07:25:54Z</time></trkpt><trkpt lat="43.02388383122961" lon="12.171561233623583"><ele>287.6</ele><time>2026-03-29T07:25:56Z</time></trkpt><trkpt lat="43.02380521307023" lon="12.171501880677466"><ele>286.8</ele><time>2026-03-29T07:25:58Z</time></trkpt><trkpt lat="43.023769601065446" lon="12.171392500224538"><ele>286.0</ele><time>2026-03-29T07:26:00Z</time></trkpt><trkpt lat="43.023770353354855" lon="12.171260395175366"><ele>284.25</ele><time>2026-03-29T07:26:02Z</time></trkpt><trkpt lat="43.02387626035049" lon="12.171171601176392"><ele>282.5</ele><time>2026-03-29T07:26:04Z</time></trkpt><trkpt lat="43.02396605860383" lon="12.171137351350085"><ele>280.75</ele><time>2026-03-29T07:26:05Z</time></trkpt><trkpt lat="43.0240464516005" lon="12.17107650598107"><ele>279.0</ele><time>2026-03-29T07:26:06Z</time></trkpt><trkpt lat="43.02418372611036" lon="12.171027353907371"><ele>279.0</ele><time>2026-03-29T07:26:07Z</time></trkpt><trkpt lat="43.02426052979365" lon="12.170979830389644"><ele>279.0</ele><time>2026-03-29T07:26:08Z</time></trkpt><trkpt lat="43.02435382347499" lon="12.17093829005566"><ele>279.0</ele><time>2026-03-29T07:26:09Z</time></trkpt><trkpt lat="43.02446482448027" lon="12.1708743013428"><ele>279.0</ele><time>2026-03-29T07:26:10Z</time></trkpt><trkpt lat="43.02455675550849" lon="12.170849562952082"><ele>279.0</ele><time>2026-03-29T07:26:11Z</time></trkpt><trkpt lat="43.02465305894003" lon="12.170801234854949"><ele>279.0</ele><time>2026-03-29T07:26:12Z</time></trkpt><trkpt lat="43.02472825276978" lon="12.170799660629712"><ele>279.0</ele><time>2026-03-29T07:26:13Z</time></trkpt><trkpt lat="43.02479527675759" lon="12.170749649638916"><ele>279.0</ele><time>2026-03-29T07:26:14Z</time></trkpt><trkpt lat="43.024845093569546" lon="12.170659744233797"><ele>279.0</ele><time>2026-03-29T07:26:15Z</time></trkpt><trkpt lat="43.024852120270715" lon="12.170572778602127"><ele>279.0</ele><time>2026-03-29T07:26:16Z</time></trkpt><trkpt lat="43.024796611287364" lon="12.17034108070272"><ele>277.5</ele><time>2026-03-29T07:26:17Z</time></trkpt><trkpt lat="43.024776792932876" lon="12.170139596628514"><ele>276.0</ele><time>2026-03-29T07:26:18Z</time></trkpt><trkpt lat="43.02478277874965" lon="12.169990886434281"><ele>274.5</ele><time>2026-03-29T07:26:19Z</time></trkpt><trkpt lat="43.02481909628203" lon="12.169845084299045"><ele>273.0</ele><time>2026-03-29T07:26:20Z</time></trkpt><trkpt lat="43.02484761347525" lon="12.169674408464898"><ele>273.0</ele><time>2026-03-29T07:26:21Z</time></trkpt><trkpt lat="43.02486923691857" lon="12.169515797776054"><ele>273.0</ele><time>2026-03-29T07:26:22Z</time></trkpt><trkpt lat="43.024890506454355" lon="12.16935995613917"><ele>273.0</ele><time>2026-03-29T07:26:23Z</time></trkpt><trkpt lat="43.024913573640355" lon="12.169205306359375"><ele>273.0</ele><time>2026-03-29T07:26:24Z</time></trkpt><trkpt lat="43.02494460341927" lon="12.169047053834698"><ele>275.0</ele><time>2026-03-29T07:26:25Z</time></trkpt><trkpt lat="43.02498040293974" lon="12.168874827004048"><ele>277.0</ele><time>2026-03-29T07:26:26Z</time></trkpt><trkpt lat="43.02501167392164" lon="12.168712023272677"><ele>279.0</ele><time>2026-03-29T07:26:27Z</time></trkpt><trkpt lat="43.025041403095415" lon="12.168565443820128"><ele>281.0</ele><time>2026-03-29T07:26:28Z</time></trkpt><trkpt lat="43.02508246705316" lon="12.168412035815306"><ele>281.0</ele><time>2026-03-29T07:26:29Z</time></trkpt><trkpt lat="43.02513415368071" lon="12.168274802930576"><ele>281.0</ele><time>2026-03-29T07:26:30Z</time></trkpt><trkpt lat="43.02518728846319" lon="12.168142161283885"><ele>281.0</ele><time>2026-03-29T07:26:31Z</time></trkpt><trkpt lat="43.02523804656483" lon="12.168008238644681"><ele>281.0</ele><time>2026-03-29T07:26:32Z</time></trkpt><trkpt lat="43.02529180329872" lon="12.167863553870964"><ele>282.5</ele><time>2026-03-29T07:26:33Z</time></trkpt><trkpt lat="43.02534519600402" lon="12.1677199246903"><ele>284.0</ele><time>2026-03-29T07:26:34Z</time></trkpt><trkpt lat="43.025396386330286" lon="12.167582317761852"><ele>285.5</ele><time>2026-03-29T07:26:35Z</time></trkpt><trkpt lat="43.0254508810453" lon="12.167435828202265"><ele>287.0</ele><time>2026-03-29T07:26:36Z</time></trkpt><trkpt lat="43.02550628107913" lon="12.16728690492057"><ele>289.0</ele><time>2026-03-29T07:26:37Z</time></trkpt><trkpt lat="43.02556283699861" lon="12.16713585616493"><ele>291.0</ele><time>2026-03-29T07:26:38Z</time></trkpt><trkpt lat="43.02561803051409" lon="12.166990690460636"><ele>293.0</ele><time>2026-03-29T07:26:39Z</time></trkpt><trkpt lat="43.02567395138718" lon="12.166847331294067"><ele>295.0</ele><time>2026-03-29T07:26:40Z</time></trkpt><trkpt lat="43.02573225801656" lon="12.166707296407543"><ele>295.0</ele><time>2026-03-29T07:26:41Z</time></trkpt><trkpt lat="43.02579032789809" lon="12.166570186550805"><ele>295.0</ele><time>2026-03-29T07:26:42Z</time></trkpt><trkpt lat="43.02584162186272" lon="12.166447035646375"><ele>295.0</ele><time>2026-03-29T07:26:43Z</time></trkpt><trkpt lat="43.02587831522396" lon="12.16631312488353"><ele>295.0</ele><time>2026-03-29T07:26:44Z</time></trkpt><trkpt lat="43.02593765028757" lon="12.166172207917691"><ele>295.0</ele><time>2026-03-29T07:26:45Z</time></trkpt><trkpt lat="43.02597668622872" lon="12.166033067462184"><ele>295.75</ele><time>2026-03-29T07:26:46Z</time></trkpt><trkpt lat="43.02600981669571" lon="12.165886406719261"><ele>296.5</ele><time>2026-03-29T07:26:47Z</time></trkpt><trkpt lat="43.02604014723703" lon="12.165732819409012"><ele>297.25</ele><time>2026-03-29T07:26:48Z</time></trkpt><trkpt lat="43.026047043831426" lon="12.16557378689433"><ele>298.0</ele><time>2026-03-29T07:26:49Z</time></trkpt><trkpt lat="43.02604967425672" lon="12.165430794975867"><ele>299.0</ele><time>2026-03-29T07:26:50Z</time></trkpt><trkpt lat="43.02603915130162" lon="12.165305923951944"><ele>300.0</ele><time>2026-03-29T07:26:51Z</time></trkpt><trkpt lat="43.02601614894535" lon="12.165206639430751"><ele>301.0</ele><time>2026-03-29T07:26:52Z</time></trkpt><trkpt lat="43.02596964469182" lon="12.165132148282973"><ele>302.0</ele><time>2026-03-29T07:26:53Z</time></trkpt><trkpt lat="43.02589622076841" lon="12.16509534713768"><ele>303.0</ele><time>2026-03-29T07:26:54Z</time></trkpt><trkpt lat="43.02580859020969" lon="12.165089065373282"><ele>304.0</ele><time>2026-03-29T07:26:55Z</time></trkpt><trkpt lat="43.025716260542836" lon="12.165119991166275"><ele>304.8333333333333</ele><time>2026-03-29T07:26:56Z</time></trkpt><trkpt lat="43.02562224809293" lon="12.165155990956285"><ele>305.66666666666663</ele><time>2026-03-29T07:26:57Z</time></trkpt><trkpt lat="43.02553719520171" lon="12.165180895784623"><ele>306.5</ele><time>2026-03-29T07:26:58Z</time></trkpt><trkpt lat="43.02545495351875" lon="12.165193067624951"><ele>307.3333333333333</ele><time>2026-03-29T07:26:59Z</time></trkpt><trkpt lat="43.02538753546223" lon="12.165163162676526"><ele>308.1666666666667</ele><time>2026-03-29T07:27:00Z</time></trkpt><trkpt lat="43.02534809247971" lon="12.165079283361193"><ele>309.0</ele><time>2026-03-29T07:27:01Z</time></trkpt><trkpt lat="43.0253537797417" lon="12.164967276718654"><ele>310.0</ele><time>2026-03-29T07:27:02Z</time></trkpt><trkpt lat="43.02534624115868" lon="12.164853802809036"><ele>311.0</ele><time>2026-03-29T07:27:03Z</time></trkpt><trkpt lat="43.0253240109783" lon="12.164727903967997"><ele>312.0</ele><time>2026-03-29T07:27:04Z</time></trkpt><trkpt lat="43.02532615651491" lon="12.164593170108681"><ele>313.0</ele><time>2026-03-29T07:27:05Z</time></trkpt><trkpt lat="43.025310109382445" lon="12.164450031267437"><ele>314.0</ele><time>2026-03-29T07:27:06Z</time></trkpt><trkpt lat="43.02528300641452" lon="12.164316740058569"><ele>314.0</ele><time>2026-03-29T07:27:07Z</time></trkpt><trkpt lat="43.02527102968404" lon="12.1641766631307"><ele>314.0</ele><time>2026-03-29T07:27:08Z</time></trkpt><trkpt lat="43.02525654443885" lon="12.16403391742403"><ele>314.0</ele><time>2026-03-29T07:27:09Z</time></trkpt><trkpt lat="43.02523911842574" lon="12.16388786960401"><ele>314.0</ele><time>2026-03-29T07:27:10Z</time></trkpt><trkpt lat="43.025218697633164" lon="12.163737350592674"><ele>314.0</ele><time>2026-03-29T07:27:11Z</time></trkpt><trkpt lat="43.02519989040598" lon="12.16357282757923"><ele>315.25</ele><time>2026-03-29T07:27:12Z</time></trkpt><trkpt lat="43.025182858464646" lon="12.163397938504142"><ele>316.5</ele><time>2026-03-29T07:27:13Z</time></trkpt><trkpt lat="43.02516228544639" lon="12.163226382270798"><ele>317.75</ele><time>2026-03-29T07:27:14Z</time></trkpt><trkpt lat="43.02513900714022" lon="12.16307468558851"><ele>319.0</ele><time>2026-03-29T07:27:15Z</time></trkpt><trkpt lat="43.025123705762276" lon="12.16296199085799"><ele>319.0</ele><time>2026-03-29T07:27:16Z</time></trkpt><trkpt lat="43.025118800187585" lon="12.162857209677274"><ele>319.0</ele><time>2026-03-29T07:27:17Z</time></trkpt><trkpt lat="43.0251073468533" lon="12.162766828885015"><ele>319.0</ele><time>2026-03-29T07:27:18Z</time></trkpt><trkpt lat="43.02509122054835" lon="12.162676646773651"><ele>319.0</ele><time>2026-03-29T07:27:19Z</time></trkpt><trkpt lat="43.0250727432046" lon="12.162548636269284"><ele>319.0</ele><time>2026-03-29T07:27:21Z</time></trkpt><trkpt lat="43.025264062659026" lon="12.162401120653403"><ele>317.59999999999997</ele><time>2026-03-29T07:27:24Z</time></trkpt><trkpt lat="43.02535675330198" lon="12.162339311074305"><ele>316.2</ele><time>2026-03-29T07:27:25Z</time></trkpt><trkpt lat="43.0254676656878" lon="12.162272807612496"><ele>314.79999999999995</ele><time>2026-03-29T07:27:26Z</time></trkpt><trkpt lat="43.02557691272096" lon="12.162227863931946"><ele>313.4</ele><time>2026-03-29T07:27:27Z</time></trkpt><trkpt lat="43.0256749359328" lon="12.162210079326623"><ele>312.0</ele><time>2026-03-29T07:27:28Z</time></trkpt><trkpt lat="43.025748907286605" lon="12.162208621400609"><ele>314.1666666666667</ele><time>2026-03-29T07:27:29Z</time></trkpt><trkpt lat="43.025818228541176" lon="12.162180008354769"><ele>316.3333333333333</ele><time>2026-03-29T07:27:30Z</time></trkpt><trkpt lat="43.02590599994142" lon="12.1620641359009"><ele>318.5</ele><time>2026-03-29T07:27:32Z</time></trkpt><trkpt lat="43.02594041521486" lon="12.161964957681809"><ele>320.66666666666663</ele><time>2026-03-29T07:27:33Z</time></trkpt><trkpt lat="43.025959660777524" lon="12.161864138275297"><ele>322.8333333333333</ele><time>2026-03-29T07:27:34Z</time></trkpt><trkpt lat="43.025997261258304" lon="12.16176542263905"><ele>325.0</ele><time>2026-03-29T07:27:35Z</time></trkpt><trkpt lat="43.026032361394996" lon="12.161669571982749"><ele>325.0</ele><time>2026-03-29T07:27:36Z</time></trkpt><trkpt lat="43.0260638909062" lon="12.161552623526193"><ele>325.0</ele><time>2026-03-29T07:27:37Z</time></trkpt><trkpt lat="43.02608705912392" lon="12.161431289106332"><ele>325.0</ele><time>2026-03-29T07:27:38Z</time></trkpt><trkpt lat="43.026101147763846" lon="12.161312203794571"><ele>325.0</ele><time>2026-03-29T07:27:39Z</time></trkpt><trkpt lat="43.02612344860369" lon="12.161197412263238"><ele>325.0</ele><time>2026-03-29T07:27:40Z</time></trkpt><trkpt lat="43.02614523304597" lon="12.161070785814495"><ele>325.0</ele><time>2026-03-29T07:27:41Z</time></trkpt><trkpt lat="43.02617583678995" lon="12.160928054142442"><ele>325.0</ele><time>2026-03-29T07:27:42Z</time></trkpt><trkpt lat="43.02620118578355" lon="12.160799744212927"><ele>325.0</ele><time>2026-03-29T07:27:43Z</time></trkpt><trkpt lat="43.02620424762239" lon="12.160671411908167"><ele>325.0</ele><time>2026-03-29T07:27:44Z</time></trkpt><trkpt lat="43.02622248054958" lon="12.160535126053075"><ele>325.0</ele><time>2026-03-29T07:27:45Z</time></trkpt><trkpt lat="43.02625488825405" lon="12.160422654851049"><ele>324.6</ele><time>2026-03-29T07:27:46Z</time></trkpt><trkpt lat="43.0262808482226" lon="12.16030048265713"><ele>324.2</ele><time>2026-03-29T07:27:47Z</time></trkpt><trkpt lat="43.02630506546575" lon="12.160191216995644"><ele>323.79999999999995</ele><time>2026-03-29T07:27:48Z</time></trkpt><trkpt lat="43.02634030224253" lon="12.160058532046863"><ele>323.4</ele><time>2026-03-29T07:27:49Z</time></trkpt><trkpt lat="43.02640041160211" lon="12.159962803652686"><ele>323.0</ele><time>2026-03-29T07:27:50Z</time></trkpt><trkpt lat="43.02648073302355" lon="12.159893495521407"><ele>323.2</ele><time>2026-03-29T07:27:51Z</time></trkpt><trkpt lat="43.0265504235748" lon="12.159857620342958"><ele>323.4</ele><time>2026-03-29T07:27:52Z</time></trkpt><trkpt lat="43.026677227601404" lon="12.159835877495413"><ele>323.59999999999997</ele><time>2026-03-29T07:27:53Z</time></trkpt><trkpt lat="43.02679534111517" lon="12.159795151055388"><ele>323.79999999999995</ele><time>2026-03-29T07:27:54Z</time></trkpt><trkpt lat="43.02690984423007" lon="12.159742604225396"><ele>324.0</ele><time>2026-03-29T07:27:55Z</time></trkpt><trkpt lat="43.027007895428966" lon="12.159773165084781"><ele>324.0</ele><time>2026-03-29T07:27:56Z</time></trkpt><trkpt lat="43.027108742535944" lon="12.15982696533761"><ele>324.0</ele><time>2026-03-29T07:27:57Z</time></trkpt><trkpt lat="43.02721872192533" lon="12.159888678728795"><ele>324.0</ele><time>2026-03-29T07:27:58Z</time></trkpt><trkpt lat="43.02732000742031" lon="12.15996731977473"><ele>324.0</ele><time>2026-03-29T07:27:59Z</time></trkpt><trkpt lat="43.02741177696438" lon="12.160056785088361"><ele>325.4</ele><time>2026-03-29T07:28:00Z</time></trkpt><trkpt lat="43.0275012094082" lon="12.1601526070183"><ele>326.79999999999995</ele><time>2026-03-29T07:28:01Z</time></trkpt><trkpt lat="43.02759031296677" lon="12.160227402658883"><ele>328.20000000000005</ele><time>2026-03-29T07:28:02Z</time></trkpt><trkpt lat="43.02768936203331" lon="12.160300410986173"><ele>329.6</ele><time>2026-03-29T07:28:03Z</time></trkpt><trkpt lat="43.0277942303012" lon="12.160375498296691"><ele>331.0</ele><time>2026-03-29T07:28:04Z</time></trkpt><trkpt lat="43.02790277316401" lon="12.160444538862276"><ele>331.0</ele><time>2026-03-29T07:28:05Z</time></trkpt><trkpt lat="43.02798938443152" lon="12.160503061044807"><ele>331.0</ele><time>2026-03-29T07:28:06Z</time></trkpt><trkpt lat="43.02805285111697" lon="12.160541934859673"><ele>331.0</ele><time>2026-03-29T07:28:07Z</time></trkpt><trkpt lat="43.02817183700694" lon="12.160594483043269"><ele>331.0</ele><time>2026-03-29T07:28:08Z</time></trkpt><trkpt lat="43.028253793706156" lon="12.16062151224435"><ele>331.0</ele><time>2026-03-29T07:28:09Z</time></trkpt><trkpt lat="43.0283322309921" lon="12.160595112824144"><ele>330.4</ele><time>2026-03-29T07:28:10Z</time></trkpt><trkpt lat="43.02841834943177" lon="12.16052203101932"><ele>329.8</ele><time>2026-03-29T07:28:11Z</time></trkpt><trkpt lat="43.028500263551464" lon="12.160437499778205"><ele>329.2</ele><time>2026-03-29T07:28:12Z</time></trkpt><trkpt lat="43.028587084614884" lon="12.160365428634162"><ele>328.59999999999997</ele><time>2026-03-29T07:28:13Z</time></trkpt><trkpt lat="43.02868436776815" lon="12.16033098109941"><ele>328.0</ele><time>2026-03-29T07:28:14Z</time></trkpt><trkpt lat="43.02878610424894" lon="12.160311557369688"><ele>328.0</ele><time>2026-03-29T07:28:15Z</time></trkpt><trkpt lat="43.028886712598705" lon="12.1602897703644"><ele>328.0</ele><time>2026-03-29T07:28:16Z</time></trkpt><trkpt lat="43.02898944062626" lon="12.16026631666082"><ele>328.0</ele><time>2026-03-29T07:28:17Z</time></trkpt><trkpt lat="43.029071082313756" lon="12.16022663378056"><ele>328.0</ele><time>2026-03-29T07:28:18Z</time></trkpt><trkpt lat="43.029148340661564" lon="12.160167207875832"><ele>328.0</ele><time>2026-03-29T07:28:19Z</time></trkpt><trkpt lat="43.02921585492254" lon="12.160086861266304"><ele>327.0</ele><time>2026-03-29T07:28:20Z</time></trkpt><trkpt lat="43.02926182079308" lon="12.159995736351926"><ele>326.0</ele><time>2026-03-29T07:28:21Z</time></trkpt><trkpt lat="43.029267472147936" lon="12.159888330765941"><ele>325.0</ele><time>2026-03-29T07:28:22Z</time></trkpt><trkpt lat="43.029235081842906" lon="12.15979679097417"><ele>324.0</ele><time>2026-03-29T07:28:23Z</time></trkpt><trkpt lat="43.02918340307348" lon="12.159715429143361"><ele>323.0</ele><time>2026-03-29T07:28:24Z</time></trkpt><trkpt lat="43.02914170931189" lon="12.159622012111875"><ele>322.0</ele><time>2026-03-29T07:28:25Z</time></trkpt><trkpt lat="43.02913090013779" lon="12.15951171303737"><ele>323.5</ele><time>2026-03-29T07:28:26Z</time></trkpt><trkpt lat="43.02914865062955" lon="12.15941024821378"><ele>325.0</ele><time>2026-03-29T07:28:27Z</time></trkpt><trkpt lat="43.02922199907617" lon="12.159342077381064"><ele>326.5</ele><time>2026-03-29T07:28:28Z</time></trkpt><trkpt lat="43.0292810305461" lon="12.159280725258226"><ele>328.0</ele><time>2026-03-29T07:28:29Z</time></trkpt><trkpt lat="43.02936031805997" lon="12.159178452323545"><ele>329.5</ele><time>2026-03-29T07:28:30Z</time></trkpt><trkpt lat="43.029426058282766" lon="12.159097965053682"><ele>331.0</ele><time>2026-03-29T07:28:31Z</time></trkpt><trkpt lat="43.02949143032571" lon="12.15900510981542"><ele>331.0</ele><time>2026-03-29T07:28:32Z</time></trkpt><trkpt lat="43.029557305321134" lon="12.15891278102239"><ele>331.0</ele><time>2026-03-29T07:28:33Z</time></trkpt><trkpt lat="43.029630734940625" lon="12.158835668295565"><ele>331.0</ele><time>2026-03-29T07:28:34Z</time></trkpt><trkpt lat="43.02969160172178" lon="12.158726294774103"><ele>331.0</ele><time>2026-03-29T07:28:35Z</time></trkpt><trkpt lat="43.029727803789264" lon="12.15861935374765"><ele>331.0</ele><time>2026-03-29T07:28:36Z</time></trkpt><trkpt lat="43.02976790542656" lon="12.15853913942595"><ele>331.0</ele><time>2026-03-29T07:28:37Z</time></trkpt><trkpt lat="43.02980394335295" lon="12.15846632303557"><ele>331.0</ele><time>2026-03-29T07:28:38Z</time></trkpt><trkpt lat="43.02985081625096" lon="12.158392612340508"><ele>331.0</ele><time>2026-03-29T07:28:39Z</time></trkpt><trkpt lat="43.0299134213788" lon="12.158332990335795"><ele>331.0</ele><time>2026-03-29T07:28:40Z</time></trkpt><trkpt lat="43.029996625869686" lon="12.158281105549403"><ele>331.0</ele><time>2026-03-29T07:28:41Z</time></trkpt><trkpt lat="43.03009642786273" lon="12.158246289769925"><ele>331.0</ele><time>2026-03-29T07:28:42Z</time></trkpt><trkpt lat="43.03020810922596" lon="12.158241949901232"><ele>333.0</ele><time>2026-03-29T07:28:43Z</time></trkpt><trkpt lat="43.03032509427167" lon="12.158252373681528"><ele>335.0</ele><time>2026-03-29T07:28:44Z</time></trkpt><trkpt lat="43.03044087245205" lon="12.158255256426814"><ele>337.0</ele><time>2026-03-29T07:28:45Z</time></trkpt><trkpt lat="43.03056467419547" lon="12.158260861319773"><ele>339.0</ele><time>2026-03-29T07:28:46Z</time></trkpt><trkpt lat="43.03069042076543" lon="12.15826277563071"><ele>339.4</ele><time>2026-03-29T07:28:47Z</time></trkpt><trkpt lat="43.0308106834367" lon="12.158214667104142"><ele>339.79999999999995</ele><time>2026-03-29T07:28:48Z</time></trkpt><trkpt lat="43.03089166827367" lon="12.15817528373449"><ele>340.20000000000005</ele><time>2026-03-29T07:28:49Z</time></trkpt><trkpt lat="43.03098655897619" lon="12.158088355435426"><ele>340.6</ele><time>2026-03-29T07:28:50Z</time></trkpt><trkpt lat="43.031034152771845" lon="12.157943583745993"><ele>341.0</ele><time>2026-03-29T07:28:51Z</time></trkpt><trkpt lat="43.031054858363206" lon="12.157854431886204"><ele>339.33333333333337</ele><time>2026-03-29T07:28:52Z</time></trkpt><trkpt lat="43.03106732124771" lon="12.157752519437805"><ele>337.6666666666667</ele><time>2026-03-29T07:28:53Z</time></trkpt><trkpt lat="43.03110192998611" lon="12.157641146277978"><ele>336.0</ele><time>2026-03-29T07:28:54Z</time></trkpt><trkpt lat="43.03115090439315" lon="12.157541747770642"><ele>334.3333333333333</ele><time>2026-03-29T07:28:55Z</time></trkpt><trkpt lat="43.03122376249436" lon="12.157482365955138"><ele>332.66666666666663</ele><time>2026-03-29T07:28:56Z</time></trkpt><trkpt lat="43.031313043139356" lon="12.157428268858029"><ele>331.0</ele><time>2026-03-29T07:28:57Z</time></trkpt><trkpt lat="43.03140146154245" lon="12.157402891969083"><ele>331.0</ele><time>2026-03-29T07:28:58Z</time></trkpt><trkpt lat="43.03150072424907" lon="12.157394620582194"><ele>331.0</ele><time>2026-03-29T07:28:59Z</time></trkpt><trkpt lat="43.031608396346186" lon="12.157371052749705"><ele>331.0</ele><time>2026-03-29T07:29:00Z</time></trkpt><trkpt lat="43.031707522095815" lon="12.157352199576147"><ele>331.0</ele><time>2026-03-29T07:29:01Z</time></trkpt><trkpt lat="43.03180157836924" lon="12.157316375372337"><ele>331.0</ele><time>2026-03-29T07:29:02Z</time></trkpt><trkpt lat="43.03190009578826" lon="12.15731251994162"><ele>332.0</ele><time>2026-03-29T07:29:03Z</time></trkpt><trkpt lat="43.03198146617075" lon="12.157317053053696"><ele>333.0</ele><time>2026-03-29T07:29:04Z</time></trkpt><trkpt lat="43.03209211256632" lon="12.157315774130666"><ele>334.0</ele><time>2026-03-29T07:29:05Z</time></trkpt><trkpt lat="43.032208977544165" lon="12.157317556069344"><ele>335.0</ele><time>2026-03-29T07:29:06Z</time></trkpt><trkpt lat="43.03230953681831" lon="12.157365164411162"><ele>336.0</ele><time>2026-03-29T07:29:07Z</time></trkpt><trkpt lat="43.03240302583056" lon="12.157422280646163"><ele>335.8333333333333</ele><time>2026-03-29T07:29:08Z</time></trkpt><trkpt lat="43.03248086871207" lon="12.157482707422524"><ele>335.6666666666667</ele><time>2026-03-29T07:29:09Z</time></trkpt><trkpt lat="43.03255515645283" lon="12.157551457167719"><ele>335.5</ele><time>2026-03-29T07:29:10Z</time></trkpt><trkpt lat="43.032623387759685" lon="12.157576064279073"><ele>335.33333333333337</ele><time>2026-03-29T07:29:11Z</time></trkpt><trkpt lat="43.032711538096216" lon="12.157574870135596"><ele>335.1666666666667</ele><time>2026-03-29T07:29:12Z</time></trkpt><trkpt lat="43.03278974653366" lon="12.157533496444344"><ele>335.0</ele><time>2026-03-29T07:29:13Z</time></trkpt><trkpt lat="43.032881533456525" lon="12.157522990816299"><ele>335.0</ele><time>2026-03-29T07:29:14Z</time></trkpt><trkpt lat="43.0329981610367" lon="12.15754015217252"><ele>335.0</ele><time>2026-03-29T07:29:15Z</time></trkpt><trkpt lat="43.03306593865611" lon="12.157547795037456"><ele>335.0</ele><time>2026-03-29T07:29:16Z</time></trkpt><trkpt lat="43.0331253228795" lon="12.157515335112663"><ele>335.0</ele><time>2026-03-29T07:29:17Z</time></trkpt><trkpt lat="43.033186371017365" lon="12.157469140972548"><ele>335.0</ele><time>2026-03-29T07:29:18Z</time></trkpt><trkpt lat="43.033225967923116" lon="12.157352285652099"><ele>335.0</ele><time>2026-03-29T07:29:19Z</time></trkpt><trkpt lat="43.033253796363205" lon="12.157211490998016"><ele>335.0</ele><time>2026-03-29T07:29:20Z</time></trkpt><trkpt lat="43.03329246660449" lon="12.157084040210046"><ele>335.0</ele><time>2026-03-29T07:29:21Z</time></trkpt><trkpt lat="43.03334458562171" lon="12.156934515640472"><ele>335.0</ele><time>2026-03-29T07:29:22Z</time></trkpt><trkpt lat="43.03339611302436" lon="12.156805276374422"><ele>335.0</ele><time>2026-03-29T07:29:23Z</time></trkpt><trkpt lat="43.033439524934316" lon="12.156697108876992"><ele>335.0</ele><time>2026-03-29T07:29:24Z</time></trkpt><trkpt lat="43.03347492136234" lon="12.156616321391468"><ele>335.33333333333337</ele><time>2026-03-29T07:29:25Z</time></trkpt><trkpt lat="43.03349380800555" lon="12.156520007188107"><ele>335.6666666666667</ele><time>2026-03-29T07:29:26Z</time></trkpt><trkpt lat="43.03354779888695" lon="12.156420997325178"><ele>336.0</ele><time>2026-03-29T07:29:27Z</time></trkpt><trkpt lat="43.03357559268573" lon="12.156300303724807"><ele>336.3333333333333</ele><time>2026-03-29T07:29:28Z</time></trkpt><trkpt lat="43.033606922664575" lon="12.15617080368821"><ele>336.66666666666663</ele><time>2026-03-29T07:29:29Z</time></trkpt><trkpt lat="43.03362612697042" lon="12.156083275632128"><ele>337.0</ele><time>2026-03-29T07:29:30Z</time></trkpt><trkpt lat="43.033592511229585" lon="12.15596313312154"><ele>337.0</ele><time>2026-03-29T07:29:31Z</time></trkpt><trkpt lat="43.033500942939526" lon="12.155903514916599"><ele>337.0</ele><time>2026-03-29T07:29:32Z</time></trkpt><trkpt lat="43.03343156865707" lon="12.155864153484501"><ele>337.0</ele><time>2026-03-29T07:29:33Z</time></trkpt><trkpt lat="43.033343022198444" lon="12.155785595629558"><ele>337.0</ele><time>2026-03-29T07:29:34Z</time></trkpt><trkpt lat="43.03326868451059" lon="12.155697088109495"><ele>337.0</ele><time>2026-03-29T07:29:35Z</time></trkpt><trkpt lat="43.03320597009441" lon="12.155596456882902"><ele>336.66666666666663</ele><time>2026-03-29T07:29:36Z</time></trkpt><trkpt lat="43.03315316231501" lon="12.155499253849921"><ele>336.3333333333333</ele><time>2026-03-29T07:29:37Z</time></trkpt><trkpt lat="43.033102119002926" lon="12.155400080357532"><ele>336.0</ele><time>2026-03-29T07:29:38Z</time></trkpt><trkpt lat="43.03305851295077" lon="12.155313245609944"><ele>335.6666666666667</ele><time>2026-03-29T07:29:39Z</time></trkpt><trkpt lat="43.0330283630989" lon="12.155191262715476"><ele>335.33333333333337</ele><time>2026-03-29T07:29:40Z</time></trkpt><trkpt lat="43.03299180357594" lon="12.155077286000747"><ele>335.0</ele><time>2026-03-29T07:29:41Z</time></trkpt><trkpt lat="43.03297123964806" lon="12.154976670296595"><ele>334.99999999999994</ele><time>2026-03-29T07:29:42Z</time></trkpt><trkpt lat="43.03296179158803" lon="12.15488048032282"><ele>335.0</ele><time>2026-03-29T07:29:43Z</time></trkpt><trkpt lat="43.03295346339743" lon="12.154792864006954"><ele>335.0</ele><time>2026-03-29T07:29:44Z</time></trkpt><trkpt lat="43.03302309499933" lon="12.154729924216433"><ele>335.0</ele><time>2026-03-29T07:29:45Z</time></trkpt><trkpt lat="43.03306696744296" lon="12.154654727368849"><ele>335.0</ele><time>2026-03-29T07:29:46Z</time></trkpt><trkpt lat="43.033110237917604" lon="12.154553704112038"><ele>334.99999999999994</ele><time>2026-03-29T07:29:47Z</time></trkpt><trkpt lat="43.03314583179838" lon="12.15447633744484"><ele>335.0</ele><time>2026-03-29T07:29:48Z</time></trkpt><trkpt lat="43.03318995349114" lon="12.154389465935404"><ele>335.5</ele><time>2026-03-29T07:29:50Z</time></trkpt><trkpt lat="43.03309700981556" lon="12.154181162855755"><ele>336.0</ele><time>2026-03-29T07:29:51Z</time></trkpt><trkpt lat="43.03308309909839" lon="12.154076575920103"><ele>336.5</ele><time>2026-03-29T07:29:52Z</time></trkpt><trkpt lat="43.03310225716405" lon="12.153897041584138"><ele>337.0</ele><time>2026-03-29T07:29:54Z</time></trkpt><trkpt lat="43.03312029976026" lon="12.1537478344077"><ele>337.0</ele><time>2026-03-29T07:29:55Z</time></trkpt><trkpt lat="43.03315331869514" lon="12.153591296242537"><ele>337.0</ele><time>2026-03-29T07:29:56Z</time></trkpt><trkpt lat="43.03320153347903" lon="12.153410451492183"><ele>337.0</ele><time>2026-03-29T07:29:57Z</time></trkpt><trkpt lat="43.033223780249585" lon="12.153271250738454"><ele>337.0</ele><time>2026-03-29T07:29:58Z</time></trkpt><trkpt lat="43.03323512510585" lon="12.15314576311012"><ele>337.6</ele><time>2026-03-29T07:29:59Z</time></trkpt><trkpt lat="43.033205109018034" lon="12.153028827975445"><ele>338.20000000000005</ele><time>2026-03-29T07:30:00Z</time></trkpt><trkpt lat="43.033138314223116" lon="12.152947613176712"><ele>338.8</ele><time>2026-03-29T07:30:01Z</time></trkpt><trkpt lat="43.03302737435844" lon="12.152876149981486"><ele>339.4</ele><time>2026-03-29T07:30:02Z</time></trkpt><trkpt lat="43.032948687322126" lon="12.1528054309375"><ele>340.0</ele><time>2026-03-29T07:30:03Z</time></trkpt><trkpt lat="43.03288319932964" lon="12.152750321028213"><ele>340.0</ele><time>2026-03-29T07:30:04Z</time></trkpt><trkpt lat="43.03281932481208" lon="12.152696568882615"><ele>340.0</ele><time>2026-03-29T07:30:05Z</time></trkpt><trkpt lat="43.03276254068529" lon="12.152648124622155"><ele>340.0</ele><time>2026-03-29T07:30:06Z</time></trkpt><trkpt lat="43.03287392432997" lon="12.152231176713327"><ele>339.5</ele><time>2026-03-29T07:30:09Z</time></trkpt><trkpt lat="43.03291164359628" lon="12.152152426500093"><ele>339.0</ele><time>2026-03-29T07:30:10Z</time></trkpt><trkpt lat="43.03295666648158" lon="12.152076129840209"><ele>338.5</ele><time>2026-03-29T07:30:11Z</time></trkpt><trkpt lat="43.03300913909551" lon="12.15200597405234"><ele>338.0</ele><time>2026-03-29T07:30:12Z</time></trkpt><trkpt lat="43.03314497058249" lon="12.151964459710225"><ele>337.5</ele><time>2026-03-29T07:30:14Z</time></trkpt><trkpt lat="43.03322575774627" lon="12.151940706500262"><ele>337.0</ele><time>2026-03-29T07:30:15Z</time></trkpt><trkpt lat="43.03329151054647" lon="12.151916069611385"><ele>339.0</ele><time>2026-03-29T07:30:16Z</time></trkpt><trkpt lat="43.03335228797532" lon="12.151885115984298"><ele>341.0</ele><time>2026-03-29T07:30:17Z</time></trkpt><trkpt lat="43.0334338451234" lon="12.151841033182997"><ele>343.0</ele><time>2026-03-29T07:30:18Z</time></trkpt><trkpt lat="43.03355337266923" lon="12.151780567543865"><ele>345.0</ele><time>2026-03-29T07:30:19Z</time></trkpt><trkpt lat="43.03366084620943" lon="12.151727074393081"><ele>347.0</ele><time>2026-03-29T07:30:20Z</time></trkpt><trkpt lat="43.03378859012329" lon="12.151660077046392"><ele>347.0</ele><time>2026-03-29T07:30:21Z</time></trkpt><trkpt lat="43.03389633771605" lon="12.151592017112725"><ele>347.0</ele><time>2026-03-29T07:30:22Z</time></trkpt><trkpt lat="43.03396114628803" lon="12.15152245258767"><ele>347.0</ele><time>2026-03-29T07:30:23Z</time></trkpt><trkpt lat="43.03398429549576" lon="12.151435502854488"><ele>347.0</ele><time>2026-03-29T07:30:24Z</time></trkpt><trkpt lat="43.033868933145484" lon="12.151230935835272"><ele>347.0</ele><time>2026-03-29T07:30:26Z</time></trkpt><trkpt lat="43.033712781968546" lon="12.151117088129165"><ele>347.0</ele><time>2026-03-29T07:30:27Z</time></trkpt><trkpt lat="43.033558444330595" lon="12.150997613244508"><ele>347.0</ele><time>2026-03-29T07:30:28Z</time></trkpt><trkpt lat="43.033427260609805" lon="12.150846147992597"><ele>348.0</ele><time>2026-03-29T07:30:29Z</time></trkpt><trkpt lat="43.03330707075211" lon="12.15067240526847"><ele>349.0</ele><time>2026-03-29T07:30:30Z</time></trkpt><trkpt lat="43.033210120569734" lon="12.150524329801815"><ele>350.0</ele><time>2026-03-29T07:30:31Z</time></trkpt><trkpt lat="43.03313617758881" lon="12.150353987470586"><ele>345.25</ele><time>2026-03-29T07:30:32Z</time></trkpt><trkpt lat="43.03309803754373" lon="12.150189331172557"><ele>340.5</ele><time>2026-03-29T07:30:33Z</time></trkpt><trkpt lat="43.03312262210166" lon="12.150035063656496"><ele>335.75</ele><time>2026-03-29T07:30:34Z</time></trkpt><trkpt lat="43.03318607836048" lon="12.149893110772304"><ele>331.0</ele><time>2026-03-29T07:30:35Z</time></trkpt><trkpt lat="43.03326152659437" lon="12.149737397177452"><ele>334.0</ele><time>2026-03-29T07:30:36Z</time></trkpt><trkpt lat="43.03334993522417" lon="12.149593521468937"><ele>337.0</ele><time>2026-03-29T07:30:37Z</time></trkpt><trkpt lat="43.03346347607982" lon="12.149459576897112"><ele>340.0</ele><time>2026-03-29T07:30:38Z</time></trkpt><trkpt lat="43.03359141745803" lon="12.149347321386424"><ele>343.0</ele><time>2026-03-29T07:30:39Z</time></trkpt><trkpt lat="43.03370657606871" lon="12.149306885124345"><ele>343.0</ele><time>2026-03-29T07:30:40Z</time></trkpt><trkpt lat="43.033806056200376" lon="12.149293205054779"><ele>343.0</ele><time>2026-03-29T07:30:41Z</time></trkpt><trkpt lat="43.03389839227933" lon="12.14936687355392"><ele>343.0</ele><time>2026-03-29T07:30:42Z</time></trkpt><trkpt lat="43.03403937728406" lon="12.149378248103922"><ele>343.0</ele><time>2026-03-29T07:30:43Z</time></trkpt><trkpt lat="43.03414641963115" lon="12.149358097175849"><ele>345.5</ele><time>2026-03-29T07:30:44Z</time></trkpt><trkpt lat="43.034269176843296" lon="12.149317084059067"><ele>348.0</ele><time>2026-03-29T07:30:45Z</time></trkpt><trkpt lat="43.034398825858396" lon="12.149262908423726"><ele>350.5</ele><time>2026-03-29T07:30:46Z</time></trkpt><trkpt lat="43.03450666974783" lon="12.149213999265921"><ele>353.0</ele><time>2026-03-29T07:30:47Z</time></trkpt><trkpt lat="43.03440047497738" lon="12.149171920507072"><ele>353.0</ele><time>2026-03-29T07:30:48Z</time></trkpt><trkpt lat="43.03433801310858" lon="12.149091568883572"><ele>353.0</ele><time>2026-03-29T07:30:49Z</time></trkpt><trkpt lat="43.034205196417936" lon="12.149002043280534"><ele>353.0</ele><time>2026-03-29T07:30:50Z</time></trkpt><trkpt lat="43.03409688542191" lon="12.148952955632595"><ele>353.0</ele><time>2026-03-29T07:30:51Z</time></trkpt><trkpt lat="43.03396990834686" lon="12.148849968007394"><ele>351.79999999999995</ele><time>2026-03-29T07:30:52Z</time></trkpt><trkpt lat="43.033916160512995" lon="12.14871906981843"><ele>350.6</ele><time>2026-03-29T07:30:53Z</time></trkpt><trkpt lat="43.03387608253244" lon="12.148599823130455"><ele>349.4</ele><time>2026-03-29T07:30:54Z</time></trkpt><trkpt lat="43.033856242589586" lon="12.148495106655258"><ele>348.20000000000005</ele><time>2026-03-29T07:30:55Z</time></trkpt><trkpt lat="43.0338869768182" lon="12.148315701269476"><ele>347.0</ele><time>2026-03-29T07:30:56Z</time></trkpt><trkpt lat="43.03395176905299" lon="12.148160715464643"><ele>347.0</ele><time>2026-03-29T07:30:57Z</time></trkpt><trkpt lat="43.0340029411302" lon="12.148027968592737"><ele>347.0</ele><time>2026-03-29T07:30:58Z</time></trkpt><trkpt lat="43.03405796898638" lon="12.147913221227745"><ele>347.0</ele><time>2026-03-29T07:30:59Z</time></trkpt><trkpt lat="43.03413705236426" lon="12.1477874049582"><ele>347.0</ele><time>2026-03-29T07:31:00Z</time></trkpt><trkpt lat="43.03416346205684" lon="12.14766157148366"><ele>347.0</ele><time>2026-03-29T07:31:01Z</time></trkpt><trkpt lat="43.034146693923994" lon="12.147542065209805"><ele>347.0</ele><time>2026-03-29T07:31:02Z</time></trkpt><trkpt lat="43.03409501248535" lon="12.147445133163748"><ele>347.0</ele><time>2026-03-29T07:31:03Z</time></trkpt><trkpt lat="43.03409385766018" lon="12.147298290197316"><ele>347.0</ele><time>2026-03-29T07:31:05Z</time></trkpt><trkpt lat="43.03414081780382" lon="12.147222728483218"><ele>347.0</ele><time>2026-03-29T07:31:08Z</time></trkpt><trkpt lat="43.034214378003206" lon="12.147091013168318"><ele>347.0</ele><time>2026-03-29T07:31:30Z</time></trkpt><trkpt lat="43.034261998439284" lon="12.147014642141269"><ele>348.5</ele><time>2026-03-29T07:31:31Z</time></trkpt><trkpt lat="43.03431996605801" lon="12.146920237348999"><ele>350.0</ele><time>2026-03-29T07:31:32Z</time></trkpt><trkpt lat="43.03438805551034" lon="12.146843139499161"><ele>351.5</ele><time>2026-03-29T07:31:33Z</time></trkpt><trkpt lat="43.03446824128416" lon="12.146781425227624"><ele>353.0</ele><time>2026-03-29T07:31:34Z</time></trkpt><trkpt lat="43.034545848031435" lon="12.146734606877713"><ele>354.5</ele><time>2026-03-29T07:31:35Z</time></trkpt><trkpt lat="43.03462132720636" lon="12.146686125306651"><ele>356.0</ele><time>2026-03-29T07:31:36Z</time></trkpt><trkpt lat="43.03470757634812" lon="12.146639499371235"><ele>356.0</ele><time>2026-03-29T07:31:37Z</time></trkpt><trkpt lat="43.034796981161136" lon="12.146586352803011"><ele>356.0</ele><time>2026-03-29T07:31:38Z</time></trkpt><trkpt lat="43.03492240366088" lon="12.14651740187063"><ele>356.0</ele><time>2026-03-29T07:31:39Z</time></trkpt><trkpt lat="43.03504436488103" lon="12.146428464026599"><ele>356.0</ele><time>2026-03-29T07:31:40Z</time></trkpt><trkpt lat="43.03515643988479" lon="12.146330754467446"><ele>358.75</ele><time>2026-03-29T07:31:41Z</time></trkpt><trkpt lat="43.03527299865348" lon="12.146194743105253"><ele>361.5</ele><time>2026-03-29T07:31:42Z</time></trkpt><trkpt lat="43.03539272638572" lon="12.146087613595315"><ele>364.25</ele><time>2026-03-29T07:31:43Z</time></trkpt><trkpt lat="43.03551059867822" lon="12.145991932695987"><ele>367.0</ele><time>2026-03-29T07:31:44Z</time></trkpt><trkpt lat="43.03560943966581" lon="12.145906344638774"><ele>367.0</ele><time>2026-03-29T07:31:45Z</time></trkpt><trkpt lat="43.03568962266917" lon="12.145839573747802"><ele>367.0</ele><time>2026-03-29T07:31:46Z</time></trkpt><trkpt lat="43.035745047689176" lon="12.145729208002791"><ele>367.0</ele><time>2026-03-29T07:31:47Z</time></trkpt><trkpt lat="43.03577446832246" lon="12.145627176568437"><ele>367.0</ele><time>2026-03-29T07:31:48Z</time></trkpt><trkpt lat="43.03571695233591" lon="12.145527513129222"><ele>367.0</ele><time>2026-03-29T07:31:49Z</time></trkpt><trkpt lat="43.03567005330481" lon="12.145452639598139"><ele>367.0</ele><time>2026-03-29T07:31:50Z</time></trkpt><trkpt lat="43.03561882200688" lon="12.1453923203332"><ele>367.0</ele><time>2026-03-29T07:31:51Z</time></trkpt><trkpt lat="43.03548107837602" lon="12.145288332825698"><ele>367.0</ele><time>2026-03-29T07:31:52Z</time></trkpt><trkpt lat="43.03537728815645" lon="12.145199253084183"><ele>367.0</ele><time>2026-03-29T07:31:53Z</time></trkpt><trkpt lat="43.03534357530507" lon="12.145094178521585"><ele>367.0</ele><time>2026-03-29T07:31:54Z</time></trkpt><trkpt lat="43.03536801418485" lon="12.144974098552323"><ele>368.5</ele><time>2026-03-29T07:31:55Z</time></trkpt><trkpt lat="43.03538897127914" lon="12.14486260173944"><ele>370.0</ele><time>2026-03-29T07:31:56Z</time></trkpt><trkpt lat="43.03546129607328" lon="12.14477351504312"><ele>371.5</ele><time>2026-03-29T07:31:57Z</time></trkpt><trkpt lat="43.035519170680274" lon="12.144719195806159"><ele>373.0</ele><time>2026-03-29T07:31:58Z</time></trkpt><trkpt lat="43.03556244913037" lon="12.144651279317433"><ele>374.5</ele><time>2026-03-29T07:31:59Z</time></trkpt><trkpt lat="43.03563880361951" lon="12.144510409687543"><ele>376.0</ele><time>2026-03-29T07:32:01Z</time></trkpt><trkpt lat="43.035658749710805" lon="12.14442481009103"><ele>376.0</ele><time>2026-03-29T07:32:02Z</time></trkpt><trkpt lat="43.035706243307324" lon="12.14433942545401"><ele>376.0</ele><time>2026-03-29T07:32:03Z</time></trkpt><trkpt lat="43.03573920591342" lon="12.144244875963954"><ele>376.0</ele><time>2026-03-29T07:32:04Z</time></trkpt><trkpt lat="43.03577867064456" lon="12.144161388390247"><ele>376.0</ele><time>2026-03-29T07:32:05Z</time></trkpt><trkpt lat="43.035822448741655" lon="12.144053628169512"><ele>376.0</ele><time>2026-03-29T07:32:06Z</time></trkpt><trkpt lat="43.03586677341932" lon="12.143966809532834"><ele>376.0</ele><time>2026-03-29T07:32:07Z</time></trkpt><trkpt lat="43.03590855680234" lon="12.143878081623408"><ele>378.8333333333333</ele><time>2026-03-29T07:32:08Z</time></trkpt><trkpt lat="43.03596143858177" lon="12.143792702921678"><ele>381.66666666666663</ele><time>2026-03-29T07:32:09Z</time></trkpt><trkpt lat="43.035991441088385" lon="12.14370189458029"><ele>384.5</ele><time>2026-03-29T07:32:10Z</time></trkpt><trkpt lat="43.0360143403982" lon="12.143600506748873"><ele>387.3333333333333</ele><time>2026-03-29T07:32:11Z</time></trkpt><trkpt lat="43.03604177378824" lon="12.143506090545351"><ele>390.1666666666667</ele><time>2026-03-29T07:32:12Z</time></trkpt><trkpt lat="43.036065353114644" lon="12.14340251570195"><ele>393.0</ele><time>2026-03-29T07:32:13Z</time></trkpt><trkpt lat="43.03608966606083" lon="12.143299354448912"><ele>396.59999999999997</ele><time>2026-03-29T07:32:14Z</time></trkpt><trkpt lat="43.03611237026747" lon="12.14320960276088"><ele>400.2</ele><time>2026-03-29T07:32:15Z</time></trkpt><trkpt lat="43.036137959282364" lon="12.14311456181597"><ele>403.8</ele><time>2026-03-29T07:32:16Z</time></trkpt><trkpt lat="43.03620089407196" lon="12.14297019944874"><ele>407.4</ele><time>2026-03-29T07:32:18Z</time></trkpt><trkpt lat="43.03625269967742" lon="12.142810059401727"><ele>411.0</ele><time>2026-03-29T07:32:20Z</time></trkpt><trkpt lat="43.036276299789925" lon="12.14272854473973"><ele>411.0</ele><time>2026-03-29T07:32:21Z</time></trkpt><trkpt lat="43.03632796265588" lon="12.142611104635641"><ele>411.0</ele><time>2026-03-29T07:32:23Z</time></trkpt><trkpt lat="43.036420788905296" lon="12.142641773248606"><ele>411.0</ele><time>2026-03-29T07:32:25Z</time></trkpt><trkpt lat="43.03633012421741" lon="12.142481385509463"><ele>411.0</ele><time>2026-03-29T07:32:49Z</time></trkpt><trkpt lat="43.03627754038231" lon="12.142381280514673"><ele>411.0</ele><time>2026-03-29T07:32:50Z</time></trkpt><trkpt lat="43.03623121587181" lon="12.142300317938126"><ele>414.8</ele><time>2026-03-29T07:32:51Z</time></trkpt><trkpt lat="43.03625188770865" lon="12.142102311919352"><ele>418.6</ele><time>2026-03-29T07:32:53Z</time></trkpt><trkpt lat="43.03628620166872" lon="12.141987623821073"><ele>422.4</ele><time>2026-03-29T07:32:54Z</time></trkpt><trkpt lat="43.036312810052586" lon="12.14186869883986"><ele>426.2</ele><time>2026-03-29T07:32:55Z</time></trkpt><trkpt lat="43.03634717192875" lon="12.141764247965812"><ele>430.0</ele><time>2026-03-29T07:32:56Z</time></trkpt><trkpt lat="43.036407064001196" lon="12.141685498675848"><ele>430.0</ele><time>2026-03-29T07:32:57Z</time></trkpt><trkpt lat="43.03644762928205" lon="12.141603339838483"><ele>430.0</ele><time>2026-03-29T07:32:58Z</time></trkpt><trkpt lat="43.03648819309428" lon="12.14151561616891"><ele>430.0</ele><time>2026-03-29T07:32:59Z</time></trkpt><trkpt lat="43.03648623395185" lon="12.1413974826202"><ele>430.0</ele><time>2026-03-29T07:33:01Z</time></trkpt><trkpt lat="43.03645545013916" lon="12.141293204077746"><ele>430.0</ele><time>2026-03-29T07:33:03Z</time></trkpt><trkpt lat="43.03638200315954" lon="12.141132841257182"><ele>431.50000000000006</ele><time>2026-03-29T07:33:05Z</time></trkpt><trkpt lat="43.03634837513041" lon="12.141017429198053"><ele>433.0</ele><time>2026-03-29T07:33:06Z</time></trkpt><trkpt lat="43.036319395972725" lon="12.140915428134075"><ele>434.5</ele><time>2026-03-29T07:33:07Z</time></trkpt><trkpt lat="43.03629949284149" lon="12.140827828698377"><ele>436.0</ele><time>2026-03-29T07:33:08Z</time></trkpt><trkpt lat="43.03629132230327" lon="12.140724563853427"><ele>437.50000000000006</ele><time>2026-03-29T07:33:09Z</time></trkpt><trkpt lat="43.03628652049891" lon="12.140607782541787"><ele>439.0</ele><time>2026-03-29T07:33:10Z</time></trkpt><trkpt lat="43.03625769467738" lon="12.140439518454171"><ele>439.0</ele><time>2026-03-29T07:33:12Z</time></trkpt><trkpt lat="43.03620307825306" lon="12.140356146125688"><ele>439.0</ele><time>2026-03-29T07:33:14Z</time></trkpt><trkpt lat="43.036161441395855" lon="12.140287001581468"><ele>439.0</ele><time>2026-03-29T07:33:17Z</time></trkpt><trkpt lat="43.036319324787044" lon="12.140097767125946"><ele>439.0</ele><time>2026-03-29T07:49:27Z</time></trkpt><trkpt lat="43.036153120161536" lon="12.140246114507509"><ele>439.00000000000006</ele><time>2026-03-29T07:49:29Z</time></trkpt><trkpt lat="43.0361397586417" lon="12.140161689647007"><ele>439.0</ele><time>2026-03-29T07:52:27Z</time></trkpt><trkpt lat="43.036087720586764" lon="12.140064351188961"><ele>439.0</ele><time>2026-03-29T07:52:29Z</time></trkpt><trkpt lat="43.03601894724861" lon="12.139953806787695"><ele>439.0</ele><time>2026-03-29T07:52:31Z</time></trkpt><trkpt lat="43.03596740065842" lon="12.139894529490006"><ele>439.00000000000006</ele><time>2026-03-29T07:52:33Z</time></trkpt><trkpt lat="43.03591193204798" lon="12.139753805679788"><ele>439.0</ele><time>2026-03-29T07:52:35Z</time></trkpt><trkpt lat="43.03591393277146" lon="12.139666211677454"><ele>439.1666666666667</ele><time>2026-03-29T07:52:36Z</time></trkpt><trkpt lat="43.03590530267017" lon="12.139568997393956"><ele>439.33333333333337</ele><time>2026-03-29T07:52:37Z</time></trkpt><trkpt lat="43.03589173855672" lon="12.139461553374918"><ele>439.5</ele><time>2026-03-29T07:52:38Z</time></trkpt><trkpt lat="43.035886761166665" lon="12.139322322740952"><ele>439.66666666666663</ele><time>2026-03-29T07:52:39Z</time></trkpt><trkpt lat="43.03587473145101" lon="12.13918752341773"><ele>439.8333333333333</ele><time>2026-03-29T07:52:40Z</time></trkpt><trkpt lat="43.03586520293242" lon="12.139057273798043"><ele>440.0</ele><time>2026-03-29T07:52:41Z</time></trkpt><trkpt lat="43.035875197827295" lon="12.138949173153977"><ele>439.99999999999994</ele><time>2026-03-29T07:52:42Z</time></trkpt><trkpt lat="43.03588085924573" lon="12.138854564431458"><ele>440.0</ele><time>2026-03-29T07:52:43Z</time></trkpt><trkpt lat="43.035861365720926" lon="12.13875447443264"><ele>440.0</ele><time>2026-03-29T07:52:44Z</time></trkpt><trkpt lat="43.03582806603653" lon="12.138666229141505"><ele>440.0</ele><time>2026-03-29T07:52:45Z</time></trkpt><trkpt lat="43.0358038571776" lon="12.138572651029746"><ele>439.99999999999994</ele><time>2026-03-29T07:52:46Z</time></trkpt><trkpt lat="43.03579993701527" lon="12.138483574486996"><ele>440.0</ele><time>2026-03-29T07:52:47Z</time></trkpt><trkpt lat="43.035921022547946" lon="12.138419557581862"><ele>439.99999999999994</ele><time>2026-03-29T07:52:51Z</time></trkpt><trkpt lat="43.036011062487944" lon="12.138431509923318"><ele>440.0</ele><time>2026-03-29T07:52:53Z</time></trkpt><trkpt lat="43.03607781090979" lon="12.138392683226591"><ele>440.0</ele><time>2026-03-29T07:52:55Z</time></trkpt><trkpt lat="43.03616353807059" lon="12.138346357190896"><ele>440.0</ele><time>2026-03-29T07:52:57Z</time></trkpt><trkpt lat="43.03620725637818" lon="12.138281851388623"><ele>439.99999999999994</ele><time>2026-03-29T07:52:59Z</time></trkpt><trkpt lat="43.03622960537287" lon="12.138196783823725"><ele>440.0</ele><time>2026-03-29T07:53:01Z</time></trkpt><trkpt lat="43.03623479315359" lon="12.138085632900632"><ele>443.0</ele><time>2026-03-29T07:53:04Z</time></trkpt><trkpt lat="43.036209983680465" lon="12.137963021362392"><ele>446.0</ele><time>2026-03-29T07:53:07Z</time></trkpt><trkpt lat="43.036167273363866" lon="12.13785113855572"><ele>449.0</ele><time>2026-03-29T07:53:10Z</time></trkpt><trkpt lat="43.03614307935791" lon="12.137712501214814"><ele>452.0</ele><time>2026-03-29T07:53:12Z</time></trkpt><trkpt lat="43.03610887886396" lon="12.137560319936782"><ele>455.0</ele><time>2026-03-29T07:53:14Z</time></trkpt><trkpt lat="43.03607963687705" lon="12.137437952950501"><ele>457.0</ele><time>2026-03-29T07:53:16Z</time></trkpt><trkpt lat="43.03610635404515" lon="12.137298818050134"><ele>459.0</ele><time>2026-03-29T07:53:18Z</time></trkpt><trkpt lat="43.03610444480729" lon="12.137169922839643"><ele>461.0</ele><time>2026-03-29T07:53:20Z</time></trkpt><trkpt lat="43.03617701377849" lon="12.137069980223584"><ele>463.0</ele><time>2026-03-29T07:53:22Z</time></trkpt><trkpt lat="43.03622786298535" lon="12.137017986039979"><ele>465.0</ele><time>2026-03-29T07:53:23Z</time></trkpt><trkpt lat="43.0362998612048" lon="12.13686455940532"><ele>465.0</ele><time>2026-03-29T07:53:25Z</time></trkpt><trkpt lat="43.03632296471577" lon="12.13671511211277"><ele>465.0</ele><time>2026-03-29T07:53:27Z</time></trkpt><trkpt lat="43.0363249712212" lon="12.136554470322746"><ele>465.0</ele><time>2026-03-29T07:53:29Z</time></trkpt><trkpt lat="43.036317285350094" lon="12.136453873945184"><ele>465.0</ele><time>2026-03-29T07:53:30Z</time></trkpt><trkpt lat="43.036319131023106" lon="12.136356536646888"><ele>465.0</ele><time>2026-03-29T07:53:31Z</time></trkpt><trkpt lat="43.03628367552831" lon="12.136245954622355"><ele>464.5</ele><time>2026-03-29T07:53:32Z</time></trkpt><trkpt lat="43.03627978685868" lon="12.136151462165284"><ele>464.0</ele><time>2026-03-29T07:53:33Z</time></trkpt><trkpt lat="43.03623964101636" lon="12.136057024828423"><ele>463.5</ele><time>2026-03-29T07:53:35Z</time></trkpt><trkpt lat="43.03627281262559" lon="12.135975718406927"><ele>463.0</ele><time>2026-03-29T07:53:36Z</time></trkpt><trkpt lat="43.036252396012245" lon="12.13577033407325"><ele>462.5</ele><time>2026-03-29T07:53:38Z</time></trkpt><trkpt lat="43.036290854356565" lon="12.135678771428166"><ele>462.0</ele><time>2026-03-29T07:53:41Z</time></trkpt><trkpt lat="43.036255433041084" lon="12.135601374954573"><ele>460.5</ele><time>2026-03-29T07:53:43Z</time></trkpt><trkpt lat="43.036224618156" lon="12.135464508105542"><ele>459.0</ele><time>2026-03-29T07:53:46Z</time></trkpt><trkpt lat="43.03613631386845" lon="12.135467422742988"><ele>457.5</ele><time>2026-03-29T07:53:49Z</time></trkpt><trkpt lat="43.03607391578997" lon="12.135445959934986"><ele>456.0</ele><time>2026-03-29T07:53:52Z</time></trkpt><trkpt lat="43.035985124747114" lon="12.135470823844773"><ele>454.5</ele><time>2026-03-29T07:53:55Z</time></trkpt><trkpt lat="43.03592161436877" lon="12.135476982843958"><ele>453.0</ele><time>2026-03-29T07:53:58Z</time></trkpt><trkpt lat="43.035744567646574" lon="12.135536714852238"><ele>453.0</ele><time>2026-03-29T07:54:00Z</time></trkpt><trkpt lat="43.035607449938475" lon="12.135585715558225"><ele>453.0</ele><time>2026-03-29T07:54:01Z</time></trkpt><trkpt lat="43.03544512221891" lon="12.135646835564971"><ele>453.0</ele><time>2026-03-29T07:54:02Z</time></trkpt><trkpt lat="43.035305489992616" lon="12.13567590638147"><ele>453.0</ele><time>2026-03-29T07:54:03Z</time></trkpt><trkpt lat="43.035184734530255" lon="12.135677475412178"><ele>452.99999999999994</ele><time>2026-03-29T07:54:04Z</time></trkpt><trkpt lat="43.035109018267754" lon="12.135687088545483"><ele>452.99999999999994</ele><time>2026-03-29T07:54:06Z</time></trkpt><trkpt lat="43.03507080065267" lon="12.135771362224114"><ele>453.0</ele><time>2026-03-29T07:54:07Z</time></trkpt><trkpt lat="43.03509569718458" lon="12.135945395823665"><ele>453.0</ele><time>2026-03-29T07:54:09Z</time></trkpt><trkpt lat="43.0350909009041" lon="12.13604718453417"><ele>453.1666666666667</ele><time>2026-03-29T07:54:10Z</time></trkpt><trkpt lat="43.03507558075269" lon="12.136135410383202"><ele>453.33333333333337</ele><time>2026-03-29T07:54:11Z</time></trkpt><trkpt lat="43.0350339569147" lon="12.136261911088301"><ele>453.5</ele><time>2026-03-29T07:54:13Z</time></trkpt><trkpt lat="43.03497627739293" lon="12.136372291173169"><ele>453.6666666666667</ele><time>2026-03-29T07:54:15Z</time></trkpt><trkpt lat="43.03491445664761" lon="12.136489795213539"><ele>453.83333333333337</ele><time>2026-03-29T07:54:17Z</time></trkpt><trkpt lat="43.034891738849716" lon="12.136575101161199"><ele>454.0</ele><time>2026-03-29T07:54:18Z</time></trkpt><trkpt lat="43.0348521698119" lon="12.136660504647557"><ele>457.0</ele><time>2026-03-29T07:54:19Z</time></trkpt><trkpt lat="43.034762003018244" lon="12.136769178569947"><ele>460.0</ele><time>2026-03-29T07:54:21Z</time></trkpt><trkpt lat="43.034674320178944" lon="12.136869023441617"><ele>463.0</ele><time>2026-03-29T07:54:23Z</time></trkpt><trkpt lat="43.034579353932145" lon="12.136986014111011"><ele>466.0</ele><time>2026-03-29T07:54:25Z</time></trkpt><trkpt lat="43.03451299752787" lon="12.137112136255604"><ele>466.00000000000006</ele><time>2026-03-29T07:54:27Z</time></trkpt><trkpt lat="43.03446263958987" lon="12.137203596735176"><ele>466.0</ele><time>2026-03-29T07:54:28Z</time></trkpt><trkpt lat="43.03441355023168" lon="12.137291616461992"><ele>466.0</ele><time>2026-03-29T07:54:29Z</time></trkpt><trkpt lat="43.03436267891549" lon="12.13738240741895"><ele>466.0</ele><time>2026-03-29T07:54:30Z</time></trkpt><trkpt lat="43.034314839585285" lon="12.137454866025431"><ele>466.00000000000006</ele><time>2026-03-29T07:54:31Z</time></trkpt><trkpt lat="43.03421164059631" lon="12.137545253990625"><ele>466.0</ele><time>2026-03-29T07:54:33Z</time></trkpt><trkpt lat="43.034114230929916" lon="12.137604879803067"><ele>466.20000000000005</ele><time>2026-03-29T07:54:34Z</time></trkpt><trkpt lat="43.03401843243728" lon="12.137678827281272"><ele>466.40000000000003</ele><time>2026-03-29T07:54:35Z</time></trkpt><trkpt lat="43.0339408676342" lon="12.137711317169188"><ele>466.6</ele><time>2026-03-29T07:54:36Z</time></trkpt><trkpt lat="43.033858647880976" lon="12.137748836361716"><ele>466.8</ele><time>2026-03-29T07:54:37Z</time></trkpt><trkpt lat="43.03376273037225" lon="12.137794907970571"><ele>467.0</ele><time>2026-03-29T07:54:38Z</time></trkpt><trkpt lat="43.03366466161482" lon="12.137819843908586"><ele>467.0</ele><time>2026-03-29T07:54:39Z</time></trkpt><trkpt lat="43.03357260083766" lon="12.137855633335237"><ele>467.00000000000006</ele><time>2026-03-29T07:54:40Z</time></trkpt><trkpt lat="43.03347092672584" lon="12.13790275536962"><ele>467.00000000000006</ele><time>2026-03-29T07:54:41Z</time></trkpt><trkpt lat="43.03338857191596" lon="12.13792306620841"><ele>467.0</ele><time>2026-03-29T07:54:42Z</time></trkpt><trkpt lat="43.03328542985484" lon="12.137921891435148"><ele>467.0</ele><time>2026-03-29T07:54:43Z</time></trkpt><trkpt lat="43.0331937853481" lon="12.137922849229424"><ele>465.16666666666663</ele><time>2026-03-29T07:54:44Z</time></trkpt><trkpt lat="43.033101371215636" lon="12.137918857368684"><ele>463.3333333333333</ele><time>2026-03-29T07:54:45Z</time></trkpt><trkpt lat="43.032993616027916" lon="12.13792902102985"><ele>461.5</ele><time>2026-03-29T07:54:46Z</time></trkpt><trkpt lat="43.032922186568854" lon="12.137967063043154"><ele>459.66666666666663</ele><time>2026-03-29T07:54:47Z</time></trkpt><trkpt lat="43.03284576017353" lon="12.13802503920023"><ele>457.8333333333333</ele><time>2026-03-29T07:54:48Z</time></trkpt><trkpt lat="43.032802676702204" lon="12.138088266992181"><ele>456.0</ele><time>2026-03-29T07:54:49Z</time></trkpt><trkpt lat="43.032742772895226" lon="12.13812285163835"><ele>456.0</ele><time>2026-03-29T07:54:50Z</time></trkpt><trkpt lat="43.03265175741894" lon="12.138171181964362"><ele>456.0</ele><time>2026-03-29T07:54:51Z</time></trkpt><trkpt lat="43.032583677039355" lon="12.138270879757753"><ele>456.0</ele><time>2026-03-29T07:54:52Z</time></trkpt><trkpt lat="43.032519133285156" lon="12.138360744895804"><ele>456.0</ele><time>2026-03-29T07:54:54Z</time></trkpt><trkpt lat="43.03244009243612" lon="12.138439539952738"><ele>456.0</ele><time>2026-03-29T07:54:55Z</time></trkpt><trkpt lat="43.03238299933245" lon="12.138594347811194"><ele>455.3333333333333</ele><time>2026-03-29T07:54:57Z</time></trkpt><trkpt lat="43.03231401435438" lon="12.138643228207599"><ele>454.66666666666663</ele><time>2026-03-29T07:54:58Z</time></trkpt><trkpt lat="43.03224641670944" lon="12.13870938631469"><ele>454.0</ele><time>2026-03-29T07:54:59Z</time></trkpt><trkpt lat="43.03214471914772" lon="12.138850583798819"><ele>453.3333333333333</ele><time>2026-03-29T07:55:01Z</time></trkpt><trkpt lat="43.03209912895134" lon="12.138923708024867"><ele>452.66666666666663</ele><time>2026-03-29T07:55:02Z</time></trkpt><trkpt lat="43.03204606756338" lon="12.138985969049035"><ele>452.0</ele><time>2026-03-29T07:55:03Z</time></trkpt><trkpt lat="43.03199404816559" lon="12.139073689750921"><ele>452.0</ele><time>2026-03-29T07:55:04Z</time></trkpt><trkpt lat="43.03192582315391" lon="12.139127172206809"><ele>452.0</ele><time>2026-03-29T07:55:05Z</time></trkpt><trkpt lat="43.031866172594164" lon="12.1391941315429"><ele>452.0</ele><time>2026-03-29T07:55:06Z</time></trkpt><trkpt lat="43.03181201919059" lon="12.13924237961745"><ele>452.0</ele><time>2026-03-29T07:55:07Z</time></trkpt><trkpt lat="43.03175383980531" lon="12.139278849939101"><ele>452.0</ele><time>2026-03-29T07:55:08Z</time></trkpt><trkpt lat="43.03168911817706" lon="12.139301352193675"><ele>452.0</ele><time>2026-03-29T07:55:09Z</time></trkpt><trkpt lat="43.03162195572373" lon="12.13930031302753"><ele>452.0</ele><time>2026-03-29T07:55:10Z</time></trkpt><trkpt lat="43.03155642712489" lon="12.139341985236307"><ele>450.66666666666663</ele><time>2026-03-29T07:55:11Z</time></trkpt><trkpt lat="43.031485900596856" lon="12.139349246161872"><ele>449.3333333333333</ele><time>2026-03-29T07:55:12Z</time></trkpt><trkpt lat="43.03142051665738" lon="12.13936197990004"><ele>448.0</ele><time>2026-03-29T07:55:13Z</time></trkpt><trkpt lat="43.031358610239806" lon="12.139379667859282"><ele>446.66666666666663</ele><time>2026-03-29T07:55:14Z</time></trkpt><trkpt lat="43.03123211157816" lon="12.139394412689622"><ele>445.3333333333333</ele><time>2026-03-29T07:55:16Z</time></trkpt><trkpt lat="43.031160611658485" lon="12.139404612443418"><ele>444.0</ele><time>2026-03-29T07:55:17Z</time></trkpt><trkpt lat="43.031071722530626" lon="12.139415609038176"><ele>444.0</ele><time>2026-03-29T07:55:18Z</time></trkpt><trkpt lat="43.03100169985775" lon="12.139444425572977"><ele>444.0</ele><time>2026-03-29T07:55:19Z</time></trkpt><trkpt lat="43.030859821102716" lon="12.139439546217343"><ele>444.0</ele><time>2026-03-29T07:55:21Z</time></trkpt><trkpt lat="43.030785657999715" lon="12.139461979549523"><ele>444.0</ele><time>2026-03-29T07:55:22Z</time></trkpt><trkpt lat="43.03070107900604" lon="12.139457766146569"><ele>444.0</ele><time>2026-03-29T07:55:23Z</time></trkpt><trkpt lat="43.03060658421107" lon="12.139466694970883"><ele>442.8333333333333</ele><time>2026-03-29T07:55:24Z</time></trkpt><trkpt lat="43.03052329443004" lon="12.139485972581491"><ele>441.66666666666663</ele><time>2026-03-29T07:55:25Z</time></trkpt><trkpt lat="43.0304525730486" lon="12.13949694628534"><ele>440.5</ele><time>2026-03-29T07:55:26Z</time></trkpt><trkpt lat="43.030387002467535" lon="12.139519459545173"><ele>439.3333333333333</ele><time>2026-03-29T07:55:27Z</time></trkpt><trkpt lat="43.03032294630808" lon="12.139512090781253"><ele>438.16666666666663</ele><time>2026-03-29T07:55:28Z</time></trkpt><trkpt lat="43.030204352352406" lon="12.139564544523791"><ele>437.0</ele><time>2026-03-29T07:55:30Z</time></trkpt><trkpt lat="43.030140632166784" lon="12.139589491659434"><ele>436.99999999999994</ele><time>2026-03-29T07:55:31Z</time></trkpt><trkpt lat="43.03008056765606" lon="12.139623090664843"><ele>437.0</ele><time>2026-03-29T07:55:32Z</time></trkpt><trkpt lat="43.03000619289319" lon="12.139654617564787"><ele>437.0</ele><time>2026-03-29T07:55:33Z</time></trkpt><trkpt lat="43.0299266000996" lon="12.139693717162011"><ele>437.0</ele><time>2026-03-29T07:55:34Z</time></trkpt><trkpt lat="43.029850143813164" lon="12.139729335638986"><ele>436.99999999999994</ele><time>2026-03-29T07:55:35Z</time></trkpt><trkpt lat="43.02977279357715" lon="12.139773756925361"><ele>437.0</ele><time>2026-03-29T07:55:36Z</time></trkpt><trkpt lat="43.02969674599966" lon="12.139815506135497"><ele>436.99999999999994</ele><time>2026-03-29T07:55:37Z</time></trkpt><trkpt lat="43.029614247943705" lon="12.13986213001085"><ele>437.0</ele><time>2026-03-29T07:55:38Z</time></trkpt><trkpt lat="43.02952688951809" lon="12.139900959049262"><ele>437.0</ele><time>2026-03-29T07:55:39Z</time></trkpt><trkpt lat="43.02945574685064" lon="12.139934925033659"><ele>437.0</ele><time>2026-03-29T07:55:40Z</time></trkpt><trkpt lat="43.02938103923496" lon="12.139968143008574"><ele>436.99999999999994</ele><time>2026-03-29T07:55:41Z</time></trkpt><trkpt lat="43.02930080882702" lon="12.140020463819637"><ele>437.0</ele><time>2026-03-29T07:55:42Z</time></trkpt><trkpt lat="43.029213575676046" lon="12.140064033429129"><ele>436.16666666666663</ele><time>2026-03-29T07:55:43Z</time></trkpt><trkpt lat="43.0291372631779" lon="12.14009487466388"><ele>435.3333333333333</ele><time>2026-03-29T07:55:44Z</time></trkpt><trkpt lat="43.0290599700102" lon="12.140131233891472"><ele>434.5</ele><time>2026-03-29T07:55:45Z</time></trkpt><trkpt lat="43.028984404222406" lon="12.14015491561208"><ele>433.66666666666663</ele><time>2026-03-29T07:55:46Z</time></trkpt><trkpt lat="43.02890952473619" lon="12.140175914135916"><ele>432.8333333333333</ele><time>2026-03-29T07:55:47Z</time></trkpt><trkpt lat="43.02883145092887" lon="12.140211678998698"><ele>432.0</ele><time>2026-03-29T07:55:48Z</time></trkpt><trkpt lat="43.02875862809074" lon="12.140263221699872"><ele>432.0</ele><time>2026-03-29T07:55:49Z</time></trkpt><trkpt lat="43.02867748557944" lon="12.140322971610892"><ele>432.00000000000006</ele><time>2026-03-29T07:55:50Z</time></trkpt><trkpt lat="43.0285957259178" lon="12.140371041697907"><ele>432.00000000000006</ele><time>2026-03-29T07:55:51Z</time></trkpt><trkpt lat="43.0285079959274" lon="12.140406549228027"><ele>432.0</ele><time>2026-03-29T07:55:52Z</time></trkpt><trkpt lat="43.02841952048204" lon="12.140445792647252"><ele>432.0</ele><time>2026-03-29T07:55:53Z</time></trkpt><trkpt lat="43.02833995528956" lon="12.140493222718897"><ele>431.8333333333333</ele><time>2026-03-29T07:55:54Z</time></trkpt><trkpt lat="43.02825955232028" lon="12.140531878299768"><ele>431.66666666666663</ele><time>2026-03-29T07:55:55Z</time></trkpt><trkpt lat="43.02817746821461" lon="12.140547838729383"><ele>431.5</ele><time>2026-03-29T07:55:56Z</time></trkpt><trkpt lat="43.02809492367023" lon="12.14055551359284"><ele>431.3333333333333</ele><time>2026-03-29T07:55:57Z</time></trkpt><trkpt lat="43.02801875923099" lon="12.140536737105288"><ele>431.16666666666663</ele><time>2026-03-29T07:55:58Z</time></trkpt><trkpt lat="43.02793130904084" lon="12.140501842944655"><ele>431.0</ele><time>2026-03-29T07:55:59Z</time></trkpt><trkpt lat="43.027846367167434" lon="12.14048158748506"><ele>430.99999999999994</ele><time>2026-03-29T07:56:00Z</time></trkpt><trkpt lat="43.027779473557025" lon="12.140452740207103"><ele>431.0</ele><time>2026-03-29T07:56:01Z</time></trkpt><trkpt lat="43.02770972322542" lon="12.140435535269276"><ele>431.0</ele><time>2026-03-29T07:56:02Z</time></trkpt><trkpt lat="43.02763255288303" lon="12.14041879162028"><ele>431.0</ele><time>2026-03-29T07:56:03Z</time></trkpt><trkpt lat="43.02754686280597" lon="12.14040888352171"><ele>430.99999999999994</ele><time>2026-03-29T07:56:04Z</time></trkpt><trkpt lat="43.02746500388676" lon="12.140378515856984"><ele>431.0</ele><time>2026-03-29T07:56:05Z</time></trkpt><trkpt lat="43.02737922729786" lon="12.140371183572668"><ele>431.14285714285717</ele><time>2026-03-29T07:56:06Z</time></trkpt><trkpt lat="43.02729750224774" lon="12.140350211192578"><ele>431.2857142857143</ele><time>2026-03-29T07:56:07Z</time></trkpt><trkpt lat="43.027211521906054" lon="12.140331130530464"><ele>431.42857142857144</ele><time>2026-03-29T07:56:08Z</time></trkpt><trkpt lat="43.02713678804787" lon="12.140309995458175"><ele>431.57142857142856</ele><time>2026-03-29T07:56:09Z</time></trkpt><trkpt lat="43.0270716878885" lon="12.140293282178586"><ele>431.71428571428567</ele><time>2026-03-29T07:56:10Z</time></trkpt><trkpt lat="43.02700500104188" lon="12.140281221406878"><ele>431.85714285714283</ele><time>2026-03-29T07:56:11Z</time></trkpt><trkpt lat="43.026946598190676" lon="12.140234174616815"><ele>432.0</ele><time>2026-03-29T07:56:14Z</time></trkpt><trkpt lat="43.02691093668467" lon="12.140018024253036"><ele>429.40000000000003</ele><time>2026-03-29T07:56:16Z</time></trkpt><trkpt lat="43.0268874131042" lon="12.139817146645294"><ele>426.80000000000007</ele><time>2026-03-29T07:56:18Z</time></trkpt><trkpt lat="43.02688500246988" lon="12.139710435154779"><ele>424.2</ele><time>2026-03-29T07:56:19Z</time></trkpt><trkpt lat="43.0268744719374" lon="12.139585619437787"><ele>421.6</ele><time>2026-03-29T07:56:20Z</time></trkpt><trkpt lat="43.02686478323048" lon="12.139458903707823"><ele>419.0</ele><time>2026-03-29T07:56:21Z</time></trkpt><trkpt lat="43.02686486161304" lon="12.13932428802215"><ele>419.0</ele><time>2026-03-29T07:56:22Z</time></trkpt><trkpt lat="43.02685818423421" lon="12.139182374037407"><ele>419.0</ele><time>2026-03-29T07:56:23Z</time></trkpt><trkpt lat="43.02685490544585" lon="12.139036349404774"><ele>419.0</ele><time>2026-03-29T07:56:24Z</time></trkpt><trkpt lat="43.02685691819353" lon="12.138891880437694"><ele>419.0</ele><time>2026-03-29T07:56:25Z</time></trkpt><trkpt lat="43.02686288351962" lon="12.138760638673938"><ele>419.0</ele><time>2026-03-29T07:56:26Z</time></trkpt><trkpt lat="43.02685981937168" lon="12.138634181837602"><ele>416.79999999999995</ele><time>2026-03-29T07:56:27Z</time></trkpt><trkpt lat="43.026839629559525" lon="12.138516464351342"><ele>414.59999999999997</ele><time>2026-03-29T07:56:28Z</time></trkpt><trkpt lat="43.02682046079794" lon="12.138394735032204"><ele>412.4</ele><time>2026-03-29T07:56:29Z</time></trkpt><trkpt lat="43.02682015645279" lon="12.138260566389215"><ele>410.2</ele><time>2026-03-29T07:56:30Z</time></trkpt><trkpt lat="43.02681884845506" lon="12.138133477776513"><ele>408.0</ele><time>2026-03-29T07:56:31Z</time></trkpt><trkpt lat="43.02681399272101" lon="12.138008302497763"><ele>406.8333333333333</ele><time>2026-03-29T07:56:32Z</time></trkpt><trkpt lat="43.026811641233245" lon="12.137895498093398"><ele>405.66666666666663</ele><time>2026-03-29T07:56:33Z</time></trkpt><trkpt lat="43.02684443800767" lon="12.137782048129528"><ele>404.5</ele><time>2026-03-29T07:56:34Z</time></trkpt><trkpt lat="43.026864732229356" lon="12.137660562298604"><ele>403.3333333333333</ele><time>2026-03-29T07:56:35Z</time></trkpt><trkpt lat="43.026867477391605" lon="12.137563367545484"><ele>402.16666666666663</ele><time>2026-03-29T07:56:36Z</time></trkpt><trkpt lat="43.02686029496298" lon="12.137458785282309"><ele>401.0</ele><time>2026-03-29T07:56:37Z</time></trkpt><trkpt lat="43.02683387946364" lon="12.137293994343445"><ele>399.4</ele><time>2026-03-29T07:56:39Z</time></trkpt><trkpt lat="43.02683221733581" lon="12.137167224644571"><ele>397.8</ele><time>2026-03-29T07:56:41Z</time></trkpt><trkpt lat="43.026806151812266" lon="12.137046700501527"><ele>396.2</ele><time>2026-03-29T07:56:43Z</time></trkpt><trkpt lat="43.02676873611229" lon="12.136916668823176"><ele>394.59999999999997</ele><time>2026-03-29T07:56:45Z</time></trkpt><trkpt lat="43.026663490092204" lon="12.136845535275786"><ele>393.0</ele><time>2026-03-29T07:56:47Z</time></trkpt><trkpt lat="43.02655052893495" lon="12.13684930358114"><ele>391.2</ele><time>2026-03-29T07:56:49Z</time></trkpt><trkpt lat="43.02645323318618" lon="12.136759702121019"><ele>389.4</ele><time>2026-03-29T07:56:51Z</time></trkpt><trkpt lat="43.026348142362515" lon="12.136715366190753"><ele>387.59999999999997</ele><time>2026-03-29T07:56:53Z</time></trkpt><trkpt lat="43.02627762782533" lon="12.136685617366354"><ele>385.79999999999995</ele><time>2026-03-29T07:56:54Z</time></trkpt><trkpt lat="43.02625255582083" lon="12.136839574237465"><ele>384.0</ele><time>2026-03-29T07:56:55Z</time></trkpt><trkpt lat="43.02618107342275" lon="12.136826854088165"><ele>378.0</ele><time>2026-03-29T07:56:56Z</time></trkpt><trkpt lat="43.0260971853092" lon="12.136203062584325"><ele>378.0</ele><time>2026-03-29T07:56:58Z</time></trkpt><trkpt lat="43.02605765792575" lon="12.136083922063973"><ele>378.0</ele><time>2026-03-29T07:56:59Z</time></trkpt><trkpt lat="43.02599929558631" lon="12.135977277113312"><ele>378.0</ele><time>2026-03-29T07:57:00Z</time></trkpt><trkpt lat="43.02594073514646" lon="12.135866052472482"><ele>378.0</ele><time>2026-03-29T07:57:01Z</time></trkpt><trkpt lat="43.025885362678295" lon="12.135759595647828"><ele>378.0</ele><time>2026-03-29T07:57:02Z</time></trkpt><trkpt lat="43.025834936153416" lon="12.135648276001714"><ele>375.4</ele><time>2026-03-29T07:57:03Z</time></trkpt><trkpt lat="43.02578112505723" lon="12.135538735920466"><ele>372.79999999999995</ele><time>2026-03-29T07:57:04Z</time></trkpt><trkpt lat="43.02573481418782" lon="12.13543874051918"><ele>370.2</ele><time>2026-03-29T07:57:05Z</time></trkpt><trkpt lat="43.025691138801015" lon="12.13533749622227"><ele>367.6</ele><time>2026-03-29T07:57:06Z</time></trkpt><trkpt lat="43.02564389298967" lon="12.135233790538068"><ele>365.0</ele><time>2026-03-29T07:57:07Z</time></trkpt><trkpt lat="43.025606026490735" lon="12.135119754220318"><ele>365.0</ele><time>2026-03-29T07:57:08Z</time></trkpt><trkpt lat="43.02556332868849" lon="12.134982491309582"><ele>365.0</ele><time>2026-03-29T07:57:09Z</time></trkpt><trkpt lat="43.025506017827304" lon="12.13486274746488"><ele>365.0</ele><time>2026-03-29T07:57:10Z</time></trkpt><trkpt lat="43.02543631649328" lon="12.134713451206908"><ele>365.0</ele><time>2026-03-29T07:57:11Z</time></trkpt><trkpt lat="43.02537675619247" lon="12.13457600781918"><ele>364.25</ele><time>2026-03-29T07:57:12Z</time></trkpt><trkpt lat="43.02531715038855" lon="12.134447973086386"><ele>363.5</ele><time>2026-03-29T07:57:13Z</time></trkpt><trkpt lat="43.025253266285034" lon="12.134309271877697"><ele>362.75</ele><time>2026-03-29T07:57:14Z</time></trkpt><trkpt lat="43.02518784945777" lon="12.13417682941991"><ele>362.0</ele><time>2026-03-29T07:57:15Z</time></trkpt><trkpt lat="43.0251350107346" lon="12.134048215505821"><ele>360.40000000000003</ele><time>2026-03-29T07:57:16Z</time></trkpt><trkpt lat="43.025083579364356" lon="12.13392424441581"><ele>358.8</ele><time>2026-03-29T07:57:17Z</time></trkpt><trkpt lat="43.02503624833602" lon="12.133818378041294"><ele>357.2</ele><time>2026-03-29T07:57:18Z</time></trkpt><trkpt lat="43.02499068805111" lon="12.133713793476113"><ele>355.6</ele><time>2026-03-29T07:57:19Z</time></trkpt><trkpt lat="43.02494065349028" lon="12.133626765941521"><ele>354.0</ele><time>2026-03-29T07:57:20Z</time></trkpt><trkpt lat="43.02489053495555" lon="12.13353254857465"><ele>352.3333333333333</ele><time>2026-03-29T07:57:21Z</time></trkpt><trkpt lat="43.0248628362312" lon="12.133429058491217"><ele>350.6666666666667</ele><time>2026-03-29T07:57:22Z</time></trkpt><trkpt lat="43.02483085216965" lon="12.133330603841133"><ele>349.0</ele><time>2026-03-29T07:57:23Z</time></trkpt><trkpt lat="43.02475960068168" lon="12.133215638163277"><ele>347.33333333333337</ele><time>2026-03-29T07:57:25Z</time></trkpt><trkpt lat="43.02470720387315" lon="12.133128165328309"><ele>345.6666666666667</ele><time>2026-03-29T07:57:29Z</time></trkpt><trkpt lat="43.02465748524729" lon="12.133025158946621"><ele>344.0</ele><time>2026-03-29T07:57:32Z</time></trkpt><trkpt lat="43.024598143236126" lon="12.132921902355298"><ele>343.6666666666667</ele><time>2026-03-29T07:57:35Z</time></trkpt><trkpt lat="43.02440726513239" lon="12.132563386480644"><ele>343.3333333333333</ele><time>2026-03-29T07:57:37Z</time></trkpt><trkpt lat="43.02430753984916" lon="12.132466532567966"><ele>343.0</ele><time>2026-03-29T07:57:39Z</time></trkpt><trkpt lat="43.02424553158191" lon="12.132429719146353"><ele>340.79999999999995</ele><time>2026-03-29T07:57:40Z</time></trkpt><trkpt lat="43.024150679030086" lon="12.132373552980606"><ele>338.6</ele><time>2026-03-29T07:57:42Z</time></trkpt><trkpt lat="43.02406871309644" lon="12.132286270643355"><ele>336.4</ele><time>2026-03-29T07:57:44Z</time></trkpt><trkpt lat="43.02400999569615" lon="12.132168182077333"><ele>334.20000000000005</ele><time>2026-03-29T07:57:46Z</time></trkpt><trkpt lat="43.023961376245005" lon="12.132035580017652"><ele>332.0</ele><time>2026-03-29T07:57:48Z</time></trkpt><trkpt lat="43.02395521287487" lon="12.131877072999973"><ele>330.83333333333337</ele><time>2026-03-29T07:57:50Z</time></trkpt><trkpt lat="43.02391762913937" lon="12.13177235883973"><ele>329.6666666666667</ele><time>2026-03-29T07:57:53Z</time></trkpt><trkpt lat="43.02384618874841" lon="12.131775452378108"><ele>328.5</ele><time>2026-03-29T07:57:55Z</time></trkpt><trkpt lat="43.02378338978248" lon="12.13187303742404"><ele>327.3333333333333</ele><time>2026-03-29T07:57:59Z</time></trkpt><trkpt lat="43.02373164623819" lon="12.131973511877414"><ele>326.16666666666663</ele><time>2026-03-29T07:58:00Z</time></trkpt><trkpt lat="43.023663058062894" lon="12.132014730835053"><ele>325.0</ele><time>2026-03-29T07:58:02Z</time></trkpt><trkpt lat="43.02358563215892" lon="12.131995404311029"><ele>325.0</ele><time>2026-03-29T07:58:14Z</time></trkpt><trkpt lat="43.02357672354064" lon="12.131892330773066"><ele>325.0</ele><time>2026-03-29T07:58:16Z</time></trkpt><trkpt lat="43.023536254549036" lon="12.131789665819094"><ele>325.0</ele><time>2026-03-29T07:58:18Z</time></trkpt><trkpt lat="43.02347849626305" lon="12.131652767345251"><ele>325.0</ele><time>2026-03-29T07:58:20Z</time></trkpt><trkpt lat="43.02343741085395" lon="12.131532684284263"><ele>325.0</ele><time>2026-03-29T07:58:22Z</time></trkpt><trkpt lat="43.0233738457592" lon="12.131426473227073"><ele>323.3333333333333</ele><time>2026-03-29T07:58:24Z</time></trkpt><trkpt lat="43.02332303612589" lon="12.131358580073458"><ele>321.66666666666663</ele><time>2026-03-29T07:58:26Z</time></trkpt><trkpt lat="43.023259415606546" lon="12.131281038732997"><ele>320.0</ele><time>2026-03-29T07:58:28Z</time></trkpt><trkpt lat="43.02321847563291" lon="12.131207325067138"><ele>318.3333333333333</ele><time>2026-03-29T07:58:30Z</time></trkpt><trkpt lat="43.02313535182074" lon="12.131130800992128"><ele>316.6666666666667</ele><time>2026-03-29T07:58:32Z</time></trkpt><trkpt lat="43.023096972704394" lon="12.130998560102679"><ele>315.0</ele><time>2026-03-29T07:58:35Z</time></trkpt><trkpt lat="43.0231154558477" lon="12.130868802377151"><ele>315.0</ele><time>2026-03-29T07:58:37Z</time></trkpt><trkpt lat="43.023084763020236" lon="12.130737874143648"><ele>315.0</ele><time>2026-03-29T07:58:39Z</time></trkpt><trkpt lat="43.02305218385982" lon="12.130662627539033"><ele>315.0</ele><time>2026-03-29T07:58:40Z</time></trkpt><trkpt lat="43.022987504914326" lon="12.130560015154876"><ele>315.0</ele><time>2026-03-29T07:58:42Z</time></trkpt><trkpt lat="43.0229289276088" lon="12.130520556553012"><ele>315.0</ele><time>2026-03-29T07:58:45Z</time></trkpt><trkpt lat="43.022903451220515" lon="12.130600783104104"><ele>315.0</ele><time>2026-03-29T07:58:51Z</time></trkpt><trkpt lat="43.022941797772404" lon="12.13052095336812"><ele>313.0</ele><time>2026-03-29T07:58:58Z</time></trkpt><trkpt lat="43.022958877205006" lon="12.130304488530282"><ele>311.0</ele><time>2026-03-29T07:59:19Z</time></trkpt><trkpt lat="43.02295177105683" lon="12.130181560543953"><ele>309.0</ele><time>2026-03-29T07:59:20Z</time></trkpt><trkpt lat="43.02294484446943" lon="12.13007538290291"><ele>307.0</ele><time>2026-03-29T07:59:21Z</time></trkpt><trkpt lat="43.02291957067487" lon="12.129979068721086"><ele>305.0</ele><time>2026-03-29T07:59:22Z</time></trkpt><trkpt lat="43.02289283607991" lon="12.12989767727923"><ele>303.8</ele><time>2026-03-29T07:59:23Z</time></trkpt><trkpt lat="43.02286173240803" lon="12.129797203168026"><ele>302.6</ele><time>2026-03-29T07:59:24Z</time></trkpt><trkpt lat="43.02282749124677" lon="12.129647887968531"><ele>301.4</ele><time>2026-03-29T07:59:26Z</time></trkpt><trkpt lat="43.022798937659516" lon="12.12956862858098"><ele>300.2</ele><time>2026-03-29T07:59:27Z</time></trkpt><trkpt lat="43.02274592621229" lon="12.129440842009089"><ele>299.0</ele><time>2026-03-29T07:59:29Z</time></trkpt><trkpt lat="43.02270355777409" lon="12.129298848576704"><ele>299.0</ele><time>2026-03-29T07:59:31Z</time></trkpt><trkpt lat="43.02265577376566" lon="12.129222273229333"><ele>299.0</ele><time>2026-03-29T07:59:32Z</time></trkpt><trkpt lat="43.02255479192038" lon="12.129181367607565"><ele>299.0</ele><time>2026-03-29T07:59:34Z</time></trkpt><trkpt lat="43.02251795801009" lon="12.129058394315868"><ele>299.0</ele><time>2026-03-29T07:59:36Z</time></trkpt><trkpt lat="43.02248215356071" lon="12.128947308709849"><ele>299.0</ele><time>2026-03-29T07:59:38Z</time></trkpt><trkpt lat="43.02244200519291" lon="12.128835886207028"><ele>299.59999999999997</ele><time>2026-03-29T07:59:40Z</time></trkpt><trkpt lat="43.02233616098578" lon="12.128731494094277"><ele>300.2</ele><time>2026-03-29T07:59:42Z</time></trkpt><trkpt lat="43.02227775657785" lon="12.128690311037765"><ele>300.79999999999995</ele><time>2026-03-29T07:59:43Z</time></trkpt><trkpt lat="43.022200214217975" lon="12.12855913897193"><ele>301.4</ele><time>2026-03-29T07:59:45Z</time></trkpt><trkpt lat="43.02218001000103" lon="12.128447184881548"><ele>302.0</ele><time>2026-03-29T07:59:46Z</time></trkpt><trkpt lat="43.02215683875471" lon="12.128341010162824"><ele>301.6</ele><time>2026-03-29T07:59:47Z</time></trkpt><trkpt lat="43.02213745621708" lon="12.128217563756737"><ele>301.2</ele><time>2026-03-29T07:59:48Z</time></trkpt><trkpt lat="43.022064022206266" lon="12.128106185744073"><ele>300.8</ele><time>2026-03-29T07:59:50Z</time></trkpt><trkpt lat="43.02210101461932" lon="12.12801067919913"><ele>300.4</ele><time>2026-03-29T07:59:52Z</time></trkpt><trkpt lat="43.022172415249244" lon="12.128070248075929"><ele>300.0</ele><time>2026-03-29T07:59:54Z</time></trkpt><trkpt lat="43.0222388151855" lon="12.12815343932347"><ele>300.4</ele><time>2026-03-29T07:59:57Z</time></trkpt><trkpt lat="43.022266468052116" lon="12.128242222276967"><ele>300.8</ele><time>2026-03-29T07:59:59Z</time></trkpt><trkpt lat="43.02233146962776" lon="12.128316137268657"><ele>301.2</ele><time>2026-03-29T08:00:02Z</time></trkpt><trkpt lat="43.02238415329578" lon="12.128364552855956"><ele>301.6</ele><time>2026-03-29T08:00:05Z</time></trkpt><trkpt lat="43.0225858199273" lon="12.1284061367338"><ele>302.0</ele><time>2026-03-29T08:00:15Z</time></trkpt><trkpt lat="43.02264716276395" lon="12.128328656720841"><ele>302.6</ele><time>2026-03-29T08:00:18Z</time></trkpt><trkpt lat="43.02273779753759" lon="12.128308117794013"><ele>303.2</ele><time>2026-03-29T08:00:21Z</time></trkpt><trkpt lat="43.02289718466904" lon="12.128281079284648"><ele>303.8</ele><time>2026-03-29T08:00:26Z</time></trkpt><trkpt lat="43.022976818232536" lon="12.128246736714841"><ele>304.4</ele><time>2026-03-29T08:00:29Z</time></trkpt><trkpt lat="43.02307552189093" lon="12.128210540576855"><ele>305.0</ele><time>2026-03-29T08:00:31Z</time></trkpt><trkpt lat="43.02327851682061" lon="12.12818888125819"><ele>310.6666666666667</ele><time>2026-03-29T08:00:37Z</time></trkpt><trkpt lat="43.0234828413261" lon="12.1282032682719"><ele>316.3333333333333</ele><time>2026-03-29T08:01:01Z</time></trkpt><trkpt lat="43.02356305125524" lon="12.128162709634545"><ele>322.0</ele><time>2026-03-29T08:01:05Z</time></trkpt><trkpt lat="43.02421988566794" lon="12.128130272594165"><ele>324.0</ele><time>2026-03-29T08:01:36Z</time></trkpt><trkpt lat="43.024409574779845" lon="12.128093025218341"><ele>326.0</ele><time>2026-03-29T08:01:57Z</time></trkpt><trkpt lat="43.024475571807805" lon="12.128072648489281"><ele>328.0</ele><time>2026-03-29T08:01:59Z</time></trkpt><trkpt lat="43.02455745570325" lon="12.128048704509029"><ele>330.0</ele><time>2026-03-29T08:02:04Z</time></trkpt><trkpt lat="43.02463042006276" lon="12.128038059850429"><ele>332.0</ele><time>2026-03-29T08:02:06Z</time></trkpt><trkpt lat="43.02469497731494" lon="12.12802005848183"><ele>332.0</ele><time>2026-03-29T08:02:09Z</time></trkpt><trkpt lat="43.024617458718026" lon="12.127864952437056"><ele>332.0</ele><time>2026-03-29T08:02:15Z</time></trkpt><trkpt lat="43.02454316427684" lon="12.127727724852104"><ele>332.0</ele><time>2026-03-29T08:02:17Z</time></trkpt><trkpt lat="43.02447008310711" lon="12.127658224988968"><ele>332.0</ele><time>2026-03-29T08:02:19Z</time></trkpt><trkpt lat="43.02438909260591" lon="12.127642644079579"><ele>332.0</ele><time>2026-03-29T08:02:20Z</time></trkpt><trkpt lat="43.02429852303026" lon="12.127600596081923"><ele>332.0</ele><time>2026-03-29T08:02:21Z</time></trkpt><trkpt lat="43.02420089663816" lon="12.127548750736173"><ele>332.0</ele><time>2026-03-29T08:02:22Z</time></trkpt><trkpt lat="43.024102439549324" lon="12.127507186430801"><ele>332.0</ele><time>2026-03-29T08:02:23Z</time></trkpt><trkpt lat="43.024006458601896" lon="12.127464702800902"><ele>332.0</ele><time>2026-03-29T08:02:24Z</time></trkpt><trkpt lat="43.02391161127817" lon="12.127420311145569"><ele>332.0</ele><time>2026-03-29T08:02:25Z</time></trkpt><trkpt lat="43.023819189961735" lon="12.127357481192824"><ele>330.0</ele><time>2026-03-29T08:02:26Z</time></trkpt><trkpt lat="43.023717853881955" lon="12.127333385477074"><ele>328.0</ele><time>2026-03-29T08:02:27Z</time></trkpt><trkpt lat="43.02362858503087" lon="12.127309935032885"><ele>326.0</ele><time>2026-03-29T08:02:28Z</time></trkpt><trkpt lat="43.023521269187455" lon="12.12730416669862"><ele>324.0</ele><time>2026-03-29T08:02:29Z</time></trkpt><trkpt lat="43.023441369880736" lon="12.127280896517462"><ele>322.0</ele><time>2026-03-29T08:02:30Z</time></trkpt><trkpt lat="43.0233711011763" lon="12.127247060422915"><ele>321.0</ele><time>2026-03-29T08:02:31Z</time></trkpt><trkpt lat="43.02330460757224" lon="12.127189753435525"><ele>320.0</ele><time>2026-03-29T08:02:32Z</time></trkpt><trkpt lat="43.02324730728209" lon="12.127116054138034"><ele>319.0</ele><time>2026-03-29T08:02:33Z</time></trkpt><trkpt lat="43.02319629220322" lon="12.127029600986841"><ele>318.0</ele><time>2026-03-29T08:02:34Z</time></trkpt><trkpt lat="43.02312896041998" lon="12.126936570020352"><ele>317.0</ele><time>2026-03-29T08:02:35Z</time></trkpt><trkpt lat="43.023062219991054" lon="12.126849290741822"><ele>316.0</ele><time>2026-03-29T08:02:36Z</time></trkpt><trkpt lat="43.022991468121766" lon="12.126764085822167"><ele>316.0</ele><time>2026-03-29T08:02:37Z</time></trkpt><trkpt lat="43.022918215397425" lon="12.126676461746495"><ele>316.0</ele><time>2026-03-29T08:02:38Z</time></trkpt><trkpt lat="43.02283690858887" lon="12.126585079802364"><ele>316.0</ele><time>2026-03-29T08:02:39Z</time></trkpt><trkpt lat="43.022759603148884" lon="12.126500583275627"><ele>316.0</ele><time>2026-03-29T08:02:40Z</time></trkpt><trkpt lat="43.02268009470287" lon="12.126396532522788"><ele>316.0</ele><time>2026-03-29T08:02:41Z</time></trkpt><trkpt lat="43.022592356987495" lon="12.126294590766552"><ele>315.5</ele><time>2026-03-29T08:02:42Z</time></trkpt><trkpt lat="43.022499375728216" lon="12.126194861296781"><ele>315.0</ele><time>2026-03-29T08:02:43Z</time></trkpt><trkpt lat="43.02240614273132" lon="12.126098542574635"><ele>314.5</ele><time>2026-03-29T08:02:44Z</time></trkpt><trkpt lat="43.02231803506054" lon="12.126003066297747"><ele>314.0</ele><time>2026-03-29T08:02:45Z</time></trkpt><trkpt lat="43.02223443209941" lon="12.125910289417122"><ele>313.0</ele><time>2026-03-29T08:02:46Z</time></trkpt><trkpt lat="43.02214923770058" lon="12.125817492664709"><ele>312.0</ele><time>2026-03-29T08:02:47Z</time></trkpt><trkpt lat="43.02206861014953" lon="12.125725279463659"><ele>311.0</ele><time>2026-03-29T08:02:48Z</time></trkpt><trkpt lat="43.02200186846766" lon="12.125616156410157"><ele>310.0</ele><time>2026-03-29T08:02:49Z</time></trkpt><trkpt lat="43.02191496352243" lon="12.125513218002084"><ele>309.0</ele><time>2026-03-29T08:02:50Z</time></trkpt><trkpt lat="43.02183853134374" lon="12.125422684400945"><ele>309.0</ele><time>2026-03-29T08:02:51Z</time></trkpt><trkpt lat="43.02176580054243" lon="12.125333075781507"><ele>309.0</ele><time>2026-03-29T08:02:52Z</time></trkpt><trkpt lat="43.02168397426495" lon="12.125225218397333"><ele>309.0</ele><time>2026-03-29T08:02:53Z</time></trkpt><trkpt lat="43.021610909870915" lon="12.12515487057429"><ele>309.0</ele><time>2026-03-29T08:02:54Z</time></trkpt><trkpt lat="43.02154869299259" lon="12.125037358552722"><ele>309.0</ele><time>2026-03-29T08:02:55Z</time></trkpt><trkpt lat="43.02147229040339" lon="12.124960723841259"><ele>309.0</ele><time>2026-03-29T08:02:56Z</time></trkpt><trkpt lat="43.021404266197315" lon="12.124874136500157"><ele>309.0</ele><time>2026-03-29T08:02:57Z</time></trkpt><trkpt lat="43.021338974076095" lon="12.124795506105066"><ele>309.0</ele><time>2026-03-29T08:02:58Z</time></trkpt><trkpt lat="43.0212730427551" lon="12.124716644956164"><ele>309.0</ele><time>2026-03-29T08:02:59Z</time></trkpt><trkpt lat="43.02121182089734" lon="12.124625388987369"><ele>309.0</ele><time>2026-03-29T08:03:00Z</time></trkpt><trkpt lat="43.02114873591149" lon="12.124541004083065"><ele>309.0</ele><time>2026-03-29T08:03:01Z</time></trkpt><trkpt lat="43.021075179929596" lon="12.124456500929178"><ele>309.0</ele><time>2026-03-29T08:03:02Z</time></trkpt><trkpt lat="43.02101969344538" lon="12.124366979139701"><ele>309.0</ele><time>2026-03-29T08:03:03Z</time></trkpt><trkpt lat="43.02096199897841" lon="12.12428668210023"><ele>309.0</ele><time>2026-03-29T08:03:04Z</time></trkpt><trkpt lat="43.02091007721711" lon="12.124193059470294"><ele>309.0</ele><time>2026-03-29T08:03:05Z</time></trkpt><trkpt lat="43.020845776778984" lon="12.124113493295054"><ele>309.0</ele><time>2026-03-29T08:03:06Z</time></trkpt><trkpt lat="43.02075972636352" lon="12.124070565755018"><ele>309.0</ele><time>2026-03-29T08:03:07Z</time></trkpt><trkpt lat="43.020680175026946" lon="12.124020616964112"><ele>308.59999999999997</ele><time>2026-03-29T08:03:08Z</time></trkpt><trkpt lat="43.02059770406513" lon="12.123975600083888"><ele>308.2</ele><time>2026-03-29T08:03:09Z</time></trkpt><trkpt lat="43.02050761986782" lon="12.123947056750742"><ele>307.79999999999995</ele><time>2026-03-29T08:03:10Z</time></trkpt><trkpt lat="43.020415920635266" lon="12.12393470564171"><ele>307.4</ele><time>2026-03-29T08:03:11Z</time></trkpt><trkpt lat="43.02031954814801" lon="12.12391187991154"><ele>307.0</ele><time>2026-03-29T08:03:12Z</time></trkpt><trkpt lat="43.020234321559066" lon="12.123854059290146"><ele>307.0</ele><time>2026-03-29T08:03:13Z</time></trkpt><trkpt lat="43.02015605952669" lon="12.123764888959016"><ele>307.0</ele><time>2026-03-29T08:03:14Z</time></trkpt><trkpt lat="43.020105328581934" lon="12.123661161634303"><ele>307.0</ele><time>2026-03-29T08:03:15Z</time></trkpt><trkpt lat="43.0200460295749" lon="12.123555770085138"><ele>307.0</ele><time>2026-03-29T08:03:16Z</time></trkpt><trkpt lat="43.019981737052255" lon="12.123464443196784"><ele>307.0</ele><time>2026-03-29T08:03:17Z</time></trkpt><trkpt lat="43.01990448889888" lon="12.123390013524933"><ele>308.0</ele><time>2026-03-29T08:03:18Z</time></trkpt><trkpt lat="43.019813113168354" lon="12.123321208963976"><ele>309.0</ele><time>2026-03-29T08:03:19Z</time></trkpt><trkpt lat="43.01971233873634" lon="12.12325092630872"><ele>310.0</ele><time>2026-03-29T08:03:20Z</time></trkpt><trkpt lat="43.01962520486186" lon="12.123192382137425"><ele>311.0</ele><time>2026-03-29T08:03:21Z</time></trkpt><trkpt lat="43.01954505500349" lon="12.12312929465884"><ele>312.0</ele><time>2026-03-29T08:03:22Z</time></trkpt><trkpt lat="43.01947463982764" lon="12.123058630169691"><ele>312.8333333333333</ele><time>2026-03-29T08:03:23Z</time></trkpt><trkpt lat="43.01943182666293" lon="12.122974312971918"><ele>313.6666666666667</ele><time>2026-03-29T08:03:24Z</time></trkpt><trkpt lat="43.01945267910475" lon="12.12287497501118"><ele>314.5</ele><time>2026-03-29T08:03:25Z</time></trkpt><trkpt lat="43.019438329808686" lon="12.122770892298382"><ele>315.33333333333337</ele><time>2026-03-29T08:03:26Z</time></trkpt><trkpt lat="43.01941741368512" lon="12.122590045218734"><ele>316.1666666666667</ele><time>2026-03-29T08:03:28Z</time></trkpt><trkpt lat="43.019389230501524" lon="12.122485335984157"><ele>317.0</ele><time>2026-03-29T08:03:29Z</time></trkpt><trkpt lat="43.01932722835255" lon="12.122407092079486"><ele>315.33333333333337</ele><time>2026-03-29T08:03:30Z</time></trkpt><trkpt lat="43.019273607436475" lon="12.122336101305248"><ele>313.6666666666667</ele><time>2026-03-29T08:03:31Z</time></trkpt><trkpt lat="43.01921037076257" lon="12.12230892462724"><ele>312.0</ele><time>2026-03-29T08:03:32Z</time></trkpt><trkpt lat="43.019136031663756" lon="12.122273356535763"><ele>310.3333333333333</ele><time>2026-03-29T08:03:33Z</time></trkpt><trkpt lat="43.01906562443687" lon="12.122255349315866"><ele>308.66666666666663</ele><time>2026-03-29T08:03:34Z</time></trkpt><trkpt lat="43.01899708505023" lon="12.122249935253059"><ele>307.0</ele><time>2026-03-29T08:03:35Z</time></trkpt><trkpt lat="43.01890937067736" lon="12.122302247757615"><ele>306.66666666666663</ele><time>2026-03-29T08:03:37Z</time></trkpt><trkpt lat="43.018881377883986" lon="12.122389209792136"><ele>306.3333333333333</ele><time>2026-03-29T08:03:38Z</time></trkpt><trkpt lat="43.01883803926198" lon="12.122554067008698"><ele>306.0</ele><time>2026-03-29T08:03:40Z</time></trkpt><trkpt lat="43.018776916161585" lon="12.12260258288064"><ele>305.6666666666667</ele><time>2026-03-29T08:03:41Z</time></trkpt><trkpt lat="43.01870372463838" lon="12.122602332549814"><ele>305.33333333333337</ele><time>2026-03-29T08:03:42Z</time></trkpt><trkpt lat="43.01862961631135" lon="12.12257299388826"><ele>305.0</ele><time>2026-03-29T08:03:43Z</time></trkpt><trkpt lat="43.01855784148818" lon="12.122517298223748"><ele>303.6666666666667</ele><time>2026-03-29T08:03:44Z</time></trkpt><trkpt lat="43.01848341217241" lon="12.122465912299347"><ele>302.33333333333337</ele><time>2026-03-29T08:03:45Z</time></trkpt><trkpt lat="43.01841601037588" lon="12.12242778902929"><ele>301.0</ele><time>2026-03-29T08:03:46Z</time></trkpt><trkpt lat="43.018352677863376" lon="12.1223994041248"><ele>299.6666666666667</ele><time>2026-03-29T08:03:47Z</time></trkpt><trkpt lat="43.018282612711374" lon="12.122379731715721"><ele>298.3333333333333</ele><time>2026-03-29T08:03:48Z</time></trkpt><trkpt lat="43.018199920596984" lon="12.1223657042348"><ele>297.0</ele><time>2026-03-29T08:03:49Z</time></trkpt><trkpt lat="43.01812377875847" lon="12.122358551196683"><ele>297.0</ele><time>2026-03-29T08:03:50Z</time></trkpt><trkpt lat="43.018008017850896" lon="12.122346389210955"><ele>297.0</ele><time>2026-03-29T08:03:52Z</time></trkpt><trkpt lat="43.01790889932405" lon="12.122352990630871"><ele>297.0</ele><time>2026-03-29T08:03:54Z</time></trkpt><trkpt lat="43.0177934654513" lon="12.122405833805246"><ele>297.0</ele><time>2026-03-29T08:03:56Z</time></trkpt><trkpt lat="43.01773209271965" lon="12.122451778246878"><ele>297.0</ele><time>2026-03-29T08:03:57Z</time></trkpt><trkpt lat="43.017660977956574" lon="12.122493880475059"><ele>300.4</ele><time>2026-03-29T08:03:58Z</time></trkpt><trkpt lat="43.01757556502827" lon="12.122512663961146"><ele>303.79999999999995</ele><time>2026-03-29T08:03:59Z</time></trkpt><trkpt lat="43.01745366499422" lon="12.122498577537005"><ele>307.2</ele><time>2026-03-29T08:04:01Z</time></trkpt><trkpt lat="43.01734136201346" lon="12.122526742501401"><ele>310.59999999999997</ele><time>2026-03-29T08:04:03Z</time></trkpt><trkpt lat="43.017251038971196" lon="12.122547571202022"><ele>314.0</ele><time>2026-03-29T08:04:05Z</time></trkpt><trkpt lat="43.01727172844362" lon="12.122463664992235"><ele>315.0</ele><time>2026-03-29T08:04:07Z</time></trkpt><trkpt lat="43.017338198463904" lon="12.122439857931585"><ele>316.0</ele><time>2026-03-29T08:04:08Z</time></trkpt><trkpt lat="43.01744110119353" lon="12.122417159153802"><ele>317.0</ele><time>2026-03-29T08:04:09Z</time></trkpt><trkpt lat="43.017546268185676" lon="12.122382345268656"><ele>318.0</ele><time>2026-03-29T08:04:10Z</time></trkpt><trkpt lat="43.0176235369549" lon="12.122347784135824"><ele>319.0</ele><time>2026-03-29T08:04:11Z</time></trkpt><trkpt lat="43.01771602839329" lon="12.12229505787372"><ele>315.3333333333333</ele><time>2026-03-29T08:04:12Z</time></trkpt><trkpt lat="43.01780326965138" lon="12.122242858125029"><ele>311.66666666666663</ele><time>2026-03-29T08:04:13Z</time></trkpt><trkpt lat="43.01786708365216" lon="12.122191406443935"><ele>308.0</ele><time>2026-03-29T08:04:14Z</time></trkpt><trkpt lat="43.017948733933466" lon="12.12215565170312"><ele>304.3333333333333</ele><time>2026-03-29T08:04:15Z</time></trkpt><trkpt lat="43.01802314362706" lon="12.12210876493712"><ele>300.6666666666667</ele><time>2026-03-29T08:04:16Z</time></trkpt><trkpt lat="43.01809151437385" lon="12.12207539448008"><ele>297.0</ele><time>2026-03-29T08:04:17Z</time></trkpt><trkpt lat="43.01819488812201" lon="12.12199924102278"><ele>297.0</ele><time>2026-03-29T08:04:19Z</time></trkpt><trkpt lat="43.018248082342936" lon="12.121860063143535"><ele>297.0</ele><time>2026-03-29T08:04:21Z</time></trkpt><trkpt lat="43.01828672621953" lon="12.121699660910664"><ele>297.0</ele><time>2026-03-29T08:04:23Z</time></trkpt><trkpt lat="43.01834554614953" lon="12.121643429601432"><ele>297.0</ele><time>2026-03-29T08:04:24Z</time></trkpt><trkpt lat="43.018433191149725" lon="12.121623708332322"><ele>297.0</ele><time>2026-03-29T08:04:25Z</time></trkpt><trkpt lat="43.018534826056765" lon="12.121595598492439"><ele>296.0</ele><time>2026-03-29T08:04:26Z</time></trkpt><trkpt lat="43.01863278349704" lon="12.121559530931826"><ele>295.0</ele><time>2026-03-29T08:04:27Z</time></trkpt><trkpt lat="43.01871782373909" lon="12.121547852965682"><ele>294.0</ele><time>2026-03-29T08:04:28Z</time></trkpt><trkpt lat="43.018793977797465" lon="12.121512372775427"><ele>293.0</ele><time>2026-03-29T08:04:29Z</time></trkpt><trkpt lat="43.018845494333966" lon="12.121446071643515"><ele>292.0</ele><time>2026-03-29T08:04:30Z</time></trkpt><trkpt lat="43.01888432819891" lon="12.121376790357221"><ele>291.0</ele><time>2026-03-29T08:04:31Z</time></trkpt><trkpt lat="43.018898064576014" lon="12.121225118637975"><ele>291.0</ele><time>2026-03-29T08:04:33Z</time></trkpt><trkpt lat="43.018867849424566" lon="12.12106092462631"><ele>291.0</ele><time>2026-03-29T08:04:35Z</time></trkpt><trkpt lat="43.01876817299209" lon="12.121002335291161"><ele>291.0</ele><time>2026-03-29T08:04:37Z</time></trkpt><trkpt lat="43.01865757922985" lon="12.12101692165606"><ele>291.0</ele><time>2026-03-29T08:04:38Z</time></trkpt><trkpt lat="43.01853565656654" lon="12.121003294113297"><ele>291.0</ele><time>2026-03-29T08:04:39Z</time></trkpt><trkpt lat="43.01842847336032" lon="12.120988676543137"><ele>291.0</ele><time>2026-03-29T08:04:40Z</time></trkpt><trkpt lat="43.018354159395265" lon="12.120968128423751"><ele>291.0</ele><time>2026-03-29T08:04:41Z</time></trkpt><trkpt lat="43.01829563320383" lon="12.120913319532006"><ele>291.0</ele><time>2026-03-29T08:04:42Z</time></trkpt><trkpt lat="43.01826127037959" lon="12.12081594623479"><ele>291.0</ele><time>2026-03-29T08:04:43Z</time></trkpt><trkpt lat="43.01823514062478" lon="12.120707397077348"><ele>291.0</ele><time>2026-03-29T08:04:44Z</time></trkpt><trkpt lat="43.01820807576527" lon="12.120605084665216"><ele>286.40000000000003</ele><time>2026-03-29T08:04:45Z</time></trkpt><trkpt lat="43.0181851336356" lon="12.12050650426677"><ele>281.8</ele><time>2026-03-29T08:04:46Z</time></trkpt><trkpt lat="43.01822597477877" lon="12.12041517881413"><ele>277.20000000000005</ele><time>2026-03-29T08:04:47Z</time></trkpt><trkpt lat="43.01817297773407" lon="12.120290006188783"><ele>272.6</ele><time>2026-03-29T08:04:49Z</time></trkpt><trkpt lat="43.018130106443" lon="12.120130482576668"><ele>268.0</ele><time>2026-03-29T08:04:51Z</time></trkpt><trkpt lat="43.018088156810904" lon="12.120050292276217"><ele>268.0</ele><time>2026-03-29T08:04:52Z</time></trkpt><trkpt lat="43.01803214706523" lon="12.119977210467626"><ele>268.0</ele><time>2026-03-29T08:04:53Z</time></trkpt><trkpt lat="43.01795902774298" lon="12.119941603423278"><ele>268.0</ele><time>2026-03-29T08:04:54Z</time></trkpt><trkpt lat="43.01788805129315" lon="12.119948377489894"><ele>268.0</ele><time>2026-03-29T08:04:55Z</time></trkpt><trkpt lat="43.01782271056207" lon="12.119992038852537"><ele>268.0</ele><time>2026-03-29T08:04:56Z</time></trkpt><trkpt lat="43.01776182232385" lon="12.120034492052785"><ele>268.0</ele><time>2026-03-29T08:04:57Z</time></trkpt><trkpt lat="43.017665385347236" lon="12.120109951971815"><ele>268.0</ele><time>2026-03-29T08:04:59Z</time></trkpt><trkpt lat="43.017585762531915" lon="12.120148463008205"><ele>268.0</ele><time>2026-03-29T08:05:00Z</time></trkpt><trkpt lat="43.01752267444915" lon="12.120218580667713"><ele>268.0</ele><time>2026-03-29T08:05:01Z</time></trkpt><trkpt lat="43.0174635379258" lon="12.12030648333417"><ele>268.0</ele><time>2026-03-29T08:05:02Z</time></trkpt><trkpt lat="43.01740497363247" lon="12.120418954284858"><ele>268.0</ele><time>2026-03-29T08:05:03Z</time></trkpt><trkpt lat="43.017401941773144" lon="12.12051086238736"><ele>268.0</ele><time>2026-03-29T08:05:04Z</time></trkpt><trkpt lat="43.01731772545282" lon="12.120492876255094"><ele>269.8</ele><time>2026-03-29T08:05:06Z</time></trkpt><trkpt lat="43.017279770681846" lon="12.120396382810334"><ele>271.6</ele><time>2026-03-29T08:05:07Z</time></trkpt><trkpt lat="43.01729352158581" lon="12.12029518261834"><ele>273.4</ele><time>2026-03-29T08:05:08Z</time></trkpt><trkpt lat="43.01724730956783" lon="12.12016321541543"><ele>275.2</ele><time>2026-03-29T08:05:10Z</time></trkpt><trkpt lat="43.01717246551794" lon="12.12010974072013"><ele>277.0</ele><time>2026-03-29T08:05:12Z</time></trkpt><trkpt lat="43.017062139505605" lon="12.120019217938772"><ele>277.0</ele><time>2026-03-29T08:05:14Z</time></trkpt><trkpt lat="43.01697796361423" lon="12.119902548836405"><ele>277.0</ele><time>2026-03-29T08:05:16Z</time></trkpt><trkpt lat="43.01690113765815" lon="12.119767870450334"><ele>277.0</ele><time>2026-03-29T08:05:18Z</time></trkpt><trkpt lat="43.01685578654883" lon="12.119696890233104"><ele>277.0</ele><time>2026-03-29T08:05:19Z</time></trkpt><trkpt lat="43.0168041424083" lon="12.119633374964055"><ele>277.0</ele><time>2026-03-29T08:05:20Z</time></trkpt><trkpt lat="43.01672244906912" lon="12.119520388882874"><ele>275.42857142857144</ele><time>2026-03-29T08:05:22Z</time></trkpt><trkpt lat="43.01661326597644" lon="12.119459961188957"><ele>273.85714285714283</ele><time>2026-03-29T08:05:24Z</time></trkpt><trkpt lat="43.01655146092273" lon="12.119440132051643"><ele>272.2857142857143</ele><time>2026-03-29T08:05:25Z</time></trkpt><trkpt lat="43.016487363692676" lon="12.119433233693613"><ele>270.7142857142857</ele><time>2026-03-29T08:05:26Z</time></trkpt><trkpt lat="43.016421506792845" lon="12.119423339643872"><ele>269.1428571428571</ele><time>2026-03-29T08:05:27Z</time></trkpt><trkpt lat="43.01635233213385" lon="12.119414181386048"><ele>267.57142857142856</ele><time>2026-03-29T08:05:28Z</time></trkpt><trkpt lat="43.01628997590314" lon="12.119395548671084"><ele>266.0</ele><time>2026-03-29T08:05:29Z</time></trkpt><trkpt lat="43.01619335934891" lon="12.119369916629886"><ele>266.0</ele><time>2026-03-29T08:05:31Z</time></trkpt><trkpt lat="43.016096499522085" lon="12.119303640460872"><ele>266.0</ele><time>2026-03-29T08:05:33Z</time></trkpt><trkpt lat="43.016043793377264" lon="12.119191785402288"><ele>266.0</ele><time>2026-03-29T08:05:35Z</time></trkpt><trkpt lat="43.016027316057006" lon="12.119092339110882"><ele>266.0</ele><time>2026-03-29T08:05:39Z</time></trkpt><trkpt lat="43.015898641738644" lon="12.118954797271757"><ele>266.0</ele><time>2026-03-29T08:06:01Z</time></trkpt><trkpt lat="43.015808646706844" lon="12.118928399088816"><ele>263.40000000000003</ele><time>2026-03-29T08:06:02Z</time></trkpt><trkpt lat="43.01571307157382" lon="12.118895048057901"><ele>260.8</ele><time>2026-03-29T08:06:03Z</time></trkpt><trkpt lat="43.01562306916192" lon="12.118856866698627"><ele>258.20000000000005</ele><time>2026-03-29T08:06:04Z</time></trkpt><trkpt lat="43.01553323525338" lon="12.11881731595402"><ele>255.60000000000002</ele><time>2026-03-29T08:06:05Z</time></trkpt><trkpt lat="43.015445453147706" lon="12.118776674867485"><ele>253.0</ele><time>2026-03-29T08:06:06Z</time></trkpt><trkpt lat="43.01535020373005" lon="12.118740384766685"><ele>253.0</ele><time>2026-03-29T08:06:07Z</time></trkpt><trkpt lat="43.01525727806373" lon="12.118708060483192"><ele>253.0</ele><time>2026-03-29T08:06:08Z</time></trkpt><trkpt lat="43.01516026930358" lon="12.118692963648988"><ele>253.0</ele><time>2026-03-29T08:06:09Z</time></trkpt><trkpt lat="43.0150609822025" lon="12.118700238506381"><ele>253.0</ele><time>2026-03-29T08:06:10Z</time></trkpt><trkpt lat="43.014965855848196" lon="12.118740539314622"><ele>253.0</ele><time>2026-03-29T08:06:11Z</time></trkpt><trkpt lat="43.01487682579217" lon="12.118810735362947"><ele>252.8</ele><time>2026-03-29T08:06:12Z</time></trkpt><trkpt lat="43.01479075768936" lon="12.118891636147026"><ele>252.60000000000002</ele><time>2026-03-29T08:06:13Z</time></trkpt><trkpt lat="43.0146992403464" lon="12.118946363646774"><ele>252.39999999999998</ele><time>2026-03-29T08:06:14Z</time></trkpt><trkpt lat="43.01463893272962" lon="12.119026455322967"><ele>252.2</ele><time>2026-03-29T08:06:15Z</time></trkpt><trkpt lat="43.01455556906801" lon="12.119086708843186"><ele>252.0</ele><time>2026-03-29T08:06:16Z</time></trkpt><trkpt lat="43.01448850990131" lon="12.11913363250186"><ele>252.0</ele><time>2026-03-29T08:06:17Z</time></trkpt><trkpt lat="43.01441625028423" lon="12.119160594686285"><ele>252.0</ele><time>2026-03-29T08:06:18Z</time></trkpt><trkpt lat="43.01428249808758" lon="12.11909340438692"><ele>252.0</ele><time>2026-03-29T08:06:20Z</time></trkpt><trkpt lat="43.01420592781126" lon="12.119056587355502"><ele>252.0</ele><time>2026-03-29T08:06:21Z</time></trkpt><trkpt lat="43.01412255599509" lon="12.11903963379056"><ele>252.0</ele><time>2026-03-29T08:06:22Z</time></trkpt><trkpt lat="43.01405862241001" lon="12.119003252065244"><ele>252.16666666666666</ele><time>2026-03-29T08:06:23Z</time></trkpt><trkpt lat="43.01399299518643" lon="12.11897716702609"><ele>252.33333333333331</ele><time>2026-03-29T08:06:24Z</time></trkpt><trkpt lat="43.01387708898009" lon="12.118934567600641"><ele>252.5</ele><time>2026-03-29T08:06:26Z</time></trkpt><trkpt lat="43.01381532800362" lon="12.11889061747851"><ele>252.66666666666666</ele><time>2026-03-29T08:06:27Z</time></trkpt><trkpt lat="43.013739489818406" lon="12.118881055041728"><ele>252.83333333333331</ele><time>2026-03-29T08:06:28Z</time></trkpt><trkpt lat="43.01366089669946" lon="12.118846145442834"><ele>253.0</ele><time>2026-03-29T08:06:29Z</time></trkpt><trkpt lat="43.01359182513794" lon="12.118833398021703"><ele>253.00000000000003</ele><time>2026-03-29T08:06:30Z</time></trkpt><trkpt lat="43.01352673532242" lon="12.118798561239243"><ele>253.0</ele><time>2026-03-29T08:06:31Z</time></trkpt><trkpt lat="43.01345608187724" lon="12.11879352128844"><ele>253.00000000000003</ele><time>2026-03-29T08:06:32Z</time></trkpt><trkpt lat="43.013379954685" lon="12.118828536252995"><ele>253.00000000000003</ele><time>2026-03-29T08:06:33Z</time></trkpt><trkpt lat="43.01330666093894" lon="12.118858622867247"><ele>253.0</ele><time>2026-03-29T08:06:34Z</time></trkpt><trkpt lat="43.01323547806288" lon="12.118893206464652"><ele>253.00000000000003</ele><time>2026-03-29T08:06:35Z</time></trkpt><trkpt lat="43.01316372257546" lon="12.118884147733793"><ele>253.00000000000003</ele><time>2026-03-29T08:06:36Z</time></trkpt><trkpt lat="43.013079723657974" lon="12.118788944644251"><ele>252.99999999999997</ele><time>2026-03-29T08:06:38Z</time></trkpt><trkpt lat="43.0130556688538" lon="12.118699951825661"><ele>253.0</ele><time>2026-03-29T08:06:39Z</time></trkpt><trkpt lat="43.013041357994915" lon="12.118589176795055"><ele>253.0</ele><time>2026-03-29T08:06:40Z</time></trkpt><trkpt lat="43.01302106551847" lon="12.118468907136263"><ele>253.0</ele><time>2026-03-29T08:06:41Z</time></trkpt><trkpt lat="43.01298094627817" lon="12.11835464760574"><ele>252.99999999999997</ele><time>2026-03-29T08:06:42Z</time></trkpt><trkpt lat="43.01293064015047" lon="12.11824943166247"><ele>253.0</ele><time>2026-03-29T08:06:43Z</time></trkpt><trkpt lat="43.01287914392166" lon="12.118173271125317"><ele>254.49999999999997</ele><time>2026-03-29T08:06:44Z</time></trkpt><trkpt lat="43.01280319748571" lon="12.118090508136818"><ele>256.0</ele><time>2026-03-29T08:06:45Z</time></trkpt><trkpt lat="43.0127382944806" lon="12.117998538967134"><ele>257.5</ele><time>2026-03-29T08:06:46Z</time></trkpt><trkpt lat="43.01267855602549" lon="12.117898601592323"><ele>259.0</ele><time>2026-03-29T08:06:47Z</time></trkpt><trkpt lat="43.01263082187601" lon="12.117813965309049"><ele>260.5</ele><time>2026-03-29T08:06:48Z</time></trkpt><trkpt lat="43.0125894091896" lon="12.117718488050265"><ele>262.0</ele><time>2026-03-29T08:06:49Z</time></trkpt><trkpt lat="43.01254636864197" lon="12.117630637047158"><ele>262.0</ele><time>2026-03-29T08:06:50Z</time></trkpt><trkpt lat="43.01255293345668" lon="12.117510430174267"><ele>262.0</ele><time>2026-03-29T08:06:51Z</time></trkpt><trkpt lat="43.0125483708369" lon="12.117412305109204"><ele>262.0</ele><time>2026-03-29T08:06:52Z</time></trkpt><trkpt lat="43.012550837451215" lon="12.1173137688281"><ele>262.0</ele><time>2026-03-29T08:06:53Z</time></trkpt><trkpt lat="43.012556146150374" lon="12.117217418437308"><ele>262.0</ele><time>2026-03-29T08:06:54Z</time></trkpt><trkpt lat="43.01256606391198" lon="12.117121479765098"><ele>262.0</ele><time>2026-03-29T08:06:55Z</time></trkpt><trkpt lat="43.012579256618054" lon="12.11701951411322"><ele>262.0</ele><time>2026-03-29T08:06:56Z</time></trkpt><trkpt lat="43.01262118190894" lon="12.116943425991176"><ele>263.3333333333333</ele><time>2026-03-29T08:06:58Z</time></trkpt><trkpt lat="43.01264611898481" lon="12.11683662535555"><ele>264.66666666666663</ele><time>2026-03-29T08:07:00Z</time></trkpt><trkpt lat="43.0127023410324" lon="12.116678867847849"><ele>266.0</ele><time>2026-03-29T08:07:02Z</time></trkpt><trkpt lat="43.01273813794875" lon="12.116585684678041"><ele>267.3333333333333</ele><time>2026-03-29T08:07:03Z</time></trkpt><trkpt lat="43.01278643321422" lon="12.116509343723386"><ele>268.6666666666667</ele><time>2026-03-29T08:07:04Z</time></trkpt><trkpt lat="43.01282358519533" lon="12.116416353574449"><ele>270.0</ele><time>2026-03-29T08:07:05Z</time></trkpt><trkpt lat="43.01283522489407" lon="12.116318074217254"><ele>271.1666666666667</ele><time>2026-03-29T08:07:06Z</time></trkpt><trkpt lat="43.012866557066474" lon="12.116220740684467"><ele>272.3333333333333</ele><time>2026-03-29T08:07:07Z</time></trkpt><trkpt lat="43.012880471967264" lon="12.116111201440978"><ele>273.5</ele><time>2026-03-29T08:07:08Z</time></trkpt><trkpt lat="43.01288913345665" lon="12.116015899818889"><ele>274.66666666666663</ele><time>2026-03-29T08:07:09Z</time></trkpt><trkpt lat="43.01289906990218" lon="12.115917814392882"><ele>275.8333333333333</ele><time>2026-03-29T08:07:10Z</time></trkpt><trkpt lat="43.01290619426797" lon="12.115829513281103"><ele>277.0</ele><time>2026-03-29T08:07:11Z</time></trkpt><trkpt lat="43.01290738227398" lon="12.115711481183908"><ele>277.66666666666663</ele><time>2026-03-29T08:07:12Z</time></trkpt><trkpt lat="43.012907933506774" lon="12.115609866833212"><ele>278.3333333333333</ele><time>2026-03-29T08:07:13Z</time></trkpt><trkpt lat="43.01289636467538" lon="12.115508406003949"><ele>279.0</ele><time>2026-03-29T08:07:14Z</time></trkpt><trkpt lat="43.01288067617235" lon="12.115401377634125"><ele>279.6666666666667</ele><time>2026-03-29T08:07:15Z</time></trkpt><trkpt lat="43.01286853371781" lon="12.115297303863937"><ele>280.33333333333337</ele><time>2026-03-29T08:07:16Z</time></trkpt><trkpt lat="43.01285756056474" lon="12.115179652968587"><ele>281.0</ele><time>2026-03-29T08:07:17Z</time></trkpt><trkpt lat="43.012832590361" lon="12.115053160408854"><ele>281.0</ele><time>2026-03-29T08:07:18Z</time></trkpt><trkpt lat="43.0127869120662" lon="12.114957011106561"><ele>281.0</ele><time>2026-03-29T08:07:19Z</time></trkpt><trkpt lat="43.012714947802884" lon="12.114891542372455"><ele>281.0</ele><time>2026-03-29T08:07:20Z</time></trkpt><trkpt lat="43.01262990082284" lon="12.114853778561448"><ele>281.0</ele><time>2026-03-29T08:07:21Z</time></trkpt><trkpt lat="43.01253958978855" lon="12.114834086958146"><ele>281.0</ele><time>2026-03-29T08:07:22Z</time></trkpt><trkpt lat="43.012461955236034" lon="12.114820142725453"><ele>281.0</ele><time>2026-03-29T08:07:23Z</time></trkpt><trkpt lat="43.01238528501293" lon="12.11479467401408"><ele>281.1666666666667</ele><time>2026-03-29T08:07:24Z</time></trkpt><trkpt lat="43.012309103324014" lon="12.114769762715209"><ele>281.33333333333337</ele><time>2026-03-29T08:07:25Z</time></trkpt><trkpt lat="43.01224449381728" lon="12.114731792811556"><ele>281.5</ele><time>2026-03-29T08:07:26Z</time></trkpt><trkpt lat="43.012188592277674" lon="12.11466710847412"><ele>281.6666666666667</ele><time>2026-03-29T08:07:27Z</time></trkpt><trkpt lat="43.01216160061448" lon="12.114573232237008"><ele>281.8333333333333</ele><time>2026-03-29T08:07:28Z</time></trkpt><trkpt lat="43.01214368765121" lon="12.114470389934663"><ele>282.0</ele><time>2026-03-29T08:07:29Z</time></trkpt><trkpt lat="43.01212491324492" lon="12.114366024412323"><ele>282.0</ele><time>2026-03-29T08:07:30Z</time></trkpt><trkpt lat="43.01213435701024" lon="12.114255429573227"><ele>282.0</ele><time>2026-03-29T08:07:31Z</time></trkpt><trkpt lat="43.01214153831169" lon="12.11413756217809"><ele>282.0</ele><time>2026-03-29T08:07:32Z</time></trkpt><trkpt lat="43.01215307630347" lon="12.114023359932556"><ele>282.0</ele><time>2026-03-29T08:07:33Z</time></trkpt><trkpt lat="43.01216486671506" lon="12.11390824821002"><ele>282.0</ele><time>2026-03-29T08:07:34Z</time></trkpt><trkpt lat="43.01216195733912" lon="12.11379647284047"><ele>282.0</ele><time>2026-03-29T08:07:35Z</time></trkpt><trkpt lat="43.01217990662638" lon="12.113692358608118"><ele>283.0</ele><time>2026-03-29T08:07:36Z</time></trkpt><trkpt lat="43.0122022097852" lon="12.113595333176697"><ele>284.0</ele><time>2026-03-29T08:07:37Z</time></trkpt><trkpt lat="43.01221195181969" lon="12.113485161945144"><ele>285.0</ele><time>2026-03-29T08:07:38Z</time></trkpt><trkpt lat="43.01222573937287" lon="12.11336127216666"><ele>286.0</ele><time>2026-03-29T08:07:39Z</time></trkpt><trkpt lat="43.012266797792925" lon="12.11321183991333"><ele>287.0</ele><time>2026-03-29T08:07:40Z</time></trkpt><trkpt lat="43.0123191383124" lon="12.11311212957839"><ele>288.8</ele><time>2026-03-29T08:07:41Z</time></trkpt><trkpt lat="43.01242394235153" lon="12.113029824479646"><ele>290.6</ele><time>2026-03-29T08:07:42Z</time></trkpt><trkpt lat="43.01251896631709" lon="12.112942730786434"><ele>292.40000000000003</ele><time>2026-03-29T08:07:43Z</time></trkpt><trkpt lat="43.01261351717948" lon="12.112869867790561"><ele>294.2</ele><time>2026-03-29T08:07:44Z</time></trkpt><trkpt lat="43.012694133566015" lon="12.112794702866692"><ele>296.0</ele><time>2026-03-29T08:07:45Z</time></trkpt><trkpt lat="43.01277107412917" lon="12.112701082323936"><ele>297.8</ele><time>2026-03-29T08:07:46Z</time></trkpt><trkpt lat="43.01284513681513" lon="12.112582112328827"><ele>299.6</ele><time>2026-03-29T08:07:47Z</time></trkpt><trkpt lat="43.012899522702966" lon="12.112462927247698"><ele>301.4</ele><time>2026-03-29T08:07:48Z</time></trkpt><trkpt lat="43.01295066557853" lon="12.112324425863717"><ele>303.2</ele><time>2026-03-29T08:07:49Z</time></trkpt><trkpt lat="43.01300853698654" lon="12.112205141172788"><ele>305.0</ele><time>2026-03-29T08:07:50Z</time></trkpt><trkpt lat="43.0130689497681" lon="12.112094929726048"><ele>305.4</ele><time>2026-03-29T08:07:51Z</time></trkpt><trkpt lat="43.01312268770618" lon="12.112003388476623"><ele>305.8</ele><time>2026-03-29T08:07:52Z</time></trkpt><trkpt lat="43.01326095433655" lon="12.111992327622572"><ele>306.2</ele><time>2026-03-29T08:07:54Z</time></trkpt><trkpt lat="43.01334412016546" lon="12.112009479028059"><ele>306.6</ele><time>2026-03-29T08:07:55Z</time></trkpt><trkpt lat="43.01343703866699" lon="12.112006776419772"><ele>307.0</ele><time>2026-03-29T08:07:56Z</time></trkpt><trkpt lat="43.01352821680034" lon="12.111971988219493"><ele>308.5</ele><time>2026-03-29T08:07:57Z</time></trkpt><trkpt lat="43.013599757032104" lon="12.11191945056523"><ele>310.0</ele><time>2026-03-29T08:07:58Z</time></trkpt><trkpt lat="43.01366383474747" lon="12.111838980502133"><ele>311.5</ele><time>2026-03-29T08:07:59Z</time></trkpt><trkpt lat="43.01370828588944" lon="12.11173487338311"><ele>313.0</ele><time>2026-03-29T08:08:00Z</time></trkpt><trkpt lat="43.0137381659393" lon="12.111623048415288"><ele>314.5</ele><time>2026-03-29T08:08:01Z</time></trkpt><trkpt lat="43.013759836496725" lon="12.111505418915778"><ele>316.0</ele><time>2026-03-29T08:08:02Z</time></trkpt><trkpt lat="43.01376133615821" lon="12.111376449496923"><ele>316.2</ele><time>2026-03-29T08:08:03Z</time></trkpt><trkpt lat="43.01375020712135" lon="12.111237482042585"><ele>316.40000000000003</ele><time>2026-03-29T08:08:04Z</time></trkpt><trkpt lat="43.013738292851805" lon="12.111096117757866"><ele>316.6</ele><time>2026-03-29T08:08:05Z</time></trkpt><trkpt lat="43.01372187430521" lon="12.110940288308347"><ele>316.8</ele><time>2026-03-29T08:08:06Z</time></trkpt><trkpt lat="43.01370798397695" lon="12.110779552601462"><ele>317.0</ele><time>2026-03-29T08:08:07Z</time></trkpt><trkpt lat="43.01370117923776" lon="12.110598914735563"><ele>317.0</ele><time>2026-03-29T08:08:08Z</time></trkpt><trkpt lat="43.01370181306306" lon="12.110409951215257"><ele>317.0</ele><time>2026-03-29T08:08:09Z</time></trkpt><trkpt lat="43.01370772662575" lon="12.110233305489428"><ele>317.0</ele><time>2026-03-29T08:08:10Z</time></trkpt><trkpt lat="43.013715958189735" lon="12.110086335166198"><ele>317.0</ele><time>2026-03-29T08:08:11Z</time></trkpt><trkpt lat="43.01372495710171" lon="12.109957599356267"><ele>317.1666666666667</ele><time>2026-03-29T08:08:12Z</time></trkpt><trkpt lat="43.01373006369052" lon="12.109835888306135"><ele>317.33333333333337</ele><time>2026-03-29T08:08:13Z</time></trkpt><trkpt lat="43.013726270238855" lon="12.109727115892813"><ele>317.5</ele><time>2026-03-29T08:08:14Z</time></trkpt><trkpt lat="43.01369479493118" lon="12.109625281966313"><ele>317.6666666666667</ele><time>2026-03-29T08:08:15Z</time></trkpt><trkpt lat="43.01364999673186" lon="12.109538657512962"><ele>317.8333333333333</ele><time>2026-03-29T08:08:16Z</time></trkpt><trkpt lat="43.01358027141907" lon="12.109481769436389"><ele>318.0</ele><time>2026-03-29T08:08:17Z</time></trkpt><trkpt lat="43.0134884875587" lon="12.109450730395704"><ele>318.0</ele><time>2026-03-29T08:08:18Z</time></trkpt><trkpt lat="43.013415952627014" lon="12.109403482621644"><ele>318.0</ele><time>2026-03-29T08:08:19Z</time></trkpt><trkpt lat="43.01334938654385" lon="12.109287344159508"><ele>318.0</ele><time>2026-03-29T08:08:20Z</time></trkpt><trkpt lat="43.013338935983114" lon="12.10914003300775"><ele>318.0</ele><time>2026-03-29T08:08:21Z</time></trkpt><trkpt lat="43.01332609294658" lon="12.108998334822132"><ele>318.0</ele><time>2026-03-29T08:08:22Z</time></trkpt><trkpt lat="43.013305387157715" lon="12.108861244636705"><ele>318.4</ele><time>2026-03-29T08:08:23Z</time></trkpt><trkpt lat="43.01328267934877" lon="12.10873175365829"><ele>318.8</ele><time>2026-03-29T08:08:24Z</time></trkpt><trkpt lat="43.01325167159543" lon="12.108607434427814"><ele>319.2</ele><time>2026-03-29T08:08:25Z</time></trkpt><trkpt lat="43.01321669687795" lon="12.108478658360085"><ele>319.6</ele><time>2026-03-29T08:08:26Z</time></trkpt><trkpt lat="43.01318186992503" lon="12.1083571118905"><ele>320.0</ele><time>2026-03-29T08:08:27Z</time></trkpt><trkpt lat="43.01314340423142" lon="12.10822951774074"><ele>320.0</ele><time>2026-03-29T08:08:28Z</time></trkpt><trkpt lat="43.013109410768166" lon="12.108104084145625"><ele>320.0</ele><time>2026-03-29T08:08:29Z</time></trkpt><trkpt lat="43.01306630941193" lon="12.107986332490912"><ele>320.0</ele><time>2026-03-29T08:08:30Z</time></trkpt><trkpt lat="43.01301697516609" lon="12.107872819422774"><ele>320.0</ele><time>2026-03-29T08:08:31Z</time></trkpt><trkpt lat="43.01295875622809" lon="12.1077639280939"><ele>320.0</ele><time>2026-03-29T08:08:32Z</time></trkpt><trkpt lat="43.01289038135281" lon="12.10764733159153"><ele>320.0</ele><time>2026-03-29T08:08:33Z</time></trkpt><trkpt lat="43.01282702204757" lon="12.107544197147286"><ele>320.0</ele><time>2026-03-29T08:08:34Z</time></trkpt><trkpt lat="43.012762491592596" lon="12.107448868596363"><ele>320.0</ele><time>2026-03-29T08:08:35Z</time></trkpt><trkpt lat="43.012709227901645" lon="12.107368915689628"><ele>320.0</ele><time>2026-03-29T08:08:36Z</time></trkpt><trkpt lat="43.01266313005494" lon="12.10728435083907"><ele>320.0</ele><time>2026-03-29T08:08:37Z</time></trkpt><trkpt lat="43.012625995182894" lon="12.107199171807697"><ele>320.0</ele><time>2026-03-29T08:08:38Z</time></trkpt><trkpt lat="43.01260945845865" lon="12.107105207446418"><ele>320.6666666666667</ele><time>2026-03-29T08:08:39Z</time></trkpt><trkpt lat="43.01259540201234" lon="12.107009235537683"><ele>321.33333333333337</ele><time>2026-03-29T08:08:40Z</time></trkpt><trkpt lat="43.012578503437155" lon="12.106886301344296"><ele>322.0</ele><time>2026-03-29T08:08:41Z</time></trkpt><trkpt lat="43.0125635176704" lon="12.106766224093228"><ele>322.6666666666667</ele><time>2026-03-29T08:08:42Z</time></trkpt><trkpt lat="43.01255015170837" lon="12.106642914490674"><ele>323.3333333333333</ele><time>2026-03-29T08:08:43Z</time></trkpt><trkpt lat="43.01257311566299" lon="12.106518131887613"><ele>324.0</ele><time>2026-03-29T08:08:44Z</time></trkpt><trkpt lat="43.012587765475566" lon="12.106391324910094"><ele>323.79999999999995</ele><time>2026-03-29T08:08:45Z</time></trkpt><trkpt lat="43.012601225291135" lon="12.106270775074321"><ele>323.59999999999997</ele><time>2026-03-29T08:08:46Z</time></trkpt><trkpt lat="43.012610404537476" lon="12.106142809500314"><ele>323.4</ele><time>2026-03-29T08:08:47Z</time></trkpt><trkpt lat="43.012600329587066" lon="12.106019161631668"><ele>323.2</ele><time>2026-03-29T08:08:48Z</time></trkpt><trkpt lat="43.01254580837951" lon="12.10589438228121"><ele>323.0</ele><time>2026-03-29T08:08:49Z</time></trkpt><trkpt lat="43.012467662091034" lon="12.105801311999661"><ele>323.2</ele><time>2026-03-29T08:08:50Z</time></trkpt><trkpt lat="43.01240031609466" lon="12.105694174035285"><ele>323.4</ele><time>2026-03-29T08:08:51Z</time></trkpt><trkpt lat="43.012343100197334" lon="12.105593856980065"><ele>323.59999999999997</ele><time>2026-03-29T08:08:52Z</time></trkpt><trkpt lat="43.01227873526822" lon="12.105485120185776"><ele>323.79999999999995</ele><time>2026-03-29T08:08:53Z</time></trkpt><trkpt lat="43.012221911803366" lon="12.105382783649228"><ele>324.0</ele><time>2026-03-29T08:08:54Z</time></trkpt><trkpt lat="43.012167402789245" lon="12.105289354916897"><ele>324.0</ele><time>2026-03-29T08:08:55Z</time></trkpt><trkpt lat="43.01209903059989" lon="12.105228529805528"><ele>324.0</ele><time>2026-03-29T08:08:56Z</time></trkpt><trkpt lat="43.012024256299476" lon="12.105210241334634"><ele>324.0</ele><time>2026-03-29T08:08:57Z</time></trkpt><trkpt lat="43.011954312431435" lon="12.105249387051972"><ele>324.0</ele><time>2026-03-29T08:08:58Z</time></trkpt><trkpt lat="43.01187337473286" lon="12.105330285169202"><ele>324.0</ele><time>2026-03-29T08:08:59Z</time></trkpt><trkpt lat="43.01177174463184" lon="12.105400239247977"><ele>324.0</ele><time>2026-03-29T08:09:00Z</time></trkpt><trkpt lat="43.01167368460427" lon="12.105475406658263"><ele>323.25</ele><time>2026-03-29T08:09:01Z</time></trkpt><trkpt lat="43.01157620801862" lon="12.105545232332945"><ele>322.5</ele><time>2026-03-29T08:09:02Z</time></trkpt><trkpt lat="43.01152948537461" lon="12.105688233741665"><ele>321.75</ele><time>2026-03-29T08:09:03Z</time></trkpt><trkpt lat="43.01145786494358" lon="12.10583221645146"><ele>321.0</ele><time>2026-03-29T08:09:04Z</time></trkpt><trkpt lat="43.011379297071954" lon="12.106005769885295"><ele>321.0</ele><time>2026-03-29T08:09:05Z</time></trkpt><trkpt lat="43.01129280248459" lon="12.106191377872609"><ele>321.0</ele><time>2026-03-29T08:09:06Z</time></trkpt><trkpt lat="43.01120518673207" lon="12.106396707371392"><ele>321.0</ele><time>2026-03-29T08:09:07Z</time></trkpt><trkpt lat="43.011068778298686" lon="12.10659035398687"><ele>320.3333333333333</ele><time>2026-03-29T08:09:08Z</time></trkpt><trkpt lat="43.01096013243463" lon="12.106810762315426"><ele>319.66666666666663</ele><time>2026-03-29T08:09:09Z</time></trkpt><trkpt lat="43.01085943332318" lon="12.106995874320695"><ele>319.0</ele><time>2026-03-29T08:09:10Z</time></trkpt><trkpt lat="43.01076836472099" lon="12.10716748921991"><ele>318.75</ele><time>2026-03-29T08:09:11Z</time></trkpt><trkpt lat="43.01068130417149" lon="12.107322478196304"><ele>318.5</ele><time>2026-03-29T08:09:12Z</time></trkpt><trkpt lat="43.01060836173745" lon="12.107485784532532"><ele>318.25</ele><time>2026-03-29T08:09:13Z</time></trkpt><trkpt lat="43.010572240424224" lon="12.107657519820462"><ele>318.0</ele><time>2026-03-29T08:09:14Z</time></trkpt><trkpt lat="43.01055100812396" lon="12.10783715497777"><ele>318.0</ele><time>2026-03-29T08:09:15Z</time></trkpt><trkpt lat="43.01054807253661" lon="12.108030572384317"><ele>318.0</ele><time>2026-03-29T08:09:16Z</time></trkpt><trkpt lat="43.01053675222128" lon="12.108217425195834"><ele>318.0</ele><time>2026-03-29T08:09:17Z</time></trkpt><trkpt lat="43.01050761512747" lon="12.10840493939625"><ele>318.0</ele><time>2026-03-29T08:09:18Z</time></trkpt><trkpt lat="43.010509307434596" lon="12.108581329395532"><ele>318.25</ele><time>2026-03-29T08:09:19Z</time></trkpt><trkpt lat="43.01049010098643" lon="12.108773552676325"><ele>318.5</ele><time>2026-03-29T08:09:20Z</time></trkpt><trkpt lat="43.01047791454271" lon="12.108973560742601"><ele>318.75</ele><time>2026-03-29T08:09:21Z</time></trkpt><trkpt lat="43.01046721337428" lon="12.109182148196666"><ele>319.0</ele><time>2026-03-29T08:09:22Z</time></trkpt><trkpt lat="43.010447437125684" lon="12.109374574790923"><ele>318.5</ele><time>2026-03-29T08:09:23Z</time></trkpt><trkpt lat="43.010454388939124" lon="12.109559809370568"><ele>318.0</ele><time>2026-03-29T08:09:24Z</time></trkpt><trkpt lat="43.01046551592229" lon="12.10973384279983"><ele>317.5</ele><time>2026-03-29T08:09:25Z</time></trkpt><trkpt lat="43.010477881575234" lon="12.109885499809527"><ele>317.0</ele><time>2026-03-29T08:09:26Z</time></trkpt><trkpt lat="43.01049771133065" lon="12.110021891737984"><ele>316.0</ele><time>2026-03-29T08:09:27Z</time></trkpt><trkpt lat="43.01050768401688" lon="12.110175634105152"><ele>315.0</ele><time>2026-03-29T08:09:28Z</time></trkpt><trkpt lat="43.01051809366405" lon="12.11031560541213"><ele>314.0</ele><time>2026-03-29T08:09:29Z</time></trkpt><trkpt lat="43.01052961073957" lon="12.110447673236656"><ele>313.0</ele><time>2026-03-29T08:09:30Z</time></trkpt><trkpt lat="43.01051992759688" lon="12.110569417966223"><ele>312.0</ele><time>2026-03-29T08:09:31Z</time></trkpt><trkpt lat="43.01052304396464" lon="12.11066791140301"><ele>311.0</ele><time>2026-03-29T08:09:32Z</time></trkpt><trkpt lat="43.01053139526377" lon="12.110830761685213"><ele>310.0</ele><time>2026-03-29T08:09:34Z</time></trkpt><trkpt lat="43.01053622239607" lon="12.11097422481327"><ele>309.0</ele><time>2026-03-29T08:09:36Z</time></trkpt><trkpt lat="43.010499626483686" lon="12.111061317767753"><ele>308.0</ele><time>2026-03-29T08:09:38Z</time></trkpt><trkpt lat="43.01025377776964" lon="12.110865331403625"><ele>308.0</ele><time>2026-03-29T08:09:43Z</time></trkpt><trkpt lat="43.0102083187649" lon="12.110785009203823"><ele>308.0</ele><time>2026-03-29T08:09:44Z</time></trkpt><trkpt lat="43.01017953459235" lon="12.110702539313039"><ele>308.0</ele><time>2026-03-29T08:09:45Z</time></trkpt><trkpt lat="43.01012121717465" lon="12.110550642678763"><ele>308.0</ele><time>2026-03-29T08:09:47Z</time></trkpt><trkpt lat="43.010078369932806" lon="12.110479131301153"><ele>308.0</ele><time>2026-03-29T08:09:48Z</time></trkpt><trkpt lat="43.010013141316925" lon="12.110416538571965"><ele>308.0</ele><time>2026-03-29T08:09:49Z</time></trkpt><trkpt lat="43.00992606162755" lon="12.110343896680641"><ele>308.5</ele><time>2026-03-29T08:09:50Z</time></trkpt><trkpt lat="43.00981442442206" lon="12.110259022003593"><ele>309.0</ele><time>2026-03-29T08:09:51Z</time></trkpt><trkpt lat="43.00968863127843" lon="12.110133688144709"><ele>309.5</ele><time>2026-03-29T08:09:52Z</time></trkpt><trkpt lat="43.00956691735087" lon="12.109999222945717"><ele>310.0</ele><time>2026-03-29T08:09:53Z</time></trkpt><trkpt lat="43.00946292920775" lon="12.109896068457818"><ele>310.0</ele><time>2026-03-29T08:09:54Z</time></trkpt><trkpt lat="43.00936560002101" lon="12.109796655120222"><ele>310.0</ele><time>2026-03-29T08:09:55Z</time></trkpt><trkpt lat="43.00924807306327" lon="12.10972436247316"><ele>310.0</ele><time>2026-03-29T08:09:56Z</time></trkpt><trkpt lat="43.00913808015456" lon="12.109659059687944"><ele>310.0</ele><time>2026-03-29T08:09:57Z</time></trkpt><trkpt lat="43.00904148403446" lon="12.109582987986082"><ele>307.0</ele><time>2026-03-29T08:09:58Z</time></trkpt><trkpt lat="43.00894671355033" lon="12.109504809953986"><ele>304.0</ele><time>2026-03-29T08:09:59Z</time></trkpt><trkpt lat="43.00885672200723" lon="12.109420079613143"><ele>301.0</ele><time>2026-03-29T08:10:00Z</time></trkpt><trkpt lat="43.00875498868588" lon="12.109333006414591"><ele>298.0</ele><time>2026-03-29T08:10:01Z</time></trkpt><trkpt lat="43.008657115350765" lon="12.10925494789047"><ele>298.0</ele><time>2026-03-29T08:10:02Z</time></trkpt><trkpt lat="43.00855708808037" lon="12.109183666885533"><ele>298.0</ele><time>2026-03-29T08:10:03Z</time></trkpt><trkpt lat="43.00845906640024" lon="12.109119813379941"><ele>298.0</ele><time>2026-03-29T08:10:04Z</time></trkpt><trkpt lat="43.00835713269673" lon="12.109059654933269"><ele>298.0</ele><time>2026-03-29T08:10:05Z</time></trkpt><trkpt lat="43.0082563200103" lon="12.108989373394898"><ele>298.0</ele><time>2026-03-29T08:10:06Z</time></trkpt><trkpt lat="43.00816863625771" lon="12.108942462822284"><ele>295.8</ele><time>2026-03-29T08:10:07Z</time></trkpt><trkpt lat="43.00805375262509" lon="12.108885370570784"><ele>293.6</ele><time>2026-03-29T08:10:08Z</time></trkpt><trkpt lat="43.0079675426019" lon="12.1088309866667"><ele>291.4</ele><time>2026-03-29T08:10:09Z</time></trkpt><trkpt lat="43.0078776356695" lon="12.108775555643971"><ele>289.2</ele><time>2026-03-29T08:10:10Z</time></trkpt><trkpt lat="43.007788551863314" lon="12.108735976856314"><ele>287.0</ele><time>2026-03-29T08:10:11Z</time></trkpt><trkpt lat="43.00770084704127" lon="12.108692678330353"><ele>287.0</ele><time>2026-03-29T08:10:12Z</time></trkpt><trkpt lat="43.00762788846052" lon="12.108635294715624"><ele>287.0</ele><time>2026-03-29T08:10:13Z</time></trkpt><trkpt lat="43.00756255441975" lon="12.108570674464325"><ele>287.0</ele><time>2026-03-29T08:10:14Z</time></trkpt><trkpt lat="43.007513684141756" lon="12.108495805992955"><ele>287.0</ele><time>2026-03-29T08:10:15Z</time></trkpt><trkpt lat="43.00747709108241" lon="12.108396742658144"><ele>287.0</ele><time>2026-03-29T08:10:16Z</time></trkpt><trkpt lat="43.00748096801288" lon="12.10829565560974"><ele>287.0</ele><time>2026-03-29T08:10:17Z</time></trkpt><trkpt lat="43.007530595281565" lon="12.10820532586815"><ele>286.1666666666667</ele><time>2026-03-29T08:10:18Z</time></trkpt><trkpt lat="43.00759762518798" lon="12.108102819669908"><ele>285.33333333333337</ele><time>2026-03-29T08:10:19Z</time></trkpt><trkpt lat="43.00766394510662" lon="12.108009568025423"><ele>284.5</ele><time>2026-03-29T08:10:20Z</time></trkpt><trkpt lat="43.007721532826764" lon="12.107908959677195"><ele>283.6666666666667</ele><time>2026-03-29T08:10:21Z</time></trkpt><trkpt lat="43.00777134923266" lon="12.107811709673038"><ele>282.8333333333333</ele><time>2026-03-29T08:10:22Z</time></trkpt><trkpt lat="43.007787693951414" lon="12.10772590249997"><ele>282.0</ele><time>2026-03-29T08:10:23Z</time></trkpt><trkpt lat="43.00775093250891" lon="12.107637020223024"><ele>282.0</ele><time>2026-03-29T08:10:24Z</time></trkpt><trkpt lat="43.00768916023313" lon="12.107535695050183"><ele>282.0</ele><time>2026-03-29T08:10:25Z</time></trkpt><trkpt lat="43.00761449110013" lon="12.107453327903373"><ele>282.0</ele><time>2026-03-29T08:10:26Z</time></trkpt><trkpt lat="43.00753804928731" lon="12.10740349909784"><ele>282.0</ele><time>2026-03-29T08:10:27Z</time></trkpt><trkpt lat="43.007462815931405" lon="12.107364234506658"><ele>282.0</ele><time>2026-03-29T08:10:28Z</time></trkpt><trkpt lat="43.00739468338635" lon="12.107329801491064"><ele>282.0</ele><time>2026-03-29T08:10:29Z</time></trkpt><trkpt lat="43.00733446169131" lon="12.107291535774829"><ele>281.5</ele><time>2026-03-29T08:10:30Z</time></trkpt><trkpt lat="43.00726985839595" lon="12.107262125880625"><ele>281.0</ele><time>2026-03-29T08:10:31Z</time></trkpt><trkpt lat="43.00721560752935" lon="12.107198773604175"><ele>280.5</ele><time>2026-03-29T08:10:33Z</time></trkpt><trkpt lat="43.00725317670626" lon="12.107098730758867"><ele>280.0</ele><time>2026-03-29T08:10:36Z</time></trkpt><trkpt lat="43.00736376067635" lon="12.10704470654698"><ele>279.5</ele><time>2026-03-29T08:10:47Z</time></trkpt><trkpt lat="43.00740327046117" lon="12.10695320315354"><ele>279.0</ele><time>2026-03-29T08:10:48Z</time></trkpt><trkpt lat="43.00745905869465" lon="12.106837235143551"><ele>280.2</ele><time>2026-03-29T08:10:49Z</time></trkpt><trkpt lat="43.007541286280016" lon="12.106724477135073"><ele>281.4</ele><time>2026-03-29T08:10:50Z</time></trkpt><trkpt lat="43.00762054357129" lon="12.106625282149402"><ele>282.6</ele><time>2026-03-29T08:10:51Z</time></trkpt><trkpt lat="43.007671178544" lon="12.106510312624689"><ele>283.8</ele><time>2026-03-29T08:10:52Z</time></trkpt><trkpt lat="43.007705038790014" lon="12.106380193078916"><ele>285.0</ele><time>2026-03-29T08:10:53Z</time></trkpt><trkpt lat="43.00773965484694" lon="12.106254674183951"><ele>286.0</ele><time>2026-03-29T08:10:54Z</time></trkpt><trkpt lat="43.00778761094765" lon="12.10614572965812"><ele>287.0</ele><time>2026-03-29T08:10:55Z</time></trkpt><trkpt lat="43.007835889484014" lon="12.106032109848703"><ele>288.0</ele><time>2026-03-29T08:10:56Z</time></trkpt><trkpt lat="43.007882671728545" lon="12.105902846869025"><ele>289.0</ele><time>2026-03-29T08:10:57Z</time></trkpt><trkpt lat="43.00793490216686" lon="12.10577140482659"><ele>290.0</ele><time>2026-03-29T08:10:58Z</time></trkpt><trkpt lat="43.007989815323434" lon="12.105647510947849"><ele>290.75</ele><time>2026-03-29T08:10:59Z</time></trkpt><trkpt lat="43.008028400027044" lon="12.10549136959175"><ele>291.5</ele><time>2026-03-29T08:11:00Z</time></trkpt><trkpt lat="43.00805110380958" lon="12.105323476726495"><ele>292.25</ele><time>2026-03-29T08:11:01Z</time></trkpt><trkpt lat="43.00806019234022" lon="12.105158041049286"><ele>293.0</ele><time>2026-03-29T08:11:02Z</time></trkpt><trkpt lat="43.00805859486916" lon="12.105021696601069"><ele>293.5</ele><time>2026-03-29T08:11:03Z</time></trkpt><trkpt lat="43.00804523630039" lon="12.104900946603907"><ele>294.0</ele><time>2026-03-29T08:11:04Z</time></trkpt><trkpt lat="43.008068674084434" lon="12.104802443488467"><ele>294.5</ele><time>2026-03-29T08:11:05Z</time></trkpt><trkpt lat="43.0081106545031" lon="12.104722812573742"><ele>295.0</ele><time>2026-03-29T08:11:06Z</time></trkpt><trkpt lat="43.008166519044" lon="12.104642229889189"><ele>295.5</ele><time>2026-03-29T08:11:07Z</time></trkpt><trkpt lat="43.00821748342552" lon="12.104522858353757"><ele>296.0</ele><time>2026-03-29T08:11:08Z</time></trkpt><trkpt lat="43.0082497385994" lon="12.10438159301041"><ele>296.0</ele><time>2026-03-29T08:11:09Z</time></trkpt><trkpt lat="43.00828818803977" lon="12.104232347404354"><ele>296.0</ele><time>2026-03-29T08:11:10Z</time></trkpt><trkpt lat="43.00830242291998" lon="12.104137671470877"><ele>296.0</ele><time>2026-03-29T08:11:11Z</time></trkpt><trkpt lat="43.008344859391435" lon="12.104054945597946"><ele>296.0</ele><time>2026-03-29T08:11:12Z</time></trkpt><trkpt lat="43.00839882951494" lon="12.10398519772701"><ele>296.0</ele><time>2026-03-29T08:11:13Z</time></trkpt><trkpt lat="43.008477055265246" lon="12.103921272709604"><ele>296.0</ele><time>2026-03-29T08:11:15Z</time></trkpt><trkpt lat="43.00852559348914" lon="12.10386522452064"><ele>303.5</ele><time>2026-03-29T08:11:19Z</time></trkpt><trkpt lat="43.00857946672373" lon="12.103766449937927"><ele>311.0</ele><time>2026-03-29T08:11:24Z</time></trkpt><trkpt lat="43.00901194888665" lon="12.103369357993445"><ele>311.0</ele><time>2026-03-29T08:11:29Z</time></trkpt><trkpt lat="43.009107393624795" lon="12.103334737775159"><ele>311.0</ele><time>2026-03-29T08:11:30Z</time></trkpt><trkpt lat="43.00922902865287" lon="12.103310446640391"><ele>311.0</ele><time>2026-03-29T08:11:31Z</time></trkpt><trkpt lat="43.0093738164285" lon="12.103304822539378"><ele>311.0</ele><time>2026-03-29T08:11:32Z</time></trkpt><trkpt lat="43.00947861129546" lon="12.103268078032816"><ele>309.25</ele><time>2026-03-29T08:11:33Z</time></trkpt><trkpt lat="43.009597683827764" lon="12.10317072858144"><ele>307.5</ele><time>2026-03-29T08:11:34Z</time></trkpt><trkpt lat="43.009738901637306" lon="12.103071807842369"><ele>305.75</ele><time>2026-03-29T08:11:35Z</time></trkpt><trkpt lat="43.00984784754296" lon="12.102962341867958"><ele>304.0</ele><time>2026-03-29T08:11:36Z</time></trkpt><trkpt lat="43.00994373740355" lon="12.102872035202813"><ele>306.2</ele><time>2026-03-29T08:11:37Z</time></trkpt><trkpt lat="43.010031071880306" lon="12.102799693239103"><ele>308.4</ele><time>2026-03-29T08:11:38Z</time></trkpt><trkpt lat="43.01012820168742" lon="12.102769678113406"><ele>310.6</ele><time>2026-03-29T08:11:39Z</time></trkpt><trkpt lat="43.010222631912484" lon="12.102719225983742"><ele>312.8</ele><time>2026-03-29T08:11:40Z</time></trkpt><trkpt lat="43.01025521727581" lon="12.102616984098876"><ele>315.0</ele><time>2026-03-29T08:11:41Z</time></trkpt><trkpt lat="43.010284962642615" lon="12.102499791491093"><ele>314.6</ele><time>2026-03-29T08:11:42Z</time></trkpt><trkpt lat="43.010318890709954" lon="12.102313376037433"><ele>314.2</ele><time>2026-03-29T08:11:43Z</time></trkpt><trkpt lat="43.01032963419587" lon="12.102168190355982"><ele>313.8</ele><time>2026-03-29T08:11:44Z</time></trkpt><trkpt lat="43.010368155002055" lon="12.102065206305776"><ele>313.4</ele><time>2026-03-29T08:11:45Z</time></trkpt><trkpt lat="43.01043479833053" lon="12.102030242908613"><ele>313.0</ele><time>2026-03-29T08:11:46Z</time></trkpt><trkpt lat="43.010533178013034" lon="12.10205161466958"><ele>313.0</ele><time>2026-03-29T08:11:47Z</time></trkpt><trkpt lat="43.01062189951842" lon="12.102027132020964"><ele>313.0</ele><time>2026-03-29T08:11:48Z</time></trkpt><trkpt lat="43.01069272389413" lon="12.101996417382672"><ele>313.0</ele><time>2026-03-29T08:11:49Z</time></trkpt><trkpt lat="43.010753324760046" lon="12.10195663242424"><ele>313.0</ele><time>2026-03-29T08:11:50Z</time></trkpt><trkpt lat="43.010813389279846" lon="12.101842052168388"><ele>313.0</ele><time>2026-03-29T08:11:52Z</time></trkpt><trkpt lat="43.01084483524513" lon="12.101745936467353"><ele>313.0</ele><time>2026-03-29T08:11:54Z</time></trkpt><trkpt lat="43.01089737801484" lon="12.10163345471671"><ele>315.3333333333333</ele><time>2026-03-29T08:11:58Z</time></trkpt><trkpt lat="43.010959168606554" lon="12.101538545388463"><ele>317.66666666666663</ele><time>2026-03-29T08:12:01Z</time></trkpt><trkpt lat="43.011009785305546" lon="12.10141788154934"><ele>320.0</ele><time>2026-03-29T08:12:04Z</time></trkpt><trkpt lat="43.01104590109905" lon="12.101344064221092"><ele>322.3333333333333</ele><time>2026-03-29T08:12:06Z</time></trkpt><trkpt lat="43.01106020767995" lon="12.10123772095501"><ele>324.6666666666667</ele><time>2026-03-29T08:12:09Z</time></trkpt><trkpt lat="43.01110197570293" lon="12.101107369593715"><ele>327.0</ele><time>2026-03-29T08:12:10Z</time></trkpt><trkpt lat="43.01114847691137" lon="12.100979447680329"><ele>327.0</ele><time>2026-03-29T08:12:11Z</time></trkpt><trkpt lat="43.01117374729787" lon="12.100870976111855"><ele>327.0</ele><time>2026-03-29T08:12:12Z</time></trkpt><trkpt lat="43.01120015019298" lon="12.10077418462496"><ele>327.0</ele><time>2026-03-29T08:12:13Z</time></trkpt><trkpt lat="43.01122614621707" lon="12.100659994025877"><ele>327.0</ele><time>2026-03-29T08:12:14Z</time></trkpt><trkpt lat="43.01126600870481" lon="12.100523304364362"><ele>327.0</ele><time>2026-03-29T08:12:15Z</time></trkpt><trkpt lat="43.01131469880831" lon="12.100389863853943"><ele>327.40000000000003</ele><time>2026-03-29T08:12:16Z</time></trkpt><trkpt lat="43.01136196148025" lon="12.100279569312805"><ele>327.8</ele><time>2026-03-29T08:12:17Z</time></trkpt><trkpt lat="43.01142460952631" lon="12.100188797165695"><ele>328.2</ele><time>2026-03-29T08:12:18Z</time></trkpt><trkpt lat="43.01148799310182" lon="12.10005566541168"><ele>328.6</ele><time>2026-03-29T08:12:19Z</time></trkpt><trkpt lat="43.01154592803035" lon="12.099906272478684"><ele>329.0</ele><time>2026-03-29T08:12:20Z</time></trkpt><trkpt lat="43.01161428955967" lon="12.099801496136605"><ele>331.83333333333337</ele><time>2026-03-29T08:12:21Z</time></trkpt><trkpt lat="43.0116723189836" lon="12.0997267406151"><ele>334.6666666666667</ele><time>2026-03-29T08:12:22Z</time></trkpt><trkpt lat="43.0117240627873" lon="12.099628929907391"><ele>337.5</ele><time>2026-03-29T08:12:23Z</time></trkpt><trkpt lat="43.011773050550964" lon="12.099526745415597"><ele>340.3333333333333</ele><time>2026-03-29T08:12:24Z</time></trkpt><trkpt lat="43.01180769036544" lon="12.099435354915672"><ele>343.16666666666663</ele><time>2026-03-29T08:12:25Z</time></trkpt><trkpt lat="43.01183552435165" lon="12.099337059592427"><ele>346.0</ele><time>2026-03-29T08:12:26Z</time></trkpt><trkpt lat="43.01185177704853" lon="12.099231757906077"><ele>346.0</ele><time>2026-03-29T08:12:27Z</time></trkpt><trkpt lat="43.0118753499449" lon="12.099130249382934"><ele>346.0</ele><time>2026-03-29T08:12:28Z</time></trkpt><trkpt lat="43.01189555798827" lon="12.099042907186268"><ele>346.0</ele><time>2026-03-29T08:12:29Z</time></trkpt><trkpt lat="43.01191260065079" lon="12.098945262232938"><ele>346.0</ele><time>2026-03-29T08:12:30Z</time></trkpt><trkpt lat="43.0119265442892" lon="12.09884447377086"><ele>346.0</ele><time>2026-03-29T08:12:31Z</time></trkpt><trkpt lat="43.01193742559881" lon="12.098748569628242"><ele>346.0</ele><time>2026-03-29T08:12:32Z</time></trkpt><trkpt lat="43.01195243438483" lon="12.09865430955133"><ele>346.0</ele><time>2026-03-29T08:12:33Z</time></trkpt><trkpt lat="43.01198004897032" lon="12.09855325488137"><ele>346.57142857142856</ele><time>2026-03-29T08:12:34Z</time></trkpt><trkpt lat="43.01200291039589" lon="12.098455628017637"><ele>347.14285714285717</ele><time>2026-03-29T08:12:35Z</time></trkpt><trkpt lat="43.01202618660358" lon="12.098363428589522"><ele>347.7142857142857</ele><time>2026-03-29T08:12:36Z</time></trkpt><trkpt lat="43.01204601592783" lon="12.098279910377768"><ele>348.2857142857143</ele><time>2026-03-29T08:12:37Z</time></trkpt><trkpt lat="43.012064942012195" lon="12.098191188502627"><ele>348.8571428571429</ele><time>2026-03-29T08:12:38Z</time></trkpt><trkpt lat="43.012081654201495" lon="12.098104656330182"><ele>349.42857142857144</ele><time>2026-03-29T08:12:39Z</time></trkpt><trkpt lat="43.012090784947446" lon="12.097999927537575"><ele>350.0</ele><time>2026-03-29T08:12:40Z</time></trkpt><trkpt lat="43.012026361967045" lon="12.09788252165488"><ele>351.0</ele><time>2026-03-29T08:12:41Z</time></trkpt><trkpt lat="43.01204500952243" lon="12.097785104065444"><ele>352.0</ele><time>2026-03-29T08:12:42Z</time></trkpt><trkpt lat="43.012061076156705" lon="12.09770117036368"><ele>353.0</ele><time>2026-03-29T08:12:43Z</time></trkpt><trkpt lat="43.012077345721124" lon="12.097616176417901"><ele>354.0</ele><time>2026-03-29T08:12:44Z</time></trkpt><trkpt lat="43.012093502445374" lon="12.097531771976383"><ele>355.0</ele><time>2026-03-29T08:12:45Z</time></trkpt><trkpt lat="43.01211176916555" lon="12.097433603519642"><ele>356.0</ele><time>2026-03-29T08:12:46Z</time></trkpt><trkpt lat="43.01212711499078" lon="12.097336412564749"><ele>357.0</ele><time>2026-03-29T08:12:47Z</time></trkpt><trkpt lat="43.01212739658324" lon="12.097216243977247"><ele>358.6</ele><time>2026-03-29T08:12:48Z</time></trkpt><trkpt lat="43.01214205877601" lon="12.097086026078061"><ele>360.20000000000005</ele><time>2026-03-29T08:12:49Z</time></trkpt><trkpt lat="43.012138322860025" lon="12.09694237025556"><ele>361.8</ele><time>2026-03-29T08:12:50Z</time></trkpt><trkpt lat="43.01214325809629" lon="12.096802792723983"><ele>363.4</ele><time>2026-03-29T08:12:51Z</time></trkpt><trkpt lat="43.01216299411154" lon="12.096670926328477"><ele>365.0</ele><time>2026-03-29T08:12:52Z</time></trkpt><trkpt lat="43.01218090859382" lon="12.096548512770093"><ele>366.33333333333337</ele><time>2026-03-29T08:12:53Z</time></trkpt><trkpt lat="43.01220118938059" lon="12.096447326700147"><ele>367.6666666666667</ele><time>2026-03-29T08:12:54Z</time></trkpt><trkpt lat="43.01220596739741" lon="12.096345486689867"><ele>369.0</ele><time>2026-03-29T08:12:55Z</time></trkpt><trkpt lat="43.01221823554662" lon="12.096246585403089"><ele>370.3333333333333</ele><time>2026-03-29T08:12:56Z</time></trkpt><trkpt lat="43.012202472822544" lon="12.096159321200421"><ele>371.66666666666663</ele><time>2026-03-29T08:12:57Z</time></trkpt><trkpt lat="43.01217591324036" lon="12.09603770340522"><ele>373.0</ele><time>2026-03-29T08:12:58Z</time></trkpt><trkpt lat="43.0121505591392" lon="12.095926588179159"><ele>373.0</ele><time>2026-03-29T08:12:59Z</time></trkpt><trkpt lat="43.012113383656185" lon="12.095814727904118"><ele>373.0</ele><time>2026-03-29T08:13:00Z</time></trkpt><trkpt lat="43.012101068863636" lon="12.09570541715777"><ele>373.0</ele><time>2026-03-29T08:13:01Z</time></trkpt><trkpt lat="43.01208426821667" lon="12.095558049722952"><ele>373.0</ele><time>2026-03-29T08:13:03Z</time></trkpt><trkpt lat="43.012049298327966" lon="12.09541649188462"><ele>373.0</ele><time>2026-03-29T08:13:05Z</time></trkpt><trkpt lat="43.01188953197186" lon="12.095416293382632"><ele>376.2</ele><time>2026-03-29T08:13:09Z</time></trkpt><trkpt lat="43.0118247792846" lon="12.095443923518223"><ele>379.4</ele><time>2026-03-29T08:13:10Z</time></trkpt><trkpt lat="43.011731328376484" lon="12.095481199999814"><ele>382.59999999999997</ele><time>2026-03-29T08:13:11Z</time></trkpt><trkpt lat="43.01161466094985" lon="12.095514318983469"><ele>385.79999999999995</ele><time>2026-03-29T08:13:12Z</time></trkpt><trkpt lat="43.01148539231113" lon="12.095591199102849"><ele>389.0</ele><time>2026-03-29T08:13:13Z</time></trkpt><trkpt lat="43.01136897454283" lon="12.095668470915083"><ele>385.5</ele><time>2026-03-29T08:13:14Z</time></trkpt><trkpt lat="43.01126678569574" lon="12.0957768624025"><ele>382.0</ele><time>2026-03-29T08:13:15Z</time></trkpt><trkpt lat="43.01116523563668" lon="12.095883626513196"><ele>378.5</ele><time>2026-03-29T08:13:16Z</time></trkpt><trkpt lat="43.01105429970529" lon="12.09586152122395"><ele>375.0</ele><time>2026-03-29T08:13:17Z</time></trkpt><trkpt lat="43.01095866724254" lon="12.095829006263406"><ele>375.0</ele><time>2026-03-29T08:13:18Z</time></trkpt><trkpt lat="43.01086306790125" lon="12.095779566868849"><ele>375.0</ele><time>2026-03-29T08:13:19Z</time></trkpt><trkpt lat="43.01075980391559" lon="12.095708914492965"><ele>375.0</ele><time>2026-03-29T08:13:20Z</time></trkpt><trkpt lat="43.0106546539536" lon="12.09565461260864"><ele>375.0</ele><time>2026-03-29T08:13:21Z</time></trkpt><trkpt lat="43.01052748079992" lon="12.09563398152691"><ele>376.4</ele><time>2026-03-29T08:13:22Z</time></trkpt><trkpt lat="43.010412089979" lon="12.095640339360978"><ele>377.8</ele><time>2026-03-29T08:13:23Z</time></trkpt><trkpt lat="43.01030893783881" lon="12.095678789698587"><ele>379.20000000000005</ele><time>2026-03-29T08:13:24Z</time></trkpt><trkpt lat="43.0102031412707" lon="12.095714025412775"><ele>380.6</ele><time>2026-03-29T08:13:25Z</time></trkpt><trkpt lat="43.010097138950336" lon="12.095769667661305"><ele>382.0</ele><time>2026-03-29T08:13:26Z</time></trkpt><trkpt lat="43.010013255553574" lon="12.095729075198973"><ele>383.16666666666663</ele><time>2026-03-29T08:13:27Z</time></trkpt><trkpt lat="43.00992143886807" lon="12.095683326165826"><ele>384.3333333333333</ele><time>2026-03-29T08:13:28Z</time></trkpt><trkpt lat="43.00981674894237" lon="12.095644677358216"><ele>385.5</ele><time>2026-03-29T08:13:29Z</time></trkpt><trkpt lat="43.00974528530828" lon="12.095647959809432"><ele>386.66666666666663</ele><time>2026-03-29T08:13:30Z</time></trkpt><trkpt lat="43.00968596646025" lon="12.095704145703357"><ele>387.8333333333333</ele><time>2026-03-29T08:13:31Z</time></trkpt><trkpt lat="43.009627247977214" lon="12.095794572084737"><ele>389.0</ele><time>2026-03-29T08:13:32Z</time></trkpt><trkpt lat="43.009613659433626" lon="12.095898390078297"><ele>384.4</ele><time>2026-03-29T08:13:33Z</time></trkpt><trkpt lat="43.00958107240322" lon="12.096024339924487"><ele>379.79999999999995</ele><time>2026-03-29T08:13:34Z</time></trkpt><trkpt lat="43.0095338764684" lon="12.096133730900355"><ele>375.20000000000005</ele><time>2026-03-29T08:13:35Z</time></trkpt><trkpt lat="43.009493210533705" lon="12.096248268645942"><ele>370.6</ele><time>2026-03-29T08:13:36Z</time></trkpt><trkpt lat="43.00943038923047" lon="12.09634122141653"><ele>366.0</ele><time>2026-03-29T08:13:37Z</time></trkpt><trkpt lat="43.0093371708084" lon="12.096367634044269"><ele>366.0</ele><time>2026-03-29T08:13:38Z</time></trkpt><trkpt lat="43.00924119227132" lon="12.09640432672265"><ele>366.0</ele><time>2026-03-29T08:13:39Z</time></trkpt><trkpt lat="43.00913857114626" lon="12.096435930402365"><ele>366.0</ele><time>2026-03-29T08:13:40Z</time></trkpt><trkpt lat="43.00903680483415" lon="12.096467318121977"><ele>366.0</ele><time>2026-03-29T08:13:41Z</time></trkpt><trkpt lat="43.008920420766614" lon="12.09650178607448"><ele>366.0</ele><time>2026-03-29T08:13:42Z</time></trkpt><trkpt lat="43.00881306316903" lon="12.09654191589151"><ele>367.20000000000005</ele><time>2026-03-29T08:13:43Z</time></trkpt><trkpt lat="43.008714369929464" lon="12.096579506874612"><ele>368.40000000000003</ele><time>2026-03-29T08:13:44Z</time></trkpt><trkpt lat="43.0086195022225" lon="12.09662826351738"><ele>369.6</ele><time>2026-03-29T08:13:45Z</time></trkpt><trkpt lat="43.00854018497801" lon="12.096702230893388"><ele>370.8</ele><time>2026-03-29T08:13:46Z</time></trkpt><trkpt lat="43.00846812304688" lon="12.096760046681242"><ele>372.0</ele><time>2026-03-29T08:13:47Z</time></trkpt><trkpt lat="43.00840839321641" lon="12.09681738465031"><ele>372.0</ele><time>2026-03-29T08:13:48Z</time></trkpt><trkpt lat="43.00835406490963" lon="12.096863968281317"><ele>372.0</ele><time>2026-03-29T08:13:49Z</time></trkpt><trkpt lat="43.00828046916006" lon="12.096860631540354"><ele>372.0</ele><time>2026-03-29T08:13:51Z</time></trkpt><trkpt lat="43.00831233609727" lon="12.096753681355032"><ele>372.0</ele><time>2026-03-29T08:13:53Z</time></trkpt><trkpt lat="43.00837896810744" lon="12.09664446223886"><ele>372.0</ele><time>2026-03-29T08:13:55Z</time></trkpt><trkpt lat="43.0084538921749" lon="12.096610200477988"><ele>372.0</ele><time>2026-03-29T08:13:56Z</time></trkpt><trkpt lat="43.00855791718797" lon="12.096537138312135"><ele>372.0</ele><time>2026-03-29T08:13:57Z</time></trkpt><trkpt lat="43.00869984496157" lon="12.096446871280014"><ele>372.0</ele><time>2026-03-29T08:13:58Z</time></trkpt><trkpt lat="43.00882892546418" lon="12.09637067568067"><ele>372.0</ele><time>2026-03-29T08:13:59Z</time></trkpt><trkpt lat="43.008961894052796" lon="12.096319200832335"><ele>372.0</ele><time>2026-03-29T08:14:00Z</time></trkpt><trkpt lat="43.00906813678447" lon="12.096266294854392"><ele>370.5</ele><time>2026-03-29T08:14:01Z</time></trkpt><trkpt lat="43.009201975138566" lon="12.096212596376631"><ele>369.0</ele><time>2026-03-29T08:14:02Z</time></trkpt><trkpt lat="43.009319957720415" lon="12.096132804405775"><ele>367.5</ele><time>2026-03-29T08:14:03Z</time></trkpt><trkpt lat="43.0093994012709" lon="12.096032686319106"><ele>366.0</ele><time>2026-03-29T08:14:04Z</time></trkpt><trkpt lat="43.0094521421774" lon="12.095938095916773"><ele>366.0</ele><time>2026-03-29T08:14:05Z</time></trkpt><trkpt lat="43.009505085925554" lon="12.09586165126376"><ele>366.0</ele><time>2026-03-29T08:14:06Z</time></trkpt><trkpt lat="43.00950810430324" lon="12.095719534011977"><ele>366.0</ele><time>2026-03-29T08:14:08Z</time></trkpt><trkpt lat="43.00945967062807" lon="12.095644628800397"><ele>366.0</ele><time>2026-03-29T08:14:09Z</time></trkpt><trkpt lat="43.00938140098627" lon="12.095623621330203"><ele>366.0</ele><time>2026-03-29T08:14:10Z</time></trkpt><trkpt lat="43.009294820763735" lon="12.095650341319836"><ele>366.0</ele><time>2026-03-29T08:14:11Z</time></trkpt><trkpt lat="43.00919628015155" lon="12.09561779794481"><ele>369.5</ele><time>2026-03-29T08:14:13Z</time></trkpt><trkpt lat="43.00915354716998" lon="12.095535782935299"><ele>373.0</ele><time>2026-03-29T08:14:16Z</time></trkpt><trkpt lat="43.00923995074069" lon="12.095435946709172"><ele>376.5</ele><time>2026-03-29T08:14:17Z</time></trkpt><trkpt lat="43.00930299028904" lon="12.095414137388442"><ele>380.0</ele><time>2026-03-29T08:14:18Z</time></trkpt><trkpt lat="43.00936637918218" lon="12.095354748748672"><ele>383.5</ele><time>2026-03-29T08:14:19Z</time></trkpt><trkpt lat="43.00940967876385" lon="12.095255054555478"><ele>387.0</ele><time>2026-03-29T08:14:20Z</time></trkpt><trkpt lat="43.009433004493026" lon="12.09515465183077"><ele>387.40000000000003</ele><time>2026-03-29T08:14:21Z</time></trkpt><trkpt lat="43.00945656101619" lon="12.095073079186509"><ele>387.8</ele><time>2026-03-29T08:14:22Z</time></trkpt><trkpt lat="43.00948470030425" lon="12.094959970670654"><ele>388.2</ele><time>2026-03-29T08:14:23Z</time></trkpt><trkpt lat="43.00951638797724" lon="12.094834248108736"><ele>388.6</ele><time>2026-03-29T08:14:24Z</time></trkpt><trkpt lat="43.00957008440934" lon="12.094702142590819"><ele>389.0</ele><time>2026-03-29T08:14:25Z</time></trkpt><trkpt lat="43.009614025606744" lon="12.094582119607553"><ele>392.6</ele><time>2026-03-29T08:14:26Z</time></trkpt><trkpt lat="43.009668717565276" lon="12.094449830259007"><ele>396.2</ele><time>2026-03-29T08:14:27Z</time></trkpt><trkpt lat="43.00971120814395" lon="12.094320548928101"><ele>399.8</ele><time>2026-03-29T08:14:28Z</time></trkpt><trkpt lat="43.009775741268015" lon="12.094199059568018"><ele>403.40000000000003</ele><time>2026-03-29T08:14:29Z</time></trkpt><trkpt lat="43.00983970581904" lon="12.094093121342203"><ele>407.0</ele><time>2026-03-29T08:14:30Z</time></trkpt><trkpt lat="43.00994623044886" lon="12.094060080083745"><ele>406.0</ele><time>2026-03-29T08:14:32Z</time></trkpt><trkpt lat="43.01003046960364" lon="12.094130001463846"><ele>405.0</ele><time>2026-03-29T08:14:33Z</time></trkpt><trkpt lat="43.01009111700671" lon="12.094215850824709"><ele>404.0</ele><time>2026-03-29T08:14:34Z</time></trkpt><trkpt lat="43.01016963692478" lon="12.09430670455862"><ele>403.0</ele><time>2026-03-29T08:14:35Z</time></trkpt><trkpt lat="43.01024928791429" lon="12.094367080031706"><ele>402.0</ele><time>2026-03-29T08:14:36Z</time></trkpt><trkpt lat="43.01034521454127" lon="12.094347403002082"><ele>402.0</ele><time>2026-03-29T08:14:37Z</time></trkpt><trkpt lat="43.01043915698226" lon="12.094332031395142"><ele>402.0</ele><time>2026-03-29T08:14:38Z</time></trkpt><trkpt lat="43.01053311340696" lon="12.094322027188952"><ele>402.0</ele><time>2026-03-29T08:14:39Z</time></trkpt><trkpt lat="43.01063717406472" lon="12.094322294687192"><ele>402.0</ele><time>2026-03-29T08:14:40Z</time></trkpt><trkpt lat="43.01072965429512" lon="12.094314243406698"><ele>402.0</ele><time>2026-03-29T08:14:41Z</time></trkpt><trkpt lat="43.01082135633642" lon="12.094296055128769"><ele>403.5</ele><time>2026-03-29T08:14:42Z</time></trkpt><trkpt lat="43.010905076925454" lon="12.094280078332112"><ele>405.0</ele><time>2026-03-29T08:14:43Z</time></trkpt><trkpt lat="43.010987460944435" lon="12.094256898407819"><ele>406.5</ele><time>2026-03-29T08:14:44Z</time></trkpt><trkpt lat="43.0110735229585" lon="12.094236016158014"><ele>408.0</ele><time>2026-03-29T08:14:45Z</time></trkpt><trkpt lat="43.01116103902146" lon="12.094220167915982"><ele>409.5</ele><time>2026-03-29T08:14:46Z</time></trkpt><trkpt lat="43.01125640840928" lon="12.094205934481112"><ele>411.0</ele><time>2026-03-29T08:14:47Z</time></trkpt><trkpt lat="43.01134330906625" lon="12.09419801635301"><ele>411.0</ele><time>2026-03-29T08:14:48Z</time></trkpt><trkpt lat="43.011425951824364" lon="12.094175415987168"><ele>411.0</ele><time>2026-03-29T08:14:49Z</time></trkpt><trkpt lat="43.011502239984864" lon="12.094132786054706"><ele>411.0</ele><time>2026-03-29T08:14:50Z</time></trkpt><trkpt lat="43.01157154104349" lon="12.094068936300188"><ele>411.0</ele><time>2026-03-29T08:14:51Z</time></trkpt><trkpt lat="43.011616783439244" lon="12.09398594988952"><ele>411.0</ele><time>2026-03-29T08:14:52Z</time></trkpt><trkpt lat="43.011650908241286" lon="12.093900782319256"><ele>411.0</ele><time>2026-03-29T08:14:53Z</time></trkpt><trkpt lat="43.01164806668581" lon="12.093732234611247"><ele>415.0</ele><time>2026-03-29T08:14:55Z</time></trkpt><trkpt lat="43.011605120647154" lon="12.093545442756533"><ele>419.0</ele><time>2026-03-29T08:14:57Z</time></trkpt><trkpt lat="43.011574626446446" lon="12.093457813827175"><ele>423.0</ele><time>2026-03-29T08:14:58Z</time></trkpt><trkpt lat="43.011545299216834" lon="12.093359970032617"><ele>427.0</ele><time>2026-03-29T08:14:59Z</time></trkpt><trkpt lat="43.01151771462974" lon="12.093260199932486"><ele>431.0</ele><time>2026-03-29T08:15:00Z</time></trkpt><trkpt lat="43.01147687123625" lon="12.093118366084006"><ele>434.6</ele><time>2026-03-29T08:15:02Z</time></trkpt><trkpt lat="43.011465570538725" lon="12.093030072021286"><ele>438.20000000000005</ele><time>2026-03-29T08:15:03Z</time></trkpt><trkpt lat="43.01142829262237" lon="12.092923112392032"><ele>441.79999999999995</ele><time>2026-03-29T08:15:04Z</time></trkpt><trkpt lat="43.011390925970346" lon="12.092839261744302"><ele>445.4</ele><time>2026-03-29T08:15:05Z</time></trkpt><trkpt lat="43.0113268883952" lon="12.092688547832244"><ele>449.0</ele><time>2026-03-29T08:15:07Z</time></trkpt><trkpt lat="43.01126420697762" lon="12.092550297077816"><ele>451.6</ele><time>2026-03-29T08:15:09Z</time></trkpt><trkpt lat="43.011203636080964" lon="12.092400450918023"><ele>454.2</ele><time>2026-03-29T08:15:11Z</time></trkpt><trkpt lat="43.01116208635607" lon="12.092315034853485"><ele>456.80000000000007</ele><time>2026-03-29T08:15:12Z</time></trkpt><trkpt lat="43.01110683274203" lon="12.092232129558845"><ele>459.40000000000003</ele><time>2026-03-29T08:15:13Z</time></trkpt><trkpt lat="43.0110789154118" lon="12.092148225492751"><ele>462.0</ele><time>2026-03-29T08:15:14Z</time></trkpt><trkpt lat="43.011134801572524" lon="12.092008166364884"><ele>462.0</ele><time>2026-03-29T08:15:16Z</time></trkpt><trkpt lat="43.01120412427166" lon="12.091991515749735"><ele>462.0</ele><time>2026-03-29T08:15:17Z</time></trkpt><trkpt lat="43.011287278988604" lon="12.091997803617732"><ele>462.0</ele><time>2026-03-29T08:15:18Z</time></trkpt><trkpt lat="43.011336113511476" lon="12.091897148394596"><ele>462.0</ele><time>2026-03-29T08:15:22Z</time></trkpt><trkpt lat="43.01139455224968" lon="12.091827269028853"><ele>462.0</ele><time>2026-03-29T08:15:24Z</time></trkpt><trkpt lat="43.01147429639499" lon="12.091777185434395"><ele>462.0</ele><time>2026-03-29T08:15:25Z</time></trkpt><trkpt lat="43.0115567563626" lon="12.091704061378438"><ele>462.0</ele><time>2026-03-29T08:15:26Z</time></trkpt><trkpt lat="43.011633549916695" lon="12.09165047690091"><ele>462.0</ele><time>2026-03-29T08:15:27Z</time></trkpt><trkpt lat="43.011698690464016" lon="12.091602174205047"><ele>462.0</ele><time>2026-03-29T08:15:28Z</time></trkpt><trkpt lat="43.01177031661334" lon="12.091486432716577"><ele>462.0</ele><time>2026-03-29T08:15:30Z</time></trkpt><trkpt lat="43.01180035858957" lon="12.091410697166385"><ele>462.0</ele><time>2026-03-29T08:15:31Z</time></trkpt><trkpt lat="43.01182193613551" lon="12.091318858858676"><ele>462.0</ele><time>2026-03-29T08:15:33Z</time></trkpt><trkpt lat="43.01181354586175" lon="12.091405609099024"><ele>460.1666666666667</ele><time>2026-03-29T08:16:06Z</time></trkpt><trkpt lat="43.01178651251505" lon="12.091495249188233"><ele>458.33333333333337</ele><time>2026-03-29T08:16:14Z</time></trkpt><trkpt lat="43.0117945984673" lon="12.09139720401557"><ele>456.5</ele><time>2026-03-29T08:17:33Z</time></trkpt><trkpt lat="43.01179148676939" lon="12.091289636468039"><ele>454.6666666666667</ele><time>2026-03-29T08:17:38Z</time></trkpt><trkpt lat="43.01180749420375" lon="12.091401950073642"><ele>452.83333333333337</ele><time>2026-03-29T08:17:50Z</time></trkpt><trkpt lat="43.01173796148639" lon="12.091475659457751"><ele>451.0</ele><time>2026-03-29T08:17:54Z</time></trkpt><trkpt lat="43.01167908883753" lon="12.091591448476148"><ele>452.57142857142856</ele><time>2026-03-29T08:17:57Z</time></trkpt><trkpt lat="43.011611642035625" lon="12.091622422035364"><ele>454.14285714285717</ele><time>2026-03-29T08:17:59Z</time></trkpt><trkpt lat="43.01155310536445" lon="12.091688675028475"><ele>455.7142857142857</ele><time>2026-03-29T08:18:00Z</time></trkpt><trkpt lat="43.01150962952918" lon="12.091751175829234"><ele>457.2857142857143</ele><time>2026-03-29T08:18:03Z</time></trkpt><trkpt lat="43.0114534251089" lon="12.091808097679559"><ele>458.8571428571429</ele><time>2026-03-29T08:18:05Z</time></trkpt><trkpt lat="43.011402917737044" lon="12.091871599039957"><ele>460.42857142857144</ele><time>2026-03-29T08:18:07Z</time></trkpt><trkpt lat="43.0114063278379" lon="12.09199004526296"><ele>462.0</ele><time>2026-03-29T08:18:11Z</time></trkpt><trkpt lat="43.01145349101015" lon="12.092048075335459"><ele>462.0</ele><time>2026-03-29T08:18:12Z</time></trkpt><trkpt lat="43.01147951648079" lon="12.092139092214966"><ele>462.00000000000006</ele><time>2026-03-29T08:18:13Z</time></trkpt><trkpt lat="43.011471122253454" lon="12.092249616919664"><ele>462.00000000000006</ele><time>2026-03-29T08:18:14Z</time></trkpt><trkpt lat="43.01145628962982" lon="12.092409939233187"><ele>462.0</ele><time>2026-03-29T08:18:16Z</time></trkpt><trkpt lat="43.01142872438818" lon="12.09256194362839"><ele>462.0</ele><time>2026-03-29T08:18:17Z</time></trkpt><trkpt lat="43.011416737587666" lon="12.092683046612377"><ele>459.8333333333333</ele><time>2026-03-29T08:18:18Z</time></trkpt><trkpt lat="43.011438491084476" lon="12.092781656185748"><ele>457.66666666666663</ele><time>2026-03-29T08:18:19Z</time></trkpt><trkpt lat="43.011473855473376" lon="12.092919025918743"><ele>455.5</ele><time>2026-03-29T08:18:21Z</time></trkpt><trkpt lat="43.01149098741485" lon="12.093042205298957"><ele>453.3333333333333</ele><time>2026-03-29T08:18:23Z</time></trkpt><trkpt lat="43.01148625129197" lon="12.093159477008692"><ele>451.16666666666663</ele><time>2026-03-29T08:19:00Z</time></trkpt><trkpt lat="43.0114653997285" lon="12.093072476257538"><ele>449.0</ele><time>2026-03-29T08:19:53Z</time></trkpt><trkpt lat="43.011484033975236" lon="12.093156067492401"><ele>448.99999999999994</ele><time>2026-03-29T08:20:25Z</time></trkpt><trkpt lat="43.01154790611693" lon="12.093163984726218"><ele>449.0</ele><time>2026-03-29T08:20:37Z</time></trkpt><trkpt lat="43.011485640421604" lon="12.093102264068312"><ele>449.0</ele><time>2026-03-29T08:20:45Z</time></trkpt><trkpt lat="43.01144245837004" lon="12.092978481964643"><ele>449.0</ele><time>2026-03-29T08:20:49Z</time></trkpt><trkpt lat="43.0114204976126" lon="12.092888347061837"><ele>448.99999999999994</ele><time>2026-03-29T08:20:51Z</time></trkpt><trkpt lat="43.01136184119348" lon="12.092831991811984"><ele>449.0</ele><time>2026-03-29T08:20:52Z</time></trkpt><trkpt lat="43.011351055563665" lon="12.092730324208294"><ele>448.99999999999994</ele><time>2026-03-29T08:20:54Z</time></trkpt><trkpt lat="43.01132798932162" lon="12.092636436956482"><ele>449.0</ele><time>2026-03-29T08:20:57Z</time></trkpt><trkpt lat="43.011370011903495" lon="12.092556399527673"><ele>449.0</ele><time>2026-03-29T08:20:59Z</time></trkpt><trkpt lat="43.01138498207218" lon="12.092456820229357"><ele>449.0</ele><time>2026-03-29T08:21:02Z</time></trkpt><trkpt lat="43.01140630278914" lon="12.092351219958585"><ele>448.99999999999994</ele><time>2026-03-29T08:21:05Z</time></trkpt><trkpt lat="43.01135827219558" lon="12.092287148399201"><ele>449.0</ele><time>2026-03-29T08:21:07Z</time></trkpt><trkpt lat="43.011366534816496" lon="12.092113796492905"><ele>449.2857142857143</ele><time>2026-03-29T08:21:09Z</time></trkpt><trkpt lat="43.011411895181645" lon="12.092036227618383"><ele>449.57142857142856</ele><time>2026-03-29T08:21:12Z</time></trkpt><trkpt lat="43.01145015533189" lon="12.091960036570304"><ele>449.85714285714283</ele><time>2026-03-29T08:21:14Z</time></trkpt><trkpt lat="43.01147693758688" lon="12.091882086740464"><ele>450.1428571428571</ele><time>2026-03-29T08:21:17Z</time></trkpt><trkpt lat="43.011521853919206" lon="12.091820441489222"><ele>450.42857142857144</ele><time>2026-03-29T08:21:23Z</time></trkpt><trkpt lat="43.01156414693043" lon="12.091753305018063"><ele>450.71428571428567</ele><time>2026-03-29T08:21:29Z</time></trkpt><trkpt lat="43.011652902794005" lon="12.091688734368825"><ele>451.0</ele><time>2026-03-29T08:21:38Z</time></trkpt><trkpt lat="43.01169715396702" lon="12.09159819966181"><ele>455.6</ele><time>2026-03-29T08:21:40Z</time></trkpt><trkpt lat="43.01177821256244" lon="12.091433397630368"><ele>460.20000000000005</ele><time>2026-03-29T08:21:42Z</time></trkpt><trkpt lat="43.01177619428744" lon="12.091331091245209"><ele>464.79999999999995</ele><time>2026-03-29T08:21:44Z</time></trkpt><trkpt lat="43.011640097985" lon="12.091313472667519"><ele>469.4</ele><time>2026-03-29T08:21:46Z</time></trkpt><trkpt lat="43.01155724885561" lon="12.09129824853169"><ele>474.0</ele><time>2026-03-29T08:21:47Z</time></trkpt><trkpt lat="43.01149247298787" lon="12.09129586099205"><ele>475.1428571428571</ele><time>2026-03-29T08:21:48Z</time></trkpt><trkpt lat="43.011430380106155" lon="12.091280898388892"><ele>476.2857142857143</ele><time>2026-03-29T08:21:49Z</time></trkpt><trkpt lat="43.011358529897095" lon="12.091275724155649"><ele>477.42857142857144</ele><time>2026-03-29T08:21:50Z</time></trkpt><trkpt lat="43.01128155737025" lon="12.091264186032129"><ele>478.57142857142856</ele><time>2026-03-29T08:21:51Z</time></trkpt><trkpt lat="43.01122018224105" lon="12.09124474821482"><ele>479.7142857142858</ele><time>2026-03-29T08:21:52Z</time></trkpt><trkpt lat="43.011161454237346" lon="12.091278501423846"><ele>480.8571428571429</ele><time>2026-03-29T08:21:53Z</time></trkpt><trkpt lat="43.01108383515882" lon="12.091293615769663"><ele>482.0</ele><time>2026-03-29T08:21:54Z</time></trkpt><trkpt lat="43.011010767163455" lon="12.091292196583103"><ele>481.99999999999994</ele><time>2026-03-29T08:21:55Z</time></trkpt><trkpt lat="43.01087317178918" lon="12.09126243420332"><ele>482.0</ele><time>2026-03-29T08:21:57Z</time></trkpt><trkpt lat="43.01080532474995" lon="12.091258033181962"><ele>482.0</ele><time>2026-03-29T08:21:58Z</time></trkpt><trkpt lat="43.01072328416478" lon="12.09125092886436"><ele>482.0</ele><time>2026-03-29T08:21:59Z</time></trkpt><trkpt lat="43.01065123132133" lon="12.09124038154314"><ele>481.99999999999994</ele><time>2026-03-29T08:22:00Z</time></trkpt><trkpt lat="43.01058372685018" lon="12.09121155653067"><ele>482.0</ele><time>2026-03-29T08:22:01Z</time></trkpt><trkpt lat="43.01052368800579" lon="12.091167276308534"><ele>483.5</ele><time>2026-03-29T08:22:02Z</time></trkpt><trkpt lat="43.01047242807192" lon="12.091022435335788"><ele>485.0</ele><time>2026-03-29T08:22:04Z</time></trkpt><trkpt lat="43.0104299930548" lon="12.090898064373228"><ele>486.5</ele><time>2026-03-29T08:22:06Z</time></trkpt><trkpt lat="43.01038440992022" lon="12.09074465261328"><ele>488.0</ele><time>2026-03-29T08:22:08Z</time></trkpt><trkpt lat="43.010330881607835" lon="12.090612036135274"><ele>488.0</ele><time>2026-03-29T08:22:10Z</time></trkpt><trkpt lat="43.01026907005858" lon="12.090486335854605"><ele>487.99999999999994</ele><time>2026-03-29T08:22:12Z</time></trkpt><trkpt lat="43.01020162861856" lon="12.090387244069882"><ele>487.99999999999994</ele><time>2026-03-29T08:22:14Z</time></trkpt><trkpt lat="43.010143615621196" lon="12.090269913212403"><ele>488.0</ele><time>2026-03-29T08:22:16Z</time></trkpt><trkpt lat="43.01007066675363" lon="12.090150622751025"><ele>488.0</ele><time>2026-03-29T08:22:18Z</time></trkpt><trkpt lat="43.01002619824195" lon="12.090088354093787"><ele>485.79999999999995</ele><time>2026-03-29T08:22:19Z</time></trkpt><trkpt lat="43.00993574880855" lon="12.089974794538687"><ele>483.59999999999997</ele><time>2026-03-29T08:22:21Z</time></trkpt><trkpt lat="43.009884983557676" lon="12.08990752637923"><ele>481.40000000000003</ele><time>2026-03-29T08:22:22Z</time></trkpt><trkpt lat="43.00982952534751" lon="12.089844469504389"><ele>479.20000000000005</ele><time>2026-03-29T08:22:23Z</time></trkpt><trkpt lat="43.00977939427217" lon="12.089778012848958"><ele>477.0</ele><time>2026-03-29T08:22:24Z</time></trkpt><trkpt lat="43.009677626510104" lon="12.089675195552351"><ele>481.0</ele><time>2026-03-29T08:22:26Z</time></trkpt><trkpt lat="43.00961357283453" lon="12.089625932072215"><ele>485.0</ele><time>2026-03-29T08:22:27Z</time></trkpt><trkpt lat="43.009551089135314" lon="12.089594196129179"><ele>489.0</ele><time>2026-03-29T08:22:28Z</time></trkpt><trkpt lat="43.00944553045002" lon="12.089528327049347"><ele>493.0</ele><time>2026-03-29T08:22:30Z</time></trkpt><trkpt lat="43.00937949717219" lon="12.089498605057724"><ele>497.0</ele><time>2026-03-29T08:22:31Z</time></trkpt><trkpt lat="43.009313106018446" lon="12.089480938302339"><ele>501.0</ele><time>2026-03-29T08:22:32Z</time></trkpt><trkpt lat="43.00923779026812" lon="12.089492243453202"><ele>499.6666666666667</ele><time>2026-03-29T08:22:33Z</time></trkpt><trkpt lat="43.00911298362147" lon="12.089432784089558"><ele>498.33333333333337</ele><time>2026-03-29T08:22:35Z</time></trkpt><trkpt lat="43.00905505682904" lon="12.089380548258829"><ele>497.0</ele><time>2026-03-29T08:22:36Z</time></trkpt><trkpt lat="43.00899790307242" lon="12.089311875966619"><ele>495.6666666666667</ele><time>2026-03-29T08:22:37Z</time></trkpt><trkpt lat="43.00893562787569" lon="12.089267822522787"><ele>494.33333333333337</ele><time>2026-03-29T08:22:38Z</time></trkpt><trkpt lat="43.008879314386355" lon="12.089217068838638"><ele>493.0</ele><time>2026-03-29T08:22:39Z</time></trkpt><trkpt lat="43.0087910802923" lon="12.089109628111563"><ele>494.0</ele><time>2026-03-29T08:22:41Z</time></trkpt><trkpt lat="43.008717760174335" lon="12.088979244125444"><ele>494.99999999999994</ele><time>2026-03-29T08:22:43Z</time></trkpt><trkpt lat="43.008698551167456" lon="12.088895651488924"><ele>495.99999999999994</ele><time>2026-03-29T08:22:44Z</time></trkpt><trkpt lat="43.00869194858312" lon="12.088701437353853"><ele>497.0</ele><time>2026-03-29T08:22:46Z</time></trkpt><trkpt lat="43.008698761506494" lon="12.088603122821098"><ele>498.0</ele><time>2026-03-29T08:22:47Z</time></trkpt><trkpt lat="43.00869892553163" lon="12.088459857783011"><ele>498.0</ele><time>2026-03-29T08:22:49Z</time></trkpt><trkpt lat="43.008755677325816" lon="12.088390641398071"><ele>497.99999999999994</ele><time>2026-03-29T08:22:51Z</time></trkpt><trkpt lat="43.00889678169141" lon="12.088340160683927"><ele>497.99999999999994</ele><time>2026-03-29T08:24:14Z</time></trkpt><trkpt lat="43.00899374854635" lon="12.088322138697247"><ele>498.0</ele><time>2026-03-29T08:24:16Z</time></trkpt><trkpt lat="43.00906449479404" lon="12.088289731569692"><ele>498.0</ele><time>2026-03-29T08:24:17Z</time></trkpt><trkpt lat="43.00913222133086" lon="12.088241186535635"><ele>498.8333333333333</ele><time>2026-03-29T08:24:18Z</time></trkpt><trkpt lat="43.009195791196376" lon="12.088195343361416"><ele>499.66666666666663</ele><time>2026-03-29T08:24:19Z</time></trkpt><trkpt lat="43.00926794042412" lon="12.088162464429962"><ele>500.5</ele><time>2026-03-29T08:24:20Z</time></trkpt><trkpt lat="43.00933392533408" lon="12.088142767500933"><ele>501.3333333333333</ele><time>2026-03-29T08:24:21Z</time></trkpt><trkpt lat="43.00940467803308" lon="12.08813070120255"><ele>502.16666666666663</ele><time>2026-03-29T08:24:22Z</time></trkpt><trkpt lat="43.009504296129705" lon="12.088058779415505"><ele>503.0</ele><time>2026-03-29T08:24:24Z</time></trkpt><trkpt lat="43.00957410337083" lon="12.087953523115315"><ele>503.0</ele><time>2026-03-29T08:24:26Z</time></trkpt><trkpt lat="43.009687312248936" lon="12.087908043693806"><ele>502.99999999999994</ele><time>2026-03-29T08:24:28Z</time></trkpt><trkpt lat="43.00981459945454" lon="12.08797167067639"><ele>502.99999999999994</ele><time>2026-03-29T08:24:30Z</time></trkpt><trkpt lat="43.00988090395745" lon="12.088013403766867"><ele>503.0</ele><time>2026-03-29T08:24:31Z</time></trkpt><trkpt lat="43.009978818783836" lon="12.088081217660518"><ele>503.0</ele><time>2026-03-29T08:24:33Z</time></trkpt><trkpt lat="43.01003403474049" lon="12.088125015841776"><ele>507.0</ele><time>2026-03-29T08:24:35Z</time></trkpt><trkpt lat="43.0100923018787" lon="12.088162585282474"><ele>510.99999999999994</ele><time>2026-03-29T08:24:37Z</time></trkpt><trkpt lat="43.01021759382457" lon="12.088214173949433"><ele>515.0</ele><time>2026-03-29T08:24:39Z</time></trkpt><trkpt lat="43.01028703715887" lon="12.088262161144494"><ele>519.0</ele><time>2026-03-29T08:24:40Z</time></trkpt><trkpt lat="43.01037442963988" lon="12.088331869774885"><ele>523.0</ele><time>2026-03-29T08:24:42Z</time></trkpt><trkpt lat="43.010483850583206" lon="12.088417531063598"><ele>523.0</ele><time>2026-03-29T08:24:44Z</time></trkpt><trkpt lat="43.010545427107" lon="12.088451966049686"><ele>523.0</ele><time>2026-03-29T08:24:45Z</time></trkpt><trkpt lat="43.01064654607494" lon="12.08855401032709"><ele>523.0</ele><time>2026-03-29T08:24:47Z</time></trkpt><trkpt lat="43.01076230641217" lon="12.088578116389264"><ele>523.0</ele><time>2026-03-29T08:24:49Z</time></trkpt><trkpt lat="43.01085165818619" lon="12.088551298473122"><ele>523.0</ele><time>2026-03-29T08:24:53Z</time></trkpt><trkpt lat="43.010924926213775" lon="12.08850804605469"><ele>525.4</ele><time>2026-03-29T08:24:55Z</time></trkpt><trkpt lat="43.01099339003788" lon="12.088423159072166"><ele>527.8</ele><time>2026-03-29T08:25:01Z</time></trkpt><trkpt lat="43.011065620839545" lon="12.088311664086989"><ele>530.2</ele><time>2026-03-29T08:25:03Z</time></trkpt><trkpt lat="43.01112250173727" lon="12.088224797303845"><ele>532.6</ele><time>2026-03-29T08:25:04Z</time></trkpt><trkpt lat="43.011220222226136" lon="12.088150384596323"><ele>535.0</ele><time>2026-03-29T08:25:05Z</time></trkpt><trkpt lat="43.01129348046932" lon="12.08808118939692"><ele>536.5</ele><time>2026-03-29T08:25:06Z</time></trkpt><trkpt lat="43.011367150461375" lon="12.088001288771792"><ele>538.0</ele><time>2026-03-29T08:25:07Z</time></trkpt><trkpt lat="43.01143171676974" lon="12.08792343680461"><ele>539.5</ele><time>2026-03-29T08:25:08Z</time></trkpt><trkpt lat="43.01148759148917" lon="12.087845187890633"><ele>541.0</ele><time>2026-03-29T08:25:09Z</time></trkpt><trkpt lat="43.0115415083402" lon="12.087774224764537"><ele>542.5</ele><time>2026-03-29T08:25:10Z</time></trkpt><trkpt lat="43.01159824359618" lon="12.087702252242059"><ele>544.0</ele><time>2026-03-29T08:25:11Z</time></trkpt><trkpt lat="43.01166234711326" lon="12.087633875066583"><ele>544.1666666666667</ele><time>2026-03-29T08:25:12Z</time></trkpt><trkpt lat="43.011715976563444" lon="12.087557516793705"><ele>544.3333333333334</ele><time>2026-03-29T08:25:13Z</time></trkpt><trkpt lat="43.011767216784456" lon="12.087482926792315"><ele>544.5</ele><time>2026-03-29T08:25:14Z</time></trkpt><trkpt lat="43.0118327973441" lon="12.087395471758832"><ele>544.6666666666666</ele><time>2026-03-29T08:25:15Z</time></trkpt><trkpt lat="43.011887330035044" lon="12.087306246596587"><ele>544.8333333333333</ele><time>2026-03-29T08:25:16Z</time></trkpt><trkpt lat="43.01194509439592" lon="12.087228430939668"><ele>545.0</ele><time>2026-03-29T08:25:17Z</time></trkpt><trkpt lat="43.01199034113046" lon="12.08714592738392"><ele>546.0</ele><time>2026-03-29T08:25:18Z</time></trkpt><trkpt lat="43.01204208631578" lon="12.087082475979528"><ele>547.0</ele><time>2026-03-29T08:25:19Z</time></trkpt><trkpt lat="43.01209895377457" lon="12.087005053772142"><ele>548.0</ele><time>2026-03-29T08:25:20Z</time></trkpt><trkpt lat="43.01216194446548" lon="12.086920125564358"><ele>549.0</ele><time>2026-03-29T08:25:21Z</time></trkpt><trkpt lat="43.01221250214697" lon="12.086842885934962"><ele>550.0</ele><time>2026-03-29T08:25:22Z</time></trkpt><trkpt lat="43.01226781419716" lon="12.0867643019272"><ele>551.0</ele><time>2026-03-29T08:25:23Z</time></trkpt><trkpt lat="43.012323388647694" lon="12.086692949258195"><ele>551.0</ele><time>2026-03-29T08:25:24Z</time></trkpt><trkpt lat="43.01237692999667" lon="12.086630862048"><ele>551.0</ele><time>2026-03-29T08:25:25Z</time></trkpt><trkpt lat="43.01246159279635" lon="12.086520704666546"><ele>551.0</ele><time>2026-03-29T08:25:27Z</time></trkpt><trkpt lat="43.01252511231115" lon="12.086455736441613"><ele>551.0</ele><time>2026-03-29T08:25:28Z</time></trkpt><trkpt lat="43.01263820425216" lon="12.08636103687559"><ele>551.0</ele><time>2026-03-29T08:25:30Z</time></trkpt><trkpt lat="43.0127015347621" lon="12.086262632910874"><ele>549.6</ele><time>2026-03-29T08:25:32Z</time></trkpt><trkpt lat="43.012790662365354" lon="12.086152964881801"><ele>548.2</ele><time>2026-03-29T08:25:34Z</time></trkpt><trkpt lat="43.012856873340446" lon="12.086036675367005"><ele>546.8</ele><time>2026-03-29T08:25:36Z</time></trkpt><trkpt lat="43.01289207794842" lon="12.08594411513315"><ele>545.4</ele><time>2026-03-29T08:25:38Z</time></trkpt><trkpt lat="43.01299287537615" lon="12.085896778765347"><ele>544.0</ele><time>2026-03-29T08:25:40Z</time></trkpt><trkpt lat="43.01305995677312" lon="12.08587257959541"><ele>544.0</ele><time>2026-03-29T08:25:41Z</time></trkpt><trkpt lat="43.01315936076333" lon="12.085795327064512"><ele>544.0</ele><time>2026-03-29T08:25:43Z</time></trkpt><trkpt lat="43.01322933698727" lon="12.085766001254738"><ele>544.0</ele><time>2026-03-29T08:25:45Z</time></trkpt><trkpt lat="43.013298441471" lon="12.085792049608878"><ele>544.0</ele><time>2026-03-29T08:25:47Z</time></trkpt><trkpt lat="43.01335992950073" lon="12.085752807742127"><ele>544.0</ele><time>2026-03-29T08:25:56Z</time></trkpt><trkpt lat="43.01344146975887" lon="12.085714325370546"><ele>544.0</ele><time>2026-03-29T08:25:57Z</time></trkpt><trkpt lat="43.013503311648684" lon="12.085684322651204"><ele>546.2</ele><time>2026-03-29T08:25:58Z</time></trkpt><trkpt lat="43.01362776551931" lon="12.085638846109124"><ele>548.4</ele><time>2026-03-29T08:26:00Z</time></trkpt><trkpt lat="43.013694929171955" lon="12.0856379016548"><ele>550.6</ele><time>2026-03-29T08:26:01Z</time></trkpt><trkpt lat="43.0137738483042" lon="12.085642223414155"><ele>552.8</ele><time>2026-03-29T08:26:02Z</time></trkpt><trkpt lat="43.013911821554274" lon="12.085662765077894"><ele>555.0</ele><time>2026-03-29T08:26:04Z</time></trkpt><trkpt lat="43.01399706194757" lon="12.085716245987031"><ele>554.2</ele><time>2026-03-29T08:26:05Z</time></trkpt><trkpt lat="43.01405923528818" lon="12.085831593347425"><ele>553.4</ele><time>2026-03-29T08:26:06Z</time></trkpt><trkpt lat="43.01411172170385" lon="12.08593496758704"><ele>552.6</ele><time>2026-03-29T08:26:07Z</time></trkpt><trkpt lat="43.0141565213752" lon="12.086035008832102"><ele>551.8</ele><time>2026-03-29T08:26:08Z</time></trkpt><trkpt lat="43.014212577313224" lon="12.086122822734305"><ele>551.0</ele><time>2026-03-29T08:26:09Z</time></trkpt><trkpt lat="43.01431748349443" lon="12.086260169316594"><ele>551.0</ele><time>2026-03-29T08:26:11Z</time></trkpt><trkpt lat="43.01438298281611" lon="12.0863428342455"><ele>551.0</ele><time>2026-03-29T08:26:12Z</time></trkpt><trkpt lat="43.014468490863955" lon="12.086394092265829"><ele>551.0</ele><time>2026-03-29T08:26:13Z</time></trkpt><trkpt lat="43.01455407964089" lon="12.086434637521137"><ele>551.0</ele><time>2026-03-29T08:26:14Z</time></trkpt><trkpt lat="43.01461932075943" lon="12.086488886749997"><ele>551.0</ele><time>2026-03-29T08:26:15Z</time></trkpt><trkpt lat="43.01468591409311" lon="12.0865124161477"><ele>551.0</ele><time>2026-03-29T08:26:16Z</time></trkpt><trkpt lat="43.014764273420646" lon="12.08652143010839"><ele>551.0</ele><time>2026-03-29T08:26:17Z</time></trkpt><trkpt lat="43.014841061246194" lon="12.086513124112914"><ele>551.0</ele><time>2026-03-29T08:26:18Z</time></trkpt><trkpt lat="43.01490797184283" lon="12.086475969975892"><ele>551.0</ele><time>2026-03-29T08:26:19Z</time></trkpt><trkpt lat="43.0149739490131" lon="12.086427069712904"><ele>551.0</ele><time>2026-03-29T08:26:20Z</time></trkpt><trkpt lat="43.01504498979722" lon="12.086354802378011"><ele>551.0</ele><time>2026-03-29T08:26:21Z</time></trkpt><trkpt lat="43.015116059327255" lon="12.086324102193206"><ele>551.0</ele><time>2026-03-29T08:26:22Z</time></trkpt><trkpt lat="43.015261122535556" lon="12.08628163221869"><ele>552.6666666666666</ele><time>2026-03-29T08:26:24Z</time></trkpt><trkpt lat="43.01531913474366" lon="12.086234009096584"><ele>554.3333333333333</ele><time>2026-03-29T08:26:25Z</time></trkpt><trkpt lat="43.01537206082795" lon="12.086165591084104"><ele>556.0</ele><time>2026-03-29T08:26:26Z</time></trkpt><trkpt lat="43.01542397650256" lon="12.086104865252427"><ele>557.6666666666666</ele><time>2026-03-29T08:26:27Z</time></trkpt><trkpt lat="43.01553612919831" lon="12.086029195679648"><ele>559.3333333333334</ele><time>2026-03-29T08:26:29Z</time></trkpt><trkpt lat="43.01560376541167" lon="12.086038497781788"><ele>561.0</ele><time>2026-03-29T08:26:30Z</time></trkpt><trkpt lat="43.01565087029233" lon="12.086111942981283"><ele>561.0</ele><time>2026-03-29T08:26:31Z</time></trkpt><trkpt lat="43.01572455734174" lon="12.086150157368415"><ele>561.0</ele><time>2026-03-29T08:26:32Z</time></trkpt><trkpt lat="43.01580767561466" lon="12.086183988500881"><ele>561.0</ele><time>2026-03-29T08:26:33Z</time></trkpt><trkpt lat="43.0158862488436" lon="12.086237692668528"><ele>561.0</ele><time>2026-03-29T08:26:34Z</time></trkpt><trkpt lat="43.015948417819516" lon="12.086257071185592"><ele>561.0</ele><time>2026-03-29T08:26:35Z</time></trkpt><trkpt lat="43.01604977665889" lon="12.086239737269493"><ele>561.0</ele><time>2026-03-29T08:26:37Z</time></trkpt><trkpt lat="43.01610167682005" lon="12.086114817594257"><ele>560.2</ele><time>2026-03-29T08:26:39Z</time></trkpt><trkpt lat="43.016193616828645" lon="12.085985612235005"><ele>559.4000000000001</ele><time>2026-03-29T08:26:41Z</time></trkpt><trkpt lat="43.01624393968488" lon="12.085855829827048"><ele>558.6</ele><time>2026-03-29T08:26:42Z</time></trkpt><trkpt lat="43.01630716399579" lon="12.085833625128695"><ele>557.8000000000001</ele><time>2026-03-29T08:26:43Z</time></trkpt><trkpt lat="43.01639035980697" lon="12.085795067590864"><ele>557.0</ele><time>2026-03-29T08:26:44Z</time></trkpt><trkpt lat="43.01645171168455" lon="12.085755195636414"><ele>560.5</ele><time>2026-03-29T08:26:45Z</time></trkpt><trkpt lat="43.016545079410456" lon="12.0857129973355"><ele>564.0</ele><time>2026-03-29T08:26:46Z</time></trkpt><trkpt lat="43.01661860855941" lon="12.085679427265454"><ele>567.5</ele><time>2026-03-29T08:26:47Z</time></trkpt><trkpt lat="43.01668010692395" lon="12.085647863033238"><ele>571.0</ele><time>2026-03-29T08:26:48Z</time></trkpt><trkpt lat="43.01675260104934" lon="12.085621389021561"><ele>574.5</ele><time>2026-03-29T08:26:49Z</time></trkpt><trkpt lat="43.01687211035961" lon="12.085563223602058"><ele>578.0</ele><time>2026-03-29T08:26:51Z</time></trkpt><trkpt lat="43.016956989516416" lon="12.085550695228742"><ele>578.0</ele><time>2026-03-29T08:26:52Z</time></trkpt><trkpt lat="43.01701997779934" lon="12.085579095015275"><ele>578.0</ele><time>2026-03-29T08:26:53Z</time></trkpt><trkpt lat="43.017111434009315" lon="12.085609690426129"><ele>578.0</ele><time>2026-03-29T08:26:55Z</time></trkpt><trkpt lat="43.017187233291196" lon="12.085655686741209"><ele>578.0</ele><time>2026-03-29T08:26:56Z</time></trkpt><trkpt lat="43.01718149253519" lon="12.085763574221827"><ele>578.0</ele><time>2026-03-29T08:26:57Z</time></trkpt><trkpt lat="43.01722707602895" lon="12.085826513645117"><ele>578.0</ele><time>2026-03-29T08:26:58Z</time></trkpt><trkpt lat="43.017282966530345" lon="12.085878102862528"><ele>571.8333333333333</ele><time>2026-03-29T08:26:59Z</time></trkpt><trkpt lat="43.01735300435482" lon="12.085964525321765"><ele>565.6666666666666</ele><time>2026-03-29T08:27:01Z</time></trkpt><trkpt lat="43.0174401813661" lon="12.085988792498163"><ele>559.5</ele><time>2026-03-29T08:27:03Z</time></trkpt><trkpt lat="43.01745215930263" lon="12.085898030221728"><ele>553.3333333333334</ele><time>2026-03-29T08:27:25.999Z</time></trkpt><trkpt lat="43.01754055449922" lon="12.085893797879281"><ele>547.1666666666667</ele><time>2026-03-29T08:27:28Z</time></trkpt><trkpt lat="43.01762169179215" lon="12.085885225371175"><ele>541.0</ele><time>2026-03-29T08:27:29Z</time></trkpt><trkpt lat="43.01773095210538" lon="12.085844859419899"><ele>541.0</ele><time>2026-03-29T08:27:31Z</time></trkpt><trkpt lat="43.017829148999034" lon="12.08582561602844"><ele>541.0</ele><time>2026-03-29T08:27:33Z</time></trkpt><trkpt lat="43.01793894977579" lon="12.085800495647776"><ele>541.0</ele><time>2026-03-29T08:27:36Z</time></trkpt><trkpt lat="43.01802621499888" lon="12.085794271478655"><ele>541.0</ele><time>2026-03-29T08:27:38Z</time></trkpt><trkpt lat="43.01809754918365" lon="12.085787827753538"><ele>541.0</ele><time>2026-03-29T08:27:40Z</time></trkpt><trkpt lat="43.0181716490249" lon="12.085771543081915"><ele>541.0</ele><time>2026-03-29T08:27:42Z</time></trkpt><trkpt lat="43.018260451272006" lon="12.085738200151969"><ele>543.3333333333334</ele><time>2026-03-29T08:27:44Z</time></trkpt><trkpt lat="43.01835742693173" lon="12.085783246537051"><ele>545.6666666666667</ele><time>2026-03-29T08:27:46Z</time></trkpt><trkpt lat="43.01837894375503" lon="12.085871242211722"><ele>548.0</ele><time>2026-03-29T08:27:49Z</time></trkpt><trkpt lat="43.01835922636575" lon="12.085953589473267"><ele>550.3333333333334</ele><time>2026-03-29T08:27:52Z</time></trkpt><trkpt lat="43.01836244581157" lon="12.086077769734864"><ele>552.6666666666666</ele><time>2026-03-29T08:27:55Z</time></trkpt><trkpt lat="43.01836638339998" lon="12.086173860178043"><ele>555.0</ele><time>2026-03-29T08:27:57Z</time></trkpt><trkpt lat="43.01838197573481" lon="12.086279556654015"><ele>555.0</ele><time>2026-03-29T08:27:59Z</time></trkpt><trkpt lat="43.018388943697246" lon="12.086368277464265"><ele>555.0</ele><time>2026-03-29T08:28:01Z</time></trkpt><trkpt lat="43.01843356560874" lon="12.086531285523485"><ele>555.0</ele><time>2026-03-29T08:28:38Z</time></trkpt><trkpt lat="43.01848203257076" lon="12.086682078665351"><ele>555.0</ele><time>2026-03-29T08:28:40Z</time></trkpt><trkpt lat="43.01849701409444" lon="12.086858723932435"><ele>555.0</ele><time>2026-03-29T08:28:42Z</time></trkpt><trkpt lat="43.018479516334494" lon="12.086959623154213"><ele>553.5</ele><time>2026-03-29T08:28:43Z</time></trkpt><trkpt lat="43.018478818896924" lon="12.08708582992772"><ele>552.0</ele><time>2026-03-29T08:28:44Z</time></trkpt><trkpt lat="43.01850232541905" lon="12.087166252744328"><ele>550.5</ele><time>2026-03-29T08:28:45Z</time></trkpt><trkpt lat="43.01859141435772" lon="12.087259337686538"><ele>549.0</ele><time>2026-03-29T08:28:47Z</time></trkpt><trkpt lat="43.0186549120952" lon="12.087313829439005"><ele>547.5</ele><time>2026-03-29T08:28:48Z</time></trkpt><trkpt lat="43.018715572229816" lon="12.087356792054349"><ele>546.0</ele><time>2026-03-29T08:28:49Z</time></trkpt><trkpt lat="43.0187715468648" lon="12.087404476196475"><ele>544.3333333333334</ele><time>2026-03-29T08:28:50Z</time></trkpt><trkpt lat="43.01884318613734" lon="12.087444923776232"><ele>542.6666666666666</ele><time>2026-03-29T08:28:51Z</time></trkpt><trkpt lat="43.01892188171863" lon="12.08744459845055"><ele>541.0</ele><time>2026-03-29T08:28:52Z</time></trkpt><trkpt lat="43.019008822661" lon="12.087470172135282"><ele>539.3333333333333</ele><time>2026-03-29T08:28:53Z</time></trkpt><trkpt lat="43.01908013077723" lon="12.087523954801549"><ele>537.6666666666666</ele><time>2026-03-29T08:28:54Z</time></trkpt><trkpt lat="43.019151818308224" lon="12.087569504299458"><ele>536.0</ele><time>2026-03-29T08:28:55Z</time></trkpt><trkpt lat="43.01925511149137" lon="12.087646252890941"><ele>541.2</ele><time>2026-03-29T08:28:57Z</time></trkpt><trkpt lat="43.0192574159353" lon="12.08776073348449"><ele>546.4000000000001</ele><time>2026-03-29T08:28:59Z</time></trkpt><trkpt lat="43.01930918666543" lon="12.087915623511467"><ele>551.6</ele><time>2026-03-29T08:29:01Z</time></trkpt><trkpt lat="43.019339455258624" lon="12.088012556090316"><ele>556.8000000000001</ele><time>2026-03-29T08:29:03Z</time></trkpt><trkpt lat="43.01938027685046" lon="12.088128537444211"><ele>562.0</ele><time>2026-03-29T08:29:05Z</time></trkpt><trkpt lat="43.019440211525215" lon="12.08817964952049"><ele>562.0</ele><time>2026-03-29T08:29:09Z</time></trkpt><trkpt lat="43.01951716568478" lon="12.088232853300527"><ele>562.0</ele><time>2026-03-29T08:29:11Z</time></trkpt><trkpt lat="43.01959466505244" lon="12.088255698559738"><ele>562.0</ele><time>2026-03-29T08:29:27Z</time></trkpt><trkpt lat="43.0197403094782" lon="12.088284579139877"><ele>562.0</ele><time>2026-03-29T08:29:29Z</time></trkpt><trkpt lat="43.019802833885315" lon="12.088304100860386"><ele>562.0</ele><time>2026-03-29T08:29:30Z</time></trkpt><trkpt lat="43.01987241886982" lon="12.088340281315935"><ele>562.8333333333334</ele><time>2026-03-29T08:29:31Z</time></trkpt><trkpt lat="43.01995227408372" lon="12.088391466405032"><ele>563.6666666666667</ele><time>2026-03-29T08:29:32Z</time></trkpt><trkpt lat="43.02001935538785" lon="12.088421234917556"><ele>564.5</ele><time>2026-03-29T08:29:33Z</time></trkpt><trkpt lat="43.02011257784065" lon="12.088460055145985"><ele>565.3333333333334</ele><time>2026-03-29T08:29:35Z</time></trkpt><trkpt lat="43.02018686671751" lon="12.088484468160342"><ele>566.1666666666666</ele><time>2026-03-29T08:29:37Z</time></trkpt><trkpt lat="43.020255361841556" lon="12.088505492247515"><ele>567.0</ele><time>2026-03-29T08:29:39Z</time></trkpt><trkpt lat="43.02031445003919" lon="12.088588407436422"><ele>567.0</ele><time>2026-03-29T08:29:41Z</time></trkpt><trkpt lat="43.02041750397795" lon="12.088598270605113"><ele>567.0</ele><time>2026-03-29T08:29:44Z</time></trkpt><trkpt lat="43.02050487235312" lon="12.088617434753315"><ele>567.0</ele><time>2026-03-29T08:29:46Z</time></trkpt><trkpt lat="43.02060583882635" lon="12.088630161578967"><ele>567.0</ele><time>2026-03-29T08:29:48Z</time></trkpt><trkpt lat="43.020711734555285" lon="12.08863820329377"><ele>567.0</ele><time>2026-03-29T08:29:50Z</time></trkpt><trkpt lat="43.02082994643868" lon="12.088609906033815"><ele>566.0</ele><time>2026-03-29T08:29:52Z</time></trkpt><trkpt lat="43.02089934749885" lon="12.08857468783168"><ele>565.0</ele><time>2026-03-29T08:29:54Z</time></trkpt><trkpt lat="43.02098903034019" lon="12.088603034555137"><ele>564.0</ele><time>2026-03-29T08:29:56Z</time></trkpt><trkpt lat="43.0210837863036" lon="12.088667037763539"><ele>563.0</ele><time>2026-03-29T08:29:58Z</time></trkpt><trkpt lat="43.021179530149986" lon="12.088700030657813"><ele>562.0</ele><time>2026-03-29T08:30:00Z</time></trkpt><trkpt lat="43.021260856615164" lon="12.088750103402878"><ele>562.0</ele><time>2026-03-29T08:30:02Z</time></trkpt><trkpt lat="43.0213135127189" lon="12.088836473459025"><ele>562.0</ele><time>2026-03-29T08:30:04Z</time></trkpt><trkpt lat="43.02134519215465" lon="12.088922663788452"><ele>562.0</ele><time>2026-03-29T08:30:05Z</time></trkpt><trkpt lat="43.021433300801256" lon="12.08903796915993"><ele>562.0</ele><time>2026-03-29T08:30:07Z</time></trkpt><trkpt lat="43.021518217527905" lon="12.089138431688356"><ele>562.0</ele><time>2026-03-29T08:30:09Z</time></trkpt><trkpt lat="43.021564483654075" lon="12.08921206985978"><ele>558.0</ele><time>2026-03-29T08:30:10Z</time></trkpt><trkpt lat="43.02160281068549" lon="12.089305674727258"><ele>554.0</ele><time>2026-03-29T08:30:11Z</time></trkpt><trkpt lat="43.02164596896352" lon="12.089378314021877"><ele>550.0</ele><time>2026-03-29T08:30:12Z</time></trkpt><trkpt lat="43.0217036460336" lon="12.089490355918937"><ele>546.0</ele><time>2026-03-29T08:30:13Z</time></trkpt><trkpt lat="43.02178908362483" lon="12.089592695995785"><ele>542.0</ele><time>2026-03-29T08:30:14Z</time></trkpt><trkpt lat="43.0218646385267" lon="12.08969568586216"><ele>541.5</ele><time>2026-03-29T08:30:15Z</time></trkpt><trkpt lat="43.021949651433665" lon="12.089787575735418"><ele>541.0</ele><time>2026-03-29T08:30:16Z</time></trkpt><trkpt lat="43.0220438276721" lon="12.08985648617831"><ele>540.5</ele><time>2026-03-29T08:30:17Z</time></trkpt><trkpt lat="43.02214534604489" lon="12.089934212984414"><ele>540.0</ele><time>2026-03-29T08:30:18Z</time></trkpt><trkpt lat="43.022269774341325" lon="12.090021566692966"><ele>536.75</ele><time>2026-03-29T08:30:19Z</time></trkpt><trkpt lat="43.022392074833625" lon="12.09011435111922"><ele>533.5</ele><time>2026-03-29T08:30:20Z</time></trkpt><trkpt lat="43.02250436112814" lon="12.090235351142372"><ele>530.25</ele><time>2026-03-29T08:30:21Z</time></trkpt><trkpt lat="43.02261283560396" lon="12.09036234657942"><ele>527.0</ele><time>2026-03-29T08:30:22Z</time></trkpt><trkpt lat="43.02269572684681" lon="12.090452967381406"><ele>525.4</ele><time>2026-03-29T08:30:23Z</time></trkpt><trkpt lat="43.02277801729948" lon="12.090534100797585"><ele>523.8000000000001</ele><time>2026-03-29T08:30:24Z</time></trkpt><trkpt lat="43.0228683298214" lon="12.090632718539482"><ele>522.2</ele><time>2026-03-29T08:30:25Z</time></trkpt><trkpt lat="43.02295597113417" lon="12.090714102316062"><ele>520.6</ele><time>2026-03-29T08:30:26Z</time></trkpt><trkpt lat="43.02303475283177" lon="12.0907656527559"><ele>519.0</ele><time>2026-03-29T08:30:27Z</time></trkpt><trkpt lat="43.02314046968826" lon="12.090828727551125"><ele>516.6</ele><time>2026-03-29T08:30:29Z</time></trkpt><trkpt lat="43.02328935721287" lon="12.09084955314592"><ele>514.2</ele><time>2026-03-29T08:30:32Z</time></trkpt><trkpt lat="43.02337511412345" lon="12.090883931301375"><ele>511.80000000000007</ele><time>2026-03-29T08:30:33Z</time></trkpt><trkpt lat="43.023444033991105" lon="12.09091120403744"><ele>509.40000000000003</ele><time>2026-03-29T08:30:34Z</time></trkpt><trkpt lat="43.02351690561495" lon="12.09091555264178"><ele>507.0</ele><time>2026-03-29T08:30:35Z</time></trkpt><trkpt lat="43.023590705649106" lon="12.090948519719579"><ele>507.0</ele><time>2026-03-29T08:30:36Z</time></trkpt><trkpt lat="43.02365555232171" lon="12.091002473712122"><ele>507.0</ele><time>2026-03-29T08:30:37Z</time></trkpt><trkpt lat="43.02371214747723" lon="12.091044580829479"><ele>507.0</ele><time>2026-03-29T08:30:38Z</time></trkpt><trkpt lat="43.023769183359754" lon="12.09109093681103"><ele>507.0</ele><time>2026-03-29T08:30:39Z</time></trkpt><trkpt lat="43.023845725697484" lon="12.091134830177214"><ele>507.0</ele><time>2026-03-29T08:30:40Z</time></trkpt><trkpt lat="43.02389614814406" lon="12.091198251878698"><ele>507.0</ele><time>2026-03-29T08:30:41Z</time></trkpt><trkpt lat="43.023984958232745" lon="12.091311475505194"><ele>507.0</ele><time>2026-03-29T08:30:43Z</time></trkpt><trkpt lat="43.02403257893185" lon="12.09136889954204"><ele>507.00000000000006</ele><time>2026-03-29T08:30:44Z</time></trkpt><trkpt lat="43.02408303230911" lon="12.091427212910224"><ele>507.00000000000006</ele><time>2026-03-29T08:30:45Z</time></trkpt><trkpt lat="43.02417567136195" lon="12.091530575959078"><ele>507.0</ele><time>2026-03-29T08:30:47Z</time></trkpt><trkpt lat="43.02426276667428" lon="12.091673215600188"><ele>507.0</ele><time>2026-03-29T08:30:49Z</time></trkpt><trkpt lat="43.024349190915906" lon="12.091787650359436"><ele>506.0</ele><time>2026-03-29T08:30:51Z</time></trkpt><trkpt lat="43.02445183689951" lon="12.091883387580838"><ele>505.00000000000006</ele><time>2026-03-29T08:30:53Z</time></trkpt><trkpt lat="43.02453159816761" lon="12.091973837548988"><ele>504.00000000000006</ele><time>2026-03-29T08:30:55Z</time></trkpt><trkpt lat="43.02461230780548" lon="12.092048980318678"><ele>503.0</ele><time>2026-03-29T08:30:57Z</time></trkpt><trkpt lat="43.02467441638143" lon="12.092114992535983"><ele>502.0</ele><time>2026-03-29T08:30:59Z</time></trkpt><trkpt lat="43.02473301622612" lon="12.092185098208665"><ele>502.00000000000006</ele><time>2026-03-29T08:31:01Z</time></trkpt><trkpt lat="43.02479177497821" lon="12.092248596502108"><ele>502.0</ele><time>2026-03-29T08:31:03Z</time></trkpt><trkpt lat="43.024851114647966" lon="12.09232752000011"><ele>502.0</ele><time>2026-03-29T08:31:05Z</time></trkpt><trkpt lat="43.02491296114402" lon="12.092385039905924"><ele>502.0</ele><time>2026-03-29T08:31:07Z</time></trkpt><trkpt lat="43.02497271544097" lon="12.092455405305097"><ele>502.00000000000006</ele><time>2026-03-29T08:31:09Z</time></trkpt><trkpt lat="43.02502609658236" lon="12.092545300351484"><ele>502.0</ele><time>2026-03-29T08:31:11Z</time></trkpt><trkpt lat="43.025076168448614" lon="12.092604059601289"><ele>501.0</ele><time>2026-03-29T08:31:13Z</time></trkpt><trkpt lat="43.025148285181736" lon="12.09272033960317"><ele>500.00000000000006</ele><time>2026-03-29T08:31:15Z</time></trkpt><trkpt lat="43.025205364025005" lon="12.092777258425086"><ele>499.00000000000006</ele><time>2026-03-29T08:31:16Z</time></trkpt><trkpt lat="43.02527326141583" lon="12.092870728532082"><ele>498.0</ele><time>2026-03-29T08:31:17Z</time></trkpt><trkpt lat="43.02534328269834" lon="12.092974598366107"><ele>497.0</ele><time>2026-03-29T08:31:18Z</time></trkpt><trkpt lat="43.02540378869235" lon="12.093100078213748"><ele>497.0</ele><time>2026-03-29T08:31:19Z</time></trkpt><trkpt lat="43.02546960325959" lon="12.093199168358352"><ele>497.00000000000006</ele><time>2026-03-29T08:31:20Z</time></trkpt><trkpt lat="43.02553512137004" lon="12.093294219667932"><ele>497.00000000000006</ele><time>2026-03-29T08:31:21Z</time></trkpt><trkpt lat="43.02561995975871" lon="12.093378105310599"><ele>497.0</ele><time>2026-03-29T08:31:22Z</time></trkpt><trkpt lat="43.02568985011665" lon="12.093461725602214"><ele>497.0</ele><time>2026-03-29T08:31:23Z</time></trkpt><trkpt lat="43.025753463630174" lon="12.093557594046455"><ele>495.49999999999994</ele><time>2026-03-29T08:31:24Z</time></trkpt><trkpt lat="43.025806767053965" lon="12.093647424506416"><ele>494.0</ele><time>2026-03-29T08:31:25Z</time></trkpt><trkpt lat="43.02585938265991" lon="12.093738728556163"><ele>492.5</ele><time>2026-03-29T08:31:26Z</time></trkpt><trkpt lat="43.02589842526074" lon="12.093825270947123"><ele>491.0</ele><time>2026-03-29T08:31:27Z</time></trkpt><trkpt lat="43.025948644668006" lon="12.093919656636647"><ele>489.49999999999994</ele><time>2026-03-29T08:31:28Z</time></trkpt><trkpt lat="43.02599337363442" lon="12.094014914540177"><ele>488.0</ele><time>2026-03-29T08:31:29Z</time></trkpt><trkpt lat="43.026037164573815" lon="12.09408916373208"><ele>487.3333333333333</ele><time>2026-03-29T08:31:30Z</time></trkpt><trkpt lat="43.026091728823424" lon="12.094170703857246"><ele>486.66666666666663</ele><time>2026-03-29T08:31:31Z</time></trkpt><trkpt lat="43.026140776632715" lon="12.094226197261055"><ele>486.0</ele><time>2026-03-29T08:31:32Z</time></trkpt><trkpt lat="43.026232363222064" lon="12.094329489512084"><ele>485.33333333333337</ele><time>2026-03-29T08:31:34Z</time></trkpt><trkpt lat="43.026296484649144" lon="12.094397806605974"><ele>484.6666666666667</ele><time>2026-03-29T08:31:36Z</time></trkpt><trkpt lat="43.02637227993759" lon="12.09448434944757"><ele>484.0</ele><time>2026-03-29T08:31:38Z</time></trkpt><trkpt lat="43.02646257647221" lon="12.094607518529983"><ele>484.0</ele><time>2026-03-29T08:31:40Z</time></trkpt><trkpt lat="43.02651212908871" lon="12.094676831422477"><ele>483.99999999999994</ele><time>2026-03-29T08:31:41Z</time></trkpt><trkpt lat="43.026554540928444" lon="12.094747683875656"><ele>484.0</ele><time>2026-03-29T08:31:42Z</time></trkpt><trkpt lat="43.026589783005086" lon="12.094838390288677"><ele>484.0</ele><time>2026-03-29T08:31:43Z</time></trkpt><trkpt lat="43.026626998747275" lon="12.094934949252497"><ele>483.99999999999994</ele><time>2026-03-29T08:31:44Z</time></trkpt><trkpt lat="43.02666997689343" lon="12.095018366291859"><ele>484.0</ele><time>2026-03-29T08:31:45Z</time></trkpt><trkpt lat="43.026701804874406" lon="12.09510631187126"><ele>484.0</ele><time>2026-03-29T08:31:46Z</time></trkpt><trkpt lat="43.0267398797317" lon="12.09520810738321"><ele>483.4285714285714</ele><time>2026-03-29T08:31:47Z</time></trkpt><trkpt lat="43.02677969947591" lon="12.095295853973575"><ele>482.8571428571428</ele><time>2026-03-29T08:31:48Z</time></trkpt><trkpt lat="43.02682627099672" lon="12.095368861650096"><ele>482.2857142857143</ele><time>2026-03-29T08:31:49Z</time></trkpt><trkpt lat="43.026881543873515" lon="12.095443256036617"><ele>481.71428571428567</ele><time>2026-03-29T08:31:50Z</time></trkpt><trkpt lat="43.02693813414224" lon="12.095511809197543"><ele>481.1428571428571</ele><time>2026-03-29T08:31:51Z</time></trkpt><trkpt lat="43.026994917638554" lon="12.095570174913009"><ele>480.57142857142856</ele><time>2026-03-29T08:31:52Z</time></trkpt><trkpt lat="43.027064905245" lon="12.095618632621532"><ele>480.0</ele><time>2026-03-29T08:31:53Z</time></trkpt><trkpt lat="43.0271540397337" lon="12.095645968247668"><ele>480.0</ele><time>2026-03-29T08:31:54Z</time></trkpt><trkpt lat="43.02726229566108" lon="12.095673951171994"><ele>480.0</ele><time>2026-03-29T08:31:55Z</time></trkpt><trkpt lat="43.0273881978068" lon="12.095681405145424"><ele>480.0</ele><time>2026-03-29T08:31:56Z</time></trkpt><trkpt lat="43.02750023976105" lon="12.095725419256297"><ele>480.0</ele><time>2026-03-29T08:31:57Z</time></trkpt><trkpt lat="43.027612510947314" lon="12.095766351040826"><ele>476.2</ele><time>2026-03-29T08:31:58Z</time></trkpt><trkpt lat="43.02773037398355" lon="12.095809560684561"><ele>472.4</ele><time>2026-03-29T08:31:59Z</time></trkpt><trkpt lat="43.02782486162681" lon="12.095849818863591"><ele>468.6</ele><time>2026-03-29T08:32:00Z</time></trkpt><trkpt lat="43.02790868840616" lon="12.095896474766631"><ele>464.8</ele><time>2026-03-29T08:32:01Z</time></trkpt><trkpt lat="43.02799545833887" lon="12.095930060083274"><ele>461.0</ele><time>2026-03-29T08:32:02Z</time></trkpt><trkpt lat="43.02804641509916" lon="12.09599138834023"><ele>460.99999999999994</ele><time>2026-03-29T08:32:03Z</time></trkpt><trkpt lat="43.02812220167252" lon="12.096052819226646"><ele>461.0</ele><time>2026-03-29T08:32:04Z</time></trkpt><trkpt lat="43.028193903160236" lon="12.096110938845996"><ele>461.0</ele><time>2026-03-29T08:32:05Z</time></trkpt><trkpt lat="43.028252942260856" lon="12.096156172007445"><ele>461.0</ele><time>2026-03-29T08:32:06Z</time></trkpt><trkpt lat="43.02830228562596" lon="12.096220328983065"><ele>460.99999999999994</ele><time>2026-03-29T08:32:07Z</time></trkpt><trkpt lat="43.02840467068055" lon="12.096294727816746"><ele>461.0</ele><time>2026-03-29T08:32:09Z</time></trkpt><trkpt lat="43.02845890912601" lon="12.096374955450248"><ele>459.42857142857144</ele><time>2026-03-29T08:32:11Z</time></trkpt><trkpt lat="43.028499210156966" lon="12.096451608213242"><ele>457.8571428571429</ele><time>2026-03-29T08:32:13Z</time></trkpt><trkpt lat="43.028472509560665" lon="12.096534919094747"><ele>456.28571428571433</ele><time>2026-03-29T08:32:17Z</time></trkpt><trkpt lat="43.02840829984948" lon="12.096579331327943"><ele>454.7142857142858</ele><time>2026-03-29T08:32:19Z</time></trkpt><trkpt lat="43.02838473995831" lon="12.096659761885347"><ele>453.14285714285717</ele><time>2026-03-29T08:32:21Z</time></trkpt><trkpt lat="43.028382062582324" lon="12.096792334767883"><ele>451.57142857142867</ele><time>2026-03-29T08:32:23Z</time></trkpt><trkpt lat="43.02840475423576" lon="12.096896427000573"><ele>450.00000000000006</ele><time>2026-03-29T08:32:25Z</time></trkpt><trkpt lat="43.02840188246553" lon="12.096999129200364"><ele>447.8333333333333</ele><time>2026-03-29T08:32:26Z</time></trkpt><trkpt lat="43.02837423945259" lon="12.097146653137314"><ele>445.66666666666663</ele><time>2026-03-29T08:32:28Z</time></trkpt><trkpt lat="43.028372242688924" lon="12.097250028940627"><ele>443.5</ele><time>2026-03-29T08:32:30Z</time></trkpt><trkpt lat="43.028469552117976" lon="12.097318045828914"><ele>441.3333333333333</ele><time>2026-03-29T08:32:32Z</time></trkpt><trkpt lat="43.02854233010032" lon="12.09736343030798"><ele>439.16666666666663</ele><time>2026-03-29T08:32:34Z</time></trkpt><trkpt lat="43.028601125246176" lon="12.097401139429612"><ele>437.0</ele><time>2026-03-29T08:32:36Z</time></trkpt><trkpt lat="43.02856992081063" lon="12.097548478927585"><ele>435.2857142857143</ele><time>2026-03-29T08:32:53Z</time></trkpt><trkpt lat="43.028558465316365" lon="12.097642171209843"><ele>433.5714285714286</ele><time>2026-03-29T08:32:54Z</time></trkpt><trkpt lat="43.02851895763523" lon="12.097709572964805"><ele>431.8571428571429</ele><time>2026-03-29T08:32:55Z</time></trkpt><trkpt lat="43.028480284461246" lon="12.097802000468535"><ele>430.1428571428571</ele><time>2026-03-29T08:32:56Z</time></trkpt><trkpt lat="43.02843930214564" lon="12.09789416329998"><ele>428.42857142857144</ele><time>2026-03-29T08:32:57Z</time></trkpt><trkpt lat="43.02838859130431" lon="12.097989355260406"><ele>426.7142857142857</ele><time>2026-03-29T08:32:58Z</time></trkpt><trkpt lat="43.02835860615239" lon="12.098079732014588"><ele>425.0</ele><time>2026-03-29T08:32:59Z</time></trkpt><trkpt lat="43.02834572984091" lon="12.098185765355527"><ele>420.49999999999994</ele><time>2026-03-29T08:33:00Z</time></trkpt><trkpt lat="43.0282999310788" lon="12.098272864469505"><ele>416.0</ele><time>2026-03-29T08:33:01Z</time></trkpt><trkpt lat="43.02827445149338" lon="12.098373123246931"><ele>411.5</ele><time>2026-03-29T08:33:02Z</time></trkpt><trkpt lat="43.02827623116352" lon="12.098478215515094"><ele>407.0</ele><time>2026-03-29T08:33:03Z</time></trkpt><trkpt lat="43.02826590609169" lon="12.098578790779543"><ele>402.49999999999994</ele><time>2026-03-29T08:33:04Z</time></trkpt><trkpt lat="43.02824890008681" lon="12.09868675086549"><ele>398.0</ele><time>2026-03-29T08:33:05Z</time></trkpt><trkpt lat="43.02824826562124" lon="12.098791145259597"><ele>397.99999999999994</ele><time>2026-03-29T08:33:06Z</time></trkpt><trkpt lat="43.02825623639329" lon="12.09889496900031"><ele>398.0</ele><time>2026-03-29T08:33:07Z</time></trkpt><trkpt lat="43.02828197071591" lon="12.098997398219613"><ele>398.0</ele><time>2026-03-29T08:33:08Z</time></trkpt><trkpt lat="43.02833598163627" lon="12.09908985790319"><ele>398.0</ele><time>2026-03-29T08:33:09Z</time></trkpt><trkpt lat="43.02837861740029" lon="12.099178574938609"><ele>397.99999999999994</ele><time>2026-03-29T08:33:10Z</time></trkpt><trkpt lat="43.028433805509486" lon="12.099243352496678"><ele>398.0</ele><time>2026-03-29T08:33:11Z</time></trkpt><trkpt lat="43.028496320568166" lon="12.09930555034765"><ele>402.16666666666663</ele><time>2026-03-29T08:33:12Z</time></trkpt><trkpt lat="43.028566107144655" lon="12.099352335275691"><ele>406.3333333333333</ele><time>2026-03-29T08:33:13Z</time></trkpt><trkpt lat="43.028636648046025" lon="12.099408360918202"><ele>410.5</ele><time>2026-03-29T08:33:14Z</time></trkpt><trkpt lat="43.02870476783481" lon="12.099489147340721"><ele>414.66666666666663</ele><time>2026-03-29T08:33:15Z</time></trkpt><trkpt lat="43.0287730801558" lon="12.099548415914864"><ele>418.8333333333333</ele><time>2026-03-29T08:33:16Z</time></trkpt><trkpt lat="43.02884887940671" lon="12.099606539582151"><ele>423.0</ele><time>2026-03-29T08:33:17Z</time></trkpt><trkpt lat="43.02891993289666" lon="12.099676079162984"><ele>423.0</ele><time>2026-03-29T08:33:18Z</time></trkpt><trkpt lat="43.028991476001025" lon="12.099737298723918"><ele>423.0</ele><time>2026-03-29T08:33:19Z</time></trkpt><trkpt lat="43.029050499325535" lon="12.099816441274722"><ele>423.0</ele><time>2026-03-29T08:33:20Z</time></trkpt><trkpt lat="43.02909198527159" lon="12.099884679158857"><ele>423.0</ele><time>2026-03-29T08:33:21Z</time></trkpt><trkpt lat="43.02913780510225" lon="12.100009245796407"><ele>423.0</ele><time>2026-03-29T08:33:23Z</time></trkpt><trkpt lat="43.0291542975189" lon="12.100093248368074"><ele>423.0</ele><time>2026-03-29T08:33:25Z</time></trkpt><trkpt lat="43.02928973310345" lon="12.100038683637335"><ele>423.25</ele><time>2026-03-29T08:33:27Z</time></trkpt><trkpt lat="43.0291622850843" lon="12.100053657249328"><ele>423.5</ele><time>2026-03-29T08:33:28Z</time></trkpt><trkpt lat="43.02926227599491" lon="12.099984554483303"><ele>423.75</ele><time>2026-03-29T08:33:29Z</time></trkpt><trkpt lat="43.029337257651186" lon="12.100045414222313"><ele>424.0</ele><time>2026-03-29T08:33:36Z</time></trkpt><trkpt lat="43.029312945048424" lon="12.099838757462006"><ele>425.0</ele><time>2026-03-29T08:34:28Z</time></trkpt><trkpt lat="43.02924976209133" lon="12.099771236579814"><ele>426.0</ele><time>2026-03-29T08:35:06Z</time></trkpt><trkpt lat="43.029161594402204" lon="12.099677856894864"><ele>427.0</ele><time>2026-03-29T08:35:14Z</time></trkpt><trkpt lat="43.02922054855678" lon="12.099644015212672"><ele>428.0</ele><time>2026-03-29T08:35:15Z</time></trkpt><trkpt lat="43.02929672133314" lon="12.09951135664598"><ele>429.0</ele><time>2026-03-29T08:36:20Z</time></trkpt><trkpt lat="43.029197230717166" lon="12.099292626726303"><ele>429.0</ele><time>2026-03-29T08:38:23Z</time></trkpt><trkpt lat="43.02910800106099" lon="12.09931180041474"><ele>429.0</ele><time>2026-03-29T08:38:44Z</time></trkpt><trkpt lat="43.02912352945886" lon="12.099398076050285"><ele>429.0</ele><time>2026-03-29T08:38:53Z</time></trkpt><trkpt lat="43.02914303314147" lon="12.099484515909287"><ele>429.0</ele><time>2026-03-29T08:39:05Z</time></trkpt><trkpt lat="43.02932281029132" lon="12.099612319809388"><ele>429.0</ele><time>2026-03-29T08:40:30Z</time></trkpt><trkpt lat="43.02923168835478" lon="12.099475178087136"><ele>429.0</ele><time>2026-03-29T08:45:12Z</time></trkpt><trkpt lat="43.02912358664281" lon="12.099235402431432"><ele>429.0</ele><time>2026-03-29T08:48:26Z</time></trkpt><trkpt lat="43.02919767526703" lon="12.09956978982628"><ele>429.0</ele><time>2026-03-29T08:48:31Z</time></trkpt><trkpt lat="43.02908440676094" lon="12.099306994946796"><ele>429.0</ele><time>2026-03-29T08:48:52.012Z</time></trkpt><trkpt lat="43.02915237752796" lon="12.099366642207928"><ele>429.0</ele><time>2026-03-29T08:51:36Z</time></trkpt><trkpt lat="43.029179753400314" lon="12.099446823268025"><ele>429.0</ele><time>2026-03-29T08:51:45Z</time></trkpt><trkpt lat="43.02918582101533" lon="12.099533279139031"><ele>429.0</ele><time>2026-03-29T09:03:33Z</time></trkpt><trkpt lat="43.02925078109038" lon="12.099557727721116"><ele>429.0</ele><time>2026-03-29T09:03:51Z</time></trkpt><trkpt lat="43.02931175628759" lon="12.099950309485074"><ele>429.0</ele><time>2026-03-29T09:04:58Z</time></trkpt><trkpt lat="43.029300379782924" lon="12.099826913800218"><ele>429.0</ele><time>2026-03-29T09:05:11Z</time></trkpt><trkpt lat="43.029281509857036" lon="12.099913246223366"><ele>428.1666666666667</ele><time>2026-03-29T09:07:36Z</time></trkpt><trkpt lat="43.02928988834444" lon="12.100019331579487"><ele>427.33333333333337</ele><time>2026-03-29T09:07:38Z</time></trkpt><trkpt lat="43.029337574784066" lon="12.100133453225364"><ele>426.5</ele><time>2026-03-29T09:07:40Z</time></trkpt><trkpt lat="43.029367863183346" lon="12.100226062637393"><ele>425.6666666666667</ele><time>2026-03-29T09:07:42Z</time></trkpt><trkpt lat="43.029409931252175" lon="12.100327141382307"><ele>424.83333333333337</ele><time>2026-03-29T09:07:44Z</time></trkpt><trkpt lat="43.02942500613694" lon="12.10041413092897"><ele>424.0</ele><time>2026-03-29T09:07:45Z</time></trkpt><trkpt lat="43.02936947610443" lon="12.100460836249091"><ele>424.0</ele><time>2026-03-29T09:07:46Z</time></trkpt><trkpt lat="43.029374981611376" lon="12.100577670502888"><ele>424.0</ele><time>2026-03-29T09:07:47Z</time></trkpt><trkpt lat="43.02935712611922" lon="12.100705671284839"><ele>424.0</ele><time>2026-03-29T09:07:48Z</time></trkpt><trkpt lat="43.02935083117569" lon="12.100857929846088"><ele>424.0</ele><time>2026-03-29T09:07:50Z</time></trkpt><trkpt lat="43.029366950546006" lon="12.100959589772744"><ele>424.0</ele><time>2026-03-29T09:07:51Z</time></trkpt><trkpt lat="43.029374396771104" lon="12.10112425015601"><ele>423.5714285714286</ele><time>2026-03-29T09:07:53Z</time></trkpt><trkpt lat="43.029375621162316" lon="12.10121386743205"><ele>423.1428571428571</ele><time>2026-03-29T09:07:54Z</time></trkpt><trkpt lat="43.02938748683119" lon="12.101300057527498"><ele>422.7142857142857</ele><time>2026-03-29T09:07:55Z</time></trkpt><trkpt lat="43.029398929237274" lon="12.101411619613716"><ele>422.28571428571433</ele><time>2026-03-29T09:07:56Z</time></trkpt><trkpt lat="43.02941539903409" lon="12.101501645183665"><ele>421.8571428571429</ele><time>2026-03-29T09:07:57Z</time></trkpt><trkpt lat="43.029432882341695" lon="12.101599951329773"><ele>421.42857142857144</ele><time>2026-03-29T09:07:58Z</time></trkpt><trkpt lat="43.02945287483589" lon="12.101692486327456"><ele>421.0</ele><time>2026-03-29T09:07:59Z</time></trkpt><trkpt lat="43.02948145636386" lon="12.1017721734443"><ele>420.6</ele><time>2026-03-29T09:08:00Z</time></trkpt><trkpt lat="43.029558858944895" lon="12.10189287220896"><ele>420.20000000000005</ele><time>2026-03-29T09:08:02Z</time></trkpt><trkpt lat="43.02966376615757" lon="12.101968481788619"><ele>419.79999999999995</ele><time>2026-03-29T09:08:04Z</time></trkpt><trkpt lat="43.029726222453476" lon="12.10202740510484"><ele>419.4</ele><time>2026-03-29T09:08:05Z</time></trkpt><trkpt lat="43.02978682516157" lon="12.102079996477885"><ele>419.0</ele><time>2026-03-29T09:08:06Z</time></trkpt><trkpt lat="43.029873718095864" lon="12.10214314636851"><ele>419.0</ele><time>2026-03-29T09:08:07Z</time></trkpt><trkpt lat="43.02996683222819" lon="12.102189108430085"><ele>419.0</ele><time>2026-03-29T09:08:08Z</time></trkpt><trkpt lat="43.030052166614" lon="12.102246757691873"><ele>419.0</ele><time>2026-03-29T09:08:09Z</time></trkpt><trkpt lat="43.0301168489657" lon="12.102307440807184"><ele>419.0</ele><time>2026-03-29T09:08:10Z</time></trkpt><trkpt lat="43.030181762097165" lon="12.10236516188125"><ele>419.0</ele><time>2026-03-29T09:08:11Z</time></trkpt><trkpt lat="43.030258649179494" lon="12.10245394947626"><ele>418.99999999999994</ele><time>2026-03-29T09:08:12Z</time></trkpt><trkpt lat="43.030326797386394" lon="12.102514715039192"><ele>419.0</ele><time>2026-03-29T09:08:13Z</time></trkpt><trkpt lat="43.03036040824673" lon="12.102592725145511"><ele>419.0</ele><time>2026-03-29T09:08:14Z</time></trkpt><trkpt lat="43.03040410436357" lon="12.102688501972288"><ele>419.0</ele><time>2026-03-29T09:08:15Z</time></trkpt><trkpt lat="43.030448930286184" lon="12.10277670067486"><ele>418.99999999999994</ele><time>2026-03-29T09:08:16Z</time></trkpt><trkpt lat="43.030499176649265" lon="12.102887471330146"><ele>419.0</ele><time>2026-03-29T09:08:17Z</time></trkpt><trkpt lat="43.030551307163506" lon="12.10299706722641"><ele>419.0</ele><time>2026-03-29T09:08:18Z</time></trkpt><trkpt lat="43.03058409574518" lon="12.103111154136123"><ele>419.0</ele><time>2026-03-29T09:08:19Z</time></trkpt><trkpt lat="43.030607492065926" lon="12.103240804576668"><ele>419.0</ele><time>2026-03-29T09:08:20Z</time></trkpt><trkpt lat="43.030604182814194" lon="12.103354663936994"><ele>419.0</ele><time>2026-03-29T09:08:21Z</time></trkpt><trkpt lat="43.030554188864976" lon="12.10346731877359"><ele>419.0</ele><time>2026-03-29T09:08:22Z</time></trkpt><trkpt lat="43.03046696746696" lon="12.103534248045785"><ele>418.4</ele><time>2026-03-29T09:08:23Z</time></trkpt><trkpt lat="43.03039354954577" lon="12.103610699927275"><ele>417.79999999999995</ele><time>2026-03-29T09:08:24Z</time></trkpt><trkpt lat="43.03033719144009" lon="12.103730012256865"><ele>417.20000000000005</ele><time>2026-03-29T09:08:25Z</time></trkpt><trkpt lat="43.0302943678779" lon="12.10385505725785"><ele>416.6</ele><time>2026-03-29T09:08:26Z</time></trkpt><trkpt lat="43.03026055667681" lon="12.103984932907341"><ele>416.0</ele><time>2026-03-29T09:08:27Z</time></trkpt><trkpt lat="43.030249212400335" lon="12.104203968321826"><ele>412.66666666666663</ele><time>2026-03-29T09:08:29Z</time></trkpt><trkpt lat="43.03023629280986" lon="12.104323484072655"><ele>409.3333333333333</ele><time>2026-03-29T09:08:30Z</time></trkpt><trkpt lat="43.0302134209441" lon="12.104430146505063"><ele>406.0</ele><time>2026-03-29T09:08:31Z</time></trkpt><trkpt lat="43.03019118897084" lon="12.104545066786134"><ele>402.66666666666663</ele><time>2026-03-29T09:08:32Z</time></trkpt><trkpt lat="43.030156274830624" lon="12.104668564738489"><ele>399.3333333333333</ele><time>2026-03-29T09:08:33Z</time></trkpt><trkpt lat="43.03012908957478" lon="12.104762351701819"><ele>396.0</ele><time>2026-03-29T09:08:34Z</time></trkpt><trkpt lat="43.030085384320095" lon="12.104864166949053"><ele>395.1666666666667</ele><time>2026-03-29T09:08:35Z</time></trkpt><trkpt lat="43.03004266256715" lon="12.104976225537646"><ele>394.33333333333337</ele><time>2026-03-29T09:08:36Z</time></trkpt><trkpt lat="43.029997608500395" lon="12.105072821524866"><ele>393.5</ele><time>2026-03-29T09:08:37Z</time></trkpt><trkpt lat="43.029942285581456" lon="12.10515868725846"><ele>392.6666666666667</ele><time>2026-03-29T09:08:38Z</time></trkpt><trkpt lat="43.029893641399795" lon="12.105262720371721"><ele>391.83333333333337</ele><time>2026-03-29T09:08:39Z</time></trkpt><trkpt lat="43.02985796311255" lon="12.10537142494326"><ele>391.0</ele><time>2026-03-29T09:08:40Z</time></trkpt><trkpt lat="43.029836770049585" lon="12.105489555533747"><ele>391.0</ele><time>2026-03-29T09:08:41Z</time></trkpt><trkpt lat="43.029822124492824" lon="12.105600121897163"><ele>391.0</ele><time>2026-03-29T09:08:42Z</time></trkpt><trkpt lat="43.02979893322591" lon="12.105719235202319"><ele>391.0</ele><time>2026-03-29T09:08:43Z</time></trkpt><trkpt lat="43.02977097868827" lon="12.10584502554595"><ele>391.0</ele><time>2026-03-29T09:08:44Z</time></trkpt><trkpt lat="43.02973883159327" lon="12.105974027754115"><ele>391.0</ele><time>2026-03-29T09:08:45Z</time></trkpt><trkpt lat="43.02970935142617" lon="12.10610916552044"><ele>388.0</ele><time>2026-03-29T09:08:46Z</time></trkpt><trkpt lat="43.02967812628023" lon="12.10623426352376"><ele>385.0</ele><time>2026-03-29T09:08:47Z</time></trkpt><trkpt lat="43.02965142818209" lon="12.10635678135884"><ele>382.0</ele><time>2026-03-29T09:08:48Z</time></trkpt><trkpt lat="43.02963527114229" lon="12.106485969389649"><ele>379.0</ele><time>2026-03-29T09:08:49Z</time></trkpt><trkpt lat="43.029632320528" lon="12.106620956967713"><ele>376.0</ele><time>2026-03-29T09:08:50Z</time></trkpt><trkpt lat="43.029642601198994" lon="12.106727981996578"><ele>373.8</ele><time>2026-03-29T09:08:51Z</time></trkpt><trkpt lat="43.0296668893848" lon="12.106825214564296"><ele>371.6</ele><time>2026-03-29T09:08:52Z</time></trkpt><trkpt lat="43.02969386912527" lon="12.106933134710813"><ele>369.4</ele><time>2026-03-29T09:08:53Z</time></trkpt><trkpt lat="43.02974178503185" lon="12.107090862539435"><ele>367.2</ele><time>2026-03-29T09:08:54Z</time></trkpt><trkpt lat="43.02977882625385" lon="12.107210984395364"><ele>365.0</ele><time>2026-03-29T09:08:55Z</time></trkpt><trkpt lat="43.02979874339291" lon="12.107327408553196"><ele>363.5</ele><time>2026-03-29T09:08:56Z</time></trkpt><trkpt lat="43.02983878274567" lon="12.107455431314646"><ele>362.0</ele><time>2026-03-29T09:08:58Z</time></trkpt><trkpt lat="43.02988021243348" lon="12.107538539183174"><ele>360.5</ele><time>2026-03-29T09:09:00Z</time></trkpt><trkpt lat="43.029865986248616" lon="12.107662517165933"><ele>359.0</ele><time>2026-03-29T09:09:04Z</time></trkpt><trkpt lat="43.02986392454994" lon="12.107760265009492"><ele>357.5</ele><time>2026-03-29T09:09:06Z</time></trkpt><trkpt lat="43.0299110646535" lon="12.10783041833973"><ele>356.0</ele><time>2026-03-29T09:09:09Z</time></trkpt><trkpt lat="43.029977094158916" lon="12.107910810789383"><ele>356.0</ele><time>2026-03-29T09:09:12Z</time></trkpt><trkpt lat="43.03009125243622" lon="12.107946272518722"><ele>356.0</ele><time>2026-03-29T09:09:14Z</time></trkpt><trkpt lat="43.030156588466866" lon="12.107961480078837"><ele>356.0</ele><time>2026-03-29T09:09:15Z</time></trkpt><trkpt lat="43.030228050176596" lon="12.108033997859906"><ele>356.0</ele><time>2026-03-29T09:09:16Z</time></trkpt><trkpt lat="43.03028320325522" lon="12.108092209471753"><ele>356.0</ele><time>2026-03-29T09:09:17Z</time></trkpt><trkpt lat="43.03033292233737" lon="12.10815149473092"><ele>356.0</ele><time>2026-03-29T09:09:18Z</time></trkpt><trkpt lat="43.03038673370953" lon="12.10823212134802"><ele>357.0</ele><time>2026-03-29T09:09:19Z</time></trkpt><trkpt lat="43.03044426412559" lon="12.108315814670108"><ele>358.0</ele><time>2026-03-29T09:09:20Z</time></trkpt><trkpt lat="43.030526273580854" lon="12.10844021797966"><ele>359.0</ele><time>2026-03-29T09:09:21Z</time></trkpt><trkpt lat="43.03061328879295" lon="12.10858766652966"><ele>360.0</ele><time>2026-03-29T09:09:22Z</time></trkpt><trkpt lat="43.0306977991354" lon="12.108711708336845"><ele>360.0</ele><time>2026-03-29T09:09:23Z</time></trkpt><trkpt lat="43.03080024493333" lon="12.108824623752287"><ele>360.0</ele><time>2026-03-29T09:09:24Z</time></trkpt><trkpt lat="43.03091745461195" lon="12.10891000369503"><ele>360.0</ele><time>2026-03-29T09:09:25Z</time></trkpt><trkpt lat="43.031008124097184" lon="12.108981365994103"><ele>360.0</ele><time>2026-03-29T09:09:26Z</time></trkpt><trkpt lat="43.03111560395395" lon="12.109044545762508"><ele>361.8</ele><time>2026-03-29T09:09:27Z</time></trkpt><trkpt lat="43.03118431037286" lon="12.109150991852603"><ele>363.6</ele><time>2026-03-29T09:09:28Z</time></trkpt><trkpt lat="43.03125897912445" lon="12.109228763036677"><ele>365.4</ele><time>2026-03-29T09:09:29Z</time></trkpt><trkpt lat="43.03132245768024" lon="12.109325033985325"><ele>367.2</ele><time>2026-03-29T09:09:30Z</time></trkpt><trkpt lat="43.03137860003774" lon="12.109419108149725"><ele>369.0</ele><time>2026-03-29T09:09:31Z</time></trkpt><trkpt lat="43.03143710513474" lon="12.109508491913376"><ele>369.0</ele><time>2026-03-29T09:09:32Z</time></trkpt><trkpt lat="43.03150372584682" lon="12.109603886713709"><ele>369.0</ele><time>2026-03-29T09:09:33Z</time></trkpt><trkpt lat="43.03156093715537" lon="12.109700640536314"><ele>369.0</ele><time>2026-03-29T09:09:34Z</time></trkpt><trkpt lat="43.03161260165534" lon="12.109796790705449"><ele>369.0</ele><time>2026-03-29T09:09:35Z</time></trkpt><trkpt lat="43.03164162875859" lon="12.109902944337591"><ele>369.0</ele><time>2026-03-29T09:09:36Z</time></trkpt><trkpt lat="43.0316768601569" lon="12.110013391111996"><ele>369.0</ele><time>2026-03-29T09:09:37Z</time></trkpt><trkpt lat="43.031700784358165" lon="12.110123027924077"><ele>369.85714285714283</ele><time>2026-03-29T09:09:38Z</time></trkpt><trkpt lat="43.031717711906396" lon="12.110226228443823"><ele>370.71428571428567</ele><time>2026-03-29T09:09:39Z</time></trkpt><trkpt lat="43.03170100428016" lon="12.110322255607862"><ele>371.57142857142856</ele><time>2026-03-29T09:09:40Z</time></trkpt><trkpt lat="43.03168787678139" lon="12.110418453314562"><ele>372.42857142857144</ele><time>2026-03-29T09:09:41Z</time></trkpt><trkpt lat="43.03166633399607" lon="12.110514140432942"><ele>373.2857142857143</ele><time>2026-03-29T09:09:42Z</time></trkpt><trkpt lat="43.03164949901761" lon="12.110608559618036"><ele>374.14285714285717</ele><time>2026-03-29T09:09:43Z</time></trkpt><trkpt lat="43.03164441176793" lon="12.110697867248557"><ele>375.0</ele><time>2026-03-29T09:09:44Z</time></trkpt><trkpt lat="43.031638495041136" lon="12.110785138004573"><ele>377.2</ele><time>2026-03-29T09:09:45Z</time></trkpt><trkpt lat="43.031704433402524" lon="12.110899920246895"><ele>379.4</ele><time>2026-03-29T09:09:46Z</time></trkpt><trkpt lat="43.03177935576542" lon="12.1109952950877"><ele>381.6</ele><time>2026-03-29T09:09:47Z</time></trkpt><trkpt lat="43.031836889459115" lon="12.111087337869213"><ele>383.8</ele><time>2026-03-29T09:09:47.999Z</time></trkpt><trkpt lat="43.031884619558056" lon="12.111161887623808"><ele>386.0</ele><time>2026-03-29T09:09:48.999Z</time></trkpt><trkpt lat="43.03193665154845" lon="12.111249495451837"><ele>385.99999999999994</ele><time>2026-03-29T09:09:49.999Z</time></trkpt><trkpt lat="43.03197126956628" lon="12.111346797746243"><ele>386.0</ele><time>2026-03-29T09:09:50.999Z</time></trkpt><trkpt lat="43.0319957639906" lon="12.111464920216282"><ele>386.0</ele><time>2026-03-29T09:09:51.999Z</time></trkpt><trkpt lat="43.03201556523069" lon="12.111563853879636"><ele>386.0</ele><time>2026-03-29T09:09:52.999Z</time></trkpt><trkpt lat="43.03205660433059" lon="12.111668209691201"><ele>385.99999999999994</ele><time>2026-03-29T09:09:53.999Z</time></trkpt><trkpt lat="43.032090177534315" lon="12.11176170498787"><ele>386.0</ele><time>2026-03-29T09:09:54.999Z</time></trkpt><trkpt lat="43.03213660524307" lon="12.1118601319771"><ele>384.4</ele><time>2026-03-29T09:09:55.999Z</time></trkpt><trkpt lat="43.03218443334666" lon="12.111957184731066"><ele>382.8</ele><time>2026-03-29T09:09:56.999Z</time></trkpt><trkpt lat="43.03223240948542" lon="12.11205621505188"><ele>381.2</ele><time>2026-03-29T09:09:57.999Z</time></trkpt><trkpt lat="43.03228098647202" lon="12.112164471279117"><ele>379.59999999999997</ele><time>2026-03-29T09:09:58.999Z</time></trkpt><trkpt lat="43.0323302451076" lon="12.112284308335754"><ele>378.0</ele><time>2026-03-29T09:09:59.999Z</time></trkpt><trkpt lat="43.032375298487366" lon="12.112407053586304"><ele>378.3333333333333</ele><time>2026-03-29T09:10:00.999Z</time></trkpt><trkpt lat="43.03240773603896" lon="12.11252319739651"><ele>378.6666666666667</ele><time>2026-03-29T09:10:01.999Z</time></trkpt><trkpt lat="43.03243038138067" lon="12.112634272324117"><ele>379.0</ele><time>2026-03-29T09:10:02.999Z</time></trkpt><trkpt lat="43.032455585056596" lon="12.112744510979685"><ele>379.33333333333337</ele><time>2026-03-29T09:10:03.999Z</time></trkpt><trkpt lat="43.032486265737404" lon="12.112852842615336"><ele>379.6666666666667</ele><time>2026-03-29T09:10:04.999Z</time></trkpt><trkpt lat="43.032533549827534" lon="12.112964547368012"><ele>380.0</ele><time>2026-03-29T09:10:05.999Z</time></trkpt><trkpt lat="43.032575394471806" lon="12.113067189326243"><ele>380.0</ele><time>2026-03-29T09:10:06.999Z</time></trkpt><trkpt lat="43.032616519790906" lon="12.11316720042397"><ele>380.0</ele><time>2026-03-29T09:10:07.999Z</time></trkpt><trkpt lat="43.032650112738594" lon="12.113272284838605"><ele>380.0</ele><time>2026-03-29T09:10:08.999Z</time></trkpt><trkpt lat="43.0327030674726" lon="12.113379428038066"><ele>380.0</ele><time>2026-03-29T09:10:09.999Z</time></trkpt><trkpt lat="43.03274334370931" lon="12.113476828591185"><ele>380.0</ele><time>2026-03-29T09:10:10.999Z</time></trkpt><trkpt lat="43.03276966972963" lon="12.113570787457453"><ele>380.0</ele><time>2026-03-29T09:10:11.999Z</time></trkpt><trkpt lat="43.03280500872287" lon="12.113669298222241"><ele>378.6666666666667</ele><time>2026-03-29T09:10:12.999Z</time></trkpt><trkpt lat="43.03283593237997" lon="12.113760083526145"><ele>377.33333333333337</ele><time>2026-03-29T09:10:13.999Z</time></trkpt><trkpt lat="43.03289289345923" lon="12.11389056540219"><ele>376.0</ele><time>2026-03-29T09:10:15.999Z</time></trkpt><trkpt lat="43.033008026729085" lon="12.113932421720913"><ele>374.6666666666667</ele><time>2026-03-29T09:10:18Z</time></trkpt><trkpt lat="43.033073845610986" lon="12.113926557251487"><ele>373.3333333333333</ele><time>2026-03-29T09:10:19Z</time></trkpt><trkpt lat="43.03314237788798" lon="12.113900346323236"><ele>372.0</ele><time>2026-03-29T09:10:20Z</time></trkpt><trkpt lat="43.03322067225042" lon="12.113870913977475"><ele>372.0</ele><time>2026-03-29T09:10:21Z</time></trkpt><trkpt lat="43.03329501963721" lon="12.113862846601085"><ele>372.0</ele><time>2026-03-29T09:10:22Z</time></trkpt><trkpt lat="43.03337108300797" lon="12.113835137558368"><ele>372.0</ele><time>2026-03-29T09:10:23Z</time></trkpt><trkpt lat="43.033441704091295" lon="12.113825971017215"><ele>372.0</ele><time>2026-03-29T09:10:24Z</time></trkpt><trkpt lat="43.03355535044896" lon="12.113862669750892"><ele>372.0</ele><time>2026-03-29T09:10:26Z</time></trkpt><trkpt lat="43.03363167578449" lon="12.113890948434586"><ele>372.0</ele><time>2026-03-29T09:10:27Z</time></trkpt><trkpt lat="43.03371056943692" lon="12.11392105035434"><ele>372.00000000000006</ele><time>2026-03-29T09:10:28Z</time></trkpt><trkpt lat="43.03378491915768" lon="12.113943301895755"><ele>372.0</ele><time>2026-03-29T09:10:29Z</time></trkpt><trkpt lat="43.033855924123955" lon="12.113963440525"><ele>372.0</ele><time>2026-03-29T09:10:30Z</time></trkpt><trkpt lat="43.03392165055265" lon="12.11398246664279"><ele>372.0</ele><time>2026-03-29T09:10:31Z</time></trkpt><trkpt lat="43.033992222768724" lon="12.114004739617867"><ele>372.0</ele><time>2026-03-29T09:10:32Z</time></trkpt><trkpt lat="43.03406355201804" lon="12.114030968216817"><ele>372.00000000000006</ele><time>2026-03-29T09:10:33Z</time></trkpt><trkpt lat="43.034137837828226" lon="12.114065543533757"><ele>372.0</ele><time>2026-03-29T09:10:34Z</time></trkpt><trkpt lat="43.034203422658415" lon="12.114100019866413"><ele>369.1666666666667</ele><time>2026-03-29T09:10:35Z</time></trkpt><trkpt lat="43.03432528366613" lon="12.114170815065485"><ele>366.3333333333333</ele><time>2026-03-29T09:10:37Z</time></trkpt><trkpt lat="43.03436332872396" lon="12.11425336977422"><ele>363.5</ele><time>2026-03-29T09:10:38Z</time></trkpt><trkpt lat="43.03440233636523" lon="12.114336202804573"><ele>360.66666666666663</ele><time>2026-03-29T09:10:39Z</time></trkpt><trkpt lat="43.03439173199783" lon="12.114451246230177"><ele>357.8333333333333</ele><time>2026-03-29T09:10:40Z</time></trkpt><trkpt lat="43.034386202928054" lon="12.114541173081406"><ele>355.0</ele><time>2026-03-29T09:10:41Z</time></trkpt><trkpt lat="43.03438847905614" lon="12.114631573788175"><ele>355.0</ele><time>2026-03-29T09:10:42Z</time></trkpt><trkpt lat="43.034437605510156" lon="12.114712091974663"><ele>355.0</ele><time>2026-03-29T09:10:43Z</time></trkpt><trkpt lat="43.034508096990656" lon="12.114754311663056"><ele>355.0</ele><time>2026-03-29T09:10:44Z</time></trkpt><trkpt lat="43.034584466462746" lon="12.114781291989367"><ele>355.0</ele><time>2026-03-29T09:10:45Z</time></trkpt><trkpt lat="43.03464774411521" lon="12.114822811055605"><ele>355.0</ele><time>2026-03-29T09:10:46Z</time></trkpt><trkpt lat="43.034731069902975" lon="12.11486779145332"><ele>355.0</ele><time>2026-03-29T09:10:47Z</time></trkpt><trkpt lat="43.03480653120986" lon="12.114896021849626"><ele>355.0</ele><time>2026-03-29T09:10:48Z</time></trkpt><trkpt lat="43.034879554005954" lon="12.11490059919294"><ele>355.0</ele><time>2026-03-29T09:10:49Z</time></trkpt><trkpt lat="43.03498371098599" lon="12.114845480017312"><ele>355.0</ele><time>2026-03-29T09:10:50Z</time></trkpt><trkpt lat="43.03505322801558" lon="12.114746298591484"><ele>355.0</ele><time>2026-03-29T09:10:51Z</time></trkpt><trkpt lat="43.03515368494867" lon="12.114652909968747"><ele>355.0</ele><time>2026-03-29T09:10:53Z</time></trkpt><trkpt lat="43.035211620043256" lon="12.11461830165976"><ele>352.0</ele><time>2026-03-29T09:10:54Z</time></trkpt><trkpt lat="43.03534294867978" lon="12.114572248663944"><ele>349.0</ele><time>2026-03-29T09:10:56Z</time></trkpt><trkpt lat="43.03542066980163" lon="12.114559116056999"><ele>346.0</ele><time>2026-03-29T09:10:57Z</time></trkpt><trkpt lat="43.03550175970786" lon="12.114550625622167"><ele>343.0</ele><time>2026-03-29T09:10:58Z</time></trkpt><trkpt lat="43.03556997423734" lon="12.114542589806415"><ele>340.0</ele><time>2026-03-29T09:10:59Z</time></trkpt><trkpt lat="43.03563620027033" lon="12.114534661862606"><ele>337.0</ele><time>2026-03-29T09:11:00Z</time></trkpt><trkpt lat="43.035709038321286" lon="12.114524896507017"><ele>337.0</ele><time>2026-03-29T09:11:01Z</time></trkpt><trkpt lat="43.03577859118895" lon="12.11451557160337"><ele>337.0</ele><time>2026-03-29T09:11:02Z</time></trkpt><trkpt lat="43.03584592272373" lon="12.11450673322169"><ele>337.0</ele><time>2026-03-29T09:11:03Z</time></trkpt><trkpt lat="43.03591764735309" lon="12.114497614133718"><ele>337.0</ele><time>2026-03-29T09:11:04Z</time></trkpt><trkpt lat="43.03604104900119" lon="12.114481924821002"><ele>337.0</ele><time>2026-03-29T09:11:06Z</time></trkpt><trkpt lat="43.03610977401884" lon="12.114472884041316"><ele>337.0</ele><time>2026-03-29T09:11:07Z</time></trkpt><trkpt lat="43.0361759483119" lon="12.114463256419906"><ele>333.75</ele><time>2026-03-29T09:11:08Z</time></trkpt><trkpt lat="43.03623879590784" lon="12.11445411279122"><ele>330.5</ele><time>2026-03-29T09:11:09Z</time></trkpt><trkpt lat="43.03633541555644" lon="12.114439275935217"><ele>327.25</ele><time>2026-03-29T09:11:11Z</time></trkpt><trkpt lat="43.036423921472284" lon="12.114424113572264"><ele>324.0</ele><time>2026-03-29T09:11:13Z</time></trkpt><trkpt lat="43.03654152018795" lon="12.114664527878475"><ele>324.0</ele><time>2026-03-29T09:11:46Z</time></trkpt><trkpt lat="43.036568341073064" lon="12.114747147814384"><ele>324.0</ele><time>2026-03-29T09:11:47Z</time></trkpt><trkpt lat="43.036603232062305" lon="12.11483094837752"><ele>324.0</ele><time>2026-03-29T09:11:48Z</time></trkpt><trkpt lat="43.03662059111937" lon="12.114995169339645"><ele>324.0</ele><time>2026-03-29T09:11:50Z</time></trkpt><trkpt lat="43.036585841150355" lon="12.115119645696971"><ele>324.0</ele><time>2026-03-29T09:11:51Z</time></trkpt><trkpt lat="43.0365775499611" lon="12.115235713402829"><ele>324.0</ele><time>2026-03-29T09:11:52Z</time></trkpt><trkpt lat="43.03657117216008" lon="12.115350668879822"><ele>326.1666666666667</ele><time>2026-03-29T09:11:53Z</time></trkpt><trkpt lat="43.0365648496834" lon="12.115460374986723"><ele>328.3333333333333</ele><time>2026-03-29T09:11:53.999Z</time></trkpt><trkpt lat="43.03656978190334" lon="12.115568699160137"><ele>330.5</ele><time>2026-03-29T09:11:54.999Z</time></trkpt><trkpt lat="43.03657555571723" lon="12.11568936362795"><ele>332.66666666666663</ele><time>2026-03-29T09:11:55.999Z</time></trkpt><trkpt lat="43.036584099327506" lon="12.115813686041232"><ele>334.8333333333333</ele><time>2026-03-29T09:11:56.999Z</time></trkpt><trkpt lat="43.03659948131007" lon="12.115941405937567"><ele>337.0</ele><time>2026-03-29T09:11:57.999Z</time></trkpt><trkpt lat="43.036596289246454" lon="12.116062142075023"><ele>337.0</ele><time>2026-03-29T09:11:58.999Z</time></trkpt><trkpt lat="43.03659468607463" lon="12.116268704576205"><ele>337.0</ele><time>2026-03-29T09:12:00.999Z</time></trkpt><trkpt lat="43.03658261347457" lon="12.116359057397753"><ele>337.0</ele><time>2026-03-29T09:12:01.999Z</time></trkpt><trkpt lat="43.036589143582944" lon="12.116465689852403"><ele>337.0</ele><time>2026-03-29T09:12:02.999Z</time></trkpt><trkpt lat="43.03658383332702" lon="12.116571082588704"><ele>337.0</ele><time>2026-03-29T09:12:03.999Z</time></trkpt><trkpt lat="43.03659469569485" lon="12.116688560696844"><ele>337.00000000000006</ele><time>2026-03-29T09:12:04.999Z</time></trkpt><trkpt lat="43.03658813100157" lon="12.116788782161358"><ele>337.0</ele><time>2026-03-29T09:12:05.999Z</time></trkpt><trkpt lat="43.03659787467898" lon="12.116891509127619"><ele>337.0</ele><time>2026-03-29T09:12:07.999Z</time></trkpt><trkpt lat="43.0366608235834" lon="12.116944312980205"><ele>337.0</ele><time>2026-03-29T09:12:08.999Z</time></trkpt><trkpt lat="43.03672741317408" lon="12.116981020076938"><ele>337.0</ele><time>2026-03-29T09:12:09.999Z</time></trkpt><trkpt lat="43.03679323004438" lon="12.117018564884676"><ele>337.00000000000006</ele><time>2026-03-29T09:12:11.999Z</time></trkpt><trkpt lat="43.036848267043254" lon="12.117071338583767"><ele>337.0</ele><time>2026-03-29T09:12:14.999Z</time></trkpt><trkpt lat="43.03686780592325" lon="12.117161548980413"><ele>333.5</ele><time>2026-03-29T09:12:19.999Z</time></trkpt><trkpt lat="43.036958382337914" lon="12.117448465563255"><ele>330.0</ele><time>2026-03-29T09:12:27Z</time></trkpt><trkpt lat="43.036981843978324" lon="12.117542355138816"><ele>326.5</ele><time>2026-03-29T09:12:28Z</time></trkpt><trkpt lat="43.0370574495865" lon="12.117691524283886"><ele>323.0</ele><time>2026-03-29T09:12:30Z</time></trkpt><trkpt lat="43.03715876146676" lon="12.11775644461433"><ele>323.0</ele><time>2026-03-29T09:12:32Z</time></trkpt><trkpt lat="43.03716443481751" lon="12.117847964923769"><ele>323.0</ele><time>2026-03-29T09:12:35Z</time></trkpt><trkpt lat="43.03721016557702" lon="12.117907602664358"><ele>323.0</ele><time>2026-03-29T09:12:36Z</time></trkpt><trkpt lat="43.03723502316349" lon="12.118015215629887"><ele>323.0</ele><time>2026-03-29T09:12:40Z</time></trkpt><trkpt lat="43.03721440990578" lon="12.118151053943508"><ele>323.0</ele><time>2026-03-29T09:12:43Z</time></trkpt><trkpt lat="43.037262450936346" lon="12.11825440868178"><ele>323.0</ele><time>2026-03-29T09:12:46Z</time></trkpt><trkpt lat="43.037331781849794" lon="12.118407326701412"><ele>324.0</ele><time>2026-03-29T09:12:49Z</time></trkpt><trkpt lat="43.03737608551352" lon="12.118501087940288"><ele>325.0</ele><time>2026-03-29T09:12:50Z</time></trkpt><trkpt lat="43.03748191664541" lon="12.118578432334779"><ele>326.0</ele><time>2026-03-29T09:12:51Z</time></trkpt><trkpt lat="43.03759099921179" lon="12.118661446520685"><ele>327.0</ele><time>2026-03-29T09:12:52Z</time></trkpt><trkpt lat="43.037704884925766" lon="12.118755174002615"><ele>324.0</ele><time>2026-03-29T09:12:54Z</time></trkpt><trkpt lat="43.03779015058853" lon="12.118834597985268"><ele>321.0</ele><time>2026-03-29T09:12:55Z</time></trkpt><trkpt lat="43.03787160863753" lon="12.118892345244621"><ele>318.0</ele><time>2026-03-29T09:12:56Z</time></trkpt><trkpt lat="43.037928855428454" lon="12.11897463365547"><ele>315.0</ele><time>2026-03-29T09:12:57Z</time></trkpt><trkpt lat="43.0380093866045" lon="12.119038181567548"><ele>312.0</ele><time>2026-03-29T09:12:58Z</time></trkpt><trkpt lat="43.038064808386466" lon="12.119126098549787"><ele>312.0</ele><time>2026-03-29T09:12:59Z</time></trkpt><trkpt lat="43.038179556541834" lon="12.119212579037336"><ele>312.0</ele><time>2026-03-29T09:13:00Z</time></trkpt><trkpt lat="43.03825587274122" lon="12.11929630944832"><ele>312.0</ele><time>2026-03-29T09:13:01Z</time></trkpt><trkpt lat="43.03836166771924" lon="12.11934845796466"><ele>312.0</ele><time>2026-03-29T09:13:02Z</time></trkpt><trkpt lat="43.03841827734179" lon="12.119408276940183"><ele>312.0</ele><time>2026-03-29T09:13:03Z</time></trkpt><trkpt lat="43.03847355583637" lon="12.119459152332674"><ele>310.7142857142857</ele><time>2026-03-29T09:13:04Z</time></trkpt><trkpt lat="43.03853965369275" lon="12.119515730046006"><ele>309.4285714285714</ele><time>2026-03-29T09:13:05Z</time></trkpt><trkpt lat="43.03859390943972" lon="12.119567640567576"><ele>308.1428571428571</ele><time>2026-03-29T09:13:06Z</time></trkpt><trkpt lat="43.038655355258975" lon="12.1196211174308"><ele>306.8571428571429</ele><time>2026-03-29T09:13:07Z</time></trkpt><trkpt lat="43.038716004759195" lon="12.119685355227725"><ele>305.57142857142856</ele><time>2026-03-29T09:13:08Z</time></trkpt><trkpt lat="43.03877090664343" lon="12.119742295885713"><ele>304.2857142857143</ele><time>2026-03-29T09:13:09Z</time></trkpt><trkpt lat="43.0388361479897" lon="12.119818816271284"><ele>303.0</ele><time>2026-03-29T09:13:10Z</time></trkpt><trkpt lat="43.03890107297136" lon="12.119908274470248"><ele>302.0</ele><time>2026-03-29T09:13:11Z</time></trkpt><trkpt lat="43.038945200692325" lon="12.119984978075795"><ele>301.0</ele><time>2026-03-29T09:13:12Z</time></trkpt><trkpt lat="43.03899298614268" lon="12.120069782683396"><ele>300.0</ele><time>2026-03-29T09:13:13Z</time></trkpt><trkpt lat="43.039058351734674" lon="12.120224878280291"><ele>299.0</ele><time>2026-03-29T09:13:15Z</time></trkpt><trkpt lat="43.03908399482021" lon="12.1203189765082"><ele>298.0</ele><time>2026-03-29T09:13:16Z</time></trkpt><trkpt lat="43.03912725518292" lon="12.12049763913801"><ele>298.0</ele><time>2026-03-29T09:13:18Z</time></trkpt><trkpt lat="43.03912266953177" lon="12.12067295162962"><ele>298.0</ele><time>2026-03-29T09:13:20Z</time></trkpt><trkpt lat="43.03910311313432" lon="12.120768471920313"><ele>298.0</ele><time>2026-03-29T09:13:21Z</time></trkpt><trkpt lat="43.03907316568878" lon="12.120874615102585"><ele>298.0</ele><time>2026-03-29T09:13:22Z</time></trkpt><trkpt lat="43.03902744956229" lon="12.120968035369778"><ele>298.0</ele><time>2026-03-29T09:13:23Z</time></trkpt><trkpt lat="43.038958636975515" lon="12.121045578374396"><ele>298.2</ele><time>2026-03-29T09:13:24Z</time></trkpt><trkpt lat="43.03890222231562" lon="12.121100683188123"><ele>298.4</ele><time>2026-03-29T09:13:25Z</time></trkpt><trkpt lat="43.03878938080213" lon="12.121170204711756"><ele>298.59999999999997</ele><time>2026-03-29T09:13:27Z</time></trkpt><trkpt lat="43.03866824169644" lon="12.121248757183348"><ele>298.8</ele><time>2026-03-29T09:13:29Z</time></trkpt><trkpt lat="43.03861151654275" lon="12.121289327413125"><ele>299.0</ele><time>2026-03-29T09:13:30Z</time></trkpt><trkpt lat="43.03850362290434" lon="12.121359785032027"><ele>299.0</ele><time>2026-03-29T09:13:32Z</time></trkpt><trkpt lat="43.038444767260266" lon="12.121396094489574"><ele>299.0</ele><time>2026-03-29T09:13:33Z</time></trkpt><trkpt lat="43.03838592238998" lon="12.121435539770946"><ele>299.0</ele><time>2026-03-29T09:13:34Z</time></trkpt><trkpt lat="43.03832869809745" lon="12.121473315928718"><ele>299.0</ele><time>2026-03-29T09:13:35Z</time></trkpt><trkpt lat="43.03823457799881" lon="12.121565549472207"><ele>299.0</ele><time>2026-03-29T09:13:37Z</time></trkpt><trkpt lat="43.03817960115653" lon="12.121652344173445"><ele>299.0</ele><time>2026-03-29T09:13:38Z</time></trkpt><trkpt lat="43.038107015387006" lon="12.12178267626504"><ele>299.75</ele><time>2026-03-29T09:13:40Z</time></trkpt><trkpt lat="43.03810255748734" lon="12.121898721071807"><ele>300.5</ele><time>2026-03-29T09:13:42Z</time></trkpt><trkpt lat="43.03832047520667" lon="12.12207622369909"><ele>301.25</ele><time>2026-03-29T09:13:47Z</time></trkpt><trkpt lat="43.03835567934309" lon="12.122148007295587"><ele>302.0</ele><time>2026-03-29T09:13:48Z</time></trkpt><trkpt lat="43.03827890558916" lon="12.122489088556012"><ele>304.2</ele><time>2026-03-29T09:13:52Z</time></trkpt><trkpt lat="43.038221894194706" lon="12.122604778697573"><ele>306.4</ele><time>2026-03-29T09:13:54Z</time></trkpt><trkpt lat="43.03815568674122" lon="12.122661647325272"><ele>308.6</ele><time>2026-03-29T09:13:56Z</time></trkpt><trkpt lat="43.038055812605755" lon="12.122703277522394"><ele>310.8</ele><time>2026-03-29T09:13:58Z</time></trkpt><trkpt lat="43.03794697353819" lon="12.122754555850856"><ele>313.0</ele><time>2026-03-29T09:13:59Z</time></trkpt><trkpt lat="43.03787322732868" lon="12.12281378367338"><ele>313.0</ele><time>2026-03-29T09:14:00Z</time></trkpt><trkpt lat="43.03776732989619" lon="12.122868136967762"><ele>313.0</ele><time>2026-03-29T09:14:02Z</time></trkpt><trkpt lat="43.03770726362079" lon="12.122894784875603"><ele>313.0</ele><time>2026-03-29T09:14:03Z</time></trkpt><trkpt lat="43.037602128933344" lon="12.122926760441363"><ele>313.0</ele><time>2026-03-29T09:14:05Z</time></trkpt><trkpt lat="43.03752887659873" lon="12.122954737611105"><ele>313.0</ele><time>2026-03-29T09:14:06Z</time></trkpt><trkpt lat="43.03742061591444" lon="12.122966722841502"><ele>314.0</ele><time>2026-03-29T09:14:08Z</time></trkpt><trkpt lat="43.03729822263234" lon="12.123010009899547"><ele>315.0</ele><time>2026-03-29T09:14:10Z</time></trkpt><trkpt lat="43.037224257097684" lon="12.123138186697886"><ele>316.0</ele><time>2026-03-29T09:14:12Z</time></trkpt><trkpt lat="43.03718652567913" lon="12.123233131429275"><ele>317.0</ele><time>2026-03-29T09:14:13Z</time></trkpt><trkpt lat="43.037081079306134" lon="12.123287419213778"><ele>318.0</ele><time>2026-03-29T09:14:15Z</time></trkpt><trkpt lat="43.0370164864927" lon="12.123294338537598"><ele>318.2</ele><time>2026-03-29T09:14:16Z</time></trkpt><trkpt lat="43.0368938550588" lon="12.123313626245798"><ele>318.4</ele><time>2026-03-29T09:14:18Z</time></trkpt><trkpt lat="43.036831415629486" lon="12.123344272632542"><ele>318.59999999999997</ele><time>2026-03-29T09:14:19Z</time></trkpt><trkpt lat="43.03670767138638" lon="12.123320169922243"><ele>318.8</ele><time>2026-03-29T09:14:21Z</time></trkpt><trkpt lat="43.036598662002966" lon="12.123277749111567"><ele>319.0</ele><time>2026-03-29T09:14:23Z</time></trkpt><trkpt lat="43.03645347219139" lon="12.123258062269318"><ele>320.0</ele><time>2026-03-29T09:14:25Z</time></trkpt><trkpt lat="43.0363356890804" lon="12.123284213436095"><ele>321.0</ele><time>2026-03-29T09:14:27Z</time></trkpt><trkpt lat="43.03626164136314" lon="12.123310593694558"><ele>322.0</ele><time>2026-03-29T09:14:28Z</time></trkpt><trkpt lat="43.03614725981278" lon="12.123277865360055"><ele>323.0</ele><time>2026-03-29T09:14:30Z</time></trkpt><trkpt lat="43.03608382122488" lon="12.123269251621348"><ele>324.0</ele><time>2026-03-29T09:14:31Z</time></trkpt><trkpt lat="43.03600379895504" lon="12.123181480750683"><ele>324.2</ele><time>2026-03-29T09:14:33Z</time></trkpt><trkpt lat="43.035936577439784" lon="12.12307253156952"><ele>324.4</ele><time>2026-03-29T09:14:35Z</time></trkpt><trkpt lat="43.035882102094085" lon="12.123026551680539"><ele>324.6</ele><time>2026-03-29T09:14:36Z</time></trkpt><trkpt lat="43.03581459725561" lon="12.122992399732425"><ele>324.8</ele><time>2026-03-29T09:14:37Z</time></trkpt><trkpt lat="43.035703314966725" lon="12.122943475471791"><ele>325.0</ele><time>2026-03-29T09:14:39Z</time></trkpt><trkpt lat="43.035598360197476" lon="12.122859477666772"><ele>326.8333333333333</ele><time>2026-03-29T09:14:41Z</time></trkpt><trkpt lat="43.035537845981494" lon="12.122834659604635"><ele>328.66666666666663</ele><time>2026-03-29T09:14:42Z</time></trkpt><trkpt lat="43.035436185413964" lon="12.122792511938655"><ele>330.5</ele><time>2026-03-29T09:14:44Z</time></trkpt><trkpt lat="43.03537400954764" lon="12.122807359685794"><ele>332.3333333333333</ele><time>2026-03-29T09:14:45Z</time></trkpt><trkpt lat="43.035251862997164" lon="12.12282083040966"><ele>334.1666666666667</ele><time>2026-03-29T09:14:47Z</time></trkpt><trkpt lat="43.03517499415555" lon="12.122816823475393"><ele>336.0</ele><time>2026-03-29T09:14:48Z</time></trkpt><trkpt lat="43.03508595043105" lon="12.122865565747773"><ele>336.0</ele><time>2026-03-29T09:14:50Z</time></trkpt><trkpt lat="43.03501089461232" lon="12.123001739521056"><ele>336.0</ele><time>2026-03-29T09:14:52Z</time></trkpt><trkpt lat="43.03496380904736" lon="12.123108511985993"><ele>336.0</ele><time>2026-03-29T09:14:54Z</time></trkpt><trkpt lat="43.03490205020485" lon="12.123192240675838"><ele>336.0</ele><time>2026-03-29T09:14:55Z</time></trkpt><trkpt lat="43.03483380598331" lon="12.123241241395043"><ele>336.0</ele><time>2026-03-29T09:14:56Z</time></trkpt><trkpt lat="43.03471317012105" lon="12.123271620129843"><ele>338.4</ele><time>2026-03-29T09:14:58Z</time></trkpt><trkpt lat="43.03458476452053" lon="12.123303245186394"><ele>340.8</ele><time>2026-03-29T09:15:00Z</time></trkpt><trkpt lat="43.034494264933244" lon="12.123298990817343"><ele>343.2</ele><time>2026-03-29T09:15:01Z</time></trkpt><trkpt lat="43.034410921562205" lon="12.123278111886803"><ele>345.59999999999997</ele><time>2026-03-29T09:15:02Z</time></trkpt><trkpt lat="43.03433068970023" lon="12.123261963238694"><ele>348.0</ele><time>2026-03-29T09:15:03Z</time></trkpt><trkpt lat="43.03425553512543" lon="12.123253797696632"><ele>348.0</ele><time>2026-03-29T09:15:04Z</time></trkpt><trkpt lat="43.034172712573515" lon="12.123247397708434"><ele>348.0</ele><time>2026-03-29T09:15:05Z</time></trkpt><trkpt lat="43.03409680445062" lon="12.12323295220339"><ele>348.0</ele><time>2026-03-29T09:15:06Z</time></trkpt><trkpt lat="43.03401947533536" lon="12.123192672056398"><ele>348.0</ele><time>2026-03-29T09:15:07Z</time></trkpt><trkpt lat="43.0339467712084" lon="12.12316000376685"><ele>348.0</ele><time>2026-03-29T09:15:08Z</time></trkpt><trkpt lat="43.03386796729686" lon="12.123141614018317"><ele>348.0</ele><time>2026-03-29T09:15:09Z</time></trkpt><trkpt lat="43.03379163724395" lon="12.123136173279832"><ele>351.1666666666667</ele><time>2026-03-29T09:15:10Z</time></trkpt><trkpt lat="43.03371673518286" lon="12.123121416950188"><ele>354.3333333333333</ele><time>2026-03-29T09:15:11Z</time></trkpt><trkpt lat="43.033648760334145" lon="12.123091983685201"><ele>357.5</ele><time>2026-03-29T09:15:12Z</time></trkpt><trkpt lat="43.03356725841997" lon="12.123059942327696"><ele>360.66666666666663</ele><time>2026-03-29T09:15:13Z</time></trkpt><trkpt lat="43.0334861932263" lon="12.123021517937213"><ele>363.8333333333333</ele><time>2026-03-29T09:15:14Z</time></trkpt><trkpt lat="43.0334126575602" lon="12.122965638193335"><ele>367.0</ele><time>2026-03-29T09:15:15Z</time></trkpt><trkpt lat="43.033343122611356" lon="12.122913182385302"><ele>367.8333333333333</ele><time>2026-03-29T09:15:16Z</time></trkpt><trkpt lat="43.033272446672285" lon="12.122854017669189"><ele>368.66666666666663</ele><time>2026-03-29T09:15:17Z</time></trkpt><trkpt lat="43.033203702389194" lon="12.122807763355496"><ele>369.5</ele><time>2026-03-29T09:15:18Z</time></trkpt><trkpt lat="43.033127708795625" lon="12.122776433692755"><ele>370.3333333333333</ele><time>2026-03-29T09:15:19Z</time></trkpt><trkpt lat="43.03305489359619" lon="12.122748739231923"><ele>371.1666666666667</ele><time>2026-03-29T09:15:20Z</time></trkpt><trkpt lat="43.032971915450474" lon="12.122742878436744"><ele>372.0</ele><time>2026-03-29T09:15:21Z</time></trkpt><trkpt lat="43.03289649922022" lon="12.122723874893573"><ele>372.0</ele><time>2026-03-29T09:15:22Z</time></trkpt><trkpt lat="43.03282327971394" lon="12.1227059692598"><ele>372.0</ele><time>2026-03-29T09:15:23Z</time></trkpt><trkpt lat="43.032756659830035" lon="12.122696967219387"><ele>372.0</ele><time>2026-03-29T09:15:24Z</time></trkpt><trkpt lat="43.032680341494945" lon="12.122684438450989"><ele>372.0</ele><time>2026-03-29T09:15:25Z</time></trkpt><trkpt lat="43.032603343558215" lon="12.1226618070889"><ele>372.0</ele><time>2026-03-29T09:15:26Z</time></trkpt><trkpt lat="43.032526838790794" lon="12.122658921492146"><ele>372.0</ele><time>2026-03-29T09:15:27Z</time></trkpt><trkpt lat="43.03243545369281" lon="12.12260758166305"><ele>371.6666666666667</ele><time>2026-03-29T09:15:28Z</time></trkpt><trkpt lat="43.03237588505727" lon="12.12253895786074"><ele>371.3333333333333</ele><time>2026-03-29T09:15:29Z</time></trkpt><trkpt lat="43.03231319616425" lon="12.12248202313321"><ele>371.0</ele><time>2026-03-29T09:15:30Z</time></trkpt><trkpt lat="43.03225353694838" lon="12.122416330660258"><ele>370.66666666666663</ele><time>2026-03-29T09:15:31Z</time></trkpt><trkpt lat="43.03218703969768" lon="12.122362453966828"><ele>370.3333333333333</ele><time>2026-03-29T09:15:32Z</time></trkpt><trkpt lat="43.03211241926939" lon="12.122327170583326"><ele>370.0</ele><time>2026-03-29T09:15:33Z</time></trkpt><trkpt lat="43.032047878196884" lon="12.12231960012627"><ele>370.0</ele><time>2026-03-29T09:15:34Z</time></trkpt><trkpt lat="43.031983524135626" lon="12.122209703670157"><ele>370.0</ele><time>2026-03-29T09:15:36Z</time></trkpt><trkpt lat="43.03196821043378" lon="12.12246685563321"><ele>370.0</ele><time>2026-03-29T09:15:39Z</time></trkpt><trkpt lat="43.03195310741461" lon="12.122603643619748"><ele>370.0</ele><time>2026-03-29T09:15:41Z</time></trkpt><trkpt lat="43.03191519573239" lon="12.122707684958407"><ele>370.0</ele><time>2026-03-29T09:15:43Z</time></trkpt><trkpt lat="43.03180976503257" lon="12.12274105135837"><ele>370.0</ele><time>2026-03-29T09:15:45Z</time></trkpt><trkpt lat="43.03167852394033" lon="12.12274793528057"><ele>370.0</ele><time>2026-03-29T09:15:47Z</time></trkpt><trkpt lat="43.03159727838185" lon="12.122768069215601"><ele>370.0</ele><time>2026-03-29T09:15:48Z</time></trkpt><trkpt lat="43.0315146514067" lon="12.12276821666551"><ele>370.0</ele><time>2026-03-29T09:15:49Z</time></trkpt><trkpt lat="43.031450447961895" lon="12.122810562216275"><ele>370.8</ele><time>2026-03-29T09:15:50Z</time></trkpt><trkpt lat="43.03141224729066" lon="12.122896893214364"><ele>371.6</ele><time>2026-03-29T09:15:51Z</time></trkpt><trkpt lat="43.0313804670329" lon="12.122985045881704"><ele>372.4</ele><time>2026-03-29T09:15:52Z</time></trkpt><trkpt lat="43.03135735512264" lon="12.123068675426698"><ele>373.2</ele><time>2026-03-29T09:15:53Z</time></trkpt><trkpt lat="43.031291938346875" lon="12.123242223184633"><ele>374.0</ele><time>2026-03-29T09:15:55Z</time></trkpt><trkpt lat="43.0312187187158" lon="12.123345666335393"><ele>374.0</ele><time>2026-03-29T09:15:56Z</time></trkpt><trkpt lat="43.03110935484828" lon="12.123377530145644"><ele>374.0</ele><time>2026-03-29T09:15:57Z</time></trkpt><trkpt lat="43.03102141092421" lon="12.123432681070229"><ele>374.0</ele><time>2026-03-29T09:15:58Z</time></trkpt><trkpt lat="43.03097812414926" lon="12.12331221537876"><ele>374.0</ele><time>2026-03-29T09:15:59Z</time></trkpt><trkpt lat="43.03090985010002" lon="12.123317437448234"><ele>374.0</ele><time>2026-03-29T09:16:00Z</time></trkpt><trkpt lat="43.03092105091998" lon="12.123858884208762"><ele>374.0</ele><time>2026-03-29T09:16:03Z</time></trkpt><trkpt lat="43.03102054455702" lon="12.12393903399501"><ele>374.0</ele><time>2026-03-29T09:16:05Z</time></trkpt><trkpt lat="43.031075042644524" lon="12.12398866343587"><ele>374.0</ele><time>2026-03-29T09:16:06Z</time></trkpt><trkpt lat="43.03112802904905" lon="12.12405450817545"><ele>374.0</ele><time>2026-03-29T09:16:07Z</time></trkpt><trkpt lat="43.03116531503968" lon="12.124168837061145"><ele>374.0</ele><time>2026-03-29T09:16:09Z</time></trkpt><trkpt lat="43.03121214489046" lon="12.12431571510017"><ele>375.2</ele><time>2026-03-29T09:16:11Z</time></trkpt><trkpt lat="43.03121707561119" lon="12.124405608198574"><ele>376.4</ele><time>2026-03-29T09:16:12Z</time></trkpt><trkpt lat="43.031225310187615" lon="12.124496956426425"><ele>377.6</ele><time>2026-03-29T09:16:13Z</time></trkpt><trkpt lat="43.03124537794991" lon="12.124638600355789"><ele>378.8</ele><time>2026-03-29T09:16:15Z</time></trkpt><trkpt lat="43.031278707945326" lon="12.124800742307844"><ele>380.0</ele><time>2026-03-29T09:16:17Z</time></trkpt><trkpt lat="43.031335391631444" lon="12.124964679153795"><ele>381.1666666666667</ele><time>2026-03-29T09:16:19Z</time></trkpt><trkpt lat="43.03138434886961" lon="12.1250465313374"><ele>382.33333333333337</ele><time>2026-03-29T09:16:20Z</time></trkpt><trkpt lat="43.03142324366954" lon="12.12513545054686"><ele>383.5</ele><time>2026-03-29T09:16:21Z</time></trkpt><trkpt lat="43.031403284784304" lon="12.125268963247734"><ele>384.6666666666667</ele><time>2026-03-29T09:16:23Z</time></trkpt><trkpt lat="43.03139878474356" lon="12.125362765841707"><ele>385.8333333333333</ele><time>2026-03-29T09:16:24Z</time></trkpt><trkpt lat="43.031419829927145" lon="12.125453486887306"><ele>387.0</ele><time>2026-03-29T09:16:25Z</time></trkpt><trkpt lat="43.03144314468877" lon="12.125534797697366"><ele>387.0</ele><time>2026-03-29T09:16:26Z</time></trkpt><trkpt lat="43.03148141158113" lon="12.125616718074772"><ele>387.0</ele><time>2026-03-29T09:16:27Z</time></trkpt><trkpt lat="43.03153073765261" lon="12.125754358296044"><ele>387.0</ele><time>2026-03-29T09:16:29Z</time></trkpt><trkpt lat="43.031525703757765" lon="12.12588863999997"><ele>387.0</ele><time>2026-03-29T09:16:31Z</time></trkpt><trkpt lat="43.0314476614282" lon="12.12595410862907"><ele>387.0</ele><time>2026-03-29T09:16:35Z</time></trkpt><trkpt lat="43.03138253064657" lon="12.125969976414446"><ele>387.0</ele><time>2026-03-29T09:16:38Z</time></trkpt><trkpt lat="43.03129383087239" lon="12.1259775255008"><ele>390.0</ele><time>2026-03-29T09:16:40Z</time></trkpt><trkpt lat="43.03110853004842" lon="12.125974923774422"><ele>393.0</ele><time>2026-03-29T09:16:44Z</time></trkpt><trkpt lat="43.03102267801613" lon="12.12603262695338"><ele>396.0</ele><time>2026-03-29T09:16:46Z</time></trkpt><trkpt lat="43.03094595621691" lon="12.126074443684285"><ele>399.0</ele><time>2026-03-29T09:16:48Z</time></trkpt><trkpt lat="43.03081559890268" lon="12.126105733880706"><ele>399.5</ele><time>2026-03-29T09:16:49Z</time></trkpt><trkpt lat="43.030738648939064" lon="12.126158513081148"><ele>400.0</ele><time>2026-03-29T09:16:51Z</time></trkpt><trkpt lat="43.03040279173416" lon="12.126461856981367"><ele>400.0</ele><time>2026-03-29T09:16:53Z</time></trkpt><trkpt lat="43.030304489131254" lon="12.126527793204302"><ele>400.0</ele><time>2026-03-29T09:16:55Z</time></trkpt><trkpt lat="43.03024797864144" lon="12.126583086396622"><ele>400.0</ele><time>2026-03-29T09:16:57Z</time></trkpt><trkpt lat="43.030188094133614" lon="12.12679850289828"><ele>400.0</ele><time>2026-03-29T09:17:15Z</time></trkpt><trkpt lat="43.030261224337636" lon="12.126857821379007"><ele>400.0</ele><time>2026-03-29T09:17:17Z</time></trkpt><trkpt lat="43.03036348292204" lon="12.12686716240916"><ele>401.33333333333337</ele><time>2026-03-29T09:17:19Z</time></trkpt><trkpt lat="43.03045668226893" lon="12.126919398290399"><ele>402.6666666666667</ele><time>2026-03-29T09:17:20Z</time></trkpt><trkpt lat="43.03052956317898" lon="12.126945353103244"><ele>404.0</ele><time>2026-03-29T09:17:21Z</time></trkpt><trkpt lat="43.03060336572729" lon="12.126970702621971"><ele>405.33333333333337</ele><time>2026-03-29T09:17:22Z</time></trkpt><trkpt lat="43.03067337491159" lon="12.127006674431154"><ele>406.6666666666667</ele><time>2026-03-29T09:17:23Z</time></trkpt><trkpt lat="43.030739589428734" lon="12.127032004139412"><ele>408.0</ele><time>2026-03-29T09:17:24Z</time></trkpt><trkpt lat="43.03080364450271" lon="12.12705578451366"><ele>409.79999999999995</ele><time>2026-03-29T09:17:25Z</time></trkpt><trkpt lat="43.03088763930456" lon="12.127090069962058"><ele>411.6</ele><time>2026-03-29T09:17:26Z</time></trkpt><trkpt lat="43.030958998719434" lon="12.127134601709729"><ele>413.4</ele><time>2026-03-29T09:17:27Z</time></trkpt><trkpt lat="43.03104709880555" lon="12.127185220113216"><ele>415.20000000000005</ele><time>2026-03-29T09:17:28Z</time></trkpt><trkpt lat="43.03115020959367" lon="12.127219062663798"><ele>417.0</ele><time>2026-03-29T09:17:29Z</time></trkpt><trkpt lat="43.03124804112225" lon="12.127294559091016"><ele>417.0</ele><time>2026-03-29T09:17:30Z</time></trkpt><trkpt lat="43.0313089446512" lon="12.127359146838396"><ele>417.0</ele><time>2026-03-29T09:17:31Z</time></trkpt><trkpt lat="43.031369591483546" lon="12.127411758716672"><ele>417.0</ele><time>2026-03-29T09:17:32Z</time></trkpt><trkpt lat="43.03145929926379" lon="12.127438129937138"><ele>417.0</ele><time>2026-03-29T09:17:33Z</time></trkpt><trkpt lat="43.03153773041182" lon="12.127411219070217"><ele>417.0</ele><time>2026-03-29T09:17:34Z</time></trkpt><trkpt lat="43.03161266508305" lon="12.127379984111569"><ele>417.0</ele><time>2026-03-29T09:17:35Z</time></trkpt><trkpt lat="43.031698398068606" lon="12.127372816392521"><ele>417.7142857142857</ele><time>2026-03-29T09:17:36Z</time></trkpt><trkpt lat="43.0317632466579" lon="12.1273440474489"><ele>418.4285714285714</ele><time>2026-03-29T09:17:37Z</time></trkpt><trkpt lat="43.03182927877908" lon="12.127317498174689"><ele>419.1428571428571</ele><time>2026-03-29T09:17:38Z</time></trkpt><trkpt lat="43.031894551507214" lon="12.127309822017702"><ele>419.8571428571429</ele><time>2026-03-29T09:17:39Z</time></trkpt><trkpt lat="43.03195794316653" lon="12.12733094985223"><ele>420.57142857142856</ele><time>2026-03-29T09:17:40Z</time></trkpt><trkpt lat="43.032024947708734" lon="12.127342285549558"><ele>421.2857142857143</ele><time>2026-03-29T09:17:41Z</time></trkpt><trkpt lat="43.03210464355169" lon="12.127323317833767"><ele>422.0</ele><time>2026-03-29T09:17:42Z</time></trkpt><trkpt lat="43.03219201524756" lon="12.127307308538484"><ele>422.0</ele><time>2026-03-29T09:17:43Z</time></trkpt><trkpt lat="43.03232405527056" lon="12.127285205319126"><ele>422.0</ele><time>2026-03-29T09:17:45Z</time></trkpt><trkpt lat="43.0323849280312" lon="12.12730990197254"><ele>422.0</ele><time>2026-03-29T09:17:46Z</time></trkpt><trkpt lat="43.032444833343575" lon="12.12735367134996"><ele>422.0</ele><time>2026-03-29T09:17:49Z</time></trkpt><trkpt lat="43.032477753174206" lon="12.127507371227683"><ele>422.0</ele><time>2026-03-29T09:17:51Z</time></trkpt><trkpt lat="43.032484166598024" lon="12.127614189162614"><ele>424.49999999999994</ele><time>2026-03-29T09:17:52Z</time></trkpt><trkpt lat="43.032456920966034" lon="12.127711240108974"><ele>427.0</ele><time>2026-03-29T09:17:53Z</time></trkpt><trkpt lat="43.032420706519254" lon="12.12780647419508"><ele>429.5</ele><time>2026-03-29T09:17:54Z</time></trkpt><trkpt lat="43.03240118537674" lon="12.127912261609707"><ele>432.0</ele><time>2026-03-29T09:17:55Z</time></trkpt><trkpt lat="43.03241302952777" lon="12.128035703121698"><ele>434.49999999999994</ele><time>2026-03-29T09:17:56Z</time></trkpt><trkpt lat="43.032434336180515" lon="12.12815899411564"><ele>437.0</ele><time>2026-03-29T09:17:57Z</time></trkpt><trkpt lat="43.032457713204934" lon="12.128263134616105"><ele>436.8</ele><time>2026-03-29T09:17:58Z</time></trkpt><trkpt lat="43.03249055317334" lon="12.12840245420709"><ele>436.6</ele><time>2026-03-29T09:17:59Z</time></trkpt><trkpt lat="43.03253089244222" lon="12.128515004969145"><ele>436.40000000000003</ele><time>2026-03-29T09:18:00Z</time></trkpt><trkpt lat="43.032562730763715" lon="12.128618548393789"><ele>436.20000000000005</ele><time>2026-03-29T09:18:01Z</time></trkpt><trkpt lat="43.03262132550215" lon="12.128729466112235"><ele>436.0</ele><time>2026-03-29T09:18:02Z</time></trkpt><trkpt lat="43.03263647409995" lon="12.12891296030103"><ele>436.00000000000006</ele><time>2026-03-29T09:18:04Z</time></trkpt><trkpt lat="43.032617139926344" lon="12.129028257342327"><ele>436.0</ele><time>2026-03-29T09:18:05Z</time></trkpt><trkpt lat="43.03262097765179" lon="12.129162919799608"><ele>436.0</ele><time>2026-03-29T09:18:07Z</time></trkpt><trkpt lat="43.0326725810405" lon="12.129251804409698"><ele>436.0</ele><time>2026-03-29T09:18:08Z</time></trkpt><trkpt lat="43.03273687804397" lon="12.12929713316618"><ele>436.00000000000006</ele><time>2026-03-29T09:18:09Z</time></trkpt><trkpt lat="43.03280131360018" lon="12.129334775365463"><ele>436.0</ele><time>2026-03-29T09:18:10Z</time></trkpt><trkpt lat="43.032882624467156" lon="12.129342444260818"><ele>437.0</ele><time>2026-03-29T09:18:11Z</time></trkpt><trkpt lat="43.03302559051055" lon="12.129389964386116"><ele>438.0</ele><time>2026-03-29T09:18:13Z</time></trkpt><trkpt lat="43.0331380875384" lon="12.12945970747196"><ele>439.0</ele><time>2026-03-29T09:18:15Z</time></trkpt><trkpt lat="43.03318763716308" lon="12.12952949075818"><ele>440.0</ele><time>2026-03-29T09:18:16Z</time></trkpt><trkpt lat="43.033227006278686" lon="12.129611080156636"><ele>441.0</ele><time>2026-03-29T09:18:17Z</time></trkpt><trkpt lat="43.033264975779886" lon="12.129681223396506"><ele>441.0</ele><time>2026-03-29T09:18:18Z</time></trkpt><trkpt lat="43.033287280531994" lon="12.129762076555682"><ele>441.0</ele><time>2026-03-29T09:18:20Z</time></trkpt><trkpt lat="43.03343133979778" lon="12.12976035227022"><ele>441.0</ele><time>2026-03-29T09:19:21Z</time></trkpt><trkpt lat="43.033496171360675" lon="12.129787974391139"><ele>441.0</ele><time>2026-03-29T09:19:34Z</time></trkpt><trkpt lat="43.03362639434851" lon="12.129794028457608"><ele>441.0</ele><time>2026-03-29T09:19:37Z</time></trkpt><trkpt lat="43.033733112441936" lon="12.129790720237043"><ele>439.20000000000005</ele><time>2026-03-29T09:19:39Z</time></trkpt><trkpt lat="43.03379335835356" lon="12.129895654139721"><ele>437.40000000000003</ele><time>2026-03-29T09:19:41Z</time></trkpt><trkpt lat="43.03383350990596" lon="12.130084709063087"><ele>435.6</ele><time>2026-03-29T09:19:43Z</time></trkpt><trkpt lat="43.033846662981354" lon="12.130218225090486"><ele>433.8</ele><time>2026-03-29T09:19:44Z</time></trkpt><trkpt lat="43.03388228029527" lon="12.13031455705955"><ele>432.0</ele><time>2026-03-29T09:19:45Z</time></trkpt><trkpt lat="43.03393318350352" lon="12.130383632719155"><ele>432.0</ele><time>2026-03-29T09:19:46Z</time></trkpt><trkpt lat="43.03402284171053" lon="12.130422024757973"><ele>432.00000000000006</ele><time>2026-03-29T09:19:47Z</time></trkpt><trkpt lat="43.03409010110523" lon="12.130484820808915"><ele>432.00000000000006</ele><time>2026-03-29T09:19:48Z</time></trkpt><trkpt lat="43.03415947199686" lon="12.130540420500253"><ele>432.0</ele><time>2026-03-29T09:19:49Z</time></trkpt><trkpt lat="43.0342680970384" lon="12.130621806912565"><ele>432.0</ele><time>2026-03-29T09:19:51Z</time></trkpt><trkpt lat="43.034316601269055" lon="12.130747312264038"><ele>430.5</ele><time>2026-03-29T09:19:53Z</time></trkpt><trkpt lat="43.03433185626685" lon="12.13088633529387"><ele>429.0</ele><time>2026-03-29T09:19:55Z</time></trkpt><trkpt lat="43.034369075976244" lon="12.130996919183563"><ele>427.5</ele><time>2026-03-29T09:19:57Z</time></trkpt><trkpt lat="43.03440483048071" lon="12.13110060228399"><ele>426.0</ele><time>2026-03-29T09:20:01Z</time></trkpt><trkpt lat="43.03440236710943" lon="12.13120899214996"><ele>424.5</ele><time>2026-03-29T09:20:04Z</time></trkpt><trkpt lat="43.03438660013178" lon="12.131306497268124"><ele>423.0</ele><time>2026-03-29T09:20:06Z</time></trkpt><trkpt lat="43.03442991735429" lon="12.131413223751768"><ele>423.0</ele><time>2026-03-29T09:20:09Z</time></trkpt><trkpt lat="43.034379589609316" lon="12.131483555644092"><ele>423.0</ele><time>2026-03-29T09:20:10Z</time></trkpt><trkpt lat="43.03435892090074" lon="12.13156936639041"><ele>423.0</ele><time>2026-03-29T09:20:11Z</time></trkpt><trkpt lat="43.034385137745815" lon="12.131709372366199"><ele>423.0</ele><time>2026-03-29T09:20:12Z</time></trkpt><trkpt lat="43.03447995210533" lon="12.131842561209115"><ele>423.0</ele><time>2026-03-29T09:20:13Z</time></trkpt><trkpt lat="43.03454095695215" lon="12.131974014474297"><ele>424.75</ele><time>2026-03-29T09:20:14Z</time></trkpt><trkpt lat="43.03456560142883" lon="12.13209274809205"><ele>426.5</ele><time>2026-03-29T09:20:15Z</time></trkpt><trkpt lat="43.03463466161732" lon="12.13230732658784"><ele>428.25</ele><time>2026-03-29T09:20:17Z</time></trkpt><trkpt lat="43.03465849577312" lon="12.13247432151069"><ele>430.0</ele><time>2026-03-29T09:20:18Z</time></trkpt><trkpt lat="43.03466942242377" lon="12.13268686520848"><ele>431.00000000000006</ele><time>2026-03-29T09:20:19Z</time></trkpt><trkpt lat="43.034699707231916" lon="12.1328007420767"><ele>432.0</ele><time>2026-03-29T09:20:20Z</time></trkpt><trkpt lat="43.03475154086781" lon="12.132907974326564"><ele>433.0</ele><time>2026-03-29T09:20:21Z</time></trkpt><trkpt lat="43.03479764497662" lon="12.132992826547804"><ele>434.0</ele><time>2026-03-29T09:20:22Z</time></trkpt><trkpt lat="43.03485055392475" lon="12.13312667366909"><ele>435.00000000000006</ele><time>2026-03-29T09:20:24Z</time></trkpt><trkpt lat="43.03490907221841" lon="12.133178972465975"><ele>436.0</ele><time>2026-03-29T09:20:37Z</time></trkpt><trkpt lat="43.03496979944475" lon="12.133315564512793"><ele>433.33333333333337</ele><time>2026-03-29T09:20:39Z</time></trkpt><trkpt lat="43.03499047500753" lon="12.133399656974515"><ele>430.6666666666667</ele><time>2026-03-29T09:20:40Z</time></trkpt><trkpt lat="43.035014728316135" lon="12.133501265027169"><ele>428.0</ele><time>2026-03-29T09:20:41Z</time></trkpt><trkpt lat="43.035066588839115" lon="12.133624004455731"><ele>425.33333333333337</ele><time>2026-03-29T09:20:42Z</time></trkpt><trkpt lat="43.03511425551569" lon="12.133703847771887"><ele>422.6666666666667</ele><time>2026-03-29T09:20:43Z</time></trkpt><trkpt lat="43.035125697244" lon="12.133794701722357"><ele>420.0</ele><time>2026-03-29T09:20:44Z</time></trkpt><trkpt lat="43.03519080950681" lon="12.13390849248395"><ele>420.0</ele><time>2026-03-29T09:20:46Z</time></trkpt><trkpt lat="43.03525960932696" lon="12.133958633402234"><ele>420.0</ele><time>2026-03-29T09:20:48Z</time></trkpt><trkpt lat="43.03535296397972" lon="12.133862448651993"><ele>420.0</ele><time>2026-03-29T09:20:50Z</time></trkpt><trkpt lat="43.03545311206455" lon="12.133792849351156"><ele>420.0</ele><time>2026-03-29T09:20:52Z</time></trkpt><trkpt lat="43.03551760220293" lon="12.133793683603912"><ele>420.0</ele><time>2026-03-29T09:20:53Z</time></trkpt><trkpt lat="43.035617289042015" lon="12.133770744665133"><ele>420.0</ele><time>2026-03-29T09:20:55Z</time></trkpt><trkpt lat="43.03568261576986" lon="12.133761295880893"><ele>420.0</ele><time>2026-03-29T09:20:56Z</time></trkpt><trkpt lat="43.03572635793453" lon="12.133694523766136"><ele>420.0</ele><time>2026-03-29T09:20:57Z</time></trkpt><trkpt lat="43.03576675240914" lon="12.133615456285659"><ele>420.0</ele><time>2026-03-29T09:20:58Z</time></trkpt><trkpt lat="43.03582276413577" lon="12.133537113584442"><ele>420.0</ele><time>2026-03-29T09:20:59Z</time></trkpt><trkpt lat="43.03589487583831" lon="12.133462641817706"><ele>420.0</ele><time>2026-03-29T09:21:00Z</time></trkpt><trkpt lat="43.035989194177084" lon="12.133445641302634"><ele>417.6666666666667</ele><time>2026-03-29T09:21:02Z</time></trkpt><trkpt lat="43.03606191791021" lon="12.133455486541983"><ele>415.33333333333337</ele><time>2026-03-29T09:21:03Z</time></trkpt><trkpt lat="43.036119717746594" lon="12.133499037174218"><ele>413.0</ele><time>2026-03-29T09:21:04Z</time></trkpt><trkpt lat="43.03622165661812" lon="12.133588603131267"><ele>410.6666666666667</ele><time>2026-03-29T09:21:06Z</time></trkpt><trkpt lat="43.03631718970855" lon="12.133615533746646"><ele>408.33333333333337</ele><time>2026-03-29T09:21:08Z</time></trkpt><trkpt lat="43.03639462413341" lon="12.133597141111471"><ele>406.0</ele><time>2026-03-29T09:21:09Z</time></trkpt><trkpt lat="43.03649142221274" lon="12.133561166455864"><ele>406.0</ele><time>2026-03-29T09:21:10Z</time></trkpt><trkpt lat="43.036584170478314" lon="12.13350207537796"><ele>406.0</ele><time>2026-03-29T09:21:11Z</time></trkpt><trkpt lat="43.03666856743364" lon="12.133474765845905"><ele>406.0</ele><time>2026-03-29T09:21:12Z</time></trkpt><trkpt lat="43.036737255553724" lon="12.133461624525385"><ele>406.0</ele><time>2026-03-29T09:21:13Z</time></trkpt><trkpt lat="43.036802951940814" lon="12.133454384671538"><ele>406.0</ele><time>2026-03-29T09:21:14Z</time></trkpt><trkpt lat="43.03698771542087" lon="12.133483977989098"><ele>406.8</ele><time>2026-03-29T09:21:17Z</time></trkpt><trkpt lat="43.03710225080013" lon="12.133554566087351"><ele>407.6</ele><time>2026-03-29T09:21:19Z</time></trkpt><trkpt lat="43.037172591053846" lon="12.133569870855727"><ele>408.4</ele><time>2026-03-29T09:21:20Z</time></trkpt><trkpt lat="43.0372395082546" lon="12.133624417160515"><ele>409.2</ele><time>2026-03-29T09:21:21Z</time></trkpt><trkpt lat="43.03732603433306" lon="12.133668875701268"><ele>410.0</ele><time>2026-03-29T09:21:23Z</time></trkpt><trkpt lat="43.037412270408346" lon="12.13369844526982"><ele>410.49999999999994</ele><time>2026-03-29T09:21:24Z</time></trkpt><trkpt lat="43.03749165951187" lon="12.133742323980993"><ele>411.0</ele><time>2026-03-29T09:21:25Z</time></trkpt><trkpt lat="43.037568184574894" lon="12.133791771843601"><ele>411.5</ele><time>2026-03-29T09:21:26Z</time></trkpt><trkpt lat="43.03765860870492" lon="12.133863577472454"><ele>412.0</ele><time>2026-03-29T09:21:28Z</time></trkpt><trkpt lat="43.03773405605186" lon="12.13380880479906"><ele>412.49999999999994</ele><time>2026-03-29T09:21:41Z</time></trkpt><trkpt lat="43.037803265593006" lon="12.133862409635755"><ele>413.0</ele><time>2026-03-29T09:21:44Z</time></trkpt><trkpt lat="43.0377488738806" lon="12.133809452712352"><ele>412.99999999999994</ele><time>2026-03-29T09:22:00Z</time></trkpt><trkpt lat="43.037677159940685" lon="12.133877459050238"><ele>413.0</ele><time>2026-03-29T09:22:02Z</time></trkpt><trkpt lat="43.037600454142506" lon="12.13392352943969"><ele>413.0</ele><time>2026-03-29T09:22:04Z</time></trkpt><trkpt lat="43.03748810103839" lon="12.133970081069199"><ele>413.0</ele><time>2026-03-29T09:22:06Z</time></trkpt><trkpt lat="43.037425085317494" lon="12.134011649088006"><ele>412.99999999999994</ele><time>2026-03-29T09:22:07Z</time></trkpt><trkpt lat="43.03734979871277" lon="12.134053824608904"><ele>413.0</ele><time>2026-03-29T09:22:08Z</time></trkpt><trkpt lat="43.03727558904611" lon="12.134092055391324"><ele>416.4</ele><time>2026-03-29T09:22:09Z</time></trkpt><trkpt lat="43.03719132111983" lon="12.134137299431364"><ele>419.79999999999995</ele><time>2026-03-29T09:22:10Z</time></trkpt><trkpt lat="43.037108985361336" lon="12.134196294951643"><ele>423.2</ele><time>2026-03-29T09:22:11Z</time></trkpt><trkpt lat="43.03702915129515" lon="12.134264621396676"><ele>426.6</ele><time>2026-03-29T09:22:12Z</time></trkpt><trkpt lat="43.03696061171755" lon="12.134336379493373"><ele>430.0</ele><time>2026-03-29T09:22:13Z</time></trkpt><trkpt lat="43.03689255022908" lon="12.134415084793215"><ele>430.00000000000006</ele><time>2026-03-29T09:22:14Z</time></trkpt><trkpt lat="43.036828910671765" lon="12.134494173272701"><ele>430.0</ele><time>2026-03-29T09:22:15Z</time></trkpt><trkpt lat="43.036776702202204" lon="12.134579088680395"><ele>430.0</ele><time>2026-03-29T09:22:16Z</time></trkpt><trkpt lat="43.036733583872326" lon="12.13467208288637"><ele>430.0</ele><time>2026-03-29T09:22:17Z</time></trkpt><trkpt lat="43.036684805729045" lon="12.134765714775096"><ele>430.00000000000006</ele><time>2026-03-29T09:22:18Z</time></trkpt><trkpt lat="43.03663609433528" lon="12.134858102701477"><ele>430.0</ele><time>2026-03-29T09:22:19Z</time></trkpt><trkpt lat="43.036578362172094" lon="12.134932748803152"><ele>432.33333333333337</ele><time>2026-03-29T09:22:20Z</time></trkpt><trkpt lat="43.03650523998988" lon="12.135002125120772"><ele>434.6666666666667</ele><time>2026-03-29T09:22:21Z</time></trkpt><trkpt lat="43.036428046004744" lon="12.13508391200408"><ele>437.0</ele><time>2026-03-29T09:22:22Z</time></trkpt><trkpt lat="43.03636306505891" lon="12.135161965642693"><ele>439.33333333333337</ele><time>2026-03-29T09:22:23Z</time></trkpt><trkpt lat="43.03629991223998" lon="12.135235220957341"><ele>441.6666666666667</ele><time>2026-03-29T09:22:24Z</time></trkpt><trkpt lat="43.03624672651816" lon="12.135303445101158"><ele>444.0</ele><time>2026-03-29T09:22:25Z</time></trkpt><trkpt lat="43.03620529077816" lon="12.13537198784813"><ele>444.0</ele><time>2026-03-29T09:22:26Z</time></trkpt><trkpt lat="43.03626190504807" lon="12.135482150693683"><ele>444.0</ele><time>2026-03-29T09:22:29Z</time></trkpt><trkpt lat="43.036317369578335" lon="12.135580492814476"><ele>444.0</ele><time>2026-03-29T09:22:31Z</time></trkpt><trkpt lat="43.03630659233549" lon="12.135725716794596"><ele>444.0</ele><time>2026-03-29T09:22:35Z</time></trkpt><trkpt lat="43.036289236792435" lon="12.135816122401426"><ele>444.0</ele><time>2026-03-29T09:22:36Z</time></trkpt><trkpt lat="43.036255546052956" lon="12.13595566975671"><ele>447.6</ele><time>2026-03-29T09:22:37Z</time></trkpt><trkpt lat="43.03625381435356" lon="12.136064413955424"><ele>451.2</ele><time>2026-03-29T09:22:38Z</time></trkpt><trkpt lat="43.03626280161815" lon="12.136221513126824"><ele>454.80000000000007</ele><time>2026-03-29T09:22:40Z</time></trkpt><trkpt lat="43.03628685703289" lon="12.13637961994305"><ele>458.40000000000003</ele><time>2026-03-29T09:22:41Z</time></trkpt><trkpt lat="43.036310224228735" lon="12.136544303170922"><ele>462.0</ele><time>2026-03-29T09:22:42Z</time></trkpt><trkpt lat="43.03630910422661" lon="12.136642764064531"><ele>462.5</ele><time>2026-03-29T09:22:43Z</time></trkpt><trkpt lat="43.03633047219407" lon="12.136756859119917"><ele>463.0</ele><time>2026-03-29T09:22:44Z</time></trkpt><trkpt lat="43.03633516739201" lon="12.136861490759795"><ele>463.5</ele><time>2026-03-29T09:22:45Z</time></trkpt><trkpt lat="43.036322700214875" lon="12.136947575560765"><ele>464.0</ele><time>2026-03-29T09:22:46Z</time></trkpt><trkpt lat="43.036297822635284" lon="12.13702947058327"><ele>464.5</ele><time>2026-03-29T09:22:47Z</time></trkpt><trkpt lat="43.03624929800369" lon="12.137113909998634"><ele>465.0</ele><time>2026-03-29T09:22:48Z</time></trkpt><trkpt lat="43.03618723321217" lon="12.137199903667804"><ele>465.0</ele><time>2026-03-29T09:22:49Z</time></trkpt><trkpt lat="43.03615339407673" lon="12.137299653240017"><ele>465.0</ele><time>2026-03-29T09:22:50Z</time></trkpt><trkpt lat="43.03612928948626" lon="12.13739755037847"><ele>465.0</ele><time>2026-03-29T09:22:51Z</time></trkpt><trkpt lat="43.03612490422701" lon="12.1375201631109"><ele>465.0</ele><time>2026-03-29T09:22:52Z</time></trkpt><trkpt lat="43.036125081810276" lon="12.137700532872909"><ele>465.0</ele><time>2026-03-29T09:22:54Z</time></trkpt><trkpt lat="43.036160370914764" lon="12.137781235853407"><ele>465.0</ele><time>2026-03-29T09:22:55Z</time></trkpt><trkpt lat="43.03618062398724" lon="12.137878826689764"><ele>463.3333333333333</ele><time>2026-03-29T09:22:56Z</time></trkpt><trkpt lat="43.03620851778134" lon="12.137961524056388"><ele>461.66666666666663</ele><time>2026-03-29T09:22:57Z</time></trkpt><trkpt lat="43.03627467881681" lon="12.138109951673323"><ele>460.0</ele><time>2026-03-29T09:22:59Z</time></trkpt><trkpt lat="43.03625713978616" lon="12.138193953549324"><ele>458.3333333333333</ele><time>2026-03-29T09:23:00Z</time></trkpt><trkpt lat="43.036266700293794" lon="12.138282835278817"><ele>456.66666666666663</ele><time>2026-03-29T09:23:01Z</time></trkpt><trkpt lat="43.036187910527204" lon="12.13838114551155"><ele>455.0</ele><time>2026-03-29T09:23:03Z</time></trkpt><trkpt lat="43.03613094397221" lon="12.13841791409362"><ele>452.49999999999994</ele><time>2026-03-29T09:23:05Z</time></trkpt><trkpt lat="43.03605797203081" lon="12.13841655534726"><ele>450.0</ele><time>2026-03-29T09:23:08Z</time></trkpt><trkpt lat="43.03595972102001" lon="12.13844080169357"><ele>447.5</ele><time>2026-03-29T09:23:11Z</time></trkpt><trkpt lat="43.03591065266231" lon="12.138504159383698"><ele>445.0</ele><time>2026-03-29T09:23:14Z</time></trkpt><trkpt lat="43.035854821081664" lon="12.138559408445307"><ele>442.49999999999994</ele><time>2026-03-29T09:23:17Z</time></trkpt><trkpt lat="43.03585491224584" lon="12.138648478648069"><ele>440.0</ele><time>2026-03-29T09:23:19Z</time></trkpt><trkpt lat="43.0358965411312" lon="12.13875091572024"><ele>440.0</ele><time>2026-03-29T09:23:22Z</time></trkpt><trkpt lat="43.03593139067975" lon="12.138906460722062"><ele>440.0</ele><time>2026-03-29T09:23:23Z</time></trkpt><trkpt lat="43.03591713158943" lon="12.139095478736913"><ele>440.0</ele><time>2026-03-29T09:23:24Z</time></trkpt><trkpt lat="43.0359510703259" lon="12.13925999495849"><ele>440.0</ele><time>2026-03-29T09:23:25Z</time></trkpt><trkpt lat="43.0359503439218" lon="12.139430669060921"><ele>439.8333333333333</ele><time>2026-03-29T09:23:26Z</time></trkpt><trkpt lat="43.03595263050495" lon="12.139565648095592"><ele>439.66666666666663</ele><time>2026-03-29T09:23:27Z</time></trkpt><trkpt lat="43.03596084716548" lon="12.139667918972885"><ele>439.5</ele><time>2026-03-29T09:23:28Z</time></trkpt><trkpt lat="43.03595019900614" lon="12.139775760904858"><ele>439.33333333333337</ele><time>2026-03-29T09:23:29Z</time></trkpt><trkpt lat="43.03595253669719" lon="12.139886859400365"><ele>439.1666666666667</ele><time>2026-03-29T09:23:30Z</time></trkpt><trkpt lat="43.03598057381695" lon="12.139972042632339"><ele>439.0</ele><time>2026-03-29T09:23:31Z</time></trkpt><trkpt lat="43.03605901459952" lon="12.14007603561051"><ele>439.00000000000006</ele><time>2026-03-29T09:23:32Z</time></trkpt><trkpt lat="43.03613154226568" lon="12.140116197707076"><ele>439.0</ele><time>2026-03-29T09:23:33Z</time></trkpt><trkpt lat="43.03617436376862" lon="12.14025757294449"><ele>439.0</ele><time>2026-03-29T09:23:35Z</time></trkpt><trkpt lat="43.03619652429179" lon="12.14034596703192"><ele>439.0</ele><time>2026-03-29T09:23:36Z</time></trkpt><trkpt lat="43.03626443953257" lon="12.140483419930987"><ele>439.00000000000006</ele><time>2026-03-29T09:23:38Z</time></trkpt><trkpt lat="43.036298411955144" lon="12.140559191707164"><ele>439.0</ele><time>2026-03-29T09:23:39Z</time></trkpt><trkpt lat="43.03631729303405" lon="12.140647792722152"><ele>439.79999999999995</ele><time>2026-03-29T09:23:40Z</time></trkpt><trkpt lat="43.03632423267929" lon="12.14073675060283"><ele>440.59999999999997</ele><time>2026-03-29T09:23:41Z</time></trkpt><trkpt lat="43.036324598461945" lon="12.140891876735608"><ele>441.4</ele><time>2026-03-29T09:23:43Z</time></trkpt><trkpt lat="43.036383378293955" lon="12.141050519193042"><ele>442.2</ele><time>2026-03-29T09:23:45Z</time></trkpt><trkpt lat="43.036401466396335" lon="12.141160593098382"><ele>443.0</ele><time>2026-03-29T09:23:46Z</time></trkpt><trkpt lat="43.036456146263205" lon="12.141286737708187"><ele>443.0</ele><time>2026-03-29T09:23:48Z</time></trkpt><trkpt lat="43.03649128787343" lon="12.14146075839791"><ele>442.99999999999994</ele><time>2026-03-29T09:23:50Z</time></trkpt><trkpt lat="43.036488457162996" lon="12.141550464261828"><ele>442.99999999999994</ele><time>2026-03-29T09:23:51Z</time></trkpt><trkpt lat="43.03645744925843" lon="12.14169786245521"><ele>443.0</ele><time>2026-03-29T09:23:53Z</time></trkpt><trkpt lat="43.03642350328914" lon="12.141812754757098"><ele>443.0</ele><time>2026-03-29T09:23:55Z</time></trkpt><trkpt lat="43.03638542493814" lon="12.14191949376219"><ele>440.4</ele><time>2026-03-29T09:23:56Z</time></trkpt><trkpt lat="43.036361674773076" lon="12.142017895534739"><ele>437.79999999999995</ele><time>2026-03-29T09:23:57Z</time></trkpt><trkpt lat="43.03631017544634" lon="12.142160524894738"><ele>435.2</ele><time>2026-03-29T09:23:59Z</time></trkpt><trkpt lat="43.03631289655728" lon="12.142322142973466"><ele>432.6</ele><time>2026-03-29T09:24:01Z</time></trkpt><trkpt lat="43.036352131733295" lon="12.142419693630469"><ele>430.0</ele><time>2026-03-29T09:24:02Z</time></trkpt><trkpt lat="43.03639284272013" lon="12.142487955610552"><ele>426.83333333333337</ele><time>2026-03-29T09:24:03Z</time></trkpt><trkpt lat="43.036406693040426" lon="12.142573060203246"><ele>423.6666666666667</ele><time>2026-03-29T09:24:04Z</time></trkpt><trkpt lat="43.03633482816409" lon="12.14263924087381"><ele>420.5</ele><time>2026-03-29T09:24:09Z</time></trkpt><trkpt lat="43.036274881516434" lon="12.142682760443538"><ele>417.33333333333337</ele><time>2026-03-29T09:24:28Z</time></trkpt><trkpt lat="43.03621032115771" lon="12.142712174912242"><ele>414.1666666666667</ele><time>2026-03-29T09:24:32Z</time></trkpt><trkpt lat="43.03611406899785" lon="12.142773767540179"><ele>411.0</ele><time>2026-03-29T09:24:34Z</time></trkpt><trkpt lat="43.036041394839835" lon="12.142832958080902"><ele>411.0</ele><time>2026-03-29T09:24:36Z</time></trkpt><trkpt lat="43.0359861970065" lon="12.142884359640744"><ele>411.0</ele><time>2026-03-29T09:24:37Z</time></trkpt><trkpt lat="43.03592722607858" lon="12.142930016685929"><ele>411.0</ele><time>2026-03-29T09:24:38Z</time></trkpt><trkpt lat="43.0358544354431" lon="12.1429509309084"><ele>411.0</ele><time>2026-03-29T09:24:39Z</time></trkpt><trkpt lat="43.03579378519586" lon="12.142993676632484"><ele>411.0</ele><time>2026-03-29T09:24:40Z</time></trkpt><trkpt lat="43.03573186377248" lon="12.143062041748374"><ele>411.0</ele><time>2026-03-29T09:24:41Z</time></trkpt><trkpt lat="43.035669467929964" lon="12.143149619520731"><ele>411.0</ele><time>2026-03-29T09:24:42Z</time></trkpt><trkpt lat="43.03560051271384" lon="12.143201859331668"><ele>408.4</ele><time>2026-03-29T09:24:43Z</time></trkpt><trkpt lat="43.03552578754415" lon="12.143228699298707"><ele>405.8</ele><time>2026-03-29T09:24:44Z</time></trkpt><trkpt lat="43.0354172522111" lon="12.143264383091386"><ele>403.2</ele><time>2026-03-29T09:24:46Z</time></trkpt><trkpt lat="43.035279432864904" lon="12.143344512889215"><ele>400.59999999999997</ele><time>2026-03-29T09:24:48Z</time></trkpt><trkpt lat="43.0351913098697" lon="12.143386773157488"><ele>398.0</ele><time>2026-03-29T09:24:49Z</time></trkpt><trkpt lat="43.03511024506331" lon="12.143439683054043"><ele>398.0</ele><time>2026-03-29T09:24:50Z</time></trkpt><trkpt lat="43.03502246581721" lon="12.143477586087839"><ele>398.0</ele><time>2026-03-29T09:24:51Z</time></trkpt><trkpt lat="43.0349294231554" lon="12.143503919856073"><ele>398.0</ele><time>2026-03-29T09:24:52Z</time></trkpt><trkpt lat="43.034821247449194" lon="12.14354256607037"><ele>398.0</ele><time>2026-03-29T09:24:53Z</time></trkpt><trkpt lat="43.0347237899758" lon="12.143585515017667"><ele>398.0</ele><time>2026-03-29T09:24:54Z</time></trkpt><trkpt lat="43.034640595520585" lon="12.143589481512766"><ele>397.8333333333333</ele><time>2026-03-29T09:24:55Z</time></trkpt><trkpt lat="43.0345228885443" lon="12.143591697294157"><ele>397.66666666666663</ele><time>2026-03-29T09:24:57Z</time></trkpt><trkpt lat="43.034458878707255" lon="12.143579899963607"><ele>397.5</ele><time>2026-03-29T09:24:58Z</time></trkpt><trkpt lat="43.03440040544945" lon="12.143545279716182"><ele>397.33333333333337</ele><time>2026-03-29T09:24:59Z</time></trkpt><trkpt lat="43.034337505248885" lon="12.143521328505072"><ele>397.1666666666667</ele><time>2026-03-29T09:25:00Z</time></trkpt><trkpt lat="43.03423464782056" lon="12.143456487895975"><ele>397.0</ele><time>2026-03-29T09:25:02Z</time></trkpt><trkpt lat="43.034176820524095" lon="12.143418326070915"><ele>398.8</ele><time>2026-03-29T09:25:03Z</time></trkpt><trkpt lat="43.03411941288941" lon="12.143372035907879"><ele>400.6</ele><time>2026-03-29T09:25:04Z</time></trkpt><trkpt lat="43.034054346964375" lon="12.143299087743976"><ele>402.40000000000003</ele><time>2026-03-29T09:25:05Z</time></trkpt><trkpt lat="43.03396547273508" lon="12.143214658736776"><ele>404.20000000000005</ele><time>2026-03-29T09:25:06Z</time></trkpt><trkpt lat="43.03385733325923" lon="12.143131044111348"><ele>406.0</ele><time>2026-03-29T09:25:07Z</time></trkpt><trkpt lat="43.03375006628769" lon="12.143082514994985"><ele>406.0</ele><time>2026-03-29T09:25:08Z</time></trkpt><trkpt lat="43.03364955255946" lon="12.143029532341044"><ele>406.0</ele><time>2026-03-29T09:25:09Z</time></trkpt><trkpt lat="43.03356141318345" lon="12.142957915655225"><ele>406.0</ele><time>2026-03-29T09:25:10Z</time></trkpt><trkpt lat="43.03348603713311" lon="12.142881255785827"><ele>406.0</ele><time>2026-03-29T09:25:11Z</time></trkpt><trkpt lat="43.03342216715162" lon="12.142796196908026"><ele>406.0</ele><time>2026-03-29T09:25:12Z</time></trkpt><trkpt lat="43.03337067745066" lon="12.142708129434668"><ele>406.00000000000006</ele><time>2026-03-29T09:25:13Z</time></trkpt><trkpt lat="43.03331778344743" lon="12.142639937830333"><ele>406.0</ele><time>2026-03-29T09:25:14Z</time></trkpt><trkpt lat="43.03325783842881" lon="12.142586889838977"><ele>406.0</ele><time>2026-03-29T09:25:15Z</time></trkpt><trkpt lat="43.03317574882344" lon="12.142516853267502"><ele>406.0</ele><time>2026-03-29T09:25:16Z</time></trkpt><trkpt lat="43.033095401138304" lon="12.142462142888768"><ele>406.00000000000006</ele><time>2026-03-29T09:25:17Z</time></trkpt><trkpt lat="43.0330170888397" lon="12.142389450502346"><ele>406.0</ele><time>2026-03-29T09:25:18Z</time></trkpt><trkpt lat="43.032948113485105" lon="12.142313007333438"><ele>407.1666666666667</ele><time>2026-03-29T09:25:19Z</time></trkpt><trkpt lat="43.032879229725424" lon="12.14225266302436"><ele>408.33333333333337</ele><time>2026-03-29T09:25:20Z</time></trkpt><trkpt lat="43.03282194039006" lon="12.142203773720267"><ele>409.5</ele><time>2026-03-29T09:25:21Z</time></trkpt><trkpt lat="43.03276746162186" lon="12.142128701497024"><ele>410.66666666666663</ele><time>2026-03-29T09:25:22Z</time></trkpt><trkpt lat="43.03270798980327" lon="12.142046063206413"><ele>411.8333333333333</ele><time>2026-03-29T09:25:23Z</time></trkpt><trkpt lat="43.032649987659944" lon="12.141958750285097"><ele>413.0</ele><time>2026-03-29T09:25:25Z</time></trkpt><trkpt lat="43.03262979210311" lon="12.141871004792623"><ele>413.0</ele><time>2026-03-29T09:25:27Z</time></trkpt><trkpt lat="43.03259861483578" lon="12.141795877914266"><ele>413.0</ele><time>2026-03-29T09:25:32Z</time></trkpt><trkpt lat="43.03252731956873" lon="12.14169417432785"><ele>413.0</ele><time>2026-03-29T09:25:36Z</time></trkpt><trkpt lat="43.03244971428847" lon="12.141709738568453"><ele>413.0</ele><time>2026-03-29T09:25:38Z</time></trkpt><trkpt lat="43.03231027803973" lon="12.14173764974971"><ele>413.0</ele><time>2026-03-29T09:25:40Z</time></trkpt><trkpt lat="43.032178922218286" lon="12.14179077242133"><ele>414.79999999999995</ele><time>2026-03-29T09:25:42Z</time></trkpt><trkpt lat="43.03207839483256" lon="12.141886739050715"><ele>416.6</ele><time>2026-03-29T09:25:44Z</time></trkpt><trkpt lat="43.03199872830738" lon="12.141936586215353"><ele>418.4</ele><time>2026-03-29T09:25:45Z</time></trkpt><trkpt lat="43.03188556026292" lon="12.141965449116817"><ele>420.20000000000005</ele><time>2026-03-29T09:25:47Z</time></trkpt><trkpt lat="43.03183689704409" lon="12.142032857518874"><ele>422.0</ele><time>2026-03-29T09:25:48Z</time></trkpt><trkpt lat="43.031739312548815" lon="12.142134867546789"><ele>422.6</ele><time>2026-03-29T09:25:50Z</time></trkpt><trkpt lat="43.0316266725921" lon="12.142102327988347"><ele>423.20000000000005</ele><time>2026-03-29T09:25:52Z</time></trkpt><trkpt lat="43.03150619608404" lon="12.142079394773951"><ele>423.8</ele><time>2026-03-29T09:25:54Z</time></trkpt><trkpt lat="43.03142449314109" lon="12.14205002608739"><ele>424.4</ele><time>2026-03-29T09:25:55Z</time></trkpt><trkpt lat="43.03133495638525" lon="12.142023600327715"><ele>425.0</ele><time>2026-03-29T09:25:56Z</time></trkpt><trkpt lat="43.03125317019083" lon="12.142013751674941"><ele>425.0</ele><time>2026-03-29T09:25:57Z</time></trkpt><trkpt lat="43.03117299703232" lon="12.141989667271124"><ele>425.0</ele><time>2026-03-29T09:25:58Z</time></trkpt><trkpt lat="43.03106635723969" lon="12.14195889955541"><ele>425.0</ele><time>2026-03-29T09:26:00Z</time></trkpt><trkpt lat="43.030978156583316" lon="12.141929572583985"><ele>425.0</ele><time>2026-03-29T09:26:01Z</time></trkpt><trkpt lat="43.03090241947901" lon="12.141890666276172"><ele>425.0</ele><time>2026-03-29T09:26:02Z</time></trkpt><trkpt lat="43.030806945394026" lon="12.141904622387388"><ele>426.16666666666663</ele><time>2026-03-29T09:26:04Z</time></trkpt><trkpt lat="43.0307233822679" lon="12.141931675317228"><ele>427.3333333333333</ele><time>2026-03-29T09:26:05Z</time></trkpt><trkpt lat="43.030662963346394" lon="12.141968232299151"><ele>428.5</ele><time>2026-03-29T09:26:06Z</time></trkpt><trkpt lat="43.03057587510471" lon="12.141985899129978"><ele>429.66666666666663</ele><time>2026-03-29T09:26:07Z</time></trkpt><trkpt lat="43.03051549859024" lon="12.142041304880527"><ele>430.8333333333333</ele><time>2026-03-29T09:26:08Z</time></trkpt><trkpt lat="43.03044559943874" lon="12.142103908401687"><ele>432.0</ele><time>2026-03-29T09:26:09Z</time></trkpt><trkpt lat="43.03036498342831" lon="12.142146855228674"><ele>432.0</ele><time>2026-03-29T09:26:10Z</time></trkpt><trkpt lat="43.03030806918691" lon="12.142208350041408"><ele>432.0</ele><time>2026-03-29T09:26:12Z</time></trkpt><trkpt lat="43.030227657627584" lon="12.142238003705026"><ele>432.0</ele><time>2026-03-29T09:26:14Z</time></trkpt><trkpt lat="43.030148434168325" lon="12.142273236818848"><ele>432.0</ele><time>2026-03-29T09:26:17Z</time></trkpt><trkpt lat="43.0300715230151" lon="12.142235627074879"><ele>432.0</ele><time>2026-03-29T09:26:20Z</time></trkpt><trkpt lat="43.02998739592134" lon="12.142251431701101"><ele>432.0</ele><time>2026-03-29T09:26:22Z</time></trkpt><trkpt lat="43.02988657021582" lon="12.142270383227048"><ele>429.6</ele><time>2026-03-29T09:26:24Z</time></trkpt><trkpt lat="43.02978138045645" lon="12.14228861099906"><ele>427.20000000000005</ele><time>2026-03-29T09:26:26Z</time></trkpt><trkpt lat="43.029656541741986" lon="12.142266465481342"><ele>424.8</ele><time>2026-03-29T09:26:28Z</time></trkpt><trkpt lat="43.02959108594704" lon="12.142248580715918"><ele>422.4</ele><time>2026-03-29T09:26:29Z</time></trkpt><trkpt lat="43.02952052519983" lon="12.142247843909171"><ele>420.0</ele><time>2026-03-29T09:26:30Z</time></trkpt><trkpt lat="43.029420472766276" lon="12.142157158301607"><ele>420.0</ele><time>2026-03-29T09:26:32Z</time></trkpt><trkpt lat="43.02936052229956" lon="12.142098828977236"><ele>420.0</ele><time>2026-03-29T09:26:33Z</time></trkpt><trkpt lat="43.029313529723936" lon="12.14201766770973"><ele>420.0</ele><time>2026-03-29T09:26:34Z</time></trkpt><trkpt lat="43.0292590942264" lon="12.14193526954443"><ele>420.0</ele><time>2026-03-29T09:26:35Z</time></trkpt><trkpt lat="43.0291959214569" lon="12.141862860897001"><ele>420.0</ele><time>2026-03-29T09:26:36Z</time></trkpt><trkpt lat="43.02917098457588" lon="12.141770891528662"><ele>420.0</ele><time>2026-03-29T09:26:37Z</time></trkpt><trkpt lat="43.029119469048524" lon="12.141625810972123"><ele>422.0</ele><time>2026-03-29T09:26:39Z</time></trkpt><trkpt lat="43.02907754917488" lon="12.141548507069668"><ele>424.0</ele><time>2026-03-29T09:26:40Z</time></trkpt><trkpt lat="43.02901924128803" lon="12.141469914411044"><ele>426.0</ele><time>2026-03-29T09:26:41Z</time></trkpt><trkpt lat="43.02896912634437" lon="12.14141075767267"><ele>428.0</ele><time>2026-03-29T09:26:42Z</time></trkpt><trkpt lat="43.02889096854708" lon="12.141325763474725"><ele>430.0</ele><time>2026-03-29T09:26:44Z</time></trkpt><trkpt lat="43.02893073168987" lon="12.141184249032422"><ele>432.0</ele><time>2026-03-29T09:26:46Z</time></trkpt><trkpt lat="43.0289525397969" lon="12.141077715045858"><ele>432.0</ele><time>2026-03-29T09:26:47Z</time></trkpt><trkpt lat="43.02891404445115" lon="12.14099423404653"><ele>432.00000000000006</ele><time>2026-03-29T09:26:48Z</time></trkpt><trkpt lat="43.02878494407513" lon="12.140961276306241"><ele>432.00000000000006</ele><time>2026-03-29T09:26:50Z</time></trkpt><trkpt lat="43.02869476737956" lon="12.140964895626674"><ele>432.0</ele><time>2026-03-29T09:26:52Z</time></trkpt><trkpt lat="43.028588873323706" lon="12.1409379715471"><ele>432.0</ele><time>2026-03-29T09:26:54Z</time></trkpt><trkpt lat="43.02852586703973" lon="12.140947204451125"><ele>432.0</ele><time>2026-03-29T09:26:55Z</time></trkpt><trkpt lat="43.02846070195628" lon="12.140961291222162"><ele>432.0</ele><time>2026-03-29T09:26:56Z</time></trkpt><trkpt lat="43.028370389865906" lon="12.141000627705044"><ele>432.0</ele><time>2026-03-29T09:26:58Z</time></trkpt><trkpt lat="43.02826757829928" lon="12.141050947751225"><ele>432.0</ele><time>2026-03-29T09:27:00Z</time></trkpt><trkpt lat="43.02820296796723" lon="12.14106370937907"><ele>432.0</ele><time>2026-03-29T09:27:01Z</time></trkpt><trkpt lat="43.02816302876018" lon="12.140982805819053"><ele>432.0</ele><time>2026-03-29T09:27:03Z</time></trkpt><trkpt lat="43.02812745381737" lon="12.14085030921082"><ele>431.8</ele><time>2026-03-29T09:27:05Z</time></trkpt><trkpt lat="43.028083830827065" lon="12.14069867019749"><ele>431.6</ele><time>2026-03-29T09:27:07Z</time></trkpt><trkpt lat="43.028036259331046" lon="12.14059240216936"><ele>431.40000000000003</ele><time>2026-03-29T09:27:09Z</time></trkpt><trkpt lat="43.0279613927362" lon="12.140521788395477"><ele>431.20000000000005</ele><time>2026-03-29T09:31:05Z</time></trkpt><trkpt lat="43.02785969560095" lon="12.140476104629057"><ele>431.0</ele><time>2026-03-29T09:31:07Z</time></trkpt><trkpt lat="43.02772946284306" lon="12.14046162294114"><ele>431.0</ele><time>2026-03-29T09:31:09Z</time></trkpt><trkpt lat="43.027648538222515" lon="12.14042045905186"><ele>431.0</ele><time>2026-03-29T09:31:10Z</time></trkpt><trkpt lat="43.02756120816714" lon="12.140400501989033"><ele>431.0</ele><time>2026-03-29T09:31:11Z</time></trkpt><trkpt lat="43.02746774395201" lon="12.14039939571616"><ele>431.0</ele><time>2026-03-29T09:31:12Z</time></trkpt><trkpt lat="43.02737277563388" lon="12.140357440528208"><ele>431.0</ele><time>2026-03-29T09:31:13Z</time></trkpt><trkpt lat="43.027292258481545" lon="12.14033673446804"><ele>431.20000000000005</ele><time>2026-03-29T09:31:14Z</time></trkpt><trkpt lat="43.02718948037927" lon="12.14033112396656"><ele>431.40000000000003</ele><time>2026-03-29T09:31:15Z</time></trkpt><trkpt lat="43.027050492559084" lon="12.140301393747796"><ele>431.6</ele><time>2026-03-29T09:31:16Z</time></trkpt><trkpt lat="43.026942677936496" lon="12.140278902078748"><ele>431.8</ele><time>2026-03-29T09:31:17Z</time></trkpt><trkpt lat="43.026852880645954" lon="12.140293292247213"><ele>432.0</ele><time>2026-03-29T09:31:18Z</time></trkpt><trkpt lat="43.02677352692155" lon="12.140323868238058"><ele>432.0</ele><time>2026-03-29T09:31:19Z</time></trkpt><trkpt lat="43.026687262491976" lon="12.140346162897451"><ele>432.0</ele><time>2026-03-29T09:31:20Z</time></trkpt><trkpt lat="43.02660345464593" lon="12.140371155719023"><ele>432.0</ele><time>2026-03-29T09:31:21Z</time></trkpt><trkpt lat="43.0265058988734" lon="12.140405080889067"><ele>432.0</ele><time>2026-03-29T09:31:22Z</time></trkpt><trkpt lat="43.02641741796388" lon="12.140394746643683"><ele>432.0</ele><time>2026-03-29T09:31:23Z</time></trkpt><trkpt lat="43.026335516565" lon="12.140399785358102"><ele>432.0</ele><time>2026-03-29T09:31:24Z</time></trkpt><trkpt lat="43.02625035534048" lon="12.140400767004"><ele>431.6</ele><time>2026-03-29T09:31:25Z</time></trkpt><trkpt lat="43.026147791872866" lon="12.140407973486397"><ele>431.20000000000005</ele><time>2026-03-29T09:31:26Z</time></trkpt><trkpt lat="43.02605628198962" lon="12.140374587428065"><ele>430.8</ele><time>2026-03-29T09:31:27Z</time></trkpt><trkpt lat="43.025961048770995" lon="12.140360592838336"><ele>430.4</ele><time>2026-03-29T09:31:28Z</time></trkpt><trkpt lat="43.025862351584266" lon="12.140347948359485"><ele>430.0</ele><time>2026-03-29T09:31:29Z</time></trkpt><trkpt lat="43.025770683558505" lon="12.140325870867287"><ele>429.0</ele><time>2026-03-29T09:31:30Z</time></trkpt><trkpt lat="43.02568618722668" lon="12.14031786250595"><ele>428.0</ele><time>2026-03-29T09:31:31Z</time></trkpt><trkpt lat="43.02559532173071" lon="12.140316381801403"><ele>427.0</ele><time>2026-03-29T09:31:32Z</time></trkpt><trkpt lat="43.02549616245917" lon="12.140343917128428"><ele>426.0</ele><time>2026-03-29T09:31:33Z</time></trkpt><trkpt lat="43.02541090794235" lon="12.140378906572497"><ele>425.0</ele><time>2026-03-29T09:31:34Z</time></trkpt><trkpt lat="43.02533322715417" lon="12.140445478341599"><ele>425.0</ele><time>2026-03-29T09:31:35Z</time></trkpt><trkpt lat="43.025266115176436" lon="12.14052761151539"><ele>425.0</ele><time>2026-03-29T09:31:36Z</time></trkpt><trkpt lat="43.02517592765314" lon="12.140593508745432"><ele>425.0</ele><time>2026-03-29T09:31:37Z</time></trkpt><trkpt lat="43.02509207389305" lon="12.140644835331244"><ele>425.0</ele><time>2026-03-29T09:31:38Z</time></trkpt><trkpt lat="43.02500687232874" lon="12.140694210458145"><ele>425.0</ele><time>2026-03-29T09:31:39Z</time></trkpt><trkpt lat="43.024918940748115" lon="12.140743743064434"><ele>426.0</ele><time>2026-03-29T09:31:40Z</time></trkpt><trkpt lat="43.02482514762841" lon="12.140791872963268"><ele>427.0</ele><time>2026-03-29T09:31:41Z</time></trkpt><trkpt lat="43.02473627885786" lon="12.140819396795493"><ele>428.0</ele><time>2026-03-29T09:31:42Z</time></trkpt><trkpt lat="43.024658357176705" lon="12.140858511082046"><ele>429.0</ele><time>2026-03-29T09:31:43Z</time></trkpt><trkpt lat="43.024590958041834" lon="12.140904980750147"><ele>430.0</ele><time>2026-03-29T09:31:44Z</time></trkpt><trkpt lat="43.02446528356051" lon="12.141003010616743"><ele>430.00000000000006</ele><time>2026-03-29T09:31:46Z</time></trkpt><trkpt lat="43.024394085483145" lon="12.141063352983846"><ele>430.0</ele><time>2026-03-29T09:31:47Z</time></trkpt><trkpt lat="43.02432402746848" lon="12.141120465157034"><ele>430.0</ele><time>2026-03-29T09:31:48Z</time></trkpt><trkpt lat="43.02425241653352" lon="12.141161466233672"><ele>430.0</ele><time>2026-03-29T09:31:49Z</time></trkpt><trkpt lat="43.02415611863804" lon="12.141222864783828"><ele>430.00000000000006</ele><time>2026-03-29T09:31:50Z</time></trkpt><trkpt lat="43.024083887120106" lon="12.141238746456668"><ele>430.0</ele><time>2026-03-29T09:31:51Z</time></trkpt><trkpt lat="43.023954732030894" lon="12.141252556934448"><ele>430.6666666666667</ele><time>2026-03-29T09:31:53Z</time></trkpt><trkpt lat="43.02387883362998" lon="12.141248145384438"><ele>431.33333333333337</ele><time>2026-03-29T09:31:54Z</time></trkpt><trkpt lat="43.02380072607637" lon="12.141251674062653"><ele>432.0</ele><time>2026-03-29T09:31:55Z</time></trkpt><trkpt lat="43.02371492602392" lon="12.141255329620956"><ele>432.66666666666663</ele><time>2026-03-29T09:31:56Z</time></trkpt><trkpt lat="43.02364101839553" lon="12.141263109716204"><ele>433.3333333333333</ele><time>2026-03-29T09:31:57Z</time></trkpt><trkpt lat="43.02357032290129" lon="12.141270226067977"><ele>434.0</ele><time>2026-03-29T09:31:58Z</time></trkpt><trkpt lat="43.023472080086414" lon="12.141270710404651"><ele>433.99999999999994</ele><time>2026-03-29T09:31:59Z</time></trkpt><trkpt lat="43.023382240871996" lon="12.141260638641477"><ele>434.0</ele><time>2026-03-29T09:32:00Z</time></trkpt><trkpt lat="43.023284634900705" lon="12.141239224199857"><ele>434.0</ele><time>2026-03-29T09:32:01Z</time></trkpt><trkpt lat="43.02319209832544" lon="12.141225666817254"><ele>434.0</ele><time>2026-03-29T09:32:02Z</time></trkpt><trkpt lat="43.023108818883074" lon="12.141232526902055"><ele>433.99999999999994</ele><time>2026-03-29T09:32:03Z</time></trkpt><trkpt lat="43.02302822798425" lon="12.141242954616928"><ele>434.0</ele><time>2026-03-29T09:32:04Z</time></trkpt><trkpt lat="43.022940609541656" lon="12.141241613814138"><ele>435.6</ele><time>2026-03-29T09:32:05Z</time></trkpt><trkpt lat="43.02285541033873" lon="12.141219549278462"><ele>437.2</ele><time>2026-03-29T09:32:06Z</time></trkpt><trkpt lat="43.02276314133214" lon="12.141200189562102"><ele>438.80000000000007</ele><time>2026-03-29T09:32:07Z</time></trkpt><trkpt lat="43.02266280905981" lon="12.14119313362725"><ele>440.40000000000003</ele><time>2026-03-29T09:32:08Z</time></trkpt><trkpt lat="43.022561755218305" lon="12.141180782057482"><ele>442.0</ele><time>2026-03-29T09:32:09Z</time></trkpt><trkpt lat="43.02246325701858" lon="12.141188558843593"><ele>443.20000000000005</ele><time>2026-03-29T09:32:10Z</time></trkpt><trkpt lat="43.02236455491697" lon="12.141198602092551"><ele>444.40000000000003</ele><time>2026-03-29T09:32:11Z</time></trkpt><trkpt lat="43.02227137449567" lon="12.141212683201461"><ele>445.59999999999997</ele><time>2026-03-29T09:32:12Z</time></trkpt><trkpt lat="43.02216042458172" lon="12.141205249972957"><ele>446.79999999999995</ele><time>2026-03-29T09:32:13Z</time></trkpt><trkpt lat="43.02205571882892" lon="12.141205092183709"><ele>448.0</ele><time>2026-03-29T09:32:14Z</time></trkpt><trkpt lat="43.02195361062523" lon="12.141201497126467"><ele>448.0</ele><time>2026-03-29T09:32:15Z</time></trkpt><trkpt lat="43.02184198742904" lon="12.14119562862426"><ele>448.0</ele><time>2026-03-29T09:32:16Z</time></trkpt><trkpt lat="43.0217092489882" lon="12.141197540495924"><ele>448.0</ele><time>2026-03-29T09:32:17Z</time></trkpt><trkpt lat="43.021592981902224" lon="12.141189205844237"><ele>448.0</ele><time>2026-03-29T09:32:18Z</time></trkpt><trkpt lat="43.02148219511001" lon="12.14118444683846"><ele>448.83333333333337</ele><time>2026-03-29T09:32:19Z</time></trkpt><trkpt lat="43.02137050888348" lon="12.141181566897654"><ele>449.6666666666667</ele><time>2026-03-29T09:32:20Z</time></trkpt><trkpt lat="43.02126680220418" lon="12.141186257566316"><ele>450.5</ele><time>2026-03-29T09:32:21Z</time></trkpt><trkpt lat="43.021174444808615" lon="12.141190429761606"><ele>451.33333333333337</ele><time>2026-03-29T09:32:22Z</time></trkpt><trkpt lat="43.02109875922087" lon="12.141178149026251"><ele>452.1666666666667</ele><time>2026-03-29T09:32:23Z</time></trkpt><trkpt lat="43.021034050684044" lon="12.141178871581516"><ele>453.0</ele><time>2026-03-29T09:32:24Z</time></trkpt><trkpt lat="43.02094319092329" lon="12.141188736001377"><ele>453.0</ele><time>2026-03-29T09:32:26Z</time></trkpt><trkpt lat="43.02083560926819" lon="12.141158911372946"><ele>453.0</ele><time>2026-03-29T09:32:28Z</time></trkpt><trkpt lat="43.02077219755076" lon="12.141151223589034"><ele>453.0</ele><time>2026-03-29T09:32:29Z</time></trkpt><trkpt lat="43.020711965911936" lon="12.141075525914225"><ele>453.0</ele><time>2026-03-29T09:32:30Z</time></trkpt><trkpt lat="43.02064046633072" lon="12.141036618066622"><ele>453.0</ele><time>2026-03-29T09:32:31Z</time></trkpt><trkpt lat="43.020567010745204" lon="12.140979031561185"><ele>453.0</ele><time>2026-03-29T09:32:32Z</time></trkpt><trkpt lat="43.02049145893491" lon="12.14091794941063"><ele>452.79999999999995</ele><time>2026-03-29T09:32:33Z</time></trkpt><trkpt lat="43.0204184567757" lon="12.140853706060119"><ele>452.59999999999997</ele><time>2026-03-29T09:32:34Z</time></trkpt><trkpt lat="43.020336003158235" lon="12.140786502204051"><ele>452.40000000000003</ele><time>2026-03-29T09:32:35Z</time></trkpt><trkpt lat="43.020247151814836" lon="12.14070425545429"><ele>452.20000000000005</ele><time>2026-03-29T09:32:36Z</time></trkpt><trkpt lat="43.020144494772715" lon="12.140625909940992"><ele>452.0</ele><time>2026-03-29T09:32:37Z</time></trkpt><trkpt lat="43.0200511661257" lon="12.140540827523662"><ele>449.40000000000003</ele><time>2026-03-29T09:32:38Z</time></trkpt><trkpt lat="43.01994336797607" lon="12.140478699142653"><ele>446.80000000000007</ele><time>2026-03-29T09:32:39Z</time></trkpt><trkpt lat="43.01982508508211" lon="12.140423224316413"><ele>444.2</ele><time>2026-03-29T09:32:40Z</time></trkpt><trkpt lat="43.01972718091139" lon="12.140363700260387"><ele>441.6</ele><time>2026-03-29T09:32:41Z</time></trkpt><trkpt lat="43.019637664851125" lon="12.140315068417951"><ele>439.0</ele><time>2026-03-29T09:32:42Z</time></trkpt><trkpt lat="43.019546705693195" lon="12.140268422452953"><ele>439.0</ele><time>2026-03-29T09:32:43Z</time></trkpt><trkpt lat="43.019450997497906" lon="12.14025387890564"><ele>439.0</ele><time>2026-03-29T09:32:44Z</time></trkpt><trkpt lat="43.01934812424125" lon="12.140278817855368"><ele>439.0</ele><time>2026-03-29T09:32:45Z</time></trkpt><trkpt lat="43.019244113736775" lon="12.140319665410008"><ele>439.0</ele><time>2026-03-29T09:32:46Z</time></trkpt><trkpt lat="43.01915041165644" lon="12.140348408031404"><ele>439.0</ele><time>2026-03-29T09:32:47Z</time></trkpt><trkpt lat="43.01902552348881" lon="12.140385108774549"><ele>438.2</ele><time>2026-03-29T09:32:48Z</time></trkpt><trkpt lat="43.01891361533061" lon="12.140415377989555"><ele>437.4</ele><time>2026-03-29T09:32:49Z</time></trkpt><trkpt lat="43.01881149495231" lon="12.140440062225817"><ele>436.6</ele><time>2026-03-29T09:32:50Z</time></trkpt><trkpt lat="43.01872863252964" lon="12.140476200496739"><ele>435.8</ele><time>2026-03-29T09:32:51Z</time></trkpt><trkpt lat="43.01864966042833" lon="12.140514247262018"><ele>435.0</ele><time>2026-03-29T09:32:52Z</time></trkpt><trkpt lat="43.01857496139242" lon="12.140574336596744"><ele>435.0</ele><time>2026-03-29T09:32:53Z</time></trkpt><trkpt lat="43.01851188624212" lon="12.140657302030503"><ele>435.0</ele><time>2026-03-29T09:32:54Z</time></trkpt><trkpt lat="43.018447899798396" lon="12.140718385321792"><ele>435.0</ele><time>2026-03-29T09:32:55Z</time></trkpt><trkpt lat="43.01834824428827" lon="12.140761981060974"><ele>435.0</ele><time>2026-03-29T09:32:56Z</time></trkpt><trkpt lat="43.018244645952265" lon="12.140742320557463"><ele>435.0</ele><time>2026-03-29T09:32:57Z</time></trkpt><trkpt lat="43.01814161380879" lon="12.140719958414847"><ele>432.0</ele><time>2026-03-29T09:32:58Z</time></trkpt><trkpt lat="43.018046116539644" lon="12.140685037344275"><ele>429.0</ele><time>2026-03-29T09:32:59Z</time></trkpt><trkpt lat="43.01795449666836" lon="12.140632343306851"><ele>426.0</ele><time>2026-03-29T09:33:00Z</time></trkpt><trkpt lat="43.01785503381896" lon="12.14058480174038"><ele>423.0</ele><time>2026-03-29T09:33:01Z</time></trkpt><trkpt lat="43.017764141955354" lon="12.140536618882663"><ele>420.0</ele><time>2026-03-29T09:33:02Z</time></trkpt><trkpt lat="43.017667285612774" lon="12.140528276801788"><ele>420.0</ele><time>2026-03-29T09:33:03Z</time></trkpt><trkpt lat="43.01757743694964" lon="12.140564752918236"><ele>420.0</ele><time>2026-03-29T09:33:04Z</time></trkpt><trkpt lat="43.01749901628024" lon="12.14061951709595"><ele>420.0</ele><time>2026-03-29T09:33:05Z</time></trkpt><trkpt lat="43.01742362384663" lon="12.140692361658894"><ele>420.0</ele><time>2026-03-29T09:33:06Z</time></trkpt><trkpt lat="43.017356415519515" lon="12.140779044039094"><ele>420.0</ele><time>2026-03-29T09:33:07Z</time></trkpt><trkpt lat="43.01728469049704" lon="12.140844555517257"><ele>416.4</ele><time>2026-03-29T09:33:08Z</time></trkpt><trkpt lat="43.017190366735825" lon="12.140910081317708"><ele>412.8</ele><time>2026-03-29T09:33:09Z</time></trkpt><trkpt lat="43.01709539988307" lon="12.140936886458796"><ele>409.20000000000005</ele><time>2026-03-29T09:33:10Z</time></trkpt><trkpt lat="43.01699119515799" lon="12.140959273704794"><ele>405.6</ele><time>2026-03-29T09:33:11Z</time></trkpt><trkpt lat="43.01689234288518" lon="12.140967756460409"><ele>402.0</ele><time>2026-03-29T09:33:12Z</time></trkpt><trkpt lat="43.01679849990201" lon="12.140984334898269"><ele>402.0</ele><time>2026-03-29T09:33:13Z</time></trkpt><trkpt lat="43.01671384586782" lon="12.141011021197823"><ele>402.0</ele><time>2026-03-29T09:33:14Z</time></trkpt><trkpt lat="43.016642111957644" lon="12.141053596865081"><ele>402.0</ele><time>2026-03-29T09:33:15Z</time></trkpt><trkpt lat="43.016581031212866" lon="12.14111524722108"><ele>402.0</ele><time>2026-03-29T09:33:16Z</time></trkpt><trkpt lat="43.01653490841578" lon="12.14117395828187"><ele>402.0</ele><time>2026-03-29T09:33:17Z</time></trkpt><trkpt lat="43.01647208736991" lon="12.141234007221795"><ele>402.0</ele><time>2026-03-29T09:33:19Z</time></trkpt><trkpt lat="43.01655939480644" lon="12.141503989768115"><ele>399.20000000000005</ele><time>2026-03-29T09:33:22Z</time></trkpt><trkpt lat="43.0165279909225" lon="12.141622023706885"><ele>396.4</ele><time>2026-03-29T09:33:24Z</time></trkpt><trkpt lat="43.01645148906871" lon="12.141734313380711"><ele>393.6</ele><time>2026-03-29T09:33:26Z</time></trkpt><trkpt lat="43.016391958353296" lon="12.141857127649661"><ele>390.79999999999995</ele><time>2026-03-29T09:33:28Z</time></trkpt><trkpt lat="43.01634955622209" lon="12.14192200284703"><ele>388.0</ele><time>2026-03-29T09:33:29Z</time></trkpt><trkpt lat="43.01628238417402" lon="12.142034243314605"><ele>388.00000000000006</ele><time>2026-03-29T09:33:31Z</time></trkpt><trkpt lat="43.01623600974462" lon="12.142109881782437"><ele>388.0</ele><time>2026-03-29T09:33:32Z</time></trkpt><trkpt lat="43.016178065124464" lon="12.142191393885168"><ele>388.0</ele><time>2026-03-29T09:33:33Z</time></trkpt><trkpt lat="43.016150225612066" lon="12.142285023100827"><ele>388.0</ele><time>2026-03-29T09:33:34Z</time></trkpt><trkpt lat="43.01610130520639" lon="12.1423693240768"><ele>388.00000000000006</ele><time>2026-03-29T09:33:35Z</time></trkpt><trkpt lat="43.01604420303245" lon="12.142465824274973"><ele>388.0</ele><time>2026-03-29T09:33:36Z</time></trkpt><trkpt lat="43.01598255005145" lon="12.14257377852264"><ele>386.79999999999995</ele><time>2026-03-29T09:33:37Z</time></trkpt><trkpt lat="43.01592556117017" lon="12.142665234668394"><ele>385.6</ele><time>2026-03-29T09:33:38Z</time></trkpt><trkpt lat="43.015861371085215" lon="12.142753296156544"><ele>384.4</ele><time>2026-03-29T09:33:39Z</time></trkpt><trkpt lat="43.01578922955487" lon="12.142849400745652"><ele>383.20000000000005</ele><time>2026-03-29T09:33:40Z</time></trkpt><trkpt lat="43.01571330987854" lon="12.14294760125522"><ele>382.0</ele><time>2026-03-29T09:33:41Z</time></trkpt><trkpt lat="43.01570347255899" lon="12.14307014268815"><ele>381.0</ele><time>2026-03-29T09:33:42Z</time></trkpt><trkpt lat="43.01563568783926" lon="12.143191562912715"><ele>380.0</ele><time>2026-03-29T09:33:43Z</time></trkpt><trkpt lat="43.01557783096194" lon="12.143271712920233"><ele>379.0</ele><time>2026-03-29T09:33:44Z</time></trkpt><trkpt lat="43.01552386026163" lon="12.143344285857578"><ele>378.0</ele><time>2026-03-29T09:33:45Z</time></trkpt><trkpt lat="43.01547166675604" lon="12.143414469210391"><ele>377.0</ele><time>2026-03-29T09:33:46Z</time></trkpt><trkpt lat="43.015410838448155" lon="12.143488511824184"><ele>376.0</ele><time>2026-03-29T09:33:47Z</time></trkpt><trkpt lat="43.015365434023195" lon="12.143557317819054"><ele>376.0</ele><time>2026-03-29T09:33:48Z</time></trkpt><trkpt lat="43.015361273202046" lon="12.143685207789575"><ele>376.0</ele><time>2026-03-29T09:33:49Z</time></trkpt><trkpt lat="43.01534440132916" lon="12.143773159145692"><ele>376.0</ele><time>2026-03-29T09:33:50Z</time></trkpt><trkpt lat="43.01532824542311" lon="12.143936945849099"><ele>376.0</ele><time>2026-03-29T09:33:52Z</time></trkpt><trkpt lat="43.015316199312785" lon="12.144028794484163"><ele>376.0</ele><time>2026-03-29T09:33:53Z</time></trkpt><trkpt lat="43.01531385484953" lon="12.144122075248823"><ele>376.0</ele><time>2026-03-29T09:33:54Z</time></trkpt><trkpt lat="43.0152721349316" lon="12.144314447950693"><ele>376.4</ele><time>2026-03-29T09:33:56Z</time></trkpt><trkpt lat="43.0152458136022" lon="12.14439566149618"><ele>376.8</ele><time>2026-03-29T09:33:57Z</time></trkpt><trkpt lat="43.01520401299433" lon="12.144486740552185"><ele>377.2</ele><time>2026-03-29T09:33:58Z</time></trkpt><trkpt lat="43.01516623811312" lon="12.144566511264067"><ele>377.59999999999997</ele><time>2026-03-29T09:33:59Z</time></trkpt><trkpt lat="43.01510473345191" lon="12.144680338234618"><ele>378.0</ele><time>2026-03-29T09:34:01Z</time></trkpt><trkpt lat="43.0150392542625" lon="12.144840238430787"><ele>375.25</ele><time>2026-03-29T09:34:03Z</time></trkpt><trkpt lat="43.014971399730456" lon="12.144957227965092"><ele>372.5</ele><time>2026-03-29T09:34:05Z</time></trkpt><trkpt lat="43.014871555074514" lon="12.145044477176887"><ele>369.75</ele><time>2026-03-29T09:34:07Z</time></trkpt><trkpt lat="43.014786178314225" lon="12.14514730942806"><ele>367.0</ele><time>2026-03-29T09:34:09Z</time></trkpt><trkpt lat="43.01468034131052" lon="12.145258722208629"><ele>367.0</ele><time>2026-03-29T09:34:11Z</time></trkpt><trkpt lat="43.014624696725484" lon="12.145316670353024"><ele>367.0</ele><time>2026-03-29T09:34:12Z</time></trkpt><trkpt lat="43.014573464523075" lon="12.145369569313647"><ele>367.0</ele><time>2026-03-29T09:34:13Z</time></trkpt><trkpt lat="43.01452103725404" lon="12.145422528674088"><ele>367.0</ele><time>2026-03-29T09:34:14Z</time></trkpt><trkpt lat="43.01442316771481" lon="12.145528310259554"><ele>367.0</ele><time>2026-03-29T09:34:16Z</time></trkpt><trkpt lat="43.0143751676113" lon="12.145603951707583"><ele>367.0</ele><time>2026-03-29T09:34:17Z</time></trkpt><trkpt lat="43.01431288614632" lon="12.14568400453682"><ele>364.16666666666663</ele><time>2026-03-29T09:34:18Z</time></trkpt><trkpt lat="43.01424207511042" lon="12.145750905785617"><ele>361.3333333333333</ele><time>2026-03-29T09:34:19Z</time></trkpt><trkpt lat="43.01418313263786" lon="12.145825056424187"><ele>358.5</ele><time>2026-03-29T09:34:20Z</time></trkpt><trkpt lat="43.014123955904346" lon="12.145884762834404"><ele>355.6666666666667</ele><time>2026-03-29T09:34:21Z</time></trkpt><trkpt lat="43.014068140905295" lon="12.14593902101684"><ele>352.83333333333337</ele><time>2026-03-29T09:34:22Z</time></trkpt><trkpt lat="43.01401177583283" lon="12.146008644590692"><ele>350.0</ele><time>2026-03-29T09:34:23Z</time></trkpt><trkpt lat="43.013952288711124" lon="12.146082393393046"><ele>349.6666666666667</ele><time>2026-03-29T09:34:24Z</time></trkpt><trkpt lat="43.01389111424513" lon="12.146147441378924"><ele>349.33333333333337</ele><time>2026-03-29T09:34:25Z</time></trkpt><trkpt lat="43.013833903683036" lon="12.146220261370049"><ele>349.0</ele><time>2026-03-29T09:34:26Z</time></trkpt><trkpt lat="43.013781636924705" lon="12.146283898884361"><ele>348.6666666666667</ele><time>2026-03-29T09:34:27Z</time></trkpt><trkpt lat="43.01372040134944" lon="12.146359089477041"><ele>348.3333333333333</ele><time>2026-03-29T09:34:28Z</time></trkpt><trkpt lat="43.01365986559402" lon="12.14642282980004"><ele>348.0</ele><time>2026-03-29T09:34:29Z</time></trkpt><trkpt lat="43.01360642081442" lon="12.14650078779054"><ele>345.3333333333333</ele><time>2026-03-29T09:34:30Z</time></trkpt><trkpt lat="43.013553970418215" lon="12.146554439412975"><ele>342.6666666666667</ele><time>2026-03-29T09:34:31Z</time></trkpt><trkpt lat="43.01348406346449" lon="12.146618724586475"><ele>340.0</ele><time>2026-03-29T09:34:32Z</time></trkpt><trkpt lat="43.01342664296125" lon="12.146687417123372"><ele>337.33333333333337</ele><time>2026-03-29T09:34:33Z</time></trkpt><trkpt lat="43.01336888646803" lon="12.14673505134213"><ele>334.6666666666667</ele><time>2026-03-29T09:34:34Z</time></trkpt><trkpt lat="43.01330431315724" lon="12.146794962708896"><ele>332.0</ele><time>2026-03-29T09:34:35Z</time></trkpt><trkpt lat="43.01323853645093" lon="12.146864571630152"><ele>332.0</ele><time>2026-03-29T09:34:36Z</time></trkpt><trkpt lat="43.01318921255035" lon="12.146934313430982"><ele>332.0</ele><time>2026-03-29T09:34:37Z</time></trkpt><trkpt lat="43.01314075073442" lon="12.147021187548017"><ele>332.0</ele><time>2026-03-29T09:34:38Z</time></trkpt><trkpt lat="43.01308105229809" lon="12.147079952193954"><ele>332.0</ele><time>2026-03-29T09:34:39Z</time></trkpt><trkpt lat="43.01301077053409" lon="12.147133789521119"><ele>332.0</ele><time>2026-03-29T09:34:40Z</time></trkpt><trkpt lat="43.0129594963125" lon="12.147189511698176"><ele>332.0</ele><time>2026-03-29T09:34:41Z</time></trkpt><trkpt lat="43.012896709451624" lon="12.147258651459591"><ele>332.0</ele><time>2026-03-29T09:34:42Z</time></trkpt><trkpt lat="43.012816589566704" lon="12.147336099148927"><ele>332.0</ele><time>2026-03-29T09:34:44Z</time></trkpt><trkpt lat="43.012774125147416" lon="12.147414915714"><ele>332.0</ele><time>2026-03-29T09:34:46Z</time></trkpt><trkpt lat="43.0128287515766" lon="12.147478340750965"><ele>332.0</ele><time>2026-03-29T09:34:55Z</time></trkpt><trkpt lat="43.012910392886475" lon="12.147472214676252"><ele>332.0</ele><time>2026-03-29T09:34:57Z</time></trkpt><trkpt lat="43.01301425616372" lon="12.147481415352551"><ele>332.0</ele><time>2026-03-29T09:34:59Z</time></trkpt><trkpt lat="43.01313767188181" lon="12.147506750762235"><ele>330.5</ele><time>2026-03-29T09:35:01Z</time></trkpt><trkpt lat="43.01325522197569" lon="12.147528803757146"><ele>329.0</ele><time>2026-03-29T09:35:03Z</time></trkpt><trkpt lat="43.01332905403021" lon="12.147535483476608"><ele>327.5</ele><time>2026-03-29T09:35:04Z</time></trkpt><trkpt lat="43.01341038107552" lon="12.147550104324587"><ele>326.0</ele><time>2026-03-29T09:35:05Z</time></trkpt><trkpt lat="43.013479999190125" lon="12.147571060179954"><ele>324.5</ele><time>2026-03-29T09:35:06Z</time></trkpt><trkpt lat="43.01354479457839" lon="12.147598016047244"><ele>323.0</ele><time>2026-03-29T09:35:07Z</time></trkpt><trkpt lat="43.01361052272242" lon="12.147608203060077"><ele>323.0</ele><time>2026-03-29T09:35:08Z</time></trkpt><trkpt lat="43.013688899957955" lon="12.147616411586776"><ele>323.0</ele><time>2026-03-29T09:35:09Z</time></trkpt><trkpt lat="43.01375932821891" lon="12.147610317977326"><ele>323.0</ele><time>2026-03-29T09:35:10Z</time></trkpt><trkpt lat="43.0138375949063" lon="12.14758660573354"><ele>323.0</ele><time>2026-03-29T09:35:11Z</time></trkpt><trkpt lat="43.013912815098244" lon="12.147545890816064"><ele>323.0</ele><time>2026-03-29T09:35:12Z</time></trkpt><trkpt lat="43.013994634842746" lon="12.147497832251638"><ele>323.0</ele><time>2026-03-29T09:35:13Z</time></trkpt><trkpt lat="43.01407985654703" lon="12.14743641097349"><ele>324.0</ele><time>2026-03-29T09:35:14Z</time></trkpt><trkpt lat="43.014165761683884" lon="12.147388044996486"><ele>325.0</ele><time>2026-03-29T09:35:15Z</time></trkpt><trkpt lat="43.014253425122824" lon="12.14732107159598"><ele>326.0</ele><time>2026-03-29T09:35:16Z</time></trkpt><trkpt lat="43.01435481915254" lon="12.14725049098327"><ele>327.0</ele><time>2026-03-29T09:35:17Z</time></trkpt><trkpt lat="43.01448546492637" lon="12.147151503012447"><ele>329.5</ele><time>2026-03-29T09:35:18Z</time></trkpt><trkpt lat="43.014613666513384" lon="12.147052144516111"><ele>332.0</ele><time>2026-03-29T09:35:19Z</time></trkpt><trkpt lat="43.01472842951047" lon="12.146971105058597"><ele>334.5</ele><time>2026-03-29T09:35:20Z</time></trkpt><trkpt lat="43.014832173986754" lon="12.146876568361938"><ele>337.0</ele><time>2026-03-29T09:35:21Z</time></trkpt><trkpt lat="43.01494218588717" lon="12.146792933208996"><ele>335.75</ele><time>2026-03-29T09:35:22Z</time></trkpt><trkpt lat="43.015041626394506" lon="12.146715150315782"><ele>334.5</ele><time>2026-03-29T09:35:23Z</time></trkpt><trkpt lat="43.01514205567506" lon="12.14663373713763"><ele>333.25</ele><time>2026-03-29T09:35:24Z</time></trkpt><trkpt lat="43.01523224220173" lon="12.146538740581072"><ele>332.0</ele><time>2026-03-29T09:35:25Z</time></trkpt><trkpt lat="43.015319694650444" lon="12.146452518704233"><ele>335.20000000000005</ele><time>2026-03-29T09:35:26Z</time></trkpt><trkpt lat="43.01538675054926" lon="12.146338103029398"><ele>338.4</ele><time>2026-03-29T09:35:27Z</time></trkpt><trkpt lat="43.01544729063058" lon="12.146227940980928"><ele>341.6</ele><time>2026-03-29T09:35:28Z</time></trkpt><trkpt lat="43.01551618639724" lon="12.146119745524631"><ele>344.79999999999995</ele><time>2026-03-29T09:35:29Z</time></trkpt><trkpt lat="43.01560189113596" lon="12.146014651671862"><ele>348.0</ele><time>2026-03-29T09:35:30Z</time></trkpt><trkpt lat="43.01569756031476" lon="12.145932314650784"><ele>348.0</ele><time>2026-03-29T09:35:31Z</time></trkpt><trkpt lat="43.015796523780025" lon="12.145843587712948"><ele>348.0</ele><time>2026-03-29T09:35:32Z</time></trkpt><trkpt lat="43.01589185464882" lon="12.145756266317182"><ele>348.0</ele><time>2026-03-29T09:35:33Z</time></trkpt><trkpt lat="43.015973671288044" lon="12.145661072392475"><ele>348.0</ele><time>2026-03-29T09:35:34Z</time></trkpt><trkpt lat="43.01605342143308" lon="12.14555165414578"><ele>347.59999999999997</ele><time>2026-03-29T09:35:35Z</time></trkpt><trkpt lat="43.01611503513428" lon="12.145429529061472"><ele>347.2</ele><time>2026-03-29T09:35:36Z</time></trkpt><trkpt lat="43.01618695578855" lon="12.145292946980732"><ele>346.8</ele><time>2026-03-29T09:35:37Z</time></trkpt><trkpt lat="43.016252204062646" lon="12.145197370573094"><ele>346.4</ele><time>2026-03-29T09:35:38Z</time></trkpt><trkpt lat="43.016318443712386" lon="12.14513087953646"><ele>346.0</ele><time>2026-03-29T09:35:39Z</time></trkpt><trkpt lat="43.01646880074863" lon="12.145162901569352"><ele>346.0</ele><time>2026-03-29T09:35:41Z</time></trkpt><trkpt lat="43.01651413831878" lon="12.145235297011201"><ele>346.0</ele><time>2026-03-29T09:35:42Z</time></trkpt><trkpt lat="43.01656748707876" lon="12.145303293185107"><ele>346.0</ele><time>2026-03-29T09:35:43Z</time></trkpt><trkpt lat="43.01663017978133" lon="12.145378768610447"><ele>346.0</ele><time>2026-03-29T09:35:44Z</time></trkpt><trkpt lat="43.016703394108426" lon="12.14545072444544"><ele>346.0</ele><time>2026-03-29T09:35:45Z</time></trkpt><trkpt lat="43.016754066369096" lon="12.145558047966276"><ele>346.0</ele><time>2026-03-29T09:35:46Z</time></trkpt><trkpt lat="43.01684867000852" lon="12.145597126245258"><ele>344.4</ele><time>2026-03-29T09:35:47Z</time></trkpt><trkpt lat="43.016919284451205" lon="12.145672936295988"><ele>342.8</ele><time>2026-03-29T09:35:48Z</time></trkpt><trkpt lat="43.01687274056729" lon="12.145844338985508"><ele>341.2</ele><time>2026-03-29T09:35:49Z</time></trkpt><trkpt lat="43.01685960958564" lon="12.145975585883786"><ele>339.59999999999997</ele><time>2026-03-29T09:35:50Z</time></trkpt><trkpt lat="43.01686270366817" lon="12.146134090962148"><ele>338.0</ele><time>2026-03-29T09:35:51Z</time></trkpt><trkpt lat="43.016886003303014" lon="12.14630403613225"><ele>337.2</ele><time>2026-03-29T09:35:52Z</time></trkpt><trkpt lat="43.0168838230662" lon="12.146459987453131"><ele>336.4</ele><time>2026-03-29T09:35:53Z</time></trkpt><trkpt lat="43.016908048507084" lon="12.146605262350455"><ele>335.59999999999997</ele><time>2026-03-29T09:35:54Z</time></trkpt><trkpt lat="43.01693148842789" lon="12.146738954943771"><ele>334.79999999999995</ele><time>2026-03-29T09:35:55Z</time></trkpt><trkpt lat="43.01695473335303" lon="12.146865205970288"><ele>334.0</ele><time>2026-03-29T09:35:56Z</time></trkpt><trkpt lat="43.01697760003869" lon="12.14698959205105"><ele>333.0</ele><time>2026-03-29T09:35:57Z</time></trkpt><trkpt lat="43.016999207101534" lon="12.147112247758344"><ele>332.0</ele><time>2026-03-29T09:35:58Z</time></trkpt><trkpt lat="43.01702408574546" lon="12.147253474897502"><ele>331.0</ele><time>2026-03-29T09:35:59Z</time></trkpt><trkpt lat="43.01704778529424" lon="12.147375535302128"><ele>330.0</ele><time>2026-03-29T09:36:00Z</time></trkpt><trkpt lat="43.01707861311699" lon="12.147512050733676"><ele>329.0</ele><time>2026-03-29T09:36:01Z</time></trkpt><trkpt lat="43.01712314442712" lon="12.147640691261271"><ele>327.75</ele><time>2026-03-29T09:36:02Z</time></trkpt><trkpt lat="43.01717981929912" lon="12.147784191896786"><ele>326.5</ele><time>2026-03-29T09:36:03Z</time></trkpt><trkpt lat="43.017249522355236" lon="12.14792575218308"><ele>325.25</ele><time>2026-03-29T09:36:04Z</time></trkpt><trkpt lat="43.0173049165708" lon="12.148089014527473"><ele>324.0</ele><time>2026-03-29T09:36:05Z</time></trkpt><trkpt lat="43.017348667962224" lon="12.148201168733888"><ele>323.5</ele><time>2026-03-29T09:36:06Z</time></trkpt><trkpt lat="43.017380655456485" lon="12.148319373864304"><ele>323.0</ele><time>2026-03-29T09:36:07Z</time></trkpt><trkpt lat="43.01739897052572" lon="12.14841218283039"><ele>322.5</ele><time>2026-03-29T09:36:08Z</time></trkpt><trkpt lat="43.01741462077033" lon="12.148522342060913"><ele>322.0</ele><time>2026-03-29T09:36:09Z</time></trkpt><trkpt lat="43.017430897840704" lon="12.148630564051672"><ele>321.5</ele><time>2026-03-29T09:36:10Z</time></trkpt><trkpt lat="43.01744702842424" lon="12.1487439512727"><ele>321.0</ele><time>2026-03-29T09:36:11Z</time></trkpt><trkpt lat="43.01745919731252" lon="12.148849305821608"><ele>321.0</ele><time>2026-03-29T09:36:12Z</time></trkpt><trkpt lat="43.017462685356655" lon="12.148943281564382"><ele>321.0</ele><time>2026-03-29T09:36:13Z</time></trkpt><trkpt lat="43.01746082445671" lon="12.149057022781511"><ele>321.0</ele><time>2026-03-29T09:36:14Z</time></trkpt><trkpt lat="43.017458603973054" lon="12.149173131604554"><ele>321.0</ele><time>2026-03-29T09:36:15Z</time></trkpt><trkpt lat="43.01745654331523" lon="12.149280882889126"><ele>321.0</ele><time>2026-03-29T09:36:16Z</time></trkpt><trkpt lat="43.017458916449385" lon="12.14940629323904"><ele>321.0</ele><time>2026-03-29T09:36:17Z</time></trkpt><trkpt lat="43.01748349874774" lon="12.149522278155672"><ele>321.8</ele><time>2026-03-29T09:36:18Z</time></trkpt><trkpt lat="43.01750099226755" lon="12.149634284511071"><ele>322.6</ele><time>2026-03-29T09:36:19Z</time></trkpt><trkpt lat="43.017571968177144" lon="12.149731673039115"><ele>323.4</ele><time>2026-03-29T09:36:20Z</time></trkpt><trkpt lat="43.017651591299675" lon="12.149815353542188"><ele>324.2</ele><time>2026-03-29T09:36:21Z</time></trkpt><trkpt lat="43.017729273934684" lon="12.149899908038542"><ele>325.0</ele><time>2026-03-29T09:36:22Z</time></trkpt><trkpt lat="43.01780243405292" lon="12.149999564420552"><ele>323.0</ele><time>2026-03-29T09:36:23Z</time></trkpt><trkpt lat="43.01788792146564" lon="12.150075719209502"><ele>321.0</ele><time>2026-03-29T09:36:24Z</time></trkpt><trkpt lat="43.0179754416139" lon="12.150125141872147"><ele>319.0</ele><time>2026-03-29T09:36:25Z</time></trkpt><trkpt lat="43.01805203243147" lon="12.150210352623194"><ele>317.0</ele><time>2026-03-29T09:36:26Z</time></trkpt><trkpt lat="43.0181347198246" lon="12.15027996279687"><ele>315.0</ele><time>2026-03-29T09:36:27Z</time></trkpt><trkpt lat="43.01819262132873" lon="12.150329938072627"><ele>315.0</ele><time>2026-03-29T09:36:28Z</time></trkpt><trkpt lat="43.01824895336429" lon="12.15037808498715"><ele>315.0</ele><time>2026-03-29T09:36:29Z</time></trkpt><trkpt lat="43.018311375107324" lon="12.150426410989787"><ele>315.0</ele><time>2026-03-29T09:36:30Z</time></trkpt><trkpt lat="43.018437240820276" lon="12.150479745482153"><ele>315.0</ele><time>2026-03-29T09:36:32Z</time></trkpt><trkpt lat="43.01850045374318" lon="12.15049533817503"><ele>315.0</ele><time>2026-03-29T09:36:33Z</time></trkpt><trkpt lat="43.01856639973013" lon="12.150533524821814"><ele>315.0</ele><time>2026-03-29T09:36:34Z</time></trkpt><trkpt lat="43.01863826115972" lon="12.150557699243132"><ele>315.6</ele><time>2026-03-29T09:36:35Z</time></trkpt><trkpt lat="43.01876767165185" lon="12.150601233361462"><ele>316.2</ele><time>2026-03-29T09:36:37Z</time></trkpt><trkpt lat="43.01886606247233" lon="12.150594401860383"><ele>316.8</ele><time>2026-03-29T09:36:39Z</time></trkpt><trkpt lat="43.018966186374406" lon="12.15057756673364"><ele>317.4</ele><time>2026-03-29T09:36:41Z</time></trkpt><trkpt lat="43.01904705467076" lon="12.150520237345594"><ele>318.0</ele><time>2026-03-29T09:36:42Z</time></trkpt><trkpt lat="43.019128514567335" lon="12.150434473535006"><ele>316.2</ele><time>2026-03-29T09:36:43Z</time></trkpt><trkpt lat="43.019252083020746" lon="12.150366472232015"><ele>314.4</ele><time>2026-03-29T09:36:44Z</time></trkpt><trkpt lat="43.01932817209856" lon="12.150360699214888"><ele>312.59999999999997</ele><time>2026-03-29T09:36:45Z</time></trkpt><trkpt lat="43.01941069137939" lon="12.150433848330962"><ele>310.8</ele><time>2026-03-29T09:36:47Z</time></trkpt><trkpt lat="43.01946253814524" lon="12.15048916356543"><ele>309.0</ele><time>2026-03-29T09:36:48Z</time></trkpt><trkpt lat="43.019521250812204" lon="12.150560362692156"><ele>309.0</ele><time>2026-03-29T09:36:49Z</time></trkpt><trkpt lat="43.01956960112143" lon="12.150637823405566"><ele>309.0</ele><time>2026-03-29T09:36:50Z</time></trkpt><trkpt lat="43.01962968368915" lon="12.150717340987768"><ele>309.0</ele><time>2026-03-29T09:36:51Z</time></trkpt><trkpt lat="43.01968689334823" lon="12.150759828289138"><ele>309.0</ele><time>2026-03-29T09:36:52Z</time></trkpt><trkpt lat="43.01973925790159" lon="12.150816370372555"><ele>309.0</ele><time>2026-03-29T09:36:53Z</time></trkpt><trkpt lat="43.019777643654166" lon="12.150962086492656"><ele>309.0</ele><time>2026-03-29T09:36:55Z</time></trkpt><trkpt lat="43.01980132941077" lon="12.151051431961763"><ele>306.8333333333333</ele><time>2026-03-29T09:36:56Z</time></trkpt><trkpt lat="43.019809390687264" lon="12.151138472890056"><ele>304.6666666666667</ele><time>2026-03-29T09:36:57Z</time></trkpt><trkpt lat="43.019810979547366" lon="12.151227434688469"><ele>302.5</ele><time>2026-03-29T09:36:58Z</time></trkpt><trkpt lat="43.019821944837204" lon="12.15137421838948"><ele>300.33333333333337</ele><time>2026-03-29T09:36:59Z</time></trkpt><trkpt lat="43.019847232818584" lon="12.151470724085208"><ele>298.1666666666667</ele><time>2026-03-29T09:37:00Z</time></trkpt><trkpt lat="43.01987637703694" lon="12.151567805407812"><ele>296.0</ele><time>2026-03-29T09:37:01Z</time></trkpt><trkpt lat="43.019949260532975" lon="12.151728534687178"><ele>294.0</ele><time>2026-03-29T09:37:03Z</time></trkpt><trkpt lat="43.01996636263602" lon="12.151815061405804"><ele>292.0</ele><time>2026-03-29T09:37:04Z</time></trkpt><trkpt lat="43.019980068308804" lon="12.151913167229118"><ele>290.0</ele><time>2026-03-29T09:37:05Z</time></trkpt><trkpt lat="43.01997086034352" lon="12.152040770709263"><ele>288.0</ele><time>2026-03-29T09:37:07Z</time></trkpt><trkpt lat="43.019906495801386" lon="12.152105268194113"><ele>286.0</ele><time>2026-03-29T09:37:10Z</time></trkpt><trkpt lat="43.019910456891395" lon="12.15219623355505"><ele>284.0</ele><time>2026-03-29T09:37:15Z</time></trkpt><trkpt lat="43.0198609912175" lon="12.152323587381014"><ele>283.1666666666667</ele><time>2026-03-29T09:37:17Z</time></trkpt><trkpt lat="43.019816683179876" lon="12.152420613432396"><ele>282.33333333333337</ele><time>2026-03-29T09:37:18Z</time></trkpt><trkpt lat="43.019772495463535" lon="12.15251627595132"><ele>281.5</ele><time>2026-03-29T09:37:19Z</time></trkpt><trkpt lat="43.019744254530345" lon="12.152618947175718"><ele>280.6666666666667</ele><time>2026-03-29T09:37:20Z</time></trkpt><trkpt lat="43.01971019205025" lon="12.152709372382382"><ele>279.8333333333333</ele><time>2026-03-29T09:37:21Z</time></trkpt><trkpt lat="43.01968773510771" lon="12.152802080481123"><ele>279.0</ele><time>2026-03-29T09:37:22Z</time></trkpt><trkpt lat="43.019684949848866" lon="12.152957940591088"><ele>279.0</ele><time>2026-03-29T09:37:24Z</time></trkpt><trkpt lat="43.01968065357569" lon="12.153130117288784"><ele>279.0</ele><time>2026-03-29T09:37:26Z</time></trkpt><trkpt lat="43.01966445932374" lon="12.153235869810167"><ele>279.0</ele><time>2026-03-29T09:37:27Z</time></trkpt><trkpt lat="43.01965838147836" lon="12.153326141003216"><ele>279.0</ele><time>2026-03-29T09:37:28Z</time></trkpt><trkpt lat="43.01965625504421" lon="12.15343791626607"><ele>279.0</ele><time>2026-03-29T09:37:29Z</time></trkpt><trkpt lat="43.01965068734771" lon="12.153528687040962"><ele>279.0</ele><time>2026-03-29T09:37:30Z</time></trkpt><trkpt lat="43.019623684976644" lon="12.153627466773886"><ele>279.6666666666667</ele><time>2026-03-29T09:37:31Z</time></trkpt><trkpt lat="43.01959631046111" lon="12.153718588899883"><ele>280.3333333333333</ele><time>2026-03-29T09:37:32Z</time></trkpt><trkpt lat="43.019561972683526" lon="12.153812285771261"><ele>281.0</ele><time>2026-03-29T09:37:33Z</time></trkpt><trkpt lat="43.019511913998365" lon="12.153902303965706"><ele>281.66666666666663</ele><time>2026-03-29T09:37:34Z</time></trkpt><trkpt lat="43.019464336763384" lon="12.15401599027151"><ele>282.3333333333333</ele><time>2026-03-29T09:37:35Z</time></trkpt><trkpt lat="43.01943301394666" lon="12.154118577410278"><ele>283.0</ele><time>2026-03-29T09:37:36Z</time></trkpt><trkpt lat="43.019396923596126" lon="12.154225884041043"><ele>283.2</ele><time>2026-03-29T09:37:37Z</time></trkpt><trkpt lat="43.01934801098358" lon="12.154333009253182"><ele>283.4</ele><time>2026-03-29T09:37:38Z</time></trkpt><trkpt lat="43.01929863624981" lon="12.15445827511444"><ele>283.59999999999997</ele><time>2026-03-29T09:37:39Z</time></trkpt><trkpt lat="43.019256094107874" lon="12.154576251213104"><ele>283.8</ele><time>2026-03-29T09:37:40Z</time></trkpt><trkpt lat="43.019220284506886" lon="12.154688036597545"><ele>284.0</ele><time>2026-03-29T09:37:41Z</time></trkpt><trkpt lat="43.019173851246116" lon="12.154816383793921"><ele>284.33333333333337</ele><time>2026-03-29T09:37:42Z</time></trkpt><trkpt lat="43.01911413045948" lon="12.154920215055201"><ele>284.6666666666667</ele><time>2026-03-29T09:37:43Z</time></trkpt><trkpt lat="43.0190579785028" lon="12.155016795524748"><ele>285.0</ele><time>2026-03-29T09:37:44Z</time></trkpt><trkpt lat="43.01900474935499" lon="12.155094423818413"><ele>285.3333333333333</ele><time>2026-03-29T09:37:45Z</time></trkpt><trkpt lat="43.01893961655399" lon="12.15517341711017"><ele>285.66666666666663</ele><time>2026-03-29T09:37:46Z</time></trkpt><trkpt lat="43.01888159599674" lon="12.155252960594026"><ele>286.0</ele><time>2026-03-29T09:37:47Z</time></trkpt><trkpt lat="43.018795942497654" lon="12.155349061611622"><ele>286.0</ele><time>2026-03-29T09:37:49Z</time></trkpt><trkpt lat="43.01872094636634" lon="12.155339278441364"><ele>286.0</ele><time>2026-03-29T09:37:50Z</time></trkpt><trkpt lat="43.01859615116199" lon="12.155416703522235"><ele>286.0</ele><time>2026-03-29T09:37:52Z</time></trkpt><trkpt lat="43.01849140111516" lon="12.155496255077855"><ele>286.0</ele><time>2026-03-29T09:37:53Z</time></trkpt><trkpt lat="43.01842320821044" lon="12.155534342035715"><ele>286.0</ele><time>2026-03-29T09:37:54Z</time></trkpt><trkpt lat="43.0183232662351" lon="12.155597358620552"><ele>285.8333333333333</ele><time>2026-03-29T09:37:56Z</time></trkpt><trkpt lat="43.01825579375397" lon="12.155641361621596"><ele>285.66666666666663</ele><time>2026-03-29T09:37:59Z</time></trkpt><trkpt lat="43.01817854260694" lon="12.155633665715959"><ele>285.5</ele><time>2026-03-29T09:38:03Z</time></trkpt><trkpt lat="43.018105847405934" lon="12.15567128473748"><ele>285.3333333333333</ele><time>2026-03-29T09:38:05Z</time></trkpt><trkpt lat="43.01805413696579" lon="12.15573985699661"><ele>285.1666666666667</ele><time>2026-03-29T09:38:08Z</time></trkpt><trkpt lat="43.0180777909512" lon="12.155866591089572"><ele>285.0</ele><time>2026-03-29T09:38:18Z</time></trkpt><trkpt lat="43.018132869072126" lon="12.155918761184246"><ele>285.0</ele><time>2026-03-29T09:38:19Z</time></trkpt><trkpt lat="43.018185957978694" lon="12.155971172008066"><ele>285.0</ele><time>2026-03-29T09:38:20Z</time></trkpt><trkpt lat="43.018233915426514" lon="12.156033920130133"><ele>285.0</ele><time>2026-03-29T09:38:21Z</time></trkpt><trkpt lat="43.0183192091875" lon="12.156114852504697"><ele>285.0</ele><time>2026-03-29T09:38:23Z</time></trkpt><trkpt lat="43.018438027275764" lon="12.156135618445571"><ele>285.0</ele><time>2026-03-29T09:38:25Z</time></trkpt><trkpt lat="43.01850811294938" lon="12.156189139441986"><ele>285.0</ele><time>2026-03-29T09:38:26Z</time></trkpt><trkpt lat="43.01859133157011" lon="12.156235098257271"><ele>285.6</ele><time>2026-03-29T09:38:28Z</time></trkpt><trkpt lat="43.01871605556768" lon="12.156286010075014"><ele>286.2</ele><time>2026-03-29T09:38:30Z</time></trkpt><trkpt lat="43.01879689436702" lon="12.156316994238162"><ele>286.8</ele><time>2026-03-29T09:38:31Z</time></trkpt><trkpt lat="43.018869133852" lon="12.156316718391514"><ele>287.4</ele><time>2026-03-29T09:38:32Z</time></trkpt><trkpt lat="43.018951756993516" lon="12.156304657938131"><ele>288.0</ele><time>2026-03-29T09:38:33Z</time></trkpt><trkpt lat="43.01903215435307" lon="12.156296333414716"><ele>288.0</ele><time>2026-03-29T09:38:34Z</time></trkpt><trkpt lat="43.019096855823605" lon="12.156270094626143"><ele>288.0</ele><time>2026-03-29T09:38:35Z</time></trkpt><trkpt lat="43.019188374185646" lon="12.156265142674377"><ele>288.0</ele><time>2026-03-29T09:38:36Z</time></trkpt><trkpt lat="43.019271361726915" lon="12.156256162294254"><ele>288.0</ele><time>2026-03-29T09:38:37Z</time></trkpt><trkpt lat="43.019343525812204" lon="12.156237277201638"><ele>288.0</ele><time>2026-03-29T09:38:38Z</time></trkpt><trkpt lat="43.01940603720584" lon="12.156206468503026"><ele>288.0</ele><time>2026-03-29T09:38:39Z</time></trkpt><trkpt lat="43.01952276449096" lon="12.15615460919482"><ele>285.8333333333333</ele><time>2026-03-29T09:38:41Z</time></trkpt><trkpt lat="43.019617873260586" lon="12.15603226746176"><ele>283.6666666666667</ele><time>2026-03-29T09:38:43Z</time></trkpt><trkpt lat="43.01968910956134" lon="12.156002807363178"><ele>281.5</ele><time>2026-03-29T09:38:44Z</time></trkpt><trkpt lat="43.01975812735221" lon="12.155970756217059"><ele>279.33333333333337</ele><time>2026-03-29T09:38:45Z</time></trkpt><trkpt lat="43.01983071846696" lon="12.155934026147948"><ele>277.1666666666667</ele><time>2026-03-29T09:38:46Z</time></trkpt><trkpt lat="43.019917997291905" lon="12.155887445654718"><ele>275.0</ele><time>2026-03-29T09:38:47Z</time></trkpt><trkpt lat="43.01999708235781" lon="12.155903918169038"><ele>272.0</ele><time>2026-03-29T09:38:49Z</time></trkpt><trkpt lat="43.020098428727415" lon="12.155923562742318"><ele>269.0</ele><time>2026-03-29T09:38:51Z</time></trkpt><trkpt lat="43.02016790070977" lon="12.155968963765389"><ele>266.0</ele><time>2026-03-29T09:38:53Z</time></trkpt><trkpt lat="43.02022026054619" lon="12.156036894207809"><ele>263.0</ele><time>2026-03-29T09:38:55Z</time></trkpt><trkpt lat="43.02028067799471" lon="12.156156045641493"><ele>260.0</ele><time>2026-03-29T09:39:32Z</time></trkpt><trkpt lat="43.02035000144965" lon="12.156238588589794"><ele>257.0</ele><time>2026-03-29T09:39:33Z</time></trkpt><trkpt lat="43.0204164775763" lon="12.156333814002394"><ele>257.0</ele><time>2026-03-29T09:39:34Z</time></trkpt><trkpt lat="43.020491310610595" lon="12.156439560133833"><ele>257.0</ele><time>2026-03-29T09:39:35Z</time></trkpt><trkpt lat="43.02055659154145" lon="12.15651995272666"><ele>257.0</ele><time>2026-03-29T09:39:36Z</time></trkpt><trkpt lat="43.02061257228476" lon="12.156594757162864"><ele>257.0</ele><time>2026-03-29T09:39:38Z</time></trkpt><trkpt lat="43.02064942740172" lon="12.15668037745083"><ele>257.0</ele><time>2026-03-29T09:39:40Z</time></trkpt><trkpt lat="43.02068889052777" lon="12.156803403474548"><ele>257.0</ele><time>2026-03-29T09:39:42Z</time></trkpt><trkpt lat="43.02072468249858" lon="12.156882549765665"><ele>256.5</ele><time>2026-03-29T09:39:44Z</time></trkpt><trkpt lat="43.020720003056375" lon="12.156972544566644"><ele>256.0</ele><time>2026-03-29T09:39:47Z</time></trkpt><trkpt lat="43.02065188423418" lon="12.157026091610982"><ele>255.5</ele><time>2026-03-29T09:39:49Z</time></trkpt><trkpt lat="43.0206033253968" lon="12.157105967884064"><ele>255.0</ele><time>2026-03-29T09:39:50Z</time></trkpt><trkpt lat="43.02055388002606" lon="12.15720412156702"><ele>254.50000000000003</ele><time>2026-03-29T09:39:51Z</time></trkpt><trkpt lat="43.02053444509191" lon="12.157286649823762"><ele>254.0</ele><time>2026-03-29T09:39:52Z</time></trkpt><trkpt lat="43.020490259618725" lon="12.157390399652423"><ele>254.0</ele><time>2026-03-29T09:39:53Z</time></trkpt><trkpt lat="43.02045057248491" lon="12.15747180162602"><ele>253.99999999999997</ele><time>2026-03-29T09:39:54Z</time></trkpt><trkpt lat="43.020413755982254" lon="12.157631833720558"><ele>253.99999999999997</ele><time>2026-03-29T09:39:56Z</time></trkpt><trkpt lat="43.02042897546223" lon="12.157809384320048"><ele>254.0</ele><time>2026-03-29T09:39:58Z</time></trkpt><trkpt lat="43.020426072361424" lon="12.157912664844217"><ele>254.0</ele><time>2026-03-29T09:40:00Z</time></trkpt><trkpt lat="43.02037152922811" lon="12.157999235023548"><ele>254.00000000000003</ele><time>2026-03-29T09:40:02Z</time></trkpt><trkpt lat="43.020344224944026" lon="12.158085216331308"><ele>254.0</ele><time>2026-03-29T09:40:05Z</time></trkpt><trkpt lat="43.02038873852232" lon="12.158173110401181"><ele>254.0</ele><time>2026-03-29T09:40:07Z</time></trkpt><trkpt lat="43.0204360973595" lon="12.158299085782783"><ele>254.0</ele><time>2026-03-29T09:40:09Z</time></trkpt><trkpt lat="43.02050431487748" lon="12.15837661181882"><ele>254.00000000000003</ele><time>2026-03-29T09:40:10Z</time></trkpt><trkpt lat="43.020557678624655" lon="12.158435683708614"><ele>254.0</ele><time>2026-03-29T09:40:11Z</time></trkpt><trkpt lat="43.02063657909503" lon="12.158522218528264"><ele>255.50000000000003</ele><time>2026-03-29T09:40:13Z</time></trkpt><trkpt lat="43.02071114588621" lon="12.158633413623257"><ele>257.0</ele><time>2026-03-29T09:40:15Z</time></trkpt><trkpt lat="43.0208085990133" lon="12.15871425733139"><ele>258.5</ele><time>2026-03-29T09:40:17Z</time></trkpt><trkpt lat="43.020862928358646" lon="12.158774597084756"><ele>260.0</ele><time>2026-03-29T09:40:18Z</time></trkpt><trkpt lat="43.02090881198122" lon="12.15884546086255"><ele>261.5</ele><time>2026-03-29T09:40:19Z</time></trkpt><trkpt lat="43.02084461142168" lon="12.158906049193721"><ele>263.0</ele><time>2026-03-29T09:40:22Z</time></trkpt><trkpt lat="43.02076119136345" lon="12.15889130751207"><ele>263.0</ele><time>2026-03-29T09:40:24Z</time></trkpt><trkpt lat="43.02070668829877" lon="12.158937060213786"><ele>263.0</ele><time>2026-03-29T09:40:27Z</time></trkpt><trkpt lat="43.020634559812116" lon="12.159000606393443"><ele>263.0</ele><time>2026-03-29T09:40:48Z</time></trkpt><trkpt lat="43.020575904664966" lon="12.159075743218917"><ele>263.0</ele><time>2026-03-29T09:40:50Z</time></trkpt><trkpt lat="43.020663179473274" lon="12.159135647703586"><ele>263.0</ele><time>2026-03-29T09:40:53Z</time></trkpt><trkpt lat="43.020722598327296" lon="12.15919904196449"><ele>263.0</ele><time>2026-03-29T09:40:54Z</time></trkpt><trkpt lat="43.02078589919596" lon="12.159247080443691"><ele>264.8</ele><time>2026-03-29T09:40:55Z</time></trkpt><trkpt lat="43.020866334084644" lon="12.159345589906168"><ele>266.6</ele><time>2026-03-29T09:40:57Z</time></trkpt><trkpt lat="43.02091327643877" lon="12.15946786187959"><ele>268.4</ele><time>2026-03-29T09:40:59Z</time></trkpt><trkpt lat="43.02089618114651" lon="12.159643283559953"><ele>270.2</ele><time>2026-03-29T09:41:01Z</time></trkpt><trkpt lat="43.02087057268431" lon="12.159742743029089"><ele>272.0</ele><time>2026-03-29T09:41:02Z</time></trkpt><trkpt lat="43.02080683801763" lon="12.159834259543516"><ele>275.5</ele><time>2026-03-29T09:41:03Z</time></trkpt><trkpt lat="43.020756571570914" lon="12.159899532650437"><ele>279.0</ele><time>2026-03-29T09:41:04Z</time></trkpt><trkpt lat="43.02069258737222" lon="12.159959078777003"><ele>282.5</ele><time>2026-03-29T09:41:05Z</time></trkpt><trkpt lat="43.02063182819245" lon="12.160011920657276"><ele>286.0</ele><time>2026-03-29T09:41:06Z</time></trkpt><trkpt lat="43.02056125569322" lon="12.160019655535477"><ele>289.5</ele><time>2026-03-29T09:41:07Z</time></trkpt><trkpt lat="43.020515272421726" lon="12.160078499031261"><ele>293.0</ele><time>2026-03-29T09:41:08Z</time></trkpt><trkpt lat="43.02046729115505" lon="12.160238626017852"><ele>293.0</ele><time>2026-03-29T09:41:10Z</time></trkpt><trkpt lat="43.020468682570076" lon="12.16033040094709"><ele>293.0</ele><time>2026-03-29T09:41:11Z</time></trkpt><trkpt lat="43.02046153227203" lon="12.16041988326722"><ele>293.0</ele><time>2026-03-29T09:41:12Z</time></trkpt><trkpt lat="43.02047193378866" lon="12.160520341390065"><ele>293.0</ele><time>2026-03-29T09:41:13Z</time></trkpt><trkpt lat="43.02048098102362" lon="12.160621912225952"><ele>293.0</ele><time>2026-03-29T09:41:18Z</time></trkpt><trkpt lat="43.02048281894051" lon="12.1607252454029"><ele>293.0</ele><time>2026-03-29T09:41:26Z</time></trkpt><trkpt lat="43.02045882445064" lon="12.160890630353409"><ele>293.0</ele><time>2026-03-29T09:41:29Z</time></trkpt><trkpt lat="43.02042669540054" lon="12.161052949943569"><ele>293.0</ele><time>2026-03-29T09:41:31Z</time></trkpt><trkpt lat="43.02040997783184" lon="12.16115245346846"><ele>293.0</ele><time>2026-03-29T09:41:32Z</time></trkpt><trkpt lat="43.02039487464525" lon="12.161246758732176"><ele>293.0</ele><time>2026-03-29T09:41:33Z</time></trkpt><trkpt lat="43.0203669268074" lon="12.161346801586182"><ele>293.0</ele><time>2026-03-29T09:41:34Z</time></trkpt><trkpt lat="43.02034007060782" lon="12.161461052211802"><ele>293.0</ele><time>2026-03-29T09:41:35Z</time></trkpt><trkpt lat="43.02031218947741" lon="12.161559692088058"><ele>293.5</ele><time>2026-03-29T09:41:36Z</time></trkpt><trkpt lat="43.02029379800565" lon="12.161649883042841"><ele>294.0</ele><time>2026-03-29T09:41:37Z</time></trkpt><trkpt lat="43.020269832707896" lon="12.161734207618654"><ele>294.5</ele><time>2026-03-29T09:41:38Z</time></trkpt><trkpt lat="43.02024249760994" lon="12.161842824455297"><ele>295.0</ele><time>2026-03-29T09:41:39Z</time></trkpt><trkpt lat="43.02022667010941" lon="12.161950207609847"><ele>295.5</ele><time>2026-03-29T09:41:40Z</time></trkpt><trkpt lat="43.02018748747209" lon="12.162097544297273"><ele>296.0</ele><time>2026-03-29T09:41:42Z</time></trkpt><trkpt lat="43.020167740612095" lon="12.162180504319734"><ele>296.0</ele><time>2026-03-29T09:41:43Z</time></trkpt><trkpt lat="43.020138518924796" lon="12.162268493008632"><ele>296.0</ele><time>2026-03-29T09:41:44Z</time></trkpt><trkpt lat="43.02010924805583" lon="12.162365893346486"><ele>296.0</ele><time>2026-03-29T09:41:45Z</time></trkpt><trkpt lat="43.02010648123454" lon="12.162475037547518"><ele>296.0</ele><time>2026-03-29T09:41:46Z</time></trkpt><trkpt lat="43.020092852885476" lon="12.162571153959522"><ele>296.0</ele><time>2026-03-29T09:41:47Z</time></trkpt><trkpt lat="43.02005904046633" lon="12.162731574557805"><ele>296.0</ele><time>2026-03-29T09:41:49Z</time></trkpt><trkpt lat="43.02004078795217" lon="12.162817140958808"><ele>296.33333333333337</ele><time>2026-03-29T09:41:50Z</time></trkpt><trkpt lat="43.020023021141995" lon="12.162906421890357"><ele>296.6666666666667</ele><time>2026-03-29T09:41:51Z</time></trkpt><trkpt lat="43.02000603578635" lon="12.163027163581686"><ele>297.0</ele><time>2026-03-29T09:41:52Z</time></trkpt><trkpt lat="43.019985605277" lon="12.163143629278174"><ele>297.3333333333333</ele><time>2026-03-29T09:41:53Z</time></trkpt><trkpt lat="43.01995431123232" lon="12.163244797221587"><ele>297.66666666666663</ele><time>2026-03-29T09:41:54Z</time></trkpt><trkpt lat="43.01992697829883" lon="12.163341663404097"><ele>298.0</ele><time>2026-03-29T09:41:55Z</time></trkpt><trkpt lat="43.01989684169243" lon="12.163424615376469"><ele>298.0</ele><time>2026-03-29T09:41:56Z</time></trkpt><trkpt lat="43.01986981362727" lon="12.16352373746408"><ele>298.0</ele><time>2026-03-29T09:41:57Z</time></trkpt><trkpt lat="43.01984407998385" lon="12.163621058299379"><ele>298.0</ele><time>2026-03-29T09:41:58Z</time></trkpt><trkpt lat="43.019910388407645" lon="12.1637977786076"><ele>298.0</ele><time>2026-03-29T09:42:00Z</time></trkpt><trkpt lat="43.019972188328126" lon="12.163958953833351"><ele>298.0</ele><time>2026-03-29T09:42:02Z</time></trkpt><trkpt lat="43.019990480670884" lon="12.164063437520646"><ele>299.16666666666663</ele><time>2026-03-29T09:42:03Z</time></trkpt><trkpt lat="43.019991192743994" lon="12.164247690642746"><ele>300.3333333333333</ele><time>2026-03-29T09:42:05Z</time></trkpt><trkpt lat="43.019960259331334" lon="12.164339550894754"><ele>301.5</ele><time>2026-03-29T09:42:06Z</time></trkpt><trkpt lat="43.01990149880535" lon="12.16439379844937"><ele>302.6666666666667</ele><time>2026-03-29T09:42:07Z</time></trkpt><trkpt lat="43.01984223075676" lon="12.164431365192065"><ele>303.83333333333337</ele><time>2026-03-29T09:42:08Z</time></trkpt><trkpt lat="43.01976310956118" lon="12.164453513275458"><ele>305.0</ele><time>2026-03-29T09:42:09Z</time></trkpt><trkpt lat="43.019674533911704" lon="12.16449911982159"><ele>305.0</ele><time>2026-03-29T09:42:10Z</time></trkpt><trkpt lat="43.019609237665016" lon="12.164554892224713"><ele>305.0</ele><time>2026-03-29T09:42:11Z</time></trkpt><trkpt lat="43.01955307802938" lon="12.164625793562747"><ele>305.0</ele><time>2026-03-29T09:42:12Z</time></trkpt><trkpt lat="43.0194926062383" lon="12.164705354135812"><ele>305.0</ele><time>2026-03-29T09:42:13Z</time></trkpt><trkpt lat="43.0194337801216" lon="12.164768790341462"><ele>305.0</ele><time>2026-03-29T09:42:14Z</time></trkpt><trkpt lat="43.019376783051726" lon="12.164811504100653"><ele>305.0</ele><time>2026-03-29T09:42:15Z</time></trkpt><trkpt lat="43.01932047056283" lon="12.164870009542602"><ele>305.0</ele><time>2026-03-29T09:42:16Z</time></trkpt><trkpt lat="43.01927228210361" lon="12.164952756783725"><ele>304.8</ele><time>2026-03-29T09:42:17Z</time></trkpt><trkpt lat="43.01921088618453" lon="12.165056355196214"><ele>304.6</ele><time>2026-03-29T09:42:19Z</time></trkpt><trkpt lat="43.01916418484998" lon="12.165120874469912"><ele>304.4</ele><time>2026-03-29T09:42:20Z</time></trkpt><trkpt lat="43.01912223044748" lon="12.165256759224688"><ele>304.2</ele><time>2026-03-29T09:42:22Z</time></trkpt><trkpt lat="43.01913350180062" lon="12.165435271464538"><ele>304.0</ele><time>2026-03-29T09:42:24Z</time></trkpt><trkpt lat="43.01914569977611" lon="12.165529529305207"><ele>304.0</ele><time>2026-03-29T09:42:25Z</time></trkpt><trkpt lat="43.019132396822314" lon="12.16568628966438"><ele>304.0</ele><time>2026-03-29T09:42:27Z</time></trkpt><trkpt lat="43.01914614202768" lon="12.165828245692705"><ele>304.0</ele><time>2026-03-29T09:42:29Z</time></trkpt><trkpt lat="43.019099491348484" lon="12.165979214160362"><ele>304.0</ele><time>2026-03-29T09:42:31Z</time></trkpt><trkpt lat="43.01911167143037" lon="12.166082622976116"><ele>304.0</ele><time>2026-03-29T09:42:34Z</time></trkpt><trkpt lat="43.01917163305355" lon="12.166125271465852"><ele>304.0</ele><time>2026-03-29T09:42:39Z</time></trkpt><trkpt lat="43.01910373941262" lon="12.166135966131774"><ele>304.0</ele><time>2026-03-29T09:43:36Z</time></trkpt><trkpt lat="43.01904206530789" lon="12.16617574927423"><ele>304.0</ele><time>2026-03-29T09:43:38Z</time></trkpt><trkpt lat="43.01897546392483" lon="12.166182784275822"><ele>304.0</ele><time>2026-03-29T09:43:40Z</time></trkpt><trkpt lat="43.018895065817254" lon="12.166184734469816"><ele>304.0</ele><time>2026-03-29T09:43:42Z</time></trkpt><trkpt lat="43.01879010429238" lon="12.166191548291176"><ele>304.0</ele><time>2026-03-29T09:43:44Z</time></trkpt><trkpt lat="43.01868981852585" lon="12.166219093880974"><ele>304.0</ele><time>2026-03-29T09:43:45Z</time></trkpt><trkpt lat="43.01859853652943" lon="12.166277441733804"><ele>304.0</ele><time>2026-03-29T09:43:46Z</time></trkpt><trkpt lat="43.018483705757625" lon="12.1663171203018"><ele>304.0</ele><time>2026-03-29T09:43:47Z</time></trkpt><trkpt lat="43.018334075276826" lon="12.166364924284135"><ele>304.0</ele><time>2026-03-29T09:43:48Z</time></trkpt><trkpt lat="43.01822607007754" lon="12.166403480371812"><ele>302.59999999999997</ele><time>2026-03-29T09:43:49Z</time></trkpt><trkpt lat="43.0181308600555" lon="12.166437109483502"><ele>301.2</ele><time>2026-03-29T09:43:50Z</time></trkpt><trkpt lat="43.01802982467356" lon="12.166475610388115"><ele>299.79999999999995</ele><time>2026-03-29T09:43:51Z</time></trkpt><trkpt lat="43.017936764252354" lon="12.166472575427578"><ele>298.4</ele><time>2026-03-29T09:43:52Z</time></trkpt><trkpt lat="43.01782040548005" lon="12.166454984179886"><ele>297.0</ele><time>2026-03-29T09:43:53Z</time></trkpt><trkpt lat="43.01772321291041" lon="12.166438229969812"><ele>297.0</ele><time>2026-03-29T09:43:54Z</time></trkpt><trkpt lat="43.017635790813266" lon="12.166435504355174"><ele>297.0</ele><time>2026-03-29T09:43:55Z</time></trkpt><trkpt lat="43.017545486854424" lon="12.166428208131238"><ele>297.0</ele><time>2026-03-29T09:43:56Z</time></trkpt><trkpt lat="43.01746959713365" lon="12.166432112030572"><ele>297.0</ele><time>2026-03-29T09:43:57Z</time></trkpt><trkpt lat="43.01740234365325" lon="12.166420777907943"><ele>297.0</ele><time>2026-03-29T09:43:58Z</time></trkpt><trkpt lat="43.01733458693567" lon="12.166374672348821"><ele>297.0</ele><time>2026-03-29T09:44:00Z</time></trkpt><trkpt lat="43.01729123349914" lon="12.166443600421912"><ele>296.2</ele><time>2026-03-29T09:44:02Z</time></trkpt><trkpt lat="43.01722998050292" lon="12.166570300267336"><ele>295.4</ele><time>2026-03-29T09:44:04Z</time></trkpt><trkpt lat="43.01725035067934" lon="12.166686399102586"><ele>294.6</ele><time>2026-03-29T09:44:05Z</time></trkpt><trkpt lat="43.01726218574412" lon="12.166776431703568"><ele>293.8</ele><time>2026-03-29T09:44:06Z</time></trkpt><trkpt lat="43.017249008746894" lon="12.166919335025442"><ele>293.0</ele><time>2026-03-29T09:44:08Z</time></trkpt><trkpt lat="43.01717721408609" lon="12.167052094745122"><ele>293.0</ele><time>2026-03-29T09:44:10Z</time></trkpt><trkpt lat="43.01711442812867" lon="12.167127171725735"><ele>293.0</ele><time>2026-03-29T09:44:11Z</time></trkpt><trkpt lat="43.017057138916364" lon="12.16718985165429"><ele>293.0</ele><time>2026-03-29T09:44:12Z</time></trkpt><trkpt lat="43.01698063559557" lon="12.167258293762437"><ele>293.0</ele><time>2026-03-29T09:44:13Z</time></trkpt><trkpt lat="43.01690553535847" lon="12.167310542094901"><ele>293.0</ele><time>2026-03-29T09:44:14Z</time></trkpt><trkpt lat="43.016819094091275" lon="12.167377838292705"><ele>293.0</ele><time>2026-03-29T09:44:15Z</time></trkpt><trkpt lat="43.01672970528285" lon="12.167471235521388"><ele>291.2</ele><time>2026-03-29T09:44:16Z</time></trkpt><trkpt lat="43.01665242801886" lon="12.167599605913948"><ele>289.4</ele><time>2026-03-29T09:44:17Z</time></trkpt><trkpt lat="43.01658365851079" lon="12.167706484900028"><ele>287.59999999999997</ele><time>2026-03-29T09:44:18Z</time></trkpt><trkpt lat="43.01652601314876" lon="12.167818683120254"><ele>285.8</ele><time>2026-03-29T09:44:19Z</time></trkpt><trkpt lat="43.016469286087165" lon="12.167940169982256"><ele>284.0</ele><time>2026-03-29T09:44:20Z</time></trkpt><trkpt lat="43.016417316127935" lon="12.168055093960907"><ele>284.0</ele><time>2026-03-29T09:44:21Z</time></trkpt><trkpt lat="43.016336938387816" lon="12.168187237348265"><ele>284.0</ele><time>2026-03-29T09:44:22Z</time></trkpt><trkpt lat="43.01628796807664" lon="12.168271756044952"><ele>284.0</ele><time>2026-03-29T09:44:23Z</time></trkpt><trkpt lat="43.016236529238334" lon="12.168360535182918"><ele>284.0</ele><time>2026-03-29T09:44:24Z</time></trkpt><trkpt lat="43.016183251101644" lon="12.168455254303867"><ele>284.0</ele><time>2026-03-29T09:44:25Z</time></trkpt><trkpt lat="43.016138669679115" lon="12.168545361767839"><ele>283.4</ele><time>2026-03-29T09:44:26Z</time></trkpt><trkpt lat="43.01609613311572" lon="12.168668580005766"><ele>282.79999999999995</ele><time>2026-03-29T09:44:27Z</time></trkpt><trkpt lat="43.016074008798896" lon="12.168758890785105"><ele>282.20000000000005</ele><time>2026-03-29T09:44:28Z</time></trkpt><trkpt lat="43.01605362542033" lon="12.168876121738014"><ele>281.6</ele><time>2026-03-29T09:44:29Z</time></trkpt><trkpt lat="43.01602893126658" lon="12.169035667889046"><ele>281.0</ele><time>2026-03-29T09:44:30Z</time></trkpt><trkpt lat="43.016012123018456" lon="12.169148014764412"><ele>280.40000000000003</ele><time>2026-03-29T09:44:31Z</time></trkpt><trkpt lat="43.015996120072295" lon="12.169260331765212"><ele>279.8</ele><time>2026-03-29T09:44:32Z</time></trkpt><trkpt lat="43.01602750939352" lon="12.169413818872057"><ele>279.20000000000005</ele><time>2026-03-29T09:44:33Z</time></trkpt><trkpt lat="43.01600700143335" lon="12.16954702344963"><ele>278.6</ele><time>2026-03-29T09:44:34Z</time></trkpt><trkpt lat="43.015984611931714" lon="12.16965936394828"><ele>278.0</ele><time>2026-03-29T09:44:35Z</time></trkpt><trkpt lat="43.01596685574943" lon="12.169768093466923"><ele>277.6666666666667</ele><time>2026-03-29T09:44:36Z</time></trkpt><trkpt lat="43.01590621831797" lon="12.169874642751855"><ele>277.33333333333337</ele><time>2026-03-29T09:44:37Z</time></trkpt><trkpt lat="43.01588762306609" lon="12.169985193408706"><ele>277.0</ele><time>2026-03-29T09:44:38Z</time></trkpt><trkpt lat="43.01586782037324" lon="12.170102922308745"><ele>276.6666666666667</ele><time>2026-03-29T09:44:39Z</time></trkpt><trkpt lat="43.01585141643507" lon="12.170200445981301"><ele>276.3333333333333</ele><time>2026-03-29T09:44:40Z</time></trkpt><trkpt lat="43.01583276899225" lon="12.170311309124406"><ele>276.0</ele><time>2026-03-29T09:44:41Z</time></trkpt><trkpt lat="43.01581299510791" lon="12.170428869205185"><ele>273.8</ele><time>2026-03-29T09:44:42Z</time></trkpt><trkpt lat="43.01579503493243" lon="12.170535646379639"><ele>271.6</ele><time>2026-03-29T09:44:43Z</time></trkpt><trkpt lat="43.01581618602478" lon="12.170642057753529"><ele>269.4</ele><time>2026-03-29T09:44:44Z</time></trkpt><trkpt lat="43.01579609185689" lon="12.170844094541524"><ele>267.2</ele><time>2026-03-29T09:44:46Z</time></trkpt><trkpt lat="43.015800528556426" lon="12.171015304898118"><ele>265.0</ele><time>2026-03-29T09:44:48Z</time></trkpt><trkpt lat="43.01578284628482" lon="12.171116449543783"><ele>264.4</ele><time>2026-03-29T09:44:49Z</time></trkpt><trkpt lat="43.015746183245426" lon="12.17121498103785"><ele>263.8</ele><time>2026-03-29T09:44:50Z</time></trkpt><trkpt lat="43.01570452020062" lon="12.171319161372951"><ele>263.2</ele><time>2026-03-29T09:44:51Z</time></trkpt><trkpt lat="43.01569690513782" lon="12.1714248097951"><ele>262.6</ele><time>2026-03-29T09:44:52Z</time></trkpt><trkpt lat="43.01575043341454" lon="12.171553821371674"><ele>262.0</ele><time>2026-03-29T09:44:54Z</time></trkpt><trkpt lat="43.01587903951672" lon="12.171566866756903"><ele>261.5</ele><time>2026-03-29T09:44:56Z</time></trkpt><trkpt lat="43.0159663108034" lon="12.171572650721421"><ele>261.0</ele><time>2026-03-29T09:44:57Z</time></trkpt><trkpt lat="43.016054699635916" lon="12.171594747816936"><ele>260.5</ele><time>2026-03-29T09:44:58Z</time></trkpt><trkpt lat="43.01613753641899" lon="12.171618069578564"><ele>260.0</ele><time>2026-03-29T09:44:59Z</time></trkpt><trkpt lat="43.016227437947435" lon="12.171632871554296"><ele>259.5</ele><time>2026-03-29T09:45:00Z</time></trkpt><trkpt lat="43.016309795401845" lon="12.171648593348598"><ele>259.0</ele><time>2026-03-29T09:45:01Z</time></trkpt><trkpt lat="43.01638978449661" lon="12.171657465120376"><ele>259.0</ele><time>2026-03-29T09:45:02Z</time></trkpt><trkpt lat="43.01647396182593" lon="12.171668993696585"><ele>259.0</ele><time>2026-03-29T09:45:03Z</time></trkpt><trkpt lat="43.016560903598034" lon="12.171673477439047"><ele>259.0</ele><time>2026-03-29T09:45:04Z</time></trkpt><trkpt lat="43.01662807334997" lon="12.171668053913333"><ele>259.0</ele><time>2026-03-29T09:45:05Z</time></trkpt><trkpt lat="43.01671039455845" lon="12.17167798736493"><ele>259.0</ele><time>2026-03-29T09:45:06Z</time></trkpt><trkpt lat="43.01680057488448" lon="12.171685117732036"><ele>259.0</ele><time>2026-03-29T09:45:07Z</time></trkpt><trkpt lat="43.016874387550224" lon="12.17166871497552"><ele>258.16666666666663</ele><time>2026-03-29T09:45:08Z</time></trkpt><trkpt lat="43.016961454418784" lon="12.171655148076212"><ele>257.3333333333333</ele><time>2026-03-29T09:45:09Z</time></trkpt><trkpt lat="43.01704431005827" lon="12.17163562851732"><ele>256.5</ele><time>2026-03-29T09:45:10Z</time></trkpt><trkpt lat="43.01714093771388" lon="12.171618005146511"><ele>255.66666666666669</ele><time>2026-03-29T09:45:11Z</time></trkpt><trkpt lat="43.017219792714855" lon="12.171597343085615"><ele>254.83333333333334</ele><time>2026-03-29T09:45:12Z</time></trkpt><trkpt lat="43.0173000420653" lon="12.171589827182535"><ele>254.0</ele><time>2026-03-29T09:45:13Z</time></trkpt><trkpt lat="43.01737261033199" lon="12.171587638270365"><ele>254.00000000000003</ele><time>2026-03-29T09:45:14Z</time></trkpt><trkpt lat="43.01743592239451" lon="12.17158905515238"><ele>254.0</ele><time>2026-03-29T09:45:15Z</time></trkpt><trkpt lat="43.01750885842171" lon="12.171604668108913"><ele>254.0</ele><time>2026-03-29T09:45:16Z</time></trkpt><trkpt lat="43.017568776143406" lon="12.171632493400955"><ele>254.0</ele><time>2026-03-29T09:45:17Z</time></trkpt><trkpt lat="43.017628404792454" lon="12.171667863905453"><ele>254.00000000000003</ele><time>2026-03-29T09:45:18Z</time></trkpt><trkpt lat="43.017640640594124" lon="12.171788878354057"><ele>254.0</ele><time>2026-03-29T09:45:20Z</time></trkpt><trkpt lat="43.017591380320795" lon="12.171914581981639"><ele>252.83333333333334</ele><time>2026-03-29T09:45:22Z</time></trkpt><trkpt lat="43.01763397781389" lon="12.172032872920502"><ele>251.66666666666669</ele><time>2026-03-29T09:45:25Z</time></trkpt><trkpt lat="43.017676513585755" lon="12.172140964557473"><ele>250.5</ele><time>2026-03-29T09:45:27Z</time></trkpt><trkpt lat="43.01764969249516" lon="12.172230043949126"><ele>249.33333333333331</ele><time>2026-03-29T09:45:29Z</time></trkpt><trkpt lat="43.01763863913745" lon="12.172341787355064"><ele>248.16666666666666</ele><time>2026-03-29T09:45:31Z</time></trkpt><trkpt lat="43.017613801427736" lon="12.17247144657032"><ele>247.0</ele><time>2026-03-29T09:45:33Z</time></trkpt><trkpt lat="43.01759972207329" lon="12.172601613917239"><ele>246.83333333333331</ele><time>2026-03-29T09:45:35Z</time></trkpt><trkpt lat="43.01760344958531" lon="12.172746002675929"><ele>246.66666666666666</ele><time>2026-03-29T09:45:37Z</time></trkpt><trkpt lat="43.017591881543076" lon="12.172888144151559"><ele>246.5</ele><time>2026-03-29T09:45:39Z</time></trkpt><trkpt lat="43.017581891690575" lon="12.172996739608832"><ele>246.33333333333331</ele><time>2026-03-29T09:45:40Z</time></trkpt><trkpt lat="43.017577188997755" lon="12.173086246101306"><ele>246.16666666666666</ele><time>2026-03-29T09:45:41Z</time></trkpt><trkpt lat="43.017571010298006" lon="12.17320246474461"><ele>246.0</ele><time>2026-03-29T09:45:42Z</time></trkpt><trkpt lat="43.01755524849824" lon="12.173306485661492"><ele>246.0</ele><time>2026-03-29T09:45:43Z</time></trkpt><trkpt lat="43.01752662750943" lon="12.173450995197758"><ele>246.0</ele><time>2026-03-29T09:45:44Z</time></trkpt><trkpt lat="43.017502765280845" lon="12.173545207784425"><ele>246.0</ele><time>2026-03-29T09:45:45Z</time></trkpt><trkpt lat="43.01749505051663" lon="12.173651174586134"><ele>246.0</ele><time>2026-03-29T09:45:46Z</time></trkpt><trkpt lat="43.01749388460437" lon="12.173768293547136"><ele>246.0</ele><time>2026-03-29T09:45:47Z</time></trkpt><trkpt lat="43.017474518939444" lon="12.173883354245207"><ele>246.0</ele><time>2026-03-29T09:45:49Z</time></trkpt><trkpt lat="43.01751414649439" lon="12.174012152478562"><ele>245.33333333333334</ele><time>2026-03-29T09:45:51Z</time></trkpt><trkpt lat="43.01756792133066" lon="12.174162975429908"><ele>244.66666666666669</ele><time>2026-03-29T09:45:53Z</time></trkpt><trkpt lat="43.01760087530835" lon="12.17424334520078"><ele>244.0</ele><time>2026-03-29T09:45:54Z</time></trkpt><trkpt lat="43.01763379456454" lon="12.174318100223884"><ele>243.33333333333334</ele><time>2026-03-29T09:45:55Z</time></trkpt><trkpt lat="43.01767062682988" lon="12.174420337296615"><ele>242.66666666666669</ele><time>2026-03-29T09:45:56Z</time></trkpt><trkpt lat="43.01771042788116" lon="12.17453295317333"><ele>242.0</ele><time>2026-03-29T09:45:57Z</time></trkpt><trkpt lat="43.01775350571017" lon="12.174652428204139"><ele>242.0</ele><time>2026-03-29T09:45:58Z</time></trkpt><trkpt lat="43.017802709109844" lon="12.174783897135239"><ele>242.0</ele><time>2026-03-29T09:45:59Z</time></trkpt><trkpt lat="43.017834767438245" lon="12.174932081046697"><ele>242.0</ele><time>2026-03-29T09:46:00Z</time></trkpt><trkpt lat="43.01788532807876" lon="12.175052205157419"><ele>242.0</ele><time>2026-03-29T09:46:01Z</time></trkpt><trkpt lat="43.017943599369126" lon="12.175183757365536"><ele>242.0</ele><time>2026-03-29T09:46:02Z</time></trkpt><trkpt lat="43.017993318395554" lon="12.175332957412818"><ele>242.5</ele><time>2026-03-29T09:46:03Z</time></trkpt><trkpt lat="43.01804568192887" lon="12.175481641234258"><ele>243.0</ele><time>2026-03-29T09:46:04Z</time></trkpt><trkpt lat="43.01809508799222" lon="12.175628317592146"><ele>243.5</ele><time>2026-03-29T09:46:05Z</time></trkpt><trkpt lat="43.018143685196314" lon="12.175759108073956"><ele>244.0</ele><time>2026-03-29T09:46:06Z</time></trkpt><trkpt lat="43.01819533005689" lon="12.175890935138048"><ele>245.25</ele><time>2026-03-29T09:46:07Z</time></trkpt><trkpt lat="43.0182495204183" lon="12.176027964990878"><ele>246.5</ele><time>2026-03-29T09:46:08Z</time></trkpt><trkpt lat="43.01830896098313" lon="12.176175909360296"><ele>247.75</ele><time>2026-03-29T09:46:09Z</time></trkpt><trkpt lat="43.018376219437044" lon="12.176344480891432"><ele>249.0</ele><time>2026-03-29T09:46:10Z</time></trkpt><trkpt lat="43.01842441342245" lon="12.176517347487916"><ele>252.25</ele><time>2026-03-29T09:46:11Z</time></trkpt><trkpt lat="43.01848252667206" lon="12.176677863583595"><ele>255.5</ele><time>2026-03-29T09:46:12Z</time></trkpt><trkpt lat="43.01853549715435" lon="12.176836862178499"><ele>258.75</ele><time>2026-03-29T09:46:13Z</time></trkpt><trkpt lat="43.01858282744694" lon="12.176952708713662"><ele>262.0</ele><time>2026-03-29T09:46:14Z</time></trkpt><trkpt lat="43.01864340561069" lon="12.177071727497717"><ele>262.0</ele><time>2026-03-29T09:46:16Z</time></trkpt><trkpt lat="43.01873475907069" lon="12.177036565194138"><ele>262.0</ele><time>2026-03-29T09:46:19Z</time></trkpt><trkpt lat="43.01879109753866" lon="12.176991147057436"><ele>262.0</ele><time>2026-03-29T09:46:20Z</time></trkpt><trkpt lat="43.01887078069572" lon="12.17692992560189"><ele>262.0</ele><time>2026-03-29T09:46:24Z</time></trkpt><trkpt lat="43.01897057031774" lon="12.176881106357435"><ele>262.0</ele><time>2026-03-29T09:46:26Z</time></trkpt><trkpt lat="43.01906375205955" lon="12.176835518992494"><ele>263.4</ele><time>2026-03-29T09:46:27Z</time></trkpt><trkpt lat="43.019153221434024" lon="12.176774564828115"><ele>264.79999999999995</ele><time>2026-03-29T09:46:28Z</time></trkpt><trkpt lat="43.0192488724213" lon="12.176744479926928"><ele>266.2</ele><time>2026-03-29T09:46:29Z</time></trkpt><trkpt lat="43.01932930287244" lon="12.17670204092718"><ele>267.59999999999997</ele><time>2026-03-29T09:46:30Z</time></trkpt><trkpt lat="43.01943275674207" lon="12.176706831371147"><ele>269.0</ele><time>2026-03-29T09:46:31Z</time></trkpt><trkpt lat="43.01952763004614" lon="12.176692895149223"><ele>269.0</ele><time>2026-03-29T09:46:32Z</time></trkpt><trkpt lat="43.01961566778641" lon="12.176669844744827"><ele>269.0</ele><time>2026-03-29T09:46:33Z</time></trkpt><trkpt lat="43.01970781601336" lon="12.17665794106083"><ele>269.0</ele><time>2026-03-29T09:46:34Z</time></trkpt><trkpt lat="43.01980237384683" lon="12.1766399862919"><ele>269.0</ele><time>2026-03-29T09:46:35Z</time></trkpt><trkpt lat="43.01989782612692" lon="12.176617736445053"><ele>269.0</ele><time>2026-03-29T09:46:36Z</time></trkpt><trkpt lat="43.01999960844056" lon="12.176598721766954"><ele>269.25</ele><time>2026-03-29T09:46:37Z</time></trkpt><trkpt lat="43.02011101651155" lon="12.176587701356848"><ele>269.5</ele><time>2026-03-29T09:46:38Z</time></trkpt><trkpt lat="43.02022773450851" lon="12.176567451745342"><ele>269.75</ele><time>2026-03-29T09:46:39Z</time></trkpt><trkpt lat="43.020353165563854" lon="12.176518101521006"><ele>270.0</ele><time>2026-03-29T09:46:40Z</time></trkpt><trkpt lat="43.02047590224104" lon="12.176488950875285"><ele>268.75</ele><time>2026-03-29T09:46:41Z</time></trkpt><trkpt lat="43.020613214773974" lon="12.176460903992044"><ele>267.5</ele><time>2026-03-29T09:46:42Z</time></trkpt><trkpt lat="43.02072701837043" lon="12.176435790738063"><ele>266.25</ele><time>2026-03-29T09:46:43Z</time></trkpt><trkpt lat="43.02084266133379" lon="12.176405712150107"><ele>265.0</ele><time>2026-03-29T09:46:44Z</time></trkpt><trkpt lat="43.020955199103106" lon="12.176391289567812"><ele>265.0</ele><time>2026-03-29T09:46:45Z</time></trkpt><trkpt lat="43.02107757835296" lon="12.176382616027137"><ele>265.0</ele><time>2026-03-29T09:46:46Z</time></trkpt><trkpt lat="43.02119498005685" lon="12.176365671841351"><ele>265.0</ele><time>2026-03-29T09:46:47Z</time></trkpt><trkpt lat="43.0212956612711" lon="12.176355110944087"><ele>265.0</ele><time>2026-03-29T09:46:48Z</time></trkpt><trkpt lat="43.02142806469367" lon="12.176327109596984"><ele>265.0</ele><time>2026-03-29T09:46:49Z</time></trkpt><trkpt lat="43.02153120042619" lon="12.17630484877381"><ele>265.0</ele><time>2026-03-29T09:46:50Z</time></trkpt><trkpt lat="43.02164184480953" lon="12.17626062503735"><ele>265.0</ele><time>2026-03-29T09:46:51Z</time></trkpt><trkpt lat="43.02176185877639" lon="12.176208462763787"><ele>265.0</ele><time>2026-03-29T09:46:52Z</time></trkpt><trkpt lat="43.02188817440494" lon="12.176163147571199"><ele>266.75</ele><time>2026-03-29T09:46:53Z</time></trkpt><trkpt lat="43.02202677518317" lon="12.17611759448892"><ele>268.5</ele><time>2026-03-29T09:46:54Z</time></trkpt><trkpt lat="43.02215217568202" lon="12.176067944267585"><ele>270.25</ele><time>2026-03-29T09:46:55Z</time></trkpt><trkpt lat="43.022272881759136" lon="12.176021951025419"><ele>272.0</ele><time>2026-03-29T09:46:56Z</time></trkpt><trkpt lat="43.0223916846432" lon="12.175977366297639"><ele>273.2</ele><time>2026-03-29T09:46:57Z</time></trkpt><trkpt lat="43.02249833035745" lon="12.175933862476532"><ele>274.4</ele><time>2026-03-29T09:46:58Z</time></trkpt><trkpt lat="43.0226092958225" lon="12.175896470088407"><ele>275.6</ele><time>2026-03-29T09:46:59Z</time></trkpt><trkpt lat="43.02273143423044" lon="12.175856951059428"><ele>276.8</ele><time>2026-03-29T09:47:00Z</time></trkpt><trkpt lat="43.02282186271755" lon="12.175815461279837"><ele>278.0</ele><time>2026-03-29T09:47:01Z</time></trkpt><trkpt lat="43.022911265439305" lon="12.1757730891838"><ele>278.0</ele><time>2026-03-29T09:47:02Z</time></trkpt><trkpt lat="43.02301355785807" lon="12.175722976659856"><ele>278.0</ele><time>2026-03-29T09:47:04Z</time></trkpt><trkpt lat="43.02308604841612" lon="12.175736710944687"><ele>278.0</ele><time>2026-03-29T09:47:06Z</time></trkpt><trkpt lat="43.023084769643475" lon="12.175832503127383"><ele>278.0</ele><time>2026-03-29T09:47:08Z</time></trkpt><trkpt lat="43.02308371831504" lon="12.176020595535759"><ele>278.0</ele><time>2026-03-29T09:47:10Z</time></trkpt><trkpt lat="43.02311129867076" lon="12.176140300059378"><ele>278.0</ele><time>2026-03-29T09:47:11Z</time></trkpt><trkpt lat="43.02313970398708" lon="12.176261681011109"><ele>278.0</ele><time>2026-03-29T09:47:12Z</time></trkpt><trkpt lat="43.0231588933525" lon="12.176373926118762"><ele>278.0</ele><time>2026-03-29T09:47:13Z</time></trkpt><trkpt lat="43.02318821213306" lon="12.176480614784786"><ele>278.0</ele><time>2026-03-29T09:47:14Z</time></trkpt><trkpt lat="43.02321862251287" lon="12.176584684797643"><ele>278.0</ele><time>2026-03-29T09:47:15Z</time></trkpt><trkpt lat="43.0232485505721" lon="12.176704200138248"><ele>278.0</ele><time>2026-03-29T09:47:16Z</time></trkpt><trkpt lat="43.02327024016689" lon="12.17680689711925"><ele>276.8</ele><time>2026-03-29T09:47:17Z</time></trkpt><trkpt lat="43.02329204895005" lon="12.176911227487027"><ele>275.6</ele><time>2026-03-29T09:47:18Z</time></trkpt><trkpt lat="43.023322550844725" lon="12.177029436314754"><ele>274.4</ele><time>2026-03-29T09:47:19Z</time></trkpt><trkpt lat="43.02336252696894" lon="12.177162229068948"><ele>273.2</ele><time>2026-03-29T09:47:20Z</time></trkpt><trkpt lat="43.023401125844345" lon="12.17728870800699"><ele>272.0</ele><time>2026-03-29T09:47:21Z</time></trkpt><trkpt lat="43.023449650700954" lon="12.177420567574947"><ele>270.5</ele><time>2026-03-29T09:47:22Z</time></trkpt><trkpt lat="43.02348511336963" lon="12.177539160337586"><ele>269.0</ele><time>2026-03-29T09:47:23Z</time></trkpt><trkpt lat="43.023510464929544" lon="12.177631827239848"><ele>267.5</ele><time>2026-03-29T09:47:24Z</time></trkpt><trkpt lat="43.02355138263822" lon="12.177718100504718"><ele>266.0</ele><time>2026-03-29T09:47:25Z</time></trkpt><trkpt lat="43.023591598246675" lon="12.177787735936816"><ele>264.5</ele><time>2026-03-29T09:47:26Z</time></trkpt><trkpt lat="43.0236455050491" lon="12.177832348215633"><ele>263.0</ele><time>2026-03-29T09:47:27Z</time></trkpt><trkpt lat="43.02377757697531" lon="12.177789076496829"><ele>263.0</ele><time>2026-03-29T09:47:29Z</time></trkpt><trkpt lat="43.02386603033358" lon="12.177789434772642"><ele>263.0</ele><time>2026-03-29T09:47:30Z</time></trkpt><trkpt lat="43.023949844740706" lon="12.177840393050207"><ele>263.0</ele><time>2026-03-29T09:47:31Z</time></trkpt><trkpt lat="43.02404263874795" lon="12.177930264024885"><ele>263.0</ele><time>2026-03-29T09:47:32Z</time></trkpt><trkpt lat="43.024122152235286" lon="12.178034881589083"><ele>263.0</ele><time>2026-03-29T09:47:33Z</time></trkpt><trkpt lat="43.024179759336384" lon="12.178103710617911"><ele>262.2</ele><time>2026-03-29T09:47:34Z</time></trkpt><trkpt lat="43.02422953419387" lon="12.178164081002167"><ele>261.4</ele><time>2026-03-29T09:47:35Z</time></trkpt><trkpt lat="43.024277815948835" lon="12.17827710522519"><ele>260.59999999999997</ele><time>2026-03-29T09:47:37Z</time></trkpt><trkpt lat="43.02435124681085" lon="12.17839637994641"><ele>259.8</ele><time>2026-03-29T09:47:39Z</time></trkpt><trkpt lat="43.02444936687329" lon="12.178469483954776"><ele>259.0</ele><time>2026-03-29T09:47:41Z</time></trkpt><trkpt lat="43.02453903576419" lon="12.178567643775448"><ele>257.66666666666663</ele><time>2026-03-29T09:47:43Z</time></trkpt><trkpt lat="43.02459244309992" lon="12.178617451993965"><ele>256.3333333333333</ele><time>2026-03-29T09:47:44Z</time></trkpt><trkpt lat="43.02464450903817" lon="12.178669495881723"><ele>255.0</ele><time>2026-03-29T09:47:45Z</time></trkpt><trkpt lat="43.02470879914575" lon="12.178733398819507"><ele>253.66666666666669</ele><time>2026-03-29T09:47:46Z</time></trkpt><trkpt lat="43.024770205157225" lon="12.17880079254363"><ele>252.33333333333334</ele><time>2026-03-29T09:47:47Z</time></trkpt><trkpt lat="43.024824681953625" lon="12.178893464839446"><ele>251.0</ele><time>2026-03-29T09:47:48Z</time></trkpt><trkpt lat="43.02488939103708" lon="12.17896864940105"><ele>251.66666666666669</ele><time>2026-03-29T09:47:49Z</time></trkpt><trkpt lat="43.0249408424981" lon="12.179034752487071"><ele>252.33333333333334</ele><time>2026-03-29T09:47:50Z</time></trkpt><trkpt lat="43.02500015100703" lon="12.179100086450195"><ele>253.0</ele><time>2026-03-29T09:47:51Z</time></trkpt><trkpt lat="43.025084256072596" lon="12.179182197598049"><ele>253.66666666666669</ele><time>2026-03-29T09:47:52Z</time></trkpt><trkpt lat="43.02515102411011" lon="12.17927652103027"><ele>254.33333333333334</ele><time>2026-03-29T09:47:53Z</time></trkpt><trkpt lat="43.025210878378125" lon="12.179353312883737"><ele>255.0</ele><time>2026-03-29T09:47:54Z</time></trkpt><trkpt lat="43.02527173851116" lon="12.179433475006295"><ele>256.4</ele><time>2026-03-29T09:47:55Z</time></trkpt><trkpt lat="43.02532452909076" lon="12.179509249296972"><ele>257.8</ele><time>2026-03-29T09:47:56Z</time></trkpt><trkpt lat="43.02539907105729" lon="12.179561051410198"><ele>259.2</ele><time>2026-03-29T09:47:57Z</time></trkpt><trkpt lat="43.02548033744609" lon="12.179624413879301"><ele>260.6</ele><time>2026-03-29T09:47:58Z</time></trkpt><trkpt lat="43.02557824797239" lon="12.179677972747003"><ele>262.0</ele><time>2026-03-29T09:47:59Z</time></trkpt><trkpt lat="43.02568502985849" lon="12.179747442502634"><ele>264.4</ele><time>2026-03-29T09:48:00Z</time></trkpt><trkpt lat="43.02576184620592" lon="12.179856267591123"><ele>266.79999999999995</ele><time>2026-03-29T09:48:01Z</time></trkpt><trkpt lat="43.02584125665684" lon="12.179959069672554"><ele>269.2</ele><time>2026-03-29T09:48:02Z</time></trkpt><trkpt lat="43.02592229671939" lon="12.18005146252633"><ele>271.59999999999997</ele><time>2026-03-29T09:48:03Z</time></trkpt><trkpt lat="43.025987805260606" lon="12.180161734480627"><ele>274.0</ele><time>2026-03-29T09:48:04Z</time></trkpt><trkpt lat="43.02603544804616" lon="12.180274960988525"><ele>274.0</ele><time>2026-03-29T09:48:05Z</time></trkpt><trkpt lat="43.026007406950725" lon="12.180459636994803"><ele>274.0</ele><time>2026-03-29T09:48:06Z</time></trkpt><trkpt lat="43.02603865507971" lon="12.180588152039604"><ele>274.0</ele><time>2026-03-29T09:48:07Z</time></trkpt><trkpt lat="43.02606007987715" lon="12.180724741787063"><ele>274.0</ele><time>2026-03-29T09:48:08Z</time></trkpt><trkpt lat="43.0260812949639" lon="12.180882857565704"><ele>275.4</ele><time>2026-03-29T09:48:09Z</time></trkpt><trkpt lat="43.02611088004147" lon="12.181015791471975"><ele>276.79999999999995</ele><time>2026-03-29T09:48:10Z</time></trkpt><trkpt lat="43.026183770873395" lon="12.181107544374921"><ele>278.20000000000005</ele><time>2026-03-29T09:48:11Z</time></trkpt><trkpt lat="43.02624651240231" lon="12.181203486582818"><ele>279.6</ele><time>2026-03-29T09:48:12Z</time></trkpt><trkpt lat="43.026320129209566" lon="12.181283598252318"><ele>281.0</ele><time>2026-03-29T09:48:13Z</time></trkpt><trkpt lat="43.02639251908628" lon="12.181365441616844"><ele>281.0</ele><time>2026-03-29T09:48:14Z</time></trkpt><trkpt lat="43.02647023603745" lon="12.181441437005743"><ele>281.0</ele><time>2026-03-29T09:48:15Z</time></trkpt><trkpt lat="43.02651443351768" lon="12.181543889516554"><ele>281.0</ele><time>2026-03-29T09:48:16Z</time></trkpt><trkpt lat="43.02654419609656" lon="12.18164582845388"><ele>281.0</ele><time>2026-03-29T09:48:17Z</time></trkpt><trkpt lat="43.02656093724954" lon="12.181796791925585"><ele>281.0</ele><time>2026-03-29T09:48:18Z</time></trkpt><trkpt lat="43.026592537211286" lon="12.18194025106673"><ele>281.8</ele><time>2026-03-29T09:48:19Z</time></trkpt><trkpt lat="43.02660252637687" lon="12.182114028630107"><ele>282.6</ele><time>2026-03-29T09:48:20Z</time></trkpt><trkpt lat="43.02659353671773" lon="12.18224479165825"><ele>283.4</ele><time>2026-03-29T09:48:21Z</time></trkpt><trkpt lat="43.02656636577329" lon="12.18233073929733"><ele>284.2</ele><time>2026-03-29T09:48:22Z</time></trkpt><trkpt lat="43.02650447901911" lon="12.182434797732514"><ele>285.0</ele><time>2026-03-29T09:48:23Z</time></trkpt><trkpt lat="43.02643506901187" lon="12.182539643752424"><ele>285.0</ele><time>2026-03-29T09:48:24Z</time></trkpt><trkpt lat="43.026378163332346" lon="12.18261541969361"><ele>285.0</ele><time>2026-03-29T09:48:25Z</time></trkpt><trkpt lat="43.02633434991795" lon="12.182687586415321"><ele>285.0</ele><time>2026-03-29T09:48:26Z</time></trkpt><trkpt lat="43.02629360343133" lon="12.182812208882103"><ele>285.0</ele><time>2026-03-29T09:48:27Z</time></trkpt><trkpt lat="43.0262891074227" lon="12.182911089627897"><ele>285.0</ele><time>2026-03-29T09:48:28Z</time></trkpt><trkpt lat="43.02629544241916" lon="12.18302054876725"><ele>285.0</ele><time>2026-03-29T09:48:29Z</time></trkpt><trkpt lat="43.026299438149636" lon="12.183141364967094"><ele>284.8</ele><time>2026-03-29T09:48:30Z</time></trkpt><trkpt lat="43.026286608401335" lon="12.183252826568829"><ele>284.6</ele><time>2026-03-29T09:48:31Z</time></trkpt><trkpt lat="43.02624010458921" lon="12.183333850154499"><ele>284.4</ele><time>2026-03-29T09:48:32Z</time></trkpt><trkpt lat="43.02612393271479" lon="12.183434491408402"><ele>284.2</ele><time>2026-03-29T09:48:34Z</time></trkpt><trkpt lat="43.02603373052687" lon="12.18344997627865"><ele>284.0</ele><time>2026-03-29T09:48:35Z</time></trkpt><trkpt lat="43.02594944654774" lon="12.183419470820278"><ele>284.0</ele><time>2026-03-29T09:48:36Z</time></trkpt><trkpt lat="43.02583726121876" lon="12.183448732444159"><ele>284.0</ele><time>2026-03-29T09:48:38Z</time></trkpt><trkpt lat="43.02582000097811" lon="12.18356906703095"><ele>284.0</ele><time>2026-03-29T09:48:40Z</time></trkpt><trkpt lat="43.02588657873484" lon="12.183704614758947"><ele>284.0</ele><time>2026-03-29T09:48:42Z</time></trkpt><trkpt lat="43.02596879431166" lon="12.183747474693735"><ele>284.0</ele><time>2026-03-29T09:48:46Z</time></trkpt><trkpt lat="43.02605022419506" lon="12.18396095418458"><ele>283.5</ele><time>2026-03-29T09:48:48Z</time></trkpt><trkpt lat="43.026087867669396" lon="12.184159946839213"><ele>283.0</ele><time>2026-03-29T09:48:49Z</time></trkpt><trkpt lat="43.02613950778565" lon="12.18429437601268"><ele>282.5</ele><time>2026-03-29T09:48:50Z</time></trkpt><trkpt lat="43.0261932988951" lon="12.184425189308561"><ele>282.0</ele><time>2026-03-29T09:48:51Z</time></trkpt><trkpt lat="43.02621935470421" lon="12.184571258603878"><ele>282.0</ele><time>2026-03-29T09:48:52Z</time></trkpt><trkpt lat="43.02623495041991" lon="12.184704908009621"><ele>282.0</ele><time>2026-03-29T09:48:53Z</time></trkpt><trkpt lat="43.02623343860366" lon="12.184800877554478"><ele>282.0</ele><time>2026-03-29T09:48:54Z</time></trkpt><trkpt lat="43.026264749400035" lon="12.18487860297034"><ele>282.0</ele><time>2026-03-29T09:48:56Z</time></trkpt><trkpt lat="43.026307704081184" lon="12.184802234919655"><ele>282.0</ele><time>2026-03-29T09:48:59Z</time></trkpt><trkpt lat="43.02628085410945" lon="12.184723433053422"><ele>282.0</ele><time>2026-03-29T09:49:00Z</time></trkpt><trkpt lat="43.02628552567304" lon="12.184623042006"><ele>282.0</ele><time>2026-03-29T09:49:01Z</time></trkpt><trkpt lat="43.02627374353744" lon="12.184535972470668"><ele>282.0</ele><time>2026-03-29T09:49:02Z</time></trkpt><trkpt lat="43.02625971442154" lon="12.184437172794093"><ele>282.0</ele><time>2026-03-29T09:49:03Z</time></trkpt><trkpt lat="43.02623369729097" lon="12.184300266988622"><ele>282.0</ele><time>2026-03-29T09:49:05Z</time></trkpt><trkpt lat="43.02623129147278" lon="12.18419953035015"><ele>282.0</ele><time>2026-03-29T09:49:06Z</time></trkpt><trkpt lat="43.02670292154345" lon="12.183953583761436"><ele>283.6</ele><time>2026-03-29T09:49:07Z</time></trkpt><trkpt lat="43.0267507703205" lon="12.183820839539495"><ele>285.2</ele><time>2026-03-29T09:49:08Z</time></trkpt><trkpt lat="43.0267913338446" lon="12.183680356733124"><ele>286.8</ele><time>2026-03-29T09:49:09Z</time></trkpt><trkpt lat="43.02683452486325" lon="12.18355909695477"><ele>288.4</ele><time>2026-03-29T09:49:10Z</time></trkpt><trkpt lat="43.0268764569807" lon="12.18342931948637"><ele>290.0</ele><time>2026-03-29T09:49:11Z</time></trkpt><trkpt lat="43.02691552618304" lon="12.183323102621262"><ele>290.0</ele><time>2026-03-29T09:49:12Z</time></trkpt><trkpt lat="43.02695298905384" lon="12.183217159704439"><ele>290.0</ele><time>2026-03-29T09:49:13Z</time></trkpt><trkpt lat="43.027051262864624" lon="12.183162781623246"><ele>290.0</ele><time>2026-03-29T09:49:14Z</time></trkpt><trkpt lat="43.02710073149876" lon="12.183077518972343"><ele>290.0</ele><time>2026-03-29T09:49:15Z</time></trkpt><trkpt lat="43.02714618043038" lon="12.183000572972523"><ele>290.0</ele><time>2026-03-29T09:49:16Z</time></trkpt><trkpt lat="43.027203561334844" lon="12.182873670305247"><ele>290.0</ele><time>2026-03-29T09:49:18Z</time></trkpt><trkpt lat="43.02727015899218" lon="12.18282803527808"><ele>290.0</ele><time>2026-03-29T09:49:20Z</time></trkpt><trkpt lat="43.02730109998115" lon="12.183076408735939"><ele>290.0</ele><time>2026-03-29T09:49:24Z</time></trkpt><trkpt lat="43.02728958299337" lon="12.183164883268102"><ele>290.0</ele><time>2026-03-29T09:49:25Z</time></trkpt><trkpt lat="43.02730132961244" lon="12.183288484085374"><ele>290.0</ele><time>2026-03-29T09:49:26Z</time></trkpt><trkpt lat="43.02731228943559" lon="12.183386359139092"><ele>290.0</ele><time>2026-03-29T09:49:27Z</time></trkpt><trkpt lat="43.02734767931197" lon="12.183474052885398"><ele>290.0</ele><time>2026-03-29T09:49:28Z</time></trkpt><trkpt lat="43.027400559794806" lon="12.183533775079677"><ele>290.0</ele><time>2026-03-29T09:49:29Z</time></trkpt><trkpt lat="43.02748616850687" lon="12.183561764396316"><ele>290.0</ele><time>2026-03-29T09:49:30Z</time></trkpt><trkpt lat="43.027563883745636" lon="12.18364611567194"><ele>290.0</ele><time>2026-03-29T09:49:31Z</time></trkpt><trkpt lat="43.02762294221647" lon="12.18372178191655"><ele>290.0</ele><time>2026-03-29T09:49:32Z</time></trkpt><trkpt lat="43.027696519923666" lon="12.183775926456207"><ele>291.6666666666667</ele><time>2026-03-29T09:49:33Z</time></trkpt><trkpt lat="43.02776389277113" lon="12.183845659604923"><ele>293.33333333333337</ele><time>2026-03-29T09:49:34Z</time></trkpt><trkpt lat="43.02781923270735" lon="12.18392733294806"><ele>295.0</ele><time>2026-03-29T09:49:35Z</time></trkpt><trkpt lat="43.02787378131107" lon="12.18403463970769"><ele>296.6666666666667</ele><time>2026-03-29T09:49:36Z</time></trkpt><trkpt lat="43.027927783711135" lon="12.184125651973584"><ele>298.3333333333333</ele><time>2026-03-29T09:49:37Z</time></trkpt><trkpt lat="43.02799699758012" lon="12.184218425760788"><ele>300.0</ele><time>2026-03-29T09:49:38Z</time></trkpt><trkpt lat="43.028083153473844" lon="12.184311567438167"><ele>301.2</ele><time>2026-03-29T09:49:39Z</time></trkpt><trkpt lat="43.02818122676154" lon="12.184413346738188"><ele>302.4</ele><time>2026-03-29T09:49:40Z</time></trkpt><trkpt lat="43.02826579673799" lon="12.184503459005212"><ele>303.6</ele><time>2026-03-29T09:49:41Z</time></trkpt><trkpt lat="43.028354039997424" lon="12.184563195497196"><ele>304.8</ele><time>2026-03-29T09:49:42Z</time></trkpt><trkpt lat="43.02844018424905" lon="12.18456593911905"><ele>306.0</ele><time>2026-03-29T09:49:43Z</time></trkpt><trkpt lat="43.02852230966762" lon="12.18460151092836"><ele>308.40000000000003</ele><time>2026-03-29T09:49:44Z</time></trkpt><trkpt lat="43.02856943098797" lon="12.184690821167937"><ele>310.8</ele><time>2026-03-29T09:49:46Z</time></trkpt><trkpt lat="43.02864402512557" lon="12.184741716094301"><ele>313.20000000000005</ele><time>2026-03-29T09:49:48Z</time></trkpt><trkpt lat="43.02875829528764" lon="12.184761752438051"><ele>315.6</ele><time>2026-03-29T09:49:50Z</time></trkpt><trkpt lat="43.02882335552429" lon="12.184829571382764"><ele>318.0</ele><time>2026-03-29T09:49:54Z</time></trkpt><trkpt lat="43.02892238307541" lon="12.184877595529517"><ele>319.3333333333333</ele><time>2026-03-29T09:49:55Z</time></trkpt><trkpt lat="43.02897705240896" lon="12.184969391070679"><ele>320.6666666666667</ele><time>2026-03-29T09:49:56Z</time></trkpt><trkpt lat="43.029017762307355" lon="12.185070579472002"><ele>322.0</ele><time>2026-03-29T09:49:57Z</time></trkpt><trkpt lat="43.029053498430024" lon="12.185166155491405"><ele>323.33333333333337</ele><time>2026-03-29T09:49:58Z</time></trkpt><trkpt lat="43.029097969785106" lon="12.185256658458853"><ele>324.6666666666667</ele><time>2026-03-29T09:49:59Z</time></trkpt><trkpt lat="43.029131080107824" lon="12.185344641376428"><ele>326.0</ele><time>2026-03-29T09:50:00Z</time></trkpt><trkpt lat="43.0291868705799" lon="12.185420170302821"><ele>328.6</ele><time>2026-03-29T09:50:01Z</time></trkpt><trkpt lat="43.02924868959147" lon="12.185522729542592"><ele>331.20000000000005</ele><time>2026-03-29T09:50:02Z</time></trkpt><trkpt lat="43.02930512835084" lon="12.185620667307719"><ele>333.79999999999995</ele><time>2026-03-29T09:50:03Z</time></trkpt><trkpt lat="43.02935722412818" lon="12.185735330541858"><ele>336.4</ele><time>2026-03-29T09:50:04Z</time></trkpt><trkpt lat="43.02941093102247" lon="12.185814423270926"><ele>339.0</ele><time>2026-03-29T09:50:05Z</time></trkpt><trkpt lat="43.02945991664793" lon="12.185908895417738"><ele>340.8333333333333</ele><time>2026-03-29T09:50:06Z</time></trkpt><trkpt lat="43.02950706802732" lon="12.186016941017385"><ele>342.6666666666667</ele><time>2026-03-29T09:50:07Z</time></trkpt><trkpt lat="43.029543322353504" lon="12.186119906385278"><ele>344.5</ele><time>2026-03-29T09:50:08Z</time></trkpt><trkpt lat="43.02957557947153" lon="12.186203201081764"><ele>346.33333333333337</ele><time>2026-03-29T09:50:09Z</time></trkpt><trkpt lat="43.02961903863371" lon="12.18630740147737"><ele>348.1666666666667</ele><time>2026-03-29T09:50:10Z</time></trkpt><trkpt lat="43.02965904882326" lon="12.18637711594613"><ele>350.0</ele><time>2026-03-29T09:50:11Z</time></trkpt><trkpt lat="43.029709330403676" lon="12.18644936365564"><ele>351.0</ele><time>2026-03-29T09:50:12Z</time></trkpt><trkpt lat="43.02975081271778" lon="12.186541014046401"><ele>352.0</ele><time>2026-03-29T09:50:13Z</time></trkpt><trkpt lat="43.02985262468273" lon="12.186605550511723"><ele>353.0</ele><time>2026-03-29T09:50:15Z</time></trkpt><trkpt lat="43.02994193301737" lon="12.186614915766379"><ele>354.0</ele><time>2026-03-29T09:50:16Z</time></trkpt><trkpt lat="43.030018917867416" lon="12.186633565040474"><ele>355.0</ele><time>2026-03-29T09:50:17Z</time></trkpt><trkpt lat="43.03010591862419" lon="12.186786185099264"><ele>357.2857142857143</ele><time>2026-03-29T09:50:19Z</time></trkpt><trkpt lat="43.03014294086338" lon="12.18688368773186"><ele>359.57142857142856</ele><time>2026-03-29T09:50:20Z</time></trkpt><trkpt lat="43.030195264910965" lon="12.186940464298878"><ele>361.8571428571429</ele><time>2026-03-29T09:50:21Z</time></trkpt><trkpt lat="43.03025844280352" lon="12.186979386339925"><ele>364.1428571428571</ele><time>2026-03-29T09:50:22Z</time></trkpt><trkpt lat="43.03031956393668" lon="12.187010330035244"><ele>366.42857142857144</ele><time>2026-03-29T09:50:23Z</time></trkpt><trkpt lat="43.03038271604773" lon="12.187063238369813"><ele>368.7142857142857</ele><time>2026-03-29T09:50:24Z</time></trkpt><trkpt lat="43.03045480994895" lon="12.187122451705166"><ele>371.0</ele><time>2026-03-29T09:50:25Z</time></trkpt><trkpt lat="43.03053069050612" lon="12.187205053010679"><ele>371.0</ele><time>2026-03-29T09:50:26Z</time></trkpt><trkpt lat="43.03061491025517" lon="12.187303109423913"><ele>371.0</ele><time>2026-03-29T09:50:27Z</time></trkpt><trkpt lat="43.03069518259677" lon="12.187416037649054"><ele>371.0</ele><time>2026-03-29T09:50:28Z</time></trkpt><trkpt lat="43.03074848809491" lon="12.187530573383523"><ele>371.0</ele><time>2026-03-29T09:50:29Z</time></trkpt><trkpt lat="43.03079391002787" lon="12.187624661770652"><ele>371.0</ele><time>2026-03-29T09:50:30Z</time></trkpt><trkpt lat="43.03085120924056" lon="12.187763010747938"><ele>373.6</ele><time>2026-03-29T09:50:32Z</time></trkpt><trkpt lat="43.0309001347765" lon="12.187905061547205"><ele>376.20000000000005</ele><time>2026-03-29T09:50:34Z</time></trkpt><trkpt lat="43.03096612917946" lon="12.187974128174366"><ele>378.79999999999995</ele><time>2026-03-29T09:50:36Z</time></trkpt><trkpt lat="43.031047423303995" lon="12.18801221972643"><ele>381.4</ele><time>2026-03-29T09:50:38Z</time></trkpt><trkpt lat="43.03110076178932" lon="12.188079441017212"><ele>384.0</ele><time>2026-03-29T09:50:41Z</time></trkpt><trkpt lat="43.03119112475657" lon="12.188123939067411"><ele>384.0</ele><time>2026-03-29T09:50:44Z</time></trkpt><trkpt lat="43.03135600414889" lon="12.188142823514834"><ele>384.0</ele><time>2026-03-29T09:50:46Z</time></trkpt><trkpt lat="43.03143832152315" lon="12.188159088073371"><ele>384.0</ele><time>2026-03-29T09:50:47Z</time></trkpt><trkpt lat="43.03152907825817" lon="12.188171453145214"><ele>384.0</ele><time>2026-03-29T09:50:48Z</time></trkpt><trkpt lat="43.03163634703382" lon="12.188191467841019"><ele>384.0</ele><time>2026-03-29T09:50:49Z</time></trkpt><trkpt lat="43.03171803027959" lon="12.188198461466493"><ele>384.4</ele><time>2026-03-29T09:50:50Z</time></trkpt><trkpt lat="43.03181238459834" lon="12.18818096589435"><ele>384.79999999999995</ele><time>2026-03-29T09:50:51Z</time></trkpt><trkpt lat="43.031898002973904" lon="12.188155633051863"><ele>385.20000000000005</ele><time>2026-03-29T09:50:52Z</time></trkpt><trkpt lat="43.03199642121938" lon="12.188094630871412"><ele>385.6</ele><time>2026-03-29T09:50:53Z</time></trkpt><trkpt lat="43.03207973942434" lon="12.188039982771963"><ele>386.0</ele><time>2026-03-29T09:50:54Z</time></trkpt><trkpt lat="43.03214778862859" lon="12.187986221582923"><ele>386.49999999999994</ele><time>2026-03-29T09:50:55Z</time></trkpt><trkpt lat="43.032225373515715" lon="12.187897007628926"><ele>387.0</ele><time>2026-03-29T09:50:56Z</time></trkpt><trkpt lat="43.03229677361812" lon="12.187825907451115"><ele>387.5</ele><time>2026-03-29T09:50:57Z</time></trkpt><trkpt lat="43.03233397464285" lon="12.18774282093454"><ele>388.0</ele><time>2026-03-29T09:50:58Z</time></trkpt><trkpt lat="43.03233807913393" lon="12.187630457577047"><ele>388.49999999999994</ele><time>2026-03-29T09:50:59Z</time></trkpt><trkpt lat="43.032340126093224" lon="12.187538284467651"><ele>389.0</ele><time>2026-03-29T09:51:00Z</time></trkpt><trkpt lat="43.03244258716745" lon="12.187531636280655"><ele>392.3333333333333</ele><time>2026-03-29T09:51:02Z</time></trkpt><trkpt lat="43.032497601352105" lon="12.187597620749225"><ele>395.66666666666663</ele><time>2026-03-29T09:51:03Z</time></trkpt><trkpt lat="43.03256852480616" lon="12.187695441325882"><ele>399.0</ele><time>2026-03-29T09:51:04Z</time></trkpt><trkpt lat="43.032629635587924" lon="12.18775531866527"><ele>402.33333333333337</ele><time>2026-03-29T09:51:05Z</time></trkpt><trkpt lat="43.032682459351584" lon="12.187802747152013"><ele>405.6666666666667</ele><time>2026-03-29T09:51:06Z</time></trkpt><trkpt lat="43.032773181346414" lon="12.187893140254433"><ele>409.0</ele><time>2026-03-29T09:51:08Z</time></trkpt><trkpt lat="43.03284997070838" lon="12.187906354956109"><ele>409.0</ele><time>2026-03-29T09:51:09Z</time></trkpt><trkpt lat="43.0329595823597" lon="12.187812114122172"><ele>409.0</ele><time>2026-03-29T09:51:11Z</time></trkpt><trkpt lat="43.03303041982127" lon="12.187668332801966"><ele>409.0</ele><time>2026-03-29T09:51:13Z</time></trkpt><trkpt lat="43.03305620153064" lon="12.187534651225361"><ele>409.0</ele><time>2026-03-29T09:51:14Z</time></trkpt><trkpt lat="43.033075623508914" lon="12.187437203380975"><ele>409.0</ele><time>2026-03-29T09:51:15Z</time></trkpt><trkpt lat="43.03310387667564" lon="12.18734746562917"><ele>407.6666666666667</ele><time>2026-03-29T09:51:16Z</time></trkpt><trkpt lat="43.033162013620775" lon="12.187258707124643"><ele>406.33333333333337</ele><time>2026-03-29T09:51:17Z</time></trkpt><trkpt lat="43.03321230310338" lon="12.187189917426851"><ele>405.0</ele><time>2026-03-29T09:51:18Z</time></trkpt><trkpt lat="43.033252165132865" lon="12.187107533366541"><ele>403.66666666666663</ele><time>2026-03-29T09:51:19Z</time></trkpt><trkpt lat="43.03328321134656" lon="12.187027831171969"><ele>402.3333333333333</ele><time>2026-03-29T09:51:20Z</time></trkpt><trkpt lat="43.03331137225472" lon="12.186915416081066"><ele>401.0</ele><time>2026-03-29T09:51:21Z</time></trkpt><trkpt lat="43.03343193364322" lon="12.186866898829097"><ele>404.3333333333333</ele><time>2026-03-29T09:51:23Z</time></trkpt><trkpt lat="43.0335067065073" lon="12.186856466983503"><ele>407.66666666666663</ele><time>2026-03-29T09:51:24Z</time></trkpt><trkpt lat="43.03359053446977" lon="12.186842439714756"><ele>411.0</ele><time>2026-03-29T09:51:25Z</time></trkpt><trkpt lat="43.03367457112469" lon="12.186802052997129"><ele>414.33333333333337</ele><time>2026-03-29T09:51:26Z</time></trkpt><trkpt lat="43.03378525399046" lon="12.186764647634517"><ele>417.6666666666667</ele><time>2026-03-29T09:51:27Z</time></trkpt><trkpt lat="43.03385686924531" lon="12.186746544778025"><ele>421.0</ele><time>2026-03-29T09:51:28Z</time></trkpt><trkpt lat="43.03395612741053" lon="12.186699453581953"><ele>421.0</ele><time>2026-03-29T09:51:30Z</time></trkpt><trkpt lat="43.03406374624404" lon="12.186557099916703"><ele>421.0</ele><time>2026-03-29T09:51:49Z</time></trkpt><trkpt lat="43.03421195827445" lon="12.186555560266614"><ele>421.0</ele><time>2026-03-29T09:51:52Z</time></trkpt><trkpt lat="43.034340437426174" lon="12.186612447975644"><ele>421.0</ele><time>2026-03-29T09:51:54Z</time></trkpt><trkpt lat="43.03442571073276" lon="12.186643796167825"><ele>421.83333333333337</ele><time>2026-03-29T09:51:55Z</time></trkpt><trkpt lat="43.034492243211396" lon="12.18667911170211"><ele>422.6666666666667</ele><time>2026-03-29T09:51:56Z</time></trkpt><trkpt lat="43.03460239306552" lon="12.186729805972789"><ele>423.5</ele><time>2026-03-29T09:51:58Z</time></trkpt><trkpt lat="43.0346847382416" lon="12.186720675985617"><ele>424.33333333333337</ele><time>2026-03-29T09:51:59Z</time></trkpt><trkpt lat="43.03474976749038" lon="12.186716686420361"><ele>425.1666666666667</ele><time>2026-03-29T09:52:00Z</time></trkpt><trkpt lat="43.03481274179478" lon="12.186732609013896"><ele>426.0</ele><time>2026-03-29T09:52:01Z</time></trkpt><trkpt lat="43.03487687501362" lon="12.186725141807923"><ele>426.0</ele><time>2026-03-29T09:52:02Z</time></trkpt><trkpt lat="43.03493458270787" lon="12.18668593186078"><ele>426.0</ele><time>2026-03-29T09:52:03Z</time></trkpt><trkpt lat="43.034997910825275" lon="12.186646537580147"><ele>426.0</ele><time>2026-03-29T09:52:04Z</time></trkpt><trkpt lat="43.03512199436795" lon="12.186588995090172"><ele>426.0</ele><time>2026-03-29T09:52:06Z</time></trkpt><trkpt lat="43.03518665869722" lon="12.186584491057626"><ele>426.0</ele><time>2026-03-29T09:52:07Z</time></trkpt><trkpt lat="43.03529297089351" lon="12.186578795149986"><ele>426.0</ele><time>2026-03-29T09:52:09Z</time></trkpt><trkpt lat="43.03536982438042" lon="12.186507735645185"><ele>423.6666666666667</ele><time>2026-03-29T09:52:11Z</time></trkpt><trkpt lat="43.03543134499316" lon="12.186401305396087"><ele>421.33333333333337</ele><time>2026-03-29T09:52:13Z</time></trkpt><trkpt lat="43.03545800994205" lon="12.186291263562705"><ele>419.0</ele><time>2026-03-29T09:52:22Z</time></trkpt><trkpt lat="43.035543458918916" lon="12.186198877574983"><ele>416.6666666666667</ele><time>2026-03-29T09:52:24Z</time></trkpt><trkpt lat="43.03558500845212" lon="12.186126457769358"><ele>414.33333333333337</ele><time>2026-03-29T09:52:25Z</time></trkpt><trkpt lat="43.035633950134745" lon="12.186050013526442"><ele>412.0</ele><time>2026-03-29T09:52:26Z</time></trkpt><trkpt lat="43.035702656044435" lon="12.186010694214472"><ele>415.40000000000003</ele><time>2026-03-29T09:52:27Z</time></trkpt><trkpt lat="43.0358416124782" lon="12.185923780163815"><ele>418.8</ele><time>2026-03-29T09:52:29Z</time></trkpt><trkpt lat="43.0359231358691" lon="12.185882415853179"><ele>422.2</ele><time>2026-03-29T09:52:30Z</time></trkpt><trkpt lat="43.036026523026216" lon="12.185811812237946"><ele>425.6</ele><time>2026-03-29T09:52:32Z</time></trkpt><trkpt lat="43.03609171393585" lon="12.185751588305767"><ele>429.0</ele><time>2026-03-29T09:52:33Z</time></trkpt><trkpt lat="43.03614500730538" lon="12.185697860689189"><ele>427.6666666666667</ele><time>2026-03-29T09:52:34Z</time></trkpt><trkpt lat="43.03619804341319" lon="12.185650214778324"><ele>426.33333333333337</ele><time>2026-03-29T09:52:35Z</time></trkpt><trkpt lat="43.036252872005406" lon="12.185597473350745"><ele>425.0</ele><time>2026-03-29T09:52:36Z</time></trkpt><trkpt lat="43.03632983628618" lon="12.185556774252204"><ele>423.6666666666667</ele><time>2026-03-29T09:52:37Z</time></trkpt><trkpt lat="43.03640963579918" lon="12.185549444632072"><ele>422.33333333333337</ele><time>2026-03-29T09:52:38Z</time></trkpt><trkpt lat="43.03649436416998" lon="12.18556613439986"><ele>421.0</ele><time>2026-03-29T09:52:39Z</time></trkpt><trkpt lat="43.03661516122143" lon="12.185553166838412"><ele>422.6</ele><time>2026-03-29T09:52:41Z</time></trkpt><trkpt lat="43.036719289432085" lon="12.185528235667666"><ele>424.20000000000005</ele><time>2026-03-29T09:52:43Z</time></trkpt><trkpt lat="43.036819616182626" lon="12.18550239931865"><ele>425.79999999999995</ele><time>2026-03-29T09:52:45Z</time></trkpt><trkpt lat="43.03693353690347" lon="12.185438851845433"><ele>427.4</ele><time>2026-03-29T09:52:47Z</time></trkpt><trkpt lat="43.03703748599112" lon="12.18539883632033"><ele>429.0</ele><time>2026-03-29T09:52:49Z</time></trkpt><trkpt lat="43.03715925249593" lon="12.185354438568233"><ele>429.0</ele><time>2026-03-29T09:52:51Z</time></trkpt><trkpt lat="43.03722189266159" lon="12.185334684439665"><ele>429.0</ele><time>2026-03-29T09:52:52Z</time></trkpt><trkpt lat="43.03728332932256" lon="12.185314872119864"><ele>429.0</ele><time>2026-03-29T09:52:53Z</time></trkpt><trkpt lat="43.03740300107135" lon="12.18528250347696"><ele>429.0</ele><time>2026-03-29T09:52:55Z</time></trkpt><trkpt lat="43.03747766230051" lon="12.185269984684412"><ele>429.0</ele><time>2026-03-29T09:52:56Z</time></trkpt><trkpt lat="43.03758744992931" lon="12.185223754581065"><ele>429.0</ele><time>2026-03-29T09:52:58Z</time></trkpt><trkpt lat="43.03769168762895" lon="12.185188523198622"><ele>430.1666666666667</ele><time>2026-03-29T09:53:00Z</time></trkpt><trkpt lat="43.03779406741306" lon="12.185175358734979"><ele>431.33333333333337</ele><time>2026-03-29T09:53:02Z</time></trkpt><trkpt lat="43.037882630100846" lon="12.18516487390143"><ele>432.5</ele><time>2026-03-29T09:53:03Z</time></trkpt><trkpt lat="43.03796864265321" lon="12.185131487590889"><ele>433.6666666666667</ele><time>2026-03-29T09:53:04Z</time></trkpt><trkpt lat="43.03805318432032" lon="12.185099853306658"><ele>434.83333333333337</ele><time>2026-03-29T09:53:05Z</time></trkpt><trkpt lat="43.03813116995633" lon="12.185075985179163"><ele>436.0</ele><time>2026-03-29T09:53:06Z</time></trkpt><trkpt lat="43.03820430581242" lon="12.185055816238428"><ele>436.00000000000006</ele><time>2026-03-29T09:53:07Z</time></trkpt><trkpt lat="43.03828498402203" lon="12.185030829600661"><ele>436.0</ele><time>2026-03-29T09:53:08Z</time></trkpt><trkpt lat="43.03836672964598" lon="12.185017566912618"><ele>436.0</ele><time>2026-03-29T09:53:09Z</time></trkpt><trkpt lat="43.038455106914114" lon="12.185022641170825"><ele>436.0</ele><time>2026-03-29T09:53:10Z</time></trkpt><trkpt lat="43.038546025731364" lon="12.185028215629709"><ele>436.00000000000006</ele><time>2026-03-29T09:53:11Z</time></trkpt><trkpt lat="43.03861809780329" lon="12.18502357307497"><ele>436.0</ele><time>2026-03-29T09:53:12Z</time></trkpt><trkpt lat="43.03869518542043" lon="12.185013503397947"><ele>436.00000000000006</ele><time>2026-03-29T09:53:13Z</time></trkpt><trkpt lat="43.038770915697626" lon="12.184991704954639"><ele>436.0</ele><time>2026-03-29T09:53:14Z</time></trkpt><trkpt lat="43.03887557567972" lon="12.184968724107884"><ele>436.0</ele><time>2026-03-29T09:53:15Z</time></trkpt><trkpt lat="43.03897141395544" lon="12.184943710531586"><ele>436.0</ele><time>2026-03-29T09:53:16Z</time></trkpt><trkpt lat="43.039035891180916" lon="12.184906603535321"><ele>436.00000000000006</ele><time>2026-03-29T09:53:17Z</time></trkpt><trkpt lat="43.03910430695343" lon="12.184904526098059"><ele>436.0</ele><time>2026-03-29T09:53:18Z</time></trkpt><trkpt lat="43.03918771095013" lon="12.18488329100625"><ele>436.00000000000006</ele><time>2026-03-29T09:53:19Z</time></trkpt><trkpt lat="43.0392636192881" lon="12.18485909595543"><ele>436.0</ele><time>2026-03-29T09:53:20Z</time></trkpt><trkpt lat="43.03938738316332" lon="12.184804543066742"><ele>436.0</ele><time>2026-03-29T09:53:22Z</time></trkpt><trkpt lat="43.0394537311099" lon="12.184753970937033"><ele>436.0</ele><time>2026-03-29T09:53:23Z</time></trkpt><trkpt lat="43.03953720100566" lon="12.18470702083729"><ele>436.00000000000006</ele><time>2026-03-29T09:53:24Z</time></trkpt><trkpt lat="43.03960097496391" lon="12.184652750835886"><ele>436.0</ele><time>2026-03-29T09:53:25Z</time></trkpt><trkpt lat="43.039667753592916" lon="12.184604257812069"><ele>435.83333333333337</ele><time>2026-03-29T09:53:26Z</time></trkpt><trkpt lat="43.03973161187409" lon="12.184551415729535"><ele>435.6666666666667</ele><time>2026-03-29T09:53:27Z</time></trkpt><trkpt lat="43.03979671180419" lon="12.184506213489673"><ele>435.5</ele><time>2026-03-29T09:53:28Z</time></trkpt><trkpt lat="43.03987225395423" lon="12.18447696720603"><ele>435.33333333333337</ele><time>2026-03-29T09:53:29Z</time></trkpt><trkpt lat="43.039938560784385" lon="12.184488158036572"><ele>435.1666666666667</ele><time>2026-03-29T09:53:30Z</time></trkpt><trkpt lat="43.040080989600746" lon="12.184484408078431"><ele>435.0</ele><time>2026-03-29T09:53:32Z</time></trkpt><trkpt lat="43.040151164120516" lon="12.184448326781803"><ele>435.0</ele><time>2026-03-29T09:53:33Z</time></trkpt><trkpt lat="43.04023049955651" lon="12.184411349358038"><ele>435.0</ele><time>2026-03-29T09:53:34Z</time></trkpt><trkpt lat="43.04030627396301" lon="12.184383345489614"><ele>435.0</ele><time>2026-03-29T09:53:35Z</time></trkpt><trkpt lat="43.040363623040705" lon="12.18434322343227"><ele>435.0</ele><time>2026-03-29T09:53:36Z</time></trkpt><trkpt lat="43.04046015823311" lon="12.184281405791774"><ele>435.0</ele><time>2026-03-29T09:53:38Z</time></trkpt><trkpt lat="43.04058531869491" lon="12.184249999568681"><ele>435.0</ele><time>2026-03-29T09:53:40Z</time></trkpt><trkpt lat="43.04066160078435" lon="12.184225505942894"><ele>435.0</ele><time>2026-03-29T09:53:41Z</time></trkpt><trkpt lat="43.0407334410948" lon="12.184213825221777"><ele>435.0</ele><time>2026-03-29T09:53:42Z</time></trkpt><trkpt lat="43.04083366000764" lon="12.184191816249067"><ele>435.0</ele><time>2026-03-29T09:53:43Z</time></trkpt><trkpt lat="43.0409290367326" lon="12.184168823233021"><ele>435.0</ele><time>2026-03-29T09:53:44Z</time></trkpt><trkpt lat="43.041022118079326" lon="12.184145657772772"><ele>435.0</ele><time>2026-03-29T09:53:45Z</time></trkpt><trkpt lat="43.04110824221229" lon="12.184119807780702"><ele>435.2</ele><time>2026-03-29T09:53:46Z</time></trkpt><trkpt lat="43.04119207884936" lon="12.184105980599629"><ele>435.4</ele><time>2026-03-29T09:53:47Z</time></trkpt><trkpt lat="43.041263950658305" lon="12.184096469460805"><ele>435.6</ele><time>2026-03-29T09:53:48Z</time></trkpt><trkpt lat="43.0413358636459" lon="12.184097796055047"><ele>435.8</ele><time>2026-03-29T09:53:49Z</time></trkpt><trkpt lat="43.0414500542745" lon="12.184066742684452"><ele>436.0</ele><time>2026-03-29T09:53:51Z</time></trkpt><trkpt lat="43.04150929854046" lon="12.18393394594656"><ele>434.00000000000006</ele><time>2026-03-29T09:53:53Z</time></trkpt><trkpt lat="43.041527334993624" lon="12.183846531494634"><ele>432.0</ele><time>2026-03-29T09:53:54Z</time></trkpt><trkpt lat="43.04154466144024" lon="12.183748576152077"><ele>430.0</ele><time>2026-03-29T09:53:55Z</time></trkpt><trkpt lat="43.04156691038588" lon="12.183651201570536"><ele>428.0</ele><time>2026-03-29T09:53:56Z</time></trkpt><trkpt lat="43.041589335628444" lon="12.183557162947332"><ele>426.00000000000006</ele><time>2026-03-29T09:53:57Z</time></trkpt><trkpt lat="43.04160072223587" lon="12.183472225427021"><ele>424.0</ele><time>2026-03-29T09:53:58Z</time></trkpt><trkpt lat="43.041630957810206" lon="12.18332546605197"><ele>426.0</ele><time>2026-03-29T09:54:00Z</time></trkpt><trkpt lat="43.041693295373314" lon="12.183250477928242"><ele>428.0</ele><time>2026-03-29T09:54:02Z</time></trkpt><trkpt lat="43.04175883552213" lon="12.183104856181961"><ele>430.0</ele><time>2026-03-29T09:54:05Z</time></trkpt><trkpt lat="43.04179717361565" lon="12.183014413078629"><ele>432.0</ele><time>2026-03-29T09:54:06Z</time></trkpt><trkpt lat="43.04186584721786" lon="12.182913470741646"><ele>434.0</ele><time>2026-03-29T09:54:08Z</time></trkpt><trkpt lat="43.04190937461875" lon="12.182808062831624"><ele>433.99999999999994</ele><time>2026-03-29T09:54:10Z</time></trkpt><trkpt lat="43.041938513294646" lon="12.182692952431314"><ele>434.0</ele><time>2026-03-29T09:54:12Z</time></trkpt><trkpt lat="43.04197245044787" lon="12.182532984285244"><ele>434.0</ele><time>2026-03-29T09:54:14Z</time></trkpt><trkpt lat="43.04199332503867" lon="12.18244903944957"><ele>434.0</ele><time>2026-03-29T09:54:15Z</time></trkpt><trkpt lat="43.04202763325633" lon="12.182373109327502"><ele>433.99999999999994</ele><time>2026-03-29T09:54:16Z</time></trkpt><trkpt lat="43.042082845473374" lon="12.182296002451531"><ele>434.0</ele><time>2026-03-29T09:54:17Z</time></trkpt><trkpt lat="43.042173117681514" lon="12.182183555311916"><ele>433.66666666666663</ele><time>2026-03-29T09:54:19Z</time></trkpt><trkpt lat="43.04220569328653" lon="12.182104424117979"><ele>433.3333333333333</ele><time>2026-03-29T09:54:20Z</time></trkpt><trkpt lat="43.042234539738885" lon="12.18202314594651"><ele>433.0</ele><time>2026-03-29T09:54:21Z</time></trkpt><trkpt lat="43.04221417813918" lon="12.181840005565958"><ele>432.66666666666663</ele><time>2026-03-29T09:54:23Z</time></trkpt><trkpt lat="43.04222439880971" lon="12.181754979709192"><ele>432.3333333333333</ele><time>2026-03-29T09:54:24Z</time></trkpt><trkpt lat="43.042213591133255" lon="12.181658277497293"><ele>432.0</ele><time>2026-03-29T09:54:25Z</time></trkpt><trkpt lat="43.04221502272752" lon="12.181558947201022"><ele>434.6</ele><time>2026-03-29T09:54:26Z</time></trkpt><trkpt lat="43.04219844134252" lon="12.181467922615349"><ele>437.20000000000005</ele><time>2026-03-29T09:54:27Z</time></trkpt><trkpt lat="43.0421748258672" lon="12.181381886501098"><ele>439.8</ele><time>2026-03-29T09:54:28Z</time></trkpt><trkpt lat="43.04209671941518" lon="12.181227978835999"><ele>442.4</ele><time>2026-03-29T09:54:30Z</time></trkpt><trkpt lat="43.04199805286611" lon="12.181082984006384"><ele>445.0</ele><time>2026-03-29T09:54:32Z</time></trkpt><trkpt lat="43.04195071743704" lon="12.18099304167452"><ele>445.0</ele><time>2026-03-29T09:54:33Z</time></trkpt><trkpt lat="43.04192103590646" lon="12.180916151484283"><ele>445.0</ele><time>2026-03-29T09:54:34Z</time></trkpt><trkpt lat="43.04190419408042" lon="12.180829929906793"><ele>445.0</ele><time>2026-03-29T09:54:35Z</time></trkpt><trkpt lat="43.04189839873342" lon="12.180669234823876"><ele>445.0</ele><time>2026-03-29T09:54:37Z</time></trkpt><trkpt lat="43.041916411608085" lon="12.180499584125837"><ele>445.0</ele><time>2026-03-29T09:54:39Z</time></trkpt><trkpt lat="43.04198551181114" lon="12.180362776654137"><ele>444.83333333333337</ele><time>2026-03-29T09:54:41Z</time></trkpt><trkpt lat="43.042032223988755" lon="12.180295074588962"><ele>444.6666666666667</ele><time>2026-03-29T09:54:42Z</time></trkpt><trkpt lat="43.04209147339073" lon="12.180253889927743"><ele>444.5</ele><time>2026-03-29T09:54:43Z</time></trkpt><trkpt lat="43.04219743618922" lon="12.180150608702014"><ele>444.33333333333337</ele><time>2026-03-29T09:54:45Z</time></trkpt><trkpt lat="43.04224779263149" lon="12.180094390454004"><ele>444.1666666666667</ele><time>2026-03-29T09:54:46Z</time></trkpt><trkpt lat="43.042301546750515" lon="12.180028687150031"><ele>444.0</ele><time>2026-03-29T09:54:47Z</time></trkpt><trkpt lat="43.04236345225514" lon="12.17997993596863"><ele>441.2</ele><time>2026-03-29T09:54:48Z</time></trkpt><trkpt lat="43.04244456870903" lon="12.179815165040974"><ele>438.4</ele><time>2026-03-29T09:54:50Z</time></trkpt><trkpt lat="43.04249892689752" lon="12.179749072686711"><ele>435.6</ele><time>2026-03-29T09:54:51Z</time></trkpt><trkpt lat="43.04257304454664" lon="12.179654826396913"><ele>432.8</ele><time>2026-03-29T09:54:52Z</time></trkpt><trkpt lat="43.04267249869101" lon="12.179589967652186"><ele>430.0</ele><time>2026-03-29T09:54:53Z</time></trkpt><trkpt lat="43.04271152654085" lon="12.179519856874341"><ele>434.83333333333337</ele><time>2026-03-29T09:54:54Z</time></trkpt><trkpt lat="43.04276502100754" lon="12.179437538269076"><ele>439.6666666666667</ele><time>2026-03-29T09:54:55Z</time></trkpt><trkpt lat="43.04285441903267" lon="12.179416788208954"><ele>444.5</ele><time>2026-03-29T09:54:57Z</time></trkpt><trkpt lat="43.0429440504395" lon="12.179364489181106"><ele>449.33333333333337</ele><time>2026-03-29T09:54:59Z</time></trkpt><trkpt lat="43.043019273543706" lon="12.179352514508151"><ele>454.1666666666667</ele><time>2026-03-29T09:55:01Z</time></trkpt><trkpt lat="43.04305820112494" lon="12.179274994262238"><ele>459.0</ele><time>2026-03-29T09:55:09Z</time></trkpt><trkpt lat="43.04315497009577" lon="12.179283001669047"><ele>459.0</ele><time>2026-03-29T09:55:11Z</time></trkpt><trkpt lat="43.04328382304132" lon="12.179354381483677"><ele>459.0</ele><time>2026-03-29T09:55:13Z</time></trkpt><trkpt lat="43.043366403537945" lon="12.179363413692554"><ele>459.0</ele><time>2026-03-29T09:55:14Z</time></trkpt><trkpt lat="43.04345795719601" lon="12.179349746775454"><ele>459.0</ele><time>2026-03-29T09:55:15Z</time></trkpt><trkpt lat="43.043544956615804" lon="12.179334056763945"><ele>459.0</ele><time>2026-03-29T09:55:16Z</time></trkpt><trkpt lat="43.04361763168641" lon="12.179322255158922"><ele>461.5</ele><time>2026-03-29T09:55:17Z</time></trkpt><trkpt lat="43.043696024121815" lon="12.1793070852643"><ele>464.0</ele><time>2026-03-29T09:55:18Z</time></trkpt><trkpt lat="43.04378063115033" lon="12.179294012715486"><ele>466.5</ele><time>2026-03-29T09:55:19Z</time></trkpt><trkpt lat="43.04386122508008" lon="12.179286404562161"><ele>469.0</ele><time>2026-03-29T09:55:20Z</time></trkpt><trkpt lat="43.04395097900671" lon="12.179274500115636"><ele>471.5</ele><time>2026-03-29T09:55:21Z</time></trkpt><trkpt lat="43.04403868367213" lon="12.179244912324963"><ele>474.0</ele><time>2026-03-29T09:55:22Z</time></trkpt><trkpt lat="43.044116390353324" lon="12.179200595641824"><ele>473.8333333333333</ele><time>2026-03-29T09:55:23Z</time></trkpt><trkpt lat="43.044189973886375" lon="12.179147483282412"><ele>473.66666666666663</ele><time>2026-03-29T09:55:24Z</time></trkpt><trkpt lat="43.04425784662103" lon="12.179085249041709"><ele>473.5</ele><time>2026-03-29T09:55:25Z</time></trkpt><trkpt lat="43.04432253193111" lon="12.179031653757654"><ele>473.3333333333333</ele><time>2026-03-29T09:55:26Z</time></trkpt><trkpt lat="43.04438729027579" lon="12.17896966342178"><ele>473.16666666666663</ele><time>2026-03-29T09:55:27Z</time></trkpt><trkpt lat="43.04443804642153" lon="12.178897192351519"><ele>473.0</ele><time>2026-03-29T09:55:28Z</time></trkpt><trkpt lat="43.04449707786239" lon="12.178846869620495"><ele>472.99999999999994</ele><time>2026-03-29T09:55:29Z</time></trkpt><trkpt lat="43.04456185500343" lon="12.178826318648053"><ele>473.0</ele><time>2026-03-29T09:55:30Z</time></trkpt><trkpt lat="43.04462859648259" lon="12.17889250188304"><ele>473.0</ele><time>2026-03-29T09:55:31Z</time></trkpt><trkpt lat="43.04475072694092" lon="12.178778982306449"><ele>473.0</ele><time>2026-03-29T09:55:33Z</time></trkpt><trkpt lat="43.04480862987615" lon="12.178735883747994"><ele>472.99999999999994</ele><time>2026-03-29T09:55:34Z</time></trkpt><trkpt lat="43.04486986859814" lon="12.178700449162067"><ele>473.0</ele><time>2026-03-29T09:55:35Z</time></trkpt><trkpt lat="43.044931132266186" lon="12.178671152870793"><ele>475.66666666666663</ele><time>2026-03-29T09:55:36Z</time></trkpt><trkpt lat="43.04499612936321" lon="12.17862980249586"><ele>478.3333333333333</ele><time>2026-03-29T09:55:37Z</time></trkpt><trkpt lat="43.04506978134246" lon="12.178618206643227"><ele>481.0</ele><time>2026-03-29T09:55:38Z</time></trkpt><trkpt lat="43.045136136619256" lon="12.178590488873802"><ele>483.66666666666663</ele><time>2026-03-29T09:55:39Z</time></trkpt><trkpt lat="43.0452100058189" lon="12.17853770868487"><ele>486.3333333333333</ele><time>2026-03-29T09:55:40Z</time></trkpt><trkpt lat="43.0452884724517" lon="12.178510695242357"><ele>489.0</ele><time>2026-03-29T09:55:41Z</time></trkpt><trkpt lat="43.0453751570103" lon="12.178485803119262"><ele>489.0</ele><time>2026-03-29T09:55:42Z</time></trkpt><trkpt lat="43.04544528759404" lon="12.178448410015829"><ele>489.0</ele><time>2026-03-29T09:55:43Z</time></trkpt><trkpt lat="43.045516017001674" lon="12.178411919475714"><ele>489.0</ele><time>2026-03-29T09:55:44Z</time></trkpt><trkpt lat="43.045597032967464" lon="12.178369290252123"><ele>489.0</ele><time>2026-03-29T09:55:45Z</time></trkpt><trkpt lat="43.04567316471009" lon="12.17832507366126"><ele>489.0</ele><time>2026-03-29T09:55:46Z</time></trkpt><trkpt lat="43.045743187138164" lon="12.178255834589852"><ele>489.0</ele><time>2026-03-29T09:55:47Z</time></trkpt><trkpt lat="43.04580242626852" lon="12.178169226920957"><ele>488.6666666666667</ele><time>2026-03-29T09:55:48Z</time></trkpt><trkpt lat="43.04584924125857" lon="12.178088907601905"><ele>488.33333333333337</ele><time>2026-03-29T09:55:49Z</time></trkpt><trkpt lat="43.04592177062767" lon="12.178063064548558"><ele>488.0</ele><time>2026-03-29T09:55:50Z</time></trkpt><trkpt lat="43.04598897816744" lon="12.17802039625727"><ele>487.6666666666667</ele><time>2026-03-29T09:55:51Z</time></trkpt><trkpt lat="43.046075029902774" lon="12.17797591802504"><ele>487.33333333333337</ele><time>2026-03-29T09:55:52Z</time></trkpt><trkpt lat="43.04614736466132" lon="12.177946818210263"><ele>487.0</ele><time>2026-03-29T09:55:53Z</time></trkpt><trkpt lat="43.046229824368766" lon="12.177924994706231"><ele>487.0</ele><time>2026-03-29T09:55:54Z</time></trkpt><trkpt lat="43.046313232266726" lon="12.177902866076822"><ele>487.00000000000006</ele><time>2026-03-29T09:55:55Z</time></trkpt><trkpt lat="43.04640711903784" lon="12.177871926691754"><ele>487.00000000000006</ele><time>2026-03-29T09:55:56Z</time></trkpt><trkpt lat="43.046491891137016" lon="12.177817591432804"><ele>487.0</ele><time>2026-03-29T09:55:57Z</time></trkpt><trkpt lat="43.046583344371044" lon="12.177781340756315"><ele>487.0</ele><time>2026-03-29T09:55:58Z</time></trkpt><trkpt lat="43.046679419356806" lon="12.177714520351849"><ele>486.50000000000006</ele><time>2026-03-29T09:55:59Z</time></trkpt><trkpt lat="43.04676124774772" lon="12.17763868383547"><ele>486.0</ele><time>2026-03-29T09:56:00Z</time></trkpt><trkpt lat="43.04684464719543" lon="12.177592448895346"><ele>485.5</ele><time>2026-03-29T09:56:01Z</time></trkpt><trkpt lat="43.0469190380028" lon="12.177529924984054"><ele>485.0</ele><time>2026-03-29T09:56:02Z</time></trkpt><trkpt lat="43.04699341626919" lon="12.177464700005498"><ele>484.50000000000006</ele><time>2026-03-29T09:56:03Z</time></trkpt><trkpt lat="43.04705033192417" lon="12.177391188144469"><ele>484.0</ele><time>2026-03-29T09:56:04Z</time></trkpt><trkpt lat="43.04711979930198" lon="12.17733534173074"><ele>484.0</ele><time>2026-03-29T09:56:05Z</time></trkpt><trkpt lat="43.04719804727792" lon="12.177314403825875"><ele>484.0</ele><time>2026-03-29T09:56:06Z</time></trkpt><trkpt lat="43.047265808758745" lon="12.177323255393727"><ele>484.0</ele><time>2026-03-29T09:56:07Z</time></trkpt><trkpt lat="43.04735033434188" lon="12.177325903565384"><ele>484.0</ele><time>2026-03-29T09:56:08Z</time></trkpt><trkpt lat="43.047486725582495" lon="12.177325903564515"><ele>484.0</ele><time>2026-03-29T09:56:10Z</time></trkpt><trkpt lat="43.04755824135801" lon="12.177190627925015"><ele>487.6666666666667</ele><time>2026-03-29T09:56:11Z</time></trkpt><trkpt lat="43.0476127773711" lon="12.177110812502264"><ele>491.33333333333337</ele><time>2026-03-29T09:56:12Z</time></trkpt><trkpt lat="43.04764844051406" lon="12.17700240833937"><ele>495.0</ele><time>2026-03-29T09:56:13Z</time></trkpt><trkpt lat="43.04766276827038" lon="12.17688063918921"><ele>498.66666666666663</ele><time>2026-03-29T09:56:14Z</time></trkpt><trkpt lat="43.04767921517004" lon="12.176768873199482"><ele>502.3333333333333</ele><time>2026-03-29T09:56:15Z</time></trkpt><trkpt lat="43.04772018901714" lon="12.176659416912702"><ele>506.0</ele><time>2026-03-29T09:56:16Z</time></trkpt><trkpt lat="43.04773407764069" lon="12.176544728747542"><ele>505.8333333333333</ele><time>2026-03-29T09:56:17Z</time></trkpt><trkpt lat="43.04778665566656" lon="12.176441244281513"><ele>505.66666666666663</ele><time>2026-03-29T09:56:18Z</time></trkpt><trkpt lat="43.04785837555365" lon="12.17637215551323"><ele>505.5</ele><time>2026-03-29T09:56:19Z</time></trkpt><trkpt lat="43.04791756581998" lon="12.1763037832118"><ele>505.33333333333337</ele><time>2026-03-29T09:56:20Z</time></trkpt><trkpt lat="43.047977677067216" lon="12.17624967510493"><ele>505.1666666666667</ele><time>2026-03-29T09:56:21Z</time></trkpt><trkpt lat="43.04804321214068" lon="12.176205481307509"><ele>505.0</ele><time>2026-03-29T09:56:22Z</time></trkpt><trkpt lat="43.04811121843875" lon="12.176162976977036"><ele>505.0</ele><time>2026-03-29T09:56:23Z</time></trkpt><trkpt lat="43.0482226806093" lon="12.176149205339035"><ele>505.0</ele><time>2026-03-29T09:56:25Z</time></trkpt><trkpt lat="43.04831324879197" lon="12.176260900277764"><ele>505.0</ele><time>2026-03-29T09:56:27Z</time></trkpt><trkpt lat="43.04836454919312" lon="12.17633938082383"><ele>505.0</ele><time>2026-03-29T09:56:28Z</time></trkpt><trkpt lat="43.048420865536585" lon="12.176405106957477"><ele>505.0</ele><time>2026-03-29T09:56:29Z</time></trkpt><trkpt lat="43.048487708124796" lon="12.176475848335128"><ele>508.00000000000006</ele><time>2026-03-29T09:56:30Z</time></trkpt><trkpt lat="43.04856752997965" lon="12.176513734672007"><ele>511.0</ele><time>2026-03-29T09:56:31Z</time></trkpt><trkpt lat="43.048640665238544" lon="12.17654390489925"><ele>514.0</ele><time>2026-03-29T09:56:32Z</time></trkpt><trkpt lat="43.04872472828323" lon="12.176565354483547"><ele>517.0</ele><time>2026-03-29T09:56:33Z</time></trkpt><trkpt lat="43.04882867358986" lon="12.176578138863789"><ele>520.0</ele><time>2026-03-29T09:56:34Z</time></trkpt><trkpt lat="43.04892063209852" lon="12.176597484016227"><ele>523.0</ele><time>2026-03-29T09:56:35Z</time></trkpt><trkpt lat="43.0490063351751" lon="12.1765579788248"><ele>523.8</ele><time>2026-03-29T09:56:36Z</time></trkpt><trkpt lat="43.04908368867305" lon="12.176509703379699"><ele>524.5999999999999</ele><time>2026-03-29T09:56:37Z</time></trkpt><trkpt lat="43.04915382518994" lon="12.176466937952181"><ele>525.4000000000001</ele><time>2026-03-29T09:56:38Z</time></trkpt><trkpt lat="43.04922817544848" lon="12.176386191848337"><ele>526.2</ele><time>2026-03-29T09:56:39Z</time></trkpt><trkpt lat="43.04926525675631" lon="12.176271931743946"><ele>527.0</ele><time>2026-03-29T09:56:40Z</time></trkpt><trkpt lat="43.04930146349064" lon="12.176136721189382"><ele>531.2</ele><time>2026-03-29T09:56:41Z</time></trkpt><trkpt lat="43.049318015174336" lon="12.176007112951144"><ele>535.4000000000001</ele><time>2026-03-29T09:56:42Z</time></trkpt><trkpt lat="43.04936900309349" lon="12.175869396534905"><ele>539.5999999999999</ele><time>2026-03-29T09:56:43Z</time></trkpt><trkpt lat="43.0494338152181" lon="12.175753773387711"><ele>543.8</ele><time>2026-03-29T09:56:44Z</time></trkpt><trkpt lat="43.049488223327096" lon="12.175626529686882"><ele>548.0</ele><time>2026-03-29T09:56:45Z</time></trkpt><trkpt lat="43.0495172523156" lon="12.175491196254859"><ele>548.0</ele><time>2026-03-29T09:56:46Z</time></trkpt><trkpt lat="43.049504074888546" lon="12.175373580641445"><ele>548.0</ele><time>2026-03-29T09:56:47Z</time></trkpt><trkpt lat="43.049506632054744" lon="12.17523142194425"><ele>548.0</ele><time>2026-03-29T09:56:48Z</time></trkpt><trkpt lat="43.04949037470329" lon="12.175103456522864"><ele>548.0</ele><time>2026-03-29T09:56:49Z</time></trkpt><trkpt lat="43.04947514096471" lon="12.175014587287095"><ele>548.0</ele><time>2026-03-29T09:56:50Z</time></trkpt><trkpt lat="43.049466870890875" lon="12.174909945748706"><ele>548.0</ele><time>2026-03-29T09:56:51Z</time></trkpt><trkpt lat="43.049442517710695" lon="12.174802760126008"><ele>546.5</ele><time>2026-03-29T09:56:52Z</time></trkpt><trkpt lat="43.04946843322498" lon="12.174723277821638"><ele>545.0</ele><time>2026-03-29T09:56:54Z</time></trkpt><trkpt lat="43.049565359454014" lon="12.174672056943084"><ele>543.5</ele><time>2026-03-29T09:56:57Z</time></trkpt><trkpt lat="43.04967097965041" lon="12.174616819599514"><ele>542.0</ele><time>2026-03-29T09:56:59Z</time></trkpt><trkpt lat="43.04973142724142" lon="12.174591254124246"><ele>540.5</ele><time>2026-03-29T09:57:00Z</time></trkpt><trkpt lat="43.049820411046824" lon="12.174557368225562"><ele>539.0</ele><time>2026-03-29T09:57:01Z</time></trkpt><trkpt lat="43.0499013736213" lon="12.174547217144625"><ele>542.4</ele><time>2026-03-29T09:57:02Z</time></trkpt><trkpt lat="43.04998734824876" lon="12.174492664471362"><ele>545.8</ele><time>2026-03-29T09:57:03Z</time></trkpt><trkpt lat="43.050086109588236" lon="12.174457065404402"><ele>549.2</ele><time>2026-03-29T09:57:04Z</time></trkpt><trkpt lat="43.050168496721085" lon="12.174431732708069"><ele>552.6</ele><time>2026-03-29T09:57:05Z</time></trkpt><trkpt lat="43.0502582805174" lon="12.174398678782975"><ele>556.0</ele><time>2026-03-29T09:57:06Z</time></trkpt><trkpt lat="43.050342819963696" lon="12.174365279832596"><ele>556.0</ele><time>2026-03-29T09:57:07Z</time></trkpt><trkpt lat="43.05042017485247" lon="12.174324374143112"><ele>556.0</ele><time>2026-03-29T09:57:08Z</time></trkpt><trkpt lat="43.0504904155356" lon="12.174257965246158"><ele>556.0</ele><time>2026-03-29T09:57:09Z</time></trkpt><trkpt lat="43.05054487839583" lon="12.174154394907683"><ele>556.0</ele><time>2026-03-29T09:57:10Z</time></trkpt><trkpt lat="43.05059755655594" lon="12.174059027081006"><ele>556.0</ele><time>2026-03-29T09:57:11Z</time></trkpt><trkpt lat="43.050663752852934" lon="12.17399433812561"><ele>556.0</ele><time>2026-03-29T09:57:12Z</time></trkpt><trkpt lat="43.05071409200103" lon="12.173928086560538"><ele>556.5</ele><time>2026-03-29T09:57:13Z</time></trkpt><trkpt lat="43.050763205552975" lon="12.173863448033314"><ele>557.0</ele><time>2026-03-29T09:57:14Z</time></trkpt><trkpt lat="43.050815351102635" lon="12.173796250096117"><ele>557.5</ele><time>2026-03-29T09:57:15Z</time></trkpt><trkpt lat="43.05086593340272" lon="12.173733054102104"><ele>558.0</ele><time>2026-03-29T09:57:16Z</time></trkpt><trkpt lat="43.050951242440206" lon="12.173634282178153"><ele>558.5</ele><time>2026-03-29T09:57:18Z</time></trkpt><trkpt lat="43.051000404270894" lon="12.17357993609692"><ele>559.0</ele><time>2026-03-29T09:57:19Z</time></trkpt><trkpt lat="43.0510993753072" lon="12.173495900202742"><ele>559.0</ele><time>2026-03-29T09:57:21Z</time></trkpt><trkpt lat="43.051215975664434" lon="12.173455088014409"><ele>559.0</ele><time>2026-03-29T09:57:23Z</time></trkpt><trkpt lat="43.05128260322348" lon="12.173438589116785"><ele>559.0</ele><time>2026-03-29T09:57:24Z</time></trkpt><trkpt lat="43.0513481984579" lon="12.173456435326779"><ele>559.0</ele><time>2026-03-29T09:57:25Z</time></trkpt><trkpt lat="43.05142064464765" lon="12.173467902674203"><ele>559.0</ele><time>2026-03-29T09:57:26Z</time></trkpt><trkpt lat="43.05150112159927" lon="12.17347525453445"><ele>559.0</ele><time>2026-03-29T09:57:27Z</time></trkpt><trkpt lat="43.05159929068256" lon="12.17349866948927"><ele>558.8333333333334</ele><time>2026-03-29T09:57:28Z</time></trkpt><trkpt lat="43.05168067738598" lon="12.173518483392423"><ele>558.6666666666667</ele><time>2026-03-29T09:57:29Z</time></trkpt><trkpt lat="43.05176740049008" lon="12.173537998334291"><ele>558.5</ele><time>2026-03-29T09:57:30Z</time></trkpt><trkpt lat="43.051849847550976" lon="12.173547766336005"><ele>558.3333333333334</ele><time>2026-03-29T09:57:31Z</time></trkpt><trkpt lat="43.05194234818634" lon="12.173580119419992"><ele>558.1666666666666</ele><time>2026-03-29T09:57:32Z</time></trkpt><trkpt lat="43.052024297981156" lon="12.173588906220573"><ele>558.0</ele><time>2026-03-29T09:57:33Z</time></trkpt><trkpt lat="43.052122772005596" lon="12.17357474565084"><ele>558.0</ele><time>2026-03-29T09:57:34Z</time></trkpt><trkpt lat="43.05221823969937" lon="12.173581139431523"><ele>558.0</ele><time>2026-03-29T09:57:35Z</time></trkpt><trkpt lat="43.05230208102067" lon="12.17356605540055"><ele>558.0</ele><time>2026-03-29T09:57:36Z</time></trkpt><trkpt lat="43.052397408387016" lon="12.173529160971695"><ele>558.0</ele><time>2026-03-29T09:57:37Z</time></trkpt><trkpt lat="43.05249266930713" lon="12.17347618888747"><ele>558.0</ele><time>2026-03-29T09:57:38Z</time></trkpt><trkpt lat="43.052587407128286" lon="12.173413400605725"><ele>556.1999999999999</ele><time>2026-03-29T09:57:39Z</time></trkpt><trkpt lat="43.05267597435604" lon="12.173350400990778"><ele>554.4</ele><time>2026-03-29T09:57:40Z</time></trkpt><trkpt lat="43.05276404832425" lon="12.173299667220169"><ele>552.5999999999999</ele><time>2026-03-29T09:57:41Z</time></trkpt><trkpt lat="43.05284927551647" lon="12.173243084473471"><ele>550.8</ele><time>2026-03-29T09:57:42Z</time></trkpt><trkpt lat="43.052929156045984" lon="12.17318692535437"><ele>549.0</ele><time>2026-03-29T09:57:43Z</time></trkpt><trkpt lat="43.05300539035511" lon="12.173129620609904"><ele>546.8333333333334</ele><time>2026-03-29T09:57:44Z</time></trkpt><trkpt lat="43.053075613210204" lon="12.173070155287931"><ele>544.6666666666666</ele><time>2026-03-29T09:57:45Z</time></trkpt><trkpt lat="43.05315797438363" lon="12.173034289780015"><ele>542.5</ele><time>2026-03-29T09:57:46Z</time></trkpt><trkpt lat="43.053242477839724" lon="12.172969611973967"><ele>540.3333333333333</ele><time>2026-03-29T09:57:47Z</time></trkpt><trkpt lat="43.05331127813338" lon="12.172892427329884"><ele>538.1666666666666</ele><time>2026-03-29T09:57:48Z</time></trkpt><trkpt lat="43.05339150226415" lon="12.172829993545923"><ele>536.0</ele><time>2026-03-29T09:57:49Z</time></trkpt><trkpt lat="43.053481404457756" lon="12.172783157351276"><ele>536.0</ele><time>2026-03-29T09:57:50Z</time></trkpt><trkpt lat="43.05355985517043" lon="12.172721376570271"><ele>536.0</ele><time>2026-03-29T09:57:51Z</time></trkpt><trkpt lat="43.05365286448576" lon="12.172649090505784"><ele>536.0</ele><time>2026-03-29T09:57:52Z</time></trkpt><trkpt lat="43.05375033617294" lon="12.172574433838388"><ele>536.0</ele><time>2026-03-29T09:57:53Z</time></trkpt><trkpt lat="43.05383664681264" lon="12.172484461443194"><ele>536.0</ele><time>2026-03-29T09:57:54Z</time></trkpt><trkpt lat="43.05392486674788" lon="12.172420619706495"><ele>536.0</ele><time>2026-03-29T09:57:55Z</time></trkpt><trkpt lat="43.05402715544695" lon="12.172370319127186"><ele>536.0</ele><time>2026-03-29T09:57:56Z</time></trkpt><trkpt lat="43.054122454596005" lon="12.172301083970936"><ele>536.0</ele><time>2026-03-29T09:57:57Z</time></trkpt><trkpt lat="43.05420783520328" lon="12.172223463605928"><ele>536.0</ele><time>2026-03-29T09:57:58Z</time></trkpt><trkpt lat="43.0543115832343" lon="12.172159108012346"><ele>536.0</ele><time>2026-03-29T09:57:59Z</time></trkpt><trkpt lat="43.054416190650294" lon="12.172084571153515"><ele>534.75</ele><time>2026-03-29T09:58:00Z</time></trkpt><trkpt lat="43.054520159346325" lon="12.172009795801396"><ele>533.5</ele><time>2026-03-29T09:58:01Z</time></trkpt><trkpt lat="43.05462718629292" lon="12.171939446853695"><ele>532.25</ele><time>2026-03-29T09:58:02Z</time></trkpt><trkpt lat="43.054732981263534" lon="12.171861335898816"><ele>531.0</ele><time>2026-03-29T09:58:03Z</time></trkpt><trkpt lat="43.05484378812287" lon="12.17179051087407"><ele>531.0</ele><time>2026-03-29T09:58:04Z</time></trkpt><trkpt lat="43.05495263035461" lon="12.171727071532784"><ele>531.0</ele><time>2026-03-29T09:58:05Z</time></trkpt><trkpt lat="43.05505639709513" lon="12.171693940205369"><ele>531.0</ele><time>2026-03-29T09:58:06Z</time></trkpt><trkpt lat="43.05514750953176" lon="12.171629433889915"><ele>531.0</ele><time>2026-03-29T09:58:07Z</time></trkpt><trkpt lat="43.05523919260344" lon="12.171594815088714"><ele>531.0</ele><time>2026-03-29T09:58:08Z</time></trkpt><trkpt lat="43.055328318267215" lon="12.171558976694193"><ele>530.0</ele><time>2026-03-29T09:58:09Z</time></trkpt><trkpt lat="43.05541367196952" lon="12.171519068680475"><ele>529.0</ele><time>2026-03-29T09:58:10Z</time></trkpt><trkpt lat="43.055493668374304" lon="12.171483801784456"><ele>528.0</ele><time>2026-03-29T09:58:11Z</time></trkpt><trkpt lat="43.05557283060378" lon="12.171444506761766"><ele>527.0</ele><time>2026-03-29T09:58:12Z</time></trkpt><trkpt lat="43.05564287792753" lon="12.171423585665092"><ele>526.0</ele><time>2026-03-29T09:58:13Z</time></trkpt><trkpt lat="43.055710975269356" lon="12.171383482723964"><ele>525.0</ele><time>2026-03-29T09:58:14Z</time></trkpt><trkpt lat="43.055786903793106" lon="12.171356726412906"><ele>525.0</ele><time>2026-03-29T09:58:15Z</time></trkpt><trkpt lat="43.05586581565639" lon="12.17132600961123"><ele>525.0</ele><time>2026-03-29T09:58:16Z</time></trkpt><trkpt lat="43.05594584076053" lon="12.171296694463026"><ele>525.0</ele><time>2026-03-29T09:58:17Z</time></trkpt><trkpt lat="43.056023703778045" lon="12.171272438537654"><ele>525.0</ele><time>2026-03-29T09:58:18Z</time></trkpt><trkpt lat="43.05610942991909" lon="12.171250746446367"><ele>525.0</ele><time>2026-03-29T09:58:19Z</time></trkpt><trkpt lat="43.05619089446367" lon="12.171213820888791"><ele>525.0</ele><time>2026-03-29T09:58:20Z</time></trkpt><trkpt lat="43.05628540066998" lon="12.171223955638093"><ele>525.0</ele><time>2026-03-29T09:58:21Z</time></trkpt><trkpt lat="43.05637978322672" lon="12.171216708877003"><ele>525.0</ele><time>2026-03-29T09:58:22Z</time></trkpt><trkpt lat="43.05648201158697" lon="12.171188523158554"><ele>525.0</ele><time>2026-03-29T09:58:23Z</time></trkpt><trkpt lat="43.05658389546263" lon="12.171191550755646"><ele>525.0</ele><time>2026-03-29T09:58:24Z</time></trkpt><trkpt lat="43.05668146974365" lon="12.171190442133085"><ele>525.0</ele><time>2026-03-29T09:58:25Z</time></trkpt><trkpt lat="43.05677074268875" lon="12.17117694775927"><ele>524.3333333333334</ele><time>2026-03-29T09:58:26Z</time></trkpt><trkpt lat="43.05685885525473" lon="12.171160846955178"><ele>523.6666666666666</ele><time>2026-03-29T09:58:27Z</time></trkpt><trkpt lat="43.05694973255414" lon="12.171168402285033"><ele>523.0</ele><time>2026-03-29T09:58:28Z</time></trkpt><trkpt lat="43.057030998146246" lon="12.17115969946162"><ele>522.3333333333333</ele><time>2026-03-29T09:58:29Z</time></trkpt><trkpt lat="43.05711986317945" lon="12.17113302088111"><ele>521.6666666666666</ele><time>2026-03-29T09:58:30Z</time></trkpt><trkpt lat="43.0572063405764" lon="12.171139250150937"><ele>521.0</ele><time>2026-03-29T09:58:31Z</time></trkpt><trkpt lat="43.05729088237681" lon="12.171132243724896"><ele>521.0</ele><time>2026-03-29T09:58:32Z</time></trkpt><trkpt lat="43.05737666323499" lon="12.171118199632108"><ele>521.0</ele><time>2026-03-29T09:58:33Z</time></trkpt><trkpt lat="43.057464765985344" lon="12.17110183872643"><ele>521.0</ele><time>2026-03-29T09:58:34Z</time></trkpt><trkpt lat="43.05756051175762" lon="12.171114395204729"><ele>521.0</ele><time>2026-03-29T09:58:35Z</time></trkpt><trkpt lat="43.05765699601729" lon="12.171107166299665"><ele>521.0</ele><time>2026-03-29T09:58:36Z</time></trkpt><trkpt lat="43.057752428823754" lon="12.171103465465126"><ele>520.5</ele><time>2026-03-29T09:58:37Z</time></trkpt><trkpt lat="43.05784957449326" lon="12.171100579921688"><ele>520.0</ele><time>2026-03-29T09:58:38Z</time></trkpt><trkpt lat="43.05794144116821" lon="12.17108279765787"><ele>519.5</ele><time>2026-03-29T09:58:39Z</time></trkpt><trkpt lat="43.05802742281914" lon="12.171088219909677"><ele>519.0</ele><time>2026-03-29T09:58:40Z</time></trkpt><trkpt lat="43.05811156671843" lon="12.171097834707684"><ele>518.5</ele><time>2026-03-29T09:58:41Z</time></trkpt><trkpt lat="43.058182784159634" lon="12.171099246783704"><ele>518.0</ele><time>2026-03-29T09:58:42Z</time></trkpt><trkpt lat="43.0582673765543" lon="12.171088629201495"><ele>517.5</ele><time>2026-03-29T09:58:43Z</time></trkpt><trkpt lat="43.058351735943106" lon="12.171073770398266"><ele>517.0</ele><time>2026-03-29T09:58:44Z</time></trkpt><trkpt lat="43.05843535168605" lon="12.1710328032897"><ele>516.5</ele><time>2026-03-29T09:58:45Z</time></trkpt><trkpt lat="43.05851072438003" lon="12.170987746355774"><ele>516.0</ele><time>2026-03-29T09:58:46Z</time></trkpt><trkpt lat="43.0585854211962" lon="12.170922868381723"><ele>515.5</ele><time>2026-03-29T09:58:47Z</time></trkpt><trkpt lat="43.058666956708706" lon="12.17087686165708"><ele>515.0</ele><time>2026-03-29T09:58:48Z</time></trkpt><trkpt lat="43.05874993628598" lon="12.170833648708909"><ele>515.0</ele><time>2026-03-29T09:58:49Z</time></trkpt><trkpt lat="43.058831443910556" lon="12.170785514689323"><ele>515.0</ele><time>2026-03-29T09:58:50Z</time></trkpt><trkpt lat="43.058917329844675" lon="12.170739544035618"><ele>515.0</ele><time>2026-03-29T09:58:51Z</time></trkpt><trkpt lat="43.05901021718535" lon="12.170725078825539"><ele>515.0</ele><time>2026-03-29T09:58:52Z</time></trkpt><trkpt lat="43.059108231912546" lon="12.170730198294352"><ele>515.0</ele><time>2026-03-29T09:58:53Z</time></trkpt><trkpt lat="43.05919742272409" lon="12.170768995469624"><ele>513.8</ele><time>2026-03-29T09:58:54Z</time></trkpt><trkpt lat="43.059289175653774" lon="12.170809785221353"><ele>512.6</ele><time>2026-03-29T09:58:55Z</time></trkpt><trkpt lat="43.059388234176346" lon="12.17083754484389"><ele>511.4</ele><time>2026-03-29T09:58:56Z</time></trkpt><trkpt lat="43.05948953187263" lon="12.170887304550032"><ele>510.2</ele><time>2026-03-29T09:58:57Z</time></trkpt><trkpt lat="43.05959665377766" lon="12.170888352788324"><ele>509.0</ele><time>2026-03-29T09:58:58Z</time></trkpt><trkpt lat="43.05969348209982" lon="12.170907861400384"><ele>509.0</ele><time>2026-03-29T09:58:59Z</time></trkpt><trkpt lat="43.05979884870986" lon="12.17091185934972"><ele>509.0</ele><time>2026-03-29T09:59:00Z</time></trkpt><trkpt lat="43.05990493503316" lon="12.170893848844605"><ele>509.0</ele><time>2026-03-29T09:59:01Z</time></trkpt><trkpt lat="43.06000799030914" lon="12.170868765063512"><ele>509.0</ele><time>2026-03-29T09:59:02Z</time></trkpt><trkpt lat="43.06011083694044" lon="12.17082928532442"><ele>509.0</ele><time>2026-03-29T09:59:03Z</time></trkpt><trkpt lat="43.060208746472654" lon="12.170796285266794"><ele>507.79999999999995</ele><time>2026-03-29T09:59:04Z</time></trkpt><trkpt lat="43.06030908805925" lon="12.170775983902594"><ele>506.59999999999997</ele><time>2026-03-29T09:59:05Z</time></trkpt><trkpt lat="43.06041116800088" lon="12.170767732538316"><ele>505.4</ele><time>2026-03-29T09:59:06Z</time></trkpt><trkpt lat="43.06051295224261" lon="12.170783733258224"><ele>504.2</ele><time>2026-03-29T09:59:07Z</time></trkpt><trkpt lat="43.060620999541726" lon="12.170812135166383"><ele>503.0</ele><time>2026-03-29T09:59:08Z</time></trkpt><trkpt lat="43.06072502202166" lon="12.170827806887475"><ele>503.79999999999995</ele><time>2026-03-29T09:59:09Z</time></trkpt><trkpt lat="43.06082665630849" lon="12.170838215644324"><ele>504.59999999999997</ele><time>2026-03-29T09:59:10Z</time></trkpt><trkpt lat="43.06093277368654" lon="12.170850663414132"><ele>505.40000000000003</ele><time>2026-03-29T09:59:11Z</time></trkpt><trkpt lat="43.06102709481527" lon="12.170857030066479"><ele>506.20000000000005</ele><time>2026-03-29T09:59:12Z</time></trkpt><trkpt lat="43.06112907608851" lon="12.170880805196477"><ele>507.0</ele><time>2026-03-29T09:59:13Z</time></trkpt><trkpt lat="43.061221945363485" lon="12.170957938678649"><ele>507.0</ele><time>2026-03-29T09:59:14Z</time></trkpt><trkpt lat="43.061320261192805" lon="12.17098080918361"><ele>507.00000000000006</ele><time>2026-03-29T09:59:15Z</time></trkpt><trkpt lat="43.061419702666925" lon="12.170995566725983"><ele>507.00000000000006</ele><time>2026-03-29T09:59:16Z</time></trkpt><trkpt lat="43.06152586756205" lon="12.170995478842668"><ele>507.0</ele><time>2026-03-29T09:59:17Z</time></trkpt><trkpt lat="43.06162737839253" lon="12.17098470322545"><ele>507.0</ele><time>2026-03-29T09:59:18Z</time></trkpt><trkpt lat="43.06172330389441" lon="12.170948031264212"><ele>507.8</ele><time>2026-03-29T09:59:19Z</time></trkpt><trkpt lat="43.06181439720511" lon="12.170905948984476"><ele>508.6</ele><time>2026-03-29T09:59:20Z</time></trkpt><trkpt lat="43.06190261839659" lon="12.170872225529322"><ele>509.40000000000003</ele><time>2026-03-29T09:59:21Z</time></trkpt><trkpt lat="43.06198545626359" lon="12.170843701236574"><ele>510.20000000000005</ele><time>2026-03-29T09:59:22Z</time></trkpt><trkpt lat="43.06206962110303" lon="12.170822873500049"><ele>511.0</ele><time>2026-03-29T09:59:23Z</time></trkpt><trkpt lat="43.06216448683004" lon="12.170821205184053"><ele>511.0</ele><time>2026-03-29T09:59:24Z</time></trkpt><trkpt lat="43.062244833466366" lon="12.170865883566641"><ele>511.0</ele><time>2026-03-29T09:59:25Z</time></trkpt><trkpt lat="43.0623600948259" lon="12.170918453058352"><ele>511.0</ele><time>2026-03-29T09:59:27Z</time></trkpt><trkpt lat="43.06235909394316" lon="12.171035569742381"><ele>511.0</ele><time>2026-03-29T09:59:28Z</time></trkpt><trkpt lat="43.06239667873765" lon="12.17110626105206"><ele>511.0</ele><time>2026-03-29T09:59:29Z</time></trkpt><trkpt lat="43.062513951309136" lon="12.171133559538085"><ele>511.1666666666667</ele><time>2026-03-29T09:59:31Z</time></trkpt><trkpt lat="43.062573003176055" lon="12.171078194529565"><ele>511.33333333333337</ele><time>2026-03-29T09:59:32Z</time></trkpt><trkpt lat="43.06263203879044" lon="12.17102280365655"><ele>511.5</ele><time>2026-03-29T09:59:33Z</time></trkpt><trkpt lat="43.06270160923302" lon="12.170958067559631"><ele>511.66666666666663</ele><time>2026-03-29T09:59:34Z</time></trkpt><trkpt lat="43.0627760486497" lon="12.170917375302048"><ele>511.8333333333333</ele><time>2026-03-29T09:59:35Z</time></trkpt><trkpt lat="43.06286278160176" lon="12.170864898384076"><ele>512.0</ele><time>2026-03-29T09:59:36Z</time></trkpt><trkpt lat="43.06295324464051" lon="12.170810421477647"><ele>512.0</ele><time>2026-03-29T09:59:37Z</time></trkpt><trkpt lat="43.06303856247463" lon="12.170745806240387"><ele>512.0</ele><time>2026-03-29T09:59:38Z</time></trkpt><trkpt lat="43.063105167121826" lon="12.170698404445973"><ele>512.0</ele><time>2026-03-29T09:59:39Z</time></trkpt><trkpt lat="43.0632138418515" lon="12.170649557417594"><ele>512.0</ele><time>2026-03-29T09:59:40Z</time></trkpt><trkpt lat="43.063310459531365" lon="12.170597635936042"><ele>512.0</ele><time>2026-03-29T09:59:41Z</time></trkpt><trkpt lat="43.06339747266598" lon="12.170581627132888"><ele>510.49999999999994</ele><time>2026-03-29T09:59:42Z</time></trkpt><trkpt lat="43.063485633939834" lon="12.170559088837482"><ele>509.0</ele><time>2026-03-29T09:59:43Z</time></trkpt><trkpt lat="43.06357666605249" lon="12.170567766019941"><ele>507.5</ele><time>2026-03-29T09:59:44Z</time></trkpt><trkpt lat="43.06365515647306" lon="12.170601292541884"><ele>506.0</ele><time>2026-03-29T09:59:45Z</time></trkpt><trkpt lat="43.06371893971982" lon="12.170675306542902"><ele>504.49999999999994</ele><time>2026-03-29T09:59:46Z</time></trkpt><trkpt lat="43.06379010576742" lon="12.170766445325029"><ele>503.0</ele><time>2026-03-29T09:59:47Z</time></trkpt><trkpt lat="43.063858168919495" lon="12.170835900410596"><ele>502.49999999999994</ele><time>2026-03-29T09:59:48Z</time></trkpt><trkpt lat="43.06392447862991" lon="12.170896982914368"><ele>502.0</ele><time>2026-03-29T09:59:49Z</time></trkpt><trkpt lat="43.063994382185555" lon="12.170956223625097"><ele>501.5</ele><time>2026-03-29T09:59:50Z</time></trkpt><trkpt lat="43.064073861779306" lon="12.170989088092124"><ele>501.0</ele><time>2026-03-29T09:59:51Z</time></trkpt><trkpt lat="43.0641447957073" lon="12.17102018240164"><ele>500.49999999999994</ele><time>2026-03-29T09:59:52Z</time></trkpt><trkpt lat="43.06421629700518" lon="12.171017387507371"><ele>500.0</ele><time>2026-03-29T09:59:53Z</time></trkpt><trkpt lat="43.06428826222503" lon="12.17096793553109"><ele>499.8333333333333</ele><time>2026-03-29T09:59:54Z</time></trkpt><trkpt lat="43.06435074230807" lon="12.170882550117875"><ele>499.66666666666663</ele><time>2026-03-29T09:59:55Z</time></trkpt><trkpt lat="43.06441197050864" lon="12.170807878858879"><ele>499.5</ele><time>2026-03-29T09:59:56Z</time></trkpt><trkpt lat="43.064463278002584" lon="12.17069731814267"><ele>499.33333333333337</ele><time>2026-03-29T09:59:57Z</time></trkpt><trkpt lat="43.064520532054566" lon="12.170637214212144"><ele>499.1666666666667</ele><time>2026-03-29T09:59:58Z</time></trkpt><trkpt lat="43.06457500759499" lon="12.170563756146421"><ele>499.0</ele><time>2026-03-29T09:59:59Z</time></trkpt><trkpt lat="43.06462675106595" lon="12.17050401509053"><ele>499.00000000000006</ele><time>2026-03-29T10:00:00Z</time></trkpt><trkpt lat="43.06468681064088" lon="12.170457609829306"><ele>499.0</ele><time>2026-03-29T10:00:01Z</time></trkpt><trkpt lat="43.06475227584569" lon="12.170425990450681"><ele>499.0</ele><time>2026-03-29T10:00:02Z</time></trkpt><trkpt lat="43.06484087280364" lon="12.170382253391343"><ele>499.0</ele><time>2026-03-29T10:00:03Z</time></trkpt><trkpt lat="43.06491524414637" lon="12.17034455972537"><ele>499.00000000000006</ele><time>2026-03-29T10:00:04Z</time></trkpt><trkpt lat="43.06497975310114" lon="12.170296611119602"><ele>499.0</ele><time>2026-03-29T10:00:05Z</time></trkpt><trkpt lat="43.06501837394564" lon="12.170219144475237"><ele>498.0</ele><time>2026-03-29T10:00:06Z</time></trkpt><trkpt lat="43.06509577574503" lon="12.170111961125906"><ele>497.0</ele><time>2026-03-29T10:00:08Z</time></trkpt><trkpt lat="43.06514193292753" lon="12.170044767194247"><ele>496.0</ele><time>2026-03-29T10:00:09Z</time></trkpt><trkpt lat="43.06512614118707" lon="12.16994293448819"><ele>495.0</ele><time>2026-03-29T10:00:10Z</time></trkpt><trkpt lat="43.064980960868304" lon="12.17002920372479"><ele>494.0</ele><time>2026-03-29T10:00:11Z</time></trkpt><trkpt lat="43.06539180718356" lon="12.169637539765084"><ele>493.99999999999994</ele><time>2026-03-29T10:00:16Z</time></trkpt><trkpt lat="43.06546736979943" lon="12.169688534401951"><ele>494.0</ele><time>2026-03-29T10:00:17Z</time></trkpt><trkpt lat="43.06553258343497" lon="12.169696739751055"><ele>494.0</ele><time>2026-03-29T10:00:18Z</time></trkpt><trkpt lat="43.0655994620208" lon="12.169727598902618"><ele>494.0</ele><time>2026-03-29T10:00:19Z</time></trkpt><trkpt lat="43.06568989994493" lon="12.169779303634382"><ele>493.99999999999994</ele><time>2026-03-29T10:00:20Z</time></trkpt><trkpt lat="43.06575330329442" lon="12.169794072607536"><ele>494.0</ele><time>2026-03-29T10:00:21Z</time></trkpt><trkpt lat="43.06587688235886" lon="12.169803980111288"><ele>495.16666666666663</ele><time>2026-03-29T10:00:23Z</time></trkpt><trkpt lat="43.06596687010288" lon="12.169778226176977"><ele>496.3333333333333</ele><time>2026-03-29T10:00:25Z</time></trkpt><trkpt lat="43.06603750171518" lon="12.169710025686626"><ele>497.5</ele><time>2026-03-29T10:00:27Z</time></trkpt><trkpt lat="43.06612421291966" lon="12.16963362164074"><ele>498.66666666666663</ele><time>2026-03-29T10:00:29Z</time></trkpt><trkpt lat="43.06619274765332" lon="12.16961501270464"><ele>499.8333333333333</ele><time>2026-03-29T10:00:30Z</time></trkpt><trkpt lat="43.06628111442832" lon="12.169564414327299"><ele>501.0</ele><time>2026-03-29T10:00:32Z</time></trkpt><trkpt lat="43.066332965181715" lon="12.169511813513449"><ele>501.0</ele><time>2026-03-29T10:00:34Z</time></trkpt><trkpt lat="43.06630069584567" lon="12.16943438070697"><ele>501.0</ele><time>2026-03-29T10:00:36Z</time></trkpt><trkpt lat="43.06634618734722" lon="12.16932058643395"><ele>501.0</ele><time>2026-03-29T10:00:38Z</time></trkpt><trkpt lat="43.066376361097596" lon="12.16919603162963"><ele>501.0</ele><time>2026-03-29T10:00:40Z</time></trkpt><trkpt lat="43.06638404154846" lon="12.169074898973868"><ele>501.0</ele><time>2026-03-29T10:00:42Z</time></trkpt><trkpt lat="43.06636999901586" lon="12.168955557318613"><ele>501.0</ele><time>2026-03-29T10:00:44Z</time></trkpt><trkpt lat="43.06632197459047" lon="12.168786821729894"><ele>501.3333333333333</ele><time>2026-03-29T10:00:46Z</time></trkpt><trkpt lat="43.06629825872576" lon="12.168699402232857"><ele>501.66666666666663</ele><time>2026-03-29T10:00:47Z</time></trkpt><trkpt lat="43.06623371939962" lon="12.168571556289304"><ele>502.0</ele><time>2026-03-29T10:00:49Z</time></trkpt><trkpt lat="43.066149560784055" lon="12.168521982447583"><ele>502.3333333333333</ele><time>2026-03-29T10:00:51Z</time></trkpt><trkpt lat="43.066068006904196" lon="12.168457507688593"><ele>502.66666666666663</ele><time>2026-03-29T10:00:53Z</time></trkpt><trkpt lat="43.066032194635454" lon="12.168364593197047"><ele>503.0</ele><time>2026-03-29T10:00:56Z</time></trkpt><trkpt lat="43.06609497044115" lon="12.16826511888408"><ele>504.25</ele><time>2026-03-29T10:01:00Z</time></trkpt><trkpt lat="43.066139598793015" lon="12.168129810520854"><ele>505.5</ele><time>2026-03-29T10:01:02Z</time></trkpt><trkpt lat="43.066121724364116" lon="12.167952140175213"><ele>506.75</ele><time>2026-03-29T10:01:03Z</time></trkpt><trkpt lat="43.06612153013211" lon="12.167839162541473"><ele>508.0</ele><time>2026-03-29T10:01:04Z</time></trkpt><trkpt lat="43.06611556482855" lon="12.167648508557322"><ele>508.00000000000006</ele><time>2026-03-29T10:01:06Z</time></trkpt><trkpt lat="43.06611630781547" lon="12.167538999403382"><ele>508.0</ele><time>2026-03-29T10:01:07Z</time></trkpt><trkpt lat="43.06611830525734" lon="12.167429166969875"><ele>508.0</ele><time>2026-03-29T10:01:08Z</time></trkpt><trkpt lat="43.06611251409799" lon="12.167306905473747"><ele>508.0</ele><time>2026-03-29T10:01:09Z</time></trkpt><trkpt lat="43.06609217078361" lon="12.167192263614751"><ele>508.00000000000006</ele><time>2026-03-29T10:01:10Z</time></trkpt><trkpt lat="43.066076964682175" lon="12.167068076099445"><ele>508.0</ele><time>2026-03-29T10:01:11Z</time></trkpt><trkpt lat="43.06606449974451" lon="12.166953624880815"><ele>509.59999999999997</ele><time>2026-03-29T10:01:12Z</time></trkpt><trkpt lat="43.06604229390316" lon="12.166814816458633"><ele>511.19999999999993</ele><time>2026-03-29T10:01:13Z</time></trkpt><trkpt lat="43.0660118951182" lon="12.166720209684549"><ele>512.8</ele><time>2026-03-29T10:01:14Z</time></trkpt><trkpt lat="43.06597979243524" lon="12.166616477107835"><ele>514.4</ele><time>2026-03-29T10:01:15Z</time></trkpt><trkpt lat="43.065953129545896" lon="12.166439862256926"><ele>516.0</ele><time>2026-03-29T10:01:17Z</time></trkpt><trkpt lat="43.065960246660666" lon="12.166344638007557"><ele>516.3333333333334</ele><time>2026-03-29T10:01:18Z</time></trkpt><trkpt lat="43.06596175590601" lon="12.166254791339467"><ele>516.6666666666666</ele><time>2026-03-29T10:01:19Z</time></trkpt><trkpt lat="43.06597094733657" lon="12.166156628714605"><ele>517.0</ele><time>2026-03-29T10:01:20Z</time></trkpt><trkpt lat="43.065990144901235" lon="12.166067362298763"><ele>517.3333333333333</ele><time>2026-03-29T10:01:21Z</time></trkpt><trkpt lat="43.06603106413059" lon="12.165997784217968"><ele>517.6666666666666</ele><time>2026-03-29T10:01:22Z</time></trkpt><trkpt lat="43.06610694512296" lon="12.165923970453862"><ele>518.0</ele><time>2026-03-29T10:01:24Z</time></trkpt><trkpt lat="43.066215867304095" lon="12.16601034660823"><ele>518.0</ele><time>2026-03-29T10:01:26Z</time></trkpt><trkpt lat="43.06626500467531" lon="12.166075222024658"><ele>518.0</ele><time>2026-03-29T10:01:27Z</time></trkpt><trkpt lat="43.066327429004076" lon="12.166216001370026"><ele>518.0</ele><time>2026-03-29T10:01:29Z</time></trkpt><trkpt lat="43.06638731051719" lon="12.166277415898298"><ele>518.0</ele><time>2026-03-29T10:01:30Z</time></trkpt><trkpt lat="43.06644931246338" lon="12.166334472340532"><ele>518.0</ele><time>2026-03-29T10:01:31Z</time></trkpt><trkpt lat="43.066509467774466" lon="12.166373548361522"><ele>518.0</ele><time>2026-03-29T10:01:32Z</time></trkpt><trkpt lat="43.06660757745905" lon="12.166475642699195"><ele>522.8</ele><time>2026-03-29T10:01:34Z</time></trkpt><trkpt lat="43.06665785480653" lon="12.16652885698232"><ele>527.5999999999999</ele><time>2026-03-29T10:01:35Z</time></trkpt><trkpt lat="43.06670697556476" lon="12.16658921054643"><ele>532.4000000000001</ele><time>2026-03-29T10:01:36Z</time></trkpt><trkpt lat="43.06681348305709" lon="12.166672089169907"><ele>537.2</ele><time>2026-03-29T10:01:38Z</time></trkpt><trkpt lat="43.06690696097897" lon="12.166793789056788"><ele>542.0</ele><time>2026-03-29T10:01:40Z</time></trkpt><trkpt lat="43.06698802242566" lon="12.166908930987285"><ele>542.0</ele><time>2026-03-29T10:01:42Z</time></trkpt><trkpt lat="43.06701704650346" lon="12.167053617937158"><ele>542.0</ele><time>2026-03-29T10:01:44Z</time></trkpt><trkpt lat="43.06706584817414" lon="12.167146289088876"><ele>542.0</ele><time>2026-03-29T10:01:46Z</time></trkpt><trkpt lat="43.06718575743858" lon="12.167189849161671"><ele>542.0</ele><time>2026-03-29T10:01:48Z</time></trkpt><trkpt lat="43.067253547856" lon="12.167198834880761"><ele>542.0</ele><time>2026-03-29T10:01:49Z</time></trkpt><trkpt lat="43.067316091117355" lon="12.167167494175"><ele>542.0</ele><time>2026-03-29T10:01:51Z</time></trkpt><trkpt lat="43.06735847239987" lon="12.167093750571963"><ele>542.0</ele><time>2026-03-29T10:02:08Z</time></trkpt><trkpt lat="43.06746552614642" lon="12.167094397539447"><ele>542.0</ele><time>2026-03-29T10:02:10Z</time></trkpt><trkpt lat="43.06753688266947" lon="12.167139563757111"><ele>542.0</ele><time>2026-03-29T10:02:11Z</time></trkpt><trkpt lat="43.067555290402865" lon="12.167257987907584"><ele>542.0</ele><time>2026-03-29T10:02:12Z</time></trkpt><trkpt lat="43.0676286075188" lon="12.16727908338856"><ele>542.0</ele><time>2026-03-29T10:02:13Z</time></trkpt><trkpt lat="43.06771352154152" lon="12.167280746346181"><ele>543.0</ele><time>2026-03-29T10:02:14Z</time></trkpt><trkpt lat="43.067780983685054" lon="12.167256472345384"><ele>544.0</ele><time>2026-03-29T10:02:15Z</time></trkpt><trkpt lat="43.06784596836878" lon="12.167246949686314"><ele>545.0</ele><time>2026-03-29T10:02:16Z</time></trkpt><trkpt lat="43.067919864825704" lon="12.167251215997057"><ele>546.0</ele><time>2026-03-29T10:02:17Z</time></trkpt><trkpt lat="43.06800550917685" lon="12.167254089648326"><ele>547.0</ele><time>2026-03-29T10:02:18Z</time></trkpt><trkpt lat="43.06810181647694" lon="12.16723910180341"><ele>548.0</ele><time>2026-03-29T10:02:19Z</time></trkpt><trkpt lat="43.06817443416542" lon="12.167243140832142"><ele>548.0</ele><time>2026-03-29T10:02:20Z</time></trkpt><trkpt lat="43.068258441770475" lon="12.167265191439743"><ele>548.0</ele><time>2026-03-29T10:02:21Z</time></trkpt><trkpt lat="43.068344458332064" lon="12.167300548846109"><ele>548.0</ele><time>2026-03-29T10:02:22Z</time></trkpt><trkpt lat="43.06842890805729" lon="12.16735782966941"><ele>548.0</ele><time>2026-03-29T10:02:23Z</time></trkpt><trkpt lat="43.06847715392181" lon="12.16742232415669"><ele>548.0</ele><time>2026-03-29T10:02:24Z</time></trkpt><trkpt lat="43.068572721578136" lon="12.167497763304036"><ele>548.0</ele><time>2026-03-29T10:02:26Z</time></trkpt><trkpt lat="43.06864585621009" lon="12.16751186677723"><ele>548.4</ele><time>2026-03-29T10:02:27Z</time></trkpt><trkpt lat="43.06870977855954" lon="12.167530388339706"><ele>548.8</ele><time>2026-03-29T10:02:28Z</time></trkpt><trkpt lat="43.06880552346971" lon="12.167457638952325"><ele>549.2</ele><time>2026-03-29T10:02:30Z</time></trkpt><trkpt lat="43.068869723878926" lon="12.167427464574128"><ele>549.6</ele><time>2026-03-29T10:02:31Z</time></trkpt><trkpt lat="43.068971966848196" lon="12.167374622989774"><ele>550.0</ele><time>2026-03-29T10:02:33Z</time></trkpt><trkpt lat="43.06906928086521" lon="12.167250671834866"><ele>552.4</ele><time>2026-03-29T10:02:35Z</time></trkpt><trkpt lat="43.06912942348044" lon="12.167161533544439"><ele>554.8</ele><time>2026-03-29T10:02:36Z</time></trkpt><trkpt lat="43.069190910987814" lon="12.167098599329794"><ele>557.2</ele><time>2026-03-29T10:02:37Z</time></trkpt><trkpt lat="43.06923938675739" lon="12.167031018670832"><ele>559.6</ele><time>2026-03-29T10:02:38Z</time></trkpt><trkpt lat="43.06927587166419" lon="12.166864198766723"><ele>562.0</ele><time>2026-03-29T10:02:40Z</time></trkpt><trkpt lat="43.06931288892049" lon="12.166745322841193"><ele>562.0</ele><time>2026-03-29T10:02:41Z</time></trkpt><trkpt lat="43.06936927001753" lon="12.166636516404076"><ele>562.0</ele><time>2026-03-29T10:02:42Z</time></trkpt><trkpt lat="43.06944714417695" lon="12.16654054438249"><ele>562.0</ele><time>2026-03-29T10:02:43Z</time></trkpt><trkpt lat="43.069507430891804" lon="12.166435207804131"><ele>562.0</ele><time>2026-03-29T10:02:44Z</time></trkpt><trkpt lat="43.069583201031605" lon="12.166337589811512"><ele>562.0</ele><time>2026-03-29T10:02:45Z</time></trkpt><trkpt lat="43.06969399856341" lon="12.166332474381779"><ele>561.6</ele><time>2026-03-29T10:02:46Z</time></trkpt><trkpt lat="43.06979881704289" lon="12.16630897656746"><ele>561.2</ele><time>2026-03-29T10:02:47Z</time></trkpt><trkpt lat="43.06987579578615" lon="12.16628069562124"><ele>560.8</ele><time>2026-03-29T10:02:48Z</time></trkpt><trkpt lat="43.069990574268" lon="12.166260411103192"><ele>560.4</ele><time>2026-03-29T10:02:50Z</time></trkpt><trkpt lat="43.069901136824846" lon="12.166334332076682"><ele>560.0</ele><time>2026-03-29T10:03:04Z</time></trkpt><trkpt lat="43.06990845081364" lon="12.166420418097879"><ele>560.0</ele><time>2026-03-29T10:03:07Z</time></trkpt><trkpt lat="43.06998009868694" lon="12.166456051803396"><ele>560.0</ele><time>2026-03-29T10:03:09Z</time></trkpt><trkpt lat="43.070053629551936" lon="12.166521280783025"><ele>560.0</ele><time>2026-03-29T10:03:11Z</time></trkpt><trkpt lat="43.0701094961233" lon="12.166587754910621"><ele>560.0</ele><time>2026-03-29T10:03:13Z</time></trkpt><trkpt lat="43.07017776028926" lon="12.166645406566005"><ele>560.0</ele><time>2026-03-29T10:03:15Z</time></trkpt><trkpt lat="43.070229452733955" lon="12.166699689410546"><ele>560.0</ele><time>2026-03-29T10:03:17Z</time></trkpt><trkpt lat="43.07038270353445" lon="12.166754255836011"><ele>562.0</ele><time>2026-03-29T10:04:02Z</time></trkpt><trkpt lat="43.07052132450935" lon="12.16684034499855"><ele>564.0</ele><time>2026-03-29T10:04:03Z</time></trkpt><trkpt lat="43.07059127379868" lon="12.166882885869079"><ele>566.0</ele><time>2026-03-29T10:04:04Z</time></trkpt><trkpt lat="43.07066371394699" lon="12.166939420156"><ele>568.0</ele><time>2026-03-29T10:04:05Z</time></trkpt><trkpt lat="43.070736793862594" lon="12.167016751539215"><ele>570.0</ele><time>2026-03-29T10:04:06Z</time></trkpt><trkpt lat="43.07083990918463" lon="12.167113625333775"><ele>570.0</ele><time>2026-03-29T10:04:07Z</time></trkpt><trkpt lat="43.070943912945765" lon="12.16718622889547"><ele>570.0</ele><time>2026-03-29T10:04:08Z</time></trkpt><trkpt lat="43.07103508735263" lon="12.167247014620234"><ele>570.0</ele><time>2026-03-29T10:04:09Z</time></trkpt><trkpt lat="43.071098834351105" lon="12.167294415981697"><ele>570.0</ele><time>2026-03-29T10:04:10Z</time></trkpt><trkpt lat="43.07116422050614" lon="12.167367925545872"><ele>570.0</ele><time>2026-03-29T10:04:11Z</time></trkpt><trkpt lat="43.071238006957635" lon="12.167461339193887"><ele>572.2</ele><time>2026-03-29T10:04:12Z</time></trkpt><trkpt lat="43.07129134566925" lon="12.167594069523737"><ele>574.4</ele><time>2026-03-29T10:04:13Z</time></trkpt><trkpt lat="43.071353122266224" lon="12.167722880744895"><ele>576.6</ele><time>2026-03-29T10:04:14Z</time></trkpt><trkpt lat="43.071426772327584" lon="12.16787529862325"><ele>578.8</ele><time>2026-03-29T10:04:15Z</time></trkpt><trkpt lat="43.07147316812374" lon="12.167985128355268"><ele>581.0</ele><time>2026-03-29T10:04:16Z</time></trkpt><trkpt lat="43.07151702735903" lon="12.168054563575364"><ele>581.0</ele><time>2026-03-29T10:04:17Z</time></trkpt><trkpt lat="43.07154489448408" lon="12.168142264495573"><ele>581.0</ele><time>2026-03-29T10:04:18Z</time></trkpt><trkpt lat="43.07151013497023" lon="12.168323132477045"><ele>581.0</ele><time>2026-03-29T10:04:20Z</time></trkpt><trkpt lat="43.071461218382154" lon="12.168460396250323"><ele>581.0</ele><time>2026-03-29T10:04:21Z</time></trkpt><trkpt lat="43.0714260495634" lon="12.16857682280523"><ele>581.0</ele><time>2026-03-29T10:04:22Z</time></trkpt><trkpt lat="43.07140523836165" lon="12.168686295278325"><ele>579.5</ele><time>2026-03-29T10:04:23Z</time></trkpt><trkpt lat="43.071402950617305" lon="12.168778464284115"><ele>578.0</ele><time>2026-03-29T10:04:24Z</time></trkpt><trkpt lat="43.07141792918968" lon="12.168895715022844"><ele>576.5</ele><time>2026-03-29T10:04:25Z</time></trkpt><trkpt lat="43.071473638884335" lon="12.169015567687545"><ele>575.0</ele><time>2026-03-29T10:04:26Z</time></trkpt><trkpt lat="43.07151783911776" lon="12.169087887782894"><ele>573.5</ele><time>2026-03-29T10:04:27Z</time></trkpt><trkpt lat="43.0716052157107" lon="12.16917461895015"><ele>572.0</ele><time>2026-03-29T10:04:28Z</time></trkpt><trkpt lat="43.07169242956236" lon="12.169293395311499"><ele>571.6</ele><time>2026-03-29T10:04:29Z</time></trkpt><trkpt lat="43.07175785734744" lon="12.169364536825768"><ele>571.2</ele><time>2026-03-29T10:04:30Z</time></trkpt><trkpt lat="43.07181578167182" lon="12.169482824795294"><ele>570.8</ele><time>2026-03-29T10:04:31Z</time></trkpt><trkpt lat="43.071833162198004" lon="12.169648468445693"><ele>570.4</ele><time>2026-03-29T10:04:32Z</time></trkpt><trkpt lat="43.07185911227219" lon="12.169827494826555"><ele>570.0</ele><time>2026-03-29T10:04:33Z</time></trkpt><trkpt lat="43.07190101455131" lon="12.170003226700715"><ele>566.5</ele><time>2026-03-29T10:04:34Z</time></trkpt><trkpt lat="43.07197302051192" lon="12.170142029886573"><ele>563.0</ele><time>2026-03-29T10:04:35Z</time></trkpt><trkpt lat="43.072047922039125" lon="12.170231276916812"><ele>559.5</ele><time>2026-03-29T10:04:36Z</time></trkpt><trkpt lat="43.07211315841843" lon="12.17037212966638"><ele>556.0</ele><time>2026-03-29T10:04:37Z</time></trkpt><trkpt lat="43.07217758497494" lon="12.170495194563713"><ele>556.0</ele><time>2026-03-29T10:04:38Z</time></trkpt><trkpt lat="43.072266309793875" lon="12.17063982125661"><ele>556.0</ele><time>2026-03-29T10:04:39Z</time></trkpt><trkpt lat="43.07236076625941" lon="12.170767433117465"><ele>556.0</ele><time>2026-03-29T10:04:40Z</time></trkpt><trkpt lat="43.07244533780864" lon="12.170859398954295"><ele>556.0</ele><time>2026-03-29T10:04:41Z</time></trkpt><trkpt lat="43.0725515854839" lon="12.17093173321508"><ele>555.0</ele><time>2026-03-29T10:04:42Z</time></trkpt><trkpt lat="43.07267209976084" lon="12.170990305374039"><ele>554.0</ele><time>2026-03-29T10:04:43Z</time></trkpt><trkpt lat="43.072787945164414" lon="12.171065707548475"><ele>553.0</ele><time>2026-03-29T10:04:44Z</time></trkpt><trkpt lat="43.072905383297964" lon="12.171130910127165"><ele>552.0</ele><time>2026-03-29T10:04:45Z</time></trkpt><trkpt lat="43.07303073898017" lon="12.17121974349988"><ele>552.0</ele><time>2026-03-29T10:04:46Z</time></trkpt><trkpt lat="43.07317710742873" lon="12.171311797432839"><ele>552.0</ele><time>2026-03-29T10:04:47Z</time></trkpt><trkpt lat="43.073318667875135" lon="12.171422492011978"><ele>552.0</ele><time>2026-03-29T10:04:48Z</time></trkpt><trkpt lat="43.07345935989987" lon="12.171524687141668"><ele>551.0</ele><time>2026-03-29T10:04:49Z</time></trkpt><trkpt lat="43.0735966193178" lon="12.171614556569041"><ele>550.0</ele><time>2026-03-29T10:04:50Z</time></trkpt><trkpt lat="43.07368982519822" lon="12.17167014277475"><ele>549.0</ele><time>2026-03-29T10:04:51Z</time></trkpt><trkpt lat="43.073738859685285" lon="12.171750367746967"><ele>548.0</ele><time>2026-03-29T10:04:52Z</time></trkpt><trkpt lat="43.073809964554584" lon="12.171816426235122"><ele>547.0</ele><time>2026-03-29T10:04:53Z</time></trkpt><trkpt lat="43.07389399540875" lon="12.171873451879524"><ele>547.0</ele><time>2026-03-29T10:04:54Z</time></trkpt><trkpt lat="43.07395483477592" lon="12.171924489889978"><ele>547.0</ele><time>2026-03-29T10:04:55Z</time></trkpt><trkpt lat="43.07401075050833" lon="12.171965448239979"><ele>547.0</ele><time>2026-03-29T10:04:56Z</time></trkpt><trkpt lat="43.0741128315633" lon="12.172004949223322"><ele>547.0</ele><time>2026-03-29T10:04:58Z</time></trkpt><trkpt lat="43.07418064019721" lon="12.17207432403555"><ele>547.0</ele><time>2026-03-29T10:05:01Z</time></trkpt><trkpt lat="43.074294652247275" lon="12.172103212541682"><ele>547.0</ele><time>2026-03-29T10:05:18Z</time></trkpt><trkpt lat="43.07439728874055" lon="12.172110032914768"><ele>546.0</ele><time>2026-03-29T10:05:19Z</time></trkpt><trkpt lat="43.074487814936774" lon="12.172142333042322"><ele>545.0</ele><time>2026-03-29T10:05:20Z</time></trkpt><trkpt lat="43.07457031142121" lon="12.172206021086286"><ele>544.0</ele><time>2026-03-29T10:05:21Z</time></trkpt><trkpt lat="43.07467062609374" lon="12.172279749476653"><ele>543.0</ele><time>2026-03-29T10:05:22Z</time></trkpt><trkpt lat="43.0747651794919" lon="12.172334782349093"><ele>542.0</ele><time>2026-03-29T10:05:23Z</time></trkpt><trkpt lat="43.0748474522518" lon="12.17238471015249"><ele>541.3333333333333</ele><time>2026-03-29T10:05:24Z</time></trkpt><trkpt lat="43.074913575001794" lon="12.172419670570239"><ele>540.6666666666666</ele><time>2026-03-29T10:05:25Z</time></trkpt><trkpt lat="43.07498163949675" lon="12.172445219587571"><ele>540.0</ele><time>2026-03-29T10:05:26Z</time></trkpt><trkpt lat="43.07507066972878" lon="12.17242409437283"><ele>539.3333333333334</ele><time>2026-03-29T10:05:27Z</time></trkpt><trkpt lat="43.075128743881244" lon="12.172460317975052"><ele>538.6666666666667</ele><time>2026-03-29T10:05:28Z</time></trkpt><trkpt lat="43.07518175995696" lon="12.172542980400527"><ele>538.0</ele><time>2026-03-29T10:05:29Z</time></trkpt><trkpt lat="43.07520090356387" lon="12.17265579428187"><ele>538.0</ele><time>2026-03-29T10:05:30Z</time></trkpt><trkpt lat="43.07522416106092" lon="12.17274049117255"><ele>538.0</ele><time>2026-03-29T10:05:31Z</time></trkpt><trkpt lat="43.07518559147439" lon="12.1728498670068"><ele>538.0</ele><time>2026-03-29T10:05:32Z</time></trkpt><trkpt lat="43.07512692431084" lon="12.172928118185816"><ele>538.0</ele><time>2026-03-29T10:05:33Z</time></trkpt><trkpt lat="43.07506014866673" lon="12.17300975879726"><ele>538.0</ele><time>2026-03-29T10:05:34Z</time></trkpt><trkpt lat="43.0749930729899" lon="12.17308045899204"><ele>538.0</ele><time>2026-03-29T10:05:35Z</time></trkpt><trkpt lat="43.0749131852325" lon="12.173152208992725"><ele>532.1999999999999</ele><time>2026-03-29T10:05:36Z</time></trkpt><trkpt lat="43.07484664803809" lon="12.173227188425193"><ele>526.4</ele><time>2026-03-29T10:05:37Z</time></trkpt><trkpt lat="43.074769336027984" lon="12.173276687210734"><ele>520.5999999999999</ele><time>2026-03-29T10:05:38Z</time></trkpt><trkpt lat="43.07468202695741" lon="12.173334686466404"><ele>514.8</ele><time>2026-03-29T10:05:39Z</time></trkpt><trkpt lat="43.07457587837192" lon="12.173369151020095"><ele>509.0</ele><time>2026-03-29T10:05:41Z</time></trkpt><trkpt lat="43.07460399865544" lon="12.173486606435189"><ele>508.99999999999994</ele><time>2026-03-29T10:05:44Z</time></trkpt><trkpt lat="43.074657910893855" lon="12.17357497323463"><ele>509.0</ele><time>2026-03-29T10:05:45Z</time></trkpt><trkpt lat="43.07472259651472" lon="12.173631964058286"><ele>509.0</ele><time>2026-03-29T10:05:46Z</time></trkpt><trkpt lat="43.07479443517555" lon="12.173673941942095"><ele>509.0</ele><time>2026-03-29T10:05:47Z</time></trkpt><trkpt lat="43.074864281731315" lon="12.173707932377557"><ele>508.99999999999994</ele><time>2026-03-29T10:05:48Z</time></trkpt><trkpt lat="43.07494530431216" lon="12.173737239936806"><ele>509.0</ele><time>2026-03-29T10:05:49Z</time></trkpt><trkpt lat="43.075007127461426" lon="12.173688366829056"><ele>508.71428571428567</ele><time>2026-03-29T10:05:51Z</time></trkpt><trkpt lat="43.075062960880025" lon="12.173733460174113"><ele>508.42857142857144</ele><time>2026-03-29T10:05:53Z</time></trkpt><trkpt lat="43.07506522535415" lon="12.17383025942018"><ele>508.1428571428571</ele><time>2026-03-29T10:06:21Z</time></trkpt><trkpt lat="43.075128843624626" lon="12.173943319003577"><ele>507.85714285714283</ele><time>2026-03-29T10:06:24Z</time></trkpt><trkpt lat="43.07511865358706" lon="12.174036041802056"><ele>507.57142857142856</ele><time>2026-03-29T10:06:25Z</time></trkpt><trkpt lat="43.075092755410274" lon="12.174115008377466"><ele>507.2857142857143</ele><time>2026-03-29T10:06:26Z</time></trkpt><trkpt lat="43.07507421039723" lon="12.174198154679994"><ele>507.0</ele><time>2026-03-29T10:06:27Z</time></trkpt><trkpt lat="43.07506868919087" lon="12.174356940668709"><ele>501.8</ele><time>2026-03-29T10:06:29Z</time></trkpt><trkpt lat="43.07510456909992" lon="12.174449599002083"><ele>496.6</ele><time>2026-03-29T10:06:30Z</time></trkpt><trkpt lat="43.075142731565414" lon="12.174545115936903"><ele>491.40000000000003</ele><time>2026-03-29T10:06:31Z</time></trkpt><trkpt lat="43.07519265721263" lon="12.174642051730828"><ele>486.20000000000005</ele><time>2026-03-29T10:06:32Z</time></trkpt><trkpt lat="43.0752524333475" lon="12.174727777594587"><ele>481.0</ele><time>2026-03-29T10:06:33Z</time></trkpt><trkpt lat="43.07532054347506" lon="12.174866975784385"><ele>477.83333333333337</ele><time>2026-03-29T10:06:35Z</time></trkpt><trkpt lat="43.075351389599646" lon="12.17499783422001"><ele>474.6666666666667</ele><time>2026-03-29T10:06:37Z</time></trkpt><trkpt lat="43.075350990917855" lon="12.17510237156688"><ele>471.5</ele><time>2026-03-29T10:06:38Z</time></trkpt><trkpt lat="43.07528696056974" lon="12.175220286003611"><ele>468.33333333333337</ele><time>2026-03-29T10:06:40Z</time></trkpt><trkpt lat="43.0752142335326" lon="12.175233317415804"><ele>465.1666666666667</ele><time>2026-03-29T10:06:43Z</time></trkpt><trkpt lat="43.075219376735916" lon="12.17532236540843"><ele>462.0</ele><time>2026-03-29T10:06:47Z</time></trkpt><trkpt lat="43.07526475350407" lon="12.175401124856041"><ele>462.0</ele><time>2026-03-29T10:06:50Z</time></trkpt><trkpt lat="43.075320857244336" lon="12.175537518919302"><ele>462.0</ele><time>2026-03-29T10:06:53Z</time></trkpt><trkpt lat="43.07538108271458" lon="12.175605730052004"><ele>462.0</ele><time>2026-03-29T10:06:54Z</time></trkpt><trkpt lat="43.07544263968571" lon="12.175642266713878"><ele>462.0</ele><time>2026-03-29T10:06:55Z</time></trkpt><trkpt lat="43.07554740370997" lon="12.175694090843793"><ele>462.0</ele><time>2026-03-29T10:06:57Z</time></trkpt><trkpt lat="43.075605474328526" lon="12.175756600943433"><ele>462.0</ele><time>2026-03-29T10:06:59Z</time></trkpt><trkpt lat="43.07569183319418" lon="12.175775886317963"><ele>460.8</ele><time>2026-03-29T10:07:31Z</time></trkpt><trkpt lat="43.075813376639516" lon="12.175838394812441"><ele>459.6</ele><time>2026-03-29T10:07:33Z</time></trkpt><trkpt lat="43.07589272285556" lon="12.175878266979197"><ele>458.40000000000003</ele><time>2026-03-29T10:07:34Z</time></trkpt><trkpt lat="43.07598817299386" lon="12.175891869001056"><ele>457.20000000000005</ele><time>2026-03-29T10:07:35Z</time></trkpt><trkpt lat="43.07608073828493" lon="12.175899413230876"><ele>456.0</ele><time>2026-03-29T10:07:36Z</time></trkpt><trkpt lat="43.07615864141519" lon="12.175894631673374"><ele>456.0</ele><time>2026-03-29T10:07:37Z</time></trkpt><trkpt lat="43.076244421457446" lon="12.175915900457834"><ele>456.0</ele><time>2026-03-29T10:07:38Z</time></trkpt><trkpt lat="43.07634489002723" lon="12.175980503105881"><ele>456.0</ele><time>2026-03-29T10:07:39Z</time></trkpt><trkpt lat="43.07642324563699" lon="12.176026127597328"><ele>456.0</ele><time>2026-03-29T10:07:40Z</time></trkpt><trkpt lat="43.076518061656714" lon="12.17606540824522"><ele>456.0</ele><time>2026-03-29T10:07:41Z</time></trkpt><trkpt lat="43.07659282659047" lon="12.176118508638535"><ele>454.8</ele><time>2026-03-29T10:07:42Z</time></trkpt><trkpt lat="43.07664779815187" lon="12.176176399151121"><ele>453.6</ele><time>2026-03-29T10:07:43Z</time></trkpt><trkpt lat="43.076736499457354" lon="12.176250476600812"><ele>452.4</ele><time>2026-03-29T10:07:45Z</time></trkpt><trkpt lat="43.076861109071125" lon="12.17630880725794"><ele>451.2</ele><time>2026-03-29T10:07:47Z</time></trkpt><trkpt lat="43.076958035954895" lon="12.17641625765309"><ele>450.0</ele><time>2026-03-29T10:07:49Z</time></trkpt><trkpt lat="43.077025512876425" lon="12.176443537877631"><ele>450.0</ele><time>2026-03-29T10:07:50Z</time></trkpt><trkpt lat="43.077110430237155" lon="12.176460273314644"><ele>450.0</ele><time>2026-03-29T10:07:51Z</time></trkpt><trkpt lat="43.07720926814714" lon="12.176547362911965"><ele>450.0</ele><time>2026-03-29T10:07:53Z</time></trkpt><trkpt lat="43.07730277057985" lon="12.17663703284733"><ele>450.0</ele><time>2026-03-29T10:07:55Z</time></trkpt><trkpt lat="43.077385356045966" lon="12.176663470625842"><ele>450.0</ele><time>2026-03-29T10:07:56Z</time></trkpt><trkpt lat="43.07748872236469" lon="12.176725186958814"><ele>452.4</ele><time>2026-03-29T10:07:58Z</time></trkpt><trkpt lat="43.07755243275098" lon="12.176758771543094"><ele>454.8</ele><time>2026-03-29T10:08:00Z</time></trkpt><trkpt lat="43.07766686128516" lon="12.176837481042513"><ele>457.20000000000005</ele><time>2026-03-29T10:08:16Z</time></trkpt><trkpt lat="43.07776097713561" lon="12.176961338613689"><ele>459.6</ele><time>2026-03-29T10:08:18Z</time></trkpt><trkpt lat="43.077810732491756" lon="12.177036140012975"><ele>462.0</ele><time>2026-03-29T10:08:19Z</time></trkpt><trkpt lat="43.077868930606115" lon="12.177095027075417"><ele>462.0</ele><time>2026-03-29T10:08:20Z</time></trkpt><trkpt lat="43.077920802060724" lon="12.177154631490689"><ele>462.0</ele><time>2026-03-29T10:08:21Z</time></trkpt><trkpt lat="43.077965183233296" lon="12.177221828407214"><ele>462.0</ele><time>2026-03-29T10:08:23Z</time></trkpt><trkpt lat="43.07801775593796" lon="12.177301138410641"><ele>462.0</ele><time>2026-03-29T10:08:27Z</time></trkpt><trkpt lat="43.07807990011109" lon="12.17738862014673"><ele>462.0</ele><time>2026-03-29T10:08:31Z</time></trkpt><trkpt lat="43.078054198544415" lon="12.177467705813179"><ele>462.0</ele><time>2026-03-29T10:08:34Z</time></trkpt><trkpt lat="43.078113752310685" lon="12.177599928292883"><ele>461.8</ele><time>2026-03-29T10:08:37Z</time></trkpt><trkpt lat="43.078125764162074" lon="12.177714368982855"><ele>461.6</ele><time>2026-03-29T10:08:40Z</time></trkpt><trkpt lat="43.078173470189675" lon="12.177803955727521"><ele>461.40000000000003</ele><time>2026-03-29T10:08:56Z</time></trkpt><trkpt lat="43.078240603784366" lon="12.177877095802401"><ele>461.20000000000005</ele><time>2026-03-29T10:08:58Z</time></trkpt><trkpt lat="43.07830995684282" lon="12.177914393800872"><ele>461.0</ele><time>2026-03-29T10:08:59Z</time></trkpt><trkpt lat="43.07841701894406" lon="12.178017189237615"><ele>460.99999999999994</ele><time>2026-03-29T10:09:01Z</time></trkpt><trkpt lat="43.07847324120335" lon="12.178076203881984"><ele>461.0</ele><time>2026-03-29T10:09:02Z</time></trkpt><trkpt lat="43.07855529970966" lon="12.17815411035199"><ele>461.0</ele><time>2026-03-29T10:09:03Z</time></trkpt><trkpt lat="43.0786197544604" lon="12.178257774493837"><ele>461.0</ele><time>2026-03-29T10:09:05Z</time></trkpt><trkpt lat="43.078651211378705" lon="12.178338721834923"><ele>460.99999999999994</ele><time>2026-03-29T10:09:06Z</time></trkpt><trkpt lat="43.078686108214136" lon="12.17843061929073"><ele>461.0</ele><time>2026-03-29T10:09:07Z</time></trkpt><trkpt lat="43.07870734919121" lon="12.178537043570774"><ele>463.6</ele><time>2026-03-29T10:09:08Z</time></trkpt><trkpt lat="43.07865399396422" lon="12.17864348056372"><ele>466.20000000000005</ele><time>2026-03-29T10:09:09Z</time></trkpt><trkpt lat="43.07866213397461" lon="12.178758015309247"><ele>468.79999999999995</ele><time>2026-03-29T10:09:10Z</time></trkpt><trkpt lat="43.0786428917475" lon="12.178881431328085"><ele>471.4</ele><time>2026-03-29T10:09:11Z</time></trkpt><trkpt lat="43.078608026013775" lon="12.178978833047298"><ele>474.0</ele><time>2026-03-29T10:09:12Z</time></trkpt><trkpt lat="43.07854986203275" lon="12.179101149006831"><ele>475.4</ele><time>2026-03-29T10:09:13Z</time></trkpt><trkpt lat="43.0784678535755" lon="12.179192916290278"><ele>476.79999999999995</ele><time>2026-03-29T10:09:14Z</time></trkpt><trkpt lat="43.078405816546194" lon="12.179274848800677"><ele>478.20000000000005</ele><time>2026-03-29T10:09:15Z</time></trkpt><trkpt lat="43.07834531327954" lon="12.179357720715501"><ele>479.6</ele><time>2026-03-29T10:09:16Z</time></trkpt><trkpt lat="43.07827520368363" lon="12.179429048296916"><ele>481.0</ele><time>2026-03-29T10:09:17Z</time></trkpt><trkpt lat="43.078210418286766" lon="12.179512742858133"><ele>484.00000000000006</ele><time>2026-03-29T10:09:18Z</time></trkpt><trkpt lat="43.078167961836506" lon="12.17959515558368"><ele>487.0</ele><time>2026-03-29T10:09:19Z</time></trkpt><trkpt lat="43.078134764710086" lon="12.179723423248786"><ele>490.0</ele><time>2026-03-29T10:09:20Z</time></trkpt><trkpt lat="43.07811725459858" lon="12.179856851841558"><ele>493.0</ele><time>2026-03-29T10:09:21Z</time></trkpt><trkpt lat="43.07811340711159" lon="12.179969363436323"><ele>496.00000000000006</ele><time>2026-03-29T10:09:22Z</time></trkpt><trkpt lat="43.07811549244162" lon="12.18008481001744"><ele>499.0</ele><time>2026-03-29T10:09:23Z</time></trkpt><trkpt lat="43.07814845435152" lon="12.180176033240988"><ele>499.0</ele><time>2026-03-29T10:09:24Z</time></trkpt><trkpt lat="43.078154176555856" lon="12.180315682855284"><ele>499.0</ele><time>2026-03-29T10:09:25Z</time></trkpt><trkpt lat="43.07819725050781" lon="12.18048359310612"><ele>499.0</ele><time>2026-03-29T10:09:27Z</time></trkpt><trkpt lat="43.07818811949617" lon="12.18060678705915"><ele>499.0</ele><time>2026-03-29T10:09:28Z</time></trkpt><trkpt lat="43.07815900713946" lon="12.18071310313126"><ele>499.0</ele><time>2026-03-29T10:09:29Z</time></trkpt><trkpt lat="43.07812608201508" lon="12.18083298933076"><ele>498.0</ele><time>2026-03-29T10:09:30Z</time></trkpt><trkpt lat="43.07804563221615" lon="12.18095295639418"><ele>497.0</ele><time>2026-03-29T10:09:31Z</time></trkpt><trkpt lat="43.07800019218067" lon="12.181017113515127"><ele>496.0</ele><time>2026-03-29T10:09:32Z</time></trkpt><trkpt lat="43.07794888140666" lon="12.1811448125853"><ele>495.0</ele><time>2026-03-29T10:09:34Z</time></trkpt><trkpt lat="43.077899010818676" lon="12.181293421382932"><ele>494.0</ele><time>2026-03-29T10:09:36Z</time></trkpt><trkpt lat="43.07785770453018" lon="12.181421951691393"><ele>492.0</ele><time>2026-03-29T10:09:38Z</time></trkpt><trkpt lat="43.07783932816756" lon="12.181540599961384"><ele>490.0</ele><time>2026-03-29T10:09:40Z</time></trkpt><trkpt lat="43.077780714722095" lon="12.181690102700554"><ele>488.0</ele><time>2026-03-29T10:09:51Z</time></trkpt><trkpt lat="43.077756650477134" lon="12.181830841352982"><ele>486.0</ele><time>2026-03-29T10:09:52Z</time></trkpt><trkpt lat="43.07775085732509" lon="12.18193203525107"><ele>484.0</ele><time>2026-03-29T10:09:53Z</time></trkpt><trkpt lat="43.0777573958037" lon="12.182038012165336"><ele>484.00000000000006</ele><time>2026-03-29T10:09:54Z</time></trkpt><trkpt lat="43.07776626363538" lon="12.182181558873896"><ele>484.0</ele><time>2026-03-29T10:09:56Z</time></trkpt><trkpt lat="43.07771323206077" lon="12.18230813814616"><ele>484.0</ele><time>2026-03-29T10:09:58Z</time></trkpt><trkpt lat="43.077650261063404" lon="12.182373579911202"><ele>484.0</ele><time>2026-03-29T10:09:59Z</time></trkpt><trkpt lat="43.07757776237503" lon="12.182411585854544"><ele>484.00000000000006</ele><time>2026-03-29T10:10:00Z</time></trkpt><trkpt lat="43.077508680447764" lon="12.18245287559386"><ele>484.0</ele><time>2026-03-29T10:10:01Z</time></trkpt><trkpt lat="43.077437925911035" lon="12.18248676981761"><ele>482.2</ele><time>2026-03-29T10:10:03Z</time></trkpt><trkpt lat="43.077366170236076" lon="12.182533750665804"><ele>480.4</ele><time>2026-03-29T10:10:05Z</time></trkpt><trkpt lat="43.077315824454864" lon="12.182627742093404"><ele>478.6</ele><time>2026-03-29T10:10:08Z</time></trkpt><trkpt lat="43.07736591070603" lon="12.182757061879606"><ele>476.8</ele><time>2026-03-29T10:10:10Z</time></trkpt><trkpt lat="43.077413784435635" lon="12.1828586960686"><ele>475.0</ele><time>2026-03-29T10:10:11Z</time></trkpt><trkpt lat="43.07748494754264" lon="12.182963930123442"><ele>475.0</ele><time>2026-03-29T10:10:12Z</time></trkpt><trkpt lat="43.07756122330723" lon="12.183069430893424"><ele>475.0</ele><time>2026-03-29T10:10:13Z</time></trkpt><trkpt lat="43.077611841400795" lon="12.183146554173065"><ele>475.0</ele><time>2026-03-29T10:10:14Z</time></trkpt><trkpt lat="43.0777308862797" lon="12.183216906936181"><ele>475.0</ele><time>2026-03-29T10:10:16Z</time></trkpt><trkpt lat="43.077800556466585" lon="12.183251458111284"><ele>475.0</ele><time>2026-03-29T10:10:17Z</time></trkpt><trkpt lat="43.07787525614375" lon="12.18328465607184"><ele>475.00000000000006</ele><time>2026-03-29T10:10:18Z</time></trkpt><trkpt lat="43.07794555729437" lon="12.183332527670693"><ele>475.0</ele><time>2026-03-29T10:10:19Z</time></trkpt><trkpt lat="43.07801341909379" lon="12.183351470874982"><ele>475.0</ele><time>2026-03-29T10:10:20Z</time></trkpt><trkpt lat="43.07813324236477" lon="12.183316802523427"><ele>475.0</ele><time>2026-03-29T10:10:22Z</time></trkpt><trkpt lat="43.07818330463094" lon="12.183205130756184"><ele>475.00000000000006</ele><time>2026-03-29T10:10:24Z</time></trkpt><trkpt lat="43.078236968191014" lon="12.183149076486293"><ele>475.0</ele><time>2026-03-29T10:10:25Z</time></trkpt><trkpt lat="43.07831700847061" lon="12.183194810756683"><ele>475.00000000000006</ele><time>2026-03-29T10:10:27Z</time></trkpt><trkpt lat="43.078331138266684" lon="12.183314567157637"><ele>475.0</ele><time>2026-03-29T10:10:29Z</time></trkpt><trkpt lat="43.07836240814631" lon="12.183390858393654"><ele>475.0</ele><time>2026-03-29T10:10:30Z</time></trkpt><trkpt lat="43.078400778016224" lon="12.183490320852078"><ele>475.0</ele><time>2026-03-29T10:10:31Z</time></trkpt><trkpt lat="43.078417463919465" lon="12.183606892884185"><ele>475.00000000000006</ele><time>2026-03-29T10:10:32Z</time></trkpt><trkpt lat="43.078458425369526" lon="12.18375778139349"><ele>475.0</ele><time>2026-03-29T10:10:34Z</time></trkpt><trkpt lat="43.07851577743384" lon="12.183901697694951"><ele>476.0</ele><time>2026-03-29T10:10:36Z</time></trkpt><trkpt lat="43.07855678703588" lon="12.184074660485082"><ele>477.0</ele><time>2026-03-29T10:10:38Z</time></trkpt><trkpt lat="43.07852994136047" lon="12.184203242777526"><ele>478.0</ele><time>2026-03-29T10:10:41Z</time></trkpt><trkpt lat="43.07847003397549" lon="12.184343256219067"><ele>479.0</ele><time>2026-03-29T10:10:43Z</time></trkpt><trkpt lat="43.07842067615603" lon="12.18447778411117"><ele>479.0</ele><time>2026-03-29T10:10:45Z</time></trkpt><trkpt lat="43.0783874062792" lon="12.184556329360133"><ele>479.0</ele><time>2026-03-29T10:10:46Z</time></trkpt><trkpt lat="43.07827121787337" lon="12.18467793357355"><ele>479.0</ele><time>2026-03-29T10:10:48Z</time></trkpt><trkpt lat="43.07820157320998" lon="12.184733007091038"><ele>479.0</ele><time>2026-03-29T10:10:49Z</time></trkpt><trkpt lat="43.07814383506574" lon="12.184797475054836"><ele>479.0</ele><time>2026-03-29T10:10:50Z</time></trkpt><trkpt lat="43.07807214730207" lon="12.184940068138955"><ele>478.57142857142856</ele><time>2026-03-29T10:10:52Z</time></trkpt><trkpt lat="43.07804368426777" lon="12.185035493006175"><ele>478.14285714285717</ele><time>2026-03-29T10:10:53Z</time></trkpt><trkpt lat="43.078028309297196" lon="12.185119917969665"><ele>477.7142857142857</ele><time>2026-03-29T10:10:54Z</time></trkpt><trkpt lat="43.07799679267097" lon="12.185196651761576"><ele>477.2857142857143</ele><time>2026-03-29T10:10:55Z</time></trkpt><trkpt lat="43.07791949168563" lon="12.18522598507844"><ele>476.8571428571429</ele><time>2026-03-29T10:10:57Z</time></trkpt><trkpt lat="43.07786241769613" lon="12.185266905422067"><ele>476.42857142857144</ele><time>2026-03-29T10:10:58Z</time></trkpt><trkpt lat="43.077787392023374" lon="12.185294987788367"><ele>476.0</ele><time>2026-03-29T10:10:59Z</time></trkpt><trkpt lat="43.07772730126383" lon="12.18535315323257"><ele>475.99999999999994</ele><time>2026-03-29T10:11:00Z</time></trkpt><trkpt lat="43.0776875259683" lon="12.185425113901745"><ele>476.0</ele><time>2026-03-29T10:11:01Z</time></trkpt><trkpt lat="43.07763115637138" lon="12.185538081370382"><ele>476.0</ele><time>2026-03-29T10:11:03Z</time></trkpt><trkpt lat="43.07760472359684" lon="12.185642739214186"><ele>476.0</ele><time>2026-03-29T10:11:06Z</time></trkpt><trkpt lat="43.077557111935086" lon="12.185749246542805"><ele>475.99999999999994</ele><time>2026-03-29T10:11:09Z</time></trkpt><trkpt lat="43.077506793868345" lon="12.185823469277251"><ele>476.0</ele><time>2026-03-29T10:11:10Z</time></trkpt><trkpt lat="43.0774465731369" lon="12.185927725179125"><ele>473.8</ele><time>2026-03-29T10:11:11Z</time></trkpt><trkpt lat="43.077395480772694" lon="12.186011014224531"><ele>471.6</ele><time>2026-03-29T10:11:12Z</time></trkpt><trkpt lat="43.07736792812056" lon="12.186094739925908"><ele>469.4</ele><time>2026-03-29T10:11:13Z</time></trkpt><trkpt lat="43.07739811116642" lon="12.186261212694097"><ele>467.2</ele><time>2026-03-29T10:11:15Z</time></trkpt><trkpt lat="43.077406940146176" lon="12.186431967266628"><ele>465.0</ele><time>2026-03-29T10:11:17Z</time></trkpt><trkpt lat="43.0773922856847" lon="12.186537543793229"><ele>465.0</ele><time>2026-03-29T10:11:18Z</time></trkpt><trkpt lat="43.07736911406373" lon="12.186626327148165"><ele>465.0</ele><time>2026-03-29T10:11:19Z</time></trkpt><trkpt lat="43.07731191608357" lon="12.186699726471632"><ele>465.0</ele><time>2026-03-29T10:11:20Z</time></trkpt><trkpt lat="43.07732517542651" lon="12.186803521940128"><ele>465.0</ele><time>2026-03-29T10:11:23Z</time></trkpt><trkpt lat="43.07740812962652" lon="12.186862144954452"><ele>465.0</ele><time>2026-03-29T10:11:25Z</time></trkpt><trkpt lat="43.07749168522455" lon="12.18690378562289"><ele>465.0</ele><time>2026-03-29T10:11:27Z</time></trkpt><trkpt lat="43.07755099303776" lon="12.186966494867967"><ele>466.8333333333333</ele><time>2026-03-29T10:11:28Z</time></trkpt><trkpt lat="43.07760421952542" lon="12.187044180469952"><ele>468.66666666666663</ele><time>2026-03-29T10:11:29Z</time></trkpt><trkpt lat="43.07771444034224" lon="12.187122658594944"><ele>470.5</ele><time>2026-03-29T10:11:31Z</time></trkpt><trkpt lat="43.0777726646714" lon="12.187175413537298"><ele>472.3333333333333</ele><time>2026-03-29T10:11:32Z</time></trkpt><trkpt lat="43.07784053630329" lon="12.187228200138192"><ele>474.16666666666663</ele><time>2026-03-29T10:11:33Z</time></trkpt><trkpt lat="43.07791365130306" lon="12.187269770599018"><ele>476.0</ele><time>2026-03-29T10:11:34Z</time></trkpt><trkpt lat="43.07798256924106" lon="12.187304237543703"><ele>475.99999999999994</ele><time>2026-03-29T10:11:35Z</time></trkpt><trkpt lat="43.07806250914365" lon="12.187298661644368"><ele>476.0</ele><time>2026-03-29T10:11:36Z</time></trkpt><trkpt lat="43.07814565769742" lon="12.187284647571405"><ele>476.0</ele><time>2026-03-29T10:11:37Z</time></trkpt><trkpt lat="43.07820986710482" lon="12.187320892531366"><ele>476.0</ele><time>2026-03-29T10:11:38Z</time></trkpt><trkpt lat="43.07826114664262" lon="12.187382096673586"><ele>475.99999999999994</ele><time>2026-03-29T10:11:39Z</time></trkpt><trkpt lat="43.078388272119234" lon="12.187427392183883"><ele>476.0</ele><time>2026-03-29T10:11:41Z</time></trkpt><trkpt lat="43.078458039474505" lon="12.187496668903242"><ele>470.0</ele><time>2026-03-29T10:11:43Z</time></trkpt><trkpt lat="43.07857240647895" lon="12.187563273804258"><ele>464.0</ele><time>2026-03-29T10:11:45Z</time></trkpt><trkpt lat="43.07869451049808" lon="12.187608091215425"><ele>458.0</ele><time>2026-03-29T10:11:47Z</time></trkpt><trkpt lat="43.07881377617103" lon="12.187626483545966"><ele>452.0</ele><time>2026-03-29T10:11:49Z</time></trkpt><trkpt lat="43.07890017573359" lon="12.18762632416284"><ele>452.0</ele><time>2026-03-29T10:11:50Z</time></trkpt><trkpt lat="43.07903159429311" lon="12.187633464638761"><ele>452.00000000000006</ele><time>2026-03-29T10:11:52Z</time></trkpt><trkpt lat="43.07915353848634" lon="12.187688038087899"><ele>452.00000000000006</ele><time>2026-03-29T10:11:54Z</time></trkpt><trkpt lat="43.0792263473989" lon="12.18770309233654"><ele>452.0</ele><time>2026-03-29T10:11:55Z</time></trkpt><trkpt lat="43.07927966201951" lon="12.187750030437586"><ele>452.0</ele><time>2026-03-29T10:11:56Z</time></trkpt><trkpt lat="43.07934120814051" lon="12.187789606269346"><ele>450.99999999999994</ele><time>2026-03-29T10:11:57Z</time></trkpt><trkpt lat="43.07940253771579" lon="12.187827760750942"><ele>450.0</ele><time>2026-03-29T10:11:58Z</time></trkpt><trkpt lat="43.079497394599294" lon="12.187884561152018"><ele>449.0</ele><time>2026-03-29T10:12:00Z</time></trkpt><trkpt lat="43.07953642559246" lon="12.187976566728711"><ele>448.0</ele><time>2026-03-29T10:12:04Z</time></trkpt><trkpt lat="43.07959544135392" lon="12.188034705905782"><ele>446.99999999999994</ele><time>2026-03-29T10:12:07Z</time></trkpt><trkpt lat="43.0796676741186" lon="12.188068791319434"><ele>446.0</ele><time>2026-03-29T10:12:08Z</time></trkpt><trkpt lat="43.079760906719194" lon="12.188097844329654"><ele>445.99999999999994</ele><time>2026-03-29T10:14:40Z</time></trkpt><trkpt lat="43.07982656803879" lon="12.188155134738885"><ele>446.0</ele><time>2026-03-29T10:14:44Z</time></trkpt><trkpt lat="43.07988662812982" lon="12.188226192178583"><ele>446.0</ele><time>2026-03-29T10:14:46Z</time></trkpt><trkpt lat="43.07996656964653" lon="12.188327961078516"><ele>446.0</ele><time>2026-03-29T10:14:48Z</time></trkpt><trkpt lat="43.08001829898849" lon="12.188389920210211"><ele>445.99999999999994</ele><time>2026-03-29T10:14:50Z</time></trkpt><trkpt lat="43.08003159139379" lon="12.18849711701611"><ele>446.0</ele><time>2026-03-29T10:14:52Z</time></trkpt><trkpt lat="43.0801067121275" lon="12.188533909750719"><ele>441.8</ele><time>2026-03-29T10:14:56Z</time></trkpt><trkpt lat="43.08019700558101" lon="12.188542857248827"><ele>437.6</ele><time>2026-03-29T10:14:59Z</time></trkpt><trkpt lat="43.08027743017349" lon="12.188578144561678"><ele>433.4</ele><time>2026-03-29T10:15:02Z</time></trkpt><trkpt lat="43.08036714335566" lon="12.188646385032742"><ele>429.2</ele><time>2026-03-29T10:15:04Z</time></trkpt><trkpt lat="43.08043001261605" lon="12.18870166387928"><ele>425.0</ele><time>2026-03-29T10:15:06Z</time></trkpt><trkpt lat="43.080511302887196" lon="12.18879176457403"><ele>425.0</ele><time>2026-03-29T10:15:08Z</time></trkpt><trkpt lat="43.08058559796741" lon="12.188824612308267"><ele>425.0</ele><time>2026-03-29T10:15:10Z</time></trkpt><trkpt lat="43.08066250952274" lon="12.188827154986702"><ele>425.0</ele><time>2026-03-29T10:15:12Z</time></trkpt><trkpt lat="43.08078395496641" lon="12.188841842034414"><ele>425.0</ele><time>2026-03-29T10:15:14Z</time></trkpt><trkpt lat="43.080889440855074" lon="12.188863352508335"><ele>425.0</ele><time>2026-03-29T10:15:15Z</time></trkpt><trkpt lat="43.080955077558535" lon="12.18890284551"><ele>422.6</ele><time>2026-03-29T10:15:16Z</time></trkpt><trkpt lat="43.081055770284514" lon="12.189021126703578"><ele>420.2</ele><time>2026-03-29T10:15:18Z</time></trkpt><trkpt lat="43.08117400033965" lon="12.189117586574575"><ele>417.79999999999995</ele><time>2026-03-29T10:15:20Z</time></trkpt><trkpt lat="43.08125506147857" lon="12.189162832522891"><ele>415.4</ele><time>2026-03-29T10:15:21Z</time></trkpt><trkpt lat="43.08133072772852" lon="12.189212934594872"><ele>413.0</ele><time>2026-03-29T10:15:22Z</time></trkpt><trkpt lat="43.08140987903136" lon="12.189263474041313"><ele>412.99999999999994</ele><time>2026-03-29T10:15:23Z</time></trkpt><trkpt lat="43.08146631996402" lon="12.189312699345443"><ele>413.0</ele><time>2026-03-29T10:15:24Z</time></trkpt><trkpt lat="43.08151578985975" lon="12.189373939073878"><ele>413.0</ele><time>2026-03-29T10:15:25Z</time></trkpt><trkpt lat="43.08155190917858" lon="12.18945478293199"><ele>413.0</ele><time>2026-03-29T10:15:26Z</time></trkpt><trkpt lat="43.0815788835322" lon="12.189581024754778"><ele>412.99999999999994</ele><time>2026-03-29T10:15:27Z</time></trkpt><trkpt lat="43.08161591672255" lon="12.18969218147799"><ele>413.0</ele><time>2026-03-29T10:15:28Z</time></trkpt><trkpt lat="43.081634911899606" lon="12.189780008924508"><ele>410.66666666666663</ele><time>2026-03-29T10:15:29Z</time></trkpt><trkpt lat="43.08166533461096" lon="12.189860971228454"><ele>408.3333333333333</ele><time>2026-03-29T10:15:30Z</time></trkpt><trkpt lat="43.08169988562024" lon="12.18993522614645"><ele>406.0</ele><time>2026-03-29T10:15:31Z</time></trkpt><trkpt lat="43.08174981364449" lon="12.190060493139942"><ele>403.66666666666663</ele><time>2026-03-29T10:15:33Z</time></trkpt><trkpt lat="43.081797962869786" lon="12.19014731961879"><ele>401.3333333333333</ele><time>2026-03-29T10:15:35Z</time></trkpt><trkpt lat="43.081831044050745" lon="12.190253003936402"><ele>399.0</ele><time>2026-03-29T10:15:37Z</time></trkpt><trkpt lat="43.08185887316053" lon="12.190356354193428"><ele>399.0</ele><time>2026-03-29T10:15:41Z</time></trkpt><trkpt lat="43.081881807125676" lon="12.190449983019997"><ele>399.0</ele><time>2026-03-29T10:15:43Z</time></trkpt><trkpt lat="43.08192720160706" lon="12.190554192375412"><ele>399.0</ele><time>2026-03-29T10:15:45Z</time></trkpt><trkpt lat="43.08195274514881" lon="12.1906393712061"><ele>399.0</ele><time>2026-03-29T10:15:47Z</time></trkpt><trkpt lat="43.08202043848189" lon="12.190821093568449"><ele>399.0</ele><time>2026-03-29T10:15:49Z</time></trkpt><trkpt lat="43.082068234700046" lon="12.190953554888969"><ele>398.1666666666667</ele><time>2026-03-29T10:15:51Z</time></trkpt><trkpt lat="43.08206531527163" lon="12.191044828817509"><ele>397.33333333333337</ele><time>2026-03-29T10:15:53Z</time></trkpt><trkpt lat="43.08202925414917" lon="12.191132637412512"><ele>396.5</ele><time>2026-03-29T10:15:56Z</time></trkpt><trkpt lat="43.082049357742214" lon="12.191232101889973"><ele>395.6666666666667</ele><time>2026-03-29T10:15:59Z</time></trkpt><trkpt lat="43.08207582928499" lon="12.191327224851346"><ele>394.83333333333337</ele><time>2026-03-29T10:16:01Z</time></trkpt><trkpt lat="43.08216975410694" lon="12.19134641854726"><ele>394.0</ele><time>2026-03-29T10:16:05Z</time></trkpt><trkpt lat="43.08224974844327" lon="12.19138570866117"><ele>394.00000000000006</ele><time>2026-03-29T10:16:09Z</time></trkpt><trkpt lat="43.08229525322323" lon="12.191467403680237"><ele>394.0</ele><time>2026-03-29T10:16:12Z</time></trkpt><trkpt lat="43.08238349141133" lon="12.191503288302625"><ele>394.0</ele><time>2026-03-29T10:16:24Z</time></trkpt><trkpt lat="43.08244943653041" lon="12.191524252306474"><ele>394.0</ele><time>2026-03-29T10:16:26Z</time></trkpt><trkpt lat="43.0825347575073" lon="12.191555279630734"><ele>394.00000000000006</ele><time>2026-03-29T10:16:27Z</time></trkpt><trkpt lat="43.08261720717588" lon="12.19161750789674"><ele>394.0</ele><time>2026-03-29T10:16:28Z</time></trkpt><trkpt lat="43.082724524138214" lon="12.1917316246658"><ele>393.57142857142856</ele><time>2026-03-29T10:16:30Z</time></trkpt><trkpt lat="43.08279125492058" lon="12.191770784024644"><ele>393.14285714285717</ele><time>2026-03-29T10:16:31Z</time></trkpt><trkpt lat="43.08285333003713" lon="12.191797383745152"><ele>392.71428571428567</ele><time>2026-03-29T10:16:32Z</time></trkpt><trkpt lat="43.08292572534508" lon="12.1918459330662"><ele>392.2857142857143</ele><time>2026-03-29T10:16:33Z</time></trkpt><trkpt lat="43.08299321865682" lon="12.191871534163521"><ele>391.85714285714283</ele><time>2026-03-29T10:16:34Z</time></trkpt><trkpt lat="43.08305518070856" lon="12.191907895976344"><ele>391.4285714285714</ele><time>2026-03-29T10:16:35Z</time></trkpt><trkpt lat="43.08312585763538" lon="12.191953469183403"><ele>391.0</ele><time>2026-03-29T10:16:36Z</time></trkpt><trkpt lat="43.08318628797091" lon="12.19200345925144"><ele>389.83333333333337</ele><time>2026-03-29T10:16:37Z</time></trkpt><trkpt lat="43.08326857484389" lon="12.192054225135733"><ele>388.6666666666667</ele><time>2026-03-29T10:16:38Z</time></trkpt><trkpt lat="43.0833324985136" lon="12.192097495787554"><ele>387.5</ele><time>2026-03-29T10:16:39Z</time></trkpt><trkpt lat="43.08339524216279" lon="12.192156122020817"><ele>386.33333333333337</ele><time>2026-03-29T10:16:40Z</time></trkpt><trkpt lat="43.083463418806126" lon="12.192229250744553"><ele>385.1666666666667</ele><time>2026-03-29T10:16:41Z</time></trkpt><trkpt lat="43.083535752487506" lon="12.192324826941686"><ele>384.0</ele><time>2026-03-29T10:16:42Z</time></trkpt><trkpt lat="43.08357918527843" lon="12.192439907407381"><ele>383.5</ele><time>2026-03-29T10:16:43Z</time></trkpt><trkpt lat="43.08361849740345" lon="12.19253127019309"><ele>383.0</ele><time>2026-03-29T10:16:44Z</time></trkpt><trkpt lat="43.08364763462394" lon="12.19261968710958"><ele>382.5</ele><time>2026-03-29T10:16:45Z</time></trkpt><trkpt lat="43.083693844004785" lon="12.192708538154298"><ele>382.0</ele><time>2026-03-29T10:16:46Z</time></trkpt><trkpt lat="43.0837422300788" lon="12.192786427676367"><ele>381.5</ele><time>2026-03-29T10:16:47Z</time></trkpt><trkpt lat="43.08377565296667" lon="12.192873128605799"><ele>381.0</ele><time>2026-03-29T10:16:48Z</time></trkpt><trkpt lat="43.083794187173126" lon="12.192975307257843"><ele>381.0</ele><time>2026-03-29T10:16:49Z</time></trkpt><trkpt lat="43.08382307805651" lon="12.193094122485427"><ele>381.0</ele><time>2026-03-29T10:16:50Z</time></trkpt><trkpt lat="43.083884942635294" lon="12.19320829131285"><ele>381.0</ele><time>2026-03-29T10:16:51Z</time></trkpt><trkpt lat="43.083901155709896" lon="12.193314946407583"><ele>381.0</ele><time>2026-03-29T10:16:52Z</time></trkpt><trkpt lat="43.083907731904205" lon="12.193438930582417"><ele>381.0</ele><time>2026-03-29T10:16:53Z</time></trkpt><trkpt lat="43.08389108796961" lon="12.193556317263184"><ele>378.8</ele><time>2026-03-29T10:16:54Z</time></trkpt><trkpt lat="43.083883680513" lon="12.193661423917332"><ele>376.6</ele><time>2026-03-29T10:16:55Z</time></trkpt><trkpt lat="43.08385687077895" lon="12.193787817955654"><ele>374.4</ele><time>2026-03-29T10:16:56Z</time></trkpt><trkpt lat="43.083843637530855" lon="12.19391703826039"><ele>372.2</ele><time>2026-03-29T10:16:57Z</time></trkpt><trkpt lat="43.083837480146876" lon="12.194044535724437"><ele>370.0</ele><time>2026-03-29T10:16:58Z</time></trkpt><trkpt lat="43.083823149781416" lon="12.194173811253094"><ele>367.6</ele><time>2026-03-29T10:16:59Z</time></trkpt><trkpt lat="43.08379856926597" lon="12.194313439346104"><ele>365.2</ele><time>2026-03-29T10:17:00Z</time></trkpt><trkpt lat="43.08376996635094" lon="12.194450620634779"><ele>362.79999999999995</ele><time>2026-03-29T10:17:01Z</time></trkpt><trkpt lat="43.083766223171985" lon="12.19456108540058"><ele>360.4</ele><time>2026-03-29T10:17:02Z</time></trkpt><trkpt lat="43.08374579787386" lon="12.194667435058475"><ele>358.0</ele><time>2026-03-29T10:17:03Z</time></trkpt><trkpt lat="43.083735893594174" lon="12.194786680724196"><ele>356.3333333333333</ele><time>2026-03-29T10:17:04Z</time></trkpt><trkpt lat="43.083753113913524" lon="12.194885798576722"><ele>354.66666666666663</ele><time>2026-03-29T10:17:05Z</time></trkpt><trkpt lat="43.08378884781289" lon="12.194968252411272"><ele>353.0</ele><time>2026-03-29T10:17:06Z</time></trkpt><trkpt lat="43.083839556603486" lon="12.195035938289926"><ele>351.3333333333333</ele><time>2026-03-29T10:17:07Z</time></trkpt><trkpt lat="43.083905399818676" lon="12.195117397067387"><ele>349.6666666666667</ele><time>2026-03-29T10:17:08Z</time></trkpt><trkpt lat="43.08398165639053" lon="12.195211933265767"><ele>348.0</ele><time>2026-03-29T10:17:09Z</time></trkpt><trkpt lat="43.0840577713772" lon="12.195300110323052"><ele>348.2</ele><time>2026-03-29T10:17:10Z</time></trkpt><trkpt lat="43.08412736622116" lon="12.195380390478679"><ele>348.4</ele><time>2026-03-29T10:17:11Z</time></trkpt><trkpt lat="43.08421215297926" lon="12.195483486886522"><ele>348.59999999999997</ele><time>2026-03-29T10:17:12Z</time></trkpt><trkpt lat="43.08430817440547" lon="12.195583264953239"><ele>348.79999999999995</ele><time>2026-03-29T10:17:13Z</time></trkpt><trkpt lat="43.08436809790377" lon="12.195699957578046"><ele>349.0</ele><time>2026-03-29T10:17:14Z</time></trkpt><trkpt lat="43.084439970540224" lon="12.195781044754726"><ele>349.0</ele><time>2026-03-29T10:17:15Z</time></trkpt><trkpt lat="43.08450385056691" lon="12.195868952954035"><ele>349.0</ele><time>2026-03-29T10:17:16Z</time></trkpt><trkpt lat="43.08455121936075" lon="12.195971483217296"><ele>349.0</ele><time>2026-03-29T10:17:17Z</time></trkpt><trkpt lat="43.0846010773199" lon="12.196079696267523"><ele>349.0</ele><time>2026-03-29T10:17:18Z</time></trkpt><trkpt lat="43.084639699896975" lon="12.196200645074441"><ele>349.0</ele><time>2026-03-29T10:17:19Z</time></trkpt><trkpt lat="43.084663835781036" lon="12.196301913534944"><ele>349.0</ele><time>2026-03-29T10:17:20Z</time></trkpt><trkpt lat="43.084680721003444" lon="12.196422042962794"><ele>346.79999999999995</ele><time>2026-03-29T10:17:21Z</time></trkpt><trkpt lat="43.08466828173665" lon="12.19652482090044"><ele>344.59999999999997</ele><time>2026-03-29T10:17:22Z</time></trkpt><trkpt lat="43.084635181986194" lon="12.196620277171514"><ele>342.4</ele><time>2026-03-29T10:17:23Z</time></trkpt><trkpt lat="43.084525382305586" lon="12.196676787711544"><ele>340.2</ele><time>2026-03-29T10:17:25Z</time></trkpt><trkpt lat="43.08439900552044" lon="12.196649331613568"><ele>338.0</ele><time>2026-03-29T10:17:27Z</time></trkpt><trkpt lat="43.084352132234834" lon="12.196563707449474"><ele>337.57142857142856</ele><time>2026-03-29T10:17:28Z</time></trkpt><trkpt lat="43.08432042294257" lon="12.196475373485866"><ele>337.1428571428571</ele><time>2026-03-29T10:17:29Z</time></trkpt><trkpt lat="43.08429508091565" lon="12.196395342038157"><ele>336.71428571428567</ele><time>2026-03-29T10:17:30Z</time></trkpt><trkpt lat="43.08423067127057" lon="12.196352340433586"><ele>336.2857142857143</ele><time>2026-03-29T10:17:31Z</time></trkpt><trkpt lat="43.084164223978725" lon="12.19634770461592"><ele>335.85714285714283</ele><time>2026-03-29T10:17:32Z</time></trkpt><trkpt lat="43.08410027341078" lon="12.19639193351791"><ele>335.4285714285714</ele><time>2026-03-29T10:17:33Z</time></trkpt><trkpt lat="43.08405635703694" lon="12.196472422476942"><ele>335.0</ele><time>2026-03-29T10:17:34Z</time></trkpt><trkpt lat="43.08401320499334" lon="12.196545549312962"><ele>332.8</ele><time>2026-03-29T10:17:35Z</time></trkpt><trkpt lat="43.0839742782877" lon="12.196709197955764"><ele>330.6</ele><time>2026-03-29T10:17:37Z</time></trkpt><trkpt lat="43.08386717562732" lon="12.196768504927933"><ele>328.4</ele><time>2026-03-29T10:17:39Z</time></trkpt><trkpt lat="43.08379609218023" lon="12.196774508855924"><ele>326.2</ele><time>2026-03-29T10:17:40Z</time></trkpt><trkpt lat="43.08367860983006" lon="12.196784438752148"><ele>324.0</ele><time>2026-03-29T10:17:42Z</time></trkpt><trkpt lat="43.08365477728859" lon="12.196876448434917"><ele>324.0</ele><time>2026-03-29T10:17:46Z</time></trkpt><trkpt lat="43.08368203584993" lon="12.196985279386768"><ele>324.0</ele><time>2026-03-29T10:18:06Z</time></trkpt><trkpt lat="43.08367297808149" lon="12.197073852182895"><ele>324.0</ele><time>2026-03-29T10:18:07Z</time></trkpt><trkpt lat="43.08368874599996" lon="12.197175802220016"><ele>324.0</ele><time>2026-03-29T10:18:08Z</time></trkpt><trkpt lat="43.08373795969326" lon="12.197262872523554"><ele>324.0</ele><time>2026-03-29T10:18:09Z</time></trkpt><trkpt lat="43.08383762015224" lon="12.197331883217977"><ele>324.0</ele><time>2026-03-29T10:18:11Z</time></trkpt><trkpt lat="43.08391924711147" lon="12.197356797030723"><ele>323.4</ele><time>2026-03-29T10:18:12Z</time></trkpt><trkpt lat="43.08399758577849" lon="12.197385724262015"><ele>322.79999999999995</ele><time>2026-03-29T10:18:13Z</time></trkpt><trkpt lat="43.08407695804649" lon="12.197417500156119"><ele>322.20000000000005</ele><time>2026-03-29T10:18:14Z</time></trkpt><trkpt lat="43.08420130840469" lon="12.197496820598142"><ele>321.6</ele><time>2026-03-29T10:18:16Z</time></trkpt><trkpt lat="43.08427645614979" lon="12.197535361413403"><ele>321.0</ele><time>2026-03-29T10:18:17Z</time></trkpt><trkpt lat="43.08433884245683" lon="12.19760308888638"><ele>321.0</ele><time>2026-03-29T10:18:18Z</time></trkpt><trkpt lat="43.08440790797835" lon="12.197662045028547"><ele>321.0</ele><time>2026-03-29T10:18:19Z</time></trkpt><trkpt lat="43.08448732287274" lon="12.197716452395227"><ele>321.0</ele><time>2026-03-29T10:18:20Z</time></trkpt><trkpt lat="43.08455310082171" lon="12.197770958430484"><ele>321.0</ele><time>2026-03-29T10:18:21Z</time></trkpt><trkpt lat="43.08461385734966" lon="12.197800702945473"><ele>321.0</ele><time>2026-03-29T10:18:22Z</time></trkpt><trkpt lat="43.08468169897503" lon="12.197832294393054"><ele>321.0</ele><time>2026-03-29T10:18:24Z</time></trkpt><trkpt lat="43.08480210934888" lon="12.197848840642672"><ele>321.0</ele><time>2026-03-29T10:18:26Z</time></trkpt><trkpt lat="43.084865043591684" lon="12.19780450576072"><ele>321.0</ele><time>2026-03-29T10:18:27Z</time></trkpt><trkpt lat="43.08493691315096" lon="12.197809346571411"><ele>321.0</ele><time>2026-03-29T10:18:28Z</time></trkpt><trkpt lat="43.085009819236355" lon="12.197896290580514"><ele>321.0</ele><time>2026-03-29T10:18:32Z</time></trkpt><trkpt lat="43.085118903042236" lon="12.197947727218802"><ele>321.0</ele><time>2026-03-29T10:18:34Z</time></trkpt><trkpt lat="43.08519751864595" lon="12.197908837843244"><ele>321.0</ele><time>2026-03-29T10:18:38Z</time></trkpt><trkpt lat="43.085232979481724" lon="12.197823905237703"><ele>321.25</ele><time>2026-03-29T10:19:05Z</time></trkpt><trkpt lat="43.085309177139315" lon="12.1976723993546"><ele>321.5</ele><time>2026-03-29T10:19:07Z</time></trkpt><trkpt lat="43.085357932490574" lon="12.197562602339746"><ele>321.75</ele><time>2026-03-29T10:19:08Z</time></trkpt><trkpt lat="43.08541555163405" lon="12.197436783289298"><ele>322.0</ele><time>2026-03-29T10:19:09Z</time></trkpt><trkpt lat="43.08552453155395" lon="12.197320630926235"><ele>322.0</ele><time>2026-03-29T10:19:10Z</time></trkpt><trkpt lat="43.08561685533902" lon="12.197166310027653"><ele>322.0</ele><time>2026-03-29T10:19:11Z</time></trkpt><trkpt lat="43.08571460204465" lon="12.196997584362823"><ele>322.0</ele><time>2026-03-29T10:19:12Z</time></trkpt><trkpt lat="43.085815403278815" lon="12.19681626230073"><ele>322.0</ele><time>2026-03-29T10:19:13Z</time></trkpt><trkpt lat="43.08592900693839" lon="12.196610695218123"><ele>322.0</ele><time>2026-03-29T10:19:14Z</time></trkpt><trkpt lat="43.08604931409745" lon="12.196392757532976"><ele>322.0</ele><time>2026-03-29T10:19:15Z</time></trkpt><trkpt lat="43.08614394681211" lon="12.196193265225752"><ele>321.25</ele><time>2026-03-29T10:19:16Z</time></trkpt><trkpt lat="43.08622812212003" lon="12.19604496597679"><ele>320.5</ele><time>2026-03-29T10:19:17Z</time></trkpt><trkpt lat="43.08631878037048" lon="12.195881134204594"><ele>319.75</ele><time>2026-03-29T10:19:18Z</time></trkpt><trkpt lat="43.08641390189307" lon="12.195732302997163"><ele>319.0</ele><time>2026-03-29T10:19:19Z</time></trkpt><trkpt lat="43.08648689016338" lon="12.195566933674069"><ele>312.66666666666663</ele><time>2026-03-29T10:19:20Z</time></trkpt><trkpt lat="43.08659879248662" lon="12.195399331316048"><ele>306.3333333333333</ele><time>2026-03-29T10:19:21Z</time></trkpt><trkpt lat="43.08671244382884" lon="12.195277168865564"><ele>300.0</ele><time>2026-03-29T10:19:22Z</time></trkpt><trkpt lat="43.08677115012283" lon="12.195068584872404"><ele>300.0</ele><time>2026-03-29T10:19:23Z</time></trkpt><trkpt lat="43.08686111621819" lon="12.194897223048772"><ele>300.0</ele><time>2026-03-29T10:19:24Z</time></trkpt><trkpt lat="43.08693847147927" lon="12.194771465070144"><ele>300.0</ele><time>2026-03-29T10:19:25Z</time></trkpt><trkpt lat="43.08701583167944" lon="12.19465498746845"><ele>300.0</ele><time>2026-03-29T10:19:26Z</time></trkpt><trkpt lat="43.08707657089151" lon="12.194540033134736"><ele>300.6666666666667</ele><time>2026-03-29T10:19:27Z</time></trkpt><trkpt lat="43.087129410337006" lon="12.19443395432585"><ele>301.3333333333333</ele><time>2026-03-29T10:19:28Z</time></trkpt><trkpt lat="43.08718718625078" lon="12.194372034428518"><ele>302.0</ele><time>2026-03-29T10:19:29Z</time></trkpt><trkpt lat="43.08725744350483" lon="12.194329559127938"><ele>302.66666666666663</ele><time>2026-03-29T10:19:30Z</time></trkpt><trkpt lat="43.08732214138294" lon="12.194317539280618"><ele>303.3333333333333</ele><time>2026-03-29T10:19:31Z</time></trkpt><trkpt lat="43.08741573708379" lon="12.194311893440943"><ele>304.0</ele><time>2026-03-29T10:19:33Z</time></trkpt><trkpt lat="43.08749758185979" lon="12.194333263879576"><ele>300.2</ele><time>2026-03-29T10:19:45Z</time></trkpt><trkpt lat="43.08756819575578" lon="12.194207607108368"><ele>296.4</ele><time>2026-03-29T10:19:47Z</time></trkpt><trkpt lat="43.08757915957501" lon="12.194100839480257"><ele>292.6</ele><time>2026-03-29T10:19:48Z</time></trkpt><trkpt lat="43.08758105342558" lon="12.193966759943768"><ele>288.8</ele><time>2026-03-29T10:19:49Z</time></trkpt><trkpt lat="43.087593453976844" lon="12.193819427136017"><ele>285.0</ele><time>2026-03-29T10:19:50Z</time></trkpt><trkpt lat="43.087601298289826" lon="12.193657114739535"><ele>284.75</ele><time>2026-03-29T10:19:51Z</time></trkpt><trkpt lat="43.087612615646485" lon="12.193501112173498"><ele>284.5</ele><time>2026-03-29T10:19:52Z</time></trkpt><trkpt lat="43.08762145547838" lon="12.193346029120157"><ele>284.25</ele><time>2026-03-29T10:19:53Z</time></trkpt><trkpt lat="43.08763650378475" lon="12.193179783075172"><ele>284.0</ele><time>2026-03-29T10:19:54Z</time></trkpt><trkpt lat="43.087652640645636" lon="12.193006473121285"><ele>283.5</ele><time>2026-03-29T10:19:55Z</time></trkpt><trkpt lat="43.08766774931555" lon="12.19283612062591"><ele>283.0</ele><time>2026-03-29T10:19:56Z</time></trkpt><trkpt lat="43.08767706112316" lon="12.19266490771738"><ele>282.5</ele><time>2026-03-29T10:19:57Z</time></trkpt><trkpt lat="43.0876904537091" lon="12.192489663590239"><ele>282.0</ele><time>2026-03-29T10:19:58Z</time></trkpt><trkpt lat="43.087697725349294" lon="12.192312625901753"><ele>282.0</ele><time>2026-03-29T10:19:59Z</time></trkpt><trkpt lat="43.087695136912295" lon="12.192126334029663"><ele>282.0</ele><time>2026-03-29T10:20:00Z</time></trkpt><trkpt lat="43.087670402625754" lon="12.191941876863744"><ele>282.0</ele><time>2026-03-29T10:20:01Z</time></trkpt><trkpt lat="43.087625318485514" lon="12.191769707741866"><ele>282.0</ele><time>2026-03-29T10:20:02Z</time></trkpt><trkpt lat="43.0875518361639" lon="12.191611354974691"><ele>280.5</ele><time>2026-03-29T10:20:03Z</time></trkpt><trkpt lat="43.087464586338534" lon="12.191461882083752"><ele>279.0</ele><time>2026-03-29T10:20:04Z</time></trkpt><trkpt lat="43.08739281873389" lon="12.19129738866819"><ele>277.5</ele><time>2026-03-29T10:20:05Z</time></trkpt><trkpt lat="43.08730731373501" lon="12.191127166753335"><ele>276.0</ele><time>2026-03-29T10:20:06Z</time></trkpt><trkpt lat="43.08723010038834" lon="12.190967766046475"><ele>279.5</ele><time>2026-03-29T10:20:07Z</time></trkpt><trkpt lat="43.08717244919065" lon="12.190824901578003"><ele>283.0</ele><time>2026-03-29T10:20:08Z</time></trkpt><trkpt lat="43.08713399764682" lon="12.190671612132567"><ele>286.5</ele><time>2026-03-29T10:20:09Z</time></trkpt><trkpt lat="43.08707558042701" lon="12.190521148507337"><ele>290.0</ele><time>2026-03-29T10:20:10Z</time></trkpt><trkpt lat="43.087060909904274" lon="12.190345633689718"><ele>290.0</ele><time>2026-03-29T10:20:11Z</time></trkpt><trkpt lat="43.0870546319348" lon="12.190160578420443"><ele>290.0</ele><time>2026-03-29T10:20:12Z</time></trkpt><trkpt lat="43.08706677366644" lon="12.189963206112227"><ele>290.0</ele><time>2026-03-29T10:20:13Z</time></trkpt><trkpt lat="43.08717459213311" lon="12.189831128532637"><ele>290.0</ele><time>2026-03-29T10:20:14Z</time></trkpt><trkpt lat="43.0872173094439" lon="12.18965601538579"><ele>291.25</ele><time>2026-03-29T10:20:15Z</time></trkpt><trkpt lat="43.08725880980834" lon="12.189485890924688"><ele>292.5</ele><time>2026-03-29T10:20:16Z</time></trkpt><trkpt lat="43.08730089651279" lon="12.189313362833909"><ele>293.75</ele><time>2026-03-29T10:20:17Z</time></trkpt><trkpt lat="43.087341597788715" lon="12.189145699416397"><ele>295.0</ele><time>2026-03-29T10:20:18Z</time></trkpt><trkpt lat="43.087385345095264" lon="12.188964467063252"><ele>295.0</ele><time>2026-03-29T10:20:19Z</time></trkpt><trkpt lat="43.087426568823226" lon="12.188793689208325"><ele>295.0</ele><time>2026-03-29T10:20:20Z</time></trkpt><trkpt lat="43.08747586449642" lon="12.188631938943002"><ele>295.0</ele><time>2026-03-29T10:20:21Z</time></trkpt><trkpt lat="43.08750727780639" lon="12.188443622855196"><ele>295.0</ele><time>2026-03-29T10:20:22Z</time></trkpt><trkpt lat="43.08754388032735" lon="12.188265486085298"><ele>290.0</ele><time>2026-03-29T10:20:23Z</time></trkpt><trkpt lat="43.08759793052824" lon="12.188093054422863"><ele>285.0</ele><time>2026-03-29T10:20:24Z</time></trkpt><trkpt lat="43.08763500056379" lon="12.187904676235696"><ele>280.0</ele><time>2026-03-29T10:20:25Z</time></trkpt><trkpt lat="43.08767032314588" lon="12.187710055022789"><ele>275.0</ele><time>2026-03-29T10:20:26Z</time></trkpt><trkpt lat="43.087683304966156" lon="12.187534181894069"><ele>275.0</ele><time>2026-03-29T10:20:27Z</time></trkpt><trkpt lat="43.08767795164656" lon="12.18736498466278"><ele>275.0</ele><time>2026-03-29T10:20:28Z</time></trkpt><trkpt lat="43.087656766025205" lon="12.187184380688437"><ele>275.0</ele><time>2026-03-29T10:20:29Z</time></trkpt><trkpt lat="43.087622955764985" lon="12.187003784834753"><ele>275.0</ele><time>2026-03-29T10:20:30Z</time></trkpt><trkpt lat="43.08757758055154" lon="12.186824064910164"><ele>274.5</ele><time>2026-03-29T10:20:31Z</time></trkpt><trkpt lat="43.087536851995615" lon="12.186680477449846"><ele>274.0</ele><time>2026-03-29T10:20:32Z</time></trkpt><trkpt lat="43.08749246311095" lon="12.186532013083472"><ele>273.5</ele><time>2026-03-29T10:20:33Z</time></trkpt><trkpt lat="43.08745784308378" lon="12.186385768180978"><ele>273.0</ele><time>2026-03-29T10:20:34Z</time></trkpt><trkpt lat="43.0874222581012" lon="12.18623824780382"><ele>273.0</ele><time>2026-03-29T10:20:35Z</time></trkpt><trkpt lat="43.0873867849584" lon="12.186089561870963"><ele>273.0</ele><time>2026-03-29T10:20:36Z</time></trkpt><trkpt lat="43.08736196178534" lon="12.185931107085908"><ele>273.0</ele><time>2026-03-29T10:20:37Z</time></trkpt><trkpt lat="43.08733097624531" lon="12.185791546327543"><ele>273.0</ele><time>2026-03-29T10:20:38Z</time></trkpt><trkpt lat="43.08729997614273" lon="12.185641384429893"><ele>271.5</ele><time>2026-03-29T10:20:39Z</time></trkpt><trkpt lat="43.087278215674196" lon="12.185487089914988"><ele>270.0</ele><time>2026-03-29T10:20:40Z</time></trkpt><trkpt lat="43.08726855359764" lon="12.185336431072608"><ele>268.5</ele><time>2026-03-29T10:20:41Z</time></trkpt><trkpt lat="43.08726782695542" lon="12.185168394829274"><ele>267.0</ele><time>2026-03-29T10:20:42Z</time></trkpt><trkpt lat="43.08727880228328" lon="12.184996233453505"><ele>267.25</ele><time>2026-03-29T10:20:43Z</time></trkpt><trkpt lat="43.08729419639906" lon="12.184820237600416"><ele>267.5</ele><time>2026-03-29T10:20:44Z</time></trkpt><trkpt lat="43.0873117265399" lon="12.184645295188991"><ele>267.75</ele><time>2026-03-29T10:20:45Z</time></trkpt><trkpt lat="43.087327904938356" lon="12.184467188747425"><ele>268.0</ele><time>2026-03-29T10:20:46Z</time></trkpt><trkpt lat="43.087342261561766" lon="12.184286412536167"><ele>268.0</ele><time>2026-03-29T10:20:47Z</time></trkpt><trkpt lat="43.08735753520837" lon="12.184105183759423"><ele>268.0</ele><time>2026-03-29T10:20:48Z</time></trkpt><trkpt lat="43.087374251947615" lon="12.183925262454437"><ele>268.0</ele><time>2026-03-29T10:20:49Z</time></trkpt><trkpt lat="43.08739149480245" lon="12.183744610630061"><ele>268.0</ele><time>2026-03-29T10:20:50Z</time></trkpt><trkpt lat="43.08740844882376" lon="12.183564347668883"><ele>268.25</ele><time>2026-03-29T10:20:51Z</time></trkpt><trkpt lat="43.08742534204564" lon="12.183377827397226"><ele>268.5</ele><time>2026-03-29T10:20:52Z</time></trkpt><trkpt lat="43.08742564075639" lon="12.183190384540504"><ele>268.75</ele><time>2026-03-29T10:20:53Z</time></trkpt><trkpt lat="43.08745787236008" lon="12.183008709268535"><ele>269.0</ele><time>2026-03-29T10:20:54Z</time></trkpt><trkpt lat="43.087474232359114" lon="12.182823939023173"><ele>266.75</ele><time>2026-03-29T10:20:55Z</time></trkpt><trkpt lat="43.087491379344634" lon="12.18263028031716"><ele>264.5</ele><time>2026-03-29T10:20:56Z</time></trkpt><trkpt lat="43.087506820862366" lon="12.182455883397203"><ele>262.25</ele><time>2026-03-29T10:20:57Z</time></trkpt><trkpt lat="43.08752223275338" lon="12.182281821218277"><ele>260.0</ele><time>2026-03-29T10:20:58Z</time></trkpt><trkpt lat="43.0875367756367" lon="12.182117573613425"><ele>260.0</ele><time>2026-03-29T10:20:59Z</time></trkpt><trkpt lat="43.08755328819077" lon="12.181931321593884"><ele>260.0</ele><time>2026-03-29T10:21:00Z</time></trkpt><trkpt lat="43.087570562043695" lon="12.181737924551161"><ele>260.0</ele><time>2026-03-29T10:21:01Z</time></trkpt><trkpt lat="43.08758848693476" lon="12.181537239159589"><ele>260.0</ele><time>2026-03-29T10:21:02Z</time></trkpt><trkpt lat="43.08760517400725" lon="12.181350412401578"><ele>261.33333333333337</ele><time>2026-03-29T10:21:03Z</time></trkpt><trkpt lat="43.08762204444877" lon="12.18115415293937"><ele>262.6666666666667</ele><time>2026-03-29T10:21:04Z</time></trkpt><trkpt lat="43.08763965423641" lon="12.18094660670968"><ele>264.0</ele><time>2026-03-29T10:21:05Z</time></trkpt><trkpt lat="43.08765820475105" lon="12.180727972991873"><ele>264.0</ele><time>2026-03-29T10:21:06Z</time></trkpt><trkpt lat="43.08767607316222" lon="12.18051737877357"><ele>264.0</ele><time>2026-03-29T10:21:07Z</time></trkpt><trkpt lat="43.08769362072657" lon="12.180310566012766"><ele>264.0</ele><time>2026-03-29T10:21:08Z</time></trkpt><trkpt lat="43.08771152201121" lon="12.180099584090955"><ele>264.0</ele><time>2026-03-29T10:21:09Z</time></trkpt><trkpt lat="43.08773113151049" lon="12.179879706186403"><ele>264.0</ele><time>2026-03-29T10:21:10Z</time></trkpt><trkpt lat="43.087749246688034" lon="12.17968210677751"><ele>264.0</ele><time>2026-03-29T10:21:11Z</time></trkpt><trkpt lat="43.087765737702924" lon="12.17948120547728"><ele>265.3333333333333</ele><time>2026-03-29T10:21:12Z</time></trkpt><trkpt lat="43.08776762953721" lon="12.179287863714038"><ele>266.66666666666663</ele><time>2026-03-29T10:21:13Z</time></trkpt><trkpt lat="43.08778400326845" lon="12.179062812163892"><ele>268.0</ele><time>2026-03-29T10:21:14Z</time></trkpt><trkpt lat="43.087798312499764" lon="12.178832770400522"><ele>268.0</ele><time>2026-03-29T10:21:15Z</time></trkpt><trkpt lat="43.087831742645825" lon="12.178609032722115"><ele>268.0</ele><time>2026-03-29T10:21:16Z</time></trkpt><trkpt lat="43.08784844592358" lon="12.178401771228955"><ele>268.0</ele><time>2026-03-29T10:21:17Z</time></trkpt><trkpt lat="43.08786581983863" lon="12.178189303983006"><ele>268.0</ele><time>2026-03-29T10:21:18Z</time></trkpt><trkpt lat="43.08788305738068" lon="12.177978504534641"><ele>268.0</ele><time>2026-03-29T10:21:19Z</time></trkpt><trkpt lat="43.08788561248419" lon="12.177764623330926"><ele>268.0</ele><time>2026-03-29T10:21:20Z</time></trkpt><trkpt lat="43.08792125880919" lon="12.177575383169323"><ele>268.0</ele><time>2026-03-29T10:21:21Z</time></trkpt><trkpt lat="43.08793232082265" lon="12.177365727012084"><ele>268.0</ele><time>2026-03-29T10:21:22Z</time></trkpt><trkpt lat="43.08794586258195" lon="12.177163560463502"><ele>268.0</ele><time>2026-03-29T10:21:23Z</time></trkpt><trkpt lat="43.08796082370407" lon="12.176964789995514"><ele>268.0</ele><time>2026-03-29T10:21:24Z</time></trkpt><trkpt lat="43.08797814273779" lon="12.176760826136366"><ele>268.0</ele><time>2026-03-29T10:21:25Z</time></trkpt><trkpt lat="43.08799466533599" lon="12.176554744679677"><ele>268.0</ele><time>2026-03-29T10:21:26Z</time></trkpt><trkpt lat="43.08800847963351" lon="12.176351193617606"><ele>268.0</ele><time>2026-03-29T10:21:27Z</time></trkpt><trkpt lat="43.08802610915753" lon="12.176145519873714"><ele>268.0</ele><time>2026-03-29T10:21:28Z</time></trkpt><trkpt lat="43.08804032939343" lon="12.175944960001573"><ele>268.0</ele><time>2026-03-29T10:21:29Z</time></trkpt><trkpt lat="43.08805233670784" lon="12.1757438547363"><ele>268.0</ele><time>2026-03-29T10:21:30Z</time></trkpt><trkpt lat="43.0880753559213" lon="12.17554856355333"><ele>268.0</ele><time>2026-03-29T10:21:31Z</time></trkpt><trkpt lat="43.08808889217159" lon="12.175343590555936"><ele>267.75</ele><time>2026-03-29T10:21:32Z</time></trkpt><trkpt lat="43.08810692800821" lon="12.17514487499755"><ele>267.5</ele><time>2026-03-29T10:21:33Z</time></trkpt><trkpt lat="43.08812239017624" lon="12.174948124306095"><ele>267.25</ele><time>2026-03-29T10:21:34Z</time></trkpt><trkpt lat="43.08813883082674" lon="12.174754352400642"><ele>267.0</ele><time>2026-03-29T10:21:35Z</time></trkpt><trkpt lat="43.088153764560666" lon="12.174544698088413"><ele>267.0</ele><time>2026-03-29T10:21:36Z</time></trkpt><trkpt lat="43.08816806782172" lon="12.174335626254415"><ele>267.0</ele><time>2026-03-29T10:21:37Z</time></trkpt><trkpt lat="43.08818514939538" lon="12.174127303721034"><ele>267.0</ele><time>2026-03-29T10:21:38Z</time></trkpt><trkpt lat="43.08819564035642" lon="12.173920980333017"><ele>267.6666666666667</ele><time>2026-03-29T10:21:39Z</time></trkpt><trkpt lat="43.088221069221014" lon="12.173715290486102"><ele>268.33333333333337</ele><time>2026-03-29T10:21:40Z</time></trkpt><trkpt lat="43.08823720645497" lon="12.173493030404218"><ele>269.0</ele><time>2026-03-29T10:21:41Z</time></trkpt><trkpt lat="43.0882528990528" lon="12.17329397576115"><ele>267.0</ele><time>2026-03-29T10:21:42Z</time></trkpt><trkpt lat="43.08826661177873" lon="12.17309731524772"><ele>265.0</ele><time>2026-03-29T10:21:43Z</time></trkpt><trkpt lat="43.08828681227375" lon="12.17291530894129"><ele>263.0</ele><time>2026-03-29T10:21:44Z</time></trkpt><trkpt lat="43.088302102506674" lon="12.172731284747103"><ele>261.0</ele><time>2026-03-29T10:21:45Z</time></trkpt><trkpt lat="43.088361991509025" lon="12.17254826402585"><ele>261.0</ele><time>2026-03-29T10:21:46Z</time></trkpt><trkpt lat="43.08841766493042" lon="12.17237817174891"><ele>261.0</ele><time>2026-03-29T10:21:47Z</time></trkpt><trkpt lat="43.08849739294006" lon="12.17221310381027"><ele>261.0</ele><time>2026-03-29T10:21:48Z</time></trkpt><trkpt lat="43.088582194307335" lon="12.17205751213154"><ele>261.0</ele><time>2026-03-29T10:21:49Z</time></trkpt><trkpt lat="43.088662432442476" lon="12.171906559207459"><ele>263.0</ele><time>2026-03-29T10:21:50Z</time></trkpt><trkpt lat="43.08872900037479" lon="12.171775421762144"><ele>265.0</ele><time>2026-03-29T10:21:51Z</time></trkpt><trkpt lat="43.08879040062762" lon="12.171656866879903"><ele>267.0</ele><time>2026-03-29T10:21:52Z</time></trkpt><trkpt lat="43.08885384524804" lon="12.171538818233218"><ele>269.0</ele><time>2026-03-29T10:21:53Z</time></trkpt><trkpt lat="43.08891300480364" lon="12.171428742173116"><ele>271.0</ele><time>2026-03-29T10:21:54Z</time></trkpt><trkpt lat="43.08888443693276" lon="12.171258998522339"><ele>268.8</ele><time>2026-03-29T10:21:55Z</time></trkpt><trkpt lat="43.088913479958144" lon="12.171143224092914"><ele>266.6</ele><time>2026-03-29T10:21:56Z</time></trkpt><trkpt lat="43.08895177549938" lon="12.171042807063078"><ele>264.4</ele><time>2026-03-29T10:21:57Z</time></trkpt><trkpt lat="43.08898452108324" lon="12.170955842197351"><ele>262.2</ele><time>2026-03-29T10:21:58Z</time></trkpt><trkpt lat="43.089033933595964" lon="12.170893467408666"><ele>260.0</ele><time>2026-03-29T10:21:59Z</time></trkpt><trkpt lat="43.08918171996691" lon="12.170912069371402"><ele>260.0</ele><time>2026-03-29T10:22:01Z</time></trkpt><trkpt lat="43.0890441414384" lon="12.170794473654535"><ele>260.0</ele><time>2026-03-29T10:22:03Z</time></trkpt><trkpt lat="43.08918106491617" lon="12.170913353461732"><ele>260.0</ele><time>2026-03-29T10:22:07Z</time></trkpt><trkpt lat="43.08896320338891" lon="12.17072197397598"><ele>287.0</ele><time>2026-03-29T10:22:09Z</time></trkpt><trkpt lat="43.089045239381726" lon="12.170750554570587"><ele>287.0</ele><time>2026-03-29T10:22:24Z</time></trkpt><trkpt lat="43.08897617542992" lon="12.170791031206814"><ele>287.0</ele><time>2026-03-29T10:23:47Z</time></trkpt><trkpt lat="43.08905277380861" lon="12.170808085445419"><ele>287.0</ele><time>2026-03-29T10:29:26Z</time></trkpt></trkseg></trk></gpx>